<?xml version="1.0" encoding="UTF-8" standalone="no" ?>
<gpx xmlns="http://www.topografix.com/GPX/1/1" xmlns:xsi="http://www.w3.org/2001/XMLSchema-instance" xsi:schemaLocation="http://www.topografix.com/GPX/1/1 http://www.topografix.com/GPX/1/1/gpx.xsd" version="1.1" creator="VisuGPX - https://www.visugpx.com">
  <metadata>
    <name>Châlons/Saône-Lyon</name>
    <desc><![CDATA[Première itinérance avec Laurence
Première étape Pont de Vaux
Deuxième étape Trévoux

]]></desc>
  </metadata>
  <trk>
    <name><![CDATA[3ème étape: arrivée Lyon]]></name>
    <extensions>
      <line xmlns="http://www.topografix.com/GPX/gpx_style/0/2">
        <color>0000FF</color>
        <width>4</width>
      </line>
    </extensions>
    <trkseg>
      <trkpt lat="45.93966" lon="4.77029">
        <ele>171.2</ele>
        <time>2024-09-20T07:28:07Z</time>
      </trkpt>
      <trkpt lat="45.93966" lon="4.77029">
        <ele>171.2</ele>
        <time>2024-09-20T07:28:52Z</time>
      </trkpt>
      <trkpt lat="45.93966" lon="4.77031">
        <ele>171.2</ele>
        <time>2024-09-20T07:28:53Z</time>
      </trkpt>
      <trkpt lat="45.93967" lon="4.77034">
        <ele>171.2</ele>
        <time>2024-09-20T07:28:54Z</time>
      </trkpt>
      <trkpt lat="45.93968" lon="4.77036">
        <ele>171.2</ele>
        <time>2024-09-20T07:28:55Z</time>
      </trkpt>
      <trkpt lat="45.93969" lon="4.77039">
        <ele>171.2</ele>
        <time>2024-09-20T07:28:56Z</time>
      </trkpt>
      <trkpt lat="45.9397" lon="4.77042">
        <ele>171.2</ele>
        <time>2024-09-20T07:28:57Z</time>
      </trkpt>
      <trkpt lat="45.93971" lon="4.77045">
        <ele>171.2</ele>
        <time>2024-09-20T07:28:58Z</time>
      </trkpt>
      <trkpt lat="45.93973" lon="4.77048">
        <ele>171.2</ele>
        <time>2024-09-20T07:28:59Z</time>
      </trkpt>
      <trkpt lat="45.93974" lon="4.77051">
        <ele>171.2</ele>
        <time>2024-09-20T07:29:00Z</time>
      </trkpt>
      <trkpt lat="45.93975" lon="4.77055">
        <ele>171.2</ele>
        <time>2024-09-20T07:29:01Z</time>
      </trkpt>
      <trkpt lat="45.93976" lon="4.77059">
        <ele>171.2</ele>
        <time>2024-09-20T07:29:02Z</time>
      </trkpt>
      <trkpt lat="45.93977" lon="4.77064">
        <ele>171.4</ele>
        <time>2024-09-20T07:29:03Z</time>
      </trkpt>
      <trkpt lat="45.93978" lon="4.77068">
        <ele>171.4</ele>
        <time>2024-09-20T07:29:04Z</time>
      </trkpt>
      <trkpt lat="45.93979" lon="4.77072">
        <ele>171.4</ele>
        <time>2024-09-20T07:29:05Z</time>
      </trkpt>
      <trkpt lat="45.9398" lon="4.77076">
        <ele>171.4</ele>
        <time>2024-09-20T07:29:06Z</time>
      </trkpt>
      <trkpt lat="45.93981" lon="4.7708">
        <ele>171.4</ele>
        <time>2024-09-20T07:29:07Z</time>
      </trkpt>
      <trkpt lat="45.93982" lon="4.77085">
        <ele>171.4</ele>
        <time>2024-09-20T07:29:08Z</time>
      </trkpt>
      <trkpt lat="45.93984" lon="4.77089">
        <ele>171.4</ele>
        <time>2024-09-20T07:29:09Z</time>
      </trkpt>
      <trkpt lat="45.93985" lon="4.77094">
        <ele>171.2</ele>
        <time>2024-09-20T07:29:10Z</time>
      </trkpt>
      <trkpt lat="45.93987" lon="4.77098">
        <ele>171.2</ele>
        <time>2024-09-20T07:29:11Z</time>
      </trkpt>
      <trkpt lat="45.93988" lon="4.77103">
        <ele>171.2</ele>
        <time>2024-09-20T07:29:12Z</time>
      </trkpt>
      <trkpt lat="45.93989" lon="4.77107">
        <ele>171.2</ele>
        <time>2024-09-20T07:29:13Z</time>
      </trkpt>
      <trkpt lat="45.93991" lon="4.77112">
        <ele>171.2</ele>
        <time>2024-09-20T07:29:14Z</time>
      </trkpt>
      <trkpt lat="45.93992" lon="4.77117">
        <ele>171.6</ele>
        <time>2024-09-20T07:29:15Z</time>
      </trkpt>
      <trkpt lat="45.93993" lon="4.77121">
        <ele>171.6</ele>
        <time>2024-09-20T07:29:16Z</time>
      </trkpt>
      <trkpt lat="45.93994" lon="4.77126">
        <ele>171.6</ele>
        <time>2024-09-20T07:29:17Z</time>
      </trkpt>
      <trkpt lat="45.93995" lon="4.7713">
        <ele>171.6</ele>
        <time>2024-09-20T07:29:18Z</time>
      </trkpt>
      <trkpt lat="45.93996" lon="4.77134">
        <ele>171.6</ele>
        <time>2024-09-20T07:29:19Z</time>
      </trkpt>
      <trkpt lat="45.93997" lon="4.77139">
        <ele>171.6</ele>
        <time>2024-09-20T07:29:20Z</time>
      </trkpt>
      <trkpt lat="45.93998" lon="4.77144">
        <ele>171.6</ele>
        <time>2024-09-20T07:29:21Z</time>
      </trkpt>
      <trkpt lat="45.93998" lon="4.77149">
        <ele>171.6</ele>
        <time>2024-09-20T07:29:22Z</time>
      </trkpt>
      <trkpt lat="45.93998" lon="4.77154">
        <ele>171.6</ele>
        <time>2024-09-20T07:29:23Z</time>
      </trkpt>
      <trkpt lat="45.93999" lon="4.77159">
        <ele>171.8</ele>
        <time>2024-09-20T07:29:24Z</time>
      </trkpt>
      <trkpt lat="45.93999" lon="4.77164">
        <ele>171.8</ele>
        <time>2024-09-20T07:29:25Z</time>
      </trkpt>
      <trkpt lat="45.94" lon="4.77169">
        <ele>171.8</ele>
        <time>2024-09-20T07:29:26Z</time>
      </trkpt>
      <trkpt lat="45.94" lon="4.77174">
        <ele>171.8</ele>
        <time>2024-09-20T07:29:27Z</time>
      </trkpt>
      <trkpt lat="45.94" lon="4.7718">
        <ele>171.8</ele>
        <time>2024-09-20T07:29:28Z</time>
      </trkpt>
      <trkpt lat="45.94" lon="4.77186">
        <ele>171.6</ele>
        <time>2024-09-20T07:29:29Z</time>
      </trkpt>
      <trkpt lat="45.94" lon="4.77191">
        <ele>171.6</ele>
        <time>2024-09-20T07:29:30Z</time>
      </trkpt>
      <trkpt lat="45.94" lon="4.77197">
        <ele>171.6</ele>
        <time>2024-09-20T07:29:31Z</time>
      </trkpt>
      <trkpt lat="45.94001" lon="4.77202">
        <ele>171.6</ele>
        <time>2024-09-20T07:29:32Z</time>
      </trkpt>
      <trkpt lat="45.94003" lon="4.77207">
        <ele>171.6</ele>
        <time>2024-09-20T07:29:33Z</time>
      </trkpt>
      <trkpt lat="45.94004" lon="4.77212">
        <ele>171.6</ele>
        <time>2024-09-20T07:29:34Z</time>
      </trkpt>
      <trkpt lat="45.94004" lon="4.77216">
        <ele>171.6</ele>
        <time>2024-09-20T07:29:35Z</time>
      </trkpt>
      <trkpt lat="45.94004" lon="4.77221">
        <ele>171.6</ele>
        <time>2024-09-20T07:29:36Z</time>
      </trkpt>
      <trkpt lat="45.94003" lon="4.77226">
        <ele>171.6</ele>
        <time>2024-09-20T07:29:37Z</time>
      </trkpt>
      <trkpt lat="45.94002" lon="4.7723">
        <ele>171.8</ele>
        <time>2024-09-20T07:29:38Z</time>
      </trkpt>
      <trkpt lat="45.94002" lon="4.77235">
        <ele>171.8</ele>
        <time>2024-09-20T07:29:39Z</time>
      </trkpt>
      <trkpt lat="45.94001" lon="4.7724">
        <ele>171.6</ele>
        <time>2024-09-20T07:29:40Z</time>
      </trkpt>
      <trkpt lat="45.94001" lon="4.77245">
        <ele>171.6</ele>
        <time>2024-09-20T07:29:41Z</time>
      </trkpt>
      <trkpt lat="45.94001" lon="4.77247">
        <ele>171.8</ele>
        <time>2024-09-20T07:29:42Z</time>
      </trkpt>
      <trkpt lat="45.94001" lon="4.77248">
        <ele>171.8</ele>
        <time>2024-09-20T07:29:43Z</time>
      </trkpt>
      <trkpt lat="45.94001" lon="4.77249">
        <ele>171.8</ele>
        <time>2024-09-20T07:29:44Z</time>
      </trkpt>
      <trkpt lat="45.94001" lon="4.77249">
        <ele>171.8</ele>
        <time>2024-09-20T07:29:45Z</time>
      </trkpt>
      <trkpt lat="45.94" lon="4.77253">
        <ele>171.6</ele>
        <time>2024-09-20T07:30:01Z</time>
      </trkpt>
      <trkpt lat="45.93999" lon="4.77256">
        <ele>171.6</ele>
        <time>2024-09-20T07:30:02Z</time>
      </trkpt>
      <trkpt lat="45.94" lon="4.7726">
        <ele>171.6</ele>
        <time>2024-09-20T07:30:03Z</time>
      </trkpt>
      <trkpt lat="45.94001" lon="4.77264">
        <ele>171.4</ele>
        <time>2024-09-20T07:30:04Z</time>
      </trkpt>
      <trkpt lat="45.94002" lon="4.77268">
        <ele>171.4</ele>
        <time>2024-09-20T07:30:05Z</time>
      </trkpt>
      <trkpt lat="45.94002" lon="4.77272">
        <ele>171.4</ele>
        <time>2024-09-20T07:30:06Z</time>
      </trkpt>
      <trkpt lat="45.94003" lon="4.77278">
        <ele>171.4</ele>
        <time>2024-09-20T07:30:07Z</time>
      </trkpt>
      <trkpt lat="45.94003" lon="4.77282">
        <ele>171.8</ele>
        <time>2024-09-20T07:30:08Z</time>
      </trkpt>
      <trkpt lat="45.94003" lon="4.77286">
        <ele>171.8</ele>
        <time>2024-09-20T07:30:09Z</time>
      </trkpt>
      <trkpt lat="45.94002" lon="4.7729">
        <ele>171.8</ele>
        <time>2024-09-20T07:30:10Z</time>
      </trkpt>
      <trkpt lat="45.94002" lon="4.77293">
        <ele>171.8</ele>
        <time>2024-09-20T07:30:11Z</time>
      </trkpt>
      <trkpt lat="45.94001" lon="4.77296">
        <ele>172.6</ele>
        <time>2024-09-20T07:30:12Z</time>
      </trkpt>
      <trkpt lat="45.94" lon="4.773">
        <ele>172.6</ele>
        <time>2024-09-20T07:30:13Z</time>
      </trkpt>
      <trkpt lat="45.94" lon="4.77302">
        <ele>172.8</ele>
        <time>2024-09-20T07:30:14Z</time>
      </trkpt>
      <trkpt lat="45.94" lon="4.77305">
        <ele>172.8</ele>
        <time>2024-09-20T07:30:15Z</time>
      </trkpt>
      <trkpt lat="45.94002" lon="4.77307">
        <ele>173.2</ele>
        <time>2024-09-20T07:30:16Z</time>
      </trkpt>
      <trkpt lat="45.94003" lon="4.7731">
        <ele>173.2</ele>
        <time>2024-09-20T07:30:17Z</time>
      </trkpt>
      <trkpt lat="45.94003" lon="4.77314">
        <ele>173.2</ele>
        <time>2024-09-20T07:30:18Z</time>
      </trkpt>
      <trkpt lat="45.94003" lon="4.77318">
        <ele>173.2</ele>
        <time>2024-09-20T07:30:19Z</time>
      </trkpt>
      <trkpt lat="45.94002" lon="4.77323">
        <ele>173.2</ele>
        <time>2024-09-20T07:30:20Z</time>
      </trkpt>
      <trkpt lat="45.94001" lon="4.77327">
        <ele>173.2</ele>
        <time>2024-09-20T07:30:21Z</time>
      </trkpt>
      <trkpt lat="45.94001" lon="4.77332">
        <ele>173.2</ele>
        <time>2024-09-20T07:30:22Z</time>
      </trkpt>
      <trkpt lat="45.94" lon="4.77337">
        <ele>173.2</ele>
        <time>2024-09-20T07:30:23Z</time>
      </trkpt>
      <trkpt lat="45.94" lon="4.77342">
        <ele>173.2</ele>
        <time>2024-09-20T07:30:24Z</time>
      </trkpt>
      <trkpt lat="45.93999" lon="4.77348">
        <ele>173.2</ele>
        <time>2024-09-20T07:30:25Z</time>
      </trkpt>
      <trkpt lat="45.93999" lon="4.77353">
        <ele>173.2</ele>
        <time>2024-09-20T07:30:26Z</time>
      </trkpt>
      <trkpt lat="45.93998" lon="4.77358">
        <ele>173.2</ele>
        <time>2024-09-20T07:30:27Z</time>
      </trkpt>
      <trkpt lat="45.93997" lon="4.77362">
        <ele>173.2</ele>
        <time>2024-09-20T07:30:28Z</time>
      </trkpt>
      <trkpt lat="45.93997" lon="4.77367">
        <ele>173.4</ele>
        <time>2024-09-20T07:30:29Z</time>
      </trkpt>
      <trkpt lat="45.93996" lon="4.77372">
        <ele>173.4</ele>
        <time>2024-09-20T07:30:30Z</time>
      </trkpt>
      <trkpt lat="45.93997" lon="4.77376">
        <ele>173.4</ele>
        <time>2024-09-20T07:30:31Z</time>
      </trkpt>
      <trkpt lat="45.93999" lon="4.77378">
        <ele>173.4</ele>
        <time>2024-09-20T07:30:32Z</time>
      </trkpt>
      <trkpt lat="45.94001" lon="4.77379">
        <ele>173.4</ele>
        <time>2024-09-20T07:30:33Z</time>
      </trkpt>
      <trkpt lat="45.94003" lon="4.77382">
        <ele>173.4</ele>
        <time>2024-09-20T07:30:34Z</time>
      </trkpt>
      <trkpt lat="45.94002" lon="4.77386">
        <ele>173.6</ele>
        <time>2024-09-20T07:30:35Z</time>
      </trkpt>
      <trkpt lat="45.94002" lon="4.77389">
        <ele>173.6</ele>
        <time>2024-09-20T07:30:36Z</time>
      </trkpt>
      <trkpt lat="45.94001" lon="4.77393">
        <ele>173.6</ele>
        <time>2024-09-20T07:30:37Z</time>
      </trkpt>
      <trkpt lat="45.94001" lon="4.77397">
        <ele>173.6</ele>
        <time>2024-09-20T07:30:38Z</time>
      </trkpt>
      <trkpt lat="45.94" lon="4.77402">
        <ele>173.6</ele>
        <time>2024-09-20T07:30:39Z</time>
      </trkpt>
      <trkpt lat="45.93999" lon="4.77406">
        <ele>173.6</ele>
        <time>2024-09-20T07:30:40Z</time>
      </trkpt>
      <trkpt lat="45.93999" lon="4.77412">
        <ele>173.6</ele>
        <time>2024-09-20T07:30:41Z</time>
      </trkpt>
      <trkpt lat="45.93998" lon="4.77417">
        <ele>173.6</ele>
        <time>2024-09-20T07:30:42Z</time>
      </trkpt>
      <trkpt lat="45.93998" lon="4.77423">
        <ele>173.6</ele>
        <time>2024-09-20T07:30:43Z</time>
      </trkpt>
      <trkpt lat="45.93997" lon="4.77428">
        <ele>173.6</ele>
        <time>2024-09-20T07:30:44Z</time>
      </trkpt>
      <trkpt lat="45.93996" lon="4.77433">
        <ele>173.6</ele>
        <time>2024-09-20T07:30:45Z</time>
      </trkpt>
      <trkpt lat="45.93995" lon="4.77439">
        <ele>173.6</ele>
        <time>2024-09-20T07:30:46Z</time>
      </trkpt>
      <trkpt lat="45.93995" lon="4.77444">
        <ele>173.6</ele>
        <time>2024-09-20T07:30:47Z</time>
      </trkpt>
      <trkpt lat="45.93994" lon="4.7745">
        <ele>173.6</ele>
        <time>2024-09-20T07:30:48Z</time>
      </trkpt>
      <trkpt lat="45.93993" lon="4.77455">
        <ele>173.4</ele>
        <time>2024-09-20T07:30:49Z</time>
      </trkpt>
      <trkpt lat="45.93993" lon="4.7746">
        <ele>173.4</ele>
        <time>2024-09-20T07:30:50Z</time>
      </trkpt>
      <trkpt lat="45.93992" lon="4.77465">
        <ele>173.4</ele>
        <time>2024-09-20T07:30:51Z</time>
      </trkpt>
      <trkpt lat="45.93991" lon="4.7747">
        <ele>173.6</ele>
        <time>2024-09-20T07:30:52Z</time>
      </trkpt>
      <trkpt lat="45.9399" lon="4.77475">
        <ele>173.6</ele>
        <time>2024-09-20T07:30:53Z</time>
      </trkpt>
      <trkpt lat="45.9399" lon="4.77479">
        <ele>173.6</ele>
        <time>2024-09-20T07:30:54Z</time>
      </trkpt>
      <trkpt lat="45.93989" lon="4.77484">
        <ele>173.6</ele>
        <time>2024-09-20T07:30:55Z</time>
      </trkpt>
      <trkpt lat="45.93988" lon="4.77489">
        <ele>173.6</ele>
        <time>2024-09-20T07:30:56Z</time>
      </trkpt>
      <trkpt lat="45.93987" lon="4.77494">
        <ele>173.6</ele>
        <time>2024-09-20T07:30:57Z</time>
      </trkpt>
      <trkpt lat="45.93987" lon="4.775">
        <ele>173.4</ele>
        <time>2024-09-20T07:30:58Z</time>
      </trkpt>
      <trkpt lat="45.93986" lon="4.77506">
        <ele>173.4</ele>
        <time>2024-09-20T07:30:59Z</time>
      </trkpt>
      <trkpt lat="45.93985" lon="4.77512">
        <ele>173.4</ele>
        <time>2024-09-20T07:31:00Z</time>
      </trkpt>
      <trkpt lat="45.93984" lon="4.77518">
        <ele>173.4</ele>
        <time>2024-09-20T07:31:01Z</time>
      </trkpt>
      <trkpt lat="45.93983" lon="4.77524">
        <ele>173.4</ele>
        <time>2024-09-20T07:31:02Z</time>
      </trkpt>
      <trkpt lat="45.93982" lon="4.7753">
        <ele>173.4</ele>
        <time>2024-09-20T07:31:03Z</time>
      </trkpt>
      <trkpt lat="45.93981" lon="4.77536">
        <ele>173.4</ele>
        <time>2024-09-20T07:31:04Z</time>
      </trkpt>
      <trkpt lat="45.9398" lon="4.77542">
        <ele>173.4</ele>
        <time>2024-09-20T07:31:05Z</time>
      </trkpt>
      <trkpt lat="45.93979" lon="4.77547">
        <ele>173.4</ele>
        <time>2024-09-20T07:31:06Z</time>
      </trkpt>
      <trkpt lat="45.93978" lon="4.77553">
        <ele>173.4</ele>
        <time>2024-09-20T07:31:07Z</time>
      </trkpt>
      <trkpt lat="45.93977" lon="4.77559">
        <ele>173.4</ele>
        <time>2024-09-20T07:31:08Z</time>
      </trkpt>
      <trkpt lat="45.93976" lon="4.77565">
        <ele>173.4</ele>
        <time>2024-09-20T07:31:09Z</time>
      </trkpt>
      <trkpt lat="45.93976" lon="4.77572">
        <ele>173.4</ele>
        <time>2024-09-20T07:31:10Z</time>
      </trkpt>
      <trkpt lat="45.93975" lon="4.77578">
        <ele>173.4</ele>
        <time>2024-09-20T07:31:11Z</time>
      </trkpt>
      <trkpt lat="45.93974" lon="4.77584">
        <ele>173.4</ele>
        <time>2024-09-20T07:31:12Z</time>
      </trkpt>
      <trkpt lat="45.93973" lon="4.7759">
        <ele>173.4</ele>
        <time>2024-09-20T07:31:13Z</time>
      </trkpt>
      <trkpt lat="45.93972" lon="4.77596">
        <ele>173.4</ele>
        <time>2024-09-20T07:31:14Z</time>
      </trkpt>
      <trkpt lat="45.93971" lon="4.77601">
        <ele>173.4</ele>
        <time>2024-09-20T07:31:15Z</time>
      </trkpt>
      <trkpt lat="45.9397" lon="4.77607">
        <ele>173.4</ele>
        <time>2024-09-20T07:31:16Z</time>
      </trkpt>
      <trkpt lat="45.93969" lon="4.77613">
        <ele>173.4</ele>
        <time>2024-09-20T07:31:17Z</time>
      </trkpt>
      <trkpt lat="45.93968" lon="4.77619">
        <ele>173.4</ele>
        <time>2024-09-20T07:31:18Z</time>
      </trkpt>
      <trkpt lat="45.93967" lon="4.77625">
        <ele>173.4</ele>
        <time>2024-09-20T07:31:19Z</time>
      </trkpt>
      <trkpt lat="45.93966" lon="4.77631">
        <ele>173.4</ele>
        <time>2024-09-20T07:31:20Z</time>
      </trkpt>
      <trkpt lat="45.93965" lon="4.77637">
        <ele>173.4</ele>
        <time>2024-09-20T07:31:21Z</time>
      </trkpt>
      <trkpt lat="45.93964" lon="4.77643">
        <ele>173.4</ele>
        <time>2024-09-20T07:31:22Z</time>
      </trkpt>
      <trkpt lat="45.93962" lon="4.77648">
        <ele>173.4</ele>
        <time>2024-09-20T07:31:23Z</time>
      </trkpt>
      <trkpt lat="45.93961" lon="4.77654">
        <ele>173.4</ele>
        <time>2024-09-20T07:31:24Z</time>
      </trkpt>
      <trkpt lat="45.9396" lon="4.77661">
        <ele>173.6</ele>
        <time>2024-09-20T07:31:25Z</time>
      </trkpt>
      <trkpt lat="45.93958" lon="4.77666">
        <ele>173.6</ele>
        <time>2024-09-20T07:31:26Z</time>
      </trkpt>
      <trkpt lat="45.93957" lon="4.77672">
        <ele>173.6</ele>
        <time>2024-09-20T07:31:27Z</time>
      </trkpt>
      <trkpt lat="45.93955" lon="4.77678">
        <ele>173.4</ele>
        <time>2024-09-20T07:31:28Z</time>
      </trkpt>
      <trkpt lat="45.93953" lon="4.77684">
        <ele>173.4</ele>
        <time>2024-09-20T07:31:29Z</time>
      </trkpt>
      <trkpt lat="45.93951" lon="4.7769">
        <ele>173.4</ele>
        <time>2024-09-20T07:31:30Z</time>
      </trkpt>
      <trkpt lat="45.93949" lon="4.77695">
        <ele>173.4</ele>
        <time>2024-09-20T07:31:31Z</time>
      </trkpt>
      <trkpt lat="45.93948" lon="4.777">
        <ele>173.4</ele>
        <time>2024-09-20T07:31:32Z</time>
      </trkpt>
      <trkpt lat="45.93945" lon="4.77706">
        <ele>173.4</ele>
        <time>2024-09-20T07:31:33Z</time>
      </trkpt>
      <trkpt lat="45.93943" lon="4.77711">
        <ele>173.4</ele>
        <time>2024-09-20T07:31:34Z</time>
      </trkpt>
      <trkpt lat="45.93941" lon="4.77717">
        <ele>173.4</ele>
        <time>2024-09-20T07:31:35Z</time>
      </trkpt>
      <trkpt lat="45.93939" lon="4.77722">
        <ele>173.4</ele>
        <time>2024-09-20T07:31:36Z</time>
      </trkpt>
      <trkpt lat="45.93937" lon="4.77728">
        <ele>173.4</ele>
        <time>2024-09-20T07:31:37Z</time>
      </trkpt>
      <trkpt lat="45.93934" lon="4.77733">
        <ele>173.6</ele>
        <time>2024-09-20T07:31:38Z</time>
      </trkpt>
      <trkpt lat="45.93932" lon="4.77739">
        <ele>173.6</ele>
        <time>2024-09-20T07:31:39Z</time>
      </trkpt>
      <trkpt lat="45.93929" lon="4.77744">
        <ele>173.6</ele>
        <time>2024-09-20T07:31:40Z</time>
      </trkpt>
      <trkpt lat="45.93927" lon="4.7775">
        <ele>173.6</ele>
        <time>2024-09-20T07:31:41Z</time>
      </trkpt>
      <trkpt lat="45.93925" lon="4.77755">
        <ele>173.6</ele>
        <time>2024-09-20T07:31:42Z</time>
      </trkpt>
      <trkpt lat="45.93923" lon="4.77761">
        <ele>173.6</ele>
        <time>2024-09-20T07:31:43Z</time>
      </trkpt>
      <trkpt lat="45.9392" lon="4.77766">
        <ele>173.6</ele>
        <time>2024-09-20T07:31:44Z</time>
      </trkpt>
      <trkpt lat="45.93918" lon="4.77771">
        <ele>173.6</ele>
        <time>2024-09-20T07:31:45Z</time>
      </trkpt>
      <trkpt lat="45.93916" lon="4.77777">
        <ele>173.6</ele>
        <time>2024-09-20T07:31:46Z</time>
      </trkpt>
      <trkpt lat="45.93914" lon="4.77782">
        <ele>173.8</ele>
        <time>2024-09-20T07:31:47Z</time>
      </trkpt>
      <trkpt lat="45.93912" lon="4.77787">
        <ele>173.8</ele>
        <time>2024-09-20T07:31:48Z</time>
      </trkpt>
      <trkpt lat="45.93909" lon="4.77793">
        <ele>173.8</ele>
        <time>2024-09-20T07:31:49Z</time>
      </trkpt>
      <trkpt lat="45.93907" lon="4.77798">
        <ele>173.8</ele>
        <time>2024-09-20T07:31:50Z</time>
      </trkpt>
      <trkpt lat="45.93905" lon="4.77804">
        <ele>173.8</ele>
        <time>2024-09-20T07:31:51Z</time>
      </trkpt>
      <trkpt lat="45.93904" lon="4.77809">
        <ele>174</ele>
        <time>2024-09-20T07:31:52Z</time>
      </trkpt>
      <trkpt lat="45.93902" lon="4.77814">
        <ele>174</ele>
        <time>2024-09-20T07:31:53Z</time>
      </trkpt>
      <trkpt lat="45.939" lon="4.77819">
        <ele>174</ele>
        <time>2024-09-20T07:31:54Z</time>
      </trkpt>
      <trkpt lat="45.93899" lon="4.77824">
        <ele>174.4</ele>
        <time>2024-09-20T07:31:55Z</time>
      </trkpt>
      <trkpt lat="45.93897" lon="4.77829">
        <ele>174.4</ele>
        <time>2024-09-20T07:31:56Z</time>
      </trkpt>
      <trkpt lat="45.93896" lon="4.77835">
        <ele>174.4</ele>
        <time>2024-09-20T07:31:57Z</time>
      </trkpt>
      <trkpt lat="45.93894" lon="4.7784">
        <ele>174.4</ele>
        <time>2024-09-20T07:31:58Z</time>
      </trkpt>
      <trkpt lat="45.93893" lon="4.77845">
        <ele>174.4</ele>
        <time>2024-09-20T07:31:59Z</time>
      </trkpt>
      <trkpt lat="45.93891" lon="4.77851">
        <ele>174.8</ele>
        <time>2024-09-20T07:32:00Z</time>
      </trkpt>
      <trkpt lat="45.93889" lon="4.77856">
        <ele>175</ele>
        <time>2024-09-20T07:32:01Z</time>
      </trkpt>
      <trkpt lat="45.93888" lon="4.77861">
        <ele>175</ele>
        <time>2024-09-20T07:32:02Z</time>
      </trkpt>
      <trkpt lat="45.93886" lon="4.77866">
        <ele>175</ele>
        <time>2024-09-20T07:32:03Z</time>
      </trkpt>
      <trkpt lat="45.93884" lon="4.7787">
        <ele>175</ele>
        <time>2024-09-20T07:32:04Z</time>
      </trkpt>
      <trkpt lat="45.93881" lon="4.77875">
        <ele>175</ele>
        <time>2024-09-20T07:32:05Z</time>
      </trkpt>
      <trkpt lat="45.93877" lon="4.77881">
        <ele>174.4</ele>
        <time>2024-09-20T07:32:06Z</time>
      </trkpt>
      <trkpt lat="45.93873" lon="4.77887">
        <ele>174.4</ele>
        <time>2024-09-20T07:32:07Z</time>
      </trkpt>
      <trkpt lat="45.93868" lon="4.77894">
        <ele>174.4</ele>
        <time>2024-09-20T07:32:08Z</time>
      </trkpt>
      <trkpt lat="45.93864" lon="4.77901">
        <ele>173.4</ele>
        <time>2024-09-20T07:32:09Z</time>
      </trkpt>
      <trkpt lat="45.93859" lon="4.77908">
        <ele>172.8</ele>
        <time>2024-09-20T07:32:10Z</time>
      </trkpt>
      <trkpt lat="45.93854" lon="4.77914">
        <ele>172.8</ele>
        <time>2024-09-20T07:32:11Z</time>
      </trkpt>
      <trkpt lat="45.9385" lon="4.77922">
        <ele>172.8</ele>
        <time>2024-09-20T07:32:12Z</time>
      </trkpt>
      <trkpt lat="45.93845" lon="4.77928">
        <ele>172.4</ele>
        <time>2024-09-20T07:32:13Z</time>
      </trkpt>
      <trkpt lat="45.93841" lon="4.77935">
        <ele>172.4</ele>
        <time>2024-09-20T07:32:14Z</time>
      </trkpt>
      <trkpt lat="45.93837" lon="4.7794">
        <ele>172.4</ele>
        <time>2024-09-20T07:32:15Z</time>
      </trkpt>
      <trkpt lat="45.93833" lon="4.77946">
        <ele>172.4</ele>
        <time>2024-09-20T07:32:16Z</time>
      </trkpt>
      <trkpt lat="45.93828" lon="4.77953">
        <ele>172.4</ele>
        <time>2024-09-20T07:32:17Z</time>
      </trkpt>
      <trkpt lat="45.93824" lon="4.77958">
        <ele>172.4</ele>
        <time>2024-09-20T07:32:18Z</time>
      </trkpt>
      <trkpt lat="45.9382" lon="4.77964">
        <ele>172.4</ele>
        <time>2024-09-20T07:32:19Z</time>
      </trkpt>
      <trkpt lat="45.93816" lon="4.77969">
        <ele>172.4</ele>
        <time>2024-09-20T07:32:20Z</time>
      </trkpt>
      <trkpt lat="45.93812" lon="4.77974">
        <ele>172.4</ele>
        <time>2024-09-20T07:32:21Z</time>
      </trkpt>
      <trkpt lat="45.93808" lon="4.77979">
        <ele>172.2</ele>
        <time>2024-09-20T07:32:22Z</time>
      </trkpt>
      <trkpt lat="45.93804" lon="4.77984">
        <ele>172.4</ele>
        <time>2024-09-20T07:32:23Z</time>
      </trkpt>
      <trkpt lat="45.938" lon="4.77988">
        <ele>172.4</ele>
        <time>2024-09-20T07:32:24Z</time>
      </trkpt>
      <trkpt lat="45.93796" lon="4.77993">
        <ele>172.4</ele>
        <time>2024-09-20T07:32:25Z</time>
      </trkpt>
      <trkpt lat="45.93792" lon="4.77998">
        <ele>172.2</ele>
        <time>2024-09-20T07:32:26Z</time>
      </trkpt>
      <trkpt lat="45.93789" lon="4.78002">
        <ele>172.2</ele>
        <time>2024-09-20T07:32:27Z</time>
      </trkpt>
      <trkpt lat="45.93785" lon="4.78006">
        <ele>172.2</ele>
        <time>2024-09-20T07:32:28Z</time>
      </trkpt>
      <trkpt lat="45.93781" lon="4.7801">
        <ele>172.2</ele>
        <time>2024-09-20T07:32:29Z</time>
      </trkpt>
      <trkpt lat="45.93778" lon="4.78014">
        <ele>172.2</ele>
        <time>2024-09-20T07:32:30Z</time>
      </trkpt>
      <trkpt lat="45.93774" lon="4.78019">
        <ele>171.8</ele>
        <time>2024-09-20T07:32:31Z</time>
      </trkpt>
      <trkpt lat="45.93771" lon="4.78024">
        <ele>171.8</ele>
        <time>2024-09-20T07:32:32Z</time>
      </trkpt>
      <trkpt lat="45.93767" lon="4.78028">
        <ele>172</ele>
        <time>2024-09-20T07:32:33Z</time>
      </trkpt>
      <trkpt lat="45.93763" lon="4.78033">
        <ele>172</ele>
        <time>2024-09-20T07:32:34Z</time>
      </trkpt>
      <trkpt lat="45.93759" lon="4.78038">
        <ele>172</ele>
        <time>2024-09-20T07:32:35Z</time>
      </trkpt>
      <trkpt lat="45.93755" lon="4.78043">
        <ele>172</ele>
        <time>2024-09-20T07:32:36Z</time>
      </trkpt>
      <trkpt lat="45.93751" lon="4.78048">
        <ele>172</ele>
        <time>2024-09-20T07:32:37Z</time>
      </trkpt>
      <trkpt lat="45.93748" lon="4.78052">
        <ele>172</ele>
        <time>2024-09-20T07:32:38Z</time>
      </trkpt>
      <trkpt lat="45.93744" lon="4.78057">
        <ele>172</ele>
        <time>2024-09-20T07:32:39Z</time>
      </trkpt>
      <trkpt lat="45.9374" lon="4.78062">
        <ele>171.8</ele>
        <time>2024-09-20T07:32:40Z</time>
      </trkpt>
      <trkpt lat="45.93736" lon="4.78067">
        <ele>171.8</ele>
        <time>2024-09-20T07:32:41Z</time>
      </trkpt>
      <trkpt lat="45.93732" lon="4.78072">
        <ele>171.8</ele>
        <time>2024-09-20T07:32:42Z</time>
      </trkpt>
      <trkpt lat="45.93728" lon="4.78077">
        <ele>171.8</ele>
        <time>2024-09-20T07:32:43Z</time>
      </trkpt>
      <trkpt lat="45.93724" lon="4.78082">
        <ele>171.8</ele>
        <time>2024-09-20T07:32:44Z</time>
      </trkpt>
      <trkpt lat="45.93721" lon="4.78088">
        <ele>171.8</ele>
        <time>2024-09-20T07:32:45Z</time>
      </trkpt>
      <trkpt lat="45.93717" lon="4.78093">
        <ele>171.6</ele>
        <time>2024-09-20T07:32:46Z</time>
      </trkpt>
      <trkpt lat="45.93713" lon="4.78098">
        <ele>171.6</ele>
        <time>2024-09-20T07:32:47Z</time>
      </trkpt>
      <trkpt lat="45.93709" lon="4.78103">
        <ele>171.6</ele>
        <time>2024-09-20T07:32:48Z</time>
      </trkpt>
      <trkpt lat="45.93705" lon="4.78108">
        <ele>171.8</ele>
        <time>2024-09-20T07:32:49Z</time>
      </trkpt>
      <trkpt lat="45.93701" lon="4.78112">
        <ele>171.8</ele>
        <time>2024-09-20T07:32:50Z</time>
      </trkpt>
      <trkpt lat="45.93697" lon="4.78116">
        <ele>172</ele>
        <time>2024-09-20T07:32:51Z</time>
      </trkpt>
      <trkpt lat="45.93693" lon="4.7812">
        <ele>172</ele>
        <time>2024-09-20T07:32:52Z</time>
      </trkpt>
      <trkpt lat="45.93689" lon="4.78124">
        <ele>172</ele>
        <time>2024-09-20T07:32:53Z</time>
      </trkpt>
      <trkpt lat="45.93685" lon="4.78129">
        <ele>172</ele>
        <time>2024-09-20T07:32:54Z</time>
      </trkpt>
      <trkpt lat="45.9368" lon="4.78132">
        <ele>171.8</ele>
        <time>2024-09-20T07:32:55Z</time>
      </trkpt>
      <trkpt lat="45.93676" lon="4.78135">
        <ele>171.8</ele>
        <time>2024-09-20T07:32:56Z</time>
      </trkpt>
      <trkpt lat="45.93671" lon="4.78139">
        <ele>171.8</ele>
        <time>2024-09-20T07:32:57Z</time>
      </trkpt>
      <trkpt lat="45.93667" lon="4.78142">
        <ele>171.8</ele>
        <time>2024-09-20T07:32:58Z</time>
      </trkpt>
      <trkpt lat="45.93662" lon="4.78145">
        <ele>171.8</ele>
        <time>2024-09-20T07:32:59Z</time>
      </trkpt>
      <trkpt lat="45.93658" lon="4.78148">
        <ele>171.8</ele>
        <time>2024-09-20T07:33:00Z</time>
      </trkpt>
      <trkpt lat="45.93653" lon="4.78151">
        <ele>171.8</ele>
        <time>2024-09-20T07:33:01Z</time>
      </trkpt>
      <trkpt lat="45.93648" lon="4.78153">
        <ele>171.8</ele>
        <time>2024-09-20T07:33:02Z</time>
      </trkpt>
      <trkpt lat="45.93644" lon="4.78156">
        <ele>171.8</ele>
        <time>2024-09-20T07:33:03Z</time>
      </trkpt>
      <trkpt lat="45.93639" lon="4.78159">
        <ele>171.8</ele>
        <time>2024-09-20T07:33:04Z</time>
      </trkpt>
      <trkpt lat="45.93634" lon="4.78162">
        <ele>171.8</ele>
        <time>2024-09-20T07:33:05Z</time>
      </trkpt>
      <trkpt lat="45.93629" lon="4.78164">
        <ele>171.8</ele>
        <time>2024-09-20T07:33:06Z</time>
      </trkpt>
      <trkpt lat="45.93624" lon="4.78167">
        <ele>171.8</ele>
        <time>2024-09-20T07:33:07Z</time>
      </trkpt>
      <trkpt lat="45.93619" lon="4.7817">
        <ele>171.6</ele>
        <time>2024-09-20T07:33:08Z</time>
      </trkpt>
      <trkpt lat="45.93614" lon="4.78173">
        <ele>171.6</ele>
        <time>2024-09-20T07:33:09Z</time>
      </trkpt>
      <trkpt lat="45.93609" lon="4.78176">
        <ele>171.6</ele>
        <time>2024-09-20T07:33:10Z</time>
      </trkpt>
      <trkpt lat="45.93604" lon="4.78178">
        <ele>171.6</ele>
        <time>2024-09-20T07:33:11Z</time>
      </trkpt>
      <trkpt lat="45.93599" lon="4.78181">
        <ele>171.8</ele>
        <time>2024-09-20T07:33:12Z</time>
      </trkpt>
      <trkpt lat="45.93594" lon="4.78183">
        <ele>171.8</ele>
        <time>2024-09-20T07:33:13Z</time>
      </trkpt>
      <trkpt lat="45.93589" lon="4.78186">
        <ele>171.8</ele>
        <time>2024-09-20T07:33:14Z</time>
      </trkpt>
      <trkpt lat="45.93585" lon="4.78189">
        <ele>171.6</ele>
        <time>2024-09-20T07:33:15Z</time>
      </trkpt>
      <trkpt lat="45.9358" lon="4.78191">
        <ele>171.6</ele>
        <time>2024-09-20T07:33:16Z</time>
      </trkpt>
      <trkpt lat="45.93575" lon="4.78194">
        <ele>171.6</ele>
        <time>2024-09-20T07:33:17Z</time>
      </trkpt>
      <trkpt lat="45.93571" lon="4.78197">
        <ele>171.6</ele>
        <time>2024-09-20T07:33:18Z</time>
      </trkpt>
      <trkpt lat="45.93567" lon="4.78201">
        <ele>171.6</ele>
        <time>2024-09-20T07:33:19Z</time>
      </trkpt>
      <trkpt lat="45.93562" lon="4.78203">
        <ele>171.6</ele>
        <time>2024-09-20T07:33:20Z</time>
      </trkpt>
      <trkpt lat="45.93557" lon="4.78204">
        <ele>171.8</ele>
        <time>2024-09-20T07:33:21Z</time>
      </trkpt>
      <trkpt lat="45.93553" lon="4.78206">
        <ele>171.8</ele>
        <time>2024-09-20T07:33:22Z</time>
      </trkpt>
      <trkpt lat="45.93549" lon="4.78209">
        <ele>171.8</ele>
        <time>2024-09-20T07:33:23Z</time>
      </trkpt>
      <trkpt lat="45.93545" lon="4.78213">
        <ele>171.8</ele>
        <time>2024-09-20T07:33:24Z</time>
      </trkpt>
      <trkpt lat="45.93541" lon="4.78216">
        <ele>171.8</ele>
        <time>2024-09-20T07:33:25Z</time>
      </trkpt>
      <trkpt lat="45.93537" lon="4.78219">
        <ele>171.8</ele>
        <time>2024-09-20T07:33:26Z</time>
      </trkpt>
      <trkpt lat="45.93533" lon="4.78223">
        <ele>171.8</ele>
        <time>2024-09-20T07:33:27Z</time>
      </trkpt>
      <trkpt lat="45.93529" lon="4.78226">
        <ele>171.8</ele>
        <time>2024-09-20T07:33:28Z</time>
      </trkpt>
      <trkpt lat="45.93525" lon="4.7823">
        <ele>171.8</ele>
        <time>2024-09-20T07:33:29Z</time>
      </trkpt>
      <trkpt lat="45.93521" lon="4.78233">
        <ele>171.8</ele>
        <time>2024-09-20T07:33:30Z</time>
      </trkpt>
      <trkpt lat="45.93517" lon="4.78237">
        <ele>171.8</ele>
        <time>2024-09-20T07:33:31Z</time>
      </trkpt>
      <trkpt lat="45.93514" lon="4.78241">
        <ele>171.8</ele>
        <time>2024-09-20T07:33:32Z</time>
      </trkpt>
      <trkpt lat="45.9351" lon="4.78244">
        <ele>171.8</ele>
        <time>2024-09-20T07:33:33Z</time>
      </trkpt>
      <trkpt lat="45.93506" lon="4.78247">
        <ele>171.8</ele>
        <time>2024-09-20T07:33:34Z</time>
      </trkpt>
      <trkpt lat="45.93503" lon="4.78251">
        <ele>171.6</ele>
        <time>2024-09-20T07:33:35Z</time>
      </trkpt>
      <trkpt lat="45.93499" lon="4.78255">
        <ele>171.6</ele>
        <time>2024-09-20T07:33:36Z</time>
      </trkpt>
      <trkpt lat="45.93496" lon="4.78259">
        <ele>171.6</ele>
        <time>2024-09-20T07:33:37Z</time>
      </trkpt>
      <trkpt lat="45.93492" lon="4.78263">
        <ele>171.6</ele>
        <time>2024-09-20T07:33:38Z</time>
      </trkpt>
      <trkpt lat="45.93488" lon="4.78267">
        <ele>171.4</ele>
        <time>2024-09-20T07:33:39Z</time>
      </trkpt>
      <trkpt lat="45.93484" lon="4.7827">
        <ele>171.4</ele>
        <time>2024-09-20T07:33:40Z</time>
      </trkpt>
      <trkpt lat="45.9348" lon="4.78274">
        <ele>171.4</ele>
        <time>2024-09-20T07:33:41Z</time>
      </trkpt>
      <trkpt lat="45.93476" lon="4.78278">
        <ele>171.4</ele>
        <time>2024-09-20T07:33:42Z</time>
      </trkpt>
      <trkpt lat="45.93472" lon="4.78282">
        <ele>171.4</ele>
        <time>2024-09-20T07:33:43Z</time>
      </trkpt>
      <trkpt lat="45.93469" lon="4.78286">
        <ele>171.4</ele>
        <time>2024-09-20T07:33:44Z</time>
      </trkpt>
      <trkpt lat="45.93465" lon="4.7829">
        <ele>171.4</ele>
        <time>2024-09-20T07:33:45Z</time>
      </trkpt>
      <trkpt lat="45.9346" lon="4.78293">
        <ele>171.4</ele>
        <time>2024-09-20T07:33:46Z</time>
      </trkpt>
      <trkpt lat="45.93456" lon="4.78297">
        <ele>171.6</ele>
        <time>2024-09-20T07:33:47Z</time>
      </trkpt>
      <trkpt lat="45.93452" lon="4.78301">
        <ele>171.2</ele>
        <time>2024-09-20T07:33:48Z</time>
      </trkpt>
      <trkpt lat="45.93448" lon="4.78305">
        <ele>171.2</ele>
        <time>2024-09-20T07:33:49Z</time>
      </trkpt>
      <trkpt lat="45.93444" lon="4.78308">
        <ele>171.2</ele>
        <time>2024-09-20T07:33:50Z</time>
      </trkpt>
      <trkpt lat="45.9344" lon="4.78311">
        <ele>171.2</ele>
        <time>2024-09-20T07:33:51Z</time>
      </trkpt>
      <trkpt lat="45.93435" lon="4.78314">
        <ele>171</ele>
        <time>2024-09-20T07:33:52Z</time>
      </trkpt>
      <trkpt lat="45.93431" lon="4.78317">
        <ele>171</ele>
        <time>2024-09-20T07:33:53Z</time>
      </trkpt>
      <trkpt lat="45.93426" lon="4.7832">
        <ele>171</ele>
        <time>2024-09-20T07:33:54Z</time>
      </trkpt>
      <trkpt lat="45.93422" lon="4.78323">
        <ele>171.4</ele>
        <time>2024-09-20T07:33:55Z</time>
      </trkpt>
      <trkpt lat="45.93417" lon="4.78326">
        <ele>171.4</ele>
        <time>2024-09-20T07:33:56Z</time>
      </trkpt>
      <trkpt lat="45.93412" lon="4.78328">
        <ele>171.4</ele>
        <time>2024-09-20T07:33:57Z</time>
      </trkpt>
      <trkpt lat="45.93408" lon="4.78331">
        <ele>171.4</ele>
        <time>2024-09-20T07:33:58Z</time>
      </trkpt>
      <trkpt lat="45.93403" lon="4.78334">
        <ele>171.4</ele>
        <time>2024-09-20T07:33:59Z</time>
      </trkpt>
      <trkpt lat="45.93399" lon="4.78337">
        <ele>171.2</ele>
        <time>2024-09-20T07:34:00Z</time>
      </trkpt>
      <trkpt lat="45.93394" lon="4.78339">
        <ele>171.4</ele>
        <time>2024-09-20T07:34:01Z</time>
      </trkpt>
      <trkpt lat="45.9339" lon="4.78342">
        <ele>171.4</ele>
        <time>2024-09-20T07:34:02Z</time>
      </trkpt>
      <trkpt lat="45.93386" lon="4.78345">
        <ele>171.4</ele>
        <time>2024-09-20T07:34:03Z</time>
      </trkpt>
      <trkpt lat="45.93381" lon="4.78348">
        <ele>171.4</ele>
        <time>2024-09-20T07:34:04Z</time>
      </trkpt>
      <trkpt lat="45.93377" lon="4.78351">
        <ele>171.4</ele>
        <time>2024-09-20T07:34:05Z</time>
      </trkpt>
      <trkpt lat="45.93372" lon="4.78354">
        <ele>171.4</ele>
        <time>2024-09-20T07:34:06Z</time>
      </trkpt>
      <trkpt lat="45.93368" lon="4.78357">
        <ele>171.4</ele>
        <time>2024-09-20T07:34:07Z</time>
      </trkpt>
      <trkpt lat="45.93364" lon="4.7836">
        <ele>171.4</ele>
        <time>2024-09-20T07:34:08Z</time>
      </trkpt>
      <trkpt lat="45.93359" lon="4.78363">
        <ele>171.4</ele>
        <time>2024-09-20T07:34:09Z</time>
      </trkpt>
      <trkpt lat="45.93355" lon="4.78366">
        <ele>171.4</ele>
        <time>2024-09-20T07:34:10Z</time>
      </trkpt>
      <trkpt lat="45.9335" lon="4.78369">
        <ele>171.2</ele>
        <time>2024-09-20T07:34:11Z</time>
      </trkpt>
      <trkpt lat="45.93346" lon="4.78372">
        <ele>171.2</ele>
        <time>2024-09-20T07:34:12Z</time>
      </trkpt>
      <trkpt lat="45.93342" lon="4.78375">
        <ele>171.2</ele>
        <time>2024-09-20T07:34:13Z</time>
      </trkpt>
      <trkpt lat="45.93337" lon="4.78378">
        <ele>171.2</ele>
        <time>2024-09-20T07:34:14Z</time>
      </trkpt>
      <trkpt lat="45.93333" lon="4.78382">
        <ele>171</ele>
        <time>2024-09-20T07:34:15Z</time>
      </trkpt>
      <trkpt lat="45.93329" lon="4.78385">
        <ele>171</ele>
        <time>2024-09-20T07:34:16Z</time>
      </trkpt>
      <trkpt lat="45.93324" lon="4.78388">
        <ele>171</ele>
        <time>2024-09-20T07:34:17Z</time>
      </trkpt>
      <trkpt lat="45.9332" lon="4.78391">
        <ele>171</ele>
        <time>2024-09-20T07:34:18Z</time>
      </trkpt>
      <trkpt lat="45.93316" lon="4.78393">
        <ele>171.2</ele>
        <time>2024-09-20T07:34:19Z</time>
      </trkpt>
      <trkpt lat="45.93312" lon="4.78397">
        <ele>171.2</ele>
        <time>2024-09-20T07:34:20Z</time>
      </trkpt>
      <trkpt lat="45.93309" lon="4.784">
        <ele>171.2</ele>
        <time>2024-09-20T07:34:21Z</time>
      </trkpt>
      <trkpt lat="45.93305" lon="4.78403">
        <ele>171.2</ele>
        <time>2024-09-20T07:34:22Z</time>
      </trkpt>
      <trkpt lat="45.93301" lon="4.78405">
        <ele>171.2</ele>
        <time>2024-09-20T07:34:23Z</time>
      </trkpt>
      <trkpt lat="45.93297" lon="4.78408">
        <ele>171.4</ele>
        <time>2024-09-20T07:34:24Z</time>
      </trkpt>
      <trkpt lat="45.93294" lon="4.7841">
        <ele>171.4</ele>
        <time>2024-09-20T07:34:25Z</time>
      </trkpt>
      <trkpt lat="45.9329" lon="4.78413">
        <ele>171.4</ele>
        <time>2024-09-20T07:34:26Z</time>
      </trkpt>
      <trkpt lat="45.93286" lon="4.78416">
        <ele>171.4</ele>
        <time>2024-09-20T07:34:27Z</time>
      </trkpt>
      <trkpt lat="45.93282" lon="4.78419">
        <ele>171.4</ele>
        <time>2024-09-20T07:34:28Z</time>
      </trkpt>
      <trkpt lat="45.93279" lon="4.78421">
        <ele>171.2</ele>
        <time>2024-09-20T07:34:29Z</time>
      </trkpt>
      <trkpt lat="45.93276" lon="4.78424">
        <ele>171.2</ele>
        <time>2024-09-20T07:34:30Z</time>
      </trkpt>
      <trkpt lat="45.93272" lon="4.78426">
        <ele>171.2</ele>
        <time>2024-09-20T07:34:31Z</time>
      </trkpt>
      <trkpt lat="45.93268" lon="4.78429">
        <ele>171.2</ele>
        <time>2024-09-20T07:34:32Z</time>
      </trkpt>
      <trkpt lat="45.93264" lon="4.78431">
        <ele>171.2</ele>
        <time>2024-09-20T07:34:33Z</time>
      </trkpt>
      <trkpt lat="45.9326" lon="4.78434">
        <ele>171.2</ele>
        <time>2024-09-20T07:34:34Z</time>
      </trkpt>
      <trkpt lat="45.93256" lon="4.78436">
        <ele>171.2</ele>
        <time>2024-09-20T07:34:35Z</time>
      </trkpt>
      <trkpt lat="45.93252" lon="4.78439">
        <ele>171.2</ele>
        <time>2024-09-20T07:34:36Z</time>
      </trkpt>
      <trkpt lat="45.93248" lon="4.78442">
        <ele>171.2</ele>
        <time>2024-09-20T07:34:37Z</time>
      </trkpt>
      <trkpt lat="45.93244" lon="4.78445">
        <ele>171.4</ele>
        <time>2024-09-20T07:34:38Z</time>
      </trkpt>
      <trkpt lat="45.9324" lon="4.78448">
        <ele>171.4</ele>
        <time>2024-09-20T07:34:39Z</time>
      </trkpt>
      <trkpt lat="45.93236" lon="4.78451">
        <ele>171</ele>
        <time>2024-09-20T07:34:40Z</time>
      </trkpt>
      <trkpt lat="45.93232" lon="4.78454">
        <ele>171</ele>
        <time>2024-09-20T07:34:41Z</time>
      </trkpt>
      <trkpt lat="45.93228" lon="4.78456">
        <ele>171</ele>
        <time>2024-09-20T07:34:42Z</time>
      </trkpt>
      <trkpt lat="45.93224" lon="4.78459">
        <ele>171</ele>
        <time>2024-09-20T07:34:43Z</time>
      </trkpt>
      <trkpt lat="45.9322" lon="4.78462">
        <ele>171</ele>
        <time>2024-09-20T07:34:44Z</time>
      </trkpt>
      <trkpt lat="45.93215" lon="4.78465">
        <ele>171</ele>
        <time>2024-09-20T07:34:45Z</time>
      </trkpt>
      <trkpt lat="45.93211" lon="4.78468">
        <ele>171</ele>
        <time>2024-09-20T07:34:46Z</time>
      </trkpt>
      <trkpt lat="45.93207" lon="4.78471">
        <ele>171</ele>
        <time>2024-09-20T07:34:47Z</time>
      </trkpt>
      <trkpt lat="45.93203" lon="4.78474">
        <ele>171</ele>
        <time>2024-09-20T07:34:48Z</time>
      </trkpt>
      <trkpt lat="45.93199" lon="4.78477">
        <ele>171</ele>
        <time>2024-09-20T07:34:49Z</time>
      </trkpt>
      <trkpt lat="45.93194" lon="4.7848">
        <ele>171.2</ele>
        <time>2024-09-20T07:34:50Z</time>
      </trkpt>
      <trkpt lat="45.9319" lon="4.78483">
        <ele>171.2</ele>
        <time>2024-09-20T07:34:51Z</time>
      </trkpt>
      <trkpt lat="45.93186" lon="4.78486">
        <ele>171.2</ele>
        <time>2024-09-20T07:34:52Z</time>
      </trkpt>
      <trkpt lat="45.93181" lon="4.78489">
        <ele>171.2</ele>
        <time>2024-09-20T07:34:53Z</time>
      </trkpt>
      <trkpt lat="45.93177" lon="4.78492">
        <ele>170.8</ele>
        <time>2024-09-20T07:34:54Z</time>
      </trkpt>
      <trkpt lat="45.93173" lon="4.78495">
        <ele>170.8</ele>
        <time>2024-09-20T07:34:55Z</time>
      </trkpt>
      <trkpt lat="45.93168" lon="4.78499">
        <ele>170.8</ele>
        <time>2024-09-20T07:34:56Z</time>
      </trkpt>
      <trkpt lat="45.93164" lon="4.78502">
        <ele>170.8</ele>
        <time>2024-09-20T07:34:57Z</time>
      </trkpt>
      <trkpt lat="45.93159" lon="4.78505">
        <ele>170.8</ele>
        <time>2024-09-20T07:34:58Z</time>
      </trkpt>
      <trkpt lat="45.93155" lon="4.78508">
        <ele>171</ele>
        <time>2024-09-20T07:34:59Z</time>
      </trkpt>
      <trkpt lat="45.93151" lon="4.78511">
        <ele>171</ele>
        <time>2024-09-20T07:35:00Z</time>
      </trkpt>
      <trkpt lat="45.93146" lon="4.78515">
        <ele>171</ele>
        <time>2024-09-20T07:35:01Z</time>
      </trkpt>
      <trkpt lat="45.93141" lon="4.78517">
        <ele>171</ele>
        <time>2024-09-20T07:35:02Z</time>
      </trkpt>
      <trkpt lat="45.93137" lon="4.7852">
        <ele>171</ele>
        <time>2024-09-20T07:35:03Z</time>
      </trkpt>
      <trkpt lat="45.93133" lon="4.78524">
        <ele>171.2</ele>
        <time>2024-09-20T07:35:04Z</time>
      </trkpt>
      <trkpt lat="45.93129" lon="4.78527">
        <ele>171.2</ele>
        <time>2024-09-20T07:35:05Z</time>
      </trkpt>
      <trkpt lat="45.93125" lon="4.7853">
        <ele>171.2</ele>
        <time>2024-09-20T07:35:06Z</time>
      </trkpt>
      <trkpt lat="45.9312" lon="4.78533">
        <ele>171.2</ele>
        <time>2024-09-20T07:35:07Z</time>
      </trkpt>
      <trkpt lat="45.93116" lon="4.78536">
        <ele>171.2</ele>
        <time>2024-09-20T07:35:08Z</time>
      </trkpt>
      <trkpt lat="45.93112" lon="4.78539">
        <ele>171.2</ele>
        <time>2024-09-20T07:35:09Z</time>
      </trkpt>
      <trkpt lat="45.93108" lon="4.78543">
        <ele>171.2</ele>
        <time>2024-09-20T07:35:10Z</time>
      </trkpt>
      <trkpt lat="45.93103" lon="4.78546">
        <ele>171.2</ele>
        <time>2024-09-20T07:35:11Z</time>
      </trkpt>
      <trkpt lat="45.93099" lon="4.78549">
        <ele>171.2</ele>
        <time>2024-09-20T07:35:12Z</time>
      </trkpt>
      <trkpt lat="45.93094" lon="4.78552">
        <ele>171.2</ele>
        <time>2024-09-20T07:35:13Z</time>
      </trkpt>
      <trkpt lat="45.9309" lon="4.78556">
        <ele>171.2</ele>
        <time>2024-09-20T07:35:14Z</time>
      </trkpt>
      <trkpt lat="45.93086" lon="4.78559">
        <ele>171.2</ele>
        <time>2024-09-20T07:35:15Z</time>
      </trkpt>
      <trkpt lat="45.93081" lon="4.78562">
        <ele>171.2</ele>
        <time>2024-09-20T07:35:16Z</time>
      </trkpt>
      <trkpt lat="45.93077" lon="4.78565">
        <ele>171</ele>
        <time>2024-09-20T07:35:17Z</time>
      </trkpt>
      <trkpt lat="45.93072" lon="4.78568">
        <ele>171</ele>
        <time>2024-09-20T07:35:18Z</time>
      </trkpt>
      <trkpt lat="45.93068" lon="4.78571">
        <ele>171</ele>
        <time>2024-09-20T07:35:19Z</time>
      </trkpt>
      <trkpt lat="45.93063" lon="4.78575">
        <ele>171</ele>
        <time>2024-09-20T07:35:20Z</time>
      </trkpt>
      <trkpt lat="45.93059" lon="4.78578">
        <ele>171</ele>
        <time>2024-09-20T07:35:21Z</time>
      </trkpt>
      <trkpt lat="45.93054" lon="4.78581">
        <ele>171</ele>
        <time>2024-09-20T07:35:22Z</time>
      </trkpt>
      <trkpt lat="45.9305" lon="4.78584">
        <ele>171</ele>
        <time>2024-09-20T07:35:23Z</time>
      </trkpt>
      <trkpt lat="45.93045" lon="4.78588">
        <ele>171</ele>
        <time>2024-09-20T07:35:24Z</time>
      </trkpt>
      <trkpt lat="45.93041" lon="4.78591">
        <ele>171</ele>
        <time>2024-09-20T07:35:25Z</time>
      </trkpt>
      <trkpt lat="45.93036" lon="4.78594">
        <ele>171.2</ele>
        <time>2024-09-20T07:35:26Z</time>
      </trkpt>
      <trkpt lat="45.93032" lon="4.78597">
        <ele>171.2</ele>
        <time>2024-09-20T07:35:27Z</time>
      </trkpt>
      <trkpt lat="45.93028" lon="4.786">
        <ele>171.2</ele>
        <time>2024-09-20T07:35:28Z</time>
      </trkpt>
      <trkpt lat="45.93023" lon="4.78603">
        <ele>171</ele>
        <time>2024-09-20T07:35:29Z</time>
      </trkpt>
      <trkpt lat="45.93019" lon="4.78606">
        <ele>171</ele>
        <time>2024-09-20T07:35:30Z</time>
      </trkpt>
      <trkpt lat="45.93014" lon="4.78609">
        <ele>171</ele>
        <time>2024-09-20T07:35:31Z</time>
      </trkpt>
      <trkpt lat="45.9301" lon="4.78612">
        <ele>171</ele>
        <time>2024-09-20T07:35:32Z</time>
      </trkpt>
      <trkpt lat="45.93005" lon="4.78616">
        <ele>171</ele>
        <time>2024-09-20T07:35:33Z</time>
      </trkpt>
      <trkpt lat="45.93" lon="4.78619">
        <ele>171</ele>
        <time>2024-09-20T07:35:34Z</time>
      </trkpt>
      <trkpt lat="45.92996" lon="4.78623">
        <ele>171</ele>
        <time>2024-09-20T07:35:35Z</time>
      </trkpt>
      <trkpt lat="45.92992" lon="4.78626">
        <ele>171.2</ele>
        <time>2024-09-20T07:35:36Z</time>
      </trkpt>
      <trkpt lat="45.92987" lon="4.7863">
        <ele>171.2</ele>
        <time>2024-09-20T07:35:37Z</time>
      </trkpt>
      <trkpt lat="45.92983" lon="4.78633">
        <ele>171.2</ele>
        <time>2024-09-20T07:35:38Z</time>
      </trkpt>
      <trkpt lat="45.92979" lon="4.78637">
        <ele>171.2</ele>
        <time>2024-09-20T07:35:39Z</time>
      </trkpt>
      <trkpt lat="45.92974" lon="4.7864">
        <ele>171</ele>
        <time>2024-09-20T07:35:40Z</time>
      </trkpt>
      <trkpt lat="45.9297" lon="4.78644">
        <ele>171</ele>
        <time>2024-09-20T07:35:41Z</time>
      </trkpt>
      <trkpt lat="45.92966" lon="4.78648">
        <ele>171</ele>
        <time>2024-09-20T07:35:42Z</time>
      </trkpt>
      <trkpt lat="45.92961" lon="4.78651">
        <ele>171.2</ele>
        <time>2024-09-20T07:35:43Z</time>
      </trkpt>
      <trkpt lat="45.92957" lon="4.78655">
        <ele>171.4</ele>
        <time>2024-09-20T07:35:44Z</time>
      </trkpt>
      <trkpt lat="45.92953" lon="4.78658">
        <ele>171.4</ele>
        <time>2024-09-20T07:35:45Z</time>
      </trkpt>
      <trkpt lat="45.92948" lon="4.78662">
        <ele>171.4</ele>
        <time>2024-09-20T07:35:46Z</time>
      </trkpt>
      <trkpt lat="45.92944" lon="4.78665">
        <ele>171.4</ele>
        <time>2024-09-20T07:35:47Z</time>
      </trkpt>
      <trkpt lat="45.92939" lon="4.78668">
        <ele>171.2</ele>
        <time>2024-09-20T07:35:48Z</time>
      </trkpt>
      <trkpt lat="45.92935" lon="4.78671">
        <ele>171.2</ele>
        <time>2024-09-20T07:35:49Z</time>
      </trkpt>
      <trkpt lat="45.9293" lon="4.78675">
        <ele>171.2</ele>
        <time>2024-09-20T07:35:50Z</time>
      </trkpt>
      <trkpt lat="45.92926" lon="4.78678">
        <ele>171.2</ele>
        <time>2024-09-20T07:35:51Z</time>
      </trkpt>
      <trkpt lat="45.92921" lon="4.78682">
        <ele>171</ele>
        <time>2024-09-20T07:35:52Z</time>
      </trkpt>
      <trkpt lat="45.92917" lon="4.78685">
        <ele>171.2</ele>
        <time>2024-09-20T07:35:53Z</time>
      </trkpt>
      <trkpt lat="45.92912" lon="4.78688">
        <ele>171.2</ele>
        <time>2024-09-20T07:35:54Z</time>
      </trkpt>
      <trkpt lat="45.92908" lon="4.78692">
        <ele>171.2</ele>
        <time>2024-09-20T07:35:55Z</time>
      </trkpt>
      <trkpt lat="45.92903" lon="4.78695">
        <ele>171.2</ele>
        <time>2024-09-20T07:35:56Z</time>
      </trkpt>
      <trkpt lat="45.92899" lon="4.78699">
        <ele>171</ele>
        <time>2024-09-20T07:35:57Z</time>
      </trkpt>
      <trkpt lat="45.92894" lon="4.78702">
        <ele>171</ele>
        <time>2024-09-20T07:35:58Z</time>
      </trkpt>
      <trkpt lat="45.9289" lon="4.78705">
        <ele>171</ele>
        <time>2024-09-20T07:35:59Z</time>
      </trkpt>
      <trkpt lat="45.92885" lon="4.78709">
        <ele>171</ele>
        <time>2024-09-20T07:36:00Z</time>
      </trkpt>
      <trkpt lat="45.92881" lon="4.78712">
        <ele>171</ele>
        <time>2024-09-20T07:36:01Z</time>
      </trkpt>
      <trkpt lat="45.92876" lon="4.78715">
        <ele>171.2</ele>
        <time>2024-09-20T07:36:02Z</time>
      </trkpt>
      <trkpt lat="45.92872" lon="4.78718">
        <ele>171.2</ele>
        <time>2024-09-20T07:36:03Z</time>
      </trkpt>
      <trkpt lat="45.92867" lon="4.78721">
        <ele>171.2</ele>
        <time>2024-09-20T07:36:04Z</time>
      </trkpt>
      <trkpt lat="45.92863" lon="4.78724">
        <ele>171</ele>
        <time>2024-09-20T07:36:05Z</time>
      </trkpt>
      <trkpt lat="45.92858" lon="4.78728">
        <ele>171</ele>
        <time>2024-09-20T07:36:06Z</time>
      </trkpt>
      <trkpt lat="45.92854" lon="4.78731">
        <ele>170.8</ele>
        <time>2024-09-20T07:36:07Z</time>
      </trkpt>
      <trkpt lat="45.92849" lon="4.78734">
        <ele>170.8</ele>
        <time>2024-09-20T07:36:08Z</time>
      </trkpt>
      <trkpt lat="45.92845" lon="4.78737">
        <ele>170.8</ele>
        <time>2024-09-20T07:36:09Z</time>
      </trkpt>
      <trkpt lat="45.92841" lon="4.7874">
        <ele>170.8</ele>
        <time>2024-09-20T07:36:10Z</time>
      </trkpt>
      <trkpt lat="45.92836" lon="4.78743">
        <ele>170.8</ele>
        <time>2024-09-20T07:36:11Z</time>
      </trkpt>
      <trkpt lat="45.92832" lon="4.78747">
        <ele>170.8</ele>
        <time>2024-09-20T07:36:12Z</time>
      </trkpt>
      <trkpt lat="45.92828" lon="4.7875">
        <ele>170.8</ele>
        <time>2024-09-20T07:36:13Z</time>
      </trkpt>
      <trkpt lat="45.92823" lon="4.78753">
        <ele>170.8</ele>
        <time>2024-09-20T07:36:14Z</time>
      </trkpt>
      <trkpt lat="45.92819" lon="4.78756">
        <ele>170.8</ele>
        <time>2024-09-20T07:36:15Z</time>
      </trkpt>
      <trkpt lat="45.92815" lon="4.78759">
        <ele>170.8</ele>
        <time>2024-09-20T07:36:16Z</time>
      </trkpt>
      <trkpt lat="45.9281" lon="4.78761">
        <ele>170.8</ele>
        <time>2024-09-20T07:36:17Z</time>
      </trkpt>
      <trkpt lat="45.92806" lon="4.78765">
        <ele>170.8</ele>
        <time>2024-09-20T07:36:18Z</time>
      </trkpt>
      <trkpt lat="45.92801" lon="4.78768">
        <ele>170.8</ele>
        <time>2024-09-20T07:36:19Z</time>
      </trkpt>
      <trkpt lat="45.92797" lon="4.78771">
        <ele>170.8</ele>
        <time>2024-09-20T07:36:20Z</time>
      </trkpt>
      <trkpt lat="45.92792" lon="4.78774">
        <ele>171.2</ele>
        <time>2024-09-20T07:36:21Z</time>
      </trkpt>
      <trkpt lat="45.92788" lon="4.78777">
        <ele>171.2</ele>
        <time>2024-09-20T07:36:22Z</time>
      </trkpt>
      <trkpt lat="45.92783" lon="4.7878">
        <ele>171.2</ele>
        <time>2024-09-20T07:36:23Z</time>
      </trkpt>
      <trkpt lat="45.92778" lon="4.78783">
        <ele>171</ele>
        <time>2024-09-20T07:36:24Z</time>
      </trkpt>
      <trkpt lat="45.92774" lon="4.78786">
        <ele>171</ele>
        <time>2024-09-20T07:36:25Z</time>
      </trkpt>
      <trkpt lat="45.92769" lon="4.78789">
        <ele>171</ele>
        <time>2024-09-20T07:36:26Z</time>
      </trkpt>
      <trkpt lat="45.92764" lon="4.78793">
        <ele>171</ele>
        <time>2024-09-20T07:36:27Z</time>
      </trkpt>
      <trkpt lat="45.9276" lon="4.78796">
        <ele>171</ele>
        <time>2024-09-20T07:36:28Z</time>
      </trkpt>
      <trkpt lat="45.92755" lon="4.788">
        <ele>170.8</ele>
        <time>2024-09-20T07:36:29Z</time>
      </trkpt>
      <trkpt lat="45.9275" lon="4.78803">
        <ele>170.8</ele>
        <time>2024-09-20T07:36:30Z</time>
      </trkpt>
      <trkpt lat="45.92746" lon="4.78806">
        <ele>170.8</ele>
        <time>2024-09-20T07:36:31Z</time>
      </trkpt>
      <trkpt lat="45.92741" lon="4.7881">
        <ele>170.8</ele>
        <time>2024-09-20T07:36:32Z</time>
      </trkpt>
      <trkpt lat="45.92736" lon="4.78813">
        <ele>170.8</ele>
        <time>2024-09-20T07:36:33Z</time>
      </trkpt>
      <trkpt lat="45.92732" lon="4.78817">
        <ele>171</ele>
        <time>2024-09-20T07:36:34Z</time>
      </trkpt>
      <trkpt lat="45.92727" lon="4.7882">
        <ele>171</ele>
        <time>2024-09-20T07:36:35Z</time>
      </trkpt>
      <trkpt lat="45.92723" lon="4.78822">
        <ele>171</ele>
        <time>2024-09-20T07:36:36Z</time>
      </trkpt>
      <trkpt lat="45.92719" lon="4.78825">
        <ele>171</ele>
        <time>2024-09-20T07:36:37Z</time>
      </trkpt>
      <trkpt lat="45.92715" lon="4.78827">
        <ele>171</ele>
        <time>2024-09-20T07:36:38Z</time>
      </trkpt>
      <trkpt lat="45.92711" lon="4.7883">
        <ele>171</ele>
        <time>2024-09-20T07:36:39Z</time>
      </trkpt>
      <trkpt lat="45.92707" lon="4.78833">
        <ele>171</ele>
        <time>2024-09-20T07:36:40Z</time>
      </trkpt>
      <trkpt lat="45.92703" lon="4.78835">
        <ele>171</ele>
        <time>2024-09-20T07:36:41Z</time>
      </trkpt>
      <trkpt lat="45.92699" lon="4.78838">
        <ele>171</ele>
        <time>2024-09-20T07:36:42Z</time>
      </trkpt>
      <trkpt lat="45.92696" lon="4.7884">
        <ele>171</ele>
        <time>2024-09-20T07:36:43Z</time>
      </trkpt>
      <trkpt lat="45.92692" lon="4.78843">
        <ele>171</ele>
        <time>2024-09-20T07:36:44Z</time>
      </trkpt>
      <trkpt lat="45.92688" lon="4.78845">
        <ele>171</ele>
        <time>2024-09-20T07:36:45Z</time>
      </trkpt>
      <trkpt lat="45.92683" lon="4.78848">
        <ele>171</ele>
        <time>2024-09-20T07:36:46Z</time>
      </trkpt>
      <trkpt lat="45.92679" lon="4.7885">
        <ele>171</ele>
        <time>2024-09-20T07:36:47Z</time>
      </trkpt>
      <trkpt lat="45.92675" lon="4.78853">
        <ele>171</ele>
        <time>2024-09-20T07:36:48Z</time>
      </trkpt>
      <trkpt lat="45.9267" lon="4.78856">
        <ele>171</ele>
        <time>2024-09-20T07:36:49Z</time>
      </trkpt>
      <trkpt lat="45.92666" lon="4.78859">
        <ele>171</ele>
        <time>2024-09-20T07:36:50Z</time>
      </trkpt>
      <trkpt lat="45.92661" lon="4.78862">
        <ele>171</ele>
        <time>2024-09-20T07:36:51Z</time>
      </trkpt>
      <trkpt lat="45.92657" lon="4.78865">
        <ele>170.8</ele>
        <time>2024-09-20T07:36:52Z</time>
      </trkpt>
      <trkpt lat="45.92653" lon="4.78867">
        <ele>170.8</ele>
        <time>2024-09-20T07:36:53Z</time>
      </trkpt>
      <trkpt lat="45.92648" lon="4.7887">
        <ele>170.8</ele>
        <time>2024-09-20T07:36:54Z</time>
      </trkpt>
      <trkpt lat="45.92644" lon="4.78872">
        <ele>170.8</ele>
        <time>2024-09-20T07:36:55Z</time>
      </trkpt>
      <trkpt lat="45.92639" lon="4.78875">
        <ele>170.8</ele>
        <time>2024-09-20T07:36:56Z</time>
      </trkpt>
      <trkpt lat="45.92635" lon="4.78877">
        <ele>170.8</ele>
        <time>2024-09-20T07:36:57Z</time>
      </trkpt>
      <trkpt lat="45.92631" lon="4.7888">
        <ele>170.8</ele>
        <time>2024-09-20T07:36:58Z</time>
      </trkpt>
      <trkpt lat="45.92626" lon="4.78882">
        <ele>170.8</ele>
        <time>2024-09-20T07:36:59Z</time>
      </trkpt>
      <trkpt lat="45.92622" lon="4.78885">
        <ele>170.8</ele>
        <time>2024-09-20T07:37:00Z</time>
      </trkpt>
      <trkpt lat="45.92617" lon="4.78888">
        <ele>171</ele>
        <time>2024-09-20T07:37:01Z</time>
      </trkpt>
      <trkpt lat="45.92613" lon="4.7889">
        <ele>171</ele>
        <time>2024-09-20T07:37:02Z</time>
      </trkpt>
      <trkpt lat="45.92609" lon="4.78893">
        <ele>171</ele>
        <time>2024-09-20T07:37:03Z</time>
      </trkpt>
      <trkpt lat="45.92605" lon="4.78895">
        <ele>171</ele>
        <time>2024-09-20T07:37:04Z</time>
      </trkpt>
      <trkpt lat="45.926" lon="4.78898">
        <ele>171</ele>
        <time>2024-09-20T07:37:05Z</time>
      </trkpt>
      <trkpt lat="45.92596" lon="4.789">
        <ele>170.8</ele>
        <time>2024-09-20T07:37:06Z</time>
      </trkpt>
      <trkpt lat="45.92591" lon="4.78902">
        <ele>170.8</ele>
        <time>2024-09-20T07:37:07Z</time>
      </trkpt>
      <trkpt lat="45.92587" lon="4.78904">
        <ele>170.8</ele>
        <time>2024-09-20T07:37:08Z</time>
      </trkpt>
      <trkpt lat="45.92582" lon="4.78906">
        <ele>170.8</ele>
        <time>2024-09-20T07:37:09Z</time>
      </trkpt>
      <trkpt lat="45.92578" lon="4.78908">
        <ele>171</ele>
        <time>2024-09-20T07:37:10Z</time>
      </trkpt>
      <trkpt lat="45.92573" lon="4.7891">
        <ele>171</ele>
        <time>2024-09-20T07:37:11Z</time>
      </trkpt>
      <trkpt lat="45.92569" lon="4.78911">
        <ele>171</ele>
        <time>2024-09-20T07:37:12Z</time>
      </trkpt>
      <trkpt lat="45.92564" lon="4.78913">
        <ele>171</ele>
        <time>2024-09-20T07:37:13Z</time>
      </trkpt>
      <trkpt lat="45.9256" lon="4.78915">
        <ele>171</ele>
        <time>2024-09-20T07:37:14Z</time>
      </trkpt>
      <trkpt lat="45.92555" lon="4.78917">
        <ele>171</ele>
        <time>2024-09-20T07:37:15Z</time>
      </trkpt>
      <trkpt lat="45.92551" lon="4.7892">
        <ele>171</ele>
        <time>2024-09-20T07:37:16Z</time>
      </trkpt>
      <trkpt lat="45.92547" lon="4.78923">
        <ele>171</ele>
        <time>2024-09-20T07:37:17Z</time>
      </trkpt>
      <trkpt lat="45.92542" lon="4.78925">
        <ele>171</ele>
        <time>2024-09-20T07:37:18Z</time>
      </trkpt>
      <trkpt lat="45.92538" lon="4.78928">
        <ele>171</ele>
        <time>2024-09-20T07:37:19Z</time>
      </trkpt>
      <trkpt lat="45.92533" lon="4.78931">
        <ele>171</ele>
        <time>2024-09-20T07:37:20Z</time>
      </trkpt>
      <trkpt lat="45.92528" lon="4.78934">
        <ele>171</ele>
        <time>2024-09-20T07:37:21Z</time>
      </trkpt>
      <trkpt lat="45.92524" lon="4.78937">
        <ele>171</ele>
        <time>2024-09-20T07:37:22Z</time>
      </trkpt>
      <trkpt lat="45.92519" lon="4.7894">
        <ele>171</ele>
        <time>2024-09-20T07:37:23Z</time>
      </trkpt>
      <trkpt lat="45.92515" lon="4.78943">
        <ele>171</ele>
        <time>2024-09-20T07:37:24Z</time>
      </trkpt>
      <trkpt lat="45.9251" lon="4.78947">
        <ele>171</ele>
        <time>2024-09-20T07:37:25Z</time>
      </trkpt>
      <trkpt lat="45.92506" lon="4.7895">
        <ele>171</ele>
        <time>2024-09-20T07:37:26Z</time>
      </trkpt>
      <trkpt lat="45.92501" lon="4.78954">
        <ele>171</ele>
        <time>2024-09-20T07:37:27Z</time>
      </trkpt>
      <trkpt lat="45.92497" lon="4.78958">
        <ele>171</ele>
        <time>2024-09-20T07:37:28Z</time>
      </trkpt>
      <trkpt lat="45.92493" lon="4.78962">
        <ele>171</ele>
        <time>2024-09-20T07:37:29Z</time>
      </trkpt>
      <trkpt lat="45.92488" lon="4.78966">
        <ele>171</ele>
        <time>2024-09-20T07:37:30Z</time>
      </trkpt>
      <trkpt lat="45.92484" lon="4.7897">
        <ele>171</ele>
        <time>2024-09-20T07:37:31Z</time>
      </trkpt>
      <trkpt lat="45.9248" lon="4.78974">
        <ele>171</ele>
        <time>2024-09-20T07:37:32Z</time>
      </trkpt>
      <trkpt lat="45.92476" lon="4.78978">
        <ele>171</ele>
        <time>2024-09-20T07:37:33Z</time>
      </trkpt>
      <trkpt lat="45.92472" lon="4.78982">
        <ele>171</ele>
        <time>2024-09-20T07:37:34Z</time>
      </trkpt>
      <trkpt lat="45.92468" lon="4.78986">
        <ele>171.2</ele>
        <time>2024-09-20T07:37:35Z</time>
      </trkpt>
      <trkpt lat="45.92464" lon="4.7899">
        <ele>171</ele>
        <time>2024-09-20T07:37:36Z</time>
      </trkpt>
      <trkpt lat="45.9246" lon="4.78994">
        <ele>171</ele>
        <time>2024-09-20T07:37:37Z</time>
      </trkpt>
      <trkpt lat="45.92456" lon="4.78999">
        <ele>171</ele>
        <time>2024-09-20T07:37:38Z</time>
      </trkpt>
      <trkpt lat="45.92452" lon="4.79003">
        <ele>171</ele>
        <time>2024-09-20T07:37:39Z</time>
      </trkpt>
      <trkpt lat="45.92448" lon="4.79007">
        <ele>171.2</ele>
        <time>2024-09-20T07:37:40Z</time>
      </trkpt>
      <trkpt lat="45.92444" lon="4.79012">
        <ele>171.2</ele>
        <time>2024-09-20T07:37:41Z</time>
      </trkpt>
      <trkpt lat="45.9244" lon="4.79016">
        <ele>171.2</ele>
        <time>2024-09-20T07:37:42Z</time>
      </trkpt>
      <trkpt lat="45.92436" lon="4.79021">
        <ele>171.2</ele>
        <time>2024-09-20T07:37:43Z</time>
      </trkpt>
      <trkpt lat="45.92433" lon="4.79026">
        <ele>171.2</ele>
        <time>2024-09-20T07:37:44Z</time>
      </trkpt>
      <trkpt lat="45.92429" lon="4.79031">
        <ele>171.2</ele>
        <time>2024-09-20T07:37:45Z</time>
      </trkpt>
      <trkpt lat="45.92426" lon="4.79036">
        <ele>171.2</ele>
        <time>2024-09-20T07:37:46Z</time>
      </trkpt>
      <trkpt lat="45.92423" lon="4.79042">
        <ele>171.2</ele>
        <time>2024-09-20T07:37:47Z</time>
      </trkpt>
      <trkpt lat="45.9242" lon="4.79047">
        <ele>171.2</ele>
        <time>2024-09-20T07:37:48Z</time>
      </trkpt>
      <trkpt lat="45.92417" lon="4.79052">
        <ele>171.2</ele>
        <time>2024-09-20T07:37:49Z</time>
      </trkpt>
      <trkpt lat="45.92413" lon="4.79057">
        <ele>171</ele>
        <time>2024-09-20T07:37:50Z</time>
      </trkpt>
      <trkpt lat="45.9241" lon="4.79063">
        <ele>171</ele>
        <time>2024-09-20T07:37:51Z</time>
      </trkpt>
      <trkpt lat="45.92407" lon="4.79068">
        <ele>171</ele>
        <time>2024-09-20T07:37:52Z</time>
      </trkpt>
      <trkpt lat="45.92403" lon="4.79072">
        <ele>171</ele>
        <time>2024-09-20T07:37:53Z</time>
      </trkpt>
      <trkpt lat="45.924" lon="4.79077">
        <ele>171.2</ele>
        <time>2024-09-20T07:37:54Z</time>
      </trkpt>
      <trkpt lat="45.92397" lon="4.79082">
        <ele>171.2</ele>
        <time>2024-09-20T07:37:55Z</time>
      </trkpt>
      <trkpt lat="45.92393" lon="4.79088">
        <ele>171.2</ele>
        <time>2024-09-20T07:37:56Z</time>
      </trkpt>
      <trkpt lat="45.9239" lon="4.79093">
        <ele>171.2</ele>
        <time>2024-09-20T07:37:57Z</time>
      </trkpt>
      <trkpt lat="45.92387" lon="4.79098">
        <ele>171.2</ele>
        <time>2024-09-20T07:37:58Z</time>
      </trkpt>
      <trkpt lat="45.92383" lon="4.79103">
        <ele>171.2</ele>
        <time>2024-09-20T07:37:59Z</time>
      </trkpt>
      <trkpt lat="45.9238" lon="4.79108">
        <ele>171.2</ele>
        <time>2024-09-20T07:38:00Z</time>
      </trkpt>
      <trkpt lat="45.92378" lon="4.79113">
        <ele>171.2</ele>
        <time>2024-09-20T07:38:01Z</time>
      </trkpt>
      <trkpt lat="45.92375" lon="4.79118">
        <ele>171.2</ele>
        <time>2024-09-20T07:38:02Z</time>
      </trkpt>
      <trkpt lat="45.92372" lon="4.79123">
        <ele>171.2</ele>
        <time>2024-09-20T07:38:03Z</time>
      </trkpt>
      <trkpt lat="45.92369" lon="4.79128">
        <ele>171.2</ele>
        <time>2024-09-20T07:38:04Z</time>
      </trkpt>
      <trkpt lat="45.92367" lon="4.79133">
        <ele>171.2</ele>
        <time>2024-09-20T07:38:05Z</time>
      </trkpt>
      <trkpt lat="45.92364" lon="4.79138">
        <ele>171.2</ele>
        <time>2024-09-20T07:38:06Z</time>
      </trkpt>
      <trkpt lat="45.92361" lon="4.79143">
        <ele>171</ele>
        <time>2024-09-20T07:38:07Z</time>
      </trkpt>
      <trkpt lat="45.92358" lon="4.79149">
        <ele>171</ele>
        <time>2024-09-20T07:38:08Z</time>
      </trkpt>
      <trkpt lat="45.92356" lon="4.79154">
        <ele>171</ele>
        <time>2024-09-20T07:38:09Z</time>
      </trkpt>
      <trkpt lat="45.92353" lon="4.7916">
        <ele>171</ele>
        <time>2024-09-20T07:38:10Z</time>
      </trkpt>
      <trkpt lat="45.9235" lon="4.79165">
        <ele>171</ele>
        <time>2024-09-20T07:38:11Z</time>
      </trkpt>
      <trkpt lat="45.92348" lon="4.7917">
        <ele>170.8</ele>
        <time>2024-09-20T07:38:12Z</time>
      </trkpt>
      <trkpt lat="45.92345" lon="4.79176">
        <ele>170.8</ele>
        <time>2024-09-20T07:38:13Z</time>
      </trkpt>
      <trkpt lat="45.92343" lon="4.79182">
        <ele>170.8</ele>
        <time>2024-09-20T07:38:14Z</time>
      </trkpt>
      <trkpt lat="45.9234" lon="4.79188">
        <ele>170.8</ele>
        <time>2024-09-20T07:38:15Z</time>
      </trkpt>
      <trkpt lat="45.92338" lon="4.79194">
        <ele>171.2</ele>
        <time>2024-09-20T07:38:16Z</time>
      </trkpt>
      <trkpt lat="45.92336" lon="4.792">
        <ele>171.2</ele>
        <time>2024-09-20T07:38:17Z</time>
      </trkpt>
      <trkpt lat="45.92334" lon="4.79206">
        <ele>171.2</ele>
        <time>2024-09-20T07:38:18Z</time>
      </trkpt>
      <trkpt lat="45.92332" lon="4.79212">
        <ele>171.2</ele>
        <time>2024-09-20T07:38:19Z</time>
      </trkpt>
      <trkpt lat="45.9233" lon="4.79218">
        <ele>171.2</ele>
        <time>2024-09-20T07:38:20Z</time>
      </trkpt>
      <trkpt lat="45.92328" lon="4.79224">
        <ele>171.2</ele>
        <time>2024-09-20T07:38:21Z</time>
      </trkpt>
      <trkpt lat="45.92326" lon="4.7923">
        <ele>171.2</ele>
        <time>2024-09-20T07:38:22Z</time>
      </trkpt>
      <trkpt lat="45.92325" lon="4.79237">
        <ele>171.2</ele>
        <time>2024-09-20T07:38:23Z</time>
      </trkpt>
      <trkpt lat="45.92323" lon="4.79242">
        <ele>171.2</ele>
        <time>2024-09-20T07:38:24Z</time>
      </trkpt>
      <trkpt lat="45.92322" lon="4.79249">
        <ele>171.2</ele>
        <time>2024-09-20T07:38:25Z</time>
      </trkpt>
      <trkpt lat="45.92321" lon="4.79255">
        <ele>171.2</ele>
        <time>2024-09-20T07:38:26Z</time>
      </trkpt>
      <trkpt lat="45.9232" lon="4.79262">
        <ele>171.2</ele>
        <time>2024-09-20T07:38:27Z</time>
      </trkpt>
      <trkpt lat="45.92319" lon="4.79269">
        <ele>171.2</ele>
        <time>2024-09-20T07:38:28Z</time>
      </trkpt>
      <trkpt lat="45.92319" lon="4.79276">
        <ele>171.2</ele>
        <time>2024-09-20T07:38:29Z</time>
      </trkpt>
      <trkpt lat="45.92318" lon="4.79283">
        <ele>171.2</ele>
        <time>2024-09-20T07:38:30Z</time>
      </trkpt>
      <trkpt lat="45.92318" lon="4.79289">
        <ele>171</ele>
        <time>2024-09-20T07:38:31Z</time>
      </trkpt>
      <trkpt lat="45.92318" lon="4.79296">
        <ele>171</ele>
        <time>2024-09-20T07:38:32Z</time>
      </trkpt>
      <trkpt lat="45.92318" lon="4.79303">
        <ele>171</ele>
        <time>2024-09-20T07:38:33Z</time>
      </trkpt>
      <trkpt lat="45.92318" lon="4.7931">
        <ele>171</ele>
        <time>2024-09-20T07:38:34Z</time>
      </trkpt>
      <trkpt lat="45.92317" lon="4.79317">
        <ele>171.2</ele>
        <time>2024-09-20T07:38:35Z</time>
      </trkpt>
      <trkpt lat="45.92317" lon="4.79324">
        <ele>171.2</ele>
        <time>2024-09-20T07:38:36Z</time>
      </trkpt>
      <trkpt lat="45.92317" lon="4.79331">
        <ele>171.2</ele>
        <time>2024-09-20T07:38:37Z</time>
      </trkpt>
      <trkpt lat="45.92317" lon="4.79338">
        <ele>171.2</ele>
        <time>2024-09-20T07:38:38Z</time>
      </trkpt>
      <trkpt lat="45.92316" lon="4.79345">
        <ele>171.2</ele>
        <time>2024-09-20T07:38:39Z</time>
      </trkpt>
      <trkpt lat="45.92316" lon="4.79352">
        <ele>171.2</ele>
        <time>2024-09-20T07:38:40Z</time>
      </trkpt>
      <trkpt lat="45.92317" lon="4.79358">
        <ele>171.2</ele>
        <time>2024-09-20T07:38:41Z</time>
      </trkpt>
      <trkpt lat="45.92317" lon="4.79365">
        <ele>171.2</ele>
        <time>2024-09-20T07:38:42Z</time>
      </trkpt>
      <trkpt lat="45.92316" lon="4.79371">
        <ele>170.8</ele>
        <time>2024-09-20T07:38:43Z</time>
      </trkpt>
      <trkpt lat="45.92316" lon="4.79379">
        <ele>170.8</ele>
        <time>2024-09-20T07:38:44Z</time>
      </trkpt>
      <trkpt lat="45.92316" lon="4.79385">
        <ele>171.2</ele>
        <time>2024-09-20T07:38:45Z</time>
      </trkpt>
      <trkpt lat="45.92316" lon="4.79393">
        <ele>171.2</ele>
        <time>2024-09-20T07:38:46Z</time>
      </trkpt>
      <trkpt lat="45.92316" lon="4.794">
        <ele>171</ele>
        <time>2024-09-20T07:38:47Z</time>
      </trkpt>
      <trkpt lat="45.92316" lon="4.79406">
        <ele>171</ele>
        <time>2024-09-20T07:38:48Z</time>
      </trkpt>
      <trkpt lat="45.92316" lon="4.79413">
        <ele>171</ele>
        <time>2024-09-20T07:38:49Z</time>
      </trkpt>
      <trkpt lat="45.92317" lon="4.7942">
        <ele>171</ele>
        <time>2024-09-20T07:38:50Z</time>
      </trkpt>
      <trkpt lat="45.92317" lon="4.79427">
        <ele>171</ele>
        <time>2024-09-20T07:38:51Z</time>
      </trkpt>
      <trkpt lat="45.92318" lon="4.79433">
        <ele>171</ele>
        <time>2024-09-20T07:38:52Z</time>
      </trkpt>
      <trkpt lat="45.92319" lon="4.79439">
        <ele>170.8</ele>
        <time>2024-09-20T07:38:53Z</time>
      </trkpt>
      <trkpt lat="45.92319" lon="4.79446">
        <ele>170.8</ele>
        <time>2024-09-20T07:38:54Z</time>
      </trkpt>
      <trkpt lat="45.9232" lon="4.79452">
        <ele>170.8</ele>
        <time>2024-09-20T07:38:55Z</time>
      </trkpt>
      <trkpt lat="45.92321" lon="4.79459">
        <ele>171.2</ele>
        <time>2024-09-20T07:38:56Z</time>
      </trkpt>
      <trkpt lat="45.92322" lon="4.79466">
        <ele>171.6</ele>
        <time>2024-09-20T07:38:57Z</time>
      </trkpt>
      <trkpt lat="45.92323" lon="4.79473">
        <ele>171.6</ele>
        <time>2024-09-20T07:38:58Z</time>
      </trkpt>
      <trkpt lat="45.92324" lon="4.79479">
        <ele>171.6</ele>
        <time>2024-09-20T07:38:59Z</time>
      </trkpt>
      <trkpt lat="45.92325" lon="4.79485">
        <ele>171.2</ele>
        <time>2024-09-20T07:39:00Z</time>
      </trkpt>
      <trkpt lat="45.92326" lon="4.79492">
        <ele>171.2</ele>
        <time>2024-09-20T07:39:01Z</time>
      </trkpt>
      <trkpt lat="45.92327" lon="4.79499">
        <ele>171.2</ele>
        <time>2024-09-20T07:39:02Z</time>
      </trkpt>
      <trkpt lat="45.92328" lon="4.79506">
        <ele>171.2</ele>
        <time>2024-09-20T07:39:03Z</time>
      </trkpt>
      <trkpt lat="45.92329" lon="4.79513">
        <ele>171.2</ele>
        <time>2024-09-20T07:39:04Z</time>
      </trkpt>
      <trkpt lat="45.9233" lon="4.7952">
        <ele>171.2</ele>
        <time>2024-09-20T07:39:05Z</time>
      </trkpt>
      <trkpt lat="45.92331" lon="4.79527">
        <ele>171.2</ele>
        <time>2024-09-20T07:39:06Z</time>
      </trkpt>
      <trkpt lat="45.92332" lon="4.79535">
        <ele>171.2</ele>
        <time>2024-09-20T07:39:07Z</time>
      </trkpt>
      <trkpt lat="45.92332" lon="4.79542">
        <ele>171.2</ele>
        <time>2024-09-20T07:39:08Z</time>
      </trkpt>
      <trkpt lat="45.92333" lon="4.79549">
        <ele>171.2</ele>
        <time>2024-09-20T07:39:09Z</time>
      </trkpt>
      <trkpt lat="45.92334" lon="4.79557">
        <ele>171.2</ele>
        <time>2024-09-20T07:39:10Z</time>
      </trkpt>
      <trkpt lat="45.92334" lon="4.79564">
        <ele>171.2</ele>
        <time>2024-09-20T07:39:11Z</time>
      </trkpt>
      <trkpt lat="45.92335" lon="4.79571">
        <ele>171.2</ele>
        <time>2024-09-20T07:39:12Z</time>
      </trkpt>
      <trkpt lat="45.92336" lon="4.79578">
        <ele>171.2</ele>
        <time>2024-09-20T07:39:13Z</time>
      </trkpt>
      <trkpt lat="45.92337" lon="4.79584">
        <ele>171.4</ele>
        <time>2024-09-20T07:39:14Z</time>
      </trkpt>
      <trkpt lat="45.92337" lon="4.79591">
        <ele>171.4</ele>
        <time>2024-09-20T07:39:15Z</time>
      </trkpt>
      <trkpt lat="45.92338" lon="4.79597">
        <ele>171.4</ele>
        <time>2024-09-20T07:39:16Z</time>
      </trkpt>
      <trkpt lat="45.92339" lon="4.79604">
        <ele>171.4</ele>
        <time>2024-09-20T07:39:17Z</time>
      </trkpt>
      <trkpt lat="45.92339" lon="4.7961">
        <ele>171.4</ele>
        <time>2024-09-20T07:39:18Z</time>
      </trkpt>
      <trkpt lat="45.9234" lon="4.79615">
        <ele>171.4</ele>
        <time>2024-09-20T07:39:19Z</time>
      </trkpt>
      <trkpt lat="45.9234" lon="4.79621">
        <ele>171.6</ele>
        <time>2024-09-20T07:39:20Z</time>
      </trkpt>
      <trkpt lat="45.92342" lon="4.79627">
        <ele>171.6</ele>
        <time>2024-09-20T07:39:21Z</time>
      </trkpt>
      <trkpt lat="45.92342" lon="4.79633">
        <ele>171.6</ele>
        <time>2024-09-20T07:39:22Z</time>
      </trkpt>
      <trkpt lat="45.92343" lon="4.79639">
        <ele>171.6</ele>
        <time>2024-09-20T07:39:23Z</time>
      </trkpt>
      <trkpt lat="45.92343" lon="4.79645">
        <ele>171.4</ele>
        <time>2024-09-20T07:39:24Z</time>
      </trkpt>
      <trkpt lat="45.92344" lon="4.79651">
        <ele>171.4</ele>
        <time>2024-09-20T07:39:25Z</time>
      </trkpt>
      <trkpt lat="45.92345" lon="4.79658">
        <ele>171.4</ele>
        <time>2024-09-20T07:39:26Z</time>
      </trkpt>
      <trkpt lat="45.92347" lon="4.79665">
        <ele>171.4</ele>
        <time>2024-09-20T07:39:27Z</time>
      </trkpt>
      <trkpt lat="45.92348" lon="4.79671">
        <ele>171</ele>
        <time>2024-09-20T07:39:28Z</time>
      </trkpt>
      <trkpt lat="45.92349" lon="4.79677">
        <ele>171.4</ele>
        <time>2024-09-20T07:39:29Z</time>
      </trkpt>
      <trkpt lat="45.9235" lon="4.79683">
        <ele>171.4</ele>
        <time>2024-09-20T07:39:30Z</time>
      </trkpt>
      <trkpt lat="45.92351" lon="4.7969">
        <ele>171.4</ele>
        <time>2024-09-20T07:39:31Z</time>
      </trkpt>
      <trkpt lat="45.92351" lon="4.79696">
        <ele>171.2</ele>
        <time>2024-09-20T07:39:32Z</time>
      </trkpt>
      <trkpt lat="45.92352" lon="4.79703">
        <ele>171.2</ele>
        <time>2024-09-20T07:39:33Z</time>
      </trkpt>
      <trkpt lat="45.92353" lon="4.7971">
        <ele>171.2</ele>
        <time>2024-09-20T07:39:34Z</time>
      </trkpt>
      <trkpt lat="45.92353" lon="4.79716">
        <ele>171.2</ele>
        <time>2024-09-20T07:39:35Z</time>
      </trkpt>
      <trkpt lat="45.92354" lon="4.79723">
        <ele>171.2</ele>
        <time>2024-09-20T07:39:36Z</time>
      </trkpt>
      <trkpt lat="45.92354" lon="4.7973">
        <ele>171</ele>
        <time>2024-09-20T07:39:37Z</time>
      </trkpt>
      <trkpt lat="45.92354" lon="4.79737">
        <ele>171</ele>
        <time>2024-09-20T07:39:38Z</time>
      </trkpt>
      <trkpt lat="45.92354" lon="4.79743">
        <ele>171</ele>
        <time>2024-09-20T07:39:39Z</time>
      </trkpt>
      <trkpt lat="45.92355" lon="4.7975">
        <ele>171</ele>
        <time>2024-09-20T07:39:40Z</time>
      </trkpt>
      <trkpt lat="45.92355" lon="4.79758">
        <ele>171.2</ele>
        <time>2024-09-20T07:39:41Z</time>
      </trkpt>
      <trkpt lat="45.92355" lon="4.79764">
        <ele>171.2</ele>
        <time>2024-09-20T07:39:42Z</time>
      </trkpt>
      <trkpt lat="45.92356" lon="4.7977">
        <ele>171.2</ele>
        <time>2024-09-20T07:39:43Z</time>
      </trkpt>
      <trkpt lat="45.92357" lon="4.79777">
        <ele>171.2</ele>
        <time>2024-09-20T07:39:44Z</time>
      </trkpt>
      <trkpt lat="45.92357" lon="4.79784">
        <ele>171.2</ele>
        <time>2024-09-20T07:39:45Z</time>
      </trkpt>
      <trkpt lat="45.92358" lon="4.79791">
        <ele>171</ele>
        <time>2024-09-20T07:39:46Z</time>
      </trkpt>
      <trkpt lat="45.92358" lon="4.79798">
        <ele>171</ele>
        <time>2024-09-20T07:39:47Z</time>
      </trkpt>
      <trkpt lat="45.92359" lon="4.79806">
        <ele>171</ele>
        <time>2024-09-20T07:39:48Z</time>
      </trkpt>
      <trkpt lat="45.9236" lon="4.79813">
        <ele>171</ele>
        <time>2024-09-20T07:39:49Z</time>
      </trkpt>
      <trkpt lat="45.92361" lon="4.7982">
        <ele>171.4</ele>
        <time>2024-09-20T07:39:50Z</time>
      </trkpt>
      <trkpt lat="45.92361" lon="4.79828">
        <ele>171.4</ele>
        <time>2024-09-20T07:39:51Z</time>
      </trkpt>
      <trkpt lat="45.92362" lon="4.79834">
        <ele>171.4</ele>
        <time>2024-09-20T07:39:52Z</time>
      </trkpt>
      <trkpt lat="45.92362" lon="4.79841">
        <ele>171.4</ele>
        <time>2024-09-20T07:39:53Z</time>
      </trkpt>
      <trkpt lat="45.92363" lon="4.79847">
        <ele>171.4</ele>
        <time>2024-09-20T07:39:54Z</time>
      </trkpt>
      <trkpt lat="45.92364" lon="4.79853">
        <ele>171.4</ele>
        <time>2024-09-20T07:39:55Z</time>
      </trkpt>
      <trkpt lat="45.92365" lon="4.79858">
        <ele>171.8</ele>
        <time>2024-09-20T07:39:56Z</time>
      </trkpt>
      <trkpt lat="45.92365" lon="4.79864">
        <ele>171.8</ele>
        <time>2024-09-20T07:39:57Z</time>
      </trkpt>
      <trkpt lat="45.92366" lon="4.79869">
        <ele>171.8</ele>
        <time>2024-09-20T07:39:58Z</time>
      </trkpt>
      <trkpt lat="45.92367" lon="4.79875">
        <ele>172</ele>
        <time>2024-09-20T07:39:59Z</time>
      </trkpt>
      <trkpt lat="45.92367" lon="4.7988">
        <ele>172</ele>
        <time>2024-09-20T07:40:00Z</time>
      </trkpt>
      <trkpt lat="45.92368" lon="4.79886">
        <ele>172</ele>
        <time>2024-09-20T07:40:01Z</time>
      </trkpt>
      <trkpt lat="45.92367" lon="4.79892">
        <ele>172</ele>
        <time>2024-09-20T07:40:02Z</time>
      </trkpt>
      <trkpt lat="45.92367" lon="4.79898">
        <ele>172.2</ele>
        <time>2024-09-20T07:40:03Z</time>
      </trkpt>
      <trkpt lat="45.92367" lon="4.79904">
        <ele>172.6</ele>
        <time>2024-09-20T07:40:04Z</time>
      </trkpt>
      <trkpt lat="45.92367" lon="4.79909">
        <ele>172.6</ele>
        <time>2024-09-20T07:40:05Z</time>
      </trkpt>
      <trkpt lat="45.92367" lon="4.79915">
        <ele>172.6</ele>
        <time>2024-09-20T07:40:06Z</time>
      </trkpt>
      <trkpt lat="45.92367" lon="4.7992">
        <ele>172.6</ele>
        <time>2024-09-20T07:40:07Z</time>
      </trkpt>
      <trkpt lat="45.92367" lon="4.79925">
        <ele>172.6</ele>
        <time>2024-09-20T07:40:08Z</time>
      </trkpt>
      <trkpt lat="45.92367" lon="4.79931">
        <ele>172.4</ele>
        <time>2024-09-20T07:40:09Z</time>
      </trkpt>
      <trkpt lat="45.92368" lon="4.79937">
        <ele>172.4</ele>
        <time>2024-09-20T07:40:10Z</time>
      </trkpt>
      <trkpt lat="45.92368" lon="4.79943">
        <ele>172.4</ele>
        <time>2024-09-20T07:40:11Z</time>
      </trkpt>
      <trkpt lat="45.92369" lon="4.79949">
        <ele>172.2</ele>
        <time>2024-09-20T07:40:12Z</time>
      </trkpt>
      <trkpt lat="45.92369" lon="4.79955">
        <ele>172.4</ele>
        <time>2024-09-20T07:40:13Z</time>
      </trkpt>
      <trkpt lat="45.9237" lon="4.79961">
        <ele>172.4</ele>
        <time>2024-09-20T07:40:14Z</time>
      </trkpt>
      <trkpt lat="45.9237" lon="4.79968">
        <ele>172.4</ele>
        <time>2024-09-20T07:40:15Z</time>
      </trkpt>
      <trkpt lat="45.9237" lon="4.79974">
        <ele>172</ele>
        <time>2024-09-20T07:40:16Z</time>
      </trkpt>
      <trkpt lat="45.92371" lon="4.7998">
        <ele>172</ele>
        <time>2024-09-20T07:40:17Z</time>
      </trkpt>
      <trkpt lat="45.92371" lon="4.79987">
        <ele>171.8</ele>
        <time>2024-09-20T07:40:18Z</time>
      </trkpt>
      <trkpt lat="45.92372" lon="4.79994">
        <ele>171.8</ele>
        <time>2024-09-20T07:40:19Z</time>
      </trkpt>
      <trkpt lat="45.92372" lon="4.8">
        <ele>171.8</ele>
        <time>2024-09-20T07:40:20Z</time>
      </trkpt>
      <trkpt lat="45.92373" lon="4.80007">
        <ele>172</ele>
        <time>2024-09-20T07:40:21Z</time>
      </trkpt>
      <trkpt lat="45.92373" lon="4.80013">
        <ele>171.8</ele>
        <time>2024-09-20T07:40:22Z</time>
      </trkpt>
      <trkpt lat="45.92374" lon="4.8002">
        <ele>171.8</ele>
        <time>2024-09-20T07:40:23Z</time>
      </trkpt>
      <trkpt lat="45.92374" lon="4.80027">
        <ele>171.8</ele>
        <time>2024-09-20T07:40:24Z</time>
      </trkpt>
      <trkpt lat="45.92374" lon="4.80033">
        <ele>171.8</ele>
        <time>2024-09-20T07:40:25Z</time>
      </trkpt>
      <trkpt lat="45.92375" lon="4.80039">
        <ele>171.8</ele>
        <time>2024-09-20T07:40:26Z</time>
      </trkpt>
      <trkpt lat="45.92375" lon="4.80045">
        <ele>171.8</ele>
        <time>2024-09-20T07:40:27Z</time>
      </trkpt>
      <trkpt lat="45.92376" lon="4.80051">
        <ele>171.8</ele>
        <time>2024-09-20T07:40:28Z</time>
      </trkpt>
      <trkpt lat="45.92376" lon="4.80057">
        <ele>171.8</ele>
        <time>2024-09-20T07:40:29Z</time>
      </trkpt>
      <trkpt lat="45.92377" lon="4.80063">
        <ele>171.8</ele>
        <time>2024-09-20T07:40:30Z</time>
      </trkpt>
      <trkpt lat="45.92377" lon="4.80069">
        <ele>172</ele>
        <time>2024-09-20T07:40:31Z</time>
      </trkpt>
      <trkpt lat="45.92377" lon="4.80076">
        <ele>172</ele>
        <time>2024-09-20T07:40:32Z</time>
      </trkpt>
      <trkpt lat="45.92377" lon="4.80082">
        <ele>172</ele>
        <time>2024-09-20T07:40:33Z</time>
      </trkpt>
      <trkpt lat="45.92377" lon="4.80089">
        <ele>172</ele>
        <time>2024-09-20T07:40:34Z</time>
      </trkpt>
      <trkpt lat="45.92378" lon="4.80095">
        <ele>172</ele>
        <time>2024-09-20T07:40:35Z</time>
      </trkpt>
      <trkpt lat="45.92378" lon="4.80102">
        <ele>171.8</ele>
        <time>2024-09-20T07:40:36Z</time>
      </trkpt>
      <trkpt lat="45.92378" lon="4.80109">
        <ele>171.8</ele>
        <time>2024-09-20T07:40:37Z</time>
      </trkpt>
      <trkpt lat="45.92377" lon="4.80116">
        <ele>171.8</ele>
        <time>2024-09-20T07:40:38Z</time>
      </trkpt>
      <trkpt lat="45.92377" lon="4.80122">
        <ele>171.8</ele>
        <time>2024-09-20T07:40:39Z</time>
      </trkpt>
      <trkpt lat="45.92377" lon="4.80129">
        <ele>171.8</ele>
        <time>2024-09-20T07:40:40Z</time>
      </trkpt>
      <trkpt lat="45.92376" lon="4.80136">
        <ele>171.8</ele>
        <time>2024-09-20T07:40:41Z</time>
      </trkpt>
      <trkpt lat="45.92376" lon="4.80143">
        <ele>171.8</ele>
        <time>2024-09-20T07:40:42Z</time>
      </trkpt>
      <trkpt lat="45.92375" lon="4.8015">
        <ele>171.4</ele>
        <time>2024-09-20T07:40:43Z</time>
      </trkpt>
      <trkpt lat="45.92375" lon="4.80157">
        <ele>171.4</ele>
        <time>2024-09-20T07:40:44Z</time>
      </trkpt>
      <trkpt lat="45.92374" lon="4.80163">
        <ele>171.6</ele>
        <time>2024-09-20T07:40:45Z</time>
      </trkpt>
      <trkpt lat="45.92374" lon="4.8017">
        <ele>171.6</ele>
        <time>2024-09-20T07:40:46Z</time>
      </trkpt>
      <trkpt lat="45.92373" lon="4.80177">
        <ele>171.6</ele>
        <time>2024-09-20T07:40:47Z</time>
      </trkpt>
      <trkpt lat="45.92372" lon="4.80183">
        <ele>171.2</ele>
        <time>2024-09-20T07:40:48Z</time>
      </trkpt>
      <trkpt lat="45.92372" lon="4.8019">
        <ele>171.2</ele>
        <time>2024-09-20T07:40:49Z</time>
      </trkpt>
      <trkpt lat="45.92371" lon="4.80196">
        <ele>171.2</ele>
        <time>2024-09-20T07:40:50Z</time>
      </trkpt>
      <trkpt lat="45.9237" lon="4.80202">
        <ele>171.2</ele>
        <time>2024-09-20T07:40:51Z</time>
      </trkpt>
      <trkpt lat="45.92369" lon="4.80209">
        <ele>171.6</ele>
        <time>2024-09-20T07:40:52Z</time>
      </trkpt>
      <trkpt lat="45.92368" lon="4.80215">
        <ele>171.4</ele>
        <time>2024-09-20T07:40:53Z</time>
      </trkpt>
      <trkpt lat="45.92367" lon="4.80222">
        <ele>171.4</ele>
        <time>2024-09-20T07:40:54Z</time>
      </trkpt>
      <trkpt lat="45.92366" lon="4.80228">
        <ele>171.4</ele>
        <time>2024-09-20T07:40:55Z</time>
      </trkpt>
      <trkpt lat="45.92365" lon="4.80235">
        <ele>171.4</ele>
        <time>2024-09-20T07:40:56Z</time>
      </trkpt>
      <trkpt lat="45.92364" lon="4.80241">
        <ele>171.4</ele>
        <time>2024-09-20T07:40:57Z</time>
      </trkpt>
      <trkpt lat="45.92362" lon="4.80248">
        <ele>171.2</ele>
        <time>2024-09-20T07:40:58Z</time>
      </trkpt>
      <trkpt lat="45.92361" lon="4.80255">
        <ele>171.2</ele>
        <time>2024-09-20T07:40:59Z</time>
      </trkpt>
      <trkpt lat="45.9236" lon="4.80261">
        <ele>171.2</ele>
        <time>2024-09-20T07:41:00Z</time>
      </trkpt>
      <trkpt lat="45.92359" lon="4.80267">
        <ele>171.2</ele>
        <time>2024-09-20T07:41:01Z</time>
      </trkpt>
      <trkpt lat="45.92358" lon="4.80272">
        <ele>171.4</ele>
        <time>2024-09-20T07:41:02Z</time>
      </trkpt>
      <trkpt lat="45.92357" lon="4.80276">
        <ele>171.4</ele>
        <time>2024-09-20T07:41:03Z</time>
      </trkpt>
      <trkpt lat="45.92356" lon="4.80279">
        <ele>171.4</ele>
        <time>2024-09-20T07:41:04Z</time>
      </trkpt>
      <trkpt lat="45.92356" lon="4.80281">
        <ele>171.4</ele>
        <time>2024-09-20T07:41:05Z</time>
      </trkpt>
      <trkpt lat="45.92356" lon="4.80282">
        <ele>171.4</ele>
        <time>2024-09-20T07:41:06Z</time>
      </trkpt>
      <trkpt lat="45.92356" lon="4.80282">
        <ele>171.4</ele>
        <time>2024-09-20T07:41:07Z</time>
      </trkpt>
      <trkpt lat="45.92356" lon="4.80282">
        <ele>171.4</ele>
        <time>2024-09-20T07:41:08Z</time>
      </trkpt>
      <trkpt lat="45.92358" lon="4.8029">
        <ele>171.2</ele>
        <time>2024-09-20T07:41:52Z</time>
      </trkpt>
      <trkpt lat="45.92357" lon="4.80293">
        <ele>171.2</ele>
        <time>2024-09-20T07:41:53Z</time>
      </trkpt>
      <trkpt lat="45.92356" lon="4.80297">
        <ele>171.2</ele>
        <time>2024-09-20T07:41:54Z</time>
      </trkpt>
      <trkpt lat="45.92355" lon="4.80301">
        <ele>171.2</ele>
        <time>2024-09-20T07:41:55Z</time>
      </trkpt>
      <trkpt lat="45.92355" lon="4.80305">
        <ele>171.2</ele>
        <time>2024-09-20T07:41:56Z</time>
      </trkpt>
      <trkpt lat="45.92354" lon="4.80311">
        <ele>171.2</ele>
        <time>2024-09-20T07:41:57Z</time>
      </trkpt>
      <trkpt lat="45.92353" lon="4.80317">
        <ele>171.2</ele>
        <time>2024-09-20T07:41:58Z</time>
      </trkpt>
      <trkpt lat="45.92352" lon="4.80322">
        <ele>171.4</ele>
        <time>2024-09-20T07:41:59Z</time>
      </trkpt>
      <trkpt lat="45.9235" lon="4.80328">
        <ele>171.4</ele>
        <time>2024-09-20T07:42:00Z</time>
      </trkpt>
      <trkpt lat="45.92349" lon="4.80334">
        <ele>171.4</ele>
        <time>2024-09-20T07:42:01Z</time>
      </trkpt>
      <trkpt lat="45.92348" lon="4.8034">
        <ele>171.4</ele>
        <time>2024-09-20T07:42:02Z</time>
      </trkpt>
      <trkpt lat="45.92347" lon="4.80346">
        <ele>171.4</ele>
        <time>2024-09-20T07:42:03Z</time>
      </trkpt>
      <trkpt lat="45.92346" lon="4.80352">
        <ele>171.4</ele>
        <time>2024-09-20T07:42:04Z</time>
      </trkpt>
      <trkpt lat="45.92344" lon="4.80359">
        <ele>171.4</ele>
        <time>2024-09-20T07:42:05Z</time>
      </trkpt>
      <trkpt lat="45.92343" lon="4.80365">
        <ele>171.4</ele>
        <time>2024-09-20T07:42:06Z</time>
      </trkpt>
      <trkpt lat="45.92342" lon="4.80372">
        <ele>171.6</ele>
        <time>2024-09-20T07:42:07Z</time>
      </trkpt>
      <trkpt lat="45.92341" lon="4.80378">
        <ele>171.6</ele>
        <time>2024-09-20T07:42:08Z</time>
      </trkpt>
      <trkpt lat="45.9234" lon="4.80385">
        <ele>171.8</ele>
        <time>2024-09-20T07:42:09Z</time>
      </trkpt>
      <trkpt lat="45.92339" lon="4.80392">
        <ele>171.8</ele>
        <time>2024-09-20T07:42:10Z</time>
      </trkpt>
      <trkpt lat="45.92338" lon="4.80399">
        <ele>171.6</ele>
        <time>2024-09-20T07:42:11Z</time>
      </trkpt>
      <trkpt lat="45.92337" lon="4.80405">
        <ele>171.6</ele>
        <time>2024-09-20T07:42:12Z</time>
      </trkpt>
      <trkpt lat="45.92336" lon="4.80412">
        <ele>171.6</ele>
        <time>2024-09-20T07:42:13Z</time>
      </trkpt>
      <trkpt lat="45.92335" lon="4.80419">
        <ele>171.6</ele>
        <time>2024-09-20T07:42:14Z</time>
      </trkpt>
      <trkpt lat="45.92333" lon="4.80425">
        <ele>171.6</ele>
        <time>2024-09-20T07:42:15Z</time>
      </trkpt>
      <trkpt lat="45.92333" lon="4.80432">
        <ele>171.6</ele>
        <time>2024-09-20T07:42:16Z</time>
      </trkpt>
      <trkpt lat="45.92332" lon="4.80439">
        <ele>171.6</ele>
        <time>2024-09-20T07:42:17Z</time>
      </trkpt>
      <trkpt lat="45.92331" lon="4.80445">
        <ele>171.6</ele>
        <time>2024-09-20T07:42:18Z</time>
      </trkpt>
      <trkpt lat="45.9233" lon="4.80451">
        <ele>171.6</ele>
        <time>2024-09-20T07:42:19Z</time>
      </trkpt>
      <trkpt lat="45.92329" lon="4.80457">
        <ele>171.6</ele>
        <time>2024-09-20T07:42:20Z</time>
      </trkpt>
      <trkpt lat="45.92328" lon="4.80464">
        <ele>171.6</ele>
        <time>2024-09-20T07:42:21Z</time>
      </trkpt>
      <trkpt lat="45.92327" lon="4.8047">
        <ele>171.6</ele>
        <time>2024-09-20T07:42:22Z</time>
      </trkpt>
      <trkpt lat="45.92326" lon="4.80477">
        <ele>171.6</ele>
        <time>2024-09-20T07:42:23Z</time>
      </trkpt>
      <trkpt lat="45.92325" lon="4.80483">
        <ele>171.6</ele>
        <time>2024-09-20T07:42:24Z</time>
      </trkpt>
      <trkpt lat="45.92324" lon="4.8049">
        <ele>171.6</ele>
        <time>2024-09-20T07:42:25Z</time>
      </trkpt>
      <trkpt lat="45.92323" lon="4.80496">
        <ele>171.6</ele>
        <time>2024-09-20T07:42:26Z</time>
      </trkpt>
      <trkpt lat="45.92322" lon="4.80503">
        <ele>171.6</ele>
        <time>2024-09-20T07:42:27Z</time>
      </trkpt>
      <trkpt lat="45.92321" lon="4.80509">
        <ele>171.6</ele>
        <time>2024-09-20T07:42:28Z</time>
      </trkpt>
      <trkpt lat="45.92319" lon="4.80516">
        <ele>171.4</ele>
        <time>2024-09-20T07:42:29Z</time>
      </trkpt>
      <trkpt lat="45.92318" lon="4.80523">
        <ele>171.2</ele>
        <time>2024-09-20T07:42:30Z</time>
      </trkpt>
      <trkpt lat="45.92317" lon="4.80529">
        <ele>171.2</ele>
        <time>2024-09-20T07:42:31Z</time>
      </trkpt>
      <trkpt lat="45.92316" lon="4.80536">
        <ele>171.2</ele>
        <time>2024-09-20T07:42:32Z</time>
      </trkpt>
      <trkpt lat="45.92315" lon="4.80543">
        <ele>171.4</ele>
        <time>2024-09-20T07:42:33Z</time>
      </trkpt>
      <trkpt lat="45.92314" lon="4.80549">
        <ele>171.4</ele>
        <time>2024-09-20T07:42:34Z</time>
      </trkpt>
      <trkpt lat="45.92313" lon="4.80554">
        <ele>171.4</ele>
        <time>2024-09-20T07:42:35Z</time>
      </trkpt>
      <trkpt lat="45.92312" lon="4.80561">
        <ele>171.4</ele>
        <time>2024-09-20T07:42:36Z</time>
      </trkpt>
      <trkpt lat="45.9231" lon="4.80567">
        <ele>171.4</ele>
        <time>2024-09-20T07:42:37Z</time>
      </trkpt>
      <trkpt lat="45.92309" lon="4.80573">
        <ele>171.4</ele>
        <time>2024-09-20T07:42:38Z</time>
      </trkpt>
      <trkpt lat="45.92308" lon="4.8058">
        <ele>171.4</ele>
        <time>2024-09-20T07:42:39Z</time>
      </trkpt>
      <trkpt lat="45.92307" lon="4.80587">
        <ele>171.6</ele>
        <time>2024-09-20T07:42:40Z</time>
      </trkpt>
      <trkpt lat="45.92306" lon="4.80594">
        <ele>171.6</ele>
        <time>2024-09-20T07:42:41Z</time>
      </trkpt>
      <trkpt lat="45.92304" lon="4.806">
        <ele>171.6</ele>
        <time>2024-09-20T07:42:42Z</time>
      </trkpt>
      <trkpt lat="45.92303" lon="4.80607">
        <ele>171.2</ele>
        <time>2024-09-20T07:42:43Z</time>
      </trkpt>
      <trkpt lat="45.92301" lon="4.80613">
        <ele>171.2</ele>
        <time>2024-09-20T07:42:44Z</time>
      </trkpt>
      <trkpt lat="45.923" lon="4.8062">
        <ele>171.2</ele>
        <time>2024-09-20T07:42:45Z</time>
      </trkpt>
      <trkpt lat="45.92298" lon="4.80626">
        <ele>171.2</ele>
        <time>2024-09-20T07:42:46Z</time>
      </trkpt>
      <trkpt lat="45.92297" lon="4.80633">
        <ele>171.2</ele>
        <time>2024-09-20T07:42:47Z</time>
      </trkpt>
      <trkpt lat="45.92296" lon="4.80639">
        <ele>171.2</ele>
        <time>2024-09-20T07:42:48Z</time>
      </trkpt>
      <trkpt lat="45.92294" lon="4.80646">
        <ele>171.2</ele>
        <time>2024-09-20T07:42:49Z</time>
      </trkpt>
      <trkpt lat="45.92293" lon="4.80653">
        <ele>171.2</ele>
        <time>2024-09-20T07:42:50Z</time>
      </trkpt>
      <trkpt lat="45.92291" lon="4.80659">
        <ele>171.2</ele>
        <time>2024-09-20T07:42:51Z</time>
      </trkpt>
      <trkpt lat="45.9229" lon="4.80665">
        <ele>171.2</ele>
        <time>2024-09-20T07:42:52Z</time>
      </trkpt>
      <trkpt lat="45.92288" lon="4.80672">
        <ele>171.2</ele>
        <time>2024-09-20T07:42:53Z</time>
      </trkpt>
      <trkpt lat="45.92287" lon="4.80679">
        <ele>171.2</ele>
        <time>2024-09-20T07:42:54Z</time>
      </trkpt>
      <trkpt lat="45.92285" lon="4.80685">
        <ele>171.2</ele>
        <time>2024-09-20T07:42:55Z</time>
      </trkpt>
      <trkpt lat="45.92284" lon="4.80692">
        <ele>171.2</ele>
        <time>2024-09-20T07:42:56Z</time>
      </trkpt>
      <trkpt lat="45.92283" lon="4.80698">
        <ele>171.2</ele>
        <time>2024-09-20T07:42:57Z</time>
      </trkpt>
      <trkpt lat="45.92281" lon="4.80705">
        <ele>171.2</ele>
        <time>2024-09-20T07:42:58Z</time>
      </trkpt>
      <trkpt lat="45.92279" lon="4.80711">
        <ele>171.2</ele>
        <time>2024-09-20T07:42:59Z</time>
      </trkpt>
      <trkpt lat="45.92277" lon="4.80718">
        <ele>171.2</ele>
        <time>2024-09-20T07:43:00Z</time>
      </trkpt>
      <trkpt lat="45.92276" lon="4.80724">
        <ele>171</ele>
        <time>2024-09-20T07:43:01Z</time>
      </trkpt>
      <trkpt lat="45.92274" lon="4.80731">
        <ele>171</ele>
        <time>2024-09-20T07:43:02Z</time>
      </trkpt>
      <trkpt lat="45.92272" lon="4.80737">
        <ele>171</ele>
        <time>2024-09-20T07:43:03Z</time>
      </trkpt>
      <trkpt lat="45.9227" lon="4.80743">
        <ele>171</ele>
        <time>2024-09-20T07:43:04Z</time>
      </trkpt>
      <trkpt lat="45.92268" lon="4.80749">
        <ele>171.4</ele>
        <time>2024-09-20T07:43:05Z</time>
      </trkpt>
      <trkpt lat="45.92266" lon="4.80755">
        <ele>171.2</ele>
        <time>2024-09-20T07:43:06Z</time>
      </trkpt>
      <trkpt lat="45.92264" lon="4.80761">
        <ele>171.2</ele>
        <time>2024-09-20T07:43:07Z</time>
      </trkpt>
      <trkpt lat="45.92261" lon="4.80768">
        <ele>171.2</ele>
        <time>2024-09-20T07:43:08Z</time>
      </trkpt>
      <trkpt lat="45.92259" lon="4.80774">
        <ele>171.2</ele>
        <time>2024-09-20T07:43:09Z</time>
      </trkpt>
      <trkpt lat="45.92257" lon="4.8078">
        <ele>171.2</ele>
        <time>2024-09-20T07:43:10Z</time>
      </trkpt>
      <trkpt lat="45.92255" lon="4.80786">
        <ele>171.2</ele>
        <time>2024-09-20T07:43:11Z</time>
      </trkpt>
      <trkpt lat="45.92252" lon="4.80792">
        <ele>171.2</ele>
        <time>2024-09-20T07:43:12Z</time>
      </trkpt>
      <trkpt lat="45.9225" lon="4.80798">
        <ele>171.2</ele>
        <time>2024-09-20T07:43:13Z</time>
      </trkpt>
      <trkpt lat="45.92247" lon="4.80804">
        <ele>171.2</ele>
        <time>2024-09-20T07:43:14Z</time>
      </trkpt>
      <trkpt lat="45.92244" lon="4.80809">
        <ele>171.2</ele>
        <time>2024-09-20T07:43:15Z</time>
      </trkpt>
      <trkpt lat="45.92242" lon="4.80815">
        <ele>171.2</ele>
        <time>2024-09-20T07:43:16Z</time>
      </trkpt>
      <trkpt lat="45.92239" lon="4.8082">
        <ele>171.2</ele>
        <time>2024-09-20T07:43:17Z</time>
      </trkpt>
      <trkpt lat="45.92237" lon="4.80826">
        <ele>171.2</ele>
        <time>2024-09-20T07:43:18Z</time>
      </trkpt>
      <trkpt lat="45.92234" lon="4.80832">
        <ele>171</ele>
        <time>2024-09-20T07:43:19Z</time>
      </trkpt>
      <trkpt lat="45.92231" lon="4.80837">
        <ele>171.2</ele>
        <time>2024-09-20T07:43:20Z</time>
      </trkpt>
      <trkpt lat="45.92229" lon="4.80843">
        <ele>171.2</ele>
        <time>2024-09-20T07:43:21Z</time>
      </trkpt>
      <trkpt lat="45.92226" lon="4.80847">
        <ele>171.2</ele>
        <time>2024-09-20T07:43:22Z</time>
      </trkpt>
      <trkpt lat="45.92223" lon="4.80852">
        <ele>171.2</ele>
        <time>2024-09-20T07:43:23Z</time>
      </trkpt>
      <trkpt lat="45.9222" lon="4.80856">
        <ele>171.2</ele>
        <time>2024-09-20T07:43:24Z</time>
      </trkpt>
      <trkpt lat="45.92218" lon="4.8086">
        <ele>171.2</ele>
        <time>2024-09-20T07:43:25Z</time>
      </trkpt>
      <trkpt lat="45.92215" lon="4.80864">
        <ele>171.2</ele>
        <time>2024-09-20T07:43:26Z</time>
      </trkpt>
      <trkpt lat="45.92212" lon="4.80869">
        <ele>171</ele>
        <time>2024-09-20T07:43:27Z</time>
      </trkpt>
      <trkpt lat="45.9221" lon="4.80874">
        <ele>171</ele>
        <time>2024-09-20T07:43:28Z</time>
      </trkpt>
      <trkpt lat="45.92207" lon="4.80879">
        <ele>171.2</ele>
        <time>2024-09-20T07:43:29Z</time>
      </trkpt>
      <trkpt lat="45.92204" lon="4.80885">
        <ele>171.2</ele>
        <time>2024-09-20T07:43:30Z</time>
      </trkpt>
      <trkpt lat="45.92202" lon="4.8089">
        <ele>171.2</ele>
        <time>2024-09-20T07:43:31Z</time>
      </trkpt>
      <trkpt lat="45.92199" lon="4.80895">
        <ele>171.2</ele>
        <time>2024-09-20T07:43:32Z</time>
      </trkpt>
      <trkpt lat="45.92196" lon="4.809">
        <ele>171.2</ele>
        <time>2024-09-20T07:43:33Z</time>
      </trkpt>
      <trkpt lat="45.92193" lon="4.80905">
        <ele>171.2</ele>
        <time>2024-09-20T07:43:34Z</time>
      </trkpt>
      <trkpt lat="45.9219" lon="4.80909">
        <ele>171.2</ele>
        <time>2024-09-20T07:43:35Z</time>
      </trkpt>
      <trkpt lat="45.92187" lon="4.80914">
        <ele>171.2</ele>
        <time>2024-09-20T07:43:36Z</time>
      </trkpt>
      <trkpt lat="45.92185" lon="4.80919">
        <ele>171.2</ele>
        <time>2024-09-20T07:43:37Z</time>
      </trkpt>
      <trkpt lat="45.92183" lon="4.80925">
        <ele>171.2</ele>
        <time>2024-09-20T07:43:38Z</time>
      </trkpt>
      <trkpt lat="45.92181" lon="4.8093">
        <ele>171.2</ele>
        <time>2024-09-20T07:43:39Z</time>
      </trkpt>
      <trkpt lat="45.92178" lon="4.80935">
        <ele>171.2</ele>
        <time>2024-09-20T07:43:40Z</time>
      </trkpt>
      <trkpt lat="45.92175" lon="4.80939">
        <ele>171.2</ele>
        <time>2024-09-20T07:43:41Z</time>
      </trkpt>
      <trkpt lat="45.92172" lon="4.80942">
        <ele>171.8</ele>
        <time>2024-09-20T07:43:42Z</time>
      </trkpt>
      <trkpt lat="45.92168" lon="4.80944">
        <ele>171.8</ele>
        <time>2024-09-20T07:43:43Z</time>
      </trkpt>
      <trkpt lat="45.92165" lon="4.80946">
        <ele>171.8</ele>
        <time>2024-09-20T07:43:44Z</time>
      </trkpt>
      <trkpt lat="45.92163" lon="4.8095">
        <ele>171.6</ele>
        <time>2024-09-20T07:43:45Z</time>
      </trkpt>
      <trkpt lat="45.9216" lon="4.80953">
        <ele>171.2</ele>
        <time>2024-09-20T07:43:46Z</time>
      </trkpt>
      <trkpt lat="45.92157" lon="4.80957">
        <ele>171.2</ele>
        <time>2024-09-20T07:43:47Z</time>
      </trkpt>
      <trkpt lat="45.92154" lon="4.8096">
        <ele>171.2</ele>
        <time>2024-09-20T07:43:48Z</time>
      </trkpt>
      <trkpt lat="45.92151" lon="4.80962">
        <ele>171.2</ele>
        <time>2024-09-20T07:43:49Z</time>
      </trkpt>
      <trkpt lat="45.92148" lon="4.80965">
        <ele>171.4</ele>
        <time>2024-09-20T07:43:50Z</time>
      </trkpt>
      <trkpt lat="45.92145" lon="4.80967">
        <ele>171.4</ele>
        <time>2024-09-20T07:43:51Z</time>
      </trkpt>
      <trkpt lat="45.92141" lon="4.80969">
        <ele>171.4</ele>
        <time>2024-09-20T07:43:52Z</time>
      </trkpt>
      <trkpt lat="45.92137" lon="4.80971">
        <ele>171.4</ele>
        <time>2024-09-20T07:43:53Z</time>
      </trkpt>
      <trkpt lat="45.92133" lon="4.80974">
        <ele>171.4</ele>
        <time>2024-09-20T07:43:54Z</time>
      </trkpt>
      <trkpt lat="45.9213" lon="4.80977">
        <ele>171</ele>
        <time>2024-09-20T07:43:55Z</time>
      </trkpt>
      <trkpt lat="45.92126" lon="4.80981">
        <ele>171</ele>
        <time>2024-09-20T07:43:56Z</time>
      </trkpt>
      <trkpt lat="45.92123" lon="4.80985">
        <ele>171</ele>
        <time>2024-09-20T07:43:57Z</time>
      </trkpt>
      <trkpt lat="45.92119" lon="4.80988">
        <ele>171.2</ele>
        <time>2024-09-20T07:43:58Z</time>
      </trkpt>
      <trkpt lat="45.92116" lon="4.80993">
        <ele>171.4</ele>
        <time>2024-09-20T07:43:59Z</time>
      </trkpt>
      <trkpt lat="45.92113" lon="4.80997">
        <ele>171.4</ele>
        <time>2024-09-20T07:44:00Z</time>
      </trkpt>
      <trkpt lat="45.9211" lon="4.81001">
        <ele>171.4</ele>
        <time>2024-09-20T07:44:01Z</time>
      </trkpt>
      <trkpt lat="45.92107" lon="4.81005">
        <ele>171.4</ele>
        <time>2024-09-20T07:44:02Z</time>
      </trkpt>
      <trkpt lat="45.92104" lon="4.81009">
        <ele>171.4</ele>
        <time>2024-09-20T07:44:03Z</time>
      </trkpt>
      <trkpt lat="45.921" lon="4.81013">
        <ele>171.4</ele>
        <time>2024-09-20T07:44:04Z</time>
      </trkpt>
      <trkpt lat="45.92097" lon="4.81016">
        <ele>171</ele>
        <time>2024-09-20T07:44:05Z</time>
      </trkpt>
      <trkpt lat="45.92093" lon="4.8102">
        <ele>171</ele>
        <time>2024-09-20T07:44:06Z</time>
      </trkpt>
      <trkpt lat="45.92089" lon="4.81024">
        <ele>171</ele>
        <time>2024-09-20T07:44:07Z</time>
      </trkpt>
      <trkpt lat="45.92084" lon="4.81028">
        <ele>171</ele>
        <time>2024-09-20T07:44:08Z</time>
      </trkpt>
      <trkpt lat="45.9208" lon="4.81032">
        <ele>170.6</ele>
        <time>2024-09-20T07:44:09Z</time>
      </trkpt>
      <trkpt lat="45.92076" lon="4.81036">
        <ele>170.6</ele>
        <time>2024-09-20T07:44:10Z</time>
      </trkpt>
      <trkpt lat="45.92073" lon="4.81039">
        <ele>170.6</ele>
        <time>2024-09-20T07:44:11Z</time>
      </trkpt>
      <trkpt lat="45.92069" lon="4.81043">
        <ele>170.8</ele>
        <time>2024-09-20T07:44:12Z</time>
      </trkpt>
      <trkpt lat="45.92065" lon="4.81046">
        <ele>170.8</ele>
        <time>2024-09-20T07:44:13Z</time>
      </trkpt>
      <trkpt lat="45.92062" lon="4.8105">
        <ele>170.8</ele>
        <time>2024-09-20T07:44:14Z</time>
      </trkpt>
      <trkpt lat="45.92058" lon="4.81054">
        <ele>170.8</ele>
        <time>2024-09-20T07:44:15Z</time>
      </trkpt>
      <trkpt lat="45.92054" lon="4.81058">
        <ele>170.8</ele>
        <time>2024-09-20T07:44:16Z</time>
      </trkpt>
      <trkpt lat="45.92051" lon="4.81061">
        <ele>170.8</ele>
        <time>2024-09-20T07:44:17Z</time>
      </trkpt>
      <trkpt lat="45.92048" lon="4.81065">
        <ele>170.8</ele>
        <time>2024-09-20T07:44:18Z</time>
      </trkpt>
      <trkpt lat="45.92044" lon="4.81067">
        <ele>170.8</ele>
        <time>2024-09-20T07:44:19Z</time>
      </trkpt>
      <trkpt lat="45.92041" lon="4.81071">
        <ele>170.8</ele>
        <time>2024-09-20T07:44:20Z</time>
      </trkpt>
      <trkpt lat="45.92037" lon="4.81074">
        <ele>171</ele>
        <time>2024-09-20T07:44:21Z</time>
      </trkpt>
      <trkpt lat="45.92034" lon="4.81077">
        <ele>170.8</ele>
        <time>2024-09-20T07:44:22Z</time>
      </trkpt>
      <trkpt lat="45.9203" lon="4.8108">
        <ele>170.8</ele>
        <time>2024-09-20T07:44:23Z</time>
      </trkpt>
      <trkpt lat="45.92027" lon="4.81082">
        <ele>170.8</ele>
        <time>2024-09-20T07:44:24Z</time>
      </trkpt>
      <trkpt lat="45.92023" lon="4.81084">
        <ele>170.8</ele>
        <time>2024-09-20T07:44:25Z</time>
      </trkpt>
      <trkpt lat="45.92019" lon="4.81084">
        <ele>170.8</ele>
        <time>2024-09-20T07:44:26Z</time>
      </trkpt>
      <trkpt lat="45.92014" lon="4.81086">
        <ele>170.8</ele>
        <time>2024-09-20T07:44:27Z</time>
      </trkpt>
      <trkpt lat="45.9201" lon="4.81088">
        <ele>170.8</ele>
        <time>2024-09-20T07:44:28Z</time>
      </trkpt>
      <trkpt lat="45.92007" lon="4.81091">
        <ele>170.8</ele>
        <time>2024-09-20T07:44:29Z</time>
      </trkpt>
      <trkpt lat="45.92003" lon="4.81094">
        <ele>170.8</ele>
        <time>2024-09-20T07:44:30Z</time>
      </trkpt>
      <trkpt lat="45.92" lon="4.81098">
        <ele>170.4</ele>
        <time>2024-09-20T07:44:31Z</time>
      </trkpt>
      <trkpt lat="45.91997" lon="4.81101">
        <ele>170.4</ele>
        <time>2024-09-20T07:44:32Z</time>
      </trkpt>
      <trkpt lat="45.91994" lon="4.81103">
        <ele>170.4</ele>
        <time>2024-09-20T07:44:33Z</time>
      </trkpt>
      <trkpt lat="45.91991" lon="4.81106">
        <ele>170.4</ele>
        <time>2024-09-20T07:44:34Z</time>
      </trkpt>
      <trkpt lat="45.91987" lon="4.81108">
        <ele>170.4</ele>
        <time>2024-09-20T07:44:35Z</time>
      </trkpt>
      <trkpt lat="45.91983" lon="4.8111">
        <ele>170.4</ele>
        <time>2024-09-20T07:44:36Z</time>
      </trkpt>
      <trkpt lat="45.91979" lon="4.81112">
        <ele>170.4</ele>
        <time>2024-09-20T07:44:37Z</time>
      </trkpt>
      <trkpt lat="45.91975" lon="4.81114">
        <ele>170.4</ele>
        <time>2024-09-20T07:44:38Z</time>
      </trkpt>
      <trkpt lat="45.91971" lon="4.81117">
        <ele>170.4</ele>
        <time>2024-09-20T07:44:39Z</time>
      </trkpt>
      <trkpt lat="45.91967" lon="4.8112">
        <ele>170.4</ele>
        <time>2024-09-20T07:44:40Z</time>
      </trkpt>
      <trkpt lat="45.91963" lon="4.81123">
        <ele>170.4</ele>
        <time>2024-09-20T07:44:41Z</time>
      </trkpt>
      <trkpt lat="45.91959" lon="4.81125">
        <ele>170.4</ele>
        <time>2024-09-20T07:44:42Z</time>
      </trkpt>
      <trkpt lat="45.91955" lon="4.81127">
        <ele>170.4</ele>
        <time>2024-09-20T07:44:43Z</time>
      </trkpt>
      <trkpt lat="45.91951" lon="4.8113">
        <ele>170.4</ele>
        <time>2024-09-20T07:44:44Z</time>
      </trkpt>
      <trkpt lat="45.91946" lon="4.81132">
        <ele>170.2</ele>
        <time>2024-09-20T07:44:45Z</time>
      </trkpt>
      <trkpt lat="45.91942" lon="4.81134">
        <ele>170.2</ele>
        <time>2024-09-20T07:44:46Z</time>
      </trkpt>
      <trkpt lat="45.91938" lon="4.81136">
        <ele>170.2</ele>
        <time>2024-09-20T07:44:47Z</time>
      </trkpt>
      <trkpt lat="45.91934" lon="4.81138">
        <ele>170.4</ele>
        <time>2024-09-20T07:44:48Z</time>
      </trkpt>
      <trkpt lat="45.91929" lon="4.8114">
        <ele>170.4</ele>
        <time>2024-09-20T07:44:49Z</time>
      </trkpt>
      <trkpt lat="45.91925" lon="4.81142">
        <ele>170</ele>
        <time>2024-09-20T07:44:50Z</time>
      </trkpt>
      <trkpt lat="45.91921" lon="4.81144">
        <ele>170</ele>
        <time>2024-09-20T07:44:51Z</time>
      </trkpt>
      <trkpt lat="45.91917" lon="4.81146">
        <ele>170</ele>
        <time>2024-09-20T07:44:52Z</time>
      </trkpt>
      <trkpt lat="45.91913" lon="4.81148">
        <ele>170</ele>
        <time>2024-09-20T07:44:53Z</time>
      </trkpt>
      <trkpt lat="45.9191" lon="4.8115">
        <ele>170.6</ele>
        <time>2024-09-20T07:44:54Z</time>
      </trkpt>
      <trkpt lat="45.91907" lon="4.81152">
        <ele>170.6</ele>
        <time>2024-09-20T07:44:55Z</time>
      </trkpt>
      <trkpt lat="45.91904" lon="4.81153">
        <ele>170.6</ele>
        <time>2024-09-20T07:44:56Z</time>
      </trkpt>
      <trkpt lat="45.91902" lon="4.81155">
        <ele>170.4</ele>
        <time>2024-09-20T07:44:57Z</time>
      </trkpt>
      <trkpt lat="45.91901" lon="4.81157">
        <ele>170.4</ele>
        <time>2024-09-20T07:44:58Z</time>
      </trkpt>
      <trkpt lat="45.91899" lon="4.81159">
        <ele>170.4</ele>
        <time>2024-09-20T07:44:59Z</time>
      </trkpt>
      <trkpt lat="45.91897" lon="4.81161">
        <ele>170.4</ele>
        <time>2024-09-20T07:45:00Z</time>
      </trkpt>
      <trkpt lat="45.91895" lon="4.81162">
        <ele>170.4</ele>
        <time>2024-09-20T07:45:01Z</time>
      </trkpt>
      <trkpt lat="45.91893" lon="4.81163">
        <ele>170.4</ele>
        <time>2024-09-20T07:45:02Z</time>
      </trkpt>
      <trkpt lat="45.91891" lon="4.81164">
        <ele>170.6</ele>
        <time>2024-09-20T07:45:03Z</time>
      </trkpt>
      <trkpt lat="45.91888" lon="4.81165">
        <ele>170.6</ele>
        <time>2024-09-20T07:45:04Z</time>
      </trkpt>
      <trkpt lat="45.91885" lon="4.81166">
        <ele>170.6</ele>
        <time>2024-09-20T07:45:05Z</time>
      </trkpt>
      <trkpt lat="45.91882" lon="4.81166">
        <ele>170.4</ele>
        <time>2024-09-20T07:45:06Z</time>
      </trkpt>
      <trkpt lat="45.91878" lon="4.81167">
        <ele>170.4</ele>
        <time>2024-09-20T07:45:07Z</time>
      </trkpt>
      <trkpt lat="45.91874" lon="4.81168">
        <ele>170.4</ele>
        <time>2024-09-20T07:45:08Z</time>
      </trkpt>
      <trkpt lat="45.91871" lon="4.81169">
        <ele>170.4</ele>
        <time>2024-09-20T07:45:09Z</time>
      </trkpt>
      <trkpt lat="45.91868" lon="4.8117">
        <ele>170.4</ele>
        <time>2024-09-20T07:45:10Z</time>
      </trkpt>
      <trkpt lat="45.91865" lon="4.81171">
        <ele>170.6</ele>
        <time>2024-09-20T07:45:11Z</time>
      </trkpt>
      <trkpt lat="45.91862" lon="4.81172">
        <ele>170.6</ele>
        <time>2024-09-20T07:45:12Z</time>
      </trkpt>
      <trkpt lat="45.91859" lon="4.81172">
        <ele>170.6</ele>
        <time>2024-09-20T07:45:13Z</time>
      </trkpt>
      <trkpt lat="45.91856" lon="4.81173">
        <ele>170.6</ele>
        <time>2024-09-20T07:45:14Z</time>
      </trkpt>
      <trkpt lat="45.91852" lon="4.81174">
        <ele>170.6</ele>
        <time>2024-09-20T07:45:15Z</time>
      </trkpt>
      <trkpt lat="45.91849" lon="4.81175">
        <ele>170.2</ele>
        <time>2024-09-20T07:45:16Z</time>
      </trkpt>
      <trkpt lat="45.91846" lon="4.81176">
        <ele>170.2</ele>
        <time>2024-09-20T07:45:17Z</time>
      </trkpt>
      <trkpt lat="45.91842" lon="4.81176">
        <ele>170.2</ele>
        <time>2024-09-20T07:45:18Z</time>
      </trkpt>
      <trkpt lat="45.91839" lon="4.81176">
        <ele>170.8</ele>
        <time>2024-09-20T07:45:19Z</time>
      </trkpt>
      <trkpt lat="45.91835" lon="4.81177">
        <ele>170.4</ele>
        <time>2024-09-20T07:45:20Z</time>
      </trkpt>
      <trkpt lat="45.91831" lon="4.81177">
        <ele>170.4</ele>
        <time>2024-09-20T07:45:21Z</time>
      </trkpt>
      <trkpt lat="45.91827" lon="4.81178">
        <ele>170.4</ele>
        <time>2024-09-20T07:45:22Z</time>
      </trkpt>
      <trkpt lat="45.91823" lon="4.81179">
        <ele>170.4</ele>
        <time>2024-09-20T07:45:23Z</time>
      </trkpt>
      <trkpt lat="45.91819" lon="4.8118">
        <ele>170</ele>
        <time>2024-09-20T07:45:24Z</time>
      </trkpt>
      <trkpt lat="45.91815" lon="4.8118">
        <ele>170</ele>
        <time>2024-09-20T07:45:25Z</time>
      </trkpt>
      <trkpt lat="45.91811" lon="4.81181">
        <ele>170</ele>
        <time>2024-09-20T07:45:26Z</time>
      </trkpt>
      <trkpt lat="45.91806" lon="4.81181">
        <ele>170</ele>
        <time>2024-09-20T07:45:27Z</time>
      </trkpt>
      <trkpt lat="45.91801" lon="4.81181">
        <ele>170</ele>
        <time>2024-09-20T07:45:28Z</time>
      </trkpt>
      <trkpt lat="45.91797" lon="4.81182">
        <ele>170</ele>
        <time>2024-09-20T07:45:29Z</time>
      </trkpt>
      <trkpt lat="45.91793" lon="4.81183">
        <ele>169.8</ele>
        <time>2024-09-20T07:45:30Z</time>
      </trkpt>
      <trkpt lat="45.91788" lon="4.81183">
        <ele>169.8</ele>
        <time>2024-09-20T07:45:31Z</time>
      </trkpt>
      <trkpt lat="45.91784" lon="4.81184">
        <ele>169.8</ele>
        <time>2024-09-20T07:45:32Z</time>
      </trkpt>
      <trkpt lat="45.9178" lon="4.81185">
        <ele>169.8</ele>
        <time>2024-09-20T07:45:33Z</time>
      </trkpt>
      <trkpt lat="45.91775" lon="4.81186">
        <ele>170.4</ele>
        <time>2024-09-20T07:45:34Z</time>
      </trkpt>
      <trkpt lat="45.91771" lon="4.81188">
        <ele>170.4</ele>
        <time>2024-09-20T07:45:35Z</time>
      </trkpt>
      <trkpt lat="45.91767" lon="4.81189">
        <ele>170.4</ele>
        <time>2024-09-20T07:45:36Z</time>
      </trkpt>
      <trkpt lat="45.91763" lon="4.81189">
        <ele>170.4</ele>
        <time>2024-09-20T07:45:37Z</time>
      </trkpt>
      <trkpt lat="45.91759" lon="4.8119">
        <ele>170.6</ele>
        <time>2024-09-20T07:45:38Z</time>
      </trkpt>
      <trkpt lat="45.91755" lon="4.81192">
        <ele>170.6</ele>
        <time>2024-09-20T07:45:39Z</time>
      </trkpt>
      <trkpt lat="45.91751" lon="4.81192">
        <ele>170.6</ele>
        <time>2024-09-20T07:45:40Z</time>
      </trkpt>
      <trkpt lat="45.91747" lon="4.81194">
        <ele>170.6</ele>
        <time>2024-09-20T07:45:41Z</time>
      </trkpt>
      <trkpt lat="45.91742" lon="4.81195">
        <ele>170.6</ele>
        <time>2024-09-20T07:45:42Z</time>
      </trkpt>
      <trkpt lat="45.91738" lon="4.81196">
        <ele>170</ele>
        <time>2024-09-20T07:45:43Z</time>
      </trkpt>
      <trkpt lat="45.91734" lon="4.81197">
        <ele>170</ele>
        <time>2024-09-20T07:45:44Z</time>
      </trkpt>
      <trkpt lat="45.9173" lon="4.81198">
        <ele>170</ele>
        <time>2024-09-20T07:45:45Z</time>
      </trkpt>
      <trkpt lat="45.91725" lon="4.81198">
        <ele>171</ele>
        <time>2024-09-20T07:45:46Z</time>
      </trkpt>
      <trkpt lat="45.91721" lon="4.81199">
        <ele>170.2</ele>
        <time>2024-09-20T07:45:47Z</time>
      </trkpt>
      <trkpt lat="45.91717" lon="4.812">
        <ele>170.2</ele>
        <time>2024-09-20T07:45:48Z</time>
      </trkpt>
      <trkpt lat="45.91713" lon="4.812">
        <ele>170.2</ele>
        <time>2024-09-20T07:45:49Z</time>
      </trkpt>
      <trkpt lat="45.91709" lon="4.81201">
        <ele>170.2</ele>
        <time>2024-09-20T07:45:50Z</time>
      </trkpt>
      <trkpt lat="45.91705" lon="4.81202">
        <ele>170.2</ele>
        <time>2024-09-20T07:45:51Z</time>
      </trkpt>
      <trkpt lat="45.91701" lon="4.81203">
        <ele>170.6</ele>
        <time>2024-09-20T07:45:52Z</time>
      </trkpt>
      <trkpt lat="45.91697" lon="4.81204">
        <ele>170.6</ele>
        <time>2024-09-20T07:45:53Z</time>
      </trkpt>
      <trkpt lat="45.91694" lon="4.81204">
        <ele>170.6</ele>
        <time>2024-09-20T07:45:54Z</time>
      </trkpt>
      <trkpt lat="45.9169" lon="4.81205">
        <ele>170.6</ele>
        <time>2024-09-20T07:45:55Z</time>
      </trkpt>
      <trkpt lat="45.91685" lon="4.81205">
        <ele>170.2</ele>
        <time>2024-09-20T07:45:56Z</time>
      </trkpt>
      <trkpt lat="45.91681" lon="4.81205">
        <ele>170.2</ele>
        <time>2024-09-20T07:45:57Z</time>
      </trkpt>
      <trkpt lat="45.91677" lon="4.81205">
        <ele>170.2</ele>
        <time>2024-09-20T07:45:58Z</time>
      </trkpt>
      <trkpt lat="45.91673" lon="4.81205">
        <ele>171.2</ele>
        <time>2024-09-20T07:45:59Z</time>
      </trkpt>
      <trkpt lat="45.91668" lon="4.81205">
        <ele>170.4</ele>
        <time>2024-09-20T07:46:00Z</time>
      </trkpt>
      <trkpt lat="45.91664" lon="4.81205">
        <ele>170.4</ele>
        <time>2024-09-20T07:46:01Z</time>
      </trkpt>
      <trkpt lat="45.9166" lon="4.81205">
        <ele>170.4</ele>
        <time>2024-09-20T07:46:02Z</time>
      </trkpt>
      <trkpt lat="45.91656" lon="4.81205">
        <ele>170.4</ele>
        <time>2024-09-20T07:46:03Z</time>
      </trkpt>
      <trkpt lat="45.91651" lon="4.81205">
        <ele>170.4</ele>
        <time>2024-09-20T07:46:04Z</time>
      </trkpt>
      <trkpt lat="45.91647" lon="4.81205">
        <ele>170.4</ele>
        <time>2024-09-20T07:46:05Z</time>
      </trkpt>
      <trkpt lat="45.91643" lon="4.81205">
        <ele>170.6</ele>
        <time>2024-09-20T07:46:06Z</time>
      </trkpt>
      <trkpt lat="45.91639" lon="4.81206">
        <ele>170.6</ele>
        <time>2024-09-20T07:46:07Z</time>
      </trkpt>
      <trkpt lat="45.91635" lon="4.81206">
        <ele>170.6</ele>
        <time>2024-09-20T07:46:08Z</time>
      </trkpt>
      <trkpt lat="45.91631" lon="4.81206">
        <ele>170</ele>
        <time>2024-09-20T07:46:09Z</time>
      </trkpt>
      <trkpt lat="45.91627" lon="4.81206">
        <ele>170</ele>
        <time>2024-09-20T07:46:10Z</time>
      </trkpt>
      <trkpt lat="45.91623" lon="4.81206">
        <ele>170</ele>
        <time>2024-09-20T07:46:11Z</time>
      </trkpt>
      <trkpt lat="45.91618" lon="4.81206">
        <ele>170</ele>
        <time>2024-09-20T07:46:12Z</time>
      </trkpt>
      <trkpt lat="45.91614" lon="4.81207">
        <ele>171</ele>
        <time>2024-09-20T07:46:13Z</time>
      </trkpt>
      <trkpt lat="45.9161" lon="4.81208">
        <ele>170.2</ele>
        <time>2024-09-20T07:46:14Z</time>
      </trkpt>
      <trkpt lat="45.91606" lon="4.81208">
        <ele>170.2</ele>
        <time>2024-09-20T07:46:15Z</time>
      </trkpt>
      <trkpt lat="45.91601" lon="4.81209">
        <ele>170.2</ele>
        <time>2024-09-20T07:46:16Z</time>
      </trkpt>
      <trkpt lat="45.91597" lon="4.8121">
        <ele>170.2</ele>
        <time>2024-09-20T07:46:17Z</time>
      </trkpt>
      <trkpt lat="45.91593" lon="4.8121">
        <ele>170.2</ele>
        <time>2024-09-20T07:46:18Z</time>
      </trkpt>
      <trkpt lat="45.91588" lon="4.8121">
        <ele>170.8</ele>
        <time>2024-09-20T07:46:19Z</time>
      </trkpt>
      <trkpt lat="45.91584" lon="4.8121">
        <ele>170.8</ele>
        <time>2024-09-20T07:46:20Z</time>
      </trkpt>
      <trkpt lat="45.9158" lon="4.81211">
        <ele>170.8</ele>
        <time>2024-09-20T07:46:21Z</time>
      </trkpt>
      <trkpt lat="45.91576" lon="4.81211">
        <ele>170.8</ele>
        <time>2024-09-20T07:46:22Z</time>
      </trkpt>
      <trkpt lat="45.91572" lon="4.81211">
        <ele>170.6</ele>
        <time>2024-09-20T07:46:23Z</time>
      </trkpt>
      <trkpt lat="45.91568" lon="4.81211">
        <ele>170.6</ele>
        <time>2024-09-20T07:46:24Z</time>
      </trkpt>
      <trkpt lat="45.91564" lon="4.81211">
        <ele>170.6</ele>
        <time>2024-09-20T07:46:25Z</time>
      </trkpt>
      <trkpt lat="45.9156" lon="4.81211">
        <ele>170.6</ele>
        <time>2024-09-20T07:46:26Z</time>
      </trkpt>
      <trkpt lat="45.91556" lon="4.81211">
        <ele>170.4</ele>
        <time>2024-09-20T07:46:27Z</time>
      </trkpt>
      <trkpt lat="45.91552" lon="4.81211">
        <ele>170.4</ele>
        <time>2024-09-20T07:46:28Z</time>
      </trkpt>
      <trkpt lat="45.91548" lon="4.81211">
        <ele>170.4</ele>
        <time>2024-09-20T07:46:29Z</time>
      </trkpt>
      <trkpt lat="45.91544" lon="4.81211">
        <ele>170.4</ele>
        <time>2024-09-20T07:46:30Z</time>
      </trkpt>
      <trkpt lat="45.9154" lon="4.81212">
        <ele>170.4</ele>
        <time>2024-09-20T07:46:31Z</time>
      </trkpt>
      <trkpt lat="45.91536" lon="4.81212">
        <ele>170.2</ele>
        <time>2024-09-20T07:46:32Z</time>
      </trkpt>
      <trkpt lat="45.91532" lon="4.81212">
        <ele>170.2</ele>
        <time>2024-09-20T07:46:33Z</time>
      </trkpt>
      <trkpt lat="45.91528" lon="4.81213">
        <ele>170.2</ele>
        <time>2024-09-20T07:46:34Z</time>
      </trkpt>
      <trkpt lat="45.91524" lon="4.81213">
        <ele>170.2</ele>
        <time>2024-09-20T07:46:35Z</time>
      </trkpt>
      <trkpt lat="45.9152" lon="4.81213">
        <ele>170.2</ele>
        <time>2024-09-20T07:46:36Z</time>
      </trkpt>
      <trkpt lat="45.91516" lon="4.81213">
        <ele>170.2</ele>
        <time>2024-09-20T07:46:37Z</time>
      </trkpt>
      <trkpt lat="45.91512" lon="4.81214">
        <ele>170.2</ele>
        <time>2024-09-20T07:46:38Z</time>
      </trkpt>
      <trkpt lat="45.91507" lon="4.81214">
        <ele>170.2</ele>
        <time>2024-09-20T07:46:39Z</time>
      </trkpt>
      <trkpt lat="45.91503" lon="4.81214">
        <ele>170.2</ele>
        <time>2024-09-20T07:46:40Z</time>
      </trkpt>
      <trkpt lat="45.91499" lon="4.81215">
        <ele>170.6</ele>
        <time>2024-09-20T07:46:41Z</time>
      </trkpt>
      <trkpt lat="45.91494" lon="4.81215">
        <ele>170.6</ele>
        <time>2024-09-20T07:46:42Z</time>
      </trkpt>
      <trkpt lat="45.9149" lon="4.81215">
        <ele>170.6</ele>
        <time>2024-09-20T07:46:43Z</time>
      </trkpt>
      <trkpt lat="45.91486" lon="4.81215">
        <ele>170.6</ele>
        <time>2024-09-20T07:46:44Z</time>
      </trkpt>
      <trkpt lat="45.91482" lon="4.81215">
        <ele>170.6</ele>
        <time>2024-09-20T07:46:45Z</time>
      </trkpt>
      <trkpt lat="45.91478" lon="4.81215">
        <ele>170.6</ele>
        <time>2024-09-20T07:46:46Z</time>
      </trkpt>
      <trkpt lat="45.91474" lon="4.81215">
        <ele>170.6</ele>
        <time>2024-09-20T07:46:47Z</time>
      </trkpt>
      <trkpt lat="45.91471" lon="4.81215">
        <ele>170.6</ele>
        <time>2024-09-20T07:46:48Z</time>
      </trkpt>
      <trkpt lat="45.91467" lon="4.81215">
        <ele>170.2</ele>
        <time>2024-09-20T07:46:49Z</time>
      </trkpt>
      <trkpt lat="45.91463" lon="4.81214">
        <ele>170.2</ele>
        <time>2024-09-20T07:46:50Z</time>
      </trkpt>
      <trkpt lat="45.91459" lon="4.81213">
        <ele>170.2</ele>
        <time>2024-09-20T07:46:51Z</time>
      </trkpt>
      <trkpt lat="45.91455" lon="4.81212">
        <ele>170.2</ele>
        <time>2024-09-20T07:46:52Z</time>
      </trkpt>
      <trkpt lat="45.91451" lon="4.81211">
        <ele>170.2</ele>
        <time>2024-09-20T07:46:53Z</time>
      </trkpt>
      <trkpt lat="45.91448" lon="4.81209">
        <ele>170.6</ele>
        <time>2024-09-20T07:46:54Z</time>
      </trkpt>
      <trkpt lat="45.91444" lon="4.81206">
        <ele>169.4</ele>
        <time>2024-09-20T07:46:55Z</time>
      </trkpt>
      <trkpt lat="45.9144" lon="4.81204">
        <ele>169.4</ele>
        <time>2024-09-20T07:46:56Z</time>
      </trkpt>
      <trkpt lat="45.91436" lon="4.81202">
        <ele>169.4</ele>
        <time>2024-09-20T07:46:57Z</time>
      </trkpt>
      <trkpt lat="45.91433" lon="4.81199">
        <ele>170.4</ele>
        <time>2024-09-20T07:46:58Z</time>
      </trkpt>
      <trkpt lat="45.91429" lon="4.81196">
        <ele>171.4</ele>
        <time>2024-09-20T07:46:59Z</time>
      </trkpt>
      <trkpt lat="45.91426" lon="4.81193">
        <ele>171.4</ele>
        <time>2024-09-20T07:47:00Z</time>
      </trkpt>
      <trkpt lat="45.91422" lon="4.8119">
        <ele>171.4</ele>
        <time>2024-09-20T07:47:01Z</time>
      </trkpt>
      <trkpt lat="45.91419" lon="4.81187">
        <ele>170.8</ele>
        <time>2024-09-20T07:47:02Z</time>
      </trkpt>
      <trkpt lat="45.91415" lon="4.81184">
        <ele>170.8</ele>
        <time>2024-09-20T07:47:03Z</time>
      </trkpt>
      <trkpt lat="45.91411" lon="4.81182">
        <ele>170.8</ele>
        <time>2024-09-20T07:47:04Z</time>
      </trkpt>
      <trkpt lat="45.91407" lon="4.81179">
        <ele>170.8</ele>
        <time>2024-09-20T07:47:05Z</time>
      </trkpt>
      <trkpt lat="45.91404" lon="4.81177">
        <ele>170.8</ele>
        <time>2024-09-20T07:47:06Z</time>
      </trkpt>
      <trkpt lat="45.914" lon="4.81175">
        <ele>170.8</ele>
        <time>2024-09-20T07:47:07Z</time>
      </trkpt>
      <trkpt lat="45.91396" lon="4.81173">
        <ele>171</ele>
        <time>2024-09-20T07:47:08Z</time>
      </trkpt>
      <trkpt lat="45.91392" lon="4.81171">
        <ele>171</ele>
        <time>2024-09-20T07:47:09Z</time>
      </trkpt>
      <trkpt lat="45.91388" lon="4.81169">
        <ele>171</ele>
        <time>2024-09-20T07:47:10Z</time>
      </trkpt>
      <trkpt lat="45.91384" lon="4.81167">
        <ele>171</ele>
        <time>2024-09-20T07:47:11Z</time>
      </trkpt>
      <trkpt lat="45.91379" lon="4.81166">
        <ele>170.6</ele>
        <time>2024-09-20T07:47:12Z</time>
      </trkpt>
      <trkpt lat="45.91375" lon="4.81164">
        <ele>170.6</ele>
        <time>2024-09-20T07:47:13Z</time>
      </trkpt>
      <trkpt lat="45.91371" lon="4.81163">
        <ele>170.6</ele>
        <time>2024-09-20T07:47:14Z</time>
      </trkpt>
      <trkpt lat="45.91367" lon="4.81161">
        <ele>170.6</ele>
        <time>2024-09-20T07:47:15Z</time>
      </trkpt>
      <trkpt lat="45.91362" lon="4.8116">
        <ele>170.6</ele>
        <time>2024-09-20T07:47:16Z</time>
      </trkpt>
      <trkpt lat="45.91358" lon="4.8116">
        <ele>170.8</ele>
        <time>2024-09-20T07:47:17Z</time>
      </trkpt>
      <trkpt lat="45.91354" lon="4.81159">
        <ele>170.8</ele>
        <time>2024-09-20T07:47:18Z</time>
      </trkpt>
      <trkpt lat="45.9135" lon="4.8116">
        <ele>170.8</ele>
        <time>2024-09-20T07:47:19Z</time>
      </trkpt>
      <trkpt lat="45.91345" lon="4.8116">
        <ele>170.8</ele>
        <time>2024-09-20T07:47:20Z</time>
      </trkpt>
      <trkpt lat="45.91341" lon="4.8116">
        <ele>170.8</ele>
        <time>2024-09-20T07:47:21Z</time>
      </trkpt>
      <trkpt lat="45.91337" lon="4.8116">
        <ele>170.8</ele>
        <time>2024-09-20T07:47:22Z</time>
      </trkpt>
      <trkpt lat="45.91333" lon="4.81161">
        <ele>170.8</ele>
        <time>2024-09-20T07:47:23Z</time>
      </trkpt>
      <trkpt lat="45.91329" lon="4.81162">
        <ele>170.8</ele>
        <time>2024-09-20T07:47:24Z</time>
      </trkpt>
      <trkpt lat="45.91325" lon="4.81162">
        <ele>170.8</ele>
        <time>2024-09-20T07:47:25Z</time>
      </trkpt>
      <trkpt lat="45.91321" lon="4.81162">
        <ele>170.8</ele>
        <time>2024-09-20T07:47:26Z</time>
      </trkpt>
      <trkpt lat="45.91317" lon="4.81162">
        <ele>170.8</ele>
        <time>2024-09-20T07:47:27Z</time>
      </trkpt>
      <trkpt lat="45.91312" lon="4.81162">
        <ele>170.8</ele>
        <time>2024-09-20T07:47:28Z</time>
      </trkpt>
      <trkpt lat="45.91308" lon="4.81161">
        <ele>170.8</ele>
        <time>2024-09-20T07:47:29Z</time>
      </trkpt>
      <trkpt lat="45.91304" lon="4.81161">
        <ele>170.8</ele>
        <time>2024-09-20T07:47:30Z</time>
      </trkpt>
      <trkpt lat="45.913" lon="4.8116">
        <ele>171</ele>
        <time>2024-09-20T07:47:31Z</time>
      </trkpt>
      <trkpt lat="45.91296" lon="4.8116">
        <ele>171</ele>
        <time>2024-09-20T07:47:32Z</time>
      </trkpt>
      <trkpt lat="45.91292" lon="4.81159">
        <ele>171</ele>
        <time>2024-09-20T07:47:33Z</time>
      </trkpt>
      <trkpt lat="45.91287" lon="4.81159">
        <ele>170.6</ele>
        <time>2024-09-20T07:47:34Z</time>
      </trkpt>
      <trkpt lat="45.91283" lon="4.81158">
        <ele>170.6</ele>
        <time>2024-09-20T07:47:35Z</time>
      </trkpt>
      <trkpt lat="45.91279" lon="4.81158">
        <ele>170.6</ele>
        <time>2024-09-20T07:47:36Z</time>
      </trkpt>
      <trkpt lat="45.91275" lon="4.81158">
        <ele>170.6</ele>
        <time>2024-09-20T07:47:37Z</time>
      </trkpt>
      <trkpt lat="45.9127" lon="4.81158">
        <ele>170.6</ele>
        <time>2024-09-20T07:47:38Z</time>
      </trkpt>
      <trkpt lat="45.91266" lon="4.81158">
        <ele>170.6</ele>
        <time>2024-09-20T07:47:39Z</time>
      </trkpt>
      <trkpt lat="45.91262" lon="4.81158">
        <ele>171</ele>
        <time>2024-09-20T07:47:40Z</time>
      </trkpt>
      <trkpt lat="45.91258" lon="4.81158">
        <ele>171</ele>
        <time>2024-09-20T07:47:41Z</time>
      </trkpt>
      <trkpt lat="45.91254" lon="4.81158">
        <ele>171</ele>
        <time>2024-09-20T07:47:42Z</time>
      </trkpt>
      <trkpt lat="45.9125" lon="4.81159">
        <ele>170.8</ele>
        <time>2024-09-20T07:47:43Z</time>
      </trkpt>
      <trkpt lat="45.91246" lon="4.81159">
        <ele>171</ele>
        <time>2024-09-20T07:47:44Z</time>
      </trkpt>
      <trkpt lat="45.91242" lon="4.81159">
        <ele>171</ele>
        <time>2024-09-20T07:47:45Z</time>
      </trkpt>
      <trkpt lat="45.91238" lon="4.81159">
        <ele>171</ele>
        <time>2024-09-20T07:47:46Z</time>
      </trkpt>
      <trkpt lat="45.91234" lon="4.81159">
        <ele>171</ele>
        <time>2024-09-20T07:47:47Z</time>
      </trkpt>
      <trkpt lat="45.9123" lon="4.81159">
        <ele>170.8</ele>
        <time>2024-09-20T07:47:48Z</time>
      </trkpt>
      <trkpt lat="45.91226" lon="4.8116">
        <ele>170.8</ele>
        <time>2024-09-20T07:47:49Z</time>
      </trkpt>
      <trkpt lat="45.91223" lon="4.8116">
        <ele>170.8</ele>
        <time>2024-09-20T07:47:50Z</time>
      </trkpt>
      <trkpt lat="45.91219" lon="4.8116">
        <ele>170.8</ele>
        <time>2024-09-20T07:47:51Z</time>
      </trkpt>
      <trkpt lat="45.91215" lon="4.8116">
        <ele>170.8</ele>
        <time>2024-09-20T07:47:52Z</time>
      </trkpt>
      <trkpt lat="45.91211" lon="4.8116">
        <ele>170.8</ele>
        <time>2024-09-20T07:47:53Z</time>
      </trkpt>
      <trkpt lat="45.91207" lon="4.81161">
        <ele>170.8</ele>
        <time>2024-09-20T07:47:54Z</time>
      </trkpt>
      <trkpt lat="45.91203" lon="4.81161">
        <ele>170.8</ele>
        <time>2024-09-20T07:47:55Z</time>
      </trkpt>
      <trkpt lat="45.91198" lon="4.81162">
        <ele>170.8</ele>
        <time>2024-09-20T07:47:56Z</time>
      </trkpt>
      <trkpt lat="45.91194" lon="4.81162">
        <ele>171</ele>
        <time>2024-09-20T07:47:57Z</time>
      </trkpt>
      <trkpt lat="45.9119" lon="4.81162">
        <ele>171</ele>
        <time>2024-09-20T07:47:58Z</time>
      </trkpt>
      <trkpt lat="45.91185" lon="4.81163">
        <ele>171</ele>
        <time>2024-09-20T07:47:59Z</time>
      </trkpt>
      <trkpt lat="45.91181" lon="4.81164">
        <ele>171</ele>
        <time>2024-09-20T07:48:00Z</time>
      </trkpt>
      <trkpt lat="45.91177" lon="4.81164">
        <ele>170.8</ele>
        <time>2024-09-20T07:48:01Z</time>
      </trkpt>
      <trkpt lat="45.91172" lon="4.81165">
        <ele>170.8</ele>
        <time>2024-09-20T07:48:02Z</time>
      </trkpt>
      <trkpt lat="45.91168" lon="4.81165">
        <ele>170.8</ele>
        <time>2024-09-20T07:48:03Z</time>
      </trkpt>
      <trkpt lat="45.91164" lon="4.81166">
        <ele>170.8</ele>
        <time>2024-09-20T07:48:04Z</time>
      </trkpt>
      <trkpt lat="45.91159" lon="4.81166">
        <ele>170.8</ele>
        <time>2024-09-20T07:48:05Z</time>
      </trkpt>
      <trkpt lat="45.91155" lon="4.81167">
        <ele>170.8</ele>
        <time>2024-09-20T07:48:06Z</time>
      </trkpt>
      <trkpt lat="45.9115" lon="4.81167">
        <ele>170.8</ele>
        <time>2024-09-20T07:48:07Z</time>
      </trkpt>
      <trkpt lat="45.91146" lon="4.81168">
        <ele>170.8</ele>
        <time>2024-09-20T07:48:08Z</time>
      </trkpt>
      <trkpt lat="45.91141" lon="4.81168">
        <ele>170.8</ele>
        <time>2024-09-20T07:48:09Z</time>
      </trkpt>
      <trkpt lat="45.91137" lon="4.81169">
        <ele>170.8</ele>
        <time>2024-09-20T07:48:10Z</time>
      </trkpt>
      <trkpt lat="45.91132" lon="4.81169">
        <ele>170.8</ele>
        <time>2024-09-20T07:48:11Z</time>
      </trkpt>
      <trkpt lat="45.91128" lon="4.8117">
        <ele>170.8</ele>
        <time>2024-09-20T07:48:12Z</time>
      </trkpt>
      <trkpt lat="45.91124" lon="4.8117">
        <ele>170.8</ele>
        <time>2024-09-20T07:48:13Z</time>
      </trkpt>
      <trkpt lat="45.91119" lon="4.81171">
        <ele>171</ele>
        <time>2024-09-20T07:48:14Z</time>
      </trkpt>
      <trkpt lat="45.91115" lon="4.81171">
        <ele>171</ele>
        <time>2024-09-20T07:48:15Z</time>
      </trkpt>
      <trkpt lat="45.9111" lon="4.81171">
        <ele>171</ele>
        <time>2024-09-20T07:48:16Z</time>
      </trkpt>
      <trkpt lat="45.91106" lon="4.81171">
        <ele>171</ele>
        <time>2024-09-20T07:48:17Z</time>
      </trkpt>
      <trkpt lat="45.91101" lon="4.81172">
        <ele>171</ele>
        <time>2024-09-20T07:48:18Z</time>
      </trkpt>
      <trkpt lat="45.91096" lon="4.81172">
        <ele>170.8</ele>
        <time>2024-09-20T07:48:19Z</time>
      </trkpt>
      <trkpt lat="45.91091" lon="4.81172">
        <ele>171</ele>
        <time>2024-09-20T07:48:20Z</time>
      </trkpt>
      <trkpt lat="45.91087" lon="4.81173">
        <ele>171</ele>
        <time>2024-09-20T07:48:21Z</time>
      </trkpt>
      <trkpt lat="45.91082" lon="4.81173">
        <ele>171</ele>
        <time>2024-09-20T07:48:22Z</time>
      </trkpt>
      <trkpt lat="45.91077" lon="4.81174">
        <ele>171</ele>
        <time>2024-09-20T07:48:23Z</time>
      </trkpt>
      <trkpt lat="45.91073" lon="4.81175">
        <ele>170.8</ele>
        <time>2024-09-20T07:48:24Z</time>
      </trkpt>
      <trkpt lat="45.91068" lon="4.81177">
        <ele>170.8</ele>
        <time>2024-09-20T07:48:25Z</time>
      </trkpt>
      <trkpt lat="45.91064" lon="4.81179">
        <ele>170.8</ele>
        <time>2024-09-20T07:48:26Z</time>
      </trkpt>
      <trkpt lat="45.9106" lon="4.81181">
        <ele>170.8</ele>
        <time>2024-09-20T07:48:27Z</time>
      </trkpt>
      <trkpt lat="45.91055" lon="4.81183">
        <ele>170.8</ele>
        <time>2024-09-20T07:48:28Z</time>
      </trkpt>
      <trkpt lat="45.91051" lon="4.81186">
        <ele>170.8</ele>
        <time>2024-09-20T07:48:29Z</time>
      </trkpt>
      <trkpt lat="45.91048" lon="4.81189">
        <ele>170.8</ele>
        <time>2024-09-20T07:48:30Z</time>
      </trkpt>
      <trkpt lat="45.91044" lon="4.81192">
        <ele>170.8</ele>
        <time>2024-09-20T07:48:31Z</time>
      </trkpt>
      <trkpt lat="45.9104" lon="4.81196">
        <ele>170.8</ele>
        <time>2024-09-20T07:48:32Z</time>
      </trkpt>
      <trkpt lat="45.91037" lon="4.812">
        <ele>171</ele>
        <time>2024-09-20T07:48:33Z</time>
      </trkpt>
      <trkpt lat="45.91034" lon="4.81205">
        <ele>171</ele>
        <time>2024-09-20T07:48:34Z</time>
      </trkpt>
      <trkpt lat="45.91031" lon="4.81209">
        <ele>171</ele>
        <time>2024-09-20T07:48:35Z</time>
      </trkpt>
      <trkpt lat="45.91029" lon="4.81214">
        <ele>170.6</ele>
        <time>2024-09-20T07:48:36Z</time>
      </trkpt>
      <trkpt lat="45.91026" lon="4.81219">
        <ele>170.4</ele>
        <time>2024-09-20T07:48:37Z</time>
      </trkpt>
      <trkpt lat="45.91022" lon="4.81223">
        <ele>170.4</ele>
        <time>2024-09-20T07:48:38Z</time>
      </trkpt>
      <trkpt lat="45.91019" lon="4.81228">
        <ele>170.4</ele>
        <time>2024-09-20T07:48:39Z</time>
      </trkpt>
      <trkpt lat="45.91015" lon="4.81232">
        <ele>170.4</ele>
        <time>2024-09-20T07:48:40Z</time>
      </trkpt>
      <trkpt lat="45.91012" lon="4.81235">
        <ele>170.4</ele>
        <time>2024-09-20T07:48:41Z</time>
      </trkpt>
      <trkpt lat="45.91008" lon="4.81239">
        <ele>170.8</ele>
        <time>2024-09-20T07:48:42Z</time>
      </trkpt>
      <trkpt lat="45.91003" lon="4.81242">
        <ele>170.8</ele>
        <time>2024-09-20T07:48:43Z</time>
      </trkpt>
      <trkpt lat="45.90999" lon="4.81243">
        <ele>170.8</ele>
        <time>2024-09-20T07:48:44Z</time>
      </trkpt>
      <trkpt lat="45.90994" lon="4.81244">
        <ele>170.8</ele>
        <time>2024-09-20T07:48:45Z</time>
      </trkpt>
      <trkpt lat="45.9099" lon="4.81244">
        <ele>170.8</ele>
        <time>2024-09-20T07:48:46Z</time>
      </trkpt>
      <trkpt lat="45.90986" lon="4.81244">
        <ele>170.6</ele>
        <time>2024-09-20T07:48:47Z</time>
      </trkpt>
      <trkpt lat="45.90982" lon="4.81243">
        <ele>170.6</ele>
        <time>2024-09-20T07:48:48Z</time>
      </trkpt>
      <trkpt lat="45.90978" lon="4.81242">
        <ele>170.6</ele>
        <time>2024-09-20T07:48:49Z</time>
      </trkpt>
      <trkpt lat="45.90973" lon="4.81241">
        <ele>170.6</ele>
        <time>2024-09-20T07:48:50Z</time>
      </trkpt>
      <trkpt lat="45.90969" lon="4.8124">
        <ele>170.4</ele>
        <time>2024-09-20T07:48:51Z</time>
      </trkpt>
      <trkpt lat="45.90964" lon="4.81239">
        <ele>170.4</ele>
        <time>2024-09-20T07:48:52Z</time>
      </trkpt>
      <trkpt lat="45.9096" lon="4.81238">
        <ele>170.4</ele>
        <time>2024-09-20T07:48:53Z</time>
      </trkpt>
      <trkpt lat="45.90956" lon="4.81237">
        <ele>170.4</ele>
        <time>2024-09-20T07:48:54Z</time>
      </trkpt>
      <trkpt lat="45.90952" lon="4.81237">
        <ele>170.4</ele>
        <time>2024-09-20T07:48:55Z</time>
      </trkpt>
      <trkpt lat="45.90947" lon="4.81236">
        <ele>170.4</ele>
        <time>2024-09-20T07:48:56Z</time>
      </trkpt>
      <trkpt lat="45.90943" lon="4.81235">
        <ele>170.4</ele>
        <time>2024-09-20T07:48:57Z</time>
      </trkpt>
      <trkpt lat="45.90938" lon="4.81234">
        <ele>170.4</ele>
        <time>2024-09-20T07:48:58Z</time>
      </trkpt>
      <trkpt lat="45.90934" lon="4.81233">
        <ele>170.4</ele>
        <time>2024-09-20T07:48:59Z</time>
      </trkpt>
      <trkpt lat="45.90929" lon="4.81232">
        <ele>170.4</ele>
        <time>2024-09-20T07:49:00Z</time>
      </trkpt>
      <trkpt lat="45.90925" lon="4.81231">
        <ele>170.4</ele>
        <time>2024-09-20T07:49:01Z</time>
      </trkpt>
      <trkpt lat="45.90921" lon="4.8123">
        <ele>170.4</ele>
        <time>2024-09-20T07:49:02Z</time>
      </trkpt>
      <trkpt lat="45.90916" lon="4.81229">
        <ele>170.4</ele>
        <time>2024-09-20T07:49:03Z</time>
      </trkpt>
      <trkpt lat="45.90912" lon="4.81228">
        <ele>170.2</ele>
        <time>2024-09-20T07:49:04Z</time>
      </trkpt>
      <trkpt lat="45.90907" lon="4.81227">
        <ele>170.8</ele>
        <time>2024-09-20T07:49:05Z</time>
      </trkpt>
      <trkpt lat="45.90903" lon="4.81226">
        <ele>170.8</ele>
        <time>2024-09-20T07:49:06Z</time>
      </trkpt>
      <trkpt lat="45.90898" lon="4.81225">
        <ele>170.8</ele>
        <time>2024-09-20T07:49:07Z</time>
      </trkpt>
      <trkpt lat="45.90894" lon="4.81224">
        <ele>170.2</ele>
        <time>2024-09-20T07:49:08Z</time>
      </trkpt>
      <trkpt lat="45.90889" lon="4.81223">
        <ele>170.6</ele>
        <time>2024-09-20T07:49:09Z</time>
      </trkpt>
      <trkpt lat="45.90885" lon="4.81221">
        <ele>170.6</ele>
        <time>2024-09-20T07:49:10Z</time>
      </trkpt>
      <trkpt lat="45.9088" lon="4.8122">
        <ele>170.6</ele>
        <time>2024-09-20T07:49:11Z</time>
      </trkpt>
      <trkpt lat="45.90876" lon="4.81219">
        <ele>170.4</ele>
        <time>2024-09-20T07:49:12Z</time>
      </trkpt>
      <trkpt lat="45.90871" lon="4.81217">
        <ele>170.4</ele>
        <time>2024-09-20T07:49:13Z</time>
      </trkpt>
      <trkpt lat="45.90866" lon="4.81216">
        <ele>170.4</ele>
        <time>2024-09-20T07:49:14Z</time>
      </trkpt>
      <trkpt lat="45.90862" lon="4.81215">
        <ele>170.4</ele>
        <time>2024-09-20T07:49:15Z</time>
      </trkpt>
      <trkpt lat="45.90857" lon="4.81214">
        <ele>170.4</ele>
        <time>2024-09-20T07:49:16Z</time>
      </trkpt>
      <trkpt lat="45.90853" lon="4.81213">
        <ele>170.4</ele>
        <time>2024-09-20T07:49:17Z</time>
      </trkpt>
      <trkpt lat="45.90848" lon="4.81211">
        <ele>170.6</ele>
        <time>2024-09-20T07:49:18Z</time>
      </trkpt>
      <trkpt lat="45.90843" lon="4.8121">
        <ele>170.6</ele>
        <time>2024-09-20T07:49:19Z</time>
      </trkpt>
      <trkpt lat="45.90839" lon="4.81209">
        <ele>170.6</ele>
        <time>2024-09-20T07:49:20Z</time>
      </trkpt>
      <trkpt lat="45.90834" lon="4.81207">
        <ele>170.6</ele>
        <time>2024-09-20T07:49:21Z</time>
      </trkpt>
      <trkpt lat="45.90829" lon="4.81206">
        <ele>170.4</ele>
        <time>2024-09-20T07:49:22Z</time>
      </trkpt>
      <trkpt lat="45.90824" lon="4.81205">
        <ele>170.4</ele>
        <time>2024-09-20T07:49:23Z</time>
      </trkpt>
      <trkpt lat="45.9082" lon="4.81203">
        <ele>170.4</ele>
        <time>2024-09-20T07:49:24Z</time>
      </trkpt>
      <trkpt lat="45.90815" lon="4.81202">
        <ele>170.2</ele>
        <time>2024-09-20T07:49:25Z</time>
      </trkpt>
      <trkpt lat="45.9081" lon="4.812">
        <ele>170.2</ele>
        <time>2024-09-20T07:49:26Z</time>
      </trkpt>
      <trkpt lat="45.90805" lon="4.81199">
        <ele>170.2</ele>
        <time>2024-09-20T07:49:27Z</time>
      </trkpt>
      <trkpt lat="45.90801" lon="4.81198">
        <ele>170.2</ele>
        <time>2024-09-20T07:49:28Z</time>
      </trkpt>
      <trkpt lat="45.90796" lon="4.81197">
        <ele>170.2</ele>
        <time>2024-09-20T07:49:29Z</time>
      </trkpt>
      <trkpt lat="45.90792" lon="4.81196">
        <ele>170.2</ele>
        <time>2024-09-20T07:49:30Z</time>
      </trkpt>
      <trkpt lat="45.90788" lon="4.81195">
        <ele>170.4</ele>
        <time>2024-09-20T07:49:31Z</time>
      </trkpt>
      <trkpt lat="45.90784" lon="4.81193">
        <ele>170.4</ele>
        <time>2024-09-20T07:49:32Z</time>
      </trkpt>
      <trkpt lat="45.9078" lon="4.81192">
        <ele>170.4</ele>
        <time>2024-09-20T07:49:33Z</time>
      </trkpt>
      <trkpt lat="45.90776" lon="4.81191">
        <ele>170.4</ele>
        <time>2024-09-20T07:49:34Z</time>
      </trkpt>
      <trkpt lat="45.90772" lon="4.81189">
        <ele>170.2</ele>
        <time>2024-09-20T07:49:35Z</time>
      </trkpt>
      <trkpt lat="45.90769" lon="4.81188">
        <ele>170.2</ele>
        <time>2024-09-20T07:49:36Z</time>
      </trkpt>
      <trkpt lat="45.90765" lon="4.81186">
        <ele>170.2</ele>
        <time>2024-09-20T07:49:37Z</time>
      </trkpt>
      <trkpt lat="45.90762" lon="4.81185">
        <ele>170.2</ele>
        <time>2024-09-20T07:49:38Z</time>
      </trkpt>
      <trkpt lat="45.90758" lon="4.81183">
        <ele>170.2</ele>
        <time>2024-09-20T07:49:39Z</time>
      </trkpt>
      <trkpt lat="45.90755" lon="4.81182">
        <ele>170.2</ele>
        <time>2024-09-20T07:49:40Z</time>
      </trkpt>
      <trkpt lat="45.90751" lon="4.81181">
        <ele>170.2</ele>
        <time>2024-09-20T07:49:41Z</time>
      </trkpt>
      <trkpt lat="45.90748" lon="4.81179">
        <ele>170.2</ele>
        <time>2024-09-20T07:49:42Z</time>
      </trkpt>
      <trkpt lat="45.90744" lon="4.81178">
        <ele>170.2</ele>
        <time>2024-09-20T07:49:43Z</time>
      </trkpt>
      <trkpt lat="45.9074" lon="4.81176">
        <ele>170.2</ele>
        <time>2024-09-20T07:49:44Z</time>
      </trkpt>
      <trkpt lat="45.90737" lon="4.81174">
        <ele>170.2</ele>
        <time>2024-09-20T07:49:45Z</time>
      </trkpt>
      <trkpt lat="45.90733" lon="4.81173">
        <ele>170.2</ele>
        <time>2024-09-20T07:49:46Z</time>
      </trkpt>
      <trkpt lat="45.90729" lon="4.81171">
        <ele>170.2</ele>
        <time>2024-09-20T07:49:47Z</time>
      </trkpt>
      <trkpt lat="45.90726" lon="4.81169">
        <ele>170.2</ele>
        <time>2024-09-20T07:49:48Z</time>
      </trkpt>
      <trkpt lat="45.90722" lon="4.81168">
        <ele>170.2</ele>
        <time>2024-09-20T07:49:49Z</time>
      </trkpt>
      <trkpt lat="45.90719" lon="4.81167">
        <ele>170.2</ele>
        <time>2024-09-20T07:49:50Z</time>
      </trkpt>
      <trkpt lat="45.90715" lon="4.81165">
        <ele>170.2</ele>
        <time>2024-09-20T07:49:51Z</time>
      </trkpt>
      <trkpt lat="45.90711" lon="4.81163">
        <ele>170.2</ele>
        <time>2024-09-20T07:49:52Z</time>
      </trkpt>
      <trkpt lat="45.90707" lon="4.81161">
        <ele>170.2</ele>
        <time>2024-09-20T07:49:53Z</time>
      </trkpt>
      <trkpt lat="45.90703" lon="4.81159">
        <ele>170.4</ele>
        <time>2024-09-20T07:49:54Z</time>
      </trkpt>
      <trkpt lat="45.907" lon="4.81156">
        <ele>170.4</ele>
        <time>2024-09-20T07:49:55Z</time>
      </trkpt>
      <trkpt lat="45.90696" lon="4.81154">
        <ele>170.4</ele>
        <time>2024-09-20T07:49:56Z</time>
      </trkpt>
      <trkpt lat="45.90692" lon="4.81151">
        <ele>170.4</ele>
        <time>2024-09-20T07:49:57Z</time>
      </trkpt>
      <trkpt lat="45.90688" lon="4.81148">
        <ele>170.4</ele>
        <time>2024-09-20T07:49:58Z</time>
      </trkpt>
      <trkpt lat="45.90684" lon="4.81145">
        <ele>170.4</ele>
        <time>2024-09-20T07:49:59Z</time>
      </trkpt>
      <trkpt lat="45.9068" lon="4.81143">
        <ele>170.4</ele>
        <time>2024-09-20T07:50:00Z</time>
      </trkpt>
      <trkpt lat="45.90676" lon="4.8114">
        <ele>170.4</ele>
        <time>2024-09-20T07:50:01Z</time>
      </trkpt>
      <trkpt lat="45.90672" lon="4.81137">
        <ele>170.2</ele>
        <time>2024-09-20T07:50:02Z</time>
      </trkpt>
      <trkpt lat="45.90668" lon="4.81134">
        <ele>170.2</ele>
        <time>2024-09-20T07:50:03Z</time>
      </trkpt>
      <trkpt lat="45.90664" lon="4.81131">
        <ele>170.2</ele>
        <time>2024-09-20T07:50:04Z</time>
      </trkpt>
      <trkpt lat="45.90661" lon="4.81128">
        <ele>170.2</ele>
        <time>2024-09-20T07:50:05Z</time>
      </trkpt>
      <trkpt lat="45.90657" lon="4.81125">
        <ele>170.2</ele>
        <time>2024-09-20T07:50:06Z</time>
      </trkpt>
      <trkpt lat="45.90653" lon="4.81121">
        <ele>170.2</ele>
        <time>2024-09-20T07:50:07Z</time>
      </trkpt>
      <trkpt lat="45.90649" lon="4.81118">
        <ele>170.2</ele>
        <time>2024-09-20T07:50:08Z</time>
      </trkpt>
      <trkpt lat="45.90646" lon="4.81115">
        <ele>170.2</ele>
        <time>2024-09-20T07:50:09Z</time>
      </trkpt>
      <trkpt lat="45.90642" lon="4.81112">
        <ele>170.2</ele>
        <time>2024-09-20T07:50:10Z</time>
      </trkpt>
      <trkpt lat="45.90639" lon="4.81108">
        <ele>170.2</ele>
        <time>2024-09-20T07:50:11Z</time>
      </trkpt>
      <trkpt lat="45.90635" lon="4.81105">
        <ele>170.2</ele>
        <time>2024-09-20T07:50:12Z</time>
      </trkpt>
      <trkpt lat="45.90631" lon="4.81101">
        <ele>170.2</ele>
        <time>2024-09-20T07:50:13Z</time>
      </trkpt>
      <trkpt lat="45.90628" lon="4.81097">
        <ele>170.2</ele>
        <time>2024-09-20T07:50:14Z</time>
      </trkpt>
      <trkpt lat="45.90624" lon="4.81094">
        <ele>170.2</ele>
        <time>2024-09-20T07:50:15Z</time>
      </trkpt>
      <trkpt lat="45.90621" lon="4.8109">
        <ele>170.2</ele>
        <time>2024-09-20T07:50:16Z</time>
      </trkpt>
      <trkpt lat="45.90617" lon="4.81086">
        <ele>170.2</ele>
        <time>2024-09-20T07:50:17Z</time>
      </trkpt>
      <trkpt lat="45.90613" lon="4.81083">
        <ele>170.2</ele>
        <time>2024-09-20T07:50:18Z</time>
      </trkpt>
      <trkpt lat="45.9061" lon="4.81079">
        <ele>170.2</ele>
        <time>2024-09-20T07:50:19Z</time>
      </trkpt>
      <trkpt lat="45.90606" lon="4.81075">
        <ele>170.2</ele>
        <time>2024-09-20T07:50:20Z</time>
      </trkpt>
      <trkpt lat="45.90603" lon="4.81072">
        <ele>170.2</ele>
        <time>2024-09-20T07:50:21Z</time>
      </trkpt>
      <trkpt lat="45.90599" lon="4.81068">
        <ele>170.2</ele>
        <time>2024-09-20T07:50:22Z</time>
      </trkpt>
      <trkpt lat="45.90596" lon="4.81064">
        <ele>170.2</ele>
        <time>2024-09-20T07:50:23Z</time>
      </trkpt>
      <trkpt lat="45.90593" lon="4.8106">
        <ele>170.4</ele>
        <time>2024-09-20T07:50:24Z</time>
      </trkpt>
      <trkpt lat="45.90589" lon="4.81056">
        <ele>170.4</ele>
        <time>2024-09-20T07:50:25Z</time>
      </trkpt>
      <trkpt lat="45.90586" lon="4.81052">
        <ele>170.4</ele>
        <time>2024-09-20T07:50:26Z</time>
      </trkpt>
      <trkpt lat="45.90583" lon="4.81047">
        <ele>170.4</ele>
        <time>2024-09-20T07:50:27Z</time>
      </trkpt>
      <trkpt lat="45.90579" lon="4.81043">
        <ele>170.2</ele>
        <time>2024-09-20T07:50:28Z</time>
      </trkpt>
      <trkpt lat="45.90575" lon="4.81041">
        <ele>170.2</ele>
        <time>2024-09-20T07:50:29Z</time>
      </trkpt>
      <trkpt lat="45.90572" lon="4.81037">
        <ele>170.2</ele>
        <time>2024-09-20T07:50:30Z</time>
      </trkpt>
      <trkpt lat="45.90568" lon="4.81033">
        <ele>170.2</ele>
        <time>2024-09-20T07:50:31Z</time>
      </trkpt>
      <trkpt lat="45.90565" lon="4.81029">
        <ele>170.2</ele>
        <time>2024-09-20T07:50:32Z</time>
      </trkpt>
      <trkpt lat="45.90562" lon="4.81025">
        <ele>170.2</ele>
        <time>2024-09-20T07:50:33Z</time>
      </trkpt>
      <trkpt lat="45.90559" lon="4.81021">
        <ele>169.8</ele>
        <time>2024-09-20T07:50:34Z</time>
      </trkpt>
      <trkpt lat="45.90556" lon="4.81017">
        <ele>169.8</ele>
        <time>2024-09-20T07:50:35Z</time>
      </trkpt>
      <trkpt lat="45.90553" lon="4.81013">
        <ele>169.8</ele>
        <time>2024-09-20T07:50:36Z</time>
      </trkpt>
      <trkpt lat="45.9055" lon="4.81008">
        <ele>169.8</ele>
        <time>2024-09-20T07:50:37Z</time>
      </trkpt>
      <trkpt lat="45.90547" lon="4.81003">
        <ele>169.6</ele>
        <time>2024-09-20T07:50:38Z</time>
      </trkpt>
      <trkpt lat="45.90543" lon="4.81">
        <ele>169.6</ele>
        <time>2024-09-20T07:50:39Z</time>
      </trkpt>
      <trkpt lat="45.9054" lon="4.80997">
        <ele>169.6</ele>
        <time>2024-09-20T07:50:40Z</time>
      </trkpt>
      <trkpt lat="45.90536" lon="4.80993">
        <ele>169.6</ele>
        <time>2024-09-20T07:50:41Z</time>
      </trkpt>
      <trkpt lat="45.90533" lon="4.80989">
        <ele>169.6</ele>
        <time>2024-09-20T07:50:42Z</time>
      </trkpt>
      <trkpt lat="45.9053" lon="4.80985">
        <ele>169.4</ele>
        <time>2024-09-20T07:50:43Z</time>
      </trkpt>
      <trkpt lat="45.90527" lon="4.8098">
        <ele>169.4</ele>
        <time>2024-09-20T07:50:44Z</time>
      </trkpt>
      <trkpt lat="45.90523" lon="4.80977">
        <ele>169.4</ele>
        <time>2024-09-20T07:50:45Z</time>
      </trkpt>
      <trkpt lat="45.9052" lon="4.80973">
        <ele>169.4</ele>
        <time>2024-09-20T07:50:46Z</time>
      </trkpt>
      <trkpt lat="45.90516" lon="4.80969">
        <ele>169.2</ele>
        <time>2024-09-20T07:50:47Z</time>
      </trkpt>
      <trkpt lat="45.90513" lon="4.80965">
        <ele>169.2</ele>
        <time>2024-09-20T07:50:48Z</time>
      </trkpt>
      <trkpt lat="45.90509" lon="4.8096">
        <ele>169.2</ele>
        <time>2024-09-20T07:50:49Z</time>
      </trkpt>
      <trkpt lat="45.90505" lon="4.80956">
        <ele>169.4</ele>
        <time>2024-09-20T07:50:50Z</time>
      </trkpt>
      <trkpt lat="45.90501" lon="4.80952">
        <ele>169.6</ele>
        <time>2024-09-20T07:50:51Z</time>
      </trkpt>
      <trkpt lat="45.90498" lon="4.80948">
        <ele>169.6</ele>
        <time>2024-09-20T07:50:52Z</time>
      </trkpt>
      <trkpt lat="45.90495" lon="4.80944">
        <ele>169.6</ele>
        <time>2024-09-20T07:50:53Z</time>
      </trkpt>
      <trkpt lat="45.90491" lon="4.8094">
        <ele>169.6</ele>
        <time>2024-09-20T07:50:54Z</time>
      </trkpt>
      <trkpt lat="45.90488" lon="4.80935">
        <ele>169.6</ele>
        <time>2024-09-20T07:50:55Z</time>
      </trkpt>
      <trkpt lat="45.90485" lon="4.8093">
        <ele>169.6</ele>
        <time>2024-09-20T07:50:56Z</time>
      </trkpt>
      <trkpt lat="45.90482" lon="4.80924">
        <ele>169.6</ele>
        <time>2024-09-20T07:50:57Z</time>
      </trkpt>
      <trkpt lat="45.90479" lon="4.80919">
        <ele>169.6</ele>
        <time>2024-09-20T07:50:58Z</time>
      </trkpt>
      <trkpt lat="45.90476" lon="4.80913">
        <ele>169.4</ele>
        <time>2024-09-20T07:50:59Z</time>
      </trkpt>
      <trkpt lat="45.90473" lon="4.80907">
        <ele>169.2</ele>
        <time>2024-09-20T07:51:00Z</time>
      </trkpt>
      <trkpt lat="45.90471" lon="4.80902">
        <ele>169.2</ele>
        <time>2024-09-20T07:51:01Z</time>
      </trkpt>
      <trkpt lat="45.90468" lon="4.80896">
        <ele>169.2</ele>
        <time>2024-09-20T07:51:02Z</time>
      </trkpt>
      <trkpt lat="45.90465" lon="4.8089">
        <ele>169.6</ele>
        <time>2024-09-20T07:51:03Z</time>
      </trkpt>
      <trkpt lat="45.90463" lon="4.80884">
        <ele>169</ele>
        <time>2024-09-20T07:51:04Z</time>
      </trkpt>
      <trkpt lat="45.9046" lon="4.80878">
        <ele>169</ele>
        <time>2024-09-20T07:51:05Z</time>
      </trkpt>
      <trkpt lat="45.90458" lon="4.80873">
        <ele>169</ele>
        <time>2024-09-20T07:51:06Z</time>
      </trkpt>
      <trkpt lat="45.90455" lon="4.80868">
        <ele>169</ele>
        <time>2024-09-20T07:51:07Z</time>
      </trkpt>
      <trkpt lat="45.90453" lon="4.80863">
        <ele>169</ele>
        <time>2024-09-20T07:51:08Z</time>
      </trkpt>
      <trkpt lat="45.90451" lon="4.80858">
        <ele>169.4</ele>
        <time>2024-09-20T07:51:09Z</time>
      </trkpt>
      <trkpt lat="45.90449" lon="4.80852">
        <ele>168.8</ele>
        <time>2024-09-20T07:51:10Z</time>
      </trkpt>
      <trkpt lat="45.90446" lon="4.80847">
        <ele>168.8</ele>
        <time>2024-09-20T07:51:11Z</time>
      </trkpt>
      <trkpt lat="45.90443" lon="4.80842">
        <ele>168.8</ele>
        <time>2024-09-20T07:51:12Z</time>
      </trkpt>
      <trkpt lat="45.90441" lon="4.80838">
        <ele>169.2</ele>
        <time>2024-09-20T07:51:13Z</time>
      </trkpt>
      <trkpt lat="45.90439" lon="4.80833">
        <ele>169.6</ele>
        <time>2024-09-20T07:51:14Z</time>
      </trkpt>
      <trkpt lat="45.90436" lon="4.80829">
        <ele>169.6</ele>
        <time>2024-09-20T07:51:15Z</time>
      </trkpt>
      <trkpt lat="45.90434" lon="4.80824">
        <ele>169.6</ele>
        <time>2024-09-20T07:51:16Z</time>
      </trkpt>
      <trkpt lat="45.90432" lon="4.8082">
        <ele>169.4</ele>
        <time>2024-09-20T07:51:17Z</time>
      </trkpt>
      <trkpt lat="45.9043" lon="4.80815">
        <ele>169.6</ele>
        <time>2024-09-20T07:51:18Z</time>
      </trkpt>
      <trkpt lat="45.90428" lon="4.8081">
        <ele>169.6</ele>
        <time>2024-09-20T07:51:19Z</time>
      </trkpt>
      <trkpt lat="45.90425" lon="4.80805">
        <ele>169.6</ele>
        <time>2024-09-20T07:51:20Z</time>
      </trkpt>
      <trkpt lat="45.90422" lon="4.808">
        <ele>169.6</ele>
        <time>2024-09-20T07:51:21Z</time>
      </trkpt>
      <trkpt lat="45.90419" lon="4.80794">
        <ele>169.6</ele>
        <time>2024-09-20T07:51:22Z</time>
      </trkpt>
      <trkpt lat="45.90416" lon="4.80789">
        <ele>169.6</ele>
        <time>2024-09-20T07:51:23Z</time>
      </trkpt>
      <trkpt lat="45.90413" lon="4.80784">
        <ele>169.6</ele>
        <time>2024-09-20T07:51:24Z</time>
      </trkpt>
      <trkpt lat="45.9041" lon="4.8078">
        <ele>169.6</ele>
        <time>2024-09-20T07:51:25Z</time>
      </trkpt>
      <trkpt lat="45.90407" lon="4.80775">
        <ele>169.6</ele>
        <time>2024-09-20T07:51:26Z</time>
      </trkpt>
      <trkpt lat="45.90404" lon="4.80769">
        <ele>169.6</ele>
        <time>2024-09-20T07:51:27Z</time>
      </trkpt>
      <trkpt lat="45.90401" lon="4.80764">
        <ele>169.6</ele>
        <time>2024-09-20T07:51:28Z</time>
      </trkpt>
      <trkpt lat="45.90398" lon="4.80758">
        <ele>169.6</ele>
        <time>2024-09-20T07:51:29Z</time>
      </trkpt>
      <trkpt lat="45.90395" lon="4.80753">
        <ele>169.6</ele>
        <time>2024-09-20T07:51:30Z</time>
      </trkpt>
      <trkpt lat="45.90392" lon="4.80748">
        <ele>169.6</ele>
        <time>2024-09-20T07:51:31Z</time>
      </trkpt>
      <trkpt lat="45.90388" lon="4.80742">
        <ele>169.8</ele>
        <time>2024-09-20T07:51:32Z</time>
      </trkpt>
      <trkpt lat="45.90385" lon="4.80736">
        <ele>169.8</ele>
        <time>2024-09-20T07:51:33Z</time>
      </trkpt>
      <trkpt lat="45.90382" lon="4.80731">
        <ele>169.8</ele>
        <time>2024-09-20T07:51:34Z</time>
      </trkpt>
      <trkpt lat="45.90379" lon="4.80725">
        <ele>169.6</ele>
        <time>2024-09-20T07:51:35Z</time>
      </trkpt>
      <trkpt lat="45.90375" lon="4.8072">
        <ele>169.6</ele>
        <time>2024-09-20T07:51:36Z</time>
      </trkpt>
      <trkpt lat="45.90372" lon="4.80715">
        <ele>169.6</ele>
        <time>2024-09-20T07:51:37Z</time>
      </trkpt>
      <trkpt lat="45.90368" lon="4.8071">
        <ele>169.6</ele>
        <time>2024-09-20T07:51:38Z</time>
      </trkpt>
      <trkpt lat="45.90365" lon="4.80705">
        <ele>169.6</ele>
        <time>2024-09-20T07:51:39Z</time>
      </trkpt>
      <trkpt lat="45.90361" lon="4.80701">
        <ele>169.6</ele>
        <time>2024-09-20T07:51:40Z</time>
      </trkpt>
      <trkpt lat="45.90358" lon="4.80697">
        <ele>169.6</ele>
        <time>2024-09-20T07:51:41Z</time>
      </trkpt>
      <trkpt lat="45.90354" lon="4.80692">
        <ele>169.6</ele>
        <time>2024-09-20T07:51:42Z</time>
      </trkpt>
      <trkpt lat="45.90351" lon="4.80688">
        <ele>169.6</ele>
        <time>2024-09-20T07:51:43Z</time>
      </trkpt>
      <trkpt lat="45.90348" lon="4.80683">
        <ele>169.6</ele>
        <time>2024-09-20T07:51:44Z</time>
      </trkpt>
      <trkpt lat="45.90345" lon="4.8068">
        <ele>170</ele>
        <time>2024-09-20T07:51:45Z</time>
      </trkpt>
      <trkpt lat="45.90342" lon="4.80677">
        <ele>170</ele>
        <time>2024-09-20T07:51:46Z</time>
      </trkpt>
      <trkpt lat="45.90339" lon="4.80672">
        <ele>170</ele>
        <time>2024-09-20T07:51:47Z</time>
      </trkpt>
      <trkpt lat="45.90334" lon="4.80667">
        <ele>169.8</ele>
        <time>2024-09-20T07:51:48Z</time>
      </trkpt>
      <trkpt lat="45.9033" lon="4.80663">
        <ele>169.8</ele>
        <time>2024-09-20T07:51:49Z</time>
      </trkpt>
      <trkpt lat="45.90327" lon="4.80659">
        <ele>169.8</ele>
        <time>2024-09-20T07:51:50Z</time>
      </trkpt>
      <trkpt lat="45.90323" lon="4.80655">
        <ele>169.8</ele>
        <time>2024-09-20T07:51:51Z</time>
      </trkpt>
      <trkpt lat="45.9032" lon="4.80651">
        <ele>169.8</ele>
        <time>2024-09-20T07:51:52Z</time>
      </trkpt>
      <trkpt lat="45.90317" lon="4.80647">
        <ele>170</ele>
        <time>2024-09-20T07:51:53Z</time>
      </trkpt>
      <trkpt lat="45.90313" lon="4.80643">
        <ele>169.8</ele>
        <time>2024-09-20T07:51:54Z</time>
      </trkpt>
      <trkpt lat="45.90309" lon="4.80639">
        <ele>169.8</ele>
        <time>2024-09-20T07:51:55Z</time>
      </trkpt>
      <trkpt lat="45.90306" lon="4.80636">
        <ele>169.8</ele>
        <time>2024-09-20T07:51:56Z</time>
      </trkpt>
      <trkpt lat="45.90302" lon="4.80632">
        <ele>169.8</ele>
        <time>2024-09-20T07:51:57Z</time>
      </trkpt>
      <trkpt lat="45.90298" lon="4.80628">
        <ele>169.8</ele>
        <time>2024-09-20T07:51:58Z</time>
      </trkpt>
      <trkpt lat="45.90294" lon="4.80625">
        <ele>170</ele>
        <time>2024-09-20T07:51:59Z</time>
      </trkpt>
      <trkpt lat="45.9029" lon="4.80622">
        <ele>170</ele>
        <time>2024-09-20T07:52:00Z</time>
      </trkpt>
      <trkpt lat="45.90286" lon="4.80618">
        <ele>170</ele>
        <time>2024-09-20T07:52:01Z</time>
      </trkpt>
      <trkpt lat="45.90282" lon="4.80615">
        <ele>170</ele>
        <time>2024-09-20T07:52:02Z</time>
      </trkpt>
      <trkpt lat="45.90279" lon="4.80612">
        <ele>170.2</ele>
        <time>2024-09-20T07:52:03Z</time>
      </trkpt>
      <trkpt lat="45.90275" lon="4.80609">
        <ele>170.2</ele>
        <time>2024-09-20T07:52:04Z</time>
      </trkpt>
      <trkpt lat="45.90271" lon="4.80605">
        <ele>170.2</ele>
        <time>2024-09-20T07:52:05Z</time>
      </trkpt>
      <trkpt lat="45.90267" lon="4.80602">
        <ele>169.8</ele>
        <time>2024-09-20T07:52:06Z</time>
      </trkpt>
      <trkpt lat="45.90263" lon="4.806">
        <ele>169.8</ele>
        <time>2024-09-20T07:52:07Z</time>
      </trkpt>
      <trkpt lat="45.90259" lon="4.80597">
        <ele>169.8</ele>
        <time>2024-09-20T07:52:08Z</time>
      </trkpt>
      <trkpt lat="45.90255" lon="4.80594">
        <ele>169.8</ele>
        <time>2024-09-20T07:52:09Z</time>
      </trkpt>
      <trkpt lat="45.90251" lon="4.80591">
        <ele>169.8</ele>
        <time>2024-09-20T07:52:10Z</time>
      </trkpt>
      <trkpt lat="45.90247" lon="4.80588">
        <ele>169.8</ele>
        <time>2024-09-20T07:52:11Z</time>
      </trkpt>
      <trkpt lat="45.90242" lon="4.80585">
        <ele>169.6</ele>
        <time>2024-09-20T07:52:12Z</time>
      </trkpt>
      <trkpt lat="45.90238" lon="4.80582">
        <ele>169.6</ele>
        <time>2024-09-20T07:52:13Z</time>
      </trkpt>
      <trkpt lat="45.90234" lon="4.80579">
        <ele>169.6</ele>
        <time>2024-09-20T07:52:14Z</time>
      </trkpt>
      <trkpt lat="45.9023" lon="4.80576">
        <ele>169.8</ele>
        <time>2024-09-20T07:52:15Z</time>
      </trkpt>
      <trkpt lat="45.90226" lon="4.80573">
        <ele>169.8</ele>
        <time>2024-09-20T07:52:16Z</time>
      </trkpt>
      <trkpt lat="45.90221" lon="4.80571">
        <ele>169.8</ele>
        <time>2024-09-20T07:52:17Z</time>
      </trkpt>
      <trkpt lat="45.90217" lon="4.80568">
        <ele>169.8</ele>
        <time>2024-09-20T07:52:18Z</time>
      </trkpt>
      <trkpt lat="45.90213" lon="4.80566">
        <ele>169.8</ele>
        <time>2024-09-20T07:52:19Z</time>
      </trkpt>
      <trkpt lat="45.90209" lon="4.80563">
        <ele>169.8</ele>
        <time>2024-09-20T07:52:20Z</time>
      </trkpt>
      <trkpt lat="45.90205" lon="4.80561">
        <ele>169.8</ele>
        <time>2024-09-20T07:52:21Z</time>
      </trkpt>
      <trkpt lat="45.90201" lon="4.80559">
        <ele>169.8</ele>
        <time>2024-09-20T07:52:22Z</time>
      </trkpt>
      <trkpt lat="45.90197" lon="4.80557">
        <ele>169.8</ele>
        <time>2024-09-20T07:52:23Z</time>
      </trkpt>
      <trkpt lat="45.90193" lon="4.80554">
        <ele>169.8</ele>
        <time>2024-09-20T07:52:24Z</time>
      </trkpt>
      <trkpt lat="45.90189" lon="4.80552">
        <ele>169.8</ele>
        <time>2024-09-20T07:52:25Z</time>
      </trkpt>
      <trkpt lat="45.90186" lon="4.8055">
        <ele>169.8</ele>
        <time>2024-09-20T07:52:26Z</time>
      </trkpt>
      <trkpt lat="45.90182" lon="4.80549">
        <ele>169.8</ele>
        <time>2024-09-20T07:52:27Z</time>
      </trkpt>
      <trkpt lat="45.90178" lon="4.80547">
        <ele>169.8</ele>
        <time>2024-09-20T07:52:28Z</time>
      </trkpt>
      <trkpt lat="45.90174" lon="4.80545">
        <ele>169.6</ele>
        <time>2024-09-20T07:52:29Z</time>
      </trkpt>
      <trkpt lat="45.9017" lon="4.80543">
        <ele>169.6</ele>
        <time>2024-09-20T07:52:30Z</time>
      </trkpt>
      <trkpt lat="45.90166" lon="4.80542">
        <ele>169.6</ele>
        <time>2024-09-20T07:52:31Z</time>
      </trkpt>
      <trkpt lat="45.90162" lon="4.8054">
        <ele>169.8</ele>
        <time>2024-09-20T07:52:32Z</time>
      </trkpt>
      <trkpt lat="45.90158" lon="4.80538">
        <ele>169.8</ele>
        <time>2024-09-20T07:52:33Z</time>
      </trkpt>
      <trkpt lat="45.90153" lon="4.80536">
        <ele>169.8</ele>
        <time>2024-09-20T07:52:34Z</time>
      </trkpt>
      <trkpt lat="45.90149" lon="4.80534">
        <ele>170</ele>
        <time>2024-09-20T07:52:35Z</time>
      </trkpt>
      <trkpt lat="45.90145" lon="4.80533">
        <ele>170</ele>
        <time>2024-09-20T07:52:36Z</time>
      </trkpt>
      <trkpt lat="45.9014" lon="4.80531">
        <ele>170</ele>
        <time>2024-09-20T07:52:37Z</time>
      </trkpt>
      <trkpt lat="45.90135" lon="4.80529">
        <ele>170.2</ele>
        <time>2024-09-20T07:52:38Z</time>
      </trkpt>
      <trkpt lat="45.90131" lon="4.80528">
        <ele>170.2</ele>
        <time>2024-09-20T07:52:39Z</time>
      </trkpt>
      <trkpt lat="45.90126" lon="4.80527">
        <ele>170.2</ele>
        <time>2024-09-20T07:52:40Z</time>
      </trkpt>
      <trkpt lat="45.90121" lon="4.80525">
        <ele>170.2</ele>
        <time>2024-09-20T07:52:41Z</time>
      </trkpt>
      <trkpt lat="45.90117" lon="4.80524">
        <ele>170.2</ele>
        <time>2024-09-20T07:52:42Z</time>
      </trkpt>
      <trkpt lat="45.90112" lon="4.80523">
        <ele>169.8</ele>
        <time>2024-09-20T07:52:43Z</time>
      </trkpt>
      <trkpt lat="45.90108" lon="4.80522">
        <ele>169.8</ele>
        <time>2024-09-20T07:52:44Z</time>
      </trkpt>
      <trkpt lat="45.90103" lon="4.80521">
        <ele>169.8</ele>
        <time>2024-09-20T07:52:45Z</time>
      </trkpt>
      <trkpt lat="45.90099" lon="4.8052">
        <ele>169.8</ele>
        <time>2024-09-20T07:52:46Z</time>
      </trkpt>
      <trkpt lat="45.90095" lon="4.80519">
        <ele>169.8</ele>
        <time>2024-09-20T07:52:47Z</time>
      </trkpt>
      <trkpt lat="45.9009" lon="4.80518">
        <ele>170</ele>
        <time>2024-09-20T07:52:48Z</time>
      </trkpt>
      <trkpt lat="45.90085" lon="4.80517">
        <ele>170</ele>
        <time>2024-09-20T07:52:49Z</time>
      </trkpt>
      <trkpt lat="45.90081" lon="4.80517">
        <ele>170</ele>
        <time>2024-09-20T07:52:50Z</time>
      </trkpt>
      <trkpt lat="45.90076" lon="4.80516">
        <ele>170</ele>
        <time>2024-09-20T07:52:51Z</time>
      </trkpt>
      <trkpt lat="45.90071" lon="4.80516">
        <ele>170</ele>
        <time>2024-09-20T07:52:52Z</time>
      </trkpt>
      <trkpt lat="45.90066" lon="4.80515">
        <ele>169.8</ele>
        <time>2024-09-20T07:52:53Z</time>
      </trkpt>
      <trkpt lat="45.90062" lon="4.80514">
        <ele>169.8</ele>
        <time>2024-09-20T07:52:54Z</time>
      </trkpt>
      <trkpt lat="45.90057" lon="4.80514">
        <ele>169.8</ele>
        <time>2024-09-20T07:52:55Z</time>
      </trkpt>
      <trkpt lat="45.90053" lon="4.80513">
        <ele>170</ele>
        <time>2024-09-20T07:52:56Z</time>
      </trkpt>
      <trkpt lat="45.90049" lon="4.80513">
        <ele>170</ele>
        <time>2024-09-20T07:52:57Z</time>
      </trkpt>
      <trkpt lat="45.90044" lon="4.80512">
        <ele>170</ele>
        <time>2024-09-20T07:52:58Z</time>
      </trkpt>
      <trkpt lat="45.9004" lon="4.80512">
        <ele>169.8</ele>
        <time>2024-09-20T07:52:59Z</time>
      </trkpt>
      <trkpt lat="45.90035" lon="4.80511">
        <ele>169.8</ele>
        <time>2024-09-20T07:53:00Z</time>
      </trkpt>
      <trkpt lat="45.9003" lon="4.8051">
        <ele>169.8</ele>
        <time>2024-09-20T07:53:01Z</time>
      </trkpt>
      <trkpt lat="45.90026" lon="4.80509">
        <ele>169.8</ele>
        <time>2024-09-20T07:53:02Z</time>
      </trkpt>
      <trkpt lat="45.90021" lon="4.80509">
        <ele>169.8</ele>
        <time>2024-09-20T07:53:03Z</time>
      </trkpt>
      <trkpt lat="45.90017" lon="4.80509">
        <ele>169.8</ele>
        <time>2024-09-20T07:53:04Z</time>
      </trkpt>
      <trkpt lat="45.90012" lon="4.80509">
        <ele>169.8</ele>
        <time>2024-09-20T07:53:05Z</time>
      </trkpt>
      <trkpt lat="45.90008" lon="4.80509">
        <ele>169.8</ele>
        <time>2024-09-20T07:53:06Z</time>
      </trkpt>
      <trkpt lat="45.90003" lon="4.80509">
        <ele>169.8</ele>
        <time>2024-09-20T07:53:07Z</time>
      </trkpt>
      <trkpt lat="45.89999" lon="4.80509">
        <ele>170</ele>
        <time>2024-09-20T07:53:08Z</time>
      </trkpt>
      <trkpt lat="45.89994" lon="4.80509">
        <ele>170</ele>
        <time>2024-09-20T07:53:09Z</time>
      </trkpt>
      <trkpt lat="45.89989" lon="4.80509">
        <ele>170</ele>
        <time>2024-09-20T07:53:10Z</time>
      </trkpt>
      <trkpt lat="45.89985" lon="4.80509">
        <ele>170</ele>
        <time>2024-09-20T07:53:11Z</time>
      </trkpt>
      <trkpt lat="45.8998" lon="4.8051">
        <ele>170</ele>
        <time>2024-09-20T07:53:12Z</time>
      </trkpt>
      <trkpt lat="45.89976" lon="4.8051">
        <ele>170</ele>
        <time>2024-09-20T07:53:13Z</time>
      </trkpt>
      <trkpt lat="45.89971" lon="4.8051">
        <ele>169.8</ele>
        <time>2024-09-20T07:53:14Z</time>
      </trkpt>
      <trkpt lat="45.89966" lon="4.80511">
        <ele>169.8</ele>
        <time>2024-09-20T07:53:15Z</time>
      </trkpt>
      <trkpt lat="45.89961" lon="4.80511">
        <ele>169.8</ele>
        <time>2024-09-20T07:53:16Z</time>
      </trkpt>
      <trkpt lat="45.89956" lon="4.80512">
        <ele>169.8</ele>
        <time>2024-09-20T07:53:17Z</time>
      </trkpt>
      <trkpt lat="45.89951" lon="4.80513">
        <ele>169.8</ele>
        <time>2024-09-20T07:53:18Z</time>
      </trkpt>
      <trkpt lat="45.89947" lon="4.80514">
        <ele>169.6</ele>
        <time>2024-09-20T07:53:19Z</time>
      </trkpt>
      <trkpt lat="45.89942" lon="4.80515">
        <ele>169.6</ele>
        <time>2024-09-20T07:53:20Z</time>
      </trkpt>
      <trkpt lat="45.89937" lon="4.80516">
        <ele>169.6</ele>
        <time>2024-09-20T07:53:21Z</time>
      </trkpt>
      <trkpt lat="45.89933" lon="4.80517">
        <ele>169.8</ele>
        <time>2024-09-20T07:53:22Z</time>
      </trkpt>
      <trkpt lat="45.89928" lon="4.80519">
        <ele>169.8</ele>
        <time>2024-09-20T07:53:23Z</time>
      </trkpt>
      <trkpt lat="45.89924" lon="4.80521">
        <ele>170</ele>
        <time>2024-09-20T07:53:24Z</time>
      </trkpt>
      <trkpt lat="45.89919" lon="4.80523">
        <ele>170</ele>
        <time>2024-09-20T07:53:25Z</time>
      </trkpt>
      <trkpt lat="45.89915" lon="4.80525">
        <ele>170</ele>
        <time>2024-09-20T07:53:26Z</time>
      </trkpt>
      <trkpt lat="45.89911" lon="4.80527">
        <ele>170</ele>
        <time>2024-09-20T07:53:27Z</time>
      </trkpt>
      <trkpt lat="45.89907" lon="4.8053">
        <ele>170</ele>
        <time>2024-09-20T07:53:28Z</time>
      </trkpt>
      <trkpt lat="45.89903" lon="4.80533">
        <ele>170</ele>
        <time>2024-09-20T07:53:29Z</time>
      </trkpt>
      <trkpt lat="45.89899" lon="4.80535">
        <ele>170</ele>
        <time>2024-09-20T07:53:30Z</time>
      </trkpt>
      <trkpt lat="45.89895" lon="4.80538">
        <ele>170</ele>
        <time>2024-09-20T07:53:31Z</time>
      </trkpt>
      <trkpt lat="45.89891" lon="4.8054">
        <ele>169.8</ele>
        <time>2024-09-20T07:53:32Z</time>
      </trkpt>
      <trkpt lat="45.89887" lon="4.80543">
        <ele>169.8</ele>
        <time>2024-09-20T07:53:33Z</time>
      </trkpt>
      <trkpt lat="45.89883" lon="4.80545">
        <ele>169.8</ele>
        <time>2024-09-20T07:53:34Z</time>
      </trkpt>
      <trkpt lat="45.89879" lon="4.80548">
        <ele>169.8</ele>
        <time>2024-09-20T07:53:35Z</time>
      </trkpt>
      <trkpt lat="45.89875" lon="4.8055">
        <ele>170</ele>
        <time>2024-09-20T07:53:36Z</time>
      </trkpt>
      <trkpt lat="45.89871" lon="4.80553">
        <ele>170</ele>
        <time>2024-09-20T07:53:37Z</time>
      </trkpt>
      <trkpt lat="45.89867" lon="4.80555">
        <ele>170</ele>
        <time>2024-09-20T07:53:38Z</time>
      </trkpt>
      <trkpt lat="45.89863" lon="4.80557">
        <ele>170</ele>
        <time>2024-09-20T07:53:39Z</time>
      </trkpt>
      <trkpt lat="45.89858" lon="4.8056">
        <ele>170</ele>
        <time>2024-09-20T07:53:40Z</time>
      </trkpt>
      <trkpt lat="45.89854" lon="4.80562">
        <ele>169.6</ele>
        <time>2024-09-20T07:53:41Z</time>
      </trkpt>
      <trkpt lat="45.8985" lon="4.80565">
        <ele>169.6</ele>
        <time>2024-09-20T07:53:42Z</time>
      </trkpt>
      <trkpt lat="45.89846" lon="4.80567">
        <ele>169.6</ele>
        <time>2024-09-20T07:53:43Z</time>
      </trkpt>
      <trkpt lat="45.89841" lon="4.80569">
        <ele>169.6</ele>
        <time>2024-09-20T07:53:44Z</time>
      </trkpt>
      <trkpt lat="45.89837" lon="4.80572">
        <ele>169.6</ele>
        <time>2024-09-20T07:53:45Z</time>
      </trkpt>
      <trkpt lat="45.89833" lon="4.80575">
        <ele>169.6</ele>
        <time>2024-09-20T07:53:46Z</time>
      </trkpt>
      <trkpt lat="45.89829" lon="4.80577">
        <ele>169.6</ele>
        <time>2024-09-20T07:53:47Z</time>
      </trkpt>
      <trkpt lat="45.89824" lon="4.8058">
        <ele>169.8</ele>
        <time>2024-09-20T07:53:48Z</time>
      </trkpt>
      <trkpt lat="45.8982" lon="4.80583">
        <ele>169.6</ele>
        <time>2024-09-20T07:53:49Z</time>
      </trkpt>
      <trkpt lat="45.89816" lon="4.80586">
        <ele>169.6</ele>
        <time>2024-09-20T07:53:50Z</time>
      </trkpt>
      <trkpt lat="45.89812" lon="4.80589">
        <ele>169.6</ele>
        <time>2024-09-20T07:53:51Z</time>
      </trkpt>
      <trkpt lat="45.89808" lon="4.80592">
        <ele>169.6</ele>
        <time>2024-09-20T07:53:52Z</time>
      </trkpt>
      <trkpt lat="45.89804" lon="4.80595">
        <ele>169.6</ele>
        <time>2024-09-20T07:53:53Z</time>
      </trkpt>
      <trkpt lat="45.89799" lon="4.80599">
        <ele>169.4</ele>
        <time>2024-09-20T07:53:54Z</time>
      </trkpt>
      <trkpt lat="45.89795" lon="4.80602">
        <ele>169.4</ele>
        <time>2024-09-20T07:53:55Z</time>
      </trkpt>
      <trkpt lat="45.89791" lon="4.80605">
        <ele>169.4</ele>
        <time>2024-09-20T07:53:56Z</time>
      </trkpt>
      <trkpt lat="45.89787" lon="4.80608">
        <ele>169.6</ele>
        <time>2024-09-20T07:53:57Z</time>
      </trkpt>
      <trkpt lat="45.89783" lon="4.80612">
        <ele>169.6</ele>
        <time>2024-09-20T07:53:58Z</time>
      </trkpt>
      <trkpt lat="45.89779" lon="4.80615">
        <ele>169.6</ele>
        <time>2024-09-20T07:53:59Z</time>
      </trkpt>
      <trkpt lat="45.89775" lon="4.80618">
        <ele>169.6</ele>
        <time>2024-09-20T07:54:00Z</time>
      </trkpt>
      <trkpt lat="45.89771" lon="4.80622">
        <ele>169.6</ele>
        <time>2024-09-20T07:54:01Z</time>
      </trkpt>
      <trkpt lat="45.89767" lon="4.80626">
        <ele>169.6</ele>
        <time>2024-09-20T07:54:02Z</time>
      </trkpt>
      <trkpt lat="45.89763" lon="4.80629">
        <ele>169.6</ele>
        <time>2024-09-20T07:54:03Z</time>
      </trkpt>
      <trkpt lat="45.89759" lon="4.80633">
        <ele>169.8</ele>
        <time>2024-09-20T07:54:04Z</time>
      </trkpt>
      <trkpt lat="45.89755" lon="4.80637">
        <ele>169.8</ele>
        <time>2024-09-20T07:54:05Z</time>
      </trkpt>
      <trkpt lat="45.89751" lon="4.80641">
        <ele>169.8</ele>
        <time>2024-09-20T07:54:06Z</time>
      </trkpt>
      <trkpt lat="45.89747" lon="4.80645">
        <ele>169.8</ele>
        <time>2024-09-20T07:54:07Z</time>
      </trkpt>
      <trkpt lat="45.89743" lon="4.80649">
        <ele>169.6</ele>
        <time>2024-09-20T07:54:08Z</time>
      </trkpt>
      <trkpt lat="45.89739" lon="4.80652">
        <ele>169.6</ele>
        <time>2024-09-20T07:54:09Z</time>
      </trkpt>
      <trkpt lat="45.89735" lon="4.80656">
        <ele>169.6</ele>
        <time>2024-09-20T07:54:10Z</time>
      </trkpt>
      <trkpt lat="45.89731" lon="4.80659">
        <ele>169.6</ele>
        <time>2024-09-20T07:54:11Z</time>
      </trkpt>
      <trkpt lat="45.89727" lon="4.80662">
        <ele>169.6</ele>
        <time>2024-09-20T07:54:12Z</time>
      </trkpt>
      <trkpt lat="45.89723" lon="4.80665">
        <ele>169.6</ele>
        <time>2024-09-20T07:54:13Z</time>
      </trkpt>
      <trkpt lat="45.8972" lon="4.80668">
        <ele>169.6</ele>
        <time>2024-09-20T07:54:14Z</time>
      </trkpt>
      <trkpt lat="45.89716" lon="4.8067">
        <ele>169.6</ele>
        <time>2024-09-20T07:54:15Z</time>
      </trkpt>
      <trkpt lat="45.89712" lon="4.80672">
        <ele>170</ele>
        <time>2024-09-20T07:54:16Z</time>
      </trkpt>
      <trkpt lat="45.89708" lon="4.80675">
        <ele>170</ele>
        <time>2024-09-20T07:54:17Z</time>
      </trkpt>
      <trkpt lat="45.89704" lon="4.80677">
        <ele>170</ele>
        <time>2024-09-20T07:54:18Z</time>
      </trkpt>
      <trkpt lat="45.897" lon="4.80678">
        <ele>170</ele>
        <time>2024-09-20T07:54:19Z</time>
      </trkpt>
      <trkpt lat="45.89696" lon="4.8068">
        <ele>170</ele>
        <time>2024-09-20T07:54:20Z</time>
      </trkpt>
      <trkpt lat="45.89692" lon="4.80682">
        <ele>170.2</ele>
        <time>2024-09-20T07:54:21Z</time>
      </trkpt>
      <trkpt lat="45.89689" lon="4.80685">
        <ele>170.2</ele>
        <time>2024-09-20T07:54:22Z</time>
      </trkpt>
      <trkpt lat="45.89685" lon="4.80687">
        <ele>170.2</ele>
        <time>2024-09-20T07:54:23Z</time>
      </trkpt>
      <trkpt lat="45.89681" lon="4.80689">
        <ele>170.2</ele>
        <time>2024-09-20T07:54:24Z</time>
      </trkpt>
      <trkpt lat="45.89678" lon="4.80691">
        <ele>170.2</ele>
        <time>2024-09-20T07:54:25Z</time>
      </trkpt>
      <trkpt lat="45.89674" lon="4.80693">
        <ele>170.2</ele>
        <time>2024-09-20T07:54:26Z</time>
      </trkpt>
      <trkpt lat="45.89669" lon="4.80695">
        <ele>170.2</ele>
        <time>2024-09-20T07:54:27Z</time>
      </trkpt>
      <trkpt lat="45.89665" lon="4.80698">
        <ele>170.2</ele>
        <time>2024-09-20T07:54:28Z</time>
      </trkpt>
      <trkpt lat="45.89661" lon="4.807">
        <ele>170.2</ele>
        <time>2024-09-20T07:54:29Z</time>
      </trkpt>
      <trkpt lat="45.89657" lon="4.80702">
        <ele>170.2</ele>
        <time>2024-09-20T07:54:30Z</time>
      </trkpt>
      <trkpt lat="45.89652" lon="4.80704">
        <ele>170.2</ele>
        <time>2024-09-20T07:54:31Z</time>
      </trkpt>
      <trkpt lat="45.89648" lon="4.80706">
        <ele>170.2</ele>
        <time>2024-09-20T07:54:32Z</time>
      </trkpt>
      <trkpt lat="45.89643" lon="4.80707">
        <ele>170.4</ele>
        <time>2024-09-20T07:54:33Z</time>
      </trkpt>
      <trkpt lat="45.89639" lon="4.80708">
        <ele>170.2</ele>
        <time>2024-09-20T07:54:34Z</time>
      </trkpt>
      <trkpt lat="45.89634" lon="4.80708">
        <ele>170.2</ele>
        <time>2024-09-20T07:54:35Z</time>
      </trkpt>
      <trkpt lat="45.89629" lon="4.80708">
        <ele>170.2</ele>
        <time>2024-09-20T07:54:36Z</time>
      </trkpt>
      <trkpt lat="45.89624" lon="4.80708">
        <ele>170</ele>
        <time>2024-09-20T07:54:37Z</time>
      </trkpt>
      <trkpt lat="45.89619" lon="4.80709">
        <ele>170</ele>
        <time>2024-09-20T07:54:38Z</time>
      </trkpt>
      <trkpt lat="45.89615" lon="4.8071">
        <ele>170</ele>
        <time>2024-09-20T07:54:39Z</time>
      </trkpt>
      <trkpt lat="45.89611" lon="4.8071">
        <ele>170</ele>
        <time>2024-09-20T07:54:40Z</time>
      </trkpt>
      <trkpt lat="45.89606" lon="4.80711">
        <ele>170</ele>
        <time>2024-09-20T07:54:41Z</time>
      </trkpt>
      <trkpt lat="45.89602" lon="4.80713">
        <ele>170</ele>
        <time>2024-09-20T07:54:42Z</time>
      </trkpt>
      <trkpt lat="45.89597" lon="4.80714">
        <ele>170</ele>
        <time>2024-09-20T07:54:43Z</time>
      </trkpt>
      <trkpt lat="45.89592" lon="4.80715">
        <ele>170</ele>
        <time>2024-09-20T07:54:44Z</time>
      </trkpt>
      <trkpt lat="45.89587" lon="4.80716">
        <ele>170</ele>
        <time>2024-09-20T07:54:45Z</time>
      </trkpt>
      <trkpt lat="45.89583" lon="4.80717">
        <ele>170</ele>
        <time>2024-09-20T07:54:46Z</time>
      </trkpt>
      <trkpt lat="45.89578" lon="4.80719">
        <ele>170</ele>
        <time>2024-09-20T07:54:47Z</time>
      </trkpt>
      <trkpt lat="45.89574" lon="4.80721">
        <ele>169.8</ele>
        <time>2024-09-20T07:54:48Z</time>
      </trkpt>
      <trkpt lat="45.89569" lon="4.80723">
        <ele>169.8</ele>
        <time>2024-09-20T07:54:49Z</time>
      </trkpt>
      <trkpt lat="45.89565" lon="4.80725">
        <ele>169.8</ele>
        <time>2024-09-20T07:54:50Z</time>
      </trkpt>
      <trkpt lat="45.8956" lon="4.80727">
        <ele>169.8</ele>
        <time>2024-09-20T07:54:51Z</time>
      </trkpt>
      <trkpt lat="45.89556" lon="4.80728">
        <ele>170</ele>
        <time>2024-09-20T07:54:52Z</time>
      </trkpt>
      <trkpt lat="45.89552" lon="4.8073">
        <ele>170</ele>
        <time>2024-09-20T07:54:53Z</time>
      </trkpt>
      <trkpt lat="45.89548" lon="4.80732">
        <ele>170</ele>
        <time>2024-09-20T07:54:54Z</time>
      </trkpt>
      <trkpt lat="45.89543" lon="4.80735">
        <ele>170</ele>
        <time>2024-09-20T07:54:55Z</time>
      </trkpt>
      <trkpt lat="45.89539" lon="4.80737">
        <ele>170</ele>
        <time>2024-09-20T07:54:56Z</time>
      </trkpt>
      <trkpt lat="45.89535" lon="4.80739">
        <ele>169.8</ele>
        <time>2024-09-20T07:54:57Z</time>
      </trkpt>
      <trkpt lat="45.89531" lon="4.80742">
        <ele>169.8</ele>
        <time>2024-09-20T07:54:58Z</time>
      </trkpt>
      <trkpt lat="45.89528" lon="4.80744">
        <ele>169.8</ele>
        <time>2024-09-20T07:54:59Z</time>
      </trkpt>
      <trkpt lat="45.89524" lon="4.80746">
        <ele>169.8</ele>
        <time>2024-09-20T07:55:00Z</time>
      </trkpt>
      <trkpt lat="45.89519" lon="4.80749">
        <ele>169.8</ele>
        <time>2024-09-20T07:55:01Z</time>
      </trkpt>
      <trkpt lat="45.89514" lon="4.80751">
        <ele>169.8</ele>
        <time>2024-09-20T07:55:02Z</time>
      </trkpt>
      <trkpt lat="45.8951" lon="4.80753">
        <ele>169.8</ele>
        <time>2024-09-20T07:55:03Z</time>
      </trkpt>
      <trkpt lat="45.89506" lon="4.80755">
        <ele>169.8</ele>
        <time>2024-09-20T07:55:04Z</time>
      </trkpt>
      <trkpt lat="45.89502" lon="4.80758">
        <ele>169.8</ele>
        <time>2024-09-20T07:55:05Z</time>
      </trkpt>
      <trkpt lat="45.89497" lon="4.80761">
        <ele>170</ele>
        <time>2024-09-20T07:55:06Z</time>
      </trkpt>
      <trkpt lat="45.89493" lon="4.80763">
        <ele>170</ele>
        <time>2024-09-20T07:55:07Z</time>
      </trkpt>
      <trkpt lat="45.89489" lon="4.80766">
        <ele>170</ele>
        <time>2024-09-20T07:55:08Z</time>
      </trkpt>
      <trkpt lat="45.89484" lon="4.80769">
        <ele>170</ele>
        <time>2024-09-20T07:55:09Z</time>
      </trkpt>
      <trkpt lat="45.8948" lon="4.80771">
        <ele>170</ele>
        <time>2024-09-20T07:55:10Z</time>
      </trkpt>
      <trkpt lat="45.89476" lon="4.80773">
        <ele>170.2</ele>
        <time>2024-09-20T07:55:11Z</time>
      </trkpt>
      <trkpt lat="45.89472" lon="4.80775">
        <ele>170.2</ele>
        <time>2024-09-20T07:55:12Z</time>
      </trkpt>
      <trkpt lat="45.89467" lon="4.80777">
        <ele>170.2</ele>
        <time>2024-09-20T07:55:13Z</time>
      </trkpt>
      <trkpt lat="45.89463" lon="4.8078">
        <ele>170.2</ele>
        <time>2024-09-20T07:55:14Z</time>
      </trkpt>
      <trkpt lat="45.89459" lon="4.80782">
        <ele>170.2</ele>
        <time>2024-09-20T07:55:15Z</time>
      </trkpt>
      <trkpt lat="45.89455" lon="4.80785">
        <ele>170.2</ele>
        <time>2024-09-20T07:55:16Z</time>
      </trkpt>
      <trkpt lat="45.89451" lon="4.80787">
        <ele>170.2</ele>
        <time>2024-09-20T07:55:17Z</time>
      </trkpt>
      <trkpt lat="45.89447" lon="4.80789">
        <ele>170</ele>
        <time>2024-09-20T07:55:18Z</time>
      </trkpt>
      <trkpt lat="45.89442" lon="4.80792">
        <ele>169.8</ele>
        <time>2024-09-20T07:55:19Z</time>
      </trkpt>
      <trkpt lat="45.89438" lon="4.80794">
        <ele>169.8</ele>
        <time>2024-09-20T07:55:20Z</time>
      </trkpt>
      <trkpt lat="45.89434" lon="4.80797">
        <ele>169.8</ele>
        <time>2024-09-20T07:55:21Z</time>
      </trkpt>
      <trkpt lat="45.8943" lon="4.80799">
        <ele>170.2</ele>
        <time>2024-09-20T07:55:22Z</time>
      </trkpt>
      <trkpt lat="45.89427" lon="4.80801">
        <ele>170.2</ele>
        <time>2024-09-20T07:55:23Z</time>
      </trkpt>
      <trkpt lat="45.89423" lon="4.80803">
        <ele>170.4</ele>
        <time>2024-09-20T07:55:24Z</time>
      </trkpt>
      <trkpt lat="45.89419" lon="4.80805">
        <ele>170.4</ele>
        <time>2024-09-20T07:55:25Z</time>
      </trkpt>
      <trkpt lat="45.89415" lon="4.80807">
        <ele>170.4</ele>
        <time>2024-09-20T07:55:26Z</time>
      </trkpt>
      <trkpt lat="45.89412" lon="4.80809">
        <ele>170.4</ele>
        <time>2024-09-20T07:55:27Z</time>
      </trkpt>
      <trkpt lat="45.89408" lon="4.80811">
        <ele>170.2</ele>
        <time>2024-09-20T07:55:28Z</time>
      </trkpt>
      <trkpt lat="45.89404" lon="4.80813">
        <ele>170</ele>
        <time>2024-09-20T07:55:29Z</time>
      </trkpt>
      <trkpt lat="45.894" lon="4.80816">
        <ele>170</ele>
        <time>2024-09-20T07:55:30Z</time>
      </trkpt>
      <trkpt lat="45.89396" lon="4.80818">
        <ele>170</ele>
        <time>2024-09-20T07:55:31Z</time>
      </trkpt>
      <trkpt lat="45.89392" lon="4.8082">
        <ele>170.2</ele>
        <time>2024-09-20T07:55:32Z</time>
      </trkpt>
      <trkpt lat="45.89388" lon="4.80823">
        <ele>170.2</ele>
        <time>2024-09-20T07:55:33Z</time>
      </trkpt>
      <trkpt lat="45.89384" lon="4.80825">
        <ele>170.2</ele>
        <time>2024-09-20T07:55:34Z</time>
      </trkpt>
      <trkpt lat="45.8938" lon="4.80827">
        <ele>170.2</ele>
        <time>2024-09-20T07:55:35Z</time>
      </trkpt>
      <trkpt lat="45.89376" lon="4.80829">
        <ele>170.2</ele>
        <time>2024-09-20T07:55:36Z</time>
      </trkpt>
      <trkpt lat="45.89371" lon="4.80832">
        <ele>170.2</ele>
        <time>2024-09-20T07:55:37Z</time>
      </trkpt>
      <trkpt lat="45.89367" lon="4.80834">
        <ele>170.2</ele>
        <time>2024-09-20T07:55:38Z</time>
      </trkpt>
      <trkpt lat="45.89363" lon="4.80836">
        <ele>170.2</ele>
        <time>2024-09-20T07:55:39Z</time>
      </trkpt>
      <trkpt lat="45.89359" lon="4.80838">
        <ele>170.2</ele>
        <time>2024-09-20T07:55:40Z</time>
      </trkpt>
      <trkpt lat="45.89355" lon="4.8084">
        <ele>170.2</ele>
        <time>2024-09-20T07:55:41Z</time>
      </trkpt>
      <trkpt lat="45.89351" lon="4.80842">
        <ele>170.2</ele>
        <time>2024-09-20T07:55:42Z</time>
      </trkpt>
      <trkpt lat="45.89347" lon="4.80845">
        <ele>170.2</ele>
        <time>2024-09-20T07:55:43Z</time>
      </trkpt>
      <trkpt lat="45.89343" lon="4.80847">
        <ele>170.2</ele>
        <time>2024-09-20T07:55:44Z</time>
      </trkpt>
      <trkpt lat="45.89339" lon="4.8085">
        <ele>170.2</ele>
        <time>2024-09-20T07:55:45Z</time>
      </trkpt>
      <trkpt lat="45.89335" lon="4.80852">
        <ele>170.2</ele>
        <time>2024-09-20T07:55:46Z</time>
      </trkpt>
      <trkpt lat="45.89331" lon="4.80854">
        <ele>170.2</ele>
        <time>2024-09-20T07:55:47Z</time>
      </trkpt>
      <trkpt lat="45.89327" lon="4.80857">
        <ele>170.2</ele>
        <time>2024-09-20T07:55:48Z</time>
      </trkpt>
      <trkpt lat="45.89324" lon="4.80859">
        <ele>170.2</ele>
        <time>2024-09-20T07:55:49Z</time>
      </trkpt>
      <trkpt lat="45.8932" lon="4.80861">
        <ele>170</ele>
        <time>2024-09-20T07:55:50Z</time>
      </trkpt>
      <trkpt lat="45.89316" lon="4.80863">
        <ele>170</ele>
        <time>2024-09-20T07:55:51Z</time>
      </trkpt>
      <trkpt lat="45.89312" lon="4.80866">
        <ele>170</ele>
        <time>2024-09-20T07:55:52Z</time>
      </trkpt>
      <trkpt lat="45.89308" lon="4.80868">
        <ele>170</ele>
        <time>2024-09-20T07:55:53Z</time>
      </trkpt>
      <trkpt lat="45.89304" lon="4.8087">
        <ele>170</ele>
        <time>2024-09-20T07:55:54Z</time>
      </trkpt>
      <trkpt lat="45.89299" lon="4.80873">
        <ele>170.4</ele>
        <time>2024-09-20T07:55:55Z</time>
      </trkpt>
      <trkpt lat="45.89295" lon="4.80875">
        <ele>170.4</ele>
        <time>2024-09-20T07:55:56Z</time>
      </trkpt>
      <trkpt lat="45.89291" lon="4.80878">
        <ele>170.4</ele>
        <time>2024-09-20T07:55:57Z</time>
      </trkpt>
      <trkpt lat="45.89287" lon="4.8088">
        <ele>170.4</ele>
        <time>2024-09-20T07:55:58Z</time>
      </trkpt>
      <trkpt lat="45.89283" lon="4.80882">
        <ele>170.2</ele>
        <time>2024-09-20T07:55:59Z</time>
      </trkpt>
      <trkpt lat="45.89278" lon="4.80885">
        <ele>170.2</ele>
        <time>2024-09-20T07:56:00Z</time>
      </trkpt>
      <trkpt lat="45.89274" lon="4.80887">
        <ele>170.2</ele>
        <time>2024-09-20T07:56:01Z</time>
      </trkpt>
      <trkpt lat="45.8927" lon="4.8089">
        <ele>170.2</ele>
        <time>2024-09-20T07:56:02Z</time>
      </trkpt>
      <trkpt lat="45.89266" lon="4.80892">
        <ele>170.2</ele>
        <time>2024-09-20T07:56:03Z</time>
      </trkpt>
      <trkpt lat="45.89263" lon="4.80895">
        <ele>170.4</ele>
        <time>2024-09-20T07:56:04Z</time>
      </trkpt>
      <trkpt lat="45.89259" lon="4.80898">
        <ele>170.4</ele>
        <time>2024-09-20T07:56:05Z</time>
      </trkpt>
      <trkpt lat="45.89255" lon="4.80901">
        <ele>170.4</ele>
        <time>2024-09-20T07:56:06Z</time>
      </trkpt>
      <trkpt lat="45.89251" lon="4.80904">
        <ele>170.4</ele>
        <time>2024-09-20T07:56:07Z</time>
      </trkpt>
      <trkpt lat="45.89247" lon="4.80908">
        <ele>170.4</ele>
        <time>2024-09-20T07:56:08Z</time>
      </trkpt>
      <trkpt lat="45.89243" lon="4.80911">
        <ele>170.2</ele>
        <time>2024-09-20T07:56:09Z</time>
      </trkpt>
      <trkpt lat="45.8924" lon="4.80915">
        <ele>170.2</ele>
        <time>2024-09-20T07:56:10Z</time>
      </trkpt>
      <trkpt lat="45.89237" lon="4.8092">
        <ele>170.2</ele>
        <time>2024-09-20T07:56:11Z</time>
      </trkpt>
      <trkpt lat="45.89235" lon="4.80924">
        <ele>170.4</ele>
        <time>2024-09-20T07:56:12Z</time>
      </trkpt>
      <trkpt lat="45.89233" lon="4.80928">
        <ele>170.4</ele>
        <time>2024-09-20T07:56:13Z</time>
      </trkpt>
      <trkpt lat="45.8923" lon="4.80931">
        <ele>170.6</ele>
        <time>2024-09-20T07:56:14Z</time>
      </trkpt>
      <trkpt lat="45.89227" lon="4.80932">
        <ele>170.6</ele>
        <time>2024-09-20T07:56:15Z</time>
      </trkpt>
      <trkpt lat="45.89224" lon="4.80933">
        <ele>170.6</ele>
        <time>2024-09-20T07:56:16Z</time>
      </trkpt>
      <trkpt lat="45.8922" lon="4.80934">
        <ele>171.4</ele>
        <time>2024-09-20T07:56:17Z</time>
      </trkpt>
      <trkpt lat="45.89218" lon="4.80935">
        <ele>171.6</ele>
        <time>2024-09-20T07:56:18Z</time>
      </trkpt>
      <trkpt lat="45.89215" lon="4.80937">
        <ele>171.6</ele>
        <time>2024-09-20T07:56:19Z</time>
      </trkpt>
      <trkpt lat="45.89213" lon="4.80939">
        <ele>171.6</ele>
        <time>2024-09-20T07:56:20Z</time>
      </trkpt>
      <trkpt lat="45.8921" lon="4.8094">
        <ele>171.8</ele>
        <time>2024-09-20T07:56:21Z</time>
      </trkpt>
      <trkpt lat="45.89208" lon="4.80941">
        <ele>171.8</ele>
        <time>2024-09-20T07:56:22Z</time>
      </trkpt>
      <trkpt lat="45.89207" lon="4.80941">
        <ele>171.8</ele>
        <time>2024-09-20T07:56:23Z</time>
      </trkpt>
      <trkpt lat="45.89206" lon="4.80941">
        <ele>171.8</ele>
        <time>2024-09-20T07:56:24Z</time>
      </trkpt>
      <trkpt lat="45.89206" lon="4.80941">
        <ele>171.8</ele>
        <time>2024-09-20T07:56:25Z</time>
      </trkpt>
      <trkpt lat="45.89203" lon="4.80945">
        <ele>172</ele>
        <time>2024-09-20T07:57:39Z</time>
      </trkpt>
      <trkpt lat="45.89201" lon="4.80946">
        <ele>172</ele>
        <time>2024-09-20T07:57:40Z</time>
      </trkpt>
      <trkpt lat="45.89199" lon="4.80947">
        <ele>172</ele>
        <time>2024-09-20T07:57:41Z</time>
      </trkpt>
      <trkpt lat="45.89197" lon="4.80949">
        <ele>172.2</ele>
        <time>2024-09-20T07:57:42Z</time>
      </trkpt>
      <trkpt lat="45.89194" lon="4.80951">
        <ele>172</ele>
        <time>2024-09-20T07:57:43Z</time>
      </trkpt>
      <trkpt lat="45.89192" lon="4.80953">
        <ele>172</ele>
        <time>2024-09-20T07:57:44Z</time>
      </trkpt>
      <trkpt lat="45.89189" lon="4.80955">
        <ele>172</ele>
        <time>2024-09-20T07:57:45Z</time>
      </trkpt>
      <trkpt lat="45.89186" lon="4.80957">
        <ele>172</ele>
        <time>2024-09-20T07:57:46Z</time>
      </trkpt>
      <trkpt lat="45.89182" lon="4.8096">
        <ele>172</ele>
        <time>2024-09-20T07:57:47Z</time>
      </trkpt>
      <trkpt lat="45.89179" lon="4.80962">
        <ele>172</ele>
        <time>2024-09-20T07:57:48Z</time>
      </trkpt>
      <trkpt lat="45.89175" lon="4.80964">
        <ele>172</ele>
        <time>2024-09-20T07:57:49Z</time>
      </trkpt>
      <trkpt lat="45.89172" lon="4.80967">
        <ele>172</ele>
        <time>2024-09-20T07:57:50Z</time>
      </trkpt>
      <trkpt lat="45.89168" lon="4.8097">
        <ele>172</ele>
        <time>2024-09-20T07:57:51Z</time>
      </trkpt>
      <trkpt lat="45.89164" lon="4.80972">
        <ele>172.2</ele>
        <time>2024-09-20T07:57:52Z</time>
      </trkpt>
      <trkpt lat="45.89161" lon="4.80975">
        <ele>172.2</ele>
        <time>2024-09-20T07:57:53Z</time>
      </trkpt>
      <trkpt lat="45.89157" lon="4.80978">
        <ele>172.2</ele>
        <time>2024-09-20T07:57:54Z</time>
      </trkpt>
      <trkpt lat="45.89153" lon="4.80981">
        <ele>172.4</ele>
        <time>2024-09-20T07:57:55Z</time>
      </trkpt>
      <trkpt lat="45.89149" lon="4.80984">
        <ele>172.2</ele>
        <time>2024-09-20T07:57:56Z</time>
      </trkpt>
      <trkpt lat="45.89145" lon="4.80987">
        <ele>172.2</ele>
        <time>2024-09-20T07:57:57Z</time>
      </trkpt>
      <trkpt lat="45.89141" lon="4.8099">
        <ele>172.2</ele>
        <time>2024-09-20T07:57:58Z</time>
      </trkpt>
      <trkpt lat="45.89137" lon="4.80993">
        <ele>172.2</ele>
        <time>2024-09-20T07:57:59Z</time>
      </trkpt>
      <trkpt lat="45.89133" lon="4.80995">
        <ele>172.2</ele>
        <time>2024-09-20T07:58:00Z</time>
      </trkpt>
      <trkpt lat="45.89129" lon="4.80998">
        <ele>172.2</ele>
        <time>2024-09-20T07:58:01Z</time>
      </trkpt>
      <trkpt lat="45.89125" lon="4.81001">
        <ele>172.2</ele>
        <time>2024-09-20T07:58:02Z</time>
      </trkpt>
      <trkpt lat="45.89121" lon="4.81004">
        <ele>172.2</ele>
        <time>2024-09-20T07:58:03Z</time>
      </trkpt>
      <trkpt lat="45.89117" lon="4.81007">
        <ele>172.2</ele>
        <time>2024-09-20T07:58:04Z</time>
      </trkpt>
      <trkpt lat="45.89113" lon="4.8101">
        <ele>172.2</ele>
        <time>2024-09-20T07:58:05Z</time>
      </trkpt>
      <trkpt lat="45.89108" lon="4.81013">
        <ele>172.2</ele>
        <time>2024-09-20T07:58:06Z</time>
      </trkpt>
      <trkpt lat="45.89104" lon="4.81016">
        <ele>172</ele>
        <time>2024-09-20T07:58:07Z</time>
      </trkpt>
      <trkpt lat="45.891" lon="4.81019">
        <ele>172</ele>
        <time>2024-09-20T07:58:08Z</time>
      </trkpt>
      <trkpt lat="45.89095" lon="4.81022">
        <ele>172.2</ele>
        <time>2024-09-20T07:58:09Z</time>
      </trkpt>
      <trkpt lat="45.89091" lon="4.81026">
        <ele>172.2</ele>
        <time>2024-09-20T07:58:10Z</time>
      </trkpt>
      <trkpt lat="45.89086" lon="4.81029">
        <ele>172.4</ele>
        <time>2024-09-20T07:58:11Z</time>
      </trkpt>
      <trkpt lat="45.89082" lon="4.81032">
        <ele>172.4</ele>
        <time>2024-09-20T07:58:12Z</time>
      </trkpt>
      <trkpt lat="45.89078" lon="4.81035">
        <ele>172.4</ele>
        <time>2024-09-20T07:58:13Z</time>
      </trkpt>
      <trkpt lat="45.89073" lon="4.81038">
        <ele>172.4</ele>
        <time>2024-09-20T07:58:14Z</time>
      </trkpt>
      <trkpt lat="45.89069" lon="4.81042">
        <ele>172.2</ele>
        <time>2024-09-20T07:58:15Z</time>
      </trkpt>
      <trkpt lat="45.89065" lon="4.81045">
        <ele>172.2</ele>
        <time>2024-09-20T07:58:16Z</time>
      </trkpt>
      <trkpt lat="45.8906" lon="4.81048">
        <ele>172.2</ele>
        <time>2024-09-20T07:58:17Z</time>
      </trkpt>
      <trkpt lat="45.89056" lon="4.81051">
        <ele>172.4</ele>
        <time>2024-09-20T07:58:18Z</time>
      </trkpt>
      <trkpt lat="45.89052" lon="4.81054">
        <ele>172.4</ele>
        <time>2024-09-20T07:58:19Z</time>
      </trkpt>
      <trkpt lat="45.89048" lon="4.81058">
        <ele>172.4</ele>
        <time>2024-09-20T07:58:20Z</time>
      </trkpt>
      <trkpt lat="45.89044" lon="4.81061">
        <ele>172.4</ele>
        <time>2024-09-20T07:58:21Z</time>
      </trkpt>
      <trkpt lat="45.8904" lon="4.81064">
        <ele>172.4</ele>
        <time>2024-09-20T07:58:22Z</time>
      </trkpt>
      <trkpt lat="45.89036" lon="4.81068">
        <ele>172.4</ele>
        <time>2024-09-20T07:58:23Z</time>
      </trkpt>
      <trkpt lat="45.89032" lon="4.81071">
        <ele>172.4</ele>
        <time>2024-09-20T07:58:24Z</time>
      </trkpt>
      <trkpt lat="45.89029" lon="4.81074">
        <ele>172.4</ele>
        <time>2024-09-20T07:58:25Z</time>
      </trkpt>
      <trkpt lat="45.89025" lon="4.81076">
        <ele>172.4</ele>
        <time>2024-09-20T07:58:26Z</time>
      </trkpt>
      <trkpt lat="45.89023" lon="4.81077">
        <ele>172.2</ele>
        <time>2024-09-20T07:58:27Z</time>
      </trkpt>
      <trkpt lat="45.89021" lon="4.81078">
        <ele>172.2</ele>
        <time>2024-09-20T07:58:28Z</time>
      </trkpt>
      <trkpt lat="45.8902" lon="4.81079">
        <ele>172.2</ele>
        <time>2024-09-20T07:58:29Z</time>
      </trkpt>
      <trkpt lat="45.8902" lon="4.81079">
        <ele>172.2</ele>
        <time>2024-09-20T07:58:30Z</time>
      </trkpt>
      <trkpt lat="45.89016" lon="4.81082">
        <ele>172.4</ele>
        <time>2024-09-20T07:58:59Z</time>
      </trkpt>
      <trkpt lat="45.89014" lon="4.81084">
        <ele>172.4</ele>
        <time>2024-09-20T07:59:00Z</time>
      </trkpt>
      <trkpt lat="45.89012" lon="4.81085">
        <ele>172.6</ele>
        <time>2024-09-20T07:59:01Z</time>
      </trkpt>
      <trkpt lat="45.89009" lon="4.81087">
        <ele>172.6</ele>
        <time>2024-09-20T07:59:02Z</time>
      </trkpt>
      <trkpt lat="45.89007" lon="4.8109">
        <ele>172.6</ele>
        <time>2024-09-20T07:59:03Z</time>
      </trkpt>
      <trkpt lat="45.89004" lon="4.81092">
        <ele>172.6</ele>
        <time>2024-09-20T07:59:04Z</time>
      </trkpt>
      <trkpt lat="45.89001" lon="4.81094">
        <ele>172.6</ele>
        <time>2024-09-20T07:59:05Z</time>
      </trkpt>
      <trkpt lat="45.88998" lon="4.81096">
        <ele>172.6</ele>
        <time>2024-09-20T07:59:06Z</time>
      </trkpt>
      <trkpt lat="45.88995" lon="4.81099">
        <ele>172.6</ele>
        <time>2024-09-20T07:59:07Z</time>
      </trkpt>
      <trkpt lat="45.88992" lon="4.81101">
        <ele>172.6</ele>
        <time>2024-09-20T07:59:08Z</time>
      </trkpt>
      <trkpt lat="45.88989" lon="4.81104">
        <ele>172.6</ele>
        <time>2024-09-20T07:59:09Z</time>
      </trkpt>
      <trkpt lat="45.88986" lon="4.81106">
        <ele>172.6</ele>
        <time>2024-09-20T07:59:10Z</time>
      </trkpt>
      <trkpt lat="45.88983" lon="4.81108">
        <ele>172.6</ele>
        <time>2024-09-20T07:59:11Z</time>
      </trkpt>
      <trkpt lat="45.88979" lon="4.8111">
        <ele>172.8</ele>
        <time>2024-09-20T07:59:12Z</time>
      </trkpt>
      <trkpt lat="45.88976" lon="4.81113">
        <ele>172.8</ele>
        <time>2024-09-20T07:59:13Z</time>
      </trkpt>
      <trkpt lat="45.88972" lon="4.81115">
        <ele>172.8</ele>
        <time>2024-09-20T07:59:14Z</time>
      </trkpt>
      <trkpt lat="45.88968" lon="4.81118">
        <ele>172.6</ele>
        <time>2024-09-20T07:59:15Z</time>
      </trkpt>
      <trkpt lat="45.88965" lon="4.81121">
        <ele>172.6</ele>
        <time>2024-09-20T07:59:16Z</time>
      </trkpt>
      <trkpt lat="45.88961" lon="4.81124">
        <ele>172.6</ele>
        <time>2024-09-20T07:59:17Z</time>
      </trkpt>
      <trkpt lat="45.88957" lon="4.81126">
        <ele>172.6</ele>
        <time>2024-09-20T07:59:18Z</time>
      </trkpt>
      <trkpt lat="45.88953" lon="4.81129">
        <ele>172.6</ele>
        <time>2024-09-20T07:59:19Z</time>
      </trkpt>
      <trkpt lat="45.88949" lon="4.81132">
        <ele>172.4</ele>
        <time>2024-09-20T07:59:20Z</time>
      </trkpt>
      <trkpt lat="45.88945" lon="4.81135">
        <ele>172.6</ele>
        <time>2024-09-20T07:59:21Z</time>
      </trkpt>
      <trkpt lat="45.88941" lon="4.81138">
        <ele>172.6</ele>
        <time>2024-09-20T07:59:22Z</time>
      </trkpt>
      <trkpt lat="45.88937" lon="4.81141">
        <ele>172.6</ele>
        <time>2024-09-20T07:59:23Z</time>
      </trkpt>
      <trkpt lat="45.88932" lon="4.81144">
        <ele>172.6</ele>
        <time>2024-09-20T07:59:24Z</time>
      </trkpt>
      <trkpt lat="45.88928" lon="4.81147">
        <ele>172.6</ele>
        <time>2024-09-20T07:59:25Z</time>
      </trkpt>
      <trkpt lat="45.88924" lon="4.8115">
        <ele>172.6</ele>
        <time>2024-09-20T07:59:26Z</time>
      </trkpt>
      <trkpt lat="45.8892" lon="4.81153">
        <ele>172.6</ele>
        <time>2024-09-20T07:59:27Z</time>
      </trkpt>
      <trkpt lat="45.88916" lon="4.81156">
        <ele>172.6</ele>
        <time>2024-09-20T07:59:28Z</time>
      </trkpt>
      <trkpt lat="45.88912" lon="4.81159">
        <ele>172.6</ele>
        <time>2024-09-20T07:59:29Z</time>
      </trkpt>
      <trkpt lat="45.88908" lon="4.81162">
        <ele>172.6</ele>
        <time>2024-09-20T07:59:30Z</time>
      </trkpt>
      <trkpt lat="45.88904" lon="4.81166">
        <ele>172.6</ele>
        <time>2024-09-20T07:59:31Z</time>
      </trkpt>
      <trkpt lat="45.88899" lon="4.81169">
        <ele>172.6</ele>
        <time>2024-09-20T07:59:32Z</time>
      </trkpt>
      <trkpt lat="45.88895" lon="4.81173">
        <ele>172.6</ele>
        <time>2024-09-20T07:59:33Z</time>
      </trkpt>
      <trkpt lat="45.88891" lon="4.81176">
        <ele>172.8</ele>
        <time>2024-09-20T07:59:34Z</time>
      </trkpt>
      <trkpt lat="45.88887" lon="4.81179">
        <ele>172.8</ele>
        <time>2024-09-20T07:59:35Z</time>
      </trkpt>
      <trkpt lat="45.88883" lon="4.81182">
        <ele>172.8</ele>
        <time>2024-09-20T07:59:36Z</time>
      </trkpt>
      <trkpt lat="45.88879" lon="4.81186">
        <ele>172.8</ele>
        <time>2024-09-20T07:59:37Z</time>
      </trkpt>
      <trkpt lat="45.88875" lon="4.81189">
        <ele>172.8</ele>
        <time>2024-09-20T07:59:38Z</time>
      </trkpt>
      <trkpt lat="45.88872" lon="4.81193">
        <ele>172.8</ele>
        <time>2024-09-20T07:59:39Z</time>
      </trkpt>
      <trkpt lat="45.88868" lon="4.81197">
        <ele>172.8</ele>
        <time>2024-09-20T07:59:40Z</time>
      </trkpt>
      <trkpt lat="45.88864" lon="4.812">
        <ele>172.8</ele>
        <time>2024-09-20T07:59:41Z</time>
      </trkpt>
      <trkpt lat="45.88859" lon="4.81204">
        <ele>172.8</ele>
        <time>2024-09-20T07:59:42Z</time>
      </trkpt>
      <trkpt lat="45.88855" lon="4.81207">
        <ele>172.6</ele>
        <time>2024-09-20T07:59:43Z</time>
      </trkpt>
      <trkpt lat="45.88851" lon="4.8121">
        <ele>172.6</ele>
        <time>2024-09-20T07:59:44Z</time>
      </trkpt>
      <trkpt lat="45.88847" lon="4.81214">
        <ele>172.6</ele>
        <time>2024-09-20T07:59:45Z</time>
      </trkpt>
      <trkpt lat="45.88843" lon="4.81218">
        <ele>172.8</ele>
        <time>2024-09-20T07:59:46Z</time>
      </trkpt>
      <trkpt lat="45.88839" lon="4.81222">
        <ele>172.8</ele>
        <time>2024-09-20T07:59:47Z</time>
      </trkpt>
      <trkpt lat="45.88835" lon="4.81225">
        <ele>172.8</ele>
        <time>2024-09-20T07:59:48Z</time>
      </trkpt>
      <trkpt lat="45.88831" lon="4.81229">
        <ele>172.8</ele>
        <time>2024-09-20T07:59:49Z</time>
      </trkpt>
      <trkpt lat="45.88827" lon="4.81233">
        <ele>172.8</ele>
        <time>2024-09-20T07:59:50Z</time>
      </trkpt>
      <trkpt lat="45.88823" lon="4.81237">
        <ele>172.8</ele>
        <time>2024-09-20T07:59:51Z</time>
      </trkpt>
      <trkpt lat="45.88819" lon="4.81241">
        <ele>172.6</ele>
        <time>2024-09-20T07:59:52Z</time>
      </trkpt>
      <trkpt lat="45.88816" lon="4.81245">
        <ele>172.6</ele>
        <time>2024-09-20T07:59:53Z</time>
      </trkpt>
      <trkpt lat="45.88812" lon="4.81249">
        <ele>172.6</ele>
        <time>2024-09-20T07:59:54Z</time>
      </trkpt>
      <trkpt lat="45.88808" lon="4.81253">
        <ele>172.6</ele>
        <time>2024-09-20T07:59:55Z</time>
      </trkpt>
      <trkpt lat="45.88803" lon="4.81257">
        <ele>173</ele>
        <time>2024-09-20T07:59:56Z</time>
      </trkpt>
      <trkpt lat="45.88799" lon="4.81261">
        <ele>173</ele>
        <time>2024-09-20T07:59:57Z</time>
      </trkpt>
      <trkpt lat="45.88795" lon="4.81266">
        <ele>173</ele>
        <time>2024-09-20T07:59:58Z</time>
      </trkpt>
      <trkpt lat="45.88791" lon="4.8127">
        <ele>173</ele>
        <time>2024-09-20T07:59:59Z</time>
      </trkpt>
      <trkpt lat="45.88787" lon="4.81275">
        <ele>173</ele>
        <time>2024-09-20T08:00:00Z</time>
      </trkpt>
      <trkpt lat="45.88783" lon="4.81279">
        <ele>173</ele>
        <time>2024-09-20T08:00:01Z</time>
      </trkpt>
      <trkpt lat="45.88779" lon="4.81283">
        <ele>173</ele>
        <time>2024-09-20T08:00:02Z</time>
      </trkpt>
      <trkpt lat="45.88776" lon="4.81288">
        <ele>173</ele>
        <time>2024-09-20T08:00:03Z</time>
      </trkpt>
      <trkpt lat="45.88772" lon="4.81292">
        <ele>173</ele>
        <time>2024-09-20T08:00:04Z</time>
      </trkpt>
      <trkpt lat="45.88768" lon="4.81296">
        <ele>173</ele>
        <time>2024-09-20T08:00:05Z</time>
      </trkpt>
      <trkpt lat="45.88764" lon="4.813">
        <ele>173</ele>
        <time>2024-09-20T08:00:06Z</time>
      </trkpt>
      <trkpt lat="45.8876" lon="4.81305">
        <ele>173</ele>
        <time>2024-09-20T08:00:07Z</time>
      </trkpt>
      <trkpt lat="45.88757" lon="4.81309">
        <ele>173</ele>
        <time>2024-09-20T08:00:08Z</time>
      </trkpt>
      <trkpt lat="45.88753" lon="4.81314">
        <ele>173.2</ele>
        <time>2024-09-20T08:00:09Z</time>
      </trkpt>
      <trkpt lat="45.88749" lon="4.81319">
        <ele>173.2</ele>
        <time>2024-09-20T08:00:10Z</time>
      </trkpt>
      <trkpt lat="45.88745" lon="4.81323">
        <ele>173.2</ele>
        <time>2024-09-20T08:00:11Z</time>
      </trkpt>
      <trkpt lat="45.88742" lon="4.81328">
        <ele>173.2</ele>
        <time>2024-09-20T08:00:12Z</time>
      </trkpt>
      <trkpt lat="45.88738" lon="4.81333">
        <ele>173.2</ele>
        <time>2024-09-20T08:00:13Z</time>
      </trkpt>
      <trkpt lat="45.88734" lon="4.81337">
        <ele>173.2</ele>
        <time>2024-09-20T08:00:14Z</time>
      </trkpt>
      <trkpt lat="45.8873" lon="4.81342">
        <ele>173.4</ele>
        <time>2024-09-20T08:00:15Z</time>
      </trkpt>
      <trkpt lat="45.88727" lon="4.81346">
        <ele>173.4</ele>
        <time>2024-09-20T08:00:16Z</time>
      </trkpt>
      <trkpt lat="45.88723" lon="4.81351">
        <ele>173.4</ele>
        <time>2024-09-20T08:00:17Z</time>
      </trkpt>
      <trkpt lat="45.88719" lon="4.81356">
        <ele>173.2</ele>
        <time>2024-09-20T08:00:18Z</time>
      </trkpt>
      <trkpt lat="45.88716" lon="4.8136">
        <ele>173.2</ele>
        <time>2024-09-20T08:00:19Z</time>
      </trkpt>
      <trkpt lat="45.88712" lon="4.81365">
        <ele>173.2</ele>
        <time>2024-09-20T08:00:20Z</time>
      </trkpt>
      <trkpt lat="45.88709" lon="4.8137">
        <ele>173.2</ele>
        <time>2024-09-20T08:00:21Z</time>
      </trkpt>
      <trkpt lat="45.88706" lon="4.81374">
        <ele>173.2</ele>
        <time>2024-09-20T08:00:22Z</time>
      </trkpt>
      <trkpt lat="45.88702" lon="4.81379">
        <ele>173.2</ele>
        <time>2024-09-20T08:00:23Z</time>
      </trkpt>
      <trkpt lat="45.88699" lon="4.81384">
        <ele>173.2</ele>
        <time>2024-09-20T08:00:24Z</time>
      </trkpt>
      <trkpt lat="45.88695" lon="4.81389">
        <ele>173.2</ele>
        <time>2024-09-20T08:00:25Z</time>
      </trkpt>
      <trkpt lat="45.88692" lon="4.81393">
        <ele>173.2</ele>
        <time>2024-09-20T08:00:26Z</time>
      </trkpt>
      <trkpt lat="45.88688" lon="4.81397">
        <ele>173</ele>
        <time>2024-09-20T08:00:27Z</time>
      </trkpt>
      <trkpt lat="45.88685" lon="4.81402">
        <ele>173</ele>
        <time>2024-09-20T08:00:28Z</time>
      </trkpt>
      <trkpt lat="45.88681" lon="4.81407">
        <ele>173</ele>
        <time>2024-09-20T08:00:29Z</time>
      </trkpt>
      <trkpt lat="45.88678" lon="4.81411">
        <ele>173</ele>
        <time>2024-09-20T08:00:30Z</time>
      </trkpt>
      <trkpt lat="45.88674" lon="4.81416">
        <ele>173</ele>
        <time>2024-09-20T08:00:31Z</time>
      </trkpt>
      <trkpt lat="45.88671" lon="4.81421">
        <ele>173</ele>
        <time>2024-09-20T08:00:32Z</time>
      </trkpt>
      <trkpt lat="45.88668" lon="4.81426">
        <ele>173</ele>
        <time>2024-09-20T08:00:33Z</time>
      </trkpt>
      <trkpt lat="45.88664" lon="4.8143">
        <ele>173</ele>
        <time>2024-09-20T08:00:34Z</time>
      </trkpt>
      <trkpt lat="45.88661" lon="4.81434">
        <ele>173</ele>
        <time>2024-09-20T08:00:35Z</time>
      </trkpt>
      <trkpt lat="45.88657" lon="4.81438">
        <ele>173</ele>
        <time>2024-09-20T08:00:36Z</time>
      </trkpt>
      <trkpt lat="45.88654" lon="4.81441">
        <ele>173</ele>
        <time>2024-09-20T08:00:37Z</time>
      </trkpt>
      <trkpt lat="45.88651" lon="4.81445">
        <ele>173</ele>
        <time>2024-09-20T08:00:38Z</time>
      </trkpt>
      <trkpt lat="45.88647" lon="4.81449">
        <ele>173</ele>
        <time>2024-09-20T08:00:39Z</time>
      </trkpt>
      <trkpt lat="45.88644" lon="4.81454">
        <ele>173</ele>
        <time>2024-09-20T08:00:40Z</time>
      </trkpt>
      <trkpt lat="45.88641" lon="4.81458">
        <ele>172.8</ele>
        <time>2024-09-20T08:00:41Z</time>
      </trkpt>
      <trkpt lat="45.88638" lon="4.81462">
        <ele>172.8</ele>
        <time>2024-09-20T08:00:42Z</time>
      </trkpt>
      <trkpt lat="45.88634" lon="4.81466">
        <ele>172.8</ele>
        <time>2024-09-20T08:00:43Z</time>
      </trkpt>
      <trkpt lat="45.88631" lon="4.81471">
        <ele>173</ele>
        <time>2024-09-20T08:00:44Z</time>
      </trkpt>
      <trkpt lat="45.88628" lon="4.81475">
        <ele>173</ele>
        <time>2024-09-20T08:00:45Z</time>
      </trkpt>
      <trkpt lat="45.88624" lon="4.81479">
        <ele>173</ele>
        <time>2024-09-20T08:00:46Z</time>
      </trkpt>
      <trkpt lat="45.88621" lon="4.81484">
        <ele>173</ele>
        <time>2024-09-20T08:00:47Z</time>
      </trkpt>
      <trkpt lat="45.88618" lon="4.81488">
        <ele>173</ele>
        <time>2024-09-20T08:00:48Z</time>
      </trkpt>
      <trkpt lat="45.88615" lon="4.81492">
        <ele>173</ele>
        <time>2024-09-20T08:00:49Z</time>
      </trkpt>
      <trkpt lat="45.88611" lon="4.81497">
        <ele>173</ele>
        <time>2024-09-20T08:00:50Z</time>
      </trkpt>
      <trkpt lat="45.88608" lon="4.81501">
        <ele>173</ele>
        <time>2024-09-20T08:00:51Z</time>
      </trkpt>
      <trkpt lat="45.88605" lon="4.81505">
        <ele>173</ele>
        <time>2024-09-20T08:00:52Z</time>
      </trkpt>
      <trkpt lat="45.88601" lon="4.81509">
        <ele>173</ele>
        <time>2024-09-20T08:00:53Z</time>
      </trkpt>
      <trkpt lat="45.88598" lon="4.81513">
        <ele>172.8</ele>
        <time>2024-09-20T08:00:54Z</time>
      </trkpt>
      <trkpt lat="45.88595" lon="4.81518">
        <ele>172.8</ele>
        <time>2024-09-20T08:00:55Z</time>
      </trkpt>
      <trkpt lat="45.88591" lon="4.81522">
        <ele>172.8</ele>
        <time>2024-09-20T08:00:56Z</time>
      </trkpt>
      <trkpt lat="45.88588" lon="4.81527">
        <ele>172.8</ele>
        <time>2024-09-20T08:00:57Z</time>
      </trkpt>
      <trkpt lat="45.88584" lon="4.81531">
        <ele>172.6</ele>
        <time>2024-09-20T08:00:58Z</time>
      </trkpt>
      <trkpt lat="45.88581" lon="4.81536">
        <ele>172.6</ele>
        <time>2024-09-20T08:00:59Z</time>
      </trkpt>
      <trkpt lat="45.88578" lon="4.8154">
        <ele>172.6</ele>
        <time>2024-09-20T08:01:00Z</time>
      </trkpt>
      <trkpt lat="45.88574" lon="4.81545">
        <ele>172.8</ele>
        <time>2024-09-20T08:01:01Z</time>
      </trkpt>
      <trkpt lat="45.88571" lon="4.81549">
        <ele>173</ele>
        <time>2024-09-20T08:01:02Z</time>
      </trkpt>
      <trkpt lat="45.88568" lon="4.81553">
        <ele>173</ele>
        <time>2024-09-20T08:01:03Z</time>
      </trkpt>
      <trkpt lat="45.88564" lon="4.81557">
        <ele>173</ele>
        <time>2024-09-20T08:01:04Z</time>
      </trkpt>
      <trkpt lat="45.88561" lon="4.81562">
        <ele>173</ele>
        <time>2024-09-20T08:01:05Z</time>
      </trkpt>
      <trkpt lat="45.88558" lon="4.81566">
        <ele>173</ele>
        <time>2024-09-20T08:01:06Z</time>
      </trkpt>
      <trkpt lat="45.88555" lon="4.8157">
        <ele>173</ele>
        <time>2024-09-20T08:01:07Z</time>
      </trkpt>
      <trkpt lat="45.88552" lon="4.81574">
        <ele>173</ele>
        <time>2024-09-20T08:01:08Z</time>
      </trkpt>
      <trkpt lat="45.88548" lon="4.81578">
        <ele>173</ele>
        <time>2024-09-20T08:01:09Z</time>
      </trkpt>
      <trkpt lat="45.88545" lon="4.81583">
        <ele>172.8</ele>
        <time>2024-09-20T08:01:10Z</time>
      </trkpt>
      <trkpt lat="45.88542" lon="4.81587">
        <ele>172.8</ele>
        <time>2024-09-20T08:01:11Z</time>
      </trkpt>
      <trkpt lat="45.88538" lon="4.81591">
        <ele>172.8</ele>
        <time>2024-09-20T08:01:12Z</time>
      </trkpt>
      <trkpt lat="45.88535" lon="4.81595">
        <ele>172.8</ele>
        <time>2024-09-20T08:01:13Z</time>
      </trkpt>
      <trkpt lat="45.88532" lon="4.81599">
        <ele>172.8</ele>
        <time>2024-09-20T08:01:14Z</time>
      </trkpt>
      <trkpt lat="45.88528" lon="4.81604">
        <ele>172.8</ele>
        <time>2024-09-20T08:01:15Z</time>
      </trkpt>
      <trkpt lat="45.88525" lon="4.81608">
        <ele>172.8</ele>
        <time>2024-09-20T08:01:16Z</time>
      </trkpt>
      <trkpt lat="45.88522" lon="4.81612">
        <ele>172.8</ele>
        <time>2024-09-20T08:01:17Z</time>
      </trkpt>
      <trkpt lat="45.88518" lon="4.81617">
        <ele>172.8</ele>
        <time>2024-09-20T08:01:18Z</time>
      </trkpt>
      <trkpt lat="45.88515" lon="4.81621">
        <ele>172.8</ele>
        <time>2024-09-20T08:01:19Z</time>
      </trkpt>
      <trkpt lat="45.88512" lon="4.81625">
        <ele>172.8</ele>
        <time>2024-09-20T08:01:20Z</time>
      </trkpt>
      <trkpt lat="45.88508" lon="4.81629">
        <ele>172.8</ele>
        <time>2024-09-20T08:01:21Z</time>
      </trkpt>
      <trkpt lat="45.88505" lon="4.81633">
        <ele>172.8</ele>
        <time>2024-09-20T08:01:22Z</time>
      </trkpt>
      <trkpt lat="45.88501" lon="4.81638">
        <ele>172.8</ele>
        <time>2024-09-20T08:01:23Z</time>
      </trkpt>
      <trkpt lat="45.88498" lon="4.81642">
        <ele>172.8</ele>
        <time>2024-09-20T08:01:24Z</time>
      </trkpt>
      <trkpt lat="45.88494" lon="4.81646">
        <ele>173</ele>
        <time>2024-09-20T08:01:25Z</time>
      </trkpt>
      <trkpt lat="45.88491" lon="4.8165">
        <ele>173</ele>
        <time>2024-09-20T08:01:26Z</time>
      </trkpt>
      <trkpt lat="45.88488" lon="4.81654">
        <ele>173</ele>
        <time>2024-09-20T08:01:27Z</time>
      </trkpt>
      <trkpt lat="45.88484" lon="4.81658">
        <ele>173</ele>
        <time>2024-09-20T08:01:28Z</time>
      </trkpt>
      <trkpt lat="45.88481" lon="4.81662">
        <ele>173</ele>
        <time>2024-09-20T08:01:29Z</time>
      </trkpt>
      <trkpt lat="45.88477" lon="4.81666">
        <ele>173</ele>
        <time>2024-09-20T08:01:30Z</time>
      </trkpt>
      <trkpt lat="45.88473" lon="4.81669">
        <ele>173</ele>
        <time>2024-09-20T08:01:31Z</time>
      </trkpt>
      <trkpt lat="45.8847" lon="4.81673">
        <ele>173</ele>
        <time>2024-09-20T08:01:32Z</time>
      </trkpt>
      <trkpt lat="45.88466" lon="4.81677">
        <ele>173</ele>
        <time>2024-09-20T08:01:33Z</time>
      </trkpt>
      <trkpt lat="45.88463" lon="4.81682">
        <ele>172.8</ele>
        <time>2024-09-20T08:01:34Z</time>
      </trkpt>
      <trkpt lat="45.8846" lon="4.81686">
        <ele>172.8</ele>
        <time>2024-09-20T08:01:35Z</time>
      </trkpt>
      <trkpt lat="45.88456" lon="4.81691">
        <ele>172.8</ele>
        <time>2024-09-20T08:01:36Z</time>
      </trkpt>
      <trkpt lat="45.88453" lon="4.81695">
        <ele>172.8</ele>
        <time>2024-09-20T08:01:37Z</time>
      </trkpt>
      <trkpt lat="45.88449" lon="4.817">
        <ele>172.8</ele>
        <time>2024-09-20T08:01:38Z</time>
      </trkpt>
      <trkpt lat="45.88446" lon="4.81705">
        <ele>172.8</ele>
        <time>2024-09-20T08:01:39Z</time>
      </trkpt>
      <trkpt lat="45.88443" lon="4.8171">
        <ele>172.8</ele>
        <time>2024-09-20T08:01:40Z</time>
      </trkpt>
      <trkpt lat="45.8844" lon="4.81715">
        <ele>172.8</ele>
        <time>2024-09-20T08:01:41Z</time>
      </trkpt>
      <trkpt lat="45.88437" lon="4.8172">
        <ele>172.8</ele>
        <time>2024-09-20T08:01:42Z</time>
      </trkpt>
      <trkpt lat="45.88435" lon="4.81725">
        <ele>173</ele>
        <time>2024-09-20T08:01:43Z</time>
      </trkpt>
      <trkpt lat="45.88432" lon="4.8173">
        <ele>173</ele>
        <time>2024-09-20T08:01:44Z</time>
      </trkpt>
      <trkpt lat="45.88429" lon="4.81734">
        <ele>173</ele>
        <time>2024-09-20T08:01:45Z</time>
      </trkpt>
      <trkpt lat="45.88425" lon="4.81738">
        <ele>172.8</ele>
        <time>2024-09-20T08:01:46Z</time>
      </trkpt>
      <trkpt lat="45.88422" lon="4.81742">
        <ele>172.8</ele>
        <time>2024-09-20T08:01:47Z</time>
      </trkpt>
      <trkpt lat="45.8842" lon="4.81746">
        <ele>172.8</ele>
        <time>2024-09-20T08:01:48Z</time>
      </trkpt>
      <trkpt lat="45.88417" lon="4.81751">
        <ele>172.8</ele>
        <time>2024-09-20T08:01:49Z</time>
      </trkpt>
      <trkpt lat="45.88414" lon="4.81755">
        <ele>172.8</ele>
        <time>2024-09-20T08:01:50Z</time>
      </trkpt>
      <trkpt lat="45.88412" lon="4.8176">
        <ele>173</ele>
        <time>2024-09-20T08:01:51Z</time>
      </trkpt>
      <trkpt lat="45.88409" lon="4.81764">
        <ele>173</ele>
        <time>2024-09-20T08:01:52Z</time>
      </trkpt>
      <trkpt lat="45.88407" lon="4.81769">
        <ele>173</ele>
        <time>2024-09-20T08:01:53Z</time>
      </trkpt>
      <trkpt lat="45.88404" lon="4.81774">
        <ele>173</ele>
        <time>2024-09-20T08:01:54Z</time>
      </trkpt>
      <trkpt lat="45.88401" lon="4.81779">
        <ele>173</ele>
        <time>2024-09-20T08:01:55Z</time>
      </trkpt>
      <trkpt lat="45.88399" lon="4.81784">
        <ele>173</ele>
        <time>2024-09-20T08:01:56Z</time>
      </trkpt>
      <trkpt lat="45.88397" lon="4.8179">
        <ele>172.6</ele>
        <time>2024-09-20T08:01:57Z</time>
      </trkpt>
      <trkpt lat="45.88394" lon="4.81794">
        <ele>172.6</ele>
        <time>2024-09-20T08:01:58Z</time>
      </trkpt>
      <trkpt lat="45.88392" lon="4.818">
        <ele>172.6</ele>
        <time>2024-09-20T08:01:59Z</time>
      </trkpt>
      <trkpt lat="45.88389" lon="4.81805">
        <ele>172.6</ele>
        <time>2024-09-20T08:02:00Z</time>
      </trkpt>
      <trkpt lat="45.88386" lon="4.8181">
        <ele>172.4</ele>
        <time>2024-09-20T08:02:01Z</time>
      </trkpt>
      <trkpt lat="45.88384" lon="4.81815">
        <ele>172.4</ele>
        <time>2024-09-20T08:02:02Z</time>
      </trkpt>
      <trkpt lat="45.88381" lon="4.8182">
        <ele>172.4</ele>
        <time>2024-09-20T08:02:03Z</time>
      </trkpt>
      <trkpt lat="45.88379" lon="4.81825">
        <ele>172.4</ele>
        <time>2024-09-20T08:02:04Z</time>
      </trkpt>
      <trkpt lat="45.88377" lon="4.8183">
        <ele>172.6</ele>
        <time>2024-09-20T08:02:05Z</time>
      </trkpt>
      <trkpt lat="45.88374" lon="4.81835">
        <ele>172.2</ele>
        <time>2024-09-20T08:02:06Z</time>
      </trkpt>
      <trkpt lat="45.88372" lon="4.81841">
        <ele>172.2</ele>
        <time>2024-09-20T08:02:07Z</time>
      </trkpt>
      <trkpt lat="45.8837" lon="4.81846">
        <ele>172.2</ele>
        <time>2024-09-20T08:02:08Z</time>
      </trkpt>
      <trkpt lat="45.88367" lon="4.81852">
        <ele>172.2</ele>
        <time>2024-09-20T08:02:09Z</time>
      </trkpt>
      <trkpt lat="45.88365" lon="4.81857">
        <ele>172.8</ele>
        <time>2024-09-20T08:02:10Z</time>
      </trkpt>
      <trkpt lat="45.88362" lon="4.81862">
        <ele>172.8</ele>
        <time>2024-09-20T08:02:11Z</time>
      </trkpt>
      <trkpt lat="45.8836" lon="4.81867">
        <ele>172.8</ele>
        <time>2024-09-20T08:02:12Z</time>
      </trkpt>
      <trkpt lat="45.88357" lon="4.81873">
        <ele>172.4</ele>
        <time>2024-09-20T08:02:13Z</time>
      </trkpt>
      <trkpt lat="45.88355" lon="4.81878">
        <ele>172.6</ele>
        <time>2024-09-20T08:02:14Z</time>
      </trkpt>
      <trkpt lat="45.88352" lon="4.81882">
        <ele>172.6</ele>
        <time>2024-09-20T08:02:15Z</time>
      </trkpt>
      <trkpt lat="45.8835" lon="4.81887">
        <ele>172.6</ele>
        <time>2024-09-20T08:02:16Z</time>
      </trkpt>
      <trkpt lat="45.88347" lon="4.81892">
        <ele>172.6</ele>
        <time>2024-09-20T08:02:17Z</time>
      </trkpt>
      <trkpt lat="45.88344" lon="4.81898">
        <ele>172.6</ele>
        <time>2024-09-20T08:02:18Z</time>
      </trkpt>
      <trkpt lat="45.88342" lon="4.81903">
        <ele>172.4</ele>
        <time>2024-09-20T08:02:19Z</time>
      </trkpt>
      <trkpt lat="45.88339" lon="4.81908">
        <ele>172.4</ele>
        <time>2024-09-20T08:02:20Z</time>
      </trkpt>
      <trkpt lat="45.88337" lon="4.81914">
        <ele>172.4</ele>
        <time>2024-09-20T08:02:21Z</time>
      </trkpt>
      <trkpt lat="45.88335" lon="4.81919">
        <ele>172.4</ele>
        <time>2024-09-20T08:02:22Z</time>
      </trkpt>
      <trkpt lat="45.88333" lon="4.81924">
        <ele>172</ele>
        <time>2024-09-20T08:02:23Z</time>
      </trkpt>
      <trkpt lat="45.8833" lon="4.8193">
        <ele>172</ele>
        <time>2024-09-20T08:02:24Z</time>
      </trkpt>
      <trkpt lat="45.88328" lon="4.81935">
        <ele>172</ele>
        <time>2024-09-20T08:02:25Z</time>
      </trkpt>
      <trkpt lat="45.88326" lon="4.8194">
        <ele>172.8</ele>
        <time>2024-09-20T08:02:26Z</time>
      </trkpt>
      <trkpt lat="45.88323" lon="4.81945">
        <ele>172.6</ele>
        <time>2024-09-20T08:02:27Z</time>
      </trkpt>
      <trkpt lat="45.88321" lon="4.81951">
        <ele>172.6</ele>
        <time>2024-09-20T08:02:28Z</time>
      </trkpt>
      <trkpt lat="45.88319" lon="4.81957">
        <ele>172.6</ele>
        <time>2024-09-20T08:02:29Z</time>
      </trkpt>
      <trkpt lat="45.88317" lon="4.81962">
        <ele>172.6</ele>
        <time>2024-09-20T08:02:30Z</time>
      </trkpt>
      <trkpt lat="45.88314" lon="4.81968">
        <ele>172.6</ele>
        <time>2024-09-20T08:02:31Z</time>
      </trkpt>
      <trkpt lat="45.88312" lon="4.81973">
        <ele>172.8</ele>
        <time>2024-09-20T08:02:32Z</time>
      </trkpt>
      <trkpt lat="45.8831" lon="4.81979">
        <ele>172.8</ele>
        <time>2024-09-20T08:02:33Z</time>
      </trkpt>
      <trkpt lat="45.88308" lon="4.81985">
        <ele>172.8</ele>
        <time>2024-09-20T08:02:34Z</time>
      </trkpt>
      <trkpt lat="45.88305" lon="4.8199">
        <ele>172.8</ele>
        <time>2024-09-20T08:02:35Z</time>
      </trkpt>
      <trkpt lat="45.88303" lon="4.81996">
        <ele>172.8</ele>
        <time>2024-09-20T08:02:36Z</time>
      </trkpt>
      <trkpt lat="45.88301" lon="4.82002">
        <ele>172.8</ele>
        <time>2024-09-20T08:02:37Z</time>
      </trkpt>
      <trkpt lat="45.88299" lon="4.82008">
        <ele>172.8</ele>
        <time>2024-09-20T08:02:38Z</time>
      </trkpt>
      <trkpt lat="45.88297" lon="4.82014">
        <ele>172.8</ele>
        <time>2024-09-20T08:02:39Z</time>
      </trkpt>
      <trkpt lat="45.88294" lon="4.8202">
        <ele>172.8</ele>
        <time>2024-09-20T08:02:40Z</time>
      </trkpt>
      <trkpt lat="45.88292" lon="4.82026">
        <ele>172.8</ele>
        <time>2024-09-20T08:02:41Z</time>
      </trkpt>
      <trkpt lat="45.88289" lon="4.82032">
        <ele>172.4</ele>
        <time>2024-09-20T08:02:42Z</time>
      </trkpt>
      <trkpt lat="45.88287" lon="4.82037">
        <ele>172.4</ele>
        <time>2024-09-20T08:02:43Z</time>
      </trkpt>
      <trkpt lat="45.88285" lon="4.82043">
        <ele>172.4</ele>
        <time>2024-09-20T08:02:44Z</time>
      </trkpt>
      <trkpt lat="45.88283" lon="4.82049">
        <ele>172.4</ele>
        <time>2024-09-20T08:02:45Z</time>
      </trkpt>
      <trkpt lat="45.88281" lon="4.82055">
        <ele>172.6</ele>
        <time>2024-09-20T08:02:46Z</time>
      </trkpt>
      <trkpt lat="45.88279" lon="4.82062">
        <ele>172.6</ele>
        <time>2024-09-20T08:02:47Z</time>
      </trkpt>
      <trkpt lat="45.88277" lon="4.82068">
        <ele>172.6</ele>
        <time>2024-09-20T08:02:48Z</time>
      </trkpt>
      <trkpt lat="45.88275" lon="4.82074">
        <ele>172.6</ele>
        <time>2024-09-20T08:02:49Z</time>
      </trkpt>
      <trkpt lat="45.88273" lon="4.82081">
        <ele>172.8</ele>
        <time>2024-09-20T08:02:50Z</time>
      </trkpt>
      <trkpt lat="45.88271" lon="4.82087">
        <ele>172.8</ele>
        <time>2024-09-20T08:02:51Z</time>
      </trkpt>
      <trkpt lat="45.88268" lon="4.82093">
        <ele>172.8</ele>
        <time>2024-09-20T08:02:52Z</time>
      </trkpt>
      <trkpt lat="45.88266" lon="4.82099">
        <ele>172.8</ele>
        <time>2024-09-20T08:02:53Z</time>
      </trkpt>
      <trkpt lat="45.88264" lon="4.82105">
        <ele>172.6</ele>
        <time>2024-09-20T08:02:54Z</time>
      </trkpt>
      <trkpt lat="45.88262" lon="4.82111">
        <ele>172.8</ele>
        <time>2024-09-20T08:02:55Z</time>
      </trkpt>
      <trkpt lat="45.88259" lon="4.82117">
        <ele>172.8</ele>
        <time>2024-09-20T08:02:56Z</time>
      </trkpt>
      <trkpt lat="45.88257" lon="4.82123">
        <ele>172.8</ele>
        <time>2024-09-20T08:02:57Z</time>
      </trkpt>
      <trkpt lat="45.88255" lon="4.82129">
        <ele>172.8</ele>
        <time>2024-09-20T08:02:58Z</time>
      </trkpt>
      <trkpt lat="45.88253" lon="4.82134">
        <ele>173</ele>
        <time>2024-09-20T08:02:59Z</time>
      </trkpt>
      <trkpt lat="45.88251" lon="4.8214">
        <ele>173</ele>
        <time>2024-09-20T08:03:00Z</time>
      </trkpt>
      <trkpt lat="45.88249" lon="4.82145">
        <ele>173</ele>
        <time>2024-09-20T08:03:01Z</time>
      </trkpt>
      <trkpt lat="45.88246" lon="4.82151">
        <ele>173</ele>
        <time>2024-09-20T08:03:02Z</time>
      </trkpt>
      <trkpt lat="45.88245" lon="4.82156">
        <ele>173.2</ele>
        <time>2024-09-20T08:03:03Z</time>
      </trkpt>
      <trkpt lat="45.88243" lon="4.82161">
        <ele>173.2</ele>
        <time>2024-09-20T08:03:04Z</time>
      </trkpt>
      <trkpt lat="45.88241" lon="4.82167">
        <ele>173.2</ele>
        <time>2024-09-20T08:03:05Z</time>
      </trkpt>
      <trkpt lat="45.88238" lon="4.82172">
        <ele>173.2</ele>
        <time>2024-09-20T08:03:06Z</time>
      </trkpt>
      <trkpt lat="45.88237" lon="4.82177">
        <ele>172.6</ele>
        <time>2024-09-20T08:03:07Z</time>
      </trkpt>
      <trkpt lat="45.88235" lon="4.82183">
        <ele>172.6</ele>
        <time>2024-09-20T08:03:08Z</time>
      </trkpt>
      <trkpt lat="45.88233" lon="4.82188">
        <ele>172.6</ele>
        <time>2024-09-20T08:03:09Z</time>
      </trkpt>
      <trkpt lat="45.88232" lon="4.82194">
        <ele>172.6</ele>
        <time>2024-09-20T08:03:10Z</time>
      </trkpt>
      <trkpt lat="45.8823" lon="4.82199">
        <ele>172.4</ele>
        <time>2024-09-20T08:03:11Z</time>
      </trkpt>
      <trkpt lat="45.88229" lon="4.82205">
        <ele>172.6</ele>
        <time>2024-09-20T08:03:12Z</time>
      </trkpt>
      <trkpt lat="45.88227" lon="4.82211">
        <ele>172.6</ele>
        <time>2024-09-20T08:03:13Z</time>
      </trkpt>
      <trkpt lat="45.88226" lon="4.82217">
        <ele>172.6</ele>
        <time>2024-09-20T08:03:14Z</time>
      </trkpt>
      <trkpt lat="45.88224" lon="4.82223">
        <ele>172.6</ele>
        <time>2024-09-20T08:03:15Z</time>
      </trkpt>
      <trkpt lat="45.88222" lon="4.82228">
        <ele>172.6</ele>
        <time>2024-09-20T08:03:16Z</time>
      </trkpt>
      <trkpt lat="45.88221" lon="4.82234">
        <ele>172.6</ele>
        <time>2024-09-20T08:03:17Z</time>
      </trkpt>
      <trkpt lat="45.88219" lon="4.8224">
        <ele>172.6</ele>
        <time>2024-09-20T08:03:18Z</time>
      </trkpt>
      <trkpt lat="45.88217" lon="4.82246">
        <ele>172.6</ele>
        <time>2024-09-20T08:03:19Z</time>
      </trkpt>
      <trkpt lat="45.88215" lon="4.82252">
        <ele>172.6</ele>
        <time>2024-09-20T08:03:20Z</time>
      </trkpt>
      <trkpt lat="45.88214" lon="4.82257">
        <ele>173</ele>
        <time>2024-09-20T08:03:21Z</time>
      </trkpt>
      <trkpt lat="45.88212" lon="4.82263">
        <ele>173</ele>
        <time>2024-09-20T08:03:22Z</time>
      </trkpt>
      <trkpt lat="45.8821" lon="4.82269">
        <ele>172.8</ele>
        <time>2024-09-20T08:03:23Z</time>
      </trkpt>
      <trkpt lat="45.88208" lon="4.82275">
        <ele>172.8</ele>
        <time>2024-09-20T08:03:24Z</time>
      </trkpt>
      <trkpt lat="45.88207" lon="4.82282">
        <ele>173</ele>
        <time>2024-09-20T08:03:25Z</time>
      </trkpt>
      <trkpt lat="45.88205" lon="4.82288">
        <ele>173</ele>
        <time>2024-09-20T08:03:26Z</time>
      </trkpt>
      <trkpt lat="45.88203" lon="4.82294">
        <ele>173</ele>
        <time>2024-09-20T08:03:27Z</time>
      </trkpt>
      <trkpt lat="45.88202" lon="4.823">
        <ele>173</ele>
        <time>2024-09-20T08:03:28Z</time>
      </trkpt>
      <trkpt lat="45.882" lon="4.82306">
        <ele>173</ele>
        <time>2024-09-20T08:03:29Z</time>
      </trkpt>
      <trkpt lat="45.88198" lon="4.82312">
        <ele>173</ele>
        <time>2024-09-20T08:03:30Z</time>
      </trkpt>
      <trkpt lat="45.88197" lon="4.82319">
        <ele>173</ele>
        <time>2024-09-20T08:03:31Z</time>
      </trkpt>
      <trkpt lat="45.88195" lon="4.82325">
        <ele>173</ele>
        <time>2024-09-20T08:03:32Z</time>
      </trkpt>
      <trkpt lat="45.88194" lon="4.82331">
        <ele>173</ele>
        <time>2024-09-20T08:03:33Z</time>
      </trkpt>
      <trkpt lat="45.88192" lon="4.82338">
        <ele>173</ele>
        <time>2024-09-20T08:03:34Z</time>
      </trkpt>
      <trkpt lat="45.8819" lon="4.82344">
        <ele>172.8</ele>
        <time>2024-09-20T08:03:35Z</time>
      </trkpt>
      <trkpt lat="45.88189" lon="4.8235">
        <ele>172.8</ele>
        <time>2024-09-20T08:03:36Z</time>
      </trkpt>
      <trkpt lat="45.88187" lon="4.82357">
        <ele>172.8</ele>
        <time>2024-09-20T08:03:37Z</time>
      </trkpt>
      <trkpt lat="45.88186" lon="4.82363">
        <ele>173</ele>
        <time>2024-09-20T08:03:38Z</time>
      </trkpt>
      <trkpt lat="45.88184" lon="4.82369">
        <ele>172.8</ele>
        <time>2024-09-20T08:03:39Z</time>
      </trkpt>
      <trkpt lat="45.88182" lon="4.82375">
        <ele>172.8</ele>
        <time>2024-09-20T08:03:40Z</time>
      </trkpt>
      <trkpt lat="45.88181" lon="4.82382">
        <ele>172.8</ele>
        <time>2024-09-20T08:03:41Z</time>
      </trkpt>
      <trkpt lat="45.88179" lon="4.82388">
        <ele>173</ele>
        <time>2024-09-20T08:03:42Z</time>
      </trkpt>
      <trkpt lat="45.88178" lon="4.82394">
        <ele>173</ele>
        <time>2024-09-20T08:03:43Z</time>
      </trkpt>
      <trkpt lat="45.88176" lon="4.82401">
        <ele>173</ele>
        <time>2024-09-20T08:03:44Z</time>
      </trkpt>
      <trkpt lat="45.88175" lon="4.82407">
        <ele>173</ele>
        <time>2024-09-20T08:03:45Z</time>
      </trkpt>
      <trkpt lat="45.88173" lon="4.82414">
        <ele>173</ele>
        <time>2024-09-20T08:03:46Z</time>
      </trkpt>
      <trkpt lat="45.88172" lon="4.8242">
        <ele>173</ele>
        <time>2024-09-20T08:03:47Z</time>
      </trkpt>
      <trkpt lat="45.8817" lon="4.82426">
        <ele>173</ele>
        <time>2024-09-20T08:03:48Z</time>
      </trkpt>
      <trkpt lat="45.88169" lon="4.82432">
        <ele>173</ele>
        <time>2024-09-20T08:03:49Z</time>
      </trkpt>
      <trkpt lat="45.88167" lon="4.82439">
        <ele>173</ele>
        <time>2024-09-20T08:03:50Z</time>
      </trkpt>
      <trkpt lat="45.88166" lon="4.82445">
        <ele>173.2</ele>
        <time>2024-09-20T08:03:51Z</time>
      </trkpt>
      <trkpt lat="45.88164" lon="4.82451">
        <ele>173.2</ele>
        <time>2024-09-20T08:03:52Z</time>
      </trkpt>
      <trkpt lat="45.88163" lon="4.82458">
        <ele>173.2</ele>
        <time>2024-09-20T08:03:53Z</time>
      </trkpt>
      <trkpt lat="45.88161" lon="4.82464">
        <ele>173.2</ele>
        <time>2024-09-20T08:03:54Z</time>
      </trkpt>
      <trkpt lat="45.8816" lon="4.82471">
        <ele>173.2</ele>
        <time>2024-09-20T08:03:55Z</time>
      </trkpt>
      <trkpt lat="45.88158" lon="4.82477">
        <ele>173.2</ele>
        <time>2024-09-20T08:03:56Z</time>
      </trkpt>
      <trkpt lat="45.88157" lon="4.82483">
        <ele>173.4</ele>
        <time>2024-09-20T08:03:57Z</time>
      </trkpt>
      <trkpt lat="45.88155" lon="4.8249">
        <ele>173.4</ele>
        <time>2024-09-20T08:03:58Z</time>
      </trkpt>
      <trkpt lat="45.88153" lon="4.82496">
        <ele>173.4</ele>
        <time>2024-09-20T08:03:59Z</time>
      </trkpt>
      <trkpt lat="45.88152" lon="4.82502">
        <ele>173.4</ele>
        <time>2024-09-20T08:04:00Z</time>
      </trkpt>
      <trkpt lat="45.8815" lon="4.82509">
        <ele>173.4</ele>
        <time>2024-09-20T08:04:01Z</time>
      </trkpt>
      <trkpt lat="45.88148" lon="4.82515">
        <ele>173.4</ele>
        <time>2024-09-20T08:04:02Z</time>
      </trkpt>
      <trkpt lat="45.88147" lon="4.82521">
        <ele>173.4</ele>
        <time>2024-09-20T08:04:03Z</time>
      </trkpt>
      <trkpt lat="45.88145" lon="4.82527">
        <ele>173.4</ele>
        <time>2024-09-20T08:04:04Z</time>
      </trkpt>
      <trkpt lat="45.88143" lon="4.82533">
        <ele>173</ele>
        <time>2024-09-20T08:04:05Z</time>
      </trkpt>
      <trkpt lat="45.88142" lon="4.82539">
        <ele>173.2</ele>
        <time>2024-09-20T08:04:06Z</time>
      </trkpt>
      <trkpt lat="45.8814" lon="4.82545">
        <ele>173.2</ele>
        <time>2024-09-20T08:04:07Z</time>
      </trkpt>
      <trkpt lat="45.88138" lon="4.82552">
        <ele>173.2</ele>
        <time>2024-09-20T08:04:08Z</time>
      </trkpt>
      <trkpt lat="45.88136" lon="4.82558">
        <ele>173.2</ele>
        <time>2024-09-20T08:04:09Z</time>
      </trkpt>
      <trkpt lat="45.88135" lon="4.82564">
        <ele>173</ele>
        <time>2024-09-20T08:04:10Z</time>
      </trkpt>
      <trkpt lat="45.88133" lon="4.82571">
        <ele>173</ele>
        <time>2024-09-20T08:04:11Z</time>
      </trkpt>
      <trkpt lat="45.88132" lon="4.82577">
        <ele>173</ele>
        <time>2024-09-20T08:04:12Z</time>
      </trkpt>
      <trkpt lat="45.8813" lon="4.82583">
        <ele>173</ele>
        <time>2024-09-20T08:04:13Z</time>
      </trkpt>
      <trkpt lat="45.88129" lon="4.82589">
        <ele>173</ele>
        <time>2024-09-20T08:04:14Z</time>
      </trkpt>
      <trkpt lat="45.88127" lon="4.82595">
        <ele>173</ele>
        <time>2024-09-20T08:04:15Z</time>
      </trkpt>
      <trkpt lat="45.88126" lon="4.82601">
        <ele>172.6</ele>
        <time>2024-09-20T08:04:16Z</time>
      </trkpt>
      <trkpt lat="45.88125" lon="4.82607">
        <ele>172.6</ele>
        <time>2024-09-20T08:04:17Z</time>
      </trkpt>
      <trkpt lat="45.88123" lon="4.82613">
        <ele>172.8</ele>
        <time>2024-09-20T08:04:18Z</time>
      </trkpt>
      <trkpt lat="45.88121" lon="4.82619">
        <ele>173</ele>
        <time>2024-09-20T08:04:19Z</time>
      </trkpt>
      <trkpt lat="45.8812" lon="4.82625">
        <ele>173</ele>
        <time>2024-09-20T08:04:20Z</time>
      </trkpt>
      <trkpt lat="45.88118" lon="4.82632">
        <ele>173</ele>
        <time>2024-09-20T08:04:21Z</time>
      </trkpt>
      <trkpt lat="45.88117" lon="4.82638">
        <ele>173</ele>
        <time>2024-09-20T08:04:22Z</time>
      </trkpt>
      <trkpt lat="45.88115" lon="4.82644">
        <ele>173</ele>
        <time>2024-09-20T08:04:23Z</time>
      </trkpt>
      <trkpt lat="45.88113" lon="4.82651">
        <ele>173</ele>
        <time>2024-09-20T08:04:24Z</time>
      </trkpt>
      <trkpt lat="45.88112" lon="4.82657">
        <ele>173</ele>
        <time>2024-09-20T08:04:25Z</time>
      </trkpt>
      <trkpt lat="45.8811" lon="4.82663">
        <ele>173</ele>
        <time>2024-09-20T08:04:26Z</time>
      </trkpt>
      <trkpt lat="45.88108" lon="4.82669">
        <ele>173</ele>
        <time>2024-09-20T08:04:27Z</time>
      </trkpt>
      <trkpt lat="45.88107" lon="4.82676">
        <ele>173</ele>
        <time>2024-09-20T08:04:28Z</time>
      </trkpt>
      <trkpt lat="45.88105" lon="4.82682">
        <ele>173</ele>
        <time>2024-09-20T08:04:29Z</time>
      </trkpt>
      <trkpt lat="45.88103" lon="4.82688">
        <ele>173</ele>
        <time>2024-09-20T08:04:30Z</time>
      </trkpt>
      <trkpt lat="45.88102" lon="4.82694">
        <ele>173</ele>
        <time>2024-09-20T08:04:31Z</time>
      </trkpt>
      <trkpt lat="45.881" lon="4.827">
        <ele>173</ele>
        <time>2024-09-20T08:04:32Z</time>
      </trkpt>
      <trkpt lat="45.88099" lon="4.82707">
        <ele>173</ele>
        <time>2024-09-20T08:04:33Z</time>
      </trkpt>
      <trkpt lat="45.88097" lon="4.82713">
        <ele>173</ele>
        <time>2024-09-20T08:04:34Z</time>
      </trkpt>
      <trkpt lat="45.88096" lon="4.82719">
        <ele>173</ele>
        <time>2024-09-20T08:04:35Z</time>
      </trkpt>
      <trkpt lat="45.88095" lon="4.82725">
        <ele>173</ele>
        <time>2024-09-20T08:04:36Z</time>
      </trkpt>
      <trkpt lat="45.88094" lon="4.82731">
        <ele>172.8</ele>
        <time>2024-09-20T08:04:37Z</time>
      </trkpt>
      <trkpt lat="45.88093" lon="4.82737">
        <ele>172.8</ele>
        <time>2024-09-20T08:04:38Z</time>
      </trkpt>
      <trkpt lat="45.88092" lon="4.82743">
        <ele>172.8</ele>
        <time>2024-09-20T08:04:39Z</time>
      </trkpt>
      <trkpt lat="45.88092" lon="4.82748">
        <ele>172.8</ele>
        <time>2024-09-20T08:04:40Z</time>
      </trkpt>
      <trkpt lat="45.88091" lon="4.82753">
        <ele>173.2</ele>
        <time>2024-09-20T08:04:41Z</time>
      </trkpt>
      <trkpt lat="45.8809" lon="4.82759">
        <ele>173.2</ele>
        <time>2024-09-20T08:04:42Z</time>
      </trkpt>
      <trkpt lat="45.88089" lon="4.82765">
        <ele>173.2</ele>
        <time>2024-09-20T08:04:43Z</time>
      </trkpt>
      <trkpt lat="45.88088" lon="4.82771">
        <ele>173.2</ele>
        <time>2024-09-20T08:04:44Z</time>
      </trkpt>
      <trkpt lat="45.88086" lon="4.82778">
        <ele>172.4</ele>
        <time>2024-09-20T08:04:45Z</time>
      </trkpt>
      <trkpt lat="45.88085" lon="4.82785">
        <ele>172.4</ele>
        <time>2024-09-20T08:04:46Z</time>
      </trkpt>
      <trkpt lat="45.88084" lon="4.82792">
        <ele>172.4</ele>
        <time>2024-09-20T08:04:47Z</time>
      </trkpt>
      <trkpt lat="45.88083" lon="4.828">
        <ele>172.4</ele>
        <time>2024-09-20T08:04:48Z</time>
      </trkpt>
      <trkpt lat="45.88082" lon="4.82807">
        <ele>172.4</ele>
        <time>2024-09-20T08:04:49Z</time>
      </trkpt>
      <trkpt lat="45.88081" lon="4.82815">
        <ele>172.4</ele>
        <time>2024-09-20T08:04:50Z</time>
      </trkpt>
      <trkpt lat="45.8808" lon="4.82822">
        <ele>172.2</ele>
        <time>2024-09-20T08:04:51Z</time>
      </trkpt>
      <trkpt lat="45.88078" lon="4.8283">
        <ele>172.2</ele>
        <time>2024-09-20T08:04:52Z</time>
      </trkpt>
      <trkpt lat="45.88077" lon="4.82837">
        <ele>172.2</ele>
        <time>2024-09-20T08:04:53Z</time>
      </trkpt>
      <trkpt lat="45.88076" lon="4.82844">
        <ele>172.2</ele>
        <time>2024-09-20T08:04:54Z</time>
      </trkpt>
      <trkpt lat="45.88075" lon="4.82851">
        <ele>171.8</ele>
        <time>2024-09-20T08:04:55Z</time>
      </trkpt>
      <trkpt lat="45.88074" lon="4.82858">
        <ele>171.8</ele>
        <time>2024-09-20T08:04:56Z</time>
      </trkpt>
      <trkpt lat="45.88073" lon="4.82865">
        <ele>171.8</ele>
        <time>2024-09-20T08:04:57Z</time>
      </trkpt>
      <trkpt lat="45.88072" lon="4.82872">
        <ele>172</ele>
        <time>2024-09-20T08:04:58Z</time>
      </trkpt>
      <trkpt lat="45.88071" lon="4.82879">
        <ele>171.8</ele>
        <time>2024-09-20T08:04:59Z</time>
      </trkpt>
      <trkpt lat="45.8807" lon="4.82886">
        <ele>171.8</ele>
        <time>2024-09-20T08:05:00Z</time>
      </trkpt>
      <trkpt lat="45.88069" lon="4.82892">
        <ele>171.8</ele>
        <time>2024-09-20T08:05:01Z</time>
      </trkpt>
      <trkpt lat="45.88068" lon="4.82899">
        <ele>171.8</ele>
        <time>2024-09-20T08:05:02Z</time>
      </trkpt>
      <trkpt lat="45.88067" lon="4.82906">
        <ele>172</ele>
        <time>2024-09-20T08:05:03Z</time>
      </trkpt>
      <trkpt lat="45.88066" lon="4.82913">
        <ele>172</ele>
        <time>2024-09-20T08:05:04Z</time>
      </trkpt>
      <trkpt lat="45.88065" lon="4.8292">
        <ele>171.6</ele>
        <time>2024-09-20T08:05:05Z</time>
      </trkpt>
      <trkpt lat="45.88064" lon="4.82927">
        <ele>171.6</ele>
        <time>2024-09-20T08:05:06Z</time>
      </trkpt>
      <trkpt lat="45.88063" lon="4.82933">
        <ele>171.8</ele>
        <time>2024-09-20T08:05:07Z</time>
      </trkpt>
      <trkpt lat="45.88063" lon="4.8294">
        <ele>171.8</ele>
        <time>2024-09-20T08:05:08Z</time>
      </trkpt>
      <trkpt lat="45.88062" lon="4.82947">
        <ele>171.8</ele>
        <time>2024-09-20T08:05:09Z</time>
      </trkpt>
      <trkpt lat="45.88061" lon="4.82954">
        <ele>171.8</ele>
        <time>2024-09-20T08:05:10Z</time>
      </trkpt>
      <trkpt lat="45.88059" lon="4.8296">
        <ele>171.8</ele>
        <time>2024-09-20T08:05:11Z</time>
      </trkpt>
      <trkpt lat="45.88058" lon="4.82967">
        <ele>171.6</ele>
        <time>2024-09-20T08:05:12Z</time>
      </trkpt>
      <trkpt lat="45.88057" lon="4.82973">
        <ele>171.6</ele>
        <time>2024-09-20T08:05:13Z</time>
      </trkpt>
      <trkpt lat="45.88056" lon="4.82979">
        <ele>171.6</ele>
        <time>2024-09-20T08:05:14Z</time>
      </trkpt>
      <trkpt lat="45.88056" lon="4.82986">
        <ele>171.6</ele>
        <time>2024-09-20T08:05:15Z</time>
      </trkpt>
      <trkpt lat="45.88055" lon="4.82993">
        <ele>171.6</ele>
        <time>2024-09-20T08:05:16Z</time>
      </trkpt>
      <trkpt lat="45.88054" lon="4.82999">
        <ele>171.8</ele>
        <time>2024-09-20T08:05:17Z</time>
      </trkpt>
      <trkpt lat="45.88053" lon="4.83005">
        <ele>171.8</ele>
        <time>2024-09-20T08:05:18Z</time>
      </trkpt>
      <trkpt lat="45.88052" lon="4.83012">
        <ele>171.8</ele>
        <time>2024-09-20T08:05:19Z</time>
      </trkpt>
      <trkpt lat="45.88051" lon="4.83018">
        <ele>172</ele>
        <time>2024-09-20T08:05:20Z</time>
      </trkpt>
      <trkpt lat="45.88051" lon="4.83024">
        <ele>171.8</ele>
        <time>2024-09-20T08:05:21Z</time>
      </trkpt>
      <trkpt lat="45.8805" lon="4.8303">
        <ele>171.8</ele>
        <time>2024-09-20T08:05:22Z</time>
      </trkpt>
      <trkpt lat="45.88049" lon="4.83036">
        <ele>171.8</ele>
        <time>2024-09-20T08:05:23Z</time>
      </trkpt>
      <trkpt lat="45.88049" lon="4.83042">
        <ele>172</ele>
        <time>2024-09-20T08:05:24Z</time>
      </trkpt>
      <trkpt lat="45.88048" lon="4.83048">
        <ele>172</ele>
        <time>2024-09-20T08:05:25Z</time>
      </trkpt>
      <trkpt lat="45.88048" lon="4.83054">
        <ele>172</ele>
        <time>2024-09-20T08:05:26Z</time>
      </trkpt>
      <trkpt lat="45.88047" lon="4.83061">
        <ele>172.2</ele>
        <time>2024-09-20T08:05:27Z</time>
      </trkpt>
      <trkpt lat="45.88046" lon="4.83067">
        <ele>172.2</ele>
        <time>2024-09-20T08:05:28Z</time>
      </trkpt>
      <trkpt lat="45.88045" lon="4.83073">
        <ele>172.2</ele>
        <time>2024-09-20T08:05:29Z</time>
      </trkpt>
      <trkpt lat="45.88044" lon="4.83079">
        <ele>172</ele>
        <time>2024-09-20T08:05:30Z</time>
      </trkpt>
      <trkpt lat="45.88043" lon="4.83085">
        <ele>172</ele>
        <time>2024-09-20T08:05:31Z</time>
      </trkpt>
      <trkpt lat="45.88042" lon="4.83092">
        <ele>172</ele>
        <time>2024-09-20T08:05:32Z</time>
      </trkpt>
      <trkpt lat="45.88041" lon="4.83098">
        <ele>172</ele>
        <time>2024-09-20T08:05:33Z</time>
      </trkpt>
      <trkpt lat="45.8804" lon="4.83105">
        <ele>171.8</ele>
        <time>2024-09-20T08:05:34Z</time>
      </trkpt>
      <trkpt lat="45.8804" lon="4.83111">
        <ele>171.8</ele>
        <time>2024-09-20T08:05:35Z</time>
      </trkpt>
      <trkpt lat="45.8804" lon="4.83117">
        <ele>171.8</ele>
        <time>2024-09-20T08:05:36Z</time>
      </trkpt>
      <trkpt lat="45.88039" lon="4.83123">
        <ele>171.8</ele>
        <time>2024-09-20T08:05:37Z</time>
      </trkpt>
      <trkpt lat="45.88039" lon="4.83129">
        <ele>172</ele>
        <time>2024-09-20T08:05:38Z</time>
      </trkpt>
      <trkpt lat="45.88038" lon="4.83136">
        <ele>172</ele>
        <time>2024-09-20T08:05:39Z</time>
      </trkpt>
      <trkpt lat="45.88037" lon="4.83142">
        <ele>171.6</ele>
        <time>2024-09-20T08:05:40Z</time>
      </trkpt>
      <trkpt lat="45.88036" lon="4.83149">
        <ele>171.6</ele>
        <time>2024-09-20T08:05:41Z</time>
      </trkpt>
      <trkpt lat="45.88035" lon="4.83156">
        <ele>171.6</ele>
        <time>2024-09-20T08:05:42Z</time>
      </trkpt>
      <trkpt lat="45.88034" lon="4.83162">
        <ele>171.6</ele>
        <time>2024-09-20T08:05:43Z</time>
      </trkpt>
      <trkpt lat="45.88033" lon="4.83169">
        <ele>171.6</ele>
        <time>2024-09-20T08:05:44Z</time>
      </trkpt>
      <trkpt lat="45.88032" lon="4.83174">
        <ele>171.8</ele>
        <time>2024-09-20T08:05:45Z</time>
      </trkpt>
      <trkpt lat="45.88031" lon="4.8318">
        <ele>171.8</ele>
        <time>2024-09-20T08:05:46Z</time>
      </trkpt>
      <trkpt lat="45.88031" lon="4.83187">
        <ele>171.6</ele>
        <time>2024-09-20T08:05:47Z</time>
      </trkpt>
      <trkpt lat="45.8803" lon="4.83192">
        <ele>171.6</ele>
        <time>2024-09-20T08:05:48Z</time>
      </trkpt>
      <trkpt lat="45.88029" lon="4.83198">
        <ele>171.6</ele>
        <time>2024-09-20T08:05:49Z</time>
      </trkpt>
      <trkpt lat="45.88028" lon="4.83204">
        <ele>171.6</ele>
        <time>2024-09-20T08:05:50Z</time>
      </trkpt>
      <trkpt lat="45.88027" lon="4.8321">
        <ele>171.6</ele>
        <time>2024-09-20T08:05:51Z</time>
      </trkpt>
      <trkpt lat="45.88027" lon="4.83216">
        <ele>171</ele>
        <time>2024-09-20T08:05:52Z</time>
      </trkpt>
      <trkpt lat="45.88027" lon="4.83221">
        <ele>171.4</ele>
        <time>2024-09-20T08:05:53Z</time>
      </trkpt>
      <trkpt lat="45.88027" lon="4.83227">
        <ele>171.4</ele>
        <time>2024-09-20T08:05:54Z</time>
      </trkpt>
      <trkpt lat="45.88026" lon="4.83233">
        <ele>171.4</ele>
        <time>2024-09-20T08:05:55Z</time>
      </trkpt>
      <trkpt lat="45.88026" lon="4.83239">
        <ele>171.4</ele>
        <time>2024-09-20T08:05:56Z</time>
      </trkpt>
      <trkpt lat="45.88025" lon="4.83245">
        <ele>171.4</ele>
        <time>2024-09-20T08:05:57Z</time>
      </trkpt>
      <trkpt lat="45.88025" lon="4.83251">
        <ele>171.4</ele>
        <time>2024-09-20T08:05:58Z</time>
      </trkpt>
      <trkpt lat="45.88024" lon="4.83257">
        <ele>171.4</ele>
        <time>2024-09-20T08:05:59Z</time>
      </trkpt>
      <trkpt lat="45.88023" lon="4.83263">
        <ele>171.4</ele>
        <time>2024-09-20T08:06:00Z</time>
      </trkpt>
      <trkpt lat="45.88022" lon="4.83269">
        <ele>171.4</ele>
        <time>2024-09-20T08:06:01Z</time>
      </trkpt>
      <trkpt lat="45.8802" lon="4.83275">
        <ele>171.6</ele>
        <time>2024-09-20T08:06:02Z</time>
      </trkpt>
      <trkpt lat="45.8802" lon="4.83281">
        <ele>171.6</ele>
        <time>2024-09-20T08:06:03Z</time>
      </trkpt>
      <trkpt lat="45.88019" lon="4.83287">
        <ele>171.6</ele>
        <time>2024-09-20T08:06:04Z</time>
      </trkpt>
      <trkpt lat="45.88018" lon="4.83294">
        <ele>171.2</ele>
        <time>2024-09-20T08:06:05Z</time>
      </trkpt>
      <trkpt lat="45.88017" lon="4.833">
        <ele>171.2</ele>
        <time>2024-09-20T08:06:06Z</time>
      </trkpt>
      <trkpt lat="45.88016" lon="4.83306">
        <ele>171.2</ele>
        <time>2024-09-20T08:06:07Z</time>
      </trkpt>
      <trkpt lat="45.88016" lon="4.83313">
        <ele>171.2</ele>
        <time>2024-09-20T08:06:08Z</time>
      </trkpt>
      <trkpt lat="45.88015" lon="4.8332">
        <ele>171.6</ele>
        <time>2024-09-20T08:06:09Z</time>
      </trkpt>
      <trkpt lat="45.88014" lon="4.83326">
        <ele>171.6</ele>
        <time>2024-09-20T08:06:10Z</time>
      </trkpt>
      <trkpt lat="45.88014" lon="4.83333">
        <ele>171.6</ele>
        <time>2024-09-20T08:06:11Z</time>
      </trkpt>
      <trkpt lat="45.88013" lon="4.83339">
        <ele>171.6</ele>
        <time>2024-09-20T08:06:12Z</time>
      </trkpt>
      <trkpt lat="45.88012" lon="4.83345">
        <ele>171.6</ele>
        <time>2024-09-20T08:06:13Z</time>
      </trkpt>
      <trkpt lat="45.88012" lon="4.83351">
        <ele>171.6</ele>
        <time>2024-09-20T08:06:14Z</time>
      </trkpt>
      <trkpt lat="45.88011" lon="4.83357">
        <ele>171.4</ele>
        <time>2024-09-20T08:06:15Z</time>
      </trkpt>
      <trkpt lat="45.8801" lon="4.83363">
        <ele>171.2</ele>
        <time>2024-09-20T08:06:16Z</time>
      </trkpt>
      <trkpt lat="45.88009" lon="4.83368">
        <ele>171.2</ele>
        <time>2024-09-20T08:06:17Z</time>
      </trkpt>
      <trkpt lat="45.88008" lon="4.83374">
        <ele>171.2</ele>
        <time>2024-09-20T08:06:18Z</time>
      </trkpt>
      <trkpt lat="45.88007" lon="4.8338">
        <ele>171.2</ele>
        <time>2024-09-20T08:06:19Z</time>
      </trkpt>
      <trkpt lat="45.88006" lon="4.83386">
        <ele>171.4</ele>
        <time>2024-09-20T08:06:20Z</time>
      </trkpt>
      <trkpt lat="45.88005" lon="4.83392">
        <ele>171.4</ele>
        <time>2024-09-20T08:06:21Z</time>
      </trkpt>
      <trkpt lat="45.88004" lon="4.83398">
        <ele>171.4</ele>
        <time>2024-09-20T08:06:22Z</time>
      </trkpt>
      <trkpt lat="45.88003" lon="4.83404">
        <ele>171.4</ele>
        <time>2024-09-20T08:06:23Z</time>
      </trkpt>
      <trkpt lat="45.88001" lon="4.83411">
        <ele>171.6</ele>
        <time>2024-09-20T08:06:24Z</time>
      </trkpt>
      <trkpt lat="45.88" lon="4.83416">
        <ele>171.6</ele>
        <time>2024-09-20T08:06:25Z</time>
      </trkpt>
      <trkpt lat="45.87998" lon="4.83423">
        <ele>171.6</ele>
        <time>2024-09-20T08:06:26Z</time>
      </trkpt>
      <trkpt lat="45.87997" lon="4.83429">
        <ele>171.6</ele>
        <time>2024-09-20T08:06:27Z</time>
      </trkpt>
      <trkpt lat="45.87995" lon="4.83435">
        <ele>171.4</ele>
        <time>2024-09-20T08:06:28Z</time>
      </trkpt>
      <trkpt lat="45.87993" lon="4.83442">
        <ele>171.4</ele>
        <time>2024-09-20T08:06:29Z</time>
      </trkpt>
      <trkpt lat="45.87992" lon="4.83448">
        <ele>171.4</ele>
        <time>2024-09-20T08:06:30Z</time>
      </trkpt>
      <trkpt lat="45.8799" lon="4.83455">
        <ele>171.4</ele>
        <time>2024-09-20T08:06:31Z</time>
      </trkpt>
      <trkpt lat="45.87988" lon="4.83461">
        <ele>171.4</ele>
        <time>2024-09-20T08:06:32Z</time>
      </trkpt>
      <trkpt lat="45.87986" lon="4.83468">
        <ele>171.6</ele>
        <time>2024-09-20T08:06:33Z</time>
      </trkpt>
      <trkpt lat="45.87985" lon="4.83475">
        <ele>171.6</ele>
        <time>2024-09-20T08:06:34Z</time>
      </trkpt>
      <trkpt lat="45.87983" lon="4.83481">
        <ele>171.6</ele>
        <time>2024-09-20T08:06:35Z</time>
      </trkpt>
      <trkpt lat="45.87982" lon="4.83488">
        <ele>171.4</ele>
        <time>2024-09-20T08:06:36Z</time>
      </trkpt>
      <trkpt lat="45.87981" lon="4.83494">
        <ele>171.4</ele>
        <time>2024-09-20T08:06:37Z</time>
      </trkpt>
      <trkpt lat="45.87979" lon="4.835">
        <ele>171.4</ele>
        <time>2024-09-20T08:06:38Z</time>
      </trkpt>
      <trkpt lat="45.87978" lon="4.83507">
        <ele>171.4</ele>
        <time>2024-09-20T08:06:39Z</time>
      </trkpt>
      <trkpt lat="45.87976" lon="4.83513">
        <ele>171.4</ele>
        <time>2024-09-20T08:06:40Z</time>
      </trkpt>
      <trkpt lat="45.87975" lon="4.83518">
        <ele>171.4</ele>
        <time>2024-09-20T08:06:41Z</time>
      </trkpt>
      <trkpt lat="45.87973" lon="4.83524">
        <ele>171.4</ele>
        <time>2024-09-20T08:06:42Z</time>
      </trkpt>
      <trkpt lat="45.87972" lon="4.8353">
        <ele>171.4</ele>
        <time>2024-09-20T08:06:43Z</time>
      </trkpt>
      <trkpt lat="45.8797" lon="4.83536">
        <ele>171.4</ele>
        <time>2024-09-20T08:06:44Z</time>
      </trkpt>
      <trkpt lat="45.87968" lon="4.83542">
        <ele>171.6</ele>
        <time>2024-09-20T08:06:45Z</time>
      </trkpt>
      <trkpt lat="45.87967" lon="4.83548">
        <ele>171.8</ele>
        <time>2024-09-20T08:06:46Z</time>
      </trkpt>
      <trkpt lat="45.87964" lon="4.83554">
        <ele>171.8</ele>
        <time>2024-09-20T08:06:47Z</time>
      </trkpt>
      <trkpt lat="45.87962" lon="4.83559">
        <ele>171.8</ele>
        <time>2024-09-20T08:06:48Z</time>
      </trkpt>
      <trkpt lat="45.87959" lon="4.83564">
        <ele>171.8</ele>
        <time>2024-09-20T08:06:49Z</time>
      </trkpt>
      <trkpt lat="45.87957" lon="4.8357">
        <ele>171.6</ele>
        <time>2024-09-20T08:06:50Z</time>
      </trkpt>
      <trkpt lat="45.87955" lon="4.83576">
        <ele>171.6</ele>
        <time>2024-09-20T08:06:51Z</time>
      </trkpt>
      <trkpt lat="45.87953" lon="4.83582">
        <ele>171.6</ele>
        <time>2024-09-20T08:06:52Z</time>
      </trkpt>
      <trkpt lat="45.87951" lon="4.83588">
        <ele>171.6</ele>
        <time>2024-09-20T08:06:53Z</time>
      </trkpt>
      <trkpt lat="45.87949" lon="4.83594">
        <ele>171.6</ele>
        <time>2024-09-20T08:06:54Z</time>
      </trkpt>
      <trkpt lat="45.87947" lon="4.83599">
        <ele>171.6</ele>
        <time>2024-09-20T08:06:55Z</time>
      </trkpt>
      <trkpt lat="45.87945" lon="4.83602">
        <ele>171.6</ele>
        <time>2024-09-20T08:06:56Z</time>
      </trkpt>
      <trkpt lat="45.87943" lon="4.83602">
        <ele>171.6</ele>
        <time>2024-09-20T08:06:57Z</time>
      </trkpt>
      <trkpt lat="45.8794" lon="4.83603">
        <ele>171.6</ele>
        <time>2024-09-20T08:06:58Z</time>
      </trkpt>
      <trkpt lat="45.87938" lon="4.83604">
        <ele>171.4</ele>
        <time>2024-09-20T08:06:59Z</time>
      </trkpt>
      <trkpt lat="45.87936" lon="4.83607">
        <ele>171.4</ele>
        <time>2024-09-20T08:07:00Z</time>
      </trkpt>
      <trkpt lat="45.87935" lon="4.8361">
        <ele>171.4</ele>
        <time>2024-09-20T08:07:01Z</time>
      </trkpt>
      <trkpt lat="45.87933" lon="4.83614">
        <ele>171.4</ele>
        <time>2024-09-20T08:07:02Z</time>
      </trkpt>
      <trkpt lat="45.87931" lon="4.83617">
        <ele>171.4</ele>
        <time>2024-09-20T08:07:03Z</time>
      </trkpt>
      <trkpt lat="45.87929" lon="4.83621">
        <ele>171.4</ele>
        <time>2024-09-20T08:07:04Z</time>
      </trkpt>
      <trkpt lat="45.87926" lon="4.83624">
        <ele>171.2</ele>
        <time>2024-09-20T08:07:05Z</time>
      </trkpt>
      <trkpt lat="45.87924" lon="4.83628">
        <ele>171.2</ele>
        <time>2024-09-20T08:07:06Z</time>
      </trkpt>
      <trkpt lat="45.87922" lon="4.83633">
        <ele>171.2</ele>
        <time>2024-09-20T08:07:07Z</time>
      </trkpt>
      <trkpt lat="45.87919" lon="4.83637">
        <ele>171.2</ele>
        <time>2024-09-20T08:07:08Z</time>
      </trkpt>
      <trkpt lat="45.87917" lon="4.83641">
        <ele>171.2</ele>
        <time>2024-09-20T08:07:09Z</time>
      </trkpt>
      <trkpt lat="45.87914" lon="4.83645">
        <ele>171.2</ele>
        <time>2024-09-20T08:07:10Z</time>
      </trkpt>
      <trkpt lat="45.87911" lon="4.83649">
        <ele>171.2</ele>
        <time>2024-09-20T08:07:11Z</time>
      </trkpt>
      <trkpt lat="45.87909" lon="4.83653">
        <ele>171.2</ele>
        <time>2024-09-20T08:07:12Z</time>
      </trkpt>
      <trkpt lat="45.87906" lon="4.83657">
        <ele>171.2</ele>
        <time>2024-09-20T08:07:13Z</time>
      </trkpt>
      <trkpt lat="45.87903" lon="4.8366">
        <ele>171.2</ele>
        <time>2024-09-20T08:07:14Z</time>
      </trkpt>
      <trkpt lat="45.879" lon="4.83664">
        <ele>171.2</ele>
        <time>2024-09-20T08:07:15Z</time>
      </trkpt>
      <trkpt lat="45.87897" lon="4.83668">
        <ele>171.2</ele>
        <time>2024-09-20T08:07:16Z</time>
      </trkpt>
      <trkpt lat="45.87895" lon="4.83672">
        <ele>171</ele>
        <time>2024-09-20T08:07:17Z</time>
      </trkpt>
      <trkpt lat="45.87892" lon="4.83675">
        <ele>171</ele>
        <time>2024-09-20T08:07:18Z</time>
      </trkpt>
      <trkpt lat="45.8789" lon="4.83679">
        <ele>171</ele>
        <time>2024-09-20T08:07:19Z</time>
      </trkpt>
      <trkpt lat="45.87887" lon="4.83683">
        <ele>171</ele>
        <time>2024-09-20T08:07:20Z</time>
      </trkpt>
      <trkpt lat="45.87884" lon="4.83686">
        <ele>171</ele>
        <time>2024-09-20T08:07:21Z</time>
      </trkpt>
      <trkpt lat="45.87882" lon="4.8369">
        <ele>171</ele>
        <time>2024-09-20T08:07:22Z</time>
      </trkpt>
      <trkpt lat="45.87879" lon="4.83693">
        <ele>171</ele>
        <time>2024-09-20T08:07:23Z</time>
      </trkpt>
      <trkpt lat="45.87876" lon="4.83696">
        <ele>171</ele>
        <time>2024-09-20T08:07:24Z</time>
      </trkpt>
      <trkpt lat="45.87874" lon="4.837">
        <ele>171</ele>
        <time>2024-09-20T08:07:25Z</time>
      </trkpt>
      <trkpt lat="45.87872" lon="4.83703">
        <ele>171</ele>
        <time>2024-09-20T08:07:26Z</time>
      </trkpt>
      <trkpt lat="45.8787" lon="4.83705">
        <ele>171</ele>
        <time>2024-09-20T08:07:27Z</time>
      </trkpt>
      <trkpt lat="45.87869" lon="4.83706">
        <ele>171</ele>
        <time>2024-09-20T08:07:28Z</time>
      </trkpt>
      <trkpt lat="45.87867" lon="4.83707">
        <ele>171</ele>
        <time>2024-09-20T08:07:29Z</time>
      </trkpt>
      <trkpt lat="45.87866" lon="4.83709">
        <ele>171</ele>
        <time>2024-09-20T08:07:30Z</time>
      </trkpt>
      <trkpt lat="45.87865" lon="4.83711">
        <ele>170.8</ele>
        <time>2024-09-20T08:07:31Z</time>
      </trkpt>
      <trkpt lat="45.87864" lon="4.83713">
        <ele>170.8</ele>
        <time>2024-09-20T08:07:32Z</time>
      </trkpt>
      <trkpt lat="45.87863" lon="4.83714">
        <ele>170.8</ele>
        <time>2024-09-20T08:07:33Z</time>
      </trkpt>
      <trkpt lat="45.87862" lon="4.83716">
        <ele>171</ele>
        <time>2024-09-20T08:07:34Z</time>
      </trkpt>
      <trkpt lat="45.8786" lon="4.83718">
        <ele>170.8</ele>
        <time>2024-09-20T08:07:35Z</time>
      </trkpt>
      <trkpt lat="45.87858" lon="4.8372">
        <ele>170.8</ele>
        <time>2024-09-20T08:07:36Z</time>
      </trkpt>
      <trkpt lat="45.87855" lon="4.83722">
        <ele>170.8</ele>
        <time>2024-09-20T08:07:37Z</time>
      </trkpt>
      <trkpt lat="45.87853" lon="4.83724">
        <ele>170.8</ele>
        <time>2024-09-20T08:07:38Z</time>
      </trkpt>
      <trkpt lat="45.8785" lon="4.83727">
        <ele>170.8</ele>
        <time>2024-09-20T08:07:39Z</time>
      </trkpt>
      <trkpt lat="45.87847" lon="4.83729">
        <ele>170.8</ele>
        <time>2024-09-20T08:07:40Z</time>
      </trkpt>
      <trkpt lat="45.87844" lon="4.83731">
        <ele>170.6</ele>
        <time>2024-09-20T08:07:41Z</time>
      </trkpt>
      <trkpt lat="45.87842" lon="4.83733">
        <ele>170.6</ele>
        <time>2024-09-20T08:07:42Z</time>
      </trkpt>
      <trkpt lat="45.87839" lon="4.83736">
        <ele>170.6</ele>
        <time>2024-09-20T08:07:43Z</time>
      </trkpt>
      <trkpt lat="45.87836" lon="4.83739">
        <ele>170.6</ele>
        <time>2024-09-20T08:07:44Z</time>
      </trkpt>
      <trkpt lat="45.87833" lon="4.83742">
        <ele>170.6</ele>
        <time>2024-09-20T08:07:45Z</time>
      </trkpt>
      <trkpt lat="45.8783" lon="4.83744">
        <ele>170.6</ele>
        <time>2024-09-20T08:07:46Z</time>
      </trkpt>
      <trkpt lat="45.87827" lon="4.83747">
        <ele>170.6</ele>
        <time>2024-09-20T08:07:47Z</time>
      </trkpt>
      <trkpt lat="45.87824" lon="4.83749">
        <ele>170.6</ele>
        <time>2024-09-20T08:07:48Z</time>
      </trkpt>
      <trkpt lat="45.87821" lon="4.83752">
        <ele>170.6</ele>
        <time>2024-09-20T08:07:49Z</time>
      </trkpt>
      <trkpt lat="45.87818" lon="4.83754">
        <ele>171</ele>
        <time>2024-09-20T08:07:50Z</time>
      </trkpt>
      <trkpt lat="45.87815" lon="4.83756">
        <ele>171</ele>
        <time>2024-09-20T08:07:51Z</time>
      </trkpt>
      <trkpt lat="45.87811" lon="4.83759">
        <ele>171</ele>
        <time>2024-09-20T08:07:52Z</time>
      </trkpt>
      <trkpt lat="45.87808" lon="4.83761">
        <ele>170.8</ele>
        <time>2024-09-20T08:07:53Z</time>
      </trkpt>
      <trkpt lat="45.87805" lon="4.83763">
        <ele>170.8</ele>
        <time>2024-09-20T08:07:54Z</time>
      </trkpt>
      <trkpt lat="45.87802" lon="4.83766">
        <ele>170.6</ele>
        <time>2024-09-20T08:07:55Z</time>
      </trkpt>
      <trkpt lat="45.87798" lon="4.83768">
        <ele>170.6</ele>
        <time>2024-09-20T08:07:56Z</time>
      </trkpt>
      <trkpt lat="45.87795" lon="4.8377">
        <ele>170.4</ele>
        <time>2024-09-20T08:07:57Z</time>
      </trkpt>
      <trkpt lat="45.87791" lon="4.83772">
        <ele>170.4</ele>
        <time>2024-09-20T08:07:58Z</time>
      </trkpt>
      <trkpt lat="45.87788" lon="4.83775">
        <ele>170.4</ele>
        <time>2024-09-20T08:07:59Z</time>
      </trkpt>
      <trkpt lat="45.87784" lon="4.83777">
        <ele>170.4</ele>
        <time>2024-09-20T08:08:00Z</time>
      </trkpt>
      <trkpt lat="45.8778" lon="4.83779">
        <ele>170.4</ele>
        <time>2024-09-20T08:08:01Z</time>
      </trkpt>
      <trkpt lat="45.87777" lon="4.8378">
        <ele>170.6</ele>
        <time>2024-09-20T08:08:02Z</time>
      </trkpt>
      <trkpt lat="45.87773" lon="4.83782">
        <ele>170.6</ele>
        <time>2024-09-20T08:08:03Z</time>
      </trkpt>
      <trkpt lat="45.87769" lon="4.83784">
        <ele>170.6</ele>
        <time>2024-09-20T08:08:04Z</time>
      </trkpt>
      <trkpt lat="45.87766" lon="4.83786">
        <ele>170.6</ele>
        <time>2024-09-20T08:08:05Z</time>
      </trkpt>
      <trkpt lat="45.87761" lon="4.83787">
        <ele>170.6</ele>
        <time>2024-09-20T08:08:06Z</time>
      </trkpt>
      <trkpt lat="45.87757" lon="4.83788">
        <ele>170.6</ele>
        <time>2024-09-20T08:08:07Z</time>
      </trkpt>
      <trkpt lat="45.87753" lon="4.83789">
        <ele>170.6</ele>
        <time>2024-09-20T08:08:08Z</time>
      </trkpt>
      <trkpt lat="45.8775" lon="4.8379">
        <ele>170.6</ele>
        <time>2024-09-20T08:08:09Z</time>
      </trkpt>
      <trkpt lat="45.87746" lon="4.83792">
        <ele>170.6</ele>
        <time>2024-09-20T08:08:10Z</time>
      </trkpt>
      <trkpt lat="45.87742" lon="4.83793">
        <ele>170.6</ele>
        <time>2024-09-20T08:08:11Z</time>
      </trkpt>
      <trkpt lat="45.87738" lon="4.83795">
        <ele>170.4</ele>
        <time>2024-09-20T08:08:12Z</time>
      </trkpt>
      <trkpt lat="45.87734" lon="4.83796">
        <ele>170.4</ele>
        <time>2024-09-20T08:08:13Z</time>
      </trkpt>
      <trkpt lat="45.8773" lon="4.83797">
        <ele>170.4</ele>
        <time>2024-09-20T08:08:14Z</time>
      </trkpt>
      <trkpt lat="45.87727" lon="4.83797">
        <ele>170.2</ele>
        <time>2024-09-20T08:08:15Z</time>
      </trkpt>
      <trkpt lat="45.87724" lon="4.83797">
        <ele>170.2</ele>
        <time>2024-09-20T08:08:16Z</time>
      </trkpt>
      <trkpt lat="45.87722" lon="4.83796">
        <ele>170.2</ele>
        <time>2024-09-20T08:08:17Z</time>
      </trkpt>
      <trkpt lat="45.87719" lon="4.83796">
        <ele>170.2</ele>
        <time>2024-09-20T08:08:18Z</time>
      </trkpt>
      <trkpt lat="45.87716" lon="4.83796">
        <ele>170.2</ele>
        <time>2024-09-20T08:08:19Z</time>
      </trkpt>
      <trkpt lat="45.87713" lon="4.83797">
        <ele>170.2</ele>
        <time>2024-09-20T08:08:20Z</time>
      </trkpt>
      <trkpt lat="45.8771" lon="4.83797">
        <ele>170.4</ele>
        <time>2024-09-20T08:08:21Z</time>
      </trkpt>
      <trkpt lat="45.87707" lon="4.83798">
        <ele>170.2</ele>
        <time>2024-09-20T08:08:22Z</time>
      </trkpt>
      <trkpt lat="45.87704" lon="4.83799">
        <ele>170.2</ele>
        <time>2024-09-20T08:08:23Z</time>
      </trkpt>
      <trkpt lat="45.87702" lon="4.838">
        <ele>170.2</ele>
        <time>2024-09-20T08:08:24Z</time>
      </trkpt>
      <trkpt lat="45.877" lon="4.838">
        <ele>170.2</ele>
        <time>2024-09-20T08:08:25Z</time>
      </trkpt>
      <trkpt lat="45.87697" lon="4.838">
        <ele>170.6</ele>
        <time>2024-09-20T08:08:26Z</time>
      </trkpt>
      <trkpt lat="45.87694" lon="4.83799">
        <ele>170.6</ele>
        <time>2024-09-20T08:08:27Z</time>
      </trkpt>
      <trkpt lat="45.87692" lon="4.83798">
        <ele>170.6</ele>
        <time>2024-09-20T08:08:28Z</time>
      </trkpt>
      <trkpt lat="45.87689" lon="4.83796">
        <ele>170.6</ele>
        <time>2024-09-20T08:08:29Z</time>
      </trkpt>
      <trkpt lat="45.87687" lon="4.83793">
        <ele>170</ele>
        <time>2024-09-20T08:08:30Z</time>
      </trkpt>
      <trkpt lat="45.87684" lon="4.83791">
        <ele>170</ele>
        <time>2024-09-20T08:08:31Z</time>
      </trkpt>
      <trkpt lat="45.87681" lon="4.8379">
        <ele>170</ele>
        <time>2024-09-20T08:08:32Z</time>
      </trkpt>
      <trkpt lat="45.87678" lon="4.83789">
        <ele>169.8</ele>
        <time>2024-09-20T08:08:33Z</time>
      </trkpt>
      <trkpt lat="45.87674" lon="4.83789">
        <ele>169.8</ele>
        <time>2024-09-20T08:08:34Z</time>
      </trkpt>
      <trkpt lat="45.87671" lon="4.83789">
        <ele>169.8</ele>
        <time>2024-09-20T08:08:35Z</time>
      </trkpt>
      <trkpt lat="45.87668" lon="4.83788">
        <ele>169.8</ele>
        <time>2024-09-20T08:08:36Z</time>
      </trkpt>
      <trkpt lat="45.87665" lon="4.83788">
        <ele>169.8</ele>
        <time>2024-09-20T08:08:37Z</time>
      </trkpt>
      <trkpt lat="45.87662" lon="4.83788">
        <ele>169.6</ele>
        <time>2024-09-20T08:08:38Z</time>
      </trkpt>
      <trkpt lat="45.87659" lon="4.83788">
        <ele>169.6</ele>
        <time>2024-09-20T08:08:39Z</time>
      </trkpt>
      <trkpt lat="45.87655" lon="4.83788">
        <ele>169.6</ele>
        <time>2024-09-20T08:08:40Z</time>
      </trkpt>
      <trkpt lat="45.87652" lon="4.83788">
        <ele>169.6</ele>
        <time>2024-09-20T08:08:41Z</time>
      </trkpt>
      <trkpt lat="45.87649" lon="4.83788">
        <ele>169.6</ele>
        <time>2024-09-20T08:08:42Z</time>
      </trkpt>
      <trkpt lat="45.87645" lon="4.83788">
        <ele>169.8</ele>
        <time>2024-09-20T08:08:43Z</time>
      </trkpt>
      <trkpt lat="45.87641" lon="4.83788">
        <ele>169.8</ele>
        <time>2024-09-20T08:08:44Z</time>
      </trkpt>
      <trkpt lat="45.87637" lon="4.83789">
        <ele>169.8</ele>
        <time>2024-09-20T08:08:45Z</time>
      </trkpt>
      <trkpt lat="45.87633" lon="4.83788">
        <ele>169.4</ele>
        <time>2024-09-20T08:08:46Z</time>
      </trkpt>
      <trkpt lat="45.87629" lon="4.83788">
        <ele>169.4</ele>
        <time>2024-09-20T08:08:47Z</time>
      </trkpt>
      <trkpt lat="45.87625" lon="4.83788">
        <ele>169</ele>
        <time>2024-09-20T08:08:48Z</time>
      </trkpt>
      <trkpt lat="45.87621" lon="4.83787">
        <ele>169</ele>
        <time>2024-09-20T08:08:49Z</time>
      </trkpt>
      <trkpt lat="45.87616" lon="4.83786">
        <ele>169</ele>
        <time>2024-09-20T08:08:50Z</time>
      </trkpt>
      <trkpt lat="45.87612" lon="4.83785">
        <ele>169.6</ele>
        <time>2024-09-20T08:08:51Z</time>
      </trkpt>
      <trkpt lat="45.87608" lon="4.83785">
        <ele>169.6</ele>
        <time>2024-09-20T08:08:52Z</time>
      </trkpt>
      <trkpt lat="45.87604" lon="4.83784">
        <ele>169.6</ele>
        <time>2024-09-20T08:08:53Z</time>
      </trkpt>
      <trkpt lat="45.876" lon="4.83783">
        <ele>169.6</ele>
        <time>2024-09-20T08:08:54Z</time>
      </trkpt>
      <trkpt lat="45.87596" lon="4.83783">
        <ele>169.6</ele>
        <time>2024-09-20T08:08:55Z</time>
      </trkpt>
      <trkpt lat="45.87592" lon="4.83782">
        <ele>169.6</ele>
        <time>2024-09-20T08:08:56Z</time>
      </trkpt>
      <trkpt lat="45.87587" lon="4.83782">
        <ele>169.6</ele>
        <time>2024-09-20T08:08:57Z</time>
      </trkpt>
      <trkpt lat="45.87583" lon="4.83781">
        <ele>169.6</ele>
        <time>2024-09-20T08:08:58Z</time>
      </trkpt>
      <trkpt lat="45.87579" lon="4.8378">
        <ele>169.6</ele>
        <time>2024-09-20T08:08:59Z</time>
      </trkpt>
      <trkpt lat="45.87575" lon="4.8378">
        <ele>169.6</ele>
        <time>2024-09-20T08:09:00Z</time>
      </trkpt>
      <trkpt lat="45.87571" lon="4.83781">
        <ele>169.6</ele>
        <time>2024-09-20T08:09:01Z</time>
      </trkpt>
      <trkpt lat="45.87567" lon="4.83782">
        <ele>170</ele>
        <time>2024-09-20T08:09:02Z</time>
      </trkpt>
      <trkpt lat="45.87563" lon="4.83783">
        <ele>170</ele>
        <time>2024-09-20T08:09:03Z</time>
      </trkpt>
      <trkpt lat="45.87559" lon="4.83782">
        <ele>170</ele>
        <time>2024-09-20T08:09:04Z</time>
      </trkpt>
      <trkpt lat="45.87555" lon="4.83782">
        <ele>169.6</ele>
        <time>2024-09-20T08:09:05Z</time>
      </trkpt>
      <trkpt lat="45.87552" lon="4.83781">
        <ele>169.6</ele>
        <time>2024-09-20T08:09:06Z</time>
      </trkpt>
      <trkpt lat="45.87549" lon="4.8378">
        <ele>169.6</ele>
        <time>2024-09-20T08:09:07Z</time>
      </trkpt>
      <trkpt lat="45.87546" lon="4.83779">
        <ele>169.6</ele>
        <time>2024-09-20T08:09:08Z</time>
      </trkpt>
      <trkpt lat="45.87542" lon="4.83778">
        <ele>169.6</ele>
        <time>2024-09-20T08:09:09Z</time>
      </trkpt>
      <trkpt lat="45.87539" lon="4.83778">
        <ele>169.8</ele>
        <time>2024-09-20T08:09:10Z</time>
      </trkpt>
      <trkpt lat="45.87536" lon="4.83777">
        <ele>169.8</ele>
        <time>2024-09-20T08:09:11Z</time>
      </trkpt>
      <trkpt lat="45.87532" lon="4.83776">
        <ele>169.8</ele>
        <time>2024-09-20T08:09:12Z</time>
      </trkpt>
      <trkpt lat="45.87528" lon="4.83775">
        <ele>169.8</ele>
        <time>2024-09-20T08:09:13Z</time>
      </trkpt>
      <trkpt lat="45.87524" lon="4.83774">
        <ele>169.8</ele>
        <time>2024-09-20T08:09:14Z</time>
      </trkpt>
      <trkpt lat="45.87521" lon="4.83773">
        <ele>169.8</ele>
        <time>2024-09-20T08:09:15Z</time>
      </trkpt>
      <trkpt lat="45.87517" lon="4.83773">
        <ele>169.8</ele>
        <time>2024-09-20T08:09:16Z</time>
      </trkpt>
      <trkpt lat="45.87513" lon="4.83772">
        <ele>169.8</ele>
        <time>2024-09-20T08:09:17Z</time>
      </trkpt>
      <trkpt lat="45.87509" lon="4.83772">
        <ele>169.8</ele>
        <time>2024-09-20T08:09:18Z</time>
      </trkpt>
      <trkpt lat="45.87505" lon="4.83771">
        <ele>169.8</ele>
        <time>2024-09-20T08:09:19Z</time>
      </trkpt>
      <trkpt lat="45.87501" lon="4.83771">
        <ele>169.8</ele>
        <time>2024-09-20T08:09:20Z</time>
      </trkpt>
      <trkpt lat="45.87497" lon="4.8377">
        <ele>169.8</ele>
        <time>2024-09-20T08:09:21Z</time>
      </trkpt>
      <trkpt lat="45.87493" lon="4.83769">
        <ele>169.8</ele>
        <time>2024-09-20T08:09:22Z</time>
      </trkpt>
      <trkpt lat="45.8749" lon="4.83769">
        <ele>169.4</ele>
        <time>2024-09-20T08:09:23Z</time>
      </trkpt>
      <trkpt lat="45.87486" lon="4.83768">
        <ele>169.4</ele>
        <time>2024-09-20T08:09:24Z</time>
      </trkpt>
      <trkpt lat="45.87481" lon="4.83768">
        <ele>169.4</ele>
        <time>2024-09-20T08:09:25Z</time>
      </trkpt>
      <trkpt lat="45.87477" lon="4.83769">
        <ele>169.4</ele>
        <time>2024-09-20T08:09:26Z</time>
      </trkpt>
      <trkpt lat="45.87474" lon="4.83768">
        <ele>169.6</ele>
        <time>2024-09-20T08:09:27Z</time>
      </trkpt>
      <trkpt lat="45.8747" lon="4.83767">
        <ele>169.8</ele>
        <time>2024-09-20T08:09:28Z</time>
      </trkpt>
      <trkpt lat="45.87466" lon="4.83766">
        <ele>169.8</ele>
        <time>2024-09-20T08:09:29Z</time>
      </trkpt>
      <trkpt lat="45.87462" lon="4.83765">
        <ele>169.8</ele>
        <time>2024-09-20T08:09:30Z</time>
      </trkpt>
      <trkpt lat="45.87457" lon="4.83765">
        <ele>169.8</ele>
        <time>2024-09-20T08:09:31Z</time>
      </trkpt>
      <trkpt lat="45.87453" lon="4.83764">
        <ele>169.6</ele>
        <time>2024-09-20T08:09:32Z</time>
      </trkpt>
      <trkpt lat="45.87449" lon="4.83763">
        <ele>169.6</ele>
        <time>2024-09-20T08:09:33Z</time>
      </trkpt>
      <trkpt lat="45.87446" lon="4.83763">
        <ele>169.6</ele>
        <time>2024-09-20T08:09:34Z</time>
      </trkpt>
      <trkpt lat="45.87444" lon="4.83763">
        <ele>169.6</ele>
        <time>2024-09-20T08:09:35Z</time>
      </trkpt>
      <trkpt lat="45.87442" lon="4.83762">
        <ele>169.8</ele>
        <time>2024-09-20T08:09:36Z</time>
      </trkpt>
      <trkpt lat="45.8744" lon="4.83762">
        <ele>169.6</ele>
        <time>2024-09-20T08:09:37Z</time>
      </trkpt>
      <trkpt lat="45.87437" lon="4.83761">
        <ele>169.6</ele>
        <time>2024-09-20T08:09:38Z</time>
      </trkpt>
      <trkpt lat="45.87434" lon="4.8376">
        <ele>169.6</ele>
        <time>2024-09-20T08:09:39Z</time>
      </trkpt>
      <trkpt lat="45.87431" lon="4.83759">
        <ele>169.6</ele>
        <time>2024-09-20T08:09:40Z</time>
      </trkpt>
      <trkpt lat="45.87427" lon="4.83758">
        <ele>169.4</ele>
        <time>2024-09-20T08:09:41Z</time>
      </trkpt>
      <trkpt lat="45.87424" lon="4.83758">
        <ele>169.4</ele>
        <time>2024-09-20T08:09:42Z</time>
      </trkpt>
      <trkpt lat="45.87419" lon="4.83758">
        <ele>169.4</ele>
        <time>2024-09-20T08:09:43Z</time>
      </trkpt>
      <trkpt lat="45.87415" lon="4.83758">
        <ele>169.4</ele>
        <time>2024-09-20T08:09:44Z</time>
      </trkpt>
      <trkpt lat="45.87411" lon="4.83758">
        <ele>169.4</ele>
        <time>2024-09-20T08:09:45Z</time>
      </trkpt>
      <trkpt lat="45.87407" lon="4.83758">
        <ele>169.4</ele>
        <time>2024-09-20T08:09:46Z</time>
      </trkpt>
      <trkpt lat="45.87402" lon="4.83758">
        <ele>169.4</ele>
        <time>2024-09-20T08:09:47Z</time>
      </trkpt>
      <trkpt lat="45.87398" lon="4.83757">
        <ele>169.4</ele>
        <time>2024-09-20T08:09:48Z</time>
      </trkpt>
      <trkpt lat="45.87393" lon="4.83756">
        <ele>169.4</ele>
        <time>2024-09-20T08:09:49Z</time>
      </trkpt>
      <trkpt lat="45.87388" lon="4.83755">
        <ele>169.4</ele>
        <time>2024-09-20T08:09:50Z</time>
      </trkpt>
      <trkpt lat="45.87383" lon="4.83754">
        <ele>169.2</ele>
        <time>2024-09-20T08:09:51Z</time>
      </trkpt>
      <trkpt lat="45.87379" lon="4.83753">
        <ele>169.2</ele>
        <time>2024-09-20T08:09:52Z</time>
      </trkpt>
      <trkpt lat="45.87374" lon="4.83751">
        <ele>169.2</ele>
        <time>2024-09-20T08:09:53Z</time>
      </trkpt>
      <trkpt lat="45.87369" lon="4.8375">
        <ele>169.2</ele>
        <time>2024-09-20T08:09:54Z</time>
      </trkpt>
      <trkpt lat="45.87364" lon="4.83748">
        <ele>169.4</ele>
        <time>2024-09-20T08:09:55Z</time>
      </trkpt>
      <trkpt lat="45.8736" lon="4.83747">
        <ele>169.4</ele>
        <time>2024-09-20T08:09:56Z</time>
      </trkpt>
      <trkpt lat="45.87355" lon="4.83747">
        <ele>169.4</ele>
        <time>2024-09-20T08:09:57Z</time>
      </trkpt>
      <trkpt lat="45.8735" lon="4.83746">
        <ele>169.4</ele>
        <time>2024-09-20T08:09:58Z</time>
      </trkpt>
      <trkpt lat="45.87346" lon="4.83746">
        <ele>169.4</ele>
        <time>2024-09-20T08:09:59Z</time>
      </trkpt>
      <trkpt lat="45.87341" lon="4.83745">
        <ele>169.2</ele>
        <time>2024-09-20T08:10:00Z</time>
      </trkpt>
      <trkpt lat="45.87336" lon="4.83745">
        <ele>169.2</ele>
        <time>2024-09-20T08:10:01Z</time>
      </trkpt>
      <trkpt lat="45.87332" lon="4.83744">
        <ele>169.2</ele>
        <time>2024-09-20T08:10:02Z</time>
      </trkpt>
      <trkpt lat="45.87327" lon="4.83744">
        <ele>169.2</ele>
        <time>2024-09-20T08:10:03Z</time>
      </trkpt>
      <trkpt lat="45.87323" lon="4.83743">
        <ele>169.2</ele>
        <time>2024-09-20T08:10:04Z</time>
      </trkpt>
      <trkpt lat="45.87318" lon="4.83742">
        <ele>169.2</ele>
        <time>2024-09-20T08:10:05Z</time>
      </trkpt>
      <trkpt lat="45.87313" lon="4.83741">
        <ele>169.2</ele>
        <time>2024-09-20T08:10:06Z</time>
      </trkpt>
      <trkpt lat="45.87309" lon="4.8374">
        <ele>169.2</ele>
        <time>2024-09-20T08:10:07Z</time>
      </trkpt>
      <trkpt lat="45.87304" lon="4.8374">
        <ele>169.2</ele>
        <time>2024-09-20T08:10:08Z</time>
      </trkpt>
      <trkpt lat="45.873" lon="4.83739">
        <ele>169.2</ele>
        <time>2024-09-20T08:10:09Z</time>
      </trkpt>
      <trkpt lat="45.87295" lon="4.83738">
        <ele>169.2</ele>
        <time>2024-09-20T08:10:10Z</time>
      </trkpt>
      <trkpt lat="45.87291" lon="4.83737">
        <ele>169.4</ele>
        <time>2024-09-20T08:10:11Z</time>
      </trkpt>
      <trkpt lat="45.87286" lon="4.83737">
        <ele>169.4</ele>
        <time>2024-09-20T08:10:12Z</time>
      </trkpt>
      <trkpt lat="45.87282" lon="4.83736">
        <ele>169.4</ele>
        <time>2024-09-20T08:10:13Z</time>
      </trkpt>
      <trkpt lat="45.87277" lon="4.83735">
        <ele>169.4</ele>
        <time>2024-09-20T08:10:14Z</time>
      </trkpt>
      <trkpt lat="45.87273" lon="4.83735">
        <ele>169.4</ele>
        <time>2024-09-20T08:10:15Z</time>
      </trkpt>
      <trkpt lat="45.87268" lon="4.83734">
        <ele>169.2</ele>
        <time>2024-09-20T08:10:16Z</time>
      </trkpt>
      <trkpt lat="45.87263" lon="4.83734">
        <ele>169.4</ele>
        <time>2024-09-20T08:10:17Z</time>
      </trkpt>
      <trkpt lat="45.87259" lon="4.83733">
        <ele>169.4</ele>
        <time>2024-09-20T08:10:18Z</time>
      </trkpt>
      <trkpt lat="45.87254" lon="4.83732">
        <ele>169.4</ele>
        <time>2024-09-20T08:10:19Z</time>
      </trkpt>
      <trkpt lat="45.87249" lon="4.83731">
        <ele>169.4</ele>
        <time>2024-09-20T08:10:20Z</time>
      </trkpt>
      <trkpt lat="45.87245" lon="4.8373">
        <ele>169.6</ele>
        <time>2024-09-20T08:10:21Z</time>
      </trkpt>
      <trkpt lat="45.8724" lon="4.83729">
        <ele>169.6</ele>
        <time>2024-09-20T08:10:22Z</time>
      </trkpt>
      <trkpt lat="45.87236" lon="4.83728">
        <ele>169.6</ele>
        <time>2024-09-20T08:10:23Z</time>
      </trkpt>
      <trkpt lat="45.87231" lon="4.83728">
        <ele>169.2</ele>
        <time>2024-09-20T08:10:24Z</time>
      </trkpt>
      <trkpt lat="45.87226" lon="4.83728">
        <ele>169.2</ele>
        <time>2024-09-20T08:10:25Z</time>
      </trkpt>
      <trkpt lat="45.87221" lon="4.83728">
        <ele>169.2</ele>
        <time>2024-09-20T08:10:26Z</time>
      </trkpt>
      <trkpt lat="45.87217" lon="4.83728">
        <ele>169.4</ele>
        <time>2024-09-20T08:10:27Z</time>
      </trkpt>
      <trkpt lat="45.87213" lon="4.83728">
        <ele>169.4</ele>
        <time>2024-09-20T08:10:28Z</time>
      </trkpt>
      <trkpt lat="45.87209" lon="4.83727">
        <ele>169.4</ele>
        <time>2024-09-20T08:10:29Z</time>
      </trkpt>
      <trkpt lat="45.87204" lon="4.83727">
        <ele>169.6</ele>
        <time>2024-09-20T08:10:30Z</time>
      </trkpt>
      <trkpt lat="45.872" lon="4.83726">
        <ele>169.6</ele>
        <time>2024-09-20T08:10:31Z</time>
      </trkpt>
      <trkpt lat="45.87195" lon="4.83724">
        <ele>169.4</ele>
        <time>2024-09-20T08:10:32Z</time>
      </trkpt>
      <trkpt lat="45.87191" lon="4.83723">
        <ele>169.4</ele>
        <time>2024-09-20T08:10:33Z</time>
      </trkpt>
      <trkpt lat="45.87187" lon="4.83722">
        <ele>169.6</ele>
        <time>2024-09-20T08:10:34Z</time>
      </trkpt>
      <trkpt lat="45.87182" lon="4.83721">
        <ele>169.6</ele>
        <time>2024-09-20T08:10:35Z</time>
      </trkpt>
      <trkpt lat="45.87178" lon="4.8372">
        <ele>169.6</ele>
        <time>2024-09-20T08:10:36Z</time>
      </trkpt>
      <trkpt lat="45.87173" lon="4.83719">
        <ele>169.6</ele>
        <time>2024-09-20T08:10:37Z</time>
      </trkpt>
      <trkpt lat="45.87169" lon="4.83718">
        <ele>169.6</ele>
        <time>2024-09-20T08:10:38Z</time>
      </trkpt>
      <trkpt lat="45.87165" lon="4.83717">
        <ele>169.6</ele>
        <time>2024-09-20T08:10:39Z</time>
      </trkpt>
      <trkpt lat="45.8716" lon="4.83717">
        <ele>169.4</ele>
        <time>2024-09-20T08:10:40Z</time>
      </trkpt>
      <trkpt lat="45.87156" lon="4.83716">
        <ele>169.4</ele>
        <time>2024-09-20T08:10:41Z</time>
      </trkpt>
      <trkpt lat="45.87151" lon="4.83715">
        <ele>169.4</ele>
        <time>2024-09-20T08:10:42Z</time>
      </trkpt>
      <trkpt lat="45.87147" lon="4.83714">
        <ele>169.2</ele>
        <time>2024-09-20T08:10:43Z</time>
      </trkpt>
      <trkpt lat="45.87142" lon="4.83714">
        <ele>169.2</ele>
        <time>2024-09-20T08:10:44Z</time>
      </trkpt>
      <trkpt lat="45.87138" lon="4.83713">
        <ele>169</ele>
        <time>2024-09-20T08:10:45Z</time>
      </trkpt>
      <trkpt lat="45.87133" lon="4.83712">
        <ele>169</ele>
        <time>2024-09-20T08:10:46Z</time>
      </trkpt>
      <trkpt lat="45.87129" lon="4.83712">
        <ele>169</ele>
        <time>2024-09-20T08:10:47Z</time>
      </trkpt>
      <trkpt lat="45.87124" lon="4.83711">
        <ele>169</ele>
        <time>2024-09-20T08:10:48Z</time>
      </trkpt>
      <trkpt lat="45.8712" lon="4.8371">
        <ele>169</ele>
        <time>2024-09-20T08:10:49Z</time>
      </trkpt>
      <trkpt lat="45.87115" lon="4.83709">
        <ele>169</ele>
        <time>2024-09-20T08:10:50Z</time>
      </trkpt>
      <trkpt lat="45.87111" lon="4.83708">
        <ele>169</ele>
        <time>2024-09-20T08:10:51Z</time>
      </trkpt>
      <trkpt lat="45.87106" lon="4.83708">
        <ele>169</ele>
        <time>2024-09-20T08:10:52Z</time>
      </trkpt>
      <trkpt lat="45.87102" lon="4.83707">
        <ele>169</ele>
        <time>2024-09-20T08:10:53Z</time>
      </trkpt>
      <trkpt lat="45.87097" lon="4.83706">
        <ele>168.8</ele>
        <time>2024-09-20T08:10:54Z</time>
      </trkpt>
      <trkpt lat="45.87092" lon="4.83706">
        <ele>168.8</ele>
        <time>2024-09-20T08:10:55Z</time>
      </trkpt>
      <trkpt lat="45.87088" lon="4.83706">
        <ele>168.8</ele>
        <time>2024-09-20T08:10:56Z</time>
      </trkpt>
      <trkpt lat="45.87083" lon="4.83705">
        <ele>168.8</ele>
        <time>2024-09-20T08:10:57Z</time>
      </trkpt>
      <trkpt lat="45.87078" lon="4.83705">
        <ele>168.8</ele>
        <time>2024-09-20T08:10:58Z</time>
      </trkpt>
      <trkpt lat="45.87073" lon="4.83704">
        <ele>168.8</ele>
        <time>2024-09-20T08:10:59Z</time>
      </trkpt>
      <trkpt lat="45.87069" lon="4.83704">
        <ele>168.8</ele>
        <time>2024-09-20T08:11:00Z</time>
      </trkpt>
      <trkpt lat="45.87064" lon="4.83704">
        <ele>168.8</ele>
        <time>2024-09-20T08:11:01Z</time>
      </trkpt>
      <trkpt lat="45.87059" lon="4.83703">
        <ele>168.6</ele>
        <time>2024-09-20T08:11:02Z</time>
      </trkpt>
      <trkpt lat="45.87055" lon="4.83702">
        <ele>168.6</ele>
        <time>2024-09-20T08:11:03Z</time>
      </trkpt>
      <trkpt lat="45.8705" lon="4.83702">
        <ele>168.6</ele>
        <time>2024-09-20T08:11:04Z</time>
      </trkpt>
      <trkpt lat="45.87045" lon="4.83702">
        <ele>168.6</ele>
        <time>2024-09-20T08:11:05Z</time>
      </trkpt>
      <trkpt lat="45.8704" lon="4.83701">
        <ele>168.6</ele>
        <time>2024-09-20T08:11:06Z</time>
      </trkpt>
      <trkpt lat="45.87036" lon="4.83701">
        <ele>168.6</ele>
        <time>2024-09-20T08:11:07Z</time>
      </trkpt>
      <trkpt lat="45.87031" lon="4.83701">
        <ele>168.6</ele>
        <time>2024-09-20T08:11:08Z</time>
      </trkpt>
      <trkpt lat="45.87027" lon="4.83701">
        <ele>168.6</ele>
        <time>2024-09-20T08:11:09Z</time>
      </trkpt>
      <trkpt lat="45.87022" lon="4.837">
        <ele>168.8</ele>
        <time>2024-09-20T08:11:10Z</time>
      </trkpt>
      <trkpt lat="45.87017" lon="4.837">
        <ele>168.8</ele>
        <time>2024-09-20T08:11:11Z</time>
      </trkpt>
      <trkpt lat="45.87013" lon="4.837">
        <ele>168.8</ele>
        <time>2024-09-20T08:11:12Z</time>
      </trkpt>
      <trkpt lat="45.87008" lon="4.837">
        <ele>168.8</ele>
        <time>2024-09-20T08:11:13Z</time>
      </trkpt>
      <trkpt lat="45.87004" lon="4.837">
        <ele>168.8</ele>
        <time>2024-09-20T08:11:14Z</time>
      </trkpt>
      <trkpt lat="45.86999" lon="4.837">
        <ele>168.8</ele>
        <time>2024-09-20T08:11:15Z</time>
      </trkpt>
      <trkpt lat="45.86995" lon="4.837">
        <ele>168.8</ele>
        <time>2024-09-20T08:11:16Z</time>
      </trkpt>
      <trkpt lat="45.8699" lon="4.83701">
        <ele>168.6</ele>
        <time>2024-09-20T08:11:17Z</time>
      </trkpt>
      <trkpt lat="45.86986" lon="4.83701">
        <ele>168.6</ele>
        <time>2024-09-20T08:11:18Z</time>
      </trkpt>
      <trkpt lat="45.86981" lon="4.83702">
        <ele>168.6</ele>
        <time>2024-09-20T08:11:19Z</time>
      </trkpt>
      <trkpt lat="45.86977" lon="4.83702">
        <ele>168.6</ele>
        <time>2024-09-20T08:11:20Z</time>
      </trkpt>
      <trkpt lat="45.86973" lon="4.83702">
        <ele>168.6</ele>
        <time>2024-09-20T08:11:21Z</time>
      </trkpt>
      <trkpt lat="45.86968" lon="4.83701">
        <ele>168.6</ele>
        <time>2024-09-20T08:11:22Z</time>
      </trkpt>
      <trkpt lat="45.86963" lon="4.83701">
        <ele>168.6</ele>
        <time>2024-09-20T08:11:23Z</time>
      </trkpt>
      <trkpt lat="45.86959" lon="4.83701">
        <ele>168.6</ele>
        <time>2024-09-20T08:11:24Z</time>
      </trkpt>
      <trkpt lat="45.86954" lon="4.83701">
        <ele>168.6</ele>
        <time>2024-09-20T08:11:25Z</time>
      </trkpt>
      <trkpt lat="45.8695" lon="4.83702">
        <ele>168.6</ele>
        <time>2024-09-20T08:11:26Z</time>
      </trkpt>
      <trkpt lat="45.86945" lon="4.83703">
        <ele>168.6</ele>
        <time>2024-09-20T08:11:27Z</time>
      </trkpt>
      <trkpt lat="45.86941" lon="4.83703">
        <ele>168.6</ele>
        <time>2024-09-20T08:11:28Z</time>
      </trkpt>
      <trkpt lat="45.86936" lon="4.83704">
        <ele>168.8</ele>
        <time>2024-09-20T08:11:29Z</time>
      </trkpt>
      <trkpt lat="45.86932" lon="4.83705">
        <ele>168.8</ele>
        <time>2024-09-20T08:11:30Z</time>
      </trkpt>
      <trkpt lat="45.86927" lon="4.83706">
        <ele>168.8</ele>
        <time>2024-09-20T08:11:31Z</time>
      </trkpt>
      <trkpt lat="45.86922" lon="4.83707">
        <ele>168.8</ele>
        <time>2024-09-20T08:11:32Z</time>
      </trkpt>
      <trkpt lat="45.86918" lon="4.83709">
        <ele>168.6</ele>
        <time>2024-09-20T08:11:33Z</time>
      </trkpt>
      <trkpt lat="45.86913" lon="4.8371">
        <ele>168.6</ele>
        <time>2024-09-20T08:11:34Z</time>
      </trkpt>
      <trkpt lat="45.86908" lon="4.83711">
        <ele>168.6</ele>
        <time>2024-09-20T08:11:35Z</time>
      </trkpt>
      <trkpt lat="45.86904" lon="4.83711">
        <ele>168.6</ele>
        <time>2024-09-20T08:11:36Z</time>
      </trkpt>
      <trkpt lat="45.86899" lon="4.83713">
        <ele>168.6</ele>
        <time>2024-09-20T08:11:37Z</time>
      </trkpt>
      <trkpt lat="45.86894" lon="4.83714">
        <ele>168.6</ele>
        <time>2024-09-20T08:11:38Z</time>
      </trkpt>
      <trkpt lat="45.86889" lon="4.83715">
        <ele>168.6</ele>
        <time>2024-09-20T08:11:39Z</time>
      </trkpt>
      <trkpt lat="45.86885" lon="4.83717">
        <ele>168.6</ele>
        <time>2024-09-20T08:11:40Z</time>
      </trkpt>
      <trkpt lat="45.8688" lon="4.83718">
        <ele>168.6</ele>
        <time>2024-09-20T08:11:41Z</time>
      </trkpt>
      <trkpt lat="45.86875" lon="4.8372">
        <ele>168.6</ele>
        <time>2024-09-20T08:11:42Z</time>
      </trkpt>
      <trkpt lat="45.86871" lon="4.83722">
        <ele>168.6</ele>
        <time>2024-09-20T08:11:43Z</time>
      </trkpt>
      <trkpt lat="45.86866" lon="4.83725">
        <ele>168.6</ele>
        <time>2024-09-20T08:11:44Z</time>
      </trkpt>
      <trkpt lat="45.86861" lon="4.83728">
        <ele>168.6</ele>
        <time>2024-09-20T08:11:45Z</time>
      </trkpt>
      <trkpt lat="45.86857" lon="4.83731">
        <ele>168.8</ele>
        <time>2024-09-20T08:11:46Z</time>
      </trkpt>
      <trkpt lat="45.86853" lon="4.83734">
        <ele>168.8</ele>
        <time>2024-09-20T08:11:47Z</time>
      </trkpt>
      <trkpt lat="45.86848" lon="4.83737">
        <ele>168.8</ele>
        <time>2024-09-20T08:11:48Z</time>
      </trkpt>
      <trkpt lat="45.86844" lon="4.8374">
        <ele>168.8</ele>
        <time>2024-09-20T08:11:49Z</time>
      </trkpt>
      <trkpt lat="45.86839" lon="4.83743">
        <ele>168.6</ele>
        <time>2024-09-20T08:11:50Z</time>
      </trkpt>
      <trkpt lat="45.86835" lon="4.83746">
        <ele>168.6</ele>
        <time>2024-09-20T08:11:51Z</time>
      </trkpt>
      <trkpt lat="45.86831" lon="4.83749">
        <ele>168.6</ele>
        <time>2024-09-20T08:11:52Z</time>
      </trkpt>
      <trkpt lat="45.86827" lon="4.83752">
        <ele>168.6</ele>
        <time>2024-09-20T08:11:53Z</time>
      </trkpt>
      <trkpt lat="45.86823" lon="4.83755">
        <ele>168.6</ele>
        <time>2024-09-20T08:11:54Z</time>
      </trkpt>
      <trkpt lat="45.86819" lon="4.83758">
        <ele>168.6</ele>
        <time>2024-09-20T08:11:55Z</time>
      </trkpt>
      <trkpt lat="45.86814" lon="4.8376">
        <ele>168.4</ele>
        <time>2024-09-20T08:11:56Z</time>
      </trkpt>
      <trkpt lat="45.8681" lon="4.83763">
        <ele>168.4</ele>
        <time>2024-09-20T08:11:57Z</time>
      </trkpt>
      <trkpt lat="45.86806" lon="4.83766">
        <ele>168.4</ele>
        <time>2024-09-20T08:11:58Z</time>
      </trkpt>
      <trkpt lat="45.86802" lon="4.83769">
        <ele>168.4</ele>
        <time>2024-09-20T08:11:59Z</time>
      </trkpt>
      <trkpt lat="45.86797" lon="4.83771">
        <ele>168.8</ele>
        <time>2024-09-20T08:12:00Z</time>
      </trkpt>
      <trkpt lat="45.86792" lon="4.83774">
        <ele>168.8</ele>
        <time>2024-09-20T08:12:01Z</time>
      </trkpt>
      <trkpt lat="45.86788" lon="4.83777">
        <ele>168.8</ele>
        <time>2024-09-20T08:12:02Z</time>
      </trkpt>
      <trkpt lat="45.86784" lon="4.83779">
        <ele>168.8</ele>
        <time>2024-09-20T08:12:03Z</time>
      </trkpt>
      <trkpt lat="45.86779" lon="4.83782">
        <ele>168.8</ele>
        <time>2024-09-20T08:12:04Z</time>
      </trkpt>
      <trkpt lat="45.86775" lon="4.83785">
        <ele>168.8</ele>
        <time>2024-09-20T08:12:05Z</time>
      </trkpt>
      <trkpt lat="45.86771" lon="4.83789">
        <ele>168.8</ele>
        <time>2024-09-20T08:12:06Z</time>
      </trkpt>
      <trkpt lat="45.86767" lon="4.83792">
        <ele>168.8</ele>
        <time>2024-09-20T08:12:07Z</time>
      </trkpt>
      <trkpt lat="45.86763" lon="4.83796">
        <ele>168.8</ele>
        <time>2024-09-20T08:12:08Z</time>
      </trkpt>
      <trkpt lat="45.86759" lon="4.838">
        <ele>169</ele>
        <time>2024-09-20T08:12:09Z</time>
      </trkpt>
      <trkpt lat="45.86755" lon="4.83804">
        <ele>169</ele>
        <time>2024-09-20T08:12:10Z</time>
      </trkpt>
      <trkpt lat="45.86751" lon="4.83808">
        <ele>169</ele>
        <time>2024-09-20T08:12:11Z</time>
      </trkpt>
      <trkpt lat="45.86747" lon="4.83812">
        <ele>169</ele>
        <time>2024-09-20T08:12:12Z</time>
      </trkpt>
      <trkpt lat="45.86743" lon="4.83816">
        <ele>169</ele>
        <time>2024-09-20T08:12:13Z</time>
      </trkpt>
      <trkpt lat="45.86739" lon="4.8382">
        <ele>169.2</ele>
        <time>2024-09-20T08:12:14Z</time>
      </trkpt>
      <trkpt lat="45.86735" lon="4.83823">
        <ele>169.2</ele>
        <time>2024-09-20T08:12:15Z</time>
      </trkpt>
      <trkpt lat="45.86731" lon="4.83827">
        <ele>169.2</ele>
        <time>2024-09-20T08:12:16Z</time>
      </trkpt>
      <trkpt lat="45.86727" lon="4.8383">
        <ele>169.2</ele>
        <time>2024-09-20T08:12:17Z</time>
      </trkpt>
      <trkpt lat="45.86723" lon="4.83833">
        <ele>169</ele>
        <time>2024-09-20T08:12:18Z</time>
      </trkpt>
      <trkpt lat="45.86719" lon="4.83837">
        <ele>169</ele>
        <time>2024-09-20T08:12:19Z</time>
      </trkpt>
      <trkpt lat="45.86715" lon="4.83841">
        <ele>169</ele>
        <time>2024-09-20T08:12:20Z</time>
      </trkpt>
      <trkpt lat="45.86711" lon="4.83844">
        <ele>169</ele>
        <time>2024-09-20T08:12:21Z</time>
      </trkpt>
      <trkpt lat="45.86707" lon="4.83849">
        <ele>169</ele>
        <time>2024-09-20T08:12:22Z</time>
      </trkpt>
      <trkpt lat="45.86704" lon="4.83853">
        <ele>169</ele>
        <time>2024-09-20T08:12:23Z</time>
      </trkpt>
      <trkpt lat="45.867" lon="4.83857">
        <ele>169</ele>
        <time>2024-09-20T08:12:24Z</time>
      </trkpt>
      <trkpt lat="45.86696" lon="4.83862">
        <ele>169</ele>
        <time>2024-09-20T08:12:25Z</time>
      </trkpt>
      <trkpt lat="45.86693" lon="4.83866">
        <ele>169</ele>
        <time>2024-09-20T08:12:26Z</time>
      </trkpt>
      <trkpt lat="45.86689" lon="4.8387">
        <ele>169</ele>
        <time>2024-09-20T08:12:27Z</time>
      </trkpt>
      <trkpt lat="45.86686" lon="4.83874">
        <ele>169</ele>
        <time>2024-09-20T08:12:28Z</time>
      </trkpt>
      <trkpt lat="45.86682" lon="4.83878">
        <ele>169</ele>
        <time>2024-09-20T08:12:29Z</time>
      </trkpt>
      <trkpt lat="45.86678" lon="4.83883">
        <ele>169.2</ele>
        <time>2024-09-20T08:12:30Z</time>
      </trkpt>
      <trkpt lat="45.86675" lon="4.83887">
        <ele>169.2</ele>
        <time>2024-09-20T08:12:31Z</time>
      </trkpt>
      <trkpt lat="45.86671" lon="4.83891">
        <ele>169</ele>
        <time>2024-09-20T08:12:32Z</time>
      </trkpt>
      <trkpt lat="45.86668" lon="4.83895">
        <ele>169</ele>
        <time>2024-09-20T08:12:33Z</time>
      </trkpt>
      <trkpt lat="45.86665" lon="4.83899">
        <ele>169</ele>
        <time>2024-09-20T08:12:34Z</time>
      </trkpt>
      <trkpt lat="45.86661" lon="4.83903">
        <ele>169</ele>
        <time>2024-09-20T08:12:35Z</time>
      </trkpt>
      <trkpt lat="45.86657" lon="4.83908">
        <ele>169</ele>
        <time>2024-09-20T08:12:36Z</time>
      </trkpt>
      <trkpt lat="45.86653" lon="4.83912">
        <ele>169</ele>
        <time>2024-09-20T08:12:37Z</time>
      </trkpt>
      <trkpt lat="45.8665" lon="4.83916">
        <ele>169</ele>
        <time>2024-09-20T08:12:38Z</time>
      </trkpt>
      <trkpt lat="45.86646" lon="4.8392">
        <ele>169</ele>
        <time>2024-09-20T08:12:39Z</time>
      </trkpt>
      <trkpt lat="45.86643" lon="4.83924">
        <ele>169</ele>
        <time>2024-09-20T08:12:40Z</time>
      </trkpt>
      <trkpt lat="45.86639" lon="4.83928">
        <ele>169</ele>
        <time>2024-09-20T08:12:41Z</time>
      </trkpt>
      <trkpt lat="45.86635" lon="4.83931">
        <ele>169</ele>
        <time>2024-09-20T08:12:42Z</time>
      </trkpt>
      <trkpt lat="45.86632" lon="4.83935">
        <ele>169</ele>
        <time>2024-09-20T08:12:43Z</time>
      </trkpt>
      <trkpt lat="45.86627" lon="4.83939">
        <ele>169</ele>
        <time>2024-09-20T08:12:44Z</time>
      </trkpt>
      <trkpt lat="45.86622" lon="4.83942">
        <ele>169.2</ele>
        <time>2024-09-20T08:12:45Z</time>
      </trkpt>
      <trkpt lat="45.86618" lon="4.83946">
        <ele>169.2</ele>
        <time>2024-09-20T08:12:46Z</time>
      </trkpt>
      <trkpt lat="45.86614" lon="4.83949">
        <ele>169.2</ele>
        <time>2024-09-20T08:12:47Z</time>
      </trkpt>
      <trkpt lat="45.8661" lon="4.83951">
        <ele>169.2</ele>
        <time>2024-09-20T08:12:48Z</time>
      </trkpt>
      <trkpt lat="45.86607" lon="4.83954">
        <ele>169.8</ele>
        <time>2024-09-20T08:12:49Z</time>
      </trkpt>
      <trkpt lat="45.86603" lon="4.83956">
        <ele>169.8</ele>
        <time>2024-09-20T08:12:50Z</time>
      </trkpt>
      <trkpt lat="45.86599" lon="4.83957">
        <ele>170.2</ele>
        <time>2024-09-20T08:12:51Z</time>
      </trkpt>
      <trkpt lat="45.86596" lon="4.83957">
        <ele>170.2</ele>
        <time>2024-09-20T08:12:52Z</time>
      </trkpt>
      <trkpt lat="45.86592" lon="4.83958">
        <ele>170.2</ele>
        <time>2024-09-20T08:12:53Z</time>
      </trkpt>
      <trkpt lat="45.86588" lon="4.83959">
        <ele>170</ele>
        <time>2024-09-20T08:12:54Z</time>
      </trkpt>
      <trkpt lat="45.86584" lon="4.8396">
        <ele>170</ele>
        <time>2024-09-20T08:12:55Z</time>
      </trkpt>
      <trkpt lat="45.8658" lon="4.83962">
        <ele>170</ele>
        <time>2024-09-20T08:12:56Z</time>
      </trkpt>
      <trkpt lat="45.86575" lon="4.83963">
        <ele>170</ele>
        <time>2024-09-20T08:12:57Z</time>
      </trkpt>
      <trkpt lat="45.86571" lon="4.83964">
        <ele>169.8</ele>
        <time>2024-09-20T08:12:58Z</time>
      </trkpt>
      <trkpt lat="45.86566" lon="4.83964">
        <ele>169.8</ele>
        <time>2024-09-20T08:12:59Z</time>
      </trkpt>
      <trkpt lat="45.86562" lon="4.83965">
        <ele>169.8</ele>
        <time>2024-09-20T08:13:00Z</time>
      </trkpt>
      <trkpt lat="45.86557" lon="4.83967">
        <ele>169.8</ele>
        <time>2024-09-20T08:13:01Z</time>
      </trkpt>
      <trkpt lat="45.86553" lon="4.83968">
        <ele>169.8</ele>
        <time>2024-09-20T08:13:02Z</time>
      </trkpt>
      <trkpt lat="45.86549" lon="4.83969">
        <ele>170</ele>
        <time>2024-09-20T08:13:03Z</time>
      </trkpt>
      <trkpt lat="45.86544" lon="4.8397">
        <ele>170</ele>
        <time>2024-09-20T08:13:04Z</time>
      </trkpt>
      <trkpt lat="45.86539" lon="4.83971">
        <ele>170</ele>
        <time>2024-09-20T08:13:05Z</time>
      </trkpt>
      <trkpt lat="45.86535" lon="4.83972">
        <ele>170</ele>
        <time>2024-09-20T08:13:06Z</time>
      </trkpt>
      <trkpt lat="45.8653" lon="4.83974">
        <ele>170</ele>
        <time>2024-09-20T08:13:07Z</time>
      </trkpt>
      <trkpt lat="45.86525" lon="4.83976">
        <ele>169.8</ele>
        <time>2024-09-20T08:13:08Z</time>
      </trkpt>
      <trkpt lat="45.8652" lon="4.83977">
        <ele>169.8</ele>
        <time>2024-09-20T08:13:09Z</time>
      </trkpt>
      <trkpt lat="45.86516" lon="4.83978">
        <ele>169.8</ele>
        <time>2024-09-20T08:13:10Z</time>
      </trkpt>
      <trkpt lat="45.86511" lon="4.8398">
        <ele>169.8</ele>
        <time>2024-09-20T08:13:11Z</time>
      </trkpt>
      <trkpt lat="45.86506" lon="4.83982">
        <ele>169.6</ele>
        <time>2024-09-20T08:13:12Z</time>
      </trkpt>
      <trkpt lat="45.86502" lon="4.83984">
        <ele>169.6</ele>
        <time>2024-09-20T08:13:13Z</time>
      </trkpt>
      <trkpt lat="45.86497" lon="4.83985">
        <ele>169.6</ele>
        <time>2024-09-20T08:13:14Z</time>
      </trkpt>
      <trkpt lat="45.86492" lon="4.83987">
        <ele>169.6</ele>
        <time>2024-09-20T08:13:15Z</time>
      </trkpt>
      <trkpt lat="45.86488" lon="4.83989">
        <ele>169.6</ele>
        <time>2024-09-20T08:13:16Z</time>
      </trkpt>
      <trkpt lat="45.86482" lon="4.8399">
        <ele>169.6</ele>
        <time>2024-09-20T08:13:17Z</time>
      </trkpt>
      <trkpt lat="45.86477" lon="4.83991">
        <ele>169.6</ele>
        <time>2024-09-20T08:13:18Z</time>
      </trkpt>
      <trkpt lat="45.86473" lon="4.83993">
        <ele>169.6</ele>
        <time>2024-09-20T08:13:19Z</time>
      </trkpt>
      <trkpt lat="45.86468" lon="4.83995">
        <ele>169.6</ele>
        <time>2024-09-20T08:13:20Z</time>
      </trkpt>
      <trkpt lat="45.86463" lon="4.83997">
        <ele>169.6</ele>
        <time>2024-09-20T08:13:21Z</time>
      </trkpt>
      <trkpt lat="45.86458" lon="4.83999">
        <ele>169.8</ele>
        <time>2024-09-20T08:13:22Z</time>
      </trkpt>
      <trkpt lat="45.86453" lon="4.84001">
        <ele>169.8</ele>
        <time>2024-09-20T08:13:23Z</time>
      </trkpt>
      <trkpt lat="45.86448" lon="4.84003">
        <ele>169.8</ele>
        <time>2024-09-20T08:13:24Z</time>
      </trkpt>
      <trkpt lat="45.86443" lon="4.84004">
        <ele>169.4</ele>
        <time>2024-09-20T08:13:25Z</time>
      </trkpt>
      <trkpt lat="45.86438" lon="4.84006">
        <ele>169.2</ele>
        <time>2024-09-20T08:13:26Z</time>
      </trkpt>
      <trkpt lat="45.86433" lon="4.84008">
        <ele>169.2</ele>
        <time>2024-09-20T08:13:27Z</time>
      </trkpt>
      <trkpt lat="45.86428" lon="4.8401">
        <ele>169.2</ele>
        <time>2024-09-20T08:13:28Z</time>
      </trkpt>
      <trkpt lat="45.86423" lon="4.84012">
        <ele>169.2</ele>
        <time>2024-09-20T08:13:29Z</time>
      </trkpt>
      <trkpt lat="45.86418" lon="4.84013">
        <ele>169.2</ele>
        <time>2024-09-20T08:13:30Z</time>
      </trkpt>
      <trkpt lat="45.86413" lon="4.84014">
        <ele>169.4</ele>
        <time>2024-09-20T08:13:31Z</time>
      </trkpt>
      <trkpt lat="45.86408" lon="4.84016">
        <ele>169.4</ele>
        <time>2024-09-20T08:13:32Z</time>
      </trkpt>
      <trkpt lat="45.86403" lon="4.84017">
        <ele>169.4</ele>
        <time>2024-09-20T08:13:33Z</time>
      </trkpt>
      <trkpt lat="45.86398" lon="4.84018">
        <ele>169.4</ele>
        <time>2024-09-20T08:13:34Z</time>
      </trkpt>
      <trkpt lat="45.86393" lon="4.8402">
        <ele>169</ele>
        <time>2024-09-20T08:13:35Z</time>
      </trkpt>
      <trkpt lat="45.86388" lon="4.84021">
        <ele>169</ele>
        <time>2024-09-20T08:13:36Z</time>
      </trkpt>
      <trkpt lat="45.86383" lon="4.84022">
        <ele>169</ele>
        <time>2024-09-20T08:13:37Z</time>
      </trkpt>
      <trkpt lat="45.86378" lon="4.84024">
        <ele>170</ele>
        <time>2024-09-20T08:13:38Z</time>
      </trkpt>
      <trkpt lat="45.86373" lon="4.84025">
        <ele>170</ele>
        <time>2024-09-20T08:13:39Z</time>
      </trkpt>
      <trkpt lat="45.86368" lon="4.84026">
        <ele>170</ele>
        <time>2024-09-20T08:13:40Z</time>
      </trkpt>
      <trkpt lat="45.86363" lon="4.84027">
        <ele>170</ele>
        <time>2024-09-20T08:13:41Z</time>
      </trkpt>
      <trkpt lat="45.86358" lon="4.84028">
        <ele>170</ele>
        <time>2024-09-20T08:13:42Z</time>
      </trkpt>
      <trkpt lat="45.86353" lon="4.84029">
        <ele>169.6</ele>
        <time>2024-09-20T08:13:43Z</time>
      </trkpt>
      <trkpt lat="45.86348" lon="4.8403">
        <ele>169.6</ele>
        <time>2024-09-20T08:13:44Z</time>
      </trkpt>
      <trkpt lat="45.86344" lon="4.84032">
        <ele>169.6</ele>
        <time>2024-09-20T08:13:45Z</time>
      </trkpt>
      <trkpt lat="45.86339" lon="4.84033">
        <ele>169.6</ele>
        <time>2024-09-20T08:13:46Z</time>
      </trkpt>
      <trkpt lat="45.86334" lon="4.84034">
        <ele>169.6</ele>
        <time>2024-09-20T08:13:47Z</time>
      </trkpt>
      <trkpt lat="45.86329" lon="4.84035">
        <ele>169.8</ele>
        <time>2024-09-20T08:13:48Z</time>
      </trkpt>
      <trkpt lat="45.86324" lon="4.84037">
        <ele>169.8</ele>
        <time>2024-09-20T08:13:49Z</time>
      </trkpt>
      <trkpt lat="45.86319" lon="4.84038">
        <ele>169.8</ele>
        <time>2024-09-20T08:13:50Z</time>
      </trkpt>
      <trkpt lat="45.86314" lon="4.84039">
        <ele>169.8</ele>
        <time>2024-09-20T08:13:51Z</time>
      </trkpt>
      <trkpt lat="45.86309" lon="4.8404">
        <ele>169.8</ele>
        <time>2024-09-20T08:13:52Z</time>
      </trkpt>
      <trkpt lat="45.86305" lon="4.84041">
        <ele>169.8</ele>
        <time>2024-09-20T08:13:53Z</time>
      </trkpt>
      <trkpt lat="45.863" lon="4.84042">
        <ele>169.8</ele>
        <time>2024-09-20T08:13:54Z</time>
      </trkpt>
      <trkpt lat="45.86295" lon="4.84043">
        <ele>169.8</ele>
        <time>2024-09-20T08:13:55Z</time>
      </trkpt>
      <trkpt lat="45.8629" lon="4.84045">
        <ele>169.8</ele>
        <time>2024-09-20T08:13:56Z</time>
      </trkpt>
      <trkpt lat="45.86286" lon="4.84046">
        <ele>169.8</ele>
        <time>2024-09-20T08:13:57Z</time>
      </trkpt>
      <trkpt lat="45.8628" lon="4.84047">
        <ele>169.4</ele>
        <time>2024-09-20T08:13:58Z</time>
      </trkpt>
      <trkpt lat="45.86275" lon="4.84049">
        <ele>169.4</ele>
        <time>2024-09-20T08:13:59Z</time>
      </trkpt>
      <trkpt lat="45.8627" lon="4.8405">
        <ele>169.4</ele>
        <time>2024-09-20T08:14:00Z</time>
      </trkpt>
      <trkpt lat="45.86265" lon="4.84051">
        <ele>169.4</ele>
        <time>2024-09-20T08:14:01Z</time>
      </trkpt>
      <trkpt lat="45.8626" lon="4.84052">
        <ele>169.4</ele>
        <time>2024-09-20T08:14:02Z</time>
      </trkpt>
      <trkpt lat="45.86255" lon="4.84054">
        <ele>169.4</ele>
        <time>2024-09-20T08:14:03Z</time>
      </trkpt>
      <trkpt lat="45.8625" lon="4.84055">
        <ele>169.4</ele>
        <time>2024-09-20T08:14:04Z</time>
      </trkpt>
      <trkpt lat="45.86245" lon="4.84056">
        <ele>169.4</ele>
        <time>2024-09-20T08:14:05Z</time>
      </trkpt>
      <trkpt lat="45.8624" lon="4.84057">
        <ele>169.4</ele>
        <time>2024-09-20T08:14:06Z</time>
      </trkpt>
      <trkpt lat="45.86235" lon="4.84059">
        <ele>169.4</ele>
        <time>2024-09-20T08:14:07Z</time>
      </trkpt>
      <trkpt lat="45.8623" lon="4.8406">
        <ele>169.4</ele>
        <time>2024-09-20T08:14:08Z</time>
      </trkpt>
      <trkpt lat="45.86226" lon="4.84061">
        <ele>169.4</ele>
        <time>2024-09-20T08:14:09Z</time>
      </trkpt>
      <trkpt lat="45.86221" lon="4.84062">
        <ele>169.4</ele>
        <time>2024-09-20T08:14:10Z</time>
      </trkpt>
      <trkpt lat="45.86216" lon="4.84064">
        <ele>169.4</ele>
        <time>2024-09-20T08:14:11Z</time>
      </trkpt>
      <trkpt lat="45.86211" lon="4.84065">
        <ele>169.4</ele>
        <time>2024-09-20T08:14:12Z</time>
      </trkpt>
      <trkpt lat="45.86206" lon="4.84066">
        <ele>169.4</ele>
        <time>2024-09-20T08:14:13Z</time>
      </trkpt>
      <trkpt lat="45.86202" lon="4.84068">
        <ele>169.6</ele>
        <time>2024-09-20T08:14:14Z</time>
      </trkpt>
      <trkpt lat="45.86197" lon="4.84069">
        <ele>169.6</ele>
        <time>2024-09-20T08:14:15Z</time>
      </trkpt>
      <trkpt lat="45.86192" lon="4.84071">
        <ele>169.6</ele>
        <time>2024-09-20T08:14:16Z</time>
      </trkpt>
      <trkpt lat="45.86187" lon="4.84072">
        <ele>169.6</ele>
        <time>2024-09-20T08:14:17Z</time>
      </trkpt>
      <trkpt lat="45.86182" lon="4.84073">
        <ele>169.6</ele>
        <time>2024-09-20T08:14:18Z</time>
      </trkpt>
      <trkpt lat="45.86177" lon="4.84074">
        <ele>169.6</ele>
        <time>2024-09-20T08:14:19Z</time>
      </trkpt>
      <trkpt lat="45.86172" lon="4.84075">
        <ele>169.6</ele>
        <time>2024-09-20T08:14:20Z</time>
      </trkpt>
      <trkpt lat="45.86167" lon="4.84076">
        <ele>169.6</ele>
        <time>2024-09-20T08:14:21Z</time>
      </trkpt>
      <trkpt lat="45.86162" lon="4.84077">
        <ele>169.6</ele>
        <time>2024-09-20T08:14:22Z</time>
      </trkpt>
      <trkpt lat="45.86157" lon="4.84079">
        <ele>169.4</ele>
        <time>2024-09-20T08:14:23Z</time>
      </trkpt>
      <trkpt lat="45.86152" lon="4.8408">
        <ele>169.4</ele>
        <time>2024-09-20T08:14:24Z</time>
      </trkpt>
      <trkpt lat="45.86147" lon="4.84081">
        <ele>169.4</ele>
        <time>2024-09-20T08:14:25Z</time>
      </trkpt>
      <trkpt lat="45.86142" lon="4.84082">
        <ele>169.4</ele>
        <time>2024-09-20T08:14:26Z</time>
      </trkpt>
      <trkpt lat="45.86137" lon="4.84084">
        <ele>169.4</ele>
        <time>2024-09-20T08:14:27Z</time>
      </trkpt>
      <trkpt lat="45.86132" lon="4.84085">
        <ele>169.4</ele>
        <time>2024-09-20T08:14:28Z</time>
      </trkpt>
      <trkpt lat="45.86127" lon="4.84086">
        <ele>169.4</ele>
        <time>2024-09-20T08:14:29Z</time>
      </trkpt>
      <trkpt lat="45.86121" lon="4.84088">
        <ele>169.2</ele>
        <time>2024-09-20T08:14:30Z</time>
      </trkpt>
      <trkpt lat="45.86116" lon="4.84089">
        <ele>169.2</ele>
        <time>2024-09-20T08:14:31Z</time>
      </trkpt>
      <trkpt lat="45.86111" lon="4.84091">
        <ele>169.2</ele>
        <time>2024-09-20T08:14:32Z</time>
      </trkpt>
      <trkpt lat="45.86106" lon="4.84092">
        <ele>169.8</ele>
        <time>2024-09-20T08:14:33Z</time>
      </trkpt>
      <trkpt lat="45.86101" lon="4.84093">
        <ele>169.8</ele>
        <time>2024-09-20T08:14:34Z</time>
      </trkpt>
      <trkpt lat="45.86096" lon="4.84094">
        <ele>169.8</ele>
        <time>2024-09-20T08:14:35Z</time>
      </trkpt>
      <trkpt lat="45.86091" lon="4.84095">
        <ele>169.8</ele>
        <time>2024-09-20T08:14:36Z</time>
      </trkpt>
      <trkpt lat="45.86085" lon="4.84097">
        <ele>169.4</ele>
        <time>2024-09-20T08:14:37Z</time>
      </trkpt>
      <trkpt lat="45.8608" lon="4.84098">
        <ele>169.4</ele>
        <time>2024-09-20T08:14:38Z</time>
      </trkpt>
      <trkpt lat="45.86075" lon="4.84099">
        <ele>169.4</ele>
        <time>2024-09-20T08:14:39Z</time>
      </trkpt>
      <trkpt lat="45.8607" lon="4.841">
        <ele>169.4</ele>
        <time>2024-09-20T08:14:40Z</time>
      </trkpt>
      <trkpt lat="45.86065" lon="4.84102">
        <ele>169.4</ele>
        <time>2024-09-20T08:14:41Z</time>
      </trkpt>
      <trkpt lat="45.8606" lon="4.84103">
        <ele>169.6</ele>
        <time>2024-09-20T08:14:42Z</time>
      </trkpt>
      <trkpt lat="45.86055" lon="4.84104">
        <ele>169.4</ele>
        <time>2024-09-20T08:14:43Z</time>
      </trkpt>
      <trkpt lat="45.8605" lon="4.84105">
        <ele>169.4</ele>
        <time>2024-09-20T08:14:44Z</time>
      </trkpt>
      <trkpt lat="45.86045" lon="4.84106">
        <ele>169.4</ele>
        <time>2024-09-20T08:14:45Z</time>
      </trkpt>
      <trkpt lat="45.8604" lon="4.84108">
        <ele>169.4</ele>
        <time>2024-09-20T08:14:46Z</time>
      </trkpt>
      <trkpt lat="45.86035" lon="4.84109">
        <ele>169.4</ele>
        <time>2024-09-20T08:14:47Z</time>
      </trkpt>
      <trkpt lat="45.8603" lon="4.84109">
        <ele>169.4</ele>
        <time>2024-09-20T08:14:48Z</time>
      </trkpt>
      <trkpt lat="45.86025" lon="4.8411">
        <ele>169.4</ele>
        <time>2024-09-20T08:14:49Z</time>
      </trkpt>
      <trkpt lat="45.8602" lon="4.84112">
        <ele>169.4</ele>
        <time>2024-09-20T08:14:50Z</time>
      </trkpt>
      <trkpt lat="45.86015" lon="4.84113">
        <ele>169.2</ele>
        <time>2024-09-20T08:14:51Z</time>
      </trkpt>
      <trkpt lat="45.8601" lon="4.84114">
        <ele>169.2</ele>
        <time>2024-09-20T08:14:52Z</time>
      </trkpt>
      <trkpt lat="45.86005" lon="4.84116">
        <ele>169.2</ele>
        <time>2024-09-20T08:14:53Z</time>
      </trkpt>
      <trkpt lat="45.86" lon="4.84117">
        <ele>169.2</ele>
        <time>2024-09-20T08:14:54Z</time>
      </trkpt>
      <trkpt lat="45.85996" lon="4.84118">
        <ele>169.2</ele>
        <time>2024-09-20T08:14:55Z</time>
      </trkpt>
      <trkpt lat="45.85991" lon="4.84119">
        <ele>169.2</ele>
        <time>2024-09-20T08:14:56Z</time>
      </trkpt>
      <trkpt lat="45.85986" lon="4.84121">
        <ele>169.2</ele>
        <time>2024-09-20T08:14:57Z</time>
      </trkpt>
      <trkpt lat="45.85981" lon="4.84122">
        <ele>169.2</ele>
        <time>2024-09-20T08:14:58Z</time>
      </trkpt>
      <trkpt lat="45.85976" lon="4.84123">
        <ele>169.2</ele>
        <time>2024-09-20T08:14:59Z</time>
      </trkpt>
      <trkpt lat="45.85971" lon="4.84124">
        <ele>169.4</ele>
        <time>2024-09-20T08:15:00Z</time>
      </trkpt>
      <trkpt lat="45.85967" lon="4.84125">
        <ele>169.4</ele>
        <time>2024-09-20T08:15:01Z</time>
      </trkpt>
      <trkpt lat="45.85962" lon="4.84126">
        <ele>169.4</ele>
        <time>2024-09-20T08:15:02Z</time>
      </trkpt>
      <trkpt lat="45.85957" lon="4.84127">
        <ele>169.4</ele>
        <time>2024-09-20T08:15:03Z</time>
      </trkpt>
      <trkpt lat="45.85953" lon="4.84128">
        <ele>169</ele>
        <time>2024-09-20T08:15:04Z</time>
      </trkpt>
      <trkpt lat="45.85948" lon="4.84128">
        <ele>169</ele>
        <time>2024-09-20T08:15:05Z</time>
      </trkpt>
      <trkpt lat="45.85943" lon="4.84128">
        <ele>169</ele>
        <time>2024-09-20T08:15:06Z</time>
      </trkpt>
      <trkpt lat="45.85938" lon="4.84129">
        <ele>169</ele>
        <time>2024-09-20T08:15:07Z</time>
      </trkpt>
      <trkpt lat="45.85933" lon="4.84129">
        <ele>169</ele>
        <time>2024-09-20T08:15:08Z</time>
      </trkpt>
      <trkpt lat="45.85928" lon="4.84129">
        <ele>169</ele>
        <time>2024-09-20T08:15:09Z</time>
      </trkpt>
      <trkpt lat="45.85923" lon="4.84129">
        <ele>169</ele>
        <time>2024-09-20T08:15:10Z</time>
      </trkpt>
      <trkpt lat="45.85917" lon="4.84129">
        <ele>169</ele>
        <time>2024-09-20T08:15:11Z</time>
      </trkpt>
      <trkpt lat="45.85912" lon="4.84128">
        <ele>169</ele>
        <time>2024-09-20T08:15:12Z</time>
      </trkpt>
      <trkpt lat="45.85907" lon="4.84128">
        <ele>168.8</ele>
        <time>2024-09-20T08:15:13Z</time>
      </trkpt>
      <trkpt lat="45.85902" lon="4.84127">
        <ele>168.8</ele>
        <time>2024-09-20T08:15:14Z</time>
      </trkpt>
      <trkpt lat="45.85898" lon="4.84126">
        <ele>168.8</ele>
        <time>2024-09-20T08:15:15Z</time>
      </trkpt>
      <trkpt lat="45.85893" lon="4.84125">
        <ele>168.8</ele>
        <time>2024-09-20T08:15:16Z</time>
      </trkpt>
      <trkpt lat="45.85888" lon="4.84124">
        <ele>168.8</ele>
        <time>2024-09-20T08:15:17Z</time>
      </trkpt>
      <trkpt lat="45.85883" lon="4.84123">
        <ele>168.8</ele>
        <time>2024-09-20T08:15:18Z</time>
      </trkpt>
      <trkpt lat="45.85878" lon="4.84122">
        <ele>168.8</ele>
        <time>2024-09-20T08:15:19Z</time>
      </trkpt>
      <trkpt lat="45.85873" lon="4.84121">
        <ele>168.8</ele>
        <time>2024-09-20T08:15:20Z</time>
      </trkpt>
      <trkpt lat="45.85868" lon="4.84119">
        <ele>168.8</ele>
        <time>2024-09-20T08:15:21Z</time>
      </trkpt>
      <trkpt lat="45.85863" lon="4.84117">
        <ele>168.8</ele>
        <time>2024-09-20T08:15:22Z</time>
      </trkpt>
      <trkpt lat="45.85858" lon="4.84116">
        <ele>168.8</ele>
        <time>2024-09-20T08:15:23Z</time>
      </trkpt>
      <trkpt lat="45.85853" lon="4.84113">
        <ele>168.8</ele>
        <time>2024-09-20T08:15:24Z</time>
      </trkpt>
      <trkpt lat="45.85848" lon="4.84111">
        <ele>168.8</ele>
        <time>2024-09-20T08:15:25Z</time>
      </trkpt>
      <trkpt lat="45.85844" lon="4.84109">
        <ele>168.8</ele>
        <time>2024-09-20T08:15:26Z</time>
      </trkpt>
      <trkpt lat="45.85839" lon="4.84107">
        <ele>168.8</ele>
        <time>2024-09-20T08:15:27Z</time>
      </trkpt>
      <trkpt lat="45.85834" lon="4.84104">
        <ele>168.8</ele>
        <time>2024-09-20T08:15:28Z</time>
      </trkpt>
      <trkpt lat="45.8583" lon="4.84102">
        <ele>168.8</ele>
        <time>2024-09-20T08:15:29Z</time>
      </trkpt>
      <trkpt lat="45.85825" lon="4.841">
        <ele>168.6</ele>
        <time>2024-09-20T08:15:30Z</time>
      </trkpt>
      <trkpt lat="45.8582" lon="4.84098">
        <ele>168.6</ele>
        <time>2024-09-20T08:15:31Z</time>
      </trkpt>
      <trkpt lat="45.85816" lon="4.84096">
        <ele>168.8</ele>
        <time>2024-09-20T08:15:32Z</time>
      </trkpt>
      <trkpt lat="45.85811" lon="4.84094">
        <ele>168.8</ele>
        <time>2024-09-20T08:15:33Z</time>
      </trkpt>
      <trkpt lat="45.85806" lon="4.84092">
        <ele>168.8</ele>
        <time>2024-09-20T08:15:34Z</time>
      </trkpt>
      <trkpt lat="45.85802" lon="4.8409">
        <ele>168.6</ele>
        <time>2024-09-20T08:15:35Z</time>
      </trkpt>
      <trkpt lat="45.85797" lon="4.84087">
        <ele>168.8</ele>
        <time>2024-09-20T08:15:36Z</time>
      </trkpt>
      <trkpt lat="45.85792" lon="4.84085">
        <ele>168.8</ele>
        <time>2024-09-20T08:15:37Z</time>
      </trkpt>
      <trkpt lat="45.85787" lon="4.84082">
        <ele>168.8</ele>
        <time>2024-09-20T08:15:38Z</time>
      </trkpt>
      <trkpt lat="45.85783" lon="4.8408">
        <ele>168.8</ele>
        <time>2024-09-20T08:15:39Z</time>
      </trkpt>
      <trkpt lat="45.85778" lon="4.84077">
        <ele>168.8</ele>
        <time>2024-09-20T08:15:40Z</time>
      </trkpt>
      <trkpt lat="45.85773" lon="4.84075">
        <ele>168.6</ele>
        <time>2024-09-20T08:15:41Z</time>
      </trkpt>
      <trkpt lat="45.85768" lon="4.84073">
        <ele>168.6</ele>
        <time>2024-09-20T08:15:42Z</time>
      </trkpt>
      <trkpt lat="45.85763" lon="4.8407">
        <ele>169</ele>
        <time>2024-09-20T08:15:43Z</time>
      </trkpt>
      <trkpt lat="45.85759" lon="4.84068">
        <ele>169</ele>
        <time>2024-09-20T08:15:44Z</time>
      </trkpt>
      <trkpt lat="45.85754" lon="4.84066">
        <ele>169</ele>
        <time>2024-09-20T08:15:45Z</time>
      </trkpt>
      <trkpt lat="45.85749" lon="4.84064">
        <ele>169</ele>
        <time>2024-09-20T08:15:46Z</time>
      </trkpt>
      <trkpt lat="45.85745" lon="4.84062">
        <ele>169</ele>
        <time>2024-09-20T08:15:47Z</time>
      </trkpt>
      <trkpt lat="45.8574" lon="4.84059">
        <ele>168.8</ele>
        <time>2024-09-20T08:15:48Z</time>
      </trkpt>
      <trkpt lat="45.85735" lon="4.84057">
        <ele>169</ele>
        <time>2024-09-20T08:15:49Z</time>
      </trkpt>
      <trkpt lat="45.8573" lon="4.84055">
        <ele>169</ele>
        <time>2024-09-20T08:15:50Z</time>
      </trkpt>
      <trkpt lat="45.85726" lon="4.84053">
        <ele>169</ele>
        <time>2024-09-20T08:15:51Z</time>
      </trkpt>
      <trkpt lat="45.85721" lon="4.8405">
        <ele>168.8</ele>
        <time>2024-09-20T08:15:52Z</time>
      </trkpt>
      <trkpt lat="45.85717" lon="4.84049">
        <ele>169</ele>
        <time>2024-09-20T08:15:53Z</time>
      </trkpt>
      <trkpt lat="45.85713" lon="4.84047">
        <ele>169</ele>
        <time>2024-09-20T08:15:54Z</time>
      </trkpt>
      <trkpt lat="45.85709" lon="4.84045">
        <ele>169</ele>
        <time>2024-09-20T08:15:55Z</time>
      </trkpt>
      <trkpt lat="45.85705" lon="4.84043">
        <ele>169</ele>
        <time>2024-09-20T08:15:56Z</time>
      </trkpt>
      <trkpt lat="45.85701" lon="4.8404">
        <ele>169</ele>
        <time>2024-09-20T08:15:57Z</time>
      </trkpt>
      <trkpt lat="45.85697" lon="4.84038">
        <ele>169</ele>
        <time>2024-09-20T08:15:58Z</time>
      </trkpt>
      <trkpt lat="45.85693" lon="4.84037">
        <ele>169</ele>
        <time>2024-09-20T08:15:59Z</time>
      </trkpt>
      <trkpt lat="45.8569" lon="4.84035">
        <ele>169</ele>
        <time>2024-09-20T08:16:00Z</time>
      </trkpt>
      <trkpt lat="45.85687" lon="4.84034">
        <ele>169.2</ele>
        <time>2024-09-20T08:16:01Z</time>
      </trkpt>
      <trkpt lat="45.85683" lon="4.84033">
        <ele>169.2</ele>
        <time>2024-09-20T08:16:02Z</time>
      </trkpt>
      <trkpt lat="45.8568" lon="4.84031">
        <ele>169.2</ele>
        <time>2024-09-20T08:16:03Z</time>
      </trkpt>
      <trkpt lat="45.85678" lon="4.8403">
        <ele>169.2</ele>
        <time>2024-09-20T08:16:04Z</time>
      </trkpt>
      <trkpt lat="45.85674" lon="4.84029">
        <ele>169.2</ele>
        <time>2024-09-20T08:16:05Z</time>
      </trkpt>
      <trkpt lat="45.85671" lon="4.84028">
        <ele>169.2</ele>
        <time>2024-09-20T08:16:06Z</time>
      </trkpt>
      <trkpt lat="45.85666" lon="4.84026">
        <ele>169.2</ele>
        <time>2024-09-20T08:16:07Z</time>
      </trkpt>
      <trkpt lat="45.85662" lon="4.84024">
        <ele>169.2</ele>
        <time>2024-09-20T08:16:08Z</time>
      </trkpt>
      <trkpt lat="45.85658" lon="4.84022">
        <ele>169.2</ele>
        <time>2024-09-20T08:16:09Z</time>
      </trkpt>
      <trkpt lat="45.85654" lon="4.8402">
        <ele>169.2</ele>
        <time>2024-09-20T08:16:10Z</time>
      </trkpt>
      <trkpt lat="45.8565" lon="4.84017">
        <ele>169.2</ele>
        <time>2024-09-20T08:16:11Z</time>
      </trkpt>
      <trkpt lat="45.85646" lon="4.84015">
        <ele>169.2</ele>
        <time>2024-09-20T08:16:12Z</time>
      </trkpt>
      <trkpt lat="45.85642" lon="4.84013">
        <ele>169.2</ele>
        <time>2024-09-20T08:16:13Z</time>
      </trkpt>
      <trkpt lat="45.85637" lon="4.84011">
        <ele>169.2</ele>
        <time>2024-09-20T08:16:14Z</time>
      </trkpt>
      <trkpt lat="45.85633" lon="4.84009">
        <ele>168.8</ele>
        <time>2024-09-20T08:16:15Z</time>
      </trkpt>
      <trkpt lat="45.85628" lon="4.84007">
        <ele>168.8</ele>
        <time>2024-09-20T08:16:16Z</time>
      </trkpt>
      <trkpt lat="45.85624" lon="4.84005">
        <ele>169</ele>
        <time>2024-09-20T08:16:17Z</time>
      </trkpt>
      <trkpt lat="45.85619" lon="4.84003">
        <ele>169</ele>
        <time>2024-09-20T08:16:18Z</time>
      </trkpt>
      <trkpt lat="45.85615" lon="4.84001">
        <ele>169.4</ele>
        <time>2024-09-20T08:16:19Z</time>
      </trkpt>
      <trkpt lat="45.8561" lon="4.83999">
        <ele>169.4</ele>
        <time>2024-09-20T08:16:20Z</time>
      </trkpt>
      <trkpt lat="45.85606" lon="4.83996">
        <ele>169.4</ele>
        <time>2024-09-20T08:16:21Z</time>
      </trkpt>
      <trkpt lat="45.85602" lon="4.83994">
        <ele>169.4</ele>
        <time>2024-09-20T08:16:22Z</time>
      </trkpt>
      <trkpt lat="45.85597" lon="4.83991">
        <ele>169.4</ele>
        <time>2024-09-20T08:16:23Z</time>
      </trkpt>
      <trkpt lat="45.85593" lon="4.83989">
        <ele>169.6</ele>
        <time>2024-09-20T08:16:24Z</time>
      </trkpt>
      <trkpt lat="45.85588" lon="4.83987">
        <ele>169.6</ele>
        <time>2024-09-20T08:16:25Z</time>
      </trkpt>
      <trkpt lat="45.85584" lon="4.83984">
        <ele>169.6</ele>
        <time>2024-09-20T08:16:26Z</time>
      </trkpt>
      <trkpt lat="45.85579" lon="4.83982">
        <ele>169.6</ele>
        <time>2024-09-20T08:16:27Z</time>
      </trkpt>
      <trkpt lat="45.85574" lon="4.83979">
        <ele>169.2</ele>
        <time>2024-09-20T08:16:28Z</time>
      </trkpt>
      <trkpt lat="45.85569" lon="4.83977">
        <ele>169</ele>
        <time>2024-09-20T08:16:29Z</time>
      </trkpt>
      <trkpt lat="45.85564" lon="4.83975">
        <ele>169</ele>
        <time>2024-09-20T08:16:30Z</time>
      </trkpt>
      <trkpt lat="45.8556" lon="4.83972">
        <ele>169</ele>
        <time>2024-09-20T08:16:31Z</time>
      </trkpt>
      <trkpt lat="45.85555" lon="4.83969">
        <ele>169</ele>
        <time>2024-09-20T08:16:32Z</time>
      </trkpt>
      <trkpt lat="45.85551" lon="4.83967">
        <ele>169</ele>
        <time>2024-09-20T08:16:33Z</time>
      </trkpt>
      <trkpt lat="45.85546" lon="4.83964">
        <ele>169</ele>
        <time>2024-09-20T08:16:34Z</time>
      </trkpt>
      <trkpt lat="45.85541" lon="4.83962">
        <ele>169</ele>
        <time>2024-09-20T08:16:35Z</time>
      </trkpt>
      <trkpt lat="45.85537" lon="4.83959">
        <ele>169</ele>
        <time>2024-09-20T08:16:36Z</time>
      </trkpt>
      <trkpt lat="45.85533" lon="4.83957">
        <ele>168.6</ele>
        <time>2024-09-20T08:16:37Z</time>
      </trkpt>
      <trkpt lat="45.85528" lon="4.83954">
        <ele>169</ele>
        <time>2024-09-20T08:16:38Z</time>
      </trkpt>
      <trkpt lat="45.85524" lon="4.83952">
        <ele>169</ele>
        <time>2024-09-20T08:16:39Z</time>
      </trkpt>
      <trkpt lat="45.85519" lon="4.8395">
        <ele>169</ele>
        <time>2024-09-20T08:16:40Z</time>
      </trkpt>
      <trkpt lat="45.85514" lon="4.83948">
        <ele>169</ele>
        <time>2024-09-20T08:16:41Z</time>
      </trkpt>
      <trkpt lat="45.8551" lon="4.83946">
        <ele>168.8</ele>
        <time>2024-09-20T08:16:42Z</time>
      </trkpt>
      <trkpt lat="45.85505" lon="4.83943">
        <ele>168.8</ele>
        <time>2024-09-20T08:16:43Z</time>
      </trkpt>
      <trkpt lat="45.855" lon="4.83941">
        <ele>168.8</ele>
        <time>2024-09-20T08:16:44Z</time>
      </trkpt>
      <trkpt lat="45.85496" lon="4.83939">
        <ele>168.8</ele>
        <time>2024-09-20T08:16:45Z</time>
      </trkpt>
      <trkpt lat="45.85491" lon="4.83936">
        <ele>169</ele>
        <time>2024-09-20T08:16:46Z</time>
      </trkpt>
      <trkpt lat="45.85486" lon="4.83934">
        <ele>169</ele>
        <time>2024-09-20T08:16:47Z</time>
      </trkpt>
      <trkpt lat="45.85481" lon="4.83931">
        <ele>169</ele>
        <time>2024-09-20T08:16:48Z</time>
      </trkpt>
      <trkpt lat="45.85477" lon="4.83929">
        <ele>169</ele>
        <time>2024-09-20T08:16:49Z</time>
      </trkpt>
      <trkpt lat="45.85472" lon="4.83926">
        <ele>169</ele>
        <time>2024-09-20T08:16:50Z</time>
      </trkpt>
      <trkpt lat="45.85468" lon="4.83923">
        <ele>169.4</ele>
        <time>2024-09-20T08:16:51Z</time>
      </trkpt>
      <trkpt lat="45.85464" lon="4.83921">
        <ele>169.6</ele>
        <time>2024-09-20T08:16:52Z</time>
      </trkpt>
      <trkpt lat="45.85459" lon="4.83918">
        <ele>169.6</ele>
        <time>2024-09-20T08:16:53Z</time>
      </trkpt>
      <trkpt lat="45.85455" lon="4.83915">
        <ele>169.6</ele>
        <time>2024-09-20T08:16:54Z</time>
      </trkpt>
      <trkpt lat="45.8545" lon="4.83913">
        <ele>169.6</ele>
        <time>2024-09-20T08:16:55Z</time>
      </trkpt>
      <trkpt lat="45.85446" lon="4.83911">
        <ele>169.4</ele>
        <time>2024-09-20T08:16:56Z</time>
      </trkpt>
      <trkpt lat="45.85441" lon="4.83908">
        <ele>169.4</ele>
        <time>2024-09-20T08:16:57Z</time>
      </trkpt>
      <trkpt lat="45.85436" lon="4.83907">
        <ele>169.4</ele>
        <time>2024-09-20T08:16:58Z</time>
      </trkpt>
      <trkpt lat="45.85432" lon="4.83905">
        <ele>169.4</ele>
        <time>2024-09-20T08:16:59Z</time>
      </trkpt>
      <trkpt lat="45.85427" lon="4.83903">
        <ele>169.4</ele>
        <time>2024-09-20T08:17:00Z</time>
      </trkpt>
      <trkpt lat="45.85422" lon="4.83901">
        <ele>169.4</ele>
        <time>2024-09-20T08:17:01Z</time>
      </trkpt>
      <trkpt lat="45.85417" lon="4.83899">
        <ele>169.4</ele>
        <time>2024-09-20T08:17:02Z</time>
      </trkpt>
      <trkpt lat="45.85412" lon="4.83897">
        <ele>169.4</ele>
        <time>2024-09-20T08:17:03Z</time>
      </trkpt>
      <trkpt lat="45.85407" lon="4.83894">
        <ele>169.4</ele>
        <time>2024-09-20T08:17:04Z</time>
      </trkpt>
      <trkpt lat="45.85402" lon="4.83892">
        <ele>169.4</ele>
        <time>2024-09-20T08:17:05Z</time>
      </trkpt>
      <trkpt lat="45.85398" lon="4.8389">
        <ele>169.4</ele>
        <time>2024-09-20T08:17:06Z</time>
      </trkpt>
      <trkpt lat="45.85393" lon="4.83888">
        <ele>169.4</ele>
        <time>2024-09-20T08:17:07Z</time>
      </trkpt>
      <trkpt lat="45.85389" lon="4.83885">
        <ele>169.4</ele>
        <time>2024-09-20T08:17:08Z</time>
      </trkpt>
      <trkpt lat="45.85384" lon="4.83883">
        <ele>169.4</ele>
        <time>2024-09-20T08:17:09Z</time>
      </trkpt>
      <trkpt lat="45.85379" lon="4.83881">
        <ele>169.4</ele>
        <time>2024-09-20T08:17:10Z</time>
      </trkpt>
      <trkpt lat="45.85375" lon="4.83878">
        <ele>169.4</ele>
        <time>2024-09-20T08:17:11Z</time>
      </trkpt>
      <trkpt lat="45.8537" lon="4.83875">
        <ele>169.4</ele>
        <time>2024-09-20T08:17:12Z</time>
      </trkpt>
      <trkpt lat="45.85365" lon="4.83873">
        <ele>169.4</ele>
        <time>2024-09-20T08:17:13Z</time>
      </trkpt>
      <trkpt lat="45.8536" lon="4.8387">
        <ele>169.4</ele>
        <time>2024-09-20T08:17:14Z</time>
      </trkpt>
      <trkpt lat="45.85355" lon="4.83868">
        <ele>169.4</ele>
        <time>2024-09-20T08:17:15Z</time>
      </trkpt>
      <trkpt lat="45.8535" lon="4.83866">
        <ele>169.4</ele>
        <time>2024-09-20T08:17:16Z</time>
      </trkpt>
      <trkpt lat="45.85346" lon="4.83864">
        <ele>169.4</ele>
        <time>2024-09-20T08:17:17Z</time>
      </trkpt>
      <trkpt lat="45.85341" lon="4.83862">
        <ele>169.4</ele>
        <time>2024-09-20T08:17:18Z</time>
      </trkpt>
      <trkpt lat="45.85337" lon="4.83859">
        <ele>169.4</ele>
        <time>2024-09-20T08:17:19Z</time>
      </trkpt>
      <trkpt lat="45.85332" lon="4.83857">
        <ele>169.4</ele>
        <time>2024-09-20T08:17:20Z</time>
      </trkpt>
      <trkpt lat="45.85328" lon="4.83854">
        <ele>169.4</ele>
        <time>2024-09-20T08:17:21Z</time>
      </trkpt>
      <trkpt lat="45.85324" lon="4.83852">
        <ele>169.6</ele>
        <time>2024-09-20T08:17:22Z</time>
      </trkpt>
      <trkpt lat="45.85319" lon="4.8385">
        <ele>169.6</ele>
        <time>2024-09-20T08:17:23Z</time>
      </trkpt>
      <trkpt lat="45.85315" lon="4.83849">
        <ele>169.6</ele>
        <time>2024-09-20T08:17:24Z</time>
      </trkpt>
      <trkpt lat="45.85311" lon="4.83846">
        <ele>170</ele>
        <time>2024-09-20T08:17:25Z</time>
      </trkpt>
      <trkpt lat="45.85307" lon="4.83845">
        <ele>170</ele>
        <time>2024-09-20T08:17:26Z</time>
      </trkpt>
      <trkpt lat="45.85303" lon="4.83843">
        <ele>170</ele>
        <time>2024-09-20T08:17:27Z</time>
      </trkpt>
      <trkpt lat="45.85299" lon="4.83841">
        <ele>170</ele>
        <time>2024-09-20T08:17:28Z</time>
      </trkpt>
      <trkpt lat="45.85294" lon="4.83839">
        <ele>170</ele>
        <time>2024-09-20T08:17:29Z</time>
      </trkpt>
      <trkpt lat="45.8529" lon="4.83838">
        <ele>170</ele>
        <time>2024-09-20T08:17:30Z</time>
      </trkpt>
      <trkpt lat="45.85287" lon="4.83838">
        <ele>170</ele>
        <time>2024-09-20T08:17:31Z</time>
      </trkpt>
      <trkpt lat="45.85283" lon="4.83837">
        <ele>170</ele>
        <time>2024-09-20T08:17:32Z</time>
      </trkpt>
      <trkpt lat="45.85279" lon="4.83836">
        <ele>170</ele>
        <time>2024-09-20T08:17:33Z</time>
      </trkpt>
      <trkpt lat="45.85274" lon="4.83835">
        <ele>170</ele>
        <time>2024-09-20T08:17:34Z</time>
      </trkpt>
      <trkpt lat="45.8527" lon="4.83834">
        <ele>169.8</ele>
        <time>2024-09-20T08:17:35Z</time>
      </trkpt>
      <trkpt lat="45.85266" lon="4.83833">
        <ele>169.4</ele>
        <time>2024-09-20T08:17:36Z</time>
      </trkpt>
      <trkpt lat="45.85262" lon="4.83832">
        <ele>169.4</ele>
        <time>2024-09-20T08:17:37Z</time>
      </trkpt>
      <trkpt lat="45.85258" lon="4.83831">
        <ele>169.4</ele>
        <time>2024-09-20T08:17:38Z</time>
      </trkpt>
      <trkpt lat="45.85253" lon="4.83829">
        <ele>169.4</ele>
        <time>2024-09-20T08:17:39Z</time>
      </trkpt>
      <trkpt lat="45.85249" lon="4.83828">
        <ele>169.6</ele>
        <time>2024-09-20T08:17:40Z</time>
      </trkpt>
      <trkpt lat="45.85244" lon="4.83827">
        <ele>169.8</ele>
        <time>2024-09-20T08:17:41Z</time>
      </trkpt>
      <trkpt lat="45.8524" lon="4.83826">
        <ele>169.8</ele>
        <time>2024-09-20T08:17:42Z</time>
      </trkpt>
      <trkpt lat="45.85235" lon="4.83825">
        <ele>169.8</ele>
        <time>2024-09-20T08:17:43Z</time>
      </trkpt>
      <trkpt lat="45.85231" lon="4.83824">
        <ele>169.8</ele>
        <time>2024-09-20T08:17:44Z</time>
      </trkpt>
      <trkpt lat="45.85226" lon="4.83823">
        <ele>169.8</ele>
        <time>2024-09-20T08:17:45Z</time>
      </trkpt>
      <trkpt lat="45.85221" lon="4.83822">
        <ele>169.8</ele>
        <time>2024-09-20T08:17:46Z</time>
      </trkpt>
      <trkpt lat="45.85216" lon="4.83821">
        <ele>169.8</ele>
        <time>2024-09-20T08:17:47Z</time>
      </trkpt>
      <trkpt lat="45.85212" lon="4.83819">
        <ele>169.8</ele>
        <time>2024-09-20T08:17:48Z</time>
      </trkpt>
      <trkpt lat="45.85207" lon="4.83818">
        <ele>169.6</ele>
        <time>2024-09-20T08:17:49Z</time>
      </trkpt>
      <trkpt lat="45.85203" lon="4.83817">
        <ele>169.6</ele>
        <time>2024-09-20T08:17:50Z</time>
      </trkpt>
      <trkpt lat="45.85198" lon="4.83815">
        <ele>169.6</ele>
        <time>2024-09-20T08:17:51Z</time>
      </trkpt>
      <trkpt lat="45.85193" lon="4.83814">
        <ele>169.6</ele>
        <time>2024-09-20T08:17:52Z</time>
      </trkpt>
      <trkpt lat="45.85189" lon="4.83813">
        <ele>169.6</ele>
        <time>2024-09-20T08:17:53Z</time>
      </trkpt>
      <trkpt lat="45.85184" lon="4.83812">
        <ele>169.6</ele>
        <time>2024-09-20T08:17:54Z</time>
      </trkpt>
      <trkpt lat="45.85179" lon="4.8381">
        <ele>169.6</ele>
        <time>2024-09-20T08:17:55Z</time>
      </trkpt>
      <trkpt lat="45.85175" lon="4.83809">
        <ele>169.6</ele>
        <time>2024-09-20T08:17:56Z</time>
      </trkpt>
      <trkpt lat="45.8517" lon="4.83808">
        <ele>169.8</ele>
        <time>2024-09-20T08:17:57Z</time>
      </trkpt>
      <trkpt lat="45.85165" lon="4.83806">
        <ele>169.8</ele>
        <time>2024-09-20T08:17:58Z</time>
      </trkpt>
      <trkpt lat="45.8516" lon="4.83805">
        <ele>169.8</ele>
        <time>2024-09-20T08:17:59Z</time>
      </trkpt>
      <trkpt lat="45.85156" lon="4.83804">
        <ele>169.8</ele>
        <time>2024-09-20T08:18:00Z</time>
      </trkpt>
      <trkpt lat="45.85151" lon="4.83802">
        <ele>169.8</ele>
        <time>2024-09-20T08:18:01Z</time>
      </trkpt>
      <trkpt lat="45.85146" lon="4.838">
        <ele>169.8</ele>
        <time>2024-09-20T08:18:02Z</time>
      </trkpt>
      <trkpt lat="45.85141" lon="4.83799">
        <ele>169.8</ele>
        <time>2024-09-20T08:18:03Z</time>
      </trkpt>
      <trkpt lat="45.85137" lon="4.83799">
        <ele>169.8</ele>
        <time>2024-09-20T08:18:04Z</time>
      </trkpt>
      <trkpt lat="45.85132" lon="4.83798">
        <ele>169.8</ele>
        <time>2024-09-20T08:18:05Z</time>
      </trkpt>
      <trkpt lat="45.85127" lon="4.83796">
        <ele>169.6</ele>
        <time>2024-09-20T08:18:06Z</time>
      </trkpt>
      <trkpt lat="45.85123" lon="4.83795">
        <ele>169.6</ele>
        <time>2024-09-20T08:18:07Z</time>
      </trkpt>
      <trkpt lat="45.85118" lon="4.83793">
        <ele>169.6</ele>
        <time>2024-09-20T08:18:08Z</time>
      </trkpt>
      <trkpt lat="45.85113" lon="4.83792">
        <ele>169.6</ele>
        <time>2024-09-20T08:18:09Z</time>
      </trkpt>
      <trkpt lat="45.85108" lon="4.83791">
        <ele>169.6</ele>
        <time>2024-09-20T08:18:10Z</time>
      </trkpt>
      <trkpt lat="45.85103" lon="4.8379">
        <ele>169.6</ele>
        <time>2024-09-20T08:18:11Z</time>
      </trkpt>
      <trkpt lat="45.85099" lon="4.83788">
        <ele>169.6</ele>
        <time>2024-09-20T08:18:12Z</time>
      </trkpt>
      <trkpt lat="45.85094" lon="4.83787">
        <ele>169.6</ele>
        <time>2024-09-20T08:18:13Z</time>
      </trkpt>
      <trkpt lat="45.85089" lon="4.83785">
        <ele>169.6</ele>
        <time>2024-09-20T08:18:14Z</time>
      </trkpt>
      <trkpt lat="45.85085" lon="4.83784">
        <ele>169.6</ele>
        <time>2024-09-20T08:18:15Z</time>
      </trkpt>
      <trkpt lat="45.8508" lon="4.83782">
        <ele>169.6</ele>
        <time>2024-09-20T08:18:16Z</time>
      </trkpt>
      <trkpt lat="45.85075" lon="4.83781">
        <ele>169.6</ele>
        <time>2024-09-20T08:18:17Z</time>
      </trkpt>
      <trkpt lat="45.8507" lon="4.8378">
        <ele>169.6</ele>
        <time>2024-09-20T08:18:18Z</time>
      </trkpt>
      <trkpt lat="45.85066" lon="4.83779">
        <ele>169.6</ele>
        <time>2024-09-20T08:18:19Z</time>
      </trkpt>
      <trkpt lat="45.85061" lon="4.83777">
        <ele>169.6</ele>
        <time>2024-09-20T08:18:20Z</time>
      </trkpt>
      <trkpt lat="45.85057" lon="4.83776">
        <ele>169.6</ele>
        <time>2024-09-20T08:18:21Z</time>
      </trkpt>
      <trkpt lat="45.85052" lon="4.83774">
        <ele>169.4</ele>
        <time>2024-09-20T08:18:22Z</time>
      </trkpt>
      <trkpt lat="45.85048" lon="4.83772">
        <ele>169.4</ele>
        <time>2024-09-20T08:18:23Z</time>
      </trkpt>
      <trkpt lat="45.85043" lon="4.83769">
        <ele>169.4</ele>
        <time>2024-09-20T08:18:24Z</time>
      </trkpt>
      <trkpt lat="45.85038" lon="4.83767">
        <ele>169.4</ele>
        <time>2024-09-20T08:18:25Z</time>
      </trkpt>
      <trkpt lat="45.85034" lon="4.83766">
        <ele>169.4</ele>
        <time>2024-09-20T08:18:26Z</time>
      </trkpt>
      <trkpt lat="45.85029" lon="4.83764">
        <ele>169.4</ele>
        <time>2024-09-20T08:18:27Z</time>
      </trkpt>
      <trkpt lat="45.85025" lon="4.83763">
        <ele>169.4</ele>
        <time>2024-09-20T08:18:28Z</time>
      </trkpt>
      <trkpt lat="45.8502" lon="4.83761">
        <ele>169.6</ele>
        <time>2024-09-20T08:18:29Z</time>
      </trkpt>
      <trkpt lat="45.85016" lon="4.83759">
        <ele>169.6</ele>
        <time>2024-09-20T08:18:30Z</time>
      </trkpt>
      <trkpt lat="45.85011" lon="4.83757">
        <ele>169.6</ele>
        <time>2024-09-20T08:18:31Z</time>
      </trkpt>
      <trkpt lat="45.85007" lon="4.83755">
        <ele>169.6</ele>
        <time>2024-09-20T08:18:32Z</time>
      </trkpt>
      <trkpt lat="45.85002" lon="4.83753">
        <ele>169.6</ele>
        <time>2024-09-20T08:18:33Z</time>
      </trkpt>
      <trkpt lat="45.84998" lon="4.8375">
        <ele>169.6</ele>
        <time>2024-09-20T08:18:34Z</time>
      </trkpt>
      <trkpt lat="45.84994" lon="4.83748">
        <ele>169.6</ele>
        <time>2024-09-20T08:18:35Z</time>
      </trkpt>
      <trkpt lat="45.8499" lon="4.83744">
        <ele>169.6</ele>
        <time>2024-09-20T08:18:36Z</time>
      </trkpt>
      <trkpt lat="45.84986" lon="4.83739">
        <ele>169.6</ele>
        <time>2024-09-20T08:18:37Z</time>
      </trkpt>
      <trkpt lat="45.84983" lon="4.83734">
        <ele>169.4</ele>
        <time>2024-09-20T08:18:38Z</time>
      </trkpt>
      <trkpt lat="45.84979" lon="4.83729">
        <ele>169.4</ele>
        <time>2024-09-20T08:18:39Z</time>
      </trkpt>
      <trkpt lat="45.84975" lon="4.83727">
        <ele>169.4</ele>
        <time>2024-09-20T08:18:40Z</time>
      </trkpt>
      <trkpt lat="45.8497" lon="4.83725">
        <ele>169.4</ele>
        <time>2024-09-20T08:18:41Z</time>
      </trkpt>
      <trkpt lat="45.84966" lon="4.83726">
        <ele>169.6</ele>
        <time>2024-09-20T08:18:42Z</time>
      </trkpt>
      <trkpt lat="45.84962" lon="4.83728">
        <ele>169.8</ele>
        <time>2024-09-20T08:18:43Z</time>
      </trkpt>
      <trkpt lat="45.84958" lon="4.8373">
        <ele>169.8</ele>
        <time>2024-09-20T08:18:44Z</time>
      </trkpt>
      <trkpt lat="45.84954" lon="4.83731">
        <ele>169.8</ele>
        <time>2024-09-20T08:18:45Z</time>
      </trkpt>
      <trkpt lat="45.8495" lon="4.8373">
        <ele>169.8</ele>
        <time>2024-09-20T08:18:46Z</time>
      </trkpt>
      <trkpt lat="45.84946" lon="4.83729">
        <ele>170</ele>
        <time>2024-09-20T08:18:47Z</time>
      </trkpt>
      <trkpt lat="45.84942" lon="4.83727">
        <ele>170</ele>
        <time>2024-09-20T08:18:48Z</time>
      </trkpt>
      <trkpt lat="45.84938" lon="4.83725">
        <ele>170</ele>
        <time>2024-09-20T08:18:49Z</time>
      </trkpt>
      <trkpt lat="45.84934" lon="4.83723">
        <ele>170</ele>
        <time>2024-09-20T08:18:50Z</time>
      </trkpt>
      <trkpt lat="45.8493" lon="4.83722">
        <ele>169.8</ele>
        <time>2024-09-20T08:18:51Z</time>
      </trkpt>
      <trkpt lat="45.84925" lon="4.83719">
        <ele>169.8</ele>
        <time>2024-09-20T08:18:52Z</time>
      </trkpt>
      <trkpt lat="45.84921" lon="4.83717">
        <ele>169.8</ele>
        <time>2024-09-20T08:18:53Z</time>
      </trkpt>
      <trkpt lat="45.84916" lon="4.83715">
        <ele>169.8</ele>
        <time>2024-09-20T08:18:54Z</time>
      </trkpt>
      <trkpt lat="45.84911" lon="4.83713">
        <ele>169.6</ele>
        <time>2024-09-20T08:18:55Z</time>
      </trkpt>
      <trkpt lat="45.84907" lon="4.8371">
        <ele>169.6</ele>
        <time>2024-09-20T08:18:56Z</time>
      </trkpt>
      <trkpt lat="45.84903" lon="4.83708">
        <ele>169.6</ele>
        <time>2024-09-20T08:18:57Z</time>
      </trkpt>
      <trkpt lat="45.84898" lon="4.83706">
        <ele>169.6</ele>
        <time>2024-09-20T08:18:58Z</time>
      </trkpt>
      <trkpt lat="45.84894" lon="4.83703">
        <ele>169.6</ele>
        <time>2024-09-20T08:18:59Z</time>
      </trkpt>
      <trkpt lat="45.84889" lon="4.83701">
        <ele>169.6</ele>
        <time>2024-09-20T08:19:00Z</time>
      </trkpt>
      <trkpt lat="45.84884" lon="4.83699">
        <ele>169.8</ele>
        <time>2024-09-20T08:19:01Z</time>
      </trkpt>
      <trkpt lat="45.8488" lon="4.83696">
        <ele>169.8</ele>
        <time>2024-09-20T08:19:02Z</time>
      </trkpt>
      <trkpt lat="45.84875" lon="4.83693">
        <ele>169.8</ele>
        <time>2024-09-20T08:19:03Z</time>
      </trkpt>
      <trkpt lat="45.84871" lon="4.83691">
        <ele>169.6</ele>
        <time>2024-09-20T08:19:04Z</time>
      </trkpt>
      <trkpt lat="45.84866" lon="4.83688">
        <ele>169.6</ele>
        <time>2024-09-20T08:19:05Z</time>
      </trkpt>
      <trkpt lat="45.84861" lon="4.83685">
        <ele>169.6</ele>
        <time>2024-09-20T08:19:06Z</time>
      </trkpt>
      <trkpt lat="45.84857" lon="4.83683">
        <ele>169.6</ele>
        <time>2024-09-20T08:19:07Z</time>
      </trkpt>
      <trkpt lat="45.84852" lon="4.8368">
        <ele>169.6</ele>
        <time>2024-09-20T08:19:08Z</time>
      </trkpt>
      <trkpt lat="45.84847" lon="4.83678">
        <ele>169.6</ele>
        <time>2024-09-20T08:19:09Z</time>
      </trkpt>
      <trkpt lat="45.84842" lon="4.83675">
        <ele>169.4</ele>
        <time>2024-09-20T08:19:10Z</time>
      </trkpt>
      <trkpt lat="45.84838" lon="4.83672">
        <ele>169.4</ele>
        <time>2024-09-20T08:19:11Z</time>
      </trkpt>
      <trkpt lat="45.84833" lon="4.8367">
        <ele>169.4</ele>
        <time>2024-09-20T08:19:12Z</time>
      </trkpt>
      <trkpt lat="45.84828" lon="4.83668">
        <ele>169.4</ele>
        <time>2024-09-20T08:19:13Z</time>
      </trkpt>
      <trkpt lat="45.84823" lon="4.83665">
        <ele>169.4</ele>
        <time>2024-09-20T08:19:14Z</time>
      </trkpt>
      <trkpt lat="45.84818" lon="4.83663">
        <ele>169.2</ele>
        <time>2024-09-20T08:19:15Z</time>
      </trkpt>
      <trkpt lat="45.84813" lon="4.8366">
        <ele>169.2</ele>
        <time>2024-09-20T08:19:16Z</time>
      </trkpt>
      <trkpt lat="45.84808" lon="4.83657">
        <ele>169.2</ele>
        <time>2024-09-20T08:19:17Z</time>
      </trkpt>
      <trkpt lat="45.84803" lon="4.83655">
        <ele>169.2</ele>
        <time>2024-09-20T08:19:18Z</time>
      </trkpt>
      <trkpt lat="45.84799" lon="4.83653">
        <ele>169</ele>
        <time>2024-09-20T08:19:19Z</time>
      </trkpt>
      <trkpt lat="45.84794" lon="4.8365">
        <ele>169</ele>
        <time>2024-09-20T08:19:20Z</time>
      </trkpt>
      <trkpt lat="45.84789" lon="4.83648">
        <ele>169</ele>
        <time>2024-09-20T08:19:21Z</time>
      </trkpt>
      <trkpt lat="45.84784" lon="4.83645">
        <ele>169</ele>
        <time>2024-09-20T08:19:22Z</time>
      </trkpt>
      <trkpt lat="45.84779" lon="4.83642">
        <ele>169</ele>
        <time>2024-09-20T08:19:23Z</time>
      </trkpt>
      <trkpt lat="45.84774" lon="4.83639">
        <ele>169</ele>
        <time>2024-09-20T08:19:24Z</time>
      </trkpt>
      <trkpt lat="45.84769" lon="4.83637">
        <ele>169</ele>
        <time>2024-09-20T08:19:25Z</time>
      </trkpt>
      <trkpt lat="45.84764" lon="4.83634">
        <ele>169</ele>
        <time>2024-09-20T08:19:26Z</time>
      </trkpt>
      <trkpt lat="45.84759" lon="4.83631">
        <ele>169</ele>
        <time>2024-09-20T08:19:27Z</time>
      </trkpt>
      <trkpt lat="45.84754" lon="4.83629">
        <ele>168.8</ele>
        <time>2024-09-20T08:19:28Z</time>
      </trkpt>
      <trkpt lat="45.84749" lon="4.83627">
        <ele>168.8</ele>
        <time>2024-09-20T08:19:29Z</time>
      </trkpt>
      <trkpt lat="45.84745" lon="4.83624">
        <ele>168.8</ele>
        <time>2024-09-20T08:19:30Z</time>
      </trkpt>
      <trkpt lat="45.8474" lon="4.83622">
        <ele>168.8</ele>
        <time>2024-09-20T08:19:31Z</time>
      </trkpt>
      <trkpt lat="45.84735" lon="4.83619">
        <ele>169</ele>
        <time>2024-09-20T08:19:32Z</time>
      </trkpt>
      <trkpt lat="45.8473" lon="4.83617">
        <ele>169</ele>
        <time>2024-09-20T08:19:33Z</time>
      </trkpt>
      <trkpt lat="45.84726" lon="4.83615">
        <ele>169</ele>
        <time>2024-09-20T08:19:34Z</time>
      </trkpt>
      <trkpt lat="45.84721" lon="4.83612">
        <ele>168.8</ele>
        <time>2024-09-20T08:19:35Z</time>
      </trkpt>
      <trkpt lat="45.84717" lon="4.83609">
        <ele>168.8</ele>
        <time>2024-09-20T08:19:36Z</time>
      </trkpt>
      <trkpt lat="45.84712" lon="4.83607">
        <ele>168.8</ele>
        <time>2024-09-20T08:19:37Z</time>
      </trkpt>
      <trkpt lat="45.84707" lon="4.83604">
        <ele>168.8</ele>
        <time>2024-09-20T08:19:38Z</time>
      </trkpt>
      <trkpt lat="45.84703" lon="4.83602">
        <ele>168.8</ele>
        <time>2024-09-20T08:19:39Z</time>
      </trkpt>
      <trkpt lat="45.84698" lon="4.836">
        <ele>168.8</ele>
        <time>2024-09-20T08:19:40Z</time>
      </trkpt>
      <trkpt lat="45.84694" lon="4.83597">
        <ele>168.8</ele>
        <time>2024-09-20T08:19:41Z</time>
      </trkpt>
      <trkpt lat="45.8469" lon="4.83595">
        <ele>169</ele>
        <time>2024-09-20T08:19:42Z</time>
      </trkpt>
      <trkpt lat="45.84686" lon="4.83593">
        <ele>169</ele>
        <time>2024-09-20T08:19:43Z</time>
      </trkpt>
      <trkpt lat="45.84681" lon="4.83591">
        <ele>169</ele>
        <time>2024-09-20T08:19:44Z</time>
      </trkpt>
      <trkpt lat="45.84677" lon="4.83588">
        <ele>169</ele>
        <time>2024-09-20T08:19:45Z</time>
      </trkpt>
      <trkpt lat="45.84673" lon="4.83586">
        <ele>169</ele>
        <time>2024-09-20T08:19:46Z</time>
      </trkpt>
      <trkpt lat="45.84669" lon="4.83584">
        <ele>169</ele>
        <time>2024-09-20T08:19:47Z</time>
      </trkpt>
      <trkpt lat="45.84664" lon="4.83582">
        <ele>169</ele>
        <time>2024-09-20T08:19:48Z</time>
      </trkpt>
      <trkpt lat="45.8466" lon="4.8358">
        <ele>169</ele>
        <time>2024-09-20T08:19:49Z</time>
      </trkpt>
      <trkpt lat="45.84656" lon="4.83578">
        <ele>169.2</ele>
        <time>2024-09-20T08:19:50Z</time>
      </trkpt>
      <trkpt lat="45.84652" lon="4.83576">
        <ele>169.2</ele>
        <time>2024-09-20T08:19:51Z</time>
      </trkpt>
      <trkpt lat="45.84648" lon="4.83574">
        <ele>169.2</ele>
        <time>2024-09-20T08:19:52Z</time>
      </trkpt>
      <trkpt lat="45.84644" lon="4.83572">
        <ele>169.2</ele>
        <time>2024-09-20T08:19:53Z</time>
      </trkpt>
      <trkpt lat="45.8464" lon="4.8357">
        <ele>169.2</ele>
        <time>2024-09-20T08:19:54Z</time>
      </trkpt>
      <trkpt lat="45.84636" lon="4.83568">
        <ele>169.2</ele>
        <time>2024-09-20T08:19:55Z</time>
      </trkpt>
      <trkpt lat="45.84631" lon="4.83566">
        <ele>169.2</ele>
        <time>2024-09-20T08:19:56Z</time>
      </trkpt>
      <trkpt lat="45.84627" lon="4.83564">
        <ele>169.2</ele>
        <time>2024-09-20T08:19:57Z</time>
      </trkpt>
      <trkpt lat="45.84623" lon="4.83562">
        <ele>169.2</ele>
        <time>2024-09-20T08:19:58Z</time>
      </trkpt>
      <trkpt lat="45.84619" lon="4.8356">
        <ele>169.2</ele>
        <time>2024-09-20T08:19:59Z</time>
      </trkpt>
      <trkpt lat="45.84615" lon="4.83558">
        <ele>169.2</ele>
        <time>2024-09-20T08:20:00Z</time>
      </trkpt>
      <trkpt lat="45.8461" lon="4.83556">
        <ele>169.2</ele>
        <time>2024-09-20T08:20:01Z</time>
      </trkpt>
      <trkpt lat="45.84606" lon="4.83554">
        <ele>169.2</ele>
        <time>2024-09-20T08:20:02Z</time>
      </trkpt>
      <trkpt lat="45.84601" lon="4.83552">
        <ele>169.4</ele>
        <time>2024-09-20T08:20:03Z</time>
      </trkpt>
      <trkpt lat="45.84597" lon="4.8355">
        <ele>169.4</ele>
        <time>2024-09-20T08:20:04Z</time>
      </trkpt>
      <trkpt lat="45.84593" lon="4.83548">
        <ele>169.4</ele>
        <time>2024-09-20T08:20:05Z</time>
      </trkpt>
      <trkpt lat="45.84589" lon="4.83546">
        <ele>169.4</ele>
        <time>2024-09-20T08:20:06Z</time>
      </trkpt>
      <trkpt lat="45.84585" lon="4.83545">
        <ele>169.4</ele>
        <time>2024-09-20T08:20:07Z</time>
      </trkpt>
      <trkpt lat="45.8458" lon="4.83543">
        <ele>169.6</ele>
        <time>2024-09-20T08:20:08Z</time>
      </trkpt>
      <trkpt lat="45.84576" lon="4.8354">
        <ele>169.6</ele>
        <time>2024-09-20T08:20:09Z</time>
      </trkpt>
      <trkpt lat="45.84572" lon="4.83538">
        <ele>169.6</ele>
        <time>2024-09-20T08:20:10Z</time>
      </trkpt>
      <trkpt lat="45.84569" lon="4.83536">
        <ele>169.6</ele>
        <time>2024-09-20T08:20:11Z</time>
      </trkpt>
      <trkpt lat="45.84565" lon="4.83533">
        <ele>169.6</ele>
        <time>2024-09-20T08:20:12Z</time>
      </trkpt>
      <trkpt lat="45.84561" lon="4.83531">
        <ele>169.6</ele>
        <time>2024-09-20T08:20:13Z</time>
      </trkpt>
      <trkpt lat="45.84558" lon="4.83528">
        <ele>169.6</ele>
        <time>2024-09-20T08:20:14Z</time>
      </trkpt>
      <trkpt lat="45.84554" lon="4.83526">
        <ele>169.6</ele>
        <time>2024-09-20T08:20:15Z</time>
      </trkpt>
      <trkpt lat="45.8455" lon="4.83524">
        <ele>170</ele>
        <time>2024-09-20T08:20:16Z</time>
      </trkpt>
      <trkpt lat="45.84546" lon="4.83521">
        <ele>170.2</ele>
        <time>2024-09-20T08:20:17Z</time>
      </trkpt>
      <trkpt lat="45.84543" lon="4.83519">
        <ele>170.2</ele>
        <time>2024-09-20T08:20:18Z</time>
      </trkpt>
      <trkpt lat="45.84539" lon="4.83517">
        <ele>170.2</ele>
        <time>2024-09-20T08:20:19Z</time>
      </trkpt>
      <trkpt lat="45.84536" lon="4.83514">
        <ele>170.4</ele>
        <time>2024-09-20T08:20:20Z</time>
      </trkpt>
      <trkpt lat="45.84532" lon="4.83512">
        <ele>170.4</ele>
        <time>2024-09-20T08:20:21Z</time>
      </trkpt>
      <trkpt lat="45.84529" lon="4.83509">
        <ele>170.4</ele>
        <time>2024-09-20T08:20:22Z</time>
      </trkpt>
      <trkpt lat="45.84526" lon="4.83508">
        <ele>170.4</ele>
        <time>2024-09-20T08:20:23Z</time>
      </trkpt>
      <trkpt lat="45.84522" lon="4.83506">
        <ele>170.4</ele>
        <time>2024-09-20T08:20:24Z</time>
      </trkpt>
      <trkpt lat="45.84519" lon="4.83505">
        <ele>170.6</ele>
        <time>2024-09-20T08:20:25Z</time>
      </trkpt>
      <trkpt lat="45.84516" lon="4.83503">
        <ele>170.6</ele>
        <time>2024-09-20T08:20:26Z</time>
      </trkpt>
      <trkpt lat="45.84513" lon="4.83502">
        <ele>170.6</ele>
        <time>2024-09-20T08:20:27Z</time>
      </trkpt>
      <trkpt lat="45.8451" lon="4.83501">
        <ele>170.6</ele>
        <time>2024-09-20T08:20:28Z</time>
      </trkpt>
      <trkpt lat="45.84507" lon="4.835">
        <ele>170.6</ele>
        <time>2024-09-20T08:20:29Z</time>
      </trkpt>
      <trkpt lat="45.84505" lon="4.835">
        <ele>170.6</ele>
        <time>2024-09-20T08:20:30Z</time>
      </trkpt>
      <trkpt lat="45.84502" lon="4.83499">
        <ele>170.8</ele>
        <time>2024-09-20T08:20:31Z</time>
      </trkpt>
      <trkpt lat="45.84499" lon="4.83499">
        <ele>170.8</ele>
        <time>2024-09-20T08:20:32Z</time>
      </trkpt>
      <trkpt lat="45.84497" lon="4.83499">
        <ele>170.8</ele>
        <time>2024-09-20T08:20:33Z</time>
      </trkpt>
      <trkpt lat="45.84494" lon="4.83499">
        <ele>171</ele>
        <time>2024-09-20T08:20:34Z</time>
      </trkpt>
      <trkpt lat="45.84492" lon="4.83499">
        <ele>171</ele>
        <time>2024-09-20T08:20:35Z</time>
      </trkpt>
      <trkpt lat="45.84491" lon="4.835">
        <ele>171</ele>
        <time>2024-09-20T08:20:36Z</time>
      </trkpt>
      <trkpt lat="45.84491" lon="4.835">
        <ele>171</ele>
        <time>2024-09-20T08:20:37Z</time>
      </trkpt>
      <trkpt lat="45.84491" lon="4.835">
        <ele>171</ele>
        <time>2024-09-20T08:20:38Z</time>
      </trkpt>
      <trkpt lat="45.84491" lon="4.835">
        <ele>171</ele>
        <time>2024-09-20T08:20:39Z</time>
      </trkpt>
      <trkpt lat="45.84486" lon="4.835">
        <ele>170.8</ele>
        <time>2024-09-20T08:23:57Z</time>
      </trkpt>
      <trkpt lat="45.84484" lon="4.835">
        <ele>170.8</ele>
        <time>2024-09-20T08:23:58Z</time>
      </trkpt>
      <trkpt lat="45.84482" lon="4.835">
        <ele>171.2</ele>
        <time>2024-09-20T08:23:59Z</time>
      </trkpt>
      <trkpt lat="45.8448" lon="4.83499">
        <ele>171</ele>
        <time>2024-09-20T08:24:00Z</time>
      </trkpt>
      <trkpt lat="45.84477" lon="4.83498">
        <ele>171</ele>
        <time>2024-09-20T08:24:01Z</time>
      </trkpt>
      <trkpt lat="45.84475" lon="4.83496">
        <ele>171</ele>
        <time>2024-09-20T08:24:02Z</time>
      </trkpt>
      <trkpt lat="45.84474" lon="4.83493">
        <ele>171</ele>
        <time>2024-09-20T08:24:03Z</time>
      </trkpt>
      <trkpt lat="45.84472" lon="4.83489">
        <ele>171.2</ele>
        <time>2024-09-20T08:24:04Z</time>
      </trkpt>
      <trkpt lat="45.8447" lon="4.83485">
        <ele>171.2</ele>
        <time>2024-09-20T08:24:05Z</time>
      </trkpt>
      <trkpt lat="45.84468" lon="4.83482">
        <ele>171.2</ele>
        <time>2024-09-20T08:24:06Z</time>
      </trkpt>
      <trkpt lat="45.84465" lon="4.83479">
        <ele>171.4</ele>
        <time>2024-09-20T08:24:07Z</time>
      </trkpt>
      <trkpt lat="45.84463" lon="4.83476">
        <ele>171.2</ele>
        <time>2024-09-20T08:24:08Z</time>
      </trkpt>
      <trkpt lat="45.84462" lon="4.83474">
        <ele>171.2</ele>
        <time>2024-09-20T08:24:09Z</time>
      </trkpt>
      <trkpt lat="45.8446" lon="4.83473">
        <ele>171.2</ele>
        <time>2024-09-20T08:24:10Z</time>
      </trkpt>
      <trkpt lat="45.84458" lon="4.83473">
        <ele>171.2</ele>
        <time>2024-09-20T08:24:11Z</time>
      </trkpt>
      <trkpt lat="45.84457" lon="4.83474">
        <ele>171.2</ele>
        <time>2024-09-20T08:24:12Z</time>
      </trkpt>
      <trkpt lat="45.84456" lon="4.83475">
        <ele>171.4</ele>
        <time>2024-09-20T08:24:13Z</time>
      </trkpt>
      <trkpt lat="45.84456" lon="4.83476">
        <ele>171.4</ele>
        <time>2024-09-20T08:24:14Z</time>
      </trkpt>
      <trkpt lat="45.84456" lon="4.83476">
        <ele>171.4</ele>
        <time>2024-09-20T08:24:15Z</time>
      </trkpt>
      <trkpt lat="45.84462" lon="4.83477">
        <ele>171.6</ele>
        <time>2024-09-20T08:25:29Z</time>
      </trkpt>
      <trkpt lat="45.84463" lon="4.83476">
        <ele>171.6</ele>
        <time>2024-09-20T08:25:30Z</time>
      </trkpt>
      <trkpt lat="45.84464" lon="4.83476">
        <ele>171.6</ele>
        <time>2024-09-20T08:25:31Z</time>
      </trkpt>
      <trkpt lat="45.84465" lon="4.83476">
        <ele>171.6</ele>
        <time>2024-09-20T08:25:32Z</time>
      </trkpt>
      <trkpt lat="45.84465" lon="4.83477">
        <ele>171.4</ele>
        <time>2024-09-20T08:25:33Z</time>
      </trkpt>
      <trkpt lat="45.84466" lon="4.83477">
        <ele>171.4</ele>
        <time>2024-09-20T08:25:34Z</time>
      </trkpt>
      <trkpt lat="45.84466" lon="4.83477">
        <ele>171.4</ele>
        <time>2024-09-20T08:25:35Z</time>
      </trkpt>
      <trkpt lat="45.84466" lon="4.83477">
        <ele>171.4</ele>
        <time>2024-09-20T08:25:36Z</time>
      </trkpt>
      <trkpt lat="45.84468" lon="4.83484">
        <ele>171</ele>
        <time>2024-09-20T08:25:46Z</time>
      </trkpt>
      <trkpt lat="45.84469" lon="4.83486">
        <ele>171</ele>
        <time>2024-09-20T08:25:47Z</time>
      </trkpt>
      <trkpt lat="45.84471" lon="4.83487">
        <ele>171</ele>
        <time>2024-09-20T08:25:48Z</time>
      </trkpt>
      <trkpt lat="45.84471" lon="4.83489">
        <ele>171</ele>
        <time>2024-09-20T08:25:49Z</time>
      </trkpt>
      <trkpt lat="45.84472" lon="4.8349">
        <ele>171</ele>
        <time>2024-09-20T08:25:50Z</time>
      </trkpt>
      <trkpt lat="45.84472" lon="4.83492">
        <ele>171</ele>
        <time>2024-09-20T08:25:51Z</time>
      </trkpt>
      <trkpt lat="45.84472" lon="4.83493">
        <ele>171</ele>
        <time>2024-09-20T08:25:52Z</time>
      </trkpt>
      <trkpt lat="45.84472" lon="4.83494">
        <ele>171</ele>
        <time>2024-09-20T08:25:53Z</time>
      </trkpt>
      <trkpt lat="45.84472" lon="4.83496">
        <ele>171</ele>
        <time>2024-09-20T08:25:54Z</time>
      </trkpt>
      <trkpt lat="45.8447" lon="4.83496">
        <ele>171.2</ele>
        <time>2024-09-20T08:25:55Z</time>
      </trkpt>
      <trkpt lat="45.84469" lon="4.83495">
        <ele>171.4</ele>
        <time>2024-09-20T08:25:56Z</time>
      </trkpt>
      <trkpt lat="45.84467" lon="4.83494">
        <ele>171.4</ele>
        <time>2024-09-20T08:25:57Z</time>
      </trkpt>
      <trkpt lat="45.84465" lon="4.83493">
        <ele>171.4</ele>
        <time>2024-09-20T08:25:58Z</time>
      </trkpt>
      <trkpt lat="45.84463" lon="4.83492">
        <ele>171</ele>
        <time>2024-09-20T08:25:59Z</time>
      </trkpt>
      <trkpt lat="45.84461" lon="4.83491">
        <ele>171</ele>
        <time>2024-09-20T08:26:00Z</time>
      </trkpt>
      <trkpt lat="45.84458" lon="4.8349">
        <ele>171</ele>
        <time>2024-09-20T08:26:01Z</time>
      </trkpt>
      <trkpt lat="45.84456" lon="4.83489">
        <ele>171</ele>
        <time>2024-09-20T08:26:02Z</time>
      </trkpt>
      <trkpt lat="45.84454" lon="4.83488">
        <ele>171</ele>
        <time>2024-09-20T08:26:03Z</time>
      </trkpt>
      <trkpt lat="45.84452" lon="4.83488">
        <ele>171</ele>
        <time>2024-09-20T08:26:04Z</time>
      </trkpt>
      <trkpt lat="45.8445" lon="4.83486">
        <ele>171.2</ele>
        <time>2024-09-20T08:26:05Z</time>
      </trkpt>
      <trkpt lat="45.84447" lon="4.83485">
        <ele>171.2</ele>
        <time>2024-09-20T08:26:06Z</time>
      </trkpt>
      <trkpt lat="45.84444" lon="4.83485">
        <ele>171.2</ele>
        <time>2024-09-20T08:26:07Z</time>
      </trkpt>
      <trkpt lat="45.84441" lon="4.83484">
        <ele>171.4</ele>
        <time>2024-09-20T08:26:08Z</time>
      </trkpt>
      <trkpt lat="45.84439" lon="4.83483">
        <ele>171.6</ele>
        <time>2024-09-20T08:26:09Z</time>
      </trkpt>
      <trkpt lat="45.84436" lon="4.83481">
        <ele>171.6</ele>
        <time>2024-09-20T08:26:10Z</time>
      </trkpt>
      <trkpt lat="45.84433" lon="4.8348">
        <ele>171.6</ele>
        <time>2024-09-20T08:26:11Z</time>
      </trkpt>
      <trkpt lat="45.84429" lon="4.83478">
        <ele>171.6</ele>
        <time>2024-09-20T08:26:12Z</time>
      </trkpt>
      <trkpt lat="45.84426" lon="4.83477">
        <ele>171.4</ele>
        <time>2024-09-20T08:26:13Z</time>
      </trkpt>
      <trkpt lat="45.84423" lon="4.83476">
        <ele>171.6</ele>
        <time>2024-09-20T08:26:14Z</time>
      </trkpt>
      <trkpt lat="45.84419" lon="4.83474">
        <ele>171.6</ele>
        <time>2024-09-20T08:26:15Z</time>
      </trkpt>
      <trkpt lat="45.84416" lon="4.83473">
        <ele>171.6</ele>
        <time>2024-09-20T08:26:16Z</time>
      </trkpt>
      <trkpt lat="45.84412" lon="4.83471">
        <ele>171.6</ele>
        <time>2024-09-20T08:26:17Z</time>
      </trkpt>
      <trkpt lat="45.84408" lon="4.8347">
        <ele>171.4</ele>
        <time>2024-09-20T08:26:18Z</time>
      </trkpt>
      <trkpt lat="45.84404" lon="4.83469">
        <ele>171.2</ele>
        <time>2024-09-20T08:26:19Z</time>
      </trkpt>
      <trkpt lat="45.844" lon="4.83468">
        <ele>171.2</ele>
        <time>2024-09-20T08:26:20Z</time>
      </trkpt>
      <trkpt lat="45.84396" lon="4.83466">
        <ele>171.2</ele>
        <time>2024-09-20T08:26:21Z</time>
      </trkpt>
      <trkpt lat="45.84393" lon="4.83465">
        <ele>171.2</ele>
        <time>2024-09-20T08:26:22Z</time>
      </trkpt>
      <trkpt lat="45.84389" lon="4.83463">
        <ele>171</ele>
        <time>2024-09-20T08:26:23Z</time>
      </trkpt>
      <trkpt lat="45.84385" lon="4.83462">
        <ele>171</ele>
        <time>2024-09-20T08:26:24Z</time>
      </trkpt>
      <trkpt lat="45.84381" lon="4.83461">
        <ele>171</ele>
        <time>2024-09-20T08:26:25Z</time>
      </trkpt>
      <trkpt lat="45.84377" lon="4.83459">
        <ele>171</ele>
        <time>2024-09-20T08:26:26Z</time>
      </trkpt>
      <trkpt lat="45.84374" lon="4.83458">
        <ele>171</ele>
        <time>2024-09-20T08:26:27Z</time>
      </trkpt>
      <trkpt lat="45.8437" lon="4.83457">
        <ele>171.2</ele>
        <time>2024-09-20T08:26:28Z</time>
      </trkpt>
      <trkpt lat="45.84365" lon="4.83455">
        <ele>171.2</ele>
        <time>2024-09-20T08:26:29Z</time>
      </trkpt>
      <trkpt lat="45.84361" lon="4.83454">
        <ele>171.2</ele>
        <time>2024-09-20T08:26:30Z</time>
      </trkpt>
      <trkpt lat="45.84357" lon="4.83452">
        <ele>171.2</ele>
        <time>2024-09-20T08:26:31Z</time>
      </trkpt>
      <trkpt lat="45.84353" lon="4.8345">
        <ele>171.2</ele>
        <time>2024-09-20T08:26:32Z</time>
      </trkpt>
      <trkpt lat="45.8435" lon="4.83449">
        <ele>171.2</ele>
        <time>2024-09-20T08:26:33Z</time>
      </trkpt>
      <trkpt lat="45.84345" lon="4.83447">
        <ele>171.2</ele>
        <time>2024-09-20T08:26:34Z</time>
      </trkpt>
      <trkpt lat="45.84342" lon="4.83445">
        <ele>171.2</ele>
        <time>2024-09-20T08:26:35Z</time>
      </trkpt>
      <trkpt lat="45.84338" lon="4.83444">
        <ele>171.8</ele>
        <time>2024-09-20T08:26:36Z</time>
      </trkpt>
      <trkpt lat="45.84334" lon="4.83442">
        <ele>171.8</ele>
        <time>2024-09-20T08:26:37Z</time>
      </trkpt>
      <trkpt lat="45.8433" lon="4.83441">
        <ele>171.8</ele>
        <time>2024-09-20T08:26:38Z</time>
      </trkpt>
      <trkpt lat="45.84326" lon="4.83439">
        <ele>171.8</ele>
        <time>2024-09-20T08:26:39Z</time>
      </trkpt>
      <trkpt lat="45.84322" lon="4.83437">
        <ele>171.4</ele>
        <time>2024-09-20T08:26:40Z</time>
      </trkpt>
      <trkpt lat="45.84318" lon="4.83435">
        <ele>171.4</ele>
        <time>2024-09-20T08:26:41Z</time>
      </trkpt>
      <trkpt lat="45.84314" lon="4.83434">
        <ele>171.2</ele>
        <time>2024-09-20T08:26:42Z</time>
      </trkpt>
      <trkpt lat="45.8431" lon="4.83432">
        <ele>171.2</ele>
        <time>2024-09-20T08:26:43Z</time>
      </trkpt>
      <trkpt lat="45.84306" lon="4.8343">
        <ele>171.2</ele>
        <time>2024-09-20T08:26:44Z</time>
      </trkpt>
      <trkpt lat="45.84301" lon="4.83428">
        <ele>171</ele>
        <time>2024-09-20T08:26:45Z</time>
      </trkpt>
      <trkpt lat="45.84297" lon="4.83426">
        <ele>171</ele>
        <time>2024-09-20T08:26:46Z</time>
      </trkpt>
      <trkpt lat="45.84293" lon="4.83425">
        <ele>171</ele>
        <time>2024-09-20T08:26:47Z</time>
      </trkpt>
      <trkpt lat="45.84288" lon="4.83423">
        <ele>171</ele>
        <time>2024-09-20T08:26:48Z</time>
      </trkpt>
      <trkpt lat="45.84284" lon="4.83421">
        <ele>170.8</ele>
        <time>2024-09-20T08:26:49Z</time>
      </trkpt>
      <trkpt lat="45.8428" lon="4.83418">
        <ele>170.8</ele>
        <time>2024-09-20T08:26:50Z</time>
      </trkpt>
      <trkpt lat="45.84276" lon="4.83416">
        <ele>170.8</ele>
        <time>2024-09-20T08:26:51Z</time>
      </trkpt>
      <trkpt lat="45.84272" lon="4.83414">
        <ele>170.8</ele>
        <time>2024-09-20T08:26:52Z</time>
      </trkpt>
      <trkpt lat="45.84267" lon="4.83412">
        <ele>171</ele>
        <time>2024-09-20T08:26:53Z</time>
      </trkpt>
      <trkpt lat="45.84263" lon="4.83411">
        <ele>171</ele>
        <time>2024-09-20T08:26:54Z</time>
      </trkpt>
      <trkpt lat="45.84259" lon="4.83409">
        <ele>171</ele>
        <time>2024-09-20T08:26:55Z</time>
      </trkpt>
      <trkpt lat="45.84254" lon="4.83407">
        <ele>171</ele>
        <time>2024-09-20T08:26:56Z</time>
      </trkpt>
      <trkpt lat="45.8425" lon="4.83405">
        <ele>171</ele>
        <time>2024-09-20T08:26:57Z</time>
      </trkpt>
      <trkpt lat="45.84246" lon="4.83404">
        <ele>171</ele>
        <time>2024-09-20T08:26:58Z</time>
      </trkpt>
      <trkpt lat="45.84242" lon="4.83402">
        <ele>171</ele>
        <time>2024-09-20T08:26:59Z</time>
      </trkpt>
      <trkpt lat="45.84237" lon="4.834">
        <ele>171</ele>
        <time>2024-09-20T08:27:00Z</time>
      </trkpt>
      <trkpt lat="45.84233" lon="4.83398">
        <ele>171</ele>
        <time>2024-09-20T08:27:01Z</time>
      </trkpt>
      <trkpt lat="45.84229" lon="4.83397">
        <ele>171</ele>
        <time>2024-09-20T08:27:02Z</time>
      </trkpt>
      <trkpt lat="45.84224" lon="4.83395">
        <ele>170.8</ele>
        <time>2024-09-20T08:27:03Z</time>
      </trkpt>
      <trkpt lat="45.8422" lon="4.83394">
        <ele>170.6</ele>
        <time>2024-09-20T08:27:04Z</time>
      </trkpt>
      <trkpt lat="45.84216" lon="4.83392">
        <ele>170.6</ele>
        <time>2024-09-20T08:27:05Z</time>
      </trkpt>
      <trkpt lat="45.84212" lon="4.83391">
        <ele>170.6</ele>
        <time>2024-09-20T08:27:06Z</time>
      </trkpt>
      <trkpt lat="45.84208" lon="4.83389">
        <ele>170.8</ele>
        <time>2024-09-20T08:27:07Z</time>
      </trkpt>
      <trkpt lat="45.84203" lon="4.83388">
        <ele>170.8</ele>
        <time>2024-09-20T08:27:08Z</time>
      </trkpt>
      <trkpt lat="45.84199" lon="4.83387">
        <ele>170.8</ele>
        <time>2024-09-20T08:27:09Z</time>
      </trkpt>
      <trkpt lat="45.84195" lon="4.83386">
        <ele>170.8</ele>
        <time>2024-09-20T08:27:10Z</time>
      </trkpt>
      <trkpt lat="45.8419" lon="4.83385">
        <ele>170.6</ele>
        <time>2024-09-20T08:27:11Z</time>
      </trkpt>
      <trkpt lat="45.84186" lon="4.83384">
        <ele>170.6</ele>
        <time>2024-09-20T08:27:12Z</time>
      </trkpt>
      <trkpt lat="45.84181" lon="4.83382">
        <ele>170.6</ele>
        <time>2024-09-20T08:27:13Z</time>
      </trkpt>
      <trkpt lat="45.84177" lon="4.83381">
        <ele>170.6</ele>
        <time>2024-09-20T08:27:14Z</time>
      </trkpt>
      <trkpt lat="45.84172" lon="4.8338">
        <ele>170.6</ele>
        <time>2024-09-20T08:27:15Z</time>
      </trkpt>
      <trkpt lat="45.84168" lon="4.8338">
        <ele>170.4</ele>
        <time>2024-09-20T08:27:16Z</time>
      </trkpt>
      <trkpt lat="45.84163" lon="4.83379">
        <ele>170.4</ele>
        <time>2024-09-20T08:27:17Z</time>
      </trkpt>
      <trkpt lat="45.84159" lon="4.83378">
        <ele>170.4</ele>
        <time>2024-09-20T08:27:18Z</time>
      </trkpt>
      <trkpt lat="45.84154" lon="4.83377">
        <ele>170.4</ele>
        <time>2024-09-20T08:27:19Z</time>
      </trkpt>
      <trkpt lat="45.8415" lon="4.83376">
        <ele>170.6</ele>
        <time>2024-09-20T08:27:20Z</time>
      </trkpt>
      <trkpt lat="45.84145" lon="4.83375">
        <ele>170.4</ele>
        <time>2024-09-20T08:27:21Z</time>
      </trkpt>
      <trkpt lat="45.84141" lon="4.83375">
        <ele>170.4</ele>
        <time>2024-09-20T08:27:22Z</time>
      </trkpt>
      <trkpt lat="45.84137" lon="4.83375">
        <ele>170.4</ele>
        <time>2024-09-20T08:27:23Z</time>
      </trkpt>
      <trkpt lat="45.84132" lon="4.83374">
        <ele>170.4</ele>
        <time>2024-09-20T08:27:24Z</time>
      </trkpt>
      <trkpt lat="45.84127" lon="4.83374">
        <ele>170.2</ele>
        <time>2024-09-20T08:27:25Z</time>
      </trkpt>
      <trkpt lat="45.84123" lon="4.83374">
        <ele>170.4</ele>
        <time>2024-09-20T08:27:26Z</time>
      </trkpt>
      <trkpt lat="45.84118" lon="4.83374">
        <ele>170.4</ele>
        <time>2024-09-20T08:27:27Z</time>
      </trkpt>
      <trkpt lat="45.84114" lon="4.83373">
        <ele>170.4</ele>
        <time>2024-09-20T08:27:28Z</time>
      </trkpt>
      <trkpt lat="45.84109" lon="4.83373">
        <ele>170.4</ele>
        <time>2024-09-20T08:27:29Z</time>
      </trkpt>
      <trkpt lat="45.84104" lon="4.83373">
        <ele>170.4</ele>
        <time>2024-09-20T08:27:30Z</time>
      </trkpt>
      <trkpt lat="45.84099" lon="4.83373">
        <ele>170.4</ele>
        <time>2024-09-20T08:27:31Z</time>
      </trkpt>
      <trkpt lat="45.84094" lon="4.83373">
        <ele>170.4</ele>
        <time>2024-09-20T08:27:32Z</time>
      </trkpt>
      <trkpt lat="45.84089" lon="4.83374">
        <ele>170.4</ele>
        <time>2024-09-20T08:27:33Z</time>
      </trkpt>
      <trkpt lat="45.84085" lon="4.83374">
        <ele>170.8</ele>
        <time>2024-09-20T08:27:34Z</time>
      </trkpt>
      <trkpt lat="45.8408" lon="4.83373">
        <ele>170.8</ele>
        <time>2024-09-20T08:27:35Z</time>
      </trkpt>
      <trkpt lat="45.84076" lon="4.83374">
        <ele>170.8</ele>
        <time>2024-09-20T08:27:36Z</time>
      </trkpt>
      <trkpt lat="45.84071" lon="4.83374">
        <ele>170.8</ele>
        <time>2024-09-20T08:27:37Z</time>
      </trkpt>
      <trkpt lat="45.84066" lon="4.83374">
        <ele>170.8</ele>
        <time>2024-09-20T08:27:38Z</time>
      </trkpt>
      <trkpt lat="45.84062" lon="4.83374">
        <ele>170.8</ele>
        <time>2024-09-20T08:27:39Z</time>
      </trkpt>
      <trkpt lat="45.84057" lon="4.83374">
        <ele>170.6</ele>
        <time>2024-09-20T08:27:40Z</time>
      </trkpt>
      <trkpt lat="45.84053" lon="4.83374">
        <ele>170.6</ele>
        <time>2024-09-20T08:27:41Z</time>
      </trkpt>
      <trkpt lat="45.84048" lon="4.83374">
        <ele>170.6</ele>
        <time>2024-09-20T08:27:42Z</time>
      </trkpt>
      <trkpt lat="45.84044" lon="4.83373">
        <ele>170.8</ele>
        <time>2024-09-20T08:27:43Z</time>
      </trkpt>
      <trkpt lat="45.8404" lon="4.83373">
        <ele>170.8</ele>
        <time>2024-09-20T08:27:44Z</time>
      </trkpt>
      <trkpt lat="45.84035" lon="4.83372">
        <ele>170.8</ele>
        <time>2024-09-20T08:27:45Z</time>
      </trkpt>
      <trkpt lat="45.84031" lon="4.83372">
        <ele>170.8</ele>
        <time>2024-09-20T08:27:46Z</time>
      </trkpt>
      <trkpt lat="45.84025" lon="4.83372">
        <ele>170.8</ele>
        <time>2024-09-20T08:27:47Z</time>
      </trkpt>
      <trkpt lat="45.8402" lon="4.83371">
        <ele>170.6</ele>
        <time>2024-09-20T08:27:48Z</time>
      </trkpt>
      <trkpt lat="45.84015" lon="4.83371">
        <ele>170.6</ele>
        <time>2024-09-20T08:27:49Z</time>
      </trkpt>
      <trkpt lat="45.8401" lon="4.83371">
        <ele>170.6</ele>
        <time>2024-09-20T08:27:50Z</time>
      </trkpt>
      <trkpt lat="45.84005" lon="4.8337">
        <ele>170.6</ele>
        <time>2024-09-20T08:27:51Z</time>
      </trkpt>
      <trkpt lat="45.84" lon="4.83369">
        <ele>170</ele>
        <time>2024-09-20T08:27:52Z</time>
      </trkpt>
      <trkpt lat="45.83995" lon="4.83369">
        <ele>170.2</ele>
        <time>2024-09-20T08:27:53Z</time>
      </trkpt>
      <trkpt lat="45.83989" lon="4.83368">
        <ele>170.2</ele>
        <time>2024-09-20T08:27:54Z</time>
      </trkpt>
      <trkpt lat="45.83984" lon="4.83368">
        <ele>170.2</ele>
        <time>2024-09-20T08:27:55Z</time>
      </trkpt>
      <trkpt lat="45.83978" lon="4.83368">
        <ele>170.2</ele>
        <time>2024-09-20T08:27:56Z</time>
      </trkpt>
      <trkpt lat="45.83973" lon="4.83367">
        <ele>170.2</ele>
        <time>2024-09-20T08:27:57Z</time>
      </trkpt>
      <trkpt lat="45.83967" lon="4.83367">
        <ele>169.4</ele>
        <time>2024-09-20T08:27:58Z</time>
      </trkpt>
      <trkpt lat="45.8396" lon="4.83367">
        <ele>169.4</ele>
        <time>2024-09-20T08:27:59Z</time>
      </trkpt>
      <trkpt lat="45.83954" lon="4.83367">
        <ele>168.6</ele>
        <time>2024-09-20T08:28:00Z</time>
      </trkpt>
      <trkpt lat="45.83948" lon="4.83366">
        <ele>168.6</ele>
        <time>2024-09-20T08:28:01Z</time>
      </trkpt>
      <trkpt lat="45.83941" lon="4.83366">
        <ele>168.6</ele>
        <time>2024-09-20T08:28:02Z</time>
      </trkpt>
      <trkpt lat="45.83935" lon="4.83365">
        <ele>168.6</ele>
        <time>2024-09-20T08:28:03Z</time>
      </trkpt>
      <trkpt lat="45.83928" lon="4.83365">
        <ele>168.6</ele>
        <time>2024-09-20T08:28:04Z</time>
      </trkpt>
      <trkpt lat="45.83922" lon="4.83364">
        <ele>168</ele>
        <time>2024-09-20T08:28:05Z</time>
      </trkpt>
      <trkpt lat="45.83916" lon="4.83364">
        <ele>167.8</ele>
        <time>2024-09-20T08:28:06Z</time>
      </trkpt>
      <trkpt lat="45.83911" lon="4.83363">
        <ele>167.8</ele>
        <time>2024-09-20T08:28:07Z</time>
      </trkpt>
      <trkpt lat="45.83905" lon="4.83363">
        <ele>167.8</ele>
        <time>2024-09-20T08:28:08Z</time>
      </trkpt>
      <trkpt lat="45.83899" lon="4.83362">
        <ele>167.8</ele>
        <time>2024-09-20T08:28:09Z</time>
      </trkpt>
      <trkpt lat="45.83894" lon="4.83362">
        <ele>167.8</ele>
        <time>2024-09-20T08:28:10Z</time>
      </trkpt>
      <trkpt lat="45.83889" lon="4.83362">
        <ele>168</ele>
        <time>2024-09-20T08:28:11Z</time>
      </trkpt>
      <trkpt lat="45.83883" lon="4.83362">
        <ele>168</ele>
        <time>2024-09-20T08:28:12Z</time>
      </trkpt>
      <trkpt lat="45.83878" lon="4.83362">
        <ele>168</ele>
        <time>2024-09-20T08:28:13Z</time>
      </trkpt>
      <trkpt lat="45.83872" lon="4.83363">
        <ele>167.8</ele>
        <time>2024-09-20T08:28:14Z</time>
      </trkpt>
      <trkpt lat="45.83867" lon="4.83363">
        <ele>167.6</ele>
        <time>2024-09-20T08:28:15Z</time>
      </trkpt>
      <trkpt lat="45.83861" lon="4.83364">
        <ele>167.6</ele>
        <time>2024-09-20T08:28:16Z</time>
      </trkpt>
      <trkpt lat="45.83855" lon="4.83364">
        <ele>167.6</ele>
        <time>2024-09-20T08:28:17Z</time>
      </trkpt>
      <trkpt lat="45.8385" lon="4.83365">
        <ele>167.6</ele>
        <time>2024-09-20T08:28:18Z</time>
      </trkpt>
      <trkpt lat="45.83844" lon="4.83366">
        <ele>167.4</ele>
        <time>2024-09-20T08:28:19Z</time>
      </trkpt>
      <trkpt lat="45.83839" lon="4.83366">
        <ele>167.4</ele>
        <time>2024-09-20T08:28:20Z</time>
      </trkpt>
      <trkpt lat="45.83833" lon="4.83367">
        <ele>167.4</ele>
        <time>2024-09-20T08:28:21Z</time>
      </trkpt>
      <trkpt lat="45.83828" lon="4.83368">
        <ele>167.4</ele>
        <time>2024-09-20T08:28:22Z</time>
      </trkpt>
      <trkpt lat="45.83823" lon="4.83368">
        <ele>167.6</ele>
        <time>2024-09-20T08:28:23Z</time>
      </trkpt>
      <trkpt lat="45.83817" lon="4.83368">
        <ele>167.4</ele>
        <time>2024-09-20T08:28:24Z</time>
      </trkpt>
      <trkpt lat="45.83812" lon="4.8337">
        <ele>167.4</ele>
        <time>2024-09-20T08:28:25Z</time>
      </trkpt>
      <trkpt lat="45.83807" lon="4.83372">
        <ele>167.4</ele>
        <time>2024-09-20T08:28:26Z</time>
      </trkpt>
      <trkpt lat="45.83802" lon="4.83374">
        <ele>167.4</ele>
        <time>2024-09-20T08:28:27Z</time>
      </trkpt>
      <trkpt lat="45.83797" lon="4.83376">
        <ele>167.6</ele>
        <time>2024-09-20T08:28:28Z</time>
      </trkpt>
      <trkpt lat="45.83792" lon="4.83378">
        <ele>167.8</ele>
        <time>2024-09-20T08:28:29Z</time>
      </trkpt>
      <trkpt lat="45.83788" lon="4.83381">
        <ele>167.8</ele>
        <time>2024-09-20T08:28:30Z</time>
      </trkpt>
      <trkpt lat="45.83783" lon="4.83383">
        <ele>167.8</ele>
        <time>2024-09-20T08:28:31Z</time>
      </trkpt>
      <trkpt lat="45.83778" lon="4.83386">
        <ele>167.6</ele>
        <time>2024-09-20T08:28:32Z</time>
      </trkpt>
      <trkpt lat="45.83773" lon="4.83389">
        <ele>167.6</ele>
        <time>2024-09-20T08:28:33Z</time>
      </trkpt>
      <trkpt lat="45.83769" lon="4.83391">
        <ele>167.6</ele>
        <time>2024-09-20T08:28:34Z</time>
      </trkpt>
      <trkpt lat="45.83764" lon="4.83394">
        <ele>167.6</ele>
        <time>2024-09-20T08:28:35Z</time>
      </trkpt>
      <trkpt lat="45.8376" lon="4.83398">
        <ele>167.6</ele>
        <time>2024-09-20T08:28:36Z</time>
      </trkpt>
      <trkpt lat="45.83756" lon="4.83401">
        <ele>167.2</ele>
        <time>2024-09-20T08:28:37Z</time>
      </trkpt>
      <trkpt lat="45.83751" lon="4.83404">
        <ele>167.2</ele>
        <time>2024-09-20T08:28:38Z</time>
      </trkpt>
      <trkpt lat="45.83747" lon="4.83407">
        <ele>167.2</ele>
        <time>2024-09-20T08:28:39Z</time>
      </trkpt>
      <trkpt lat="45.83743" lon="4.83411">
        <ele>167.6</ele>
        <time>2024-09-20T08:28:40Z</time>
      </trkpt>
      <trkpt lat="45.83739" lon="4.83414">
        <ele>167.6</ele>
        <time>2024-09-20T08:28:41Z</time>
      </trkpt>
      <trkpt lat="45.83735" lon="4.83418">
        <ele>167.4</ele>
        <time>2024-09-20T08:28:42Z</time>
      </trkpt>
      <trkpt lat="45.8373" lon="4.83421">
        <ele>167.4</ele>
        <time>2024-09-20T08:28:43Z</time>
      </trkpt>
      <trkpt lat="45.83726" lon="4.83424">
        <ele>167.4</ele>
        <time>2024-09-20T08:28:44Z</time>
      </trkpt>
      <trkpt lat="45.83722" lon="4.83427">
        <ele>167.4</ele>
        <time>2024-09-20T08:28:45Z</time>
      </trkpt>
      <trkpt lat="45.83718" lon="4.83431">
        <ele>167.4</ele>
        <time>2024-09-20T08:28:46Z</time>
      </trkpt>
      <trkpt lat="45.83715" lon="4.83435">
        <ele>167.4</ele>
        <time>2024-09-20T08:28:47Z</time>
      </trkpt>
      <trkpt lat="45.83711" lon="4.83438">
        <ele>167.4</ele>
        <time>2024-09-20T08:28:48Z</time>
      </trkpt>
      <trkpt lat="45.83708" lon="4.83441">
        <ele>167.4</ele>
        <time>2024-09-20T08:28:49Z</time>
      </trkpt>
      <trkpt lat="45.83705" lon="4.83443">
        <ele>167.4</ele>
        <time>2024-09-20T08:28:50Z</time>
      </trkpt>
      <trkpt lat="45.83702" lon="4.83446">
        <ele>167.4</ele>
        <time>2024-09-20T08:28:51Z</time>
      </trkpt>
      <trkpt lat="45.837" lon="4.83448">
        <ele>167.4</ele>
        <time>2024-09-20T08:28:52Z</time>
      </trkpt>
      <trkpt lat="45.83698" lon="4.83451">
        <ele>167.4</ele>
        <time>2024-09-20T08:28:53Z</time>
      </trkpt>
      <trkpt lat="45.83696" lon="4.83453">
        <ele>167.4</ele>
        <time>2024-09-20T08:28:54Z</time>
      </trkpt>
      <trkpt lat="45.83694" lon="4.83456">
        <ele>167.4</ele>
        <time>2024-09-20T08:28:55Z</time>
      </trkpt>
      <trkpt lat="45.83692" lon="4.83458">
        <ele>167.4</ele>
        <time>2024-09-20T08:28:56Z</time>
      </trkpt>
      <trkpt lat="45.8369" lon="4.8346">
        <ele>167.4</ele>
        <time>2024-09-20T08:28:57Z</time>
      </trkpt>
      <trkpt lat="45.83688" lon="4.83462">
        <ele>167.4</ele>
        <time>2024-09-20T08:28:58Z</time>
      </trkpt>
      <trkpt lat="45.83686" lon="4.83465">
        <ele>167.4</ele>
        <time>2024-09-20T08:28:59Z</time>
      </trkpt>
      <trkpt lat="45.83685" lon="4.83467">
        <ele>167.4</ele>
        <time>2024-09-20T08:29:00Z</time>
      </trkpt>
      <trkpt lat="45.83682" lon="4.8347">
        <ele>167.4</ele>
        <time>2024-09-20T08:29:01Z</time>
      </trkpt>
      <trkpt lat="45.8368" lon="4.83473">
        <ele>167.4</ele>
        <time>2024-09-20T08:29:02Z</time>
      </trkpt>
      <trkpt lat="45.83677" lon="4.83476">
        <ele>167.4</ele>
        <time>2024-09-20T08:29:03Z</time>
      </trkpt>
      <trkpt lat="45.83675" lon="4.83479">
        <ele>167.4</ele>
        <time>2024-09-20T08:29:04Z</time>
      </trkpt>
      <trkpt lat="45.83672" lon="4.83482">
        <ele>167.2</ele>
        <time>2024-09-20T08:29:05Z</time>
      </trkpt>
      <trkpt lat="45.83669" lon="4.83484">
        <ele>167.2</ele>
        <time>2024-09-20T08:29:06Z</time>
      </trkpt>
      <trkpt lat="45.83666" lon="4.83487">
        <ele>167.2</ele>
        <time>2024-09-20T08:29:07Z</time>
      </trkpt>
      <trkpt lat="45.83664" lon="4.8349">
        <ele>167.2</ele>
        <time>2024-09-20T08:29:08Z</time>
      </trkpt>
      <trkpt lat="45.83662" lon="4.83493">
        <ele>167.2</ele>
        <time>2024-09-20T08:29:09Z</time>
      </trkpt>
      <trkpt lat="45.8366" lon="4.83497">
        <ele>167.4</ele>
        <time>2024-09-20T08:29:10Z</time>
      </trkpt>
      <trkpt lat="45.83657" lon="4.835">
        <ele>167.4</ele>
        <time>2024-09-20T08:29:11Z</time>
      </trkpt>
      <trkpt lat="45.83655" lon="4.83503">
        <ele>167.2</ele>
        <time>2024-09-20T08:29:12Z</time>
      </trkpt>
      <trkpt lat="45.83653" lon="4.83506">
        <ele>167.4</ele>
        <time>2024-09-20T08:29:13Z</time>
      </trkpt>
      <trkpt lat="45.8365" lon="4.8351">
        <ele>167.4</ele>
        <time>2024-09-20T08:29:14Z</time>
      </trkpt>
      <trkpt lat="45.83648" lon="4.83513">
        <ele>167.4</ele>
        <time>2024-09-20T08:29:15Z</time>
      </trkpt>
      <trkpt lat="45.83646" lon="4.83516">
        <ele>167.4</ele>
        <time>2024-09-20T08:29:16Z</time>
      </trkpt>
      <trkpt lat="45.83644" lon="4.83519">
        <ele>167.2</ele>
        <time>2024-09-20T08:29:17Z</time>
      </trkpt>
      <trkpt lat="45.83642" lon="4.83521">
        <ele>167.2</ele>
        <time>2024-09-20T08:29:18Z</time>
      </trkpt>
      <trkpt lat="45.83641" lon="4.83523">
        <ele>167.2</ele>
        <time>2024-09-20T08:29:19Z</time>
      </trkpt>
      <trkpt lat="45.83639" lon="4.83525">
        <ele>167.2</ele>
        <time>2024-09-20T08:29:20Z</time>
      </trkpt>
      <trkpt lat="45.83638" lon="4.83526">
        <ele>167.2</ele>
        <time>2024-09-20T08:29:21Z</time>
      </trkpt>
      <trkpt lat="45.83636" lon="4.83528">
        <ele>167.2</ele>
        <time>2024-09-20T08:29:22Z</time>
      </trkpt>
      <trkpt lat="45.83635" lon="4.8353">
        <ele>167.2</ele>
        <time>2024-09-20T08:29:23Z</time>
      </trkpt>
      <trkpt lat="45.83635" lon="4.83532">
        <ele>167.2</ele>
        <time>2024-09-20T08:29:24Z</time>
      </trkpt>
      <trkpt lat="45.83636" lon="4.83534">
        <ele>167.2</ele>
        <time>2024-09-20T08:29:25Z</time>
      </trkpt>
      <trkpt lat="45.83637" lon="4.83534">
        <ele>167.2</ele>
        <time>2024-09-20T08:29:26Z</time>
      </trkpt>
      <trkpt lat="45.83639" lon="4.83534">
        <ele>167.2</ele>
        <time>2024-09-20T08:29:27Z</time>
      </trkpt>
      <trkpt lat="45.8364" lon="4.83531">
        <ele>167.2</ele>
        <time>2024-09-20T08:29:28Z</time>
      </trkpt>
      <trkpt lat="45.83642" lon="4.83529">
        <ele>167.2</ele>
        <time>2024-09-20T08:29:29Z</time>
      </trkpt>
      <trkpt lat="45.83643" lon="4.83526">
        <ele>167.2</ele>
        <time>2024-09-20T08:29:30Z</time>
      </trkpt>
      <trkpt lat="45.83646" lon="4.83523">
        <ele>166.8</ele>
        <time>2024-09-20T08:29:31Z</time>
      </trkpt>
      <trkpt lat="45.83648" lon="4.8352">
        <ele>166.8</ele>
        <time>2024-09-20T08:29:32Z</time>
      </trkpt>
      <trkpt lat="45.8365" lon="4.83517">
        <ele>166.8</ele>
        <time>2024-09-20T08:29:33Z</time>
      </trkpt>
      <trkpt lat="45.83653" lon="4.83514">
        <ele>166.8</ele>
        <time>2024-09-20T08:29:34Z</time>
      </trkpt>
      <trkpt lat="45.83655" lon="4.83511">
        <ele>167</ele>
        <time>2024-09-20T08:29:35Z</time>
      </trkpt>
      <trkpt lat="45.83657" lon="4.83506">
        <ele>167</ele>
        <time>2024-09-20T08:29:36Z</time>
      </trkpt>
      <trkpt lat="45.83659" lon="4.83502">
        <ele>167</ele>
        <time>2024-09-20T08:29:37Z</time>
      </trkpt>
      <trkpt lat="45.83661" lon="4.83498">
        <ele>167</ele>
        <time>2024-09-20T08:29:38Z</time>
      </trkpt>
      <trkpt lat="45.83664" lon="4.83494">
        <ele>167</ele>
        <time>2024-09-20T08:29:39Z</time>
      </trkpt>
      <trkpt lat="45.83667" lon="4.8349">
        <ele>167</ele>
        <time>2024-09-20T08:29:40Z</time>
      </trkpt>
      <trkpt lat="45.8367" lon="4.83486">
        <ele>167</ele>
        <time>2024-09-20T08:29:41Z</time>
      </trkpt>
      <trkpt lat="45.83673" lon="4.83483">
        <ele>167</ele>
        <time>2024-09-20T08:29:42Z</time>
      </trkpt>
      <trkpt lat="45.83676" lon="4.83479">
        <ele>167</ele>
        <time>2024-09-20T08:29:43Z</time>
      </trkpt>
      <trkpt lat="45.83679" lon="4.83475">
        <ele>167.4</ele>
        <time>2024-09-20T08:29:44Z</time>
      </trkpt>
      <trkpt lat="45.83683" lon="4.83471">
        <ele>167.4</ele>
        <time>2024-09-20T08:29:45Z</time>
      </trkpt>
      <trkpt lat="45.83686" lon="4.83467">
        <ele>167.4</ele>
        <time>2024-09-20T08:29:46Z</time>
      </trkpt>
      <trkpt lat="45.8369" lon="4.83463">
        <ele>167.4</ele>
        <time>2024-09-20T08:29:47Z</time>
      </trkpt>
      <trkpt lat="45.83693" lon="4.83459">
        <ele>166.8</ele>
        <time>2024-09-20T08:29:48Z</time>
      </trkpt>
      <trkpt lat="45.83696" lon="4.83455">
        <ele>167</ele>
        <time>2024-09-20T08:29:49Z</time>
      </trkpt>
      <trkpt lat="45.837" lon="4.83452">
        <ele>167</ele>
        <time>2024-09-20T08:29:50Z</time>
      </trkpt>
      <trkpt lat="45.83703" lon="4.83448">
        <ele>167</ele>
        <time>2024-09-20T08:29:51Z</time>
      </trkpt>
      <trkpt lat="45.83706" lon="4.83445">
        <ele>167</ele>
        <time>2024-09-20T08:29:52Z</time>
      </trkpt>
      <trkpt lat="45.83709" lon="4.83441">
        <ele>166.6</ele>
        <time>2024-09-20T08:29:53Z</time>
      </trkpt>
      <trkpt lat="45.83713" lon="4.83438">
        <ele>166.6</ele>
        <time>2024-09-20T08:29:54Z</time>
      </trkpt>
      <trkpt lat="45.83716" lon="4.83435">
        <ele>166.6</ele>
        <time>2024-09-20T08:29:55Z</time>
      </trkpt>
      <trkpt lat="45.83719" lon="4.83433">
        <ele>166.6</ele>
        <time>2024-09-20T08:29:56Z</time>
      </trkpt>
      <trkpt lat="45.83721" lon="4.83431">
        <ele>166.6</ele>
        <time>2024-09-20T08:29:57Z</time>
      </trkpt>
      <trkpt lat="45.83724" lon="4.8343">
        <ele>166.8</ele>
        <time>2024-09-20T08:29:58Z</time>
      </trkpt>
      <trkpt lat="45.83726" lon="4.83428">
        <ele>166.8</ele>
        <time>2024-09-20T08:29:59Z</time>
      </trkpt>
      <trkpt lat="45.83728" lon="4.83426">
        <ele>166.8</ele>
        <time>2024-09-20T08:30:00Z</time>
      </trkpt>
      <trkpt lat="45.8373" lon="4.83424">
        <ele>167</ele>
        <time>2024-09-20T08:30:01Z</time>
      </trkpt>
      <trkpt lat="45.83732" lon="4.83423">
        <ele>167</ele>
        <time>2024-09-20T08:30:02Z</time>
      </trkpt>
      <trkpt lat="45.83733" lon="4.83422">
        <ele>167</ele>
        <time>2024-09-20T08:30:03Z</time>
      </trkpt>
      <trkpt lat="45.83735" lon="4.83421">
        <ele>167</ele>
        <time>2024-09-20T08:30:04Z</time>
      </trkpt>
      <trkpt lat="45.83736" lon="4.8342">
        <ele>167</ele>
        <time>2024-09-20T08:30:05Z</time>
      </trkpt>
      <trkpt lat="45.83736" lon="4.8342">
        <ele>167</ele>
        <time>2024-09-20T08:30:06Z</time>
      </trkpt>
      <trkpt lat="45.83736" lon="4.8342">
        <ele>167</ele>
        <time>2024-09-20T08:30:07Z</time>
      </trkpt>
      <trkpt lat="45.83734" lon="4.83421">
        <ele>167</ele>
        <time>2024-09-20T08:30:35Z</time>
      </trkpt>
      <trkpt lat="45.83733" lon="4.83422">
        <ele>167</ele>
        <time>2024-09-20T08:30:36Z</time>
      </trkpt>
      <trkpt lat="45.83732" lon="4.83423">
        <ele>167</ele>
        <time>2024-09-20T08:30:37Z</time>
      </trkpt>
      <trkpt lat="45.83731" lon="4.83424">
        <ele>167</ele>
        <time>2024-09-20T08:30:38Z</time>
      </trkpt>
      <trkpt lat="45.83729" lon="4.83425">
        <ele>167</ele>
        <time>2024-09-20T08:30:39Z</time>
      </trkpt>
      <trkpt lat="45.83728" lon="4.83426">
        <ele>167.2</ele>
        <time>2024-09-20T08:30:40Z</time>
      </trkpt>
      <trkpt lat="45.83726" lon="4.83427">
        <ele>167.2</ele>
        <time>2024-09-20T08:30:41Z</time>
      </trkpt>
      <trkpt lat="45.83725" lon="4.83427">
        <ele>167.2</ele>
        <time>2024-09-20T08:30:42Z</time>
      </trkpt>
      <trkpt lat="45.83724" lon="4.83428">
        <ele>167.2</ele>
        <time>2024-09-20T08:30:43Z</time>
      </trkpt>
      <trkpt lat="45.83723" lon="4.83429">
        <ele>167.4</ele>
        <time>2024-09-20T08:30:44Z</time>
      </trkpt>
      <trkpt lat="45.83722" lon="4.8343">
        <ele>167.4</ele>
        <time>2024-09-20T08:30:45Z</time>
      </trkpt>
      <trkpt lat="45.83721" lon="4.8343">
        <ele>167.2</ele>
        <time>2024-09-20T08:30:46Z</time>
      </trkpt>
      <trkpt lat="45.8372" lon="4.83432">
        <ele>167.2</ele>
        <time>2024-09-20T08:30:47Z</time>
      </trkpt>
      <trkpt lat="45.83719" lon="4.83433">
        <ele>167.2</ele>
        <time>2024-09-20T08:30:48Z</time>
      </trkpt>
      <trkpt lat="45.83718" lon="4.83434">
        <ele>167.2</ele>
        <time>2024-09-20T08:30:49Z</time>
      </trkpt>
      <trkpt lat="45.83717" lon="4.83434">
        <ele>167.2</ele>
        <time>2024-09-20T08:30:50Z</time>
      </trkpt>
      <trkpt lat="45.83716" lon="4.83435">
        <ele>167.2</ele>
        <time>2024-09-20T08:30:51Z</time>
      </trkpt>
      <trkpt lat="45.83716" lon="4.83436">
        <ele>167.2</ele>
        <time>2024-09-20T08:30:52Z</time>
      </trkpt>
      <trkpt lat="45.83715" lon="4.83436">
        <ele>167.2</ele>
        <time>2024-09-20T08:30:53Z</time>
      </trkpt>
      <trkpt lat="45.83713" lon="4.83436">
        <ele>167.2</ele>
        <time>2024-09-20T08:30:54Z</time>
      </trkpt>
      <trkpt lat="45.83712" lon="4.83435">
        <ele>167</ele>
        <time>2024-09-20T08:30:55Z</time>
      </trkpt>
      <trkpt lat="45.83712" lon="4.83433">
        <ele>167</ele>
        <time>2024-09-20T08:30:56Z</time>
      </trkpt>
      <trkpt lat="45.83712" lon="4.83432">
        <ele>167</ele>
        <time>2024-09-20T08:30:57Z</time>
      </trkpt>
      <trkpt lat="45.83713" lon="4.8343">
        <ele>167</ele>
        <time>2024-09-20T08:30:58Z</time>
      </trkpt>
      <trkpt lat="45.83713" lon="4.83429">
        <ele>166.6</ele>
        <time>2024-09-20T08:30:59Z</time>
      </trkpt>
      <trkpt lat="45.83713" lon="4.83427">
        <ele>166.6</ele>
        <time>2024-09-20T08:31:00Z</time>
      </trkpt>
      <trkpt lat="45.83713" lon="4.83425">
        <ele>166</ele>
        <time>2024-09-20T08:31:01Z</time>
      </trkpt>
      <trkpt lat="45.83713" lon="4.83423">
        <ele>166</ele>
        <time>2024-09-20T08:31:02Z</time>
      </trkpt>
      <trkpt lat="45.83713" lon="4.83422">
        <ele>165.8</ele>
        <time>2024-09-20T08:31:03Z</time>
      </trkpt>
      <trkpt lat="45.83714" lon="4.83421">
        <ele>165.8</ele>
        <time>2024-09-20T08:31:04Z</time>
      </trkpt>
      <trkpt lat="45.83715" lon="4.8342">
        <ele>165.8</ele>
        <time>2024-09-20T08:31:05Z</time>
      </trkpt>
      <trkpt lat="45.83716" lon="4.8342">
        <ele>165.8</ele>
        <time>2024-09-20T08:31:06Z</time>
      </trkpt>
      <trkpt lat="45.83717" lon="4.8342">
        <ele>165.8</ele>
        <time>2024-09-20T08:31:07Z</time>
      </trkpt>
      <trkpt lat="45.83718" lon="4.83419">
        <ele>165.8</ele>
        <time>2024-09-20T08:31:08Z</time>
      </trkpt>
      <trkpt lat="45.83719" lon="4.83418">
        <ele>165.8</ele>
        <time>2024-09-20T08:31:09Z</time>
      </trkpt>
      <trkpt lat="45.83719" lon="4.83418">
        <ele>165.8</ele>
        <time>2024-09-20T08:31:10Z</time>
      </trkpt>
      <trkpt lat="45.83719" lon="4.83418">
        <ele>165.8</ele>
        <time>2024-09-20T08:31:11Z</time>
      </trkpt>
      <trkpt lat="45.83719" lon="4.83418">
        <ele>165.8</ele>
        <time>2024-09-20T08:31:12Z</time>
      </trkpt>
      <trkpt lat="45.83722" lon="4.83416">
        <ele>165.2</ele>
        <time>2024-09-20T08:31:17Z</time>
      </trkpt>
      <trkpt lat="45.83723" lon="4.83415">
        <ele>165.2</ele>
        <time>2024-09-20T08:31:18Z</time>
      </trkpt>
      <trkpt lat="45.83723" lon="4.83414">
        <ele>165.2</ele>
        <time>2024-09-20T08:31:19Z</time>
      </trkpt>
      <trkpt lat="45.83719" lon="4.8341">
        <ele>165.4</ele>
        <time>2024-09-20T08:56:34Z</time>
      </trkpt>
      <trkpt lat="45.83718" lon="4.8341">
        <ele>165.4</ele>
        <time>2024-09-20T08:56:35Z</time>
      </trkpt>
      <trkpt lat="45.83718" lon="4.83411">
        <ele>165.4</ele>
        <time>2024-09-20T08:56:36Z</time>
      </trkpt>
      <trkpt lat="45.83718" lon="4.83411">
        <ele>165.4</ele>
        <time>2024-09-20T08:56:37Z</time>
      </trkpt>
      <trkpt lat="45.83713" lon="4.83414">
        <ele>165.6</ele>
        <time>2024-09-20T08:57:18Z</time>
      </trkpt>
      <trkpt lat="45.83712" lon="4.83414">
        <ele>165.6</ele>
        <time>2024-09-20T08:57:19Z</time>
      </trkpt>
      <trkpt lat="45.83712" lon="4.83415">
        <ele>165.6</ele>
        <time>2024-09-20T08:57:20Z</time>
      </trkpt>
      <trkpt lat="45.83711" lon="4.83416">
        <ele>165.6</ele>
        <time>2024-09-20T08:57:21Z</time>
      </trkpt>
      <trkpt lat="45.83711" lon="4.83418">
        <ele>165.6</ele>
        <time>2024-09-20T08:57:22Z</time>
      </trkpt>
      <trkpt lat="45.83711" lon="4.83419">
        <ele>165.6</ele>
        <time>2024-09-20T08:57:23Z</time>
      </trkpt>
      <trkpt lat="45.83711" lon="4.8342">
        <ele>165.6</ele>
        <time>2024-09-20T08:57:24Z</time>
      </trkpt>
      <trkpt lat="45.83711" lon="4.83422">
        <ele>165.6</ele>
        <time>2024-09-20T08:57:25Z</time>
      </trkpt>
      <trkpt lat="45.83711" lon="4.83424">
        <ele>165.6</ele>
        <time>2024-09-20T08:57:26Z</time>
      </trkpt>
      <trkpt lat="45.83711" lon="4.83425">
        <ele>165.6</ele>
        <time>2024-09-20T08:57:27Z</time>
      </trkpt>
      <trkpt lat="45.83712" lon="4.83427">
        <ele>165.6</ele>
        <time>2024-09-20T08:57:28Z</time>
      </trkpt>
      <trkpt lat="45.83712" lon="4.83428">
        <ele>166.2</ele>
        <time>2024-09-20T08:57:29Z</time>
      </trkpt>
      <trkpt lat="45.83712" lon="4.8343">
        <ele>166.4</ele>
        <time>2024-09-20T08:57:30Z</time>
      </trkpt>
      <trkpt lat="45.83712" lon="4.83431">
        <ele>166.4</ele>
        <time>2024-09-20T08:57:31Z</time>
      </trkpt>
      <trkpt lat="45.83712" lon="4.83432">
        <ele>166.4</ele>
        <time>2024-09-20T08:57:32Z</time>
      </trkpt>
      <trkpt lat="45.83711" lon="4.83434">
        <ele>166.6</ele>
        <time>2024-09-20T08:57:33Z</time>
      </trkpt>
      <trkpt lat="45.83711" lon="4.83435">
        <ele>166.6</ele>
        <time>2024-09-20T08:57:34Z</time>
      </trkpt>
      <trkpt lat="45.83711" lon="4.83436">
        <ele>166.6</ele>
        <time>2024-09-20T08:57:35Z</time>
      </trkpt>
      <trkpt lat="45.83711" lon="4.83437">
        <ele>166.6</ele>
        <time>2024-09-20T08:57:36Z</time>
      </trkpt>
      <trkpt lat="45.83711" lon="4.83438">
        <ele>166.6</ele>
        <time>2024-09-20T08:57:37Z</time>
      </trkpt>
      <trkpt lat="45.8371" lon="4.83439">
        <ele>166.8</ele>
        <time>2024-09-20T08:57:38Z</time>
      </trkpt>
      <trkpt lat="45.83709" lon="4.83439">
        <ele>166.8</ele>
        <time>2024-09-20T08:57:39Z</time>
      </trkpt>
      <trkpt lat="45.83709" lon="4.83439">
        <ele>166.8</ele>
        <time>2024-09-20T08:57:40Z</time>
      </trkpt>
      <trkpt lat="45.83706" lon="4.83442">
        <ele>166.8</ele>
        <time>2024-09-20T08:57:56Z</time>
      </trkpt>
      <trkpt lat="45.83706" lon="4.83444">
        <ele>166.8</ele>
        <time>2024-09-20T08:57:57Z</time>
      </trkpt>
      <trkpt lat="45.83705" lon="4.83445">
        <ele>166.8</ele>
        <time>2024-09-20T08:57:58Z</time>
      </trkpt>
      <trkpt lat="45.83704" lon="4.83447">
        <ele>166.8</ele>
        <time>2024-09-20T08:57:59Z</time>
      </trkpt>
      <trkpt lat="45.83702" lon="4.83448">
        <ele>166.8</ele>
        <time>2024-09-20T08:58:00Z</time>
      </trkpt>
      <trkpt lat="45.83701" lon="4.8345">
        <ele>166.8</ele>
        <time>2024-09-20T08:58:01Z</time>
      </trkpt>
      <trkpt lat="45.837" lon="4.83451">
        <ele>166.8</ele>
        <time>2024-09-20T08:58:02Z</time>
      </trkpt>
      <trkpt lat="45.83698" lon="4.83453">
        <ele>166.8</ele>
        <time>2024-09-20T08:58:03Z</time>
      </trkpt>
      <trkpt lat="45.83696" lon="4.83455">
        <ele>166.8</ele>
        <time>2024-09-20T08:58:04Z</time>
      </trkpt>
      <trkpt lat="45.83695" lon="4.83457">
        <ele>166.8</ele>
        <time>2024-09-20T08:58:05Z</time>
      </trkpt>
      <trkpt lat="45.83693" lon="4.83459">
        <ele>167</ele>
        <time>2024-09-20T08:58:06Z</time>
      </trkpt>
      <trkpt lat="45.8369" lon="4.83461">
        <ele>167</ele>
        <time>2024-09-20T08:58:07Z</time>
      </trkpt>
      <trkpt lat="45.83688" lon="4.83464">
        <ele>167</ele>
        <time>2024-09-20T08:58:08Z</time>
      </trkpt>
      <trkpt lat="45.83686" lon="4.83466">
        <ele>167</ele>
        <time>2024-09-20T08:58:09Z</time>
      </trkpt>
      <trkpt lat="45.83683" lon="4.83469">
        <ele>167</ele>
        <time>2024-09-20T08:58:10Z</time>
      </trkpt>
      <trkpt lat="45.83681" lon="4.83472">
        <ele>167</ele>
        <time>2024-09-20T08:58:11Z</time>
      </trkpt>
      <trkpt lat="45.83678" lon="4.83475">
        <ele>167</ele>
        <time>2024-09-20T08:58:12Z</time>
      </trkpt>
      <trkpt lat="45.83676" lon="4.83478">
        <ele>166.8</ele>
        <time>2024-09-20T08:58:13Z</time>
      </trkpt>
      <trkpt lat="45.83674" lon="4.83481">
        <ele>166.8</ele>
        <time>2024-09-20T08:58:14Z</time>
      </trkpt>
      <trkpt lat="45.83671" lon="4.83484">
        <ele>166.8</ele>
        <time>2024-09-20T08:58:15Z</time>
      </trkpt>
      <trkpt lat="45.83668" lon="4.83488">
        <ele>166.8</ele>
        <time>2024-09-20T08:58:16Z</time>
      </trkpt>
      <trkpt lat="45.83666" lon="4.83491">
        <ele>166.8</ele>
        <time>2024-09-20T08:58:17Z</time>
      </trkpt>
      <trkpt lat="45.83663" lon="4.83494">
        <ele>167</ele>
        <time>2024-09-20T08:58:18Z</time>
      </trkpt>
      <trkpt lat="45.8366" lon="4.83498">
        <ele>167</ele>
        <time>2024-09-20T08:58:19Z</time>
      </trkpt>
      <trkpt lat="45.83658" lon="4.83501">
        <ele>166.8</ele>
        <time>2024-09-20T08:58:20Z</time>
      </trkpt>
      <trkpt lat="45.83655" lon="4.83505">
        <ele>166.8</ele>
        <time>2024-09-20T08:58:21Z</time>
      </trkpt>
      <trkpt lat="45.83652" lon="4.83508">
        <ele>167</ele>
        <time>2024-09-20T08:58:22Z</time>
      </trkpt>
      <trkpt lat="45.83649" lon="4.83512">
        <ele>167</ele>
        <time>2024-09-20T08:58:23Z</time>
      </trkpt>
      <trkpt lat="45.83646" lon="4.83516">
        <ele>167</ele>
        <time>2024-09-20T08:58:24Z</time>
      </trkpt>
      <trkpt lat="45.83644" lon="4.8352">
        <ele>167</ele>
        <time>2024-09-20T08:58:25Z</time>
      </trkpt>
      <trkpt lat="45.83641" lon="4.83524">
        <ele>167</ele>
        <time>2024-09-20T08:58:26Z</time>
      </trkpt>
      <trkpt lat="45.83639" lon="4.83528">
        <ele>166.8</ele>
        <time>2024-09-20T08:58:27Z</time>
      </trkpt>
      <trkpt lat="45.83636" lon="4.83533">
        <ele>166.8</ele>
        <time>2024-09-20T08:58:28Z</time>
      </trkpt>
      <trkpt lat="45.83634" lon="4.83537">
        <ele>166.8</ele>
        <time>2024-09-20T08:58:29Z</time>
      </trkpt>
      <trkpt lat="45.83631" lon="4.83541">
        <ele>166.8</ele>
        <time>2024-09-20T08:58:30Z</time>
      </trkpt>
      <trkpt lat="45.83628" lon="4.83545">
        <ele>167</ele>
        <time>2024-09-20T08:58:31Z</time>
      </trkpt>
      <trkpt lat="45.83626" lon="4.8355">
        <ele>167</ele>
        <time>2024-09-20T08:58:32Z</time>
      </trkpt>
      <trkpt lat="45.83623" lon="4.83554">
        <ele>167</ele>
        <time>2024-09-20T08:58:33Z</time>
      </trkpt>
      <trkpt lat="45.83621" lon="4.83559">
        <ele>167</ele>
        <time>2024-09-20T08:58:34Z</time>
      </trkpt>
      <trkpt lat="45.83618" lon="4.83563">
        <ele>167.2</ele>
        <time>2024-09-20T08:58:35Z</time>
      </trkpt>
      <trkpt lat="45.83616" lon="4.83567">
        <ele>167</ele>
        <time>2024-09-20T08:58:36Z</time>
      </trkpt>
      <trkpt lat="45.83613" lon="4.83572">
        <ele>167</ele>
        <time>2024-09-20T08:58:37Z</time>
      </trkpt>
      <trkpt lat="45.83611" lon="4.83576">
        <ele>167</ele>
        <time>2024-09-20T08:58:38Z</time>
      </trkpt>
      <trkpt lat="45.83608" lon="4.83581">
        <ele>167</ele>
        <time>2024-09-20T08:58:39Z</time>
      </trkpt>
      <trkpt lat="45.83606" lon="4.83585">
        <ele>167</ele>
        <time>2024-09-20T08:58:40Z</time>
      </trkpt>
      <trkpt lat="45.83604" lon="4.8359">
        <ele>167</ele>
        <time>2024-09-20T08:58:41Z</time>
      </trkpt>
      <trkpt lat="45.83601" lon="4.83594">
        <ele>166.8</ele>
        <time>2024-09-20T08:58:42Z</time>
      </trkpt>
      <trkpt lat="45.83599" lon="4.83599">
        <ele>166.8</ele>
        <time>2024-09-20T08:58:43Z</time>
      </trkpt>
      <trkpt lat="45.83597" lon="4.83604">
        <ele>166.8</ele>
        <time>2024-09-20T08:58:44Z</time>
      </trkpt>
      <trkpt lat="45.83595" lon="4.83609">
        <ele>166.8</ele>
        <time>2024-09-20T08:58:45Z</time>
      </trkpt>
      <trkpt lat="45.83593" lon="4.83613">
        <ele>166.8</ele>
        <time>2024-09-20T08:58:46Z</time>
      </trkpt>
      <trkpt lat="45.83592" lon="4.83616">
        <ele>166.8</ele>
        <time>2024-09-20T08:58:47Z</time>
      </trkpt>
      <trkpt lat="45.8359" lon="4.83619">
        <ele>166.8</ele>
        <time>2024-09-20T08:58:48Z</time>
      </trkpt>
      <trkpt lat="45.8359" lon="4.8362">
        <ele>166.8</ele>
        <time>2024-09-20T08:58:49Z</time>
      </trkpt>
      <trkpt lat="45.8359" lon="4.8362">
        <ele>167</ele>
        <time>2024-09-20T08:58:50Z</time>
      </trkpt>
      <trkpt lat="45.8359" lon="4.8362">
        <ele>167</ele>
        <time>2024-09-20T08:58:51Z</time>
      </trkpt>
      <trkpt lat="45.8359" lon="4.8362">
        <ele>167</ele>
        <time>2024-09-20T08:58:52Z</time>
      </trkpt>
      <trkpt lat="45.83587" lon="4.83623">
        <ele>166.6</ele>
        <time>2024-09-20T08:59:48Z</time>
      </trkpt>
      <trkpt lat="45.83586" lon="4.83625">
        <ele>166.6</ele>
        <time>2024-09-20T08:59:49Z</time>
      </trkpt>
      <trkpt lat="45.83585" lon="4.83628">
        <ele>166.6</ele>
        <time>2024-09-20T08:59:50Z</time>
      </trkpt>
      <trkpt lat="45.83584" lon="4.83631">
        <ele>166.6</ele>
        <time>2024-09-20T08:59:51Z</time>
      </trkpt>
      <trkpt lat="45.83582" lon="4.83635">
        <ele>166.6</ele>
        <time>2024-09-20T08:59:52Z</time>
      </trkpt>
      <trkpt lat="45.83581" lon="4.83638">
        <ele>166.8</ele>
        <time>2024-09-20T08:59:53Z</time>
      </trkpt>
      <trkpt lat="45.83579" lon="4.83642">
        <ele>166.8</ele>
        <time>2024-09-20T08:59:54Z</time>
      </trkpt>
      <trkpt lat="45.83577" lon="4.83647">
        <ele>166.8</ele>
        <time>2024-09-20T08:59:55Z</time>
      </trkpt>
      <trkpt lat="45.83575" lon="4.83651">
        <ele>166.8</ele>
        <time>2024-09-20T08:59:56Z</time>
      </trkpt>
      <trkpt lat="45.83573" lon="4.83656">
        <ele>166.8</ele>
        <time>2024-09-20T08:59:57Z</time>
      </trkpt>
      <trkpt lat="45.83571" lon="4.83661">
        <ele>167</ele>
        <time>2024-09-20T08:59:58Z</time>
      </trkpt>
      <trkpt lat="45.83569" lon="4.83665">
        <ele>167</ele>
        <time>2024-09-20T08:59:59Z</time>
      </trkpt>
      <trkpt lat="45.83567" lon="4.8367">
        <ele>167</ele>
        <time>2024-09-20T09:00:00Z</time>
      </trkpt>
      <trkpt lat="45.83565" lon="4.83675">
        <ele>167</ele>
        <time>2024-09-20T09:00:01Z</time>
      </trkpt>
      <trkpt lat="45.83563" lon="4.8368">
        <ele>167.2</ele>
        <time>2024-09-20T09:00:02Z</time>
      </trkpt>
      <trkpt lat="45.83561" lon="4.83685">
        <ele>166.8</ele>
        <time>2024-09-20T09:00:03Z</time>
      </trkpt>
      <trkpt lat="45.83559" lon="4.8369">
        <ele>166.8</ele>
        <time>2024-09-20T09:00:04Z</time>
      </trkpt>
      <trkpt lat="45.83557" lon="4.83695">
        <ele>166.8</ele>
        <time>2024-09-20T09:00:05Z</time>
      </trkpt>
      <trkpt lat="45.83555" lon="4.837">
        <ele>167.2</ele>
        <time>2024-09-20T09:00:06Z</time>
      </trkpt>
      <trkpt lat="45.83553" lon="4.83704">
        <ele>167.2</ele>
        <time>2024-09-20T09:00:07Z</time>
      </trkpt>
      <trkpt lat="45.83551" lon="4.83709">
        <ele>167.2</ele>
        <time>2024-09-20T09:00:08Z</time>
      </trkpt>
      <trkpt lat="45.83549" lon="4.83713">
        <ele>167.2</ele>
        <time>2024-09-20T09:00:09Z</time>
      </trkpt>
      <trkpt lat="45.83547" lon="4.83717">
        <ele>167.2</ele>
        <time>2024-09-20T09:00:10Z</time>
      </trkpt>
      <trkpt lat="45.83545" lon="4.83722">
        <ele>167.2</ele>
        <time>2024-09-20T09:00:11Z</time>
      </trkpt>
      <trkpt lat="45.83543" lon="4.83726">
        <ele>167</ele>
        <time>2024-09-20T09:00:12Z</time>
      </trkpt>
      <trkpt lat="45.8354" lon="4.83731">
        <ele>167</ele>
        <time>2024-09-20T09:00:13Z</time>
      </trkpt>
      <trkpt lat="45.83538" lon="4.83735">
        <ele>167</ele>
        <time>2024-09-20T09:00:14Z</time>
      </trkpt>
      <trkpt lat="45.83536" lon="4.83738">
        <ele>167</ele>
        <time>2024-09-20T09:00:15Z</time>
      </trkpt>
      <trkpt lat="45.83534" lon="4.83742">
        <ele>166.6</ele>
        <time>2024-09-20T09:00:16Z</time>
      </trkpt>
      <trkpt lat="45.83532" lon="4.83746">
        <ele>167.2</ele>
        <time>2024-09-20T09:00:17Z</time>
      </trkpt>
      <trkpt lat="45.8353" lon="4.8375">
        <ele>167.2</ele>
        <time>2024-09-20T09:00:18Z</time>
      </trkpt>
      <trkpt lat="45.8353" lon="4.83754">
        <ele>167.2</ele>
        <time>2024-09-20T09:00:19Z</time>
      </trkpt>
      <trkpt lat="45.83529" lon="4.83758">
        <ele>167.2</ele>
        <time>2024-09-20T09:00:20Z</time>
      </trkpt>
      <trkpt lat="45.83527" lon="4.83761">
        <ele>167</ele>
        <time>2024-09-20T09:00:21Z</time>
      </trkpt>
      <trkpt lat="45.83526" lon="4.83764">
        <ele>167</ele>
        <time>2024-09-20T09:00:22Z</time>
      </trkpt>
      <trkpt lat="45.83525" lon="4.83767">
        <ele>167</ele>
        <time>2024-09-20T09:00:23Z</time>
      </trkpt>
      <trkpt lat="45.83524" lon="4.8377">
        <ele>167</ele>
        <time>2024-09-20T09:00:24Z</time>
      </trkpt>
      <trkpt lat="45.83522" lon="4.83774">
        <ele>167</ele>
        <time>2024-09-20T09:00:25Z</time>
      </trkpt>
      <trkpt lat="45.83521" lon="4.83778">
        <ele>167</ele>
        <time>2024-09-20T09:00:26Z</time>
      </trkpt>
      <trkpt lat="45.8352" lon="4.83782">
        <ele>167</ele>
        <time>2024-09-20T09:00:27Z</time>
      </trkpt>
      <trkpt lat="45.83518" lon="4.83786">
        <ele>167</ele>
        <time>2024-09-20T09:00:28Z</time>
      </trkpt>
      <trkpt lat="45.83517" lon="4.8379">
        <ele>167</ele>
        <time>2024-09-20T09:00:29Z</time>
      </trkpt>
      <trkpt lat="45.83515" lon="4.83795">
        <ele>166.8</ele>
        <time>2024-09-20T09:00:30Z</time>
      </trkpt>
      <trkpt lat="45.83514" lon="4.838">
        <ele>166.8</ele>
        <time>2024-09-20T09:00:31Z</time>
      </trkpt>
      <trkpt lat="45.83512" lon="4.83804">
        <ele>166.8</ele>
        <time>2024-09-20T09:00:32Z</time>
      </trkpt>
      <trkpt lat="45.8351" lon="4.83809">
        <ele>166.8</ele>
        <time>2024-09-20T09:00:33Z</time>
      </trkpt>
      <trkpt lat="45.83509" lon="4.83814">
        <ele>167</ele>
        <time>2024-09-20T09:00:34Z</time>
      </trkpt>
      <trkpt lat="45.83507" lon="4.83819">
        <ele>167</ele>
        <time>2024-09-20T09:00:35Z</time>
      </trkpt>
      <trkpt lat="45.83505" lon="4.83824">
        <ele>167</ele>
        <time>2024-09-20T09:00:36Z</time>
      </trkpt>
      <trkpt lat="45.83504" lon="4.83828">
        <ele>167</ele>
        <time>2024-09-20T09:00:37Z</time>
      </trkpt>
      <trkpt lat="45.83503" lon="4.83833">
        <ele>167</ele>
        <time>2024-09-20T09:00:38Z</time>
      </trkpt>
      <trkpt lat="45.83502" lon="4.83837">
        <ele>166.8</ele>
        <time>2024-09-20T09:00:39Z</time>
      </trkpt>
      <trkpt lat="45.83502" lon="4.83843">
        <ele>166.8</ele>
        <time>2024-09-20T09:00:40Z</time>
      </trkpt>
      <trkpt lat="45.83501" lon="4.83848">
        <ele>166.8</ele>
        <time>2024-09-20T09:00:41Z</time>
      </trkpt>
      <trkpt lat="45.835" lon="4.83853">
        <ele>166.8</ele>
        <time>2024-09-20T09:00:42Z</time>
      </trkpt>
      <trkpt lat="45.83499" lon="4.83858">
        <ele>166.8</ele>
        <time>2024-09-20T09:00:43Z</time>
      </trkpt>
      <trkpt lat="45.83497" lon="4.83863">
        <ele>166.8</ele>
        <time>2024-09-20T09:00:44Z</time>
      </trkpt>
      <trkpt lat="45.83496" lon="4.83869">
        <ele>166.8</ele>
        <time>2024-09-20T09:00:45Z</time>
      </trkpt>
      <trkpt lat="45.83495" lon="4.83873">
        <ele>166.8</ele>
        <time>2024-09-20T09:00:46Z</time>
      </trkpt>
      <trkpt lat="45.83494" lon="4.83879">
        <ele>167</ele>
        <time>2024-09-20T09:00:47Z</time>
      </trkpt>
      <trkpt lat="45.83493" lon="4.83884">
        <ele>167</ele>
        <time>2024-09-20T09:00:48Z</time>
      </trkpt>
      <trkpt lat="45.83491" lon="4.8389">
        <ele>167</ele>
        <time>2024-09-20T09:00:49Z</time>
      </trkpt>
      <trkpt lat="45.8349" lon="4.83895">
        <ele>167</ele>
        <time>2024-09-20T09:00:50Z</time>
      </trkpt>
      <trkpt lat="45.83488" lon="4.839">
        <ele>167</ele>
        <time>2024-09-20T09:00:51Z</time>
      </trkpt>
      <trkpt lat="45.83487" lon="4.83905">
        <ele>167</ele>
        <time>2024-09-20T09:00:52Z</time>
      </trkpt>
      <trkpt lat="45.83485" lon="4.83911">
        <ele>167</ele>
        <time>2024-09-20T09:00:53Z</time>
      </trkpt>
      <trkpt lat="45.83484" lon="4.83916">
        <ele>167</ele>
        <time>2024-09-20T09:00:54Z</time>
      </trkpt>
      <trkpt lat="45.83483" lon="4.83922">
        <ele>167</ele>
        <time>2024-09-20T09:00:55Z</time>
      </trkpt>
      <trkpt lat="45.83481" lon="4.83927">
        <ele>167.2</ele>
        <time>2024-09-20T09:00:56Z</time>
      </trkpt>
      <trkpt lat="45.83479" lon="4.83933">
        <ele>167.2</ele>
        <time>2024-09-20T09:00:57Z</time>
      </trkpt>
      <trkpt lat="45.83478" lon="4.83938">
        <ele>167.2</ele>
        <time>2024-09-20T09:00:58Z</time>
      </trkpt>
      <trkpt lat="45.83476" lon="4.83944">
        <ele>167.2</ele>
        <time>2024-09-20T09:00:59Z</time>
      </trkpt>
      <trkpt lat="45.83475" lon="4.8395">
        <ele>167.2</ele>
        <time>2024-09-20T09:01:00Z</time>
      </trkpt>
      <trkpt lat="45.83474" lon="4.83955">
        <ele>167.2</ele>
        <time>2024-09-20T09:01:01Z</time>
      </trkpt>
      <trkpt lat="45.83473" lon="4.83961">
        <ele>167.2</ele>
        <time>2024-09-20T09:01:02Z</time>
      </trkpt>
      <trkpt lat="45.83471" lon="4.83967">
        <ele>167.2</ele>
        <time>2024-09-20T09:01:03Z</time>
      </trkpt>
      <trkpt lat="45.8347" lon="4.83972">
        <ele>167.2</ele>
        <time>2024-09-20T09:01:04Z</time>
      </trkpt>
      <trkpt lat="45.83469" lon="4.83978">
        <ele>167</ele>
        <time>2024-09-20T09:01:05Z</time>
      </trkpt>
      <trkpt lat="45.83468" lon="4.83985">
        <ele>167.2</ele>
        <time>2024-09-20T09:01:06Z</time>
      </trkpt>
      <trkpt lat="45.83466" lon="4.83991">
        <ele>167.2</ele>
        <time>2024-09-20T09:01:07Z</time>
      </trkpt>
      <trkpt lat="45.83465" lon="4.83997">
        <ele>167.2</ele>
        <time>2024-09-20T09:01:08Z</time>
      </trkpt>
      <trkpt lat="45.83464" lon="4.84003">
        <ele>167.2</ele>
        <time>2024-09-20T09:01:09Z</time>
      </trkpt>
      <trkpt lat="45.83462" lon="4.84008">
        <ele>167.2</ele>
        <time>2024-09-20T09:01:10Z</time>
      </trkpt>
      <trkpt lat="45.83461" lon="4.84014">
        <ele>167.2</ele>
        <time>2024-09-20T09:01:11Z</time>
      </trkpt>
      <trkpt lat="45.83459" lon="4.84021">
        <ele>167.2</ele>
        <time>2024-09-20T09:01:12Z</time>
      </trkpt>
      <trkpt lat="45.83458" lon="4.84027">
        <ele>167.2</ele>
        <time>2024-09-20T09:01:13Z</time>
      </trkpt>
      <trkpt lat="45.83457" lon="4.84033">
        <ele>167.2</ele>
        <time>2024-09-20T09:01:14Z</time>
      </trkpt>
      <trkpt lat="45.83455" lon="4.84039">
        <ele>167.2</ele>
        <time>2024-09-20T09:01:15Z</time>
      </trkpt>
      <trkpt lat="45.83454" lon="4.84045">
        <ele>167.2</ele>
        <time>2024-09-20T09:01:16Z</time>
      </trkpt>
      <trkpt lat="45.83452" lon="4.84052">
        <ele>167.2</ele>
        <time>2024-09-20T09:01:17Z</time>
      </trkpt>
      <trkpt lat="45.83451" lon="4.84058">
        <ele>167.2</ele>
        <time>2024-09-20T09:01:18Z</time>
      </trkpt>
      <trkpt lat="45.83449" lon="4.84064">
        <ele>167.2</ele>
        <time>2024-09-20T09:01:19Z</time>
      </trkpt>
      <trkpt lat="45.83447" lon="4.8407">
        <ele>167</ele>
        <time>2024-09-20T09:01:20Z</time>
      </trkpt>
      <trkpt lat="45.83446" lon="4.84076">
        <ele>167</ele>
        <time>2024-09-20T09:01:21Z</time>
      </trkpt>
      <trkpt lat="45.83445" lon="4.84082">
        <ele>167</ele>
        <time>2024-09-20T09:01:22Z</time>
      </trkpt>
      <trkpt lat="45.83443" lon="4.84088">
        <ele>167</ele>
        <time>2024-09-20T09:01:23Z</time>
      </trkpt>
      <trkpt lat="45.83441" lon="4.84093">
        <ele>166.8</ele>
        <time>2024-09-20T09:01:24Z</time>
      </trkpt>
      <trkpt lat="45.83439" lon="4.84098">
        <ele>166.8</ele>
        <time>2024-09-20T09:01:25Z</time>
      </trkpt>
      <trkpt lat="45.83438" lon="4.84104">
        <ele>166.8</ele>
        <time>2024-09-20T09:01:26Z</time>
      </trkpt>
      <trkpt lat="45.83436" lon="4.84109">
        <ele>167.4</ele>
        <time>2024-09-20T09:01:27Z</time>
      </trkpt>
      <trkpt lat="45.83435" lon="4.84115">
        <ele>167.4</ele>
        <time>2024-09-20T09:01:28Z</time>
      </trkpt>
      <trkpt lat="45.83435" lon="4.8412">
        <ele>167.6</ele>
        <time>2024-09-20T09:01:29Z</time>
      </trkpt>
      <trkpt lat="45.83434" lon="4.84125">
        <ele>167.6</ele>
        <time>2024-09-20T09:01:30Z</time>
      </trkpt>
      <trkpt lat="45.83433" lon="4.84131">
        <ele>167.6</ele>
        <time>2024-09-20T09:01:31Z</time>
      </trkpt>
      <trkpt lat="45.83432" lon="4.84136">
        <ele>167.8</ele>
        <time>2024-09-20T09:01:32Z</time>
      </trkpt>
      <trkpt lat="45.83431" lon="4.84141">
        <ele>167.8</ele>
        <time>2024-09-20T09:01:33Z</time>
      </trkpt>
      <trkpt lat="45.8343" lon="4.84145">
        <ele>168</ele>
        <time>2024-09-20T09:01:34Z</time>
      </trkpt>
      <trkpt lat="45.8343" lon="4.84149">
        <ele>168</ele>
        <time>2024-09-20T09:01:35Z</time>
      </trkpt>
      <trkpt lat="45.83429" lon="4.84154">
        <ele>168</ele>
        <time>2024-09-20T09:01:36Z</time>
      </trkpt>
      <trkpt lat="45.83428" lon="4.84157">
        <ele>168.4</ele>
        <time>2024-09-20T09:01:37Z</time>
      </trkpt>
      <trkpt lat="45.83428" lon="4.84162">
        <ele>168.6</ele>
        <time>2024-09-20T09:01:38Z</time>
      </trkpt>
      <trkpt lat="45.83427" lon="4.84165">
        <ele>168.6</ele>
        <time>2024-09-20T09:01:39Z</time>
      </trkpt>
      <trkpt lat="45.83426" lon="4.84169">
        <ele>168.6</ele>
        <time>2024-09-20T09:01:40Z</time>
      </trkpt>
      <trkpt lat="45.83424" lon="4.84173">
        <ele>168.8</ele>
        <time>2024-09-20T09:01:41Z</time>
      </trkpt>
      <trkpt lat="45.83423" lon="4.84178">
        <ele>168.8</ele>
        <time>2024-09-20T09:01:42Z</time>
      </trkpt>
      <trkpt lat="45.83422" lon="4.84181">
        <ele>168.8</ele>
        <time>2024-09-20T09:01:43Z</time>
      </trkpt>
      <trkpt lat="45.83421" lon="4.84184">
        <ele>168.8</ele>
        <time>2024-09-20T09:01:44Z</time>
      </trkpt>
      <trkpt lat="45.83422" lon="4.84187">
        <ele>168.8</ele>
        <time>2024-09-20T09:01:45Z</time>
      </trkpt>
      <trkpt lat="45.83422" lon="4.84189">
        <ele>169.2</ele>
        <time>2024-09-20T09:01:46Z</time>
      </trkpt>
      <trkpt lat="45.83422" lon="4.84192">
        <ele>169.6</ele>
        <time>2024-09-20T09:01:47Z</time>
      </trkpt>
      <trkpt lat="45.83422" lon="4.84194">
        <ele>169.6</ele>
        <time>2024-09-20T09:01:48Z</time>
      </trkpt>
      <trkpt lat="45.83422" lon="4.84197">
        <ele>169.6</ele>
        <time>2024-09-20T09:01:49Z</time>
      </trkpt>
      <trkpt lat="45.83421" lon="4.842">
        <ele>170.2</ele>
        <time>2024-09-20T09:01:50Z</time>
      </trkpt>
      <trkpt lat="45.83421" lon="4.84203">
        <ele>170.4</ele>
        <time>2024-09-20T09:01:51Z</time>
      </trkpt>
      <trkpt lat="45.83421" lon="4.84206">
        <ele>170.4</ele>
        <time>2024-09-20T09:01:52Z</time>
      </trkpt>
      <trkpt lat="45.8342" lon="4.84208">
        <ele>170.4</ele>
        <time>2024-09-20T09:01:53Z</time>
      </trkpt>
      <trkpt lat="45.8342" lon="4.84211">
        <ele>171</ele>
        <time>2024-09-20T09:01:54Z</time>
      </trkpt>
      <trkpt lat="45.83419" lon="4.84213">
        <ele>171</ele>
        <time>2024-09-20T09:01:55Z</time>
      </trkpt>
      <trkpt lat="45.83419" lon="4.84216">
        <ele>171</ele>
        <time>2024-09-20T09:01:56Z</time>
      </trkpt>
      <trkpt lat="45.83418" lon="4.84219">
        <ele>171</ele>
        <time>2024-09-20T09:01:57Z</time>
      </trkpt>
      <trkpt lat="45.83418" lon="4.84223">
        <ele>171</ele>
        <time>2024-09-20T09:01:58Z</time>
      </trkpt>
      <trkpt lat="45.83417" lon="4.84227">
        <ele>171.2</ele>
        <time>2024-09-20T09:01:59Z</time>
      </trkpt>
      <trkpt lat="45.83416" lon="4.84232">
        <ele>171.2</ele>
        <time>2024-09-20T09:02:00Z</time>
      </trkpt>
      <trkpt lat="45.83415" lon="4.84236">
        <ele>171.2</ele>
        <time>2024-09-20T09:02:01Z</time>
      </trkpt>
      <trkpt lat="45.83415" lon="4.84241">
        <ele>171.2</ele>
        <time>2024-09-20T09:02:02Z</time>
      </trkpt>
      <trkpt lat="45.83413" lon="4.84246">
        <ele>171.6</ele>
        <time>2024-09-20T09:02:03Z</time>
      </trkpt>
      <trkpt lat="45.83412" lon="4.84251">
        <ele>171.4</ele>
        <time>2024-09-20T09:02:04Z</time>
      </trkpt>
      <trkpt lat="45.83411" lon="4.84256">
        <ele>171.4</ele>
        <time>2024-09-20T09:02:05Z</time>
      </trkpt>
      <trkpt lat="45.83409" lon="4.8426">
        <ele>171.4</ele>
        <time>2024-09-20T09:02:06Z</time>
      </trkpt>
      <trkpt lat="45.83407" lon="4.84265">
        <ele>171.4</ele>
        <time>2024-09-20T09:02:07Z</time>
      </trkpt>
      <trkpt lat="45.83406" lon="4.8427">
        <ele>171.4</ele>
        <time>2024-09-20T09:02:08Z</time>
      </trkpt>
      <trkpt lat="45.83404" lon="4.84276">
        <ele>171.4</ele>
        <time>2024-09-20T09:02:09Z</time>
      </trkpt>
      <trkpt lat="45.83402" lon="4.84281">
        <ele>171.4</ele>
        <time>2024-09-20T09:02:10Z</time>
      </trkpt>
      <trkpt lat="45.834" lon="4.84286">
        <ele>171.4</ele>
        <time>2024-09-20T09:02:11Z</time>
      </trkpt>
      <trkpt lat="45.83399" lon="4.84292">
        <ele>171.4</ele>
        <time>2024-09-20T09:02:12Z</time>
      </trkpt>
      <trkpt lat="45.83397" lon="4.84297">
        <ele>171.4</ele>
        <time>2024-09-20T09:02:13Z</time>
      </trkpt>
      <trkpt lat="45.83396" lon="4.84303">
        <ele>171.4</ele>
        <time>2024-09-20T09:02:14Z</time>
      </trkpt>
      <trkpt lat="45.83394" lon="4.84309">
        <ele>171.4</ele>
        <time>2024-09-20T09:02:15Z</time>
      </trkpt>
      <trkpt lat="45.83392" lon="4.84315">
        <ele>171.4</ele>
        <time>2024-09-20T09:02:16Z</time>
      </trkpt>
      <trkpt lat="45.8339" lon="4.84321">
        <ele>171.4</ele>
        <time>2024-09-20T09:02:17Z</time>
      </trkpt>
      <trkpt lat="45.83388" lon="4.84327">
        <ele>171.4</ele>
        <time>2024-09-20T09:02:18Z</time>
      </trkpt>
      <trkpt lat="45.83386" lon="4.84333">
        <ele>171.4</ele>
        <time>2024-09-20T09:02:19Z</time>
      </trkpt>
      <trkpt lat="45.83385" lon="4.84339">
        <ele>171.4</ele>
        <time>2024-09-20T09:02:20Z</time>
      </trkpt>
      <trkpt lat="45.83383" lon="4.84345">
        <ele>171.4</ele>
        <time>2024-09-20T09:02:21Z</time>
      </trkpt>
      <trkpt lat="45.83381" lon="4.8435">
        <ele>171.4</ele>
        <time>2024-09-20T09:02:22Z</time>
      </trkpt>
      <trkpt lat="45.8338" lon="4.84355">
        <ele>171.4</ele>
        <time>2024-09-20T09:02:23Z</time>
      </trkpt>
      <trkpt lat="45.83378" lon="4.8436">
        <ele>171.4</ele>
        <time>2024-09-20T09:02:24Z</time>
      </trkpt>
      <trkpt lat="45.83377" lon="4.84365">
        <ele>171.4</ele>
        <time>2024-09-20T09:02:25Z</time>
      </trkpt>
      <trkpt lat="45.83375" lon="4.8437">
        <ele>171.4</ele>
        <time>2024-09-20T09:02:26Z</time>
      </trkpt>
      <trkpt lat="45.83373" lon="4.84376">
        <ele>171.4</ele>
        <time>2024-09-20T09:02:27Z</time>
      </trkpt>
      <trkpt lat="45.83372" lon="4.84382">
        <ele>171.4</ele>
        <time>2024-09-20T09:02:28Z</time>
      </trkpt>
      <trkpt lat="45.8337" lon="4.84388">
        <ele>171.4</ele>
        <time>2024-09-20T09:02:29Z</time>
      </trkpt>
      <trkpt lat="45.83368" lon="4.84394">
        <ele>171.4</ele>
        <time>2024-09-20T09:02:30Z</time>
      </trkpt>
      <trkpt lat="45.83366" lon="4.844">
        <ele>171.6</ele>
        <time>2024-09-20T09:02:31Z</time>
      </trkpt>
      <trkpt lat="45.83365" lon="4.84407">
        <ele>171.6</ele>
        <time>2024-09-20T09:02:32Z</time>
      </trkpt>
      <trkpt lat="45.83363" lon="4.84413">
        <ele>171.6</ele>
        <time>2024-09-20T09:02:33Z</time>
      </trkpt>
      <trkpt lat="45.83361" lon="4.84419">
        <ele>171.6</ele>
        <time>2024-09-20T09:02:34Z</time>
      </trkpt>
      <trkpt lat="45.8336" lon="4.84425">
        <ele>171.4</ele>
        <time>2024-09-20T09:02:35Z</time>
      </trkpt>
      <trkpt lat="45.83358" lon="4.84432">
        <ele>171.4</ele>
        <time>2024-09-20T09:02:36Z</time>
      </trkpt>
      <trkpt lat="45.83357" lon="4.84438">
        <ele>171.2</ele>
        <time>2024-09-20T09:02:37Z</time>
      </trkpt>
      <trkpt lat="45.83355" lon="4.84444">
        <ele>171.2</ele>
        <time>2024-09-20T09:02:38Z</time>
      </trkpt>
      <trkpt lat="45.83353" lon="4.8445">
        <ele>171</ele>
        <time>2024-09-20T09:02:39Z</time>
      </trkpt>
      <trkpt lat="45.83352" lon="4.84456">
        <ele>170.6</ele>
        <time>2024-09-20T09:02:40Z</time>
      </trkpt>
      <trkpt lat="45.8335" lon="4.84462">
        <ele>170.6</ele>
        <time>2024-09-20T09:02:41Z</time>
      </trkpt>
      <trkpt lat="45.83348" lon="4.84468">
        <ele>170.6</ele>
        <time>2024-09-20T09:02:42Z</time>
      </trkpt>
      <trkpt lat="45.83347" lon="4.84474">
        <ele>170.6</ele>
        <time>2024-09-20T09:02:43Z</time>
      </trkpt>
      <trkpt lat="45.83345" lon="4.8448">
        <ele>170.6</ele>
        <time>2024-09-20T09:02:44Z</time>
      </trkpt>
      <trkpt lat="45.83343" lon="4.84486">
        <ele>170.8</ele>
        <time>2024-09-20T09:02:45Z</time>
      </trkpt>
      <trkpt lat="45.83341" lon="4.84492">
        <ele>170.8</ele>
        <time>2024-09-20T09:02:46Z</time>
      </trkpt>
      <trkpt lat="45.8334" lon="4.84499">
        <ele>170.8</ele>
        <time>2024-09-20T09:02:47Z</time>
      </trkpt>
      <trkpt lat="45.83338" lon="4.84505">
        <ele>171.2</ele>
        <time>2024-09-20T09:02:48Z</time>
      </trkpt>
      <trkpt lat="45.83336" lon="4.84511">
        <ele>171</ele>
        <time>2024-09-20T09:02:49Z</time>
      </trkpt>
      <trkpt lat="45.83334" lon="4.84518">
        <ele>171</ele>
        <time>2024-09-20T09:02:50Z</time>
      </trkpt>
      <trkpt lat="45.83332" lon="4.84524">
        <ele>171</ele>
        <time>2024-09-20T09:02:51Z</time>
      </trkpt>
      <trkpt lat="45.83331" lon="4.8453">
        <ele>171</ele>
        <time>2024-09-20T09:02:52Z</time>
      </trkpt>
      <trkpt lat="45.83329" lon="4.84536">
        <ele>170.6</ele>
        <time>2024-09-20T09:02:53Z</time>
      </trkpt>
      <trkpt lat="45.83327" lon="4.84543">
        <ele>170.6</ele>
        <time>2024-09-20T09:02:54Z</time>
      </trkpt>
      <trkpt lat="45.83325" lon="4.84549">
        <ele>170.6</ele>
        <time>2024-09-20T09:02:55Z</time>
      </trkpt>
      <trkpt lat="45.83324" lon="4.84555">
        <ele>170.6</ele>
        <time>2024-09-20T09:02:56Z</time>
      </trkpt>
      <trkpt lat="45.83322" lon="4.84562">
        <ele>170.6</ele>
        <time>2024-09-20T09:02:57Z</time>
      </trkpt>
      <trkpt lat="45.83321" lon="4.84568">
        <ele>170.6</ele>
        <time>2024-09-20T09:02:58Z</time>
      </trkpt>
      <trkpt lat="45.83319" lon="4.84574">
        <ele>170.6</ele>
        <time>2024-09-20T09:02:59Z</time>
      </trkpt>
      <trkpt lat="45.83317" lon="4.8458">
        <ele>170.6</ele>
        <time>2024-09-20T09:03:00Z</time>
      </trkpt>
      <trkpt lat="45.83316" lon="4.84587">
        <ele>170.6</ele>
        <time>2024-09-20T09:03:01Z</time>
      </trkpt>
      <trkpt lat="45.83314" lon="4.84593">
        <ele>170.6</ele>
        <time>2024-09-20T09:03:02Z</time>
      </trkpt>
      <trkpt lat="45.83313" lon="4.84599">
        <ele>170.2</ele>
        <time>2024-09-20T09:03:03Z</time>
      </trkpt>
      <trkpt lat="45.83311" lon="4.84607">
        <ele>170.2</ele>
        <time>2024-09-20T09:03:04Z</time>
      </trkpt>
      <trkpt lat="45.83309" lon="4.84615">
        <ele>170.2</ele>
        <time>2024-09-20T09:03:05Z</time>
      </trkpt>
      <trkpt lat="45.83307" lon="4.84623">
        <ele>169.4</ele>
        <time>2024-09-20T09:03:06Z</time>
      </trkpt>
      <trkpt lat="45.83305" lon="4.8463">
        <ele>169.4</ele>
        <time>2024-09-20T09:03:07Z</time>
      </trkpt>
      <trkpt lat="45.83303" lon="4.84639">
        <ele>169.4</ele>
        <time>2024-09-20T09:03:08Z</time>
      </trkpt>
      <trkpt lat="45.83301" lon="4.84647">
        <ele>169.4</ele>
        <time>2024-09-20T09:03:09Z</time>
      </trkpt>
      <trkpt lat="45.83299" lon="4.84655">
        <ele>169.4</ele>
        <time>2024-09-20T09:03:10Z</time>
      </trkpt>
      <trkpt lat="45.83297" lon="4.84663">
        <ele>169.2</ele>
        <time>2024-09-20T09:03:11Z</time>
      </trkpt>
      <trkpt lat="45.83295" lon="4.84671">
        <ele>169</ele>
        <time>2024-09-20T09:03:12Z</time>
      </trkpt>
      <trkpt lat="45.83293" lon="4.84679">
        <ele>169</ele>
        <time>2024-09-20T09:03:13Z</time>
      </trkpt>
      <trkpt lat="45.83291" lon="4.84687">
        <ele>169</ele>
        <time>2024-09-20T09:03:14Z</time>
      </trkpt>
      <trkpt lat="45.83288" lon="4.84694">
        <ele>169</ele>
        <time>2024-09-20T09:03:15Z</time>
      </trkpt>
      <trkpt lat="45.83286" lon="4.84702">
        <ele>169</ele>
        <time>2024-09-20T09:03:16Z</time>
      </trkpt>
      <trkpt lat="45.83284" lon="4.8471">
        <ele>169</ele>
        <time>2024-09-20T09:03:17Z</time>
      </trkpt>
      <trkpt lat="45.83282" lon="4.84717">
        <ele>169</ele>
        <time>2024-09-20T09:03:18Z</time>
      </trkpt>
      <trkpt lat="45.83279" lon="4.84724">
        <ele>169</ele>
        <time>2024-09-20T09:03:19Z</time>
      </trkpt>
      <trkpt lat="45.83277" lon="4.84731">
        <ele>169</ele>
        <time>2024-09-20T09:03:20Z</time>
      </trkpt>
      <trkpt lat="45.83275" lon="4.84737">
        <ele>169.2</ele>
        <time>2024-09-20T09:03:21Z</time>
      </trkpt>
      <trkpt lat="45.83273" lon="4.84743">
        <ele>169.2</ele>
        <time>2024-09-20T09:03:22Z</time>
      </trkpt>
      <trkpt lat="45.83271" lon="4.84749">
        <ele>169.2</ele>
        <time>2024-09-20T09:03:23Z</time>
      </trkpt>
      <trkpt lat="45.8327" lon="4.84756">
        <ele>169.2</ele>
        <time>2024-09-20T09:03:24Z</time>
      </trkpt>
      <trkpt lat="45.83268" lon="4.84761">
        <ele>169.8</ele>
        <time>2024-09-20T09:03:25Z</time>
      </trkpt>
      <trkpt lat="45.83266" lon="4.84767">
        <ele>169.8</ele>
        <time>2024-09-20T09:03:26Z</time>
      </trkpt>
      <trkpt lat="45.83265" lon="4.84773">
        <ele>169.8</ele>
        <time>2024-09-20T09:03:27Z</time>
      </trkpt>
      <trkpt lat="45.83264" lon="4.84779">
        <ele>169.8</ele>
        <time>2024-09-20T09:03:28Z</time>
      </trkpt>
      <trkpt lat="45.83262" lon="4.84785">
        <ele>170.4</ele>
        <time>2024-09-20T09:03:29Z</time>
      </trkpt>
      <trkpt lat="45.83261" lon="4.8479">
        <ele>170.4</ele>
        <time>2024-09-20T09:03:30Z</time>
      </trkpt>
      <trkpt lat="45.83259" lon="4.84795">
        <ele>170.4</ele>
        <time>2024-09-20T09:03:31Z</time>
      </trkpt>
      <trkpt lat="45.83257" lon="4.848">
        <ele>170.4</ele>
        <time>2024-09-20T09:03:32Z</time>
      </trkpt>
      <trkpt lat="45.83255" lon="4.84805">
        <ele>170.8</ele>
        <time>2024-09-20T09:03:33Z</time>
      </trkpt>
      <trkpt lat="45.83253" lon="4.8481">
        <ele>171</ele>
        <time>2024-09-20T09:03:34Z</time>
      </trkpt>
      <trkpt lat="45.83251" lon="4.84814">
        <ele>171</ele>
        <time>2024-09-20T09:03:35Z</time>
      </trkpt>
      <trkpt lat="45.83249" lon="4.84819">
        <ele>171</ele>
        <time>2024-09-20T09:03:36Z</time>
      </trkpt>
      <trkpt lat="45.83247" lon="4.84823">
        <ele>171</ele>
        <time>2024-09-20T09:03:37Z</time>
      </trkpt>
      <trkpt lat="45.83245" lon="4.84828">
        <ele>171.4</ele>
        <time>2024-09-20T09:03:38Z</time>
      </trkpt>
      <trkpt lat="45.83244" lon="4.84832">
        <ele>171.4</ele>
        <time>2024-09-20T09:03:39Z</time>
      </trkpt>
      <trkpt lat="45.83242" lon="4.84837">
        <ele>171.4</ele>
        <time>2024-09-20T09:03:40Z</time>
      </trkpt>
      <trkpt lat="45.83241" lon="4.84842">
        <ele>171.6</ele>
        <time>2024-09-20T09:03:41Z</time>
      </trkpt>
      <trkpt lat="45.83239" lon="4.84846">
        <ele>171.8</ele>
        <time>2024-09-20T09:03:42Z</time>
      </trkpt>
      <trkpt lat="45.83238" lon="4.84851">
        <ele>171.8</ele>
        <time>2024-09-20T09:03:43Z</time>
      </trkpt>
      <trkpt lat="45.83236" lon="4.84854">
        <ele>171.8</ele>
        <time>2024-09-20T09:03:44Z</time>
      </trkpt>
      <trkpt lat="45.83235" lon="4.84858">
        <ele>171.8</ele>
        <time>2024-09-20T09:03:45Z</time>
      </trkpt>
      <trkpt lat="45.83233" lon="4.8486">
        <ele>171.8</ele>
        <time>2024-09-20T09:03:46Z</time>
      </trkpt>
      <trkpt lat="45.83231" lon="4.8486">
        <ele>172.2</ele>
        <time>2024-09-20T09:03:47Z</time>
      </trkpt>
      <trkpt lat="45.8323" lon="4.84859">
        <ele>172.2</ele>
        <time>2024-09-20T09:03:48Z</time>
      </trkpt>
      <trkpt lat="45.83228" lon="4.84857">
        <ele>172.2</ele>
        <time>2024-09-20T09:03:49Z</time>
      </trkpt>
      <trkpt lat="45.83226" lon="4.84855">
        <ele>172.2</ele>
        <time>2024-09-20T09:03:50Z</time>
      </trkpt>
      <trkpt lat="45.83224" lon="4.84853">
        <ele>172.2</ele>
        <time>2024-09-20T09:03:51Z</time>
      </trkpt>
      <trkpt lat="45.83222" lon="4.8485">
        <ele>172.6</ele>
        <time>2024-09-20T09:03:52Z</time>
      </trkpt>
      <trkpt lat="45.8322" lon="4.84848">
        <ele>172.6</ele>
        <time>2024-09-20T09:03:53Z</time>
      </trkpt>
      <trkpt lat="45.83217" lon="4.84845">
        <ele>172.6</ele>
        <time>2024-09-20T09:03:54Z</time>
      </trkpt>
      <trkpt lat="45.83215" lon="4.84843">
        <ele>172.6</ele>
        <time>2024-09-20T09:03:55Z</time>
      </trkpt>
      <trkpt lat="45.83212" lon="4.84841">
        <ele>173</ele>
        <time>2024-09-20T09:03:56Z</time>
      </trkpt>
      <trkpt lat="45.8321" lon="4.84838">
        <ele>173</ele>
        <time>2024-09-20T09:03:57Z</time>
      </trkpt>
      <trkpt lat="45.83208" lon="4.84836">
        <ele>173</ele>
        <time>2024-09-20T09:03:58Z</time>
      </trkpt>
      <trkpt lat="45.83206" lon="4.84834">
        <ele>173</ele>
        <time>2024-09-20T09:03:59Z</time>
      </trkpt>
      <trkpt lat="45.83203" lon="4.84831">
        <ele>173.4</ele>
        <time>2024-09-20T09:04:00Z</time>
      </trkpt>
      <trkpt lat="45.83201" lon="4.84829">
        <ele>173.4</ele>
        <time>2024-09-20T09:04:01Z</time>
      </trkpt>
      <trkpt lat="45.83198" lon="4.84827">
        <ele>173.6</ele>
        <time>2024-09-20T09:04:02Z</time>
      </trkpt>
      <trkpt lat="45.83195" lon="4.84824">
        <ele>173.6</ele>
        <time>2024-09-20T09:04:03Z</time>
      </trkpt>
      <trkpt lat="45.83192" lon="4.84822">
        <ele>173.6</ele>
        <time>2024-09-20T09:04:04Z</time>
      </trkpt>
      <trkpt lat="45.83188" lon="4.84818">
        <ele>173.6</ele>
        <time>2024-09-20T09:04:05Z</time>
      </trkpt>
      <trkpt lat="45.83186" lon="4.84815">
        <ele>174</ele>
        <time>2024-09-20T09:04:06Z</time>
      </trkpt>
      <trkpt lat="45.83183" lon="4.84813">
        <ele>174</ele>
        <time>2024-09-20T09:04:07Z</time>
      </trkpt>
      <trkpt lat="45.8318" lon="4.8481">
        <ele>174</ele>
        <time>2024-09-20T09:04:08Z</time>
      </trkpt>
      <trkpt lat="45.83177" lon="4.84807">
        <ele>174.6</ele>
        <time>2024-09-20T09:04:09Z</time>
      </trkpt>
      <trkpt lat="45.83174" lon="4.84804">
        <ele>174.6</ele>
        <time>2024-09-20T09:04:10Z</time>
      </trkpt>
      <trkpt lat="45.83171" lon="4.84801">
        <ele>174.6</ele>
        <time>2024-09-20T09:04:11Z</time>
      </trkpt>
      <trkpt lat="45.83169" lon="4.84798">
        <ele>174.6</ele>
        <time>2024-09-20T09:04:12Z</time>
      </trkpt>
      <trkpt lat="45.83167" lon="4.84796">
        <ele>174.6</ele>
        <time>2024-09-20T09:04:13Z</time>
      </trkpt>
      <trkpt lat="45.83165" lon="4.84795">
        <ele>174.6</ele>
        <time>2024-09-20T09:04:14Z</time>
      </trkpt>
      <trkpt lat="45.83164" lon="4.84793">
        <ele>174.6</ele>
        <time>2024-09-20T09:04:15Z</time>
      </trkpt>
      <trkpt lat="45.83163" lon="4.84792">
        <ele>174.6</ele>
        <time>2024-09-20T09:04:16Z</time>
      </trkpt>
      <trkpt lat="45.83163" lon="4.84792">
        <ele>174.6</ele>
        <time>2024-09-20T09:04:17Z</time>
      </trkpt>
      <trkpt lat="45.83163" lon="4.84792">
        <ele>174.6</ele>
        <time>2024-09-20T09:04:18Z</time>
      </trkpt>
      <trkpt lat="45.83159" lon="4.84789">
        <ele>174.4</ele>
        <time>2024-09-20T09:04:53Z</time>
      </trkpt>
      <trkpt lat="45.83157" lon="4.84787">
        <ele>174.4</ele>
        <time>2024-09-20T09:04:54Z</time>
      </trkpt>
      <trkpt lat="45.83154" lon="4.84784">
        <ele>174.4</ele>
        <time>2024-09-20T09:04:55Z</time>
      </trkpt>
      <trkpt lat="45.83152" lon="4.84782">
        <ele>174.4</ele>
        <time>2024-09-20T09:04:56Z</time>
      </trkpt>
      <trkpt lat="45.83149" lon="4.84779">
        <ele>174.4</ele>
        <time>2024-09-20T09:04:57Z</time>
      </trkpt>
      <trkpt lat="45.83145" lon="4.84776">
        <ele>174.4</ele>
        <time>2024-09-20T09:04:58Z</time>
      </trkpt>
      <trkpt lat="45.83142" lon="4.84772">
        <ele>174</ele>
        <time>2024-09-20T09:04:59Z</time>
      </trkpt>
      <trkpt lat="45.83138" lon="4.84768">
        <ele>173.8</ele>
        <time>2024-09-20T09:05:00Z</time>
      </trkpt>
      <trkpt lat="45.83135" lon="4.84764">
        <ele>173.8</ele>
        <time>2024-09-20T09:05:01Z</time>
      </trkpt>
      <trkpt lat="45.83131" lon="4.8476">
        <ele>173.8</ele>
        <time>2024-09-20T09:05:02Z</time>
      </trkpt>
      <trkpt lat="45.83127" lon="4.84756">
        <ele>173.2</ele>
        <time>2024-09-20T09:05:03Z</time>
      </trkpt>
      <trkpt lat="45.83124" lon="4.84753">
        <ele>173</ele>
        <time>2024-09-20T09:05:04Z</time>
      </trkpt>
      <trkpt lat="45.83121" lon="4.8475">
        <ele>173</ele>
        <time>2024-09-20T09:05:05Z</time>
      </trkpt>
      <trkpt lat="45.83119" lon="4.84747">
        <ele>173</ele>
        <time>2024-09-20T09:05:06Z</time>
      </trkpt>
      <trkpt lat="45.83118" lon="4.84744">
        <ele>172.4</ele>
        <time>2024-09-20T09:05:07Z</time>
      </trkpt>
      <trkpt lat="45.83117" lon="4.84741">
        <ele>172.4</ele>
        <time>2024-09-20T09:05:08Z</time>
      </trkpt>
      <trkpt lat="45.83116" lon="4.84738">
        <ele>172.4</ele>
        <time>2024-09-20T09:05:09Z</time>
      </trkpt>
      <trkpt lat="45.83116" lon="4.84734">
        <ele>172.4</ele>
        <time>2024-09-20T09:05:10Z</time>
      </trkpt>
      <trkpt lat="45.83116" lon="4.8473">
        <ele>172.4</ele>
        <time>2024-09-20T09:05:11Z</time>
      </trkpt>
      <trkpt lat="45.83116" lon="4.84726">
        <ele>172.4</ele>
        <time>2024-09-20T09:05:12Z</time>
      </trkpt>
      <trkpt lat="45.83117" lon="4.84722">
        <ele>171.8</ele>
        <time>2024-09-20T09:05:13Z</time>
      </trkpt>
      <trkpt lat="45.83116" lon="4.84719">
        <ele>171.8</ele>
        <time>2024-09-20T09:05:14Z</time>
      </trkpt>
      <trkpt lat="45.83116" lon="4.84715">
        <ele>171.8</ele>
        <time>2024-09-20T09:05:15Z</time>
      </trkpt>
      <trkpt lat="45.83114" lon="4.84713">
        <ele>171.6</ele>
        <time>2024-09-20T09:05:16Z</time>
      </trkpt>
      <trkpt lat="45.83112" lon="4.8471">
        <ele>171.8</ele>
        <time>2024-09-20T09:05:17Z</time>
      </trkpt>
      <trkpt lat="45.8311" lon="4.84708">
        <ele>171.8</ele>
        <time>2024-09-20T09:05:18Z</time>
      </trkpt>
      <trkpt lat="45.83108" lon="4.84706">
        <ele>171.8</ele>
        <time>2024-09-20T09:05:19Z</time>
      </trkpt>
      <trkpt lat="45.83105" lon="4.84705">
        <ele>171.8</ele>
        <time>2024-09-20T09:05:20Z</time>
      </trkpt>
      <trkpt lat="45.83101" lon="4.84706">
        <ele>171.6</ele>
        <time>2024-09-20T09:05:21Z</time>
      </trkpt>
      <trkpt lat="45.83098" lon="4.84706">
        <ele>171.6</ele>
        <time>2024-09-20T09:05:22Z</time>
      </trkpt>
      <trkpt lat="45.83094" lon="4.84707">
        <ele>171.6</ele>
        <time>2024-09-20T09:05:23Z</time>
      </trkpt>
      <trkpt lat="45.8309" lon="4.84708">
        <ele>171.6</ele>
        <time>2024-09-20T09:05:24Z</time>
      </trkpt>
      <trkpt lat="45.83087" lon="4.84709">
        <ele>171.6</ele>
        <time>2024-09-20T09:05:25Z</time>
      </trkpt>
      <trkpt lat="45.83083" lon="4.84712">
        <ele>172</ele>
        <time>2024-09-20T09:05:26Z</time>
      </trkpt>
      <trkpt lat="45.83081" lon="4.84716">
        <ele>172</ele>
        <time>2024-09-20T09:05:27Z</time>
      </trkpt>
      <trkpt lat="45.83079" lon="4.84721">
        <ele>172</ele>
        <time>2024-09-20T09:05:28Z</time>
      </trkpt>
      <trkpt lat="45.83078" lon="4.84726">
        <ele>172</ele>
        <time>2024-09-20T09:05:29Z</time>
      </trkpt>
      <trkpt lat="45.83078" lon="4.84732">
        <ele>172.2</ele>
        <time>2024-09-20T09:05:30Z</time>
      </trkpt>
      <trkpt lat="45.83078" lon="4.84737">
        <ele>172.2</ele>
        <time>2024-09-20T09:05:31Z</time>
      </trkpt>
      <trkpt lat="45.83078" lon="4.84742">
        <ele>172.2</ele>
        <time>2024-09-20T09:05:32Z</time>
      </trkpt>
      <trkpt lat="45.83078" lon="4.84748">
        <ele>172.2</ele>
        <time>2024-09-20T09:05:33Z</time>
      </trkpt>
      <trkpt lat="45.83079" lon="4.84753">
        <ele>172</ele>
        <time>2024-09-20T09:05:34Z</time>
      </trkpt>
      <trkpt lat="45.8308" lon="4.84756">
        <ele>172</ele>
        <time>2024-09-20T09:05:35Z</time>
      </trkpt>
      <trkpt lat="45.83082" lon="4.84758">
        <ele>172</ele>
        <time>2024-09-20T09:05:36Z</time>
      </trkpt>
      <trkpt lat="45.83084" lon="4.8476">
        <ele>172</ele>
        <time>2024-09-20T09:05:37Z</time>
      </trkpt>
      <trkpt lat="45.83086" lon="4.84762">
        <ele>172</ele>
        <time>2024-09-20T09:05:38Z</time>
      </trkpt>
      <trkpt lat="45.83088" lon="4.84765">
        <ele>171.6</ele>
        <time>2024-09-20T09:05:39Z</time>
      </trkpt>
      <trkpt lat="45.83088" lon="4.84768">
        <ele>172</ele>
        <time>2024-09-20T09:05:40Z</time>
      </trkpt>
      <trkpt lat="45.83087" lon="4.84771">
        <ele>172</ele>
        <time>2024-09-20T09:05:41Z</time>
      </trkpt>
      <trkpt lat="45.83085" lon="4.84774">
        <ele>172</ele>
        <time>2024-09-20T09:05:42Z</time>
      </trkpt>
      <trkpt lat="45.83082" lon="4.84777">
        <ele>172</ele>
        <time>2024-09-20T09:05:43Z</time>
      </trkpt>
      <trkpt lat="45.8308" lon="4.84781">
        <ele>172</ele>
        <time>2024-09-20T09:05:44Z</time>
      </trkpt>
      <trkpt lat="45.83077" lon="4.84784">
        <ele>172</ele>
        <time>2024-09-20T09:05:45Z</time>
      </trkpt>
      <trkpt lat="45.83074" lon="4.84788">
        <ele>172</ele>
        <time>2024-09-20T09:05:46Z</time>
      </trkpt>
      <trkpt lat="45.83072" lon="4.84793">
        <ele>172</ele>
        <time>2024-09-20T09:05:47Z</time>
      </trkpt>
      <trkpt lat="45.83069" lon="4.84798">
        <ele>171.6</ele>
        <time>2024-09-20T09:05:48Z</time>
      </trkpt>
      <trkpt lat="45.83066" lon="4.84803">
        <ele>171.6</ele>
        <time>2024-09-20T09:05:49Z</time>
      </trkpt>
      <trkpt lat="45.83063" lon="4.84809">
        <ele>171.6</ele>
        <time>2024-09-20T09:05:50Z</time>
      </trkpt>
      <trkpt lat="45.83061" lon="4.84815">
        <ele>171.6</ele>
        <time>2024-09-20T09:05:51Z</time>
      </trkpt>
      <trkpt lat="45.83058" lon="4.84821">
        <ele>171</ele>
        <time>2024-09-20T09:05:52Z</time>
      </trkpt>
      <trkpt lat="45.83055" lon="4.84827">
        <ele>171</ele>
        <time>2024-09-20T09:05:53Z</time>
      </trkpt>
      <trkpt lat="45.83053" lon="4.84833">
        <ele>171</ele>
        <time>2024-09-20T09:05:54Z</time>
      </trkpt>
      <trkpt lat="45.83049" lon="4.8484">
        <ele>171</ele>
        <time>2024-09-20T09:05:55Z</time>
      </trkpt>
      <trkpt lat="45.83046" lon="4.84846">
        <ele>171</ele>
        <time>2024-09-20T09:05:56Z</time>
      </trkpt>
      <trkpt lat="45.83043" lon="4.84852">
        <ele>170.6</ele>
        <time>2024-09-20T09:05:57Z</time>
      </trkpt>
      <trkpt lat="45.83039" lon="4.84859">
        <ele>170.2</ele>
        <time>2024-09-20T09:05:58Z</time>
      </trkpt>
      <trkpt lat="45.83036" lon="4.84865">
        <ele>170.2</ele>
        <time>2024-09-20T09:05:59Z</time>
      </trkpt>
      <trkpt lat="45.83032" lon="4.84872">
        <ele>170.2</ele>
        <time>2024-09-20T09:06:00Z</time>
      </trkpt>
      <trkpt lat="45.83029" lon="4.84878">
        <ele>170</ele>
        <time>2024-09-20T09:06:01Z</time>
      </trkpt>
      <trkpt lat="45.83025" lon="4.84884">
        <ele>169.8</ele>
        <time>2024-09-20T09:06:02Z</time>
      </trkpt>
      <trkpt lat="45.83021" lon="4.8489">
        <ele>169.8</ele>
        <time>2024-09-20T09:06:03Z</time>
      </trkpt>
      <trkpt lat="45.83017" lon="4.84896">
        <ele>169.8</ele>
        <time>2024-09-20T09:06:04Z</time>
      </trkpt>
      <trkpt lat="45.83013" lon="4.84901">
        <ele>169.6</ele>
        <time>2024-09-20T09:06:05Z</time>
      </trkpt>
      <trkpt lat="45.8301" lon="4.84906">
        <ele>169.6</ele>
        <time>2024-09-20T09:06:06Z</time>
      </trkpt>
      <trkpt lat="45.83006" lon="4.84911">
        <ele>169.6</ele>
        <time>2024-09-20T09:06:07Z</time>
      </trkpt>
      <trkpt lat="45.83002" lon="4.84916">
        <ele>169.6</ele>
        <time>2024-09-20T09:06:08Z</time>
      </trkpt>
      <trkpt lat="45.82998" lon="4.84921">
        <ele>169.6</ele>
        <time>2024-09-20T09:06:09Z</time>
      </trkpt>
      <trkpt lat="45.82995" lon="4.84926">
        <ele>169.6</ele>
        <time>2024-09-20T09:06:10Z</time>
      </trkpt>
      <trkpt lat="45.82991" lon="4.84931">
        <ele>169.6</ele>
        <time>2024-09-20T09:06:11Z</time>
      </trkpt>
      <trkpt lat="45.82987" lon="4.84936">
        <ele>169.6</ele>
        <time>2024-09-20T09:06:12Z</time>
      </trkpt>
      <trkpt lat="45.82984" lon="4.84941">
        <ele>169.6</ele>
        <time>2024-09-20T09:06:13Z</time>
      </trkpt>
      <trkpt lat="45.8298" lon="4.84945">
        <ele>169.6</ele>
        <time>2024-09-20T09:06:14Z</time>
      </trkpt>
      <trkpt lat="45.82977" lon="4.8495">
        <ele>169.6</ele>
        <time>2024-09-20T09:06:15Z</time>
      </trkpt>
      <trkpt lat="45.82973" lon="4.84955">
        <ele>169.6</ele>
        <time>2024-09-20T09:06:16Z</time>
      </trkpt>
      <trkpt lat="45.8297" lon="4.8496">
        <ele>169.6</ele>
        <time>2024-09-20T09:06:17Z</time>
      </trkpt>
      <trkpt lat="45.82966" lon="4.84965">
        <ele>169.6</ele>
        <time>2024-09-20T09:06:18Z</time>
      </trkpt>
      <trkpt lat="45.82962" lon="4.8497">
        <ele>169.6</ele>
        <time>2024-09-20T09:06:19Z</time>
      </trkpt>
      <trkpt lat="45.82958" lon="4.84974">
        <ele>169.6</ele>
        <time>2024-09-20T09:06:20Z</time>
      </trkpt>
      <trkpt lat="45.82954" lon="4.84979">
        <ele>169.6</ele>
        <time>2024-09-20T09:06:21Z</time>
      </trkpt>
      <trkpt lat="45.8295" lon="4.84984">
        <ele>169.6</ele>
        <time>2024-09-20T09:06:22Z</time>
      </trkpt>
      <trkpt lat="45.82946" lon="4.84989">
        <ele>169.6</ele>
        <time>2024-09-20T09:06:23Z</time>
      </trkpt>
      <trkpt lat="45.82942" lon="4.84994">
        <ele>169.2</ele>
        <time>2024-09-20T09:06:24Z</time>
      </trkpt>
      <trkpt lat="45.82938" lon="4.84999">
        <ele>169.4</ele>
        <time>2024-09-20T09:06:25Z</time>
      </trkpt>
      <trkpt lat="45.82934" lon="4.85003">
        <ele>169.4</ele>
        <time>2024-09-20T09:06:26Z</time>
      </trkpt>
      <trkpt lat="45.8293" lon="4.85008">
        <ele>169.4</ele>
        <time>2024-09-20T09:06:27Z</time>
      </trkpt>
      <trkpt lat="45.82927" lon="4.85013">
        <ele>169.8</ele>
        <time>2024-09-20T09:06:28Z</time>
      </trkpt>
      <trkpt lat="45.82923" lon="4.85017">
        <ele>169.6</ele>
        <time>2024-09-20T09:06:29Z</time>
      </trkpt>
      <trkpt lat="45.82919" lon="4.85022">
        <ele>169.6</ele>
        <time>2024-09-20T09:06:30Z</time>
      </trkpt>
      <trkpt lat="45.82915" lon="4.85027">
        <ele>169.6</ele>
        <time>2024-09-20T09:06:31Z</time>
      </trkpt>
      <trkpt lat="45.82911" lon="4.85033">
        <ele>169.6</ele>
        <time>2024-09-20T09:06:32Z</time>
      </trkpt>
      <trkpt lat="45.82907" lon="4.85038">
        <ele>169.6</ele>
        <time>2024-09-20T09:06:33Z</time>
      </trkpt>
      <trkpt lat="45.82903" lon="4.85043">
        <ele>169.4</ele>
        <time>2024-09-20T09:06:34Z</time>
      </trkpt>
      <trkpt lat="45.82899" lon="4.85047">
        <ele>169.4</ele>
        <time>2024-09-20T09:06:35Z</time>
      </trkpt>
      <trkpt lat="45.82895" lon="4.85052">
        <ele>169.4</ele>
        <time>2024-09-20T09:06:36Z</time>
      </trkpt>
      <trkpt lat="45.82891" lon="4.85057">
        <ele>169.8</ele>
        <time>2024-09-20T09:06:37Z</time>
      </trkpt>
      <trkpt lat="45.82887" lon="4.85062">
        <ele>169.6</ele>
        <time>2024-09-20T09:06:38Z</time>
      </trkpt>
      <trkpt lat="45.82883" lon="4.85066">
        <ele>169.6</ele>
        <time>2024-09-20T09:06:39Z</time>
      </trkpt>
      <trkpt lat="45.82879" lon="4.85071">
        <ele>169.6</ele>
        <time>2024-09-20T09:06:40Z</time>
      </trkpt>
      <trkpt lat="45.82874" lon="4.85076">
        <ele>169.6</ele>
        <time>2024-09-20T09:06:41Z</time>
      </trkpt>
      <trkpt lat="45.8287" lon="4.8508">
        <ele>169.6</ele>
        <time>2024-09-20T09:06:42Z</time>
      </trkpt>
      <trkpt lat="45.82866" lon="4.85085">
        <ele>169.6</ele>
        <time>2024-09-20T09:06:43Z</time>
      </trkpt>
      <trkpt lat="45.82862" lon="4.8509">
        <ele>169.6</ele>
        <time>2024-09-20T09:06:44Z</time>
      </trkpt>
      <trkpt lat="45.82857" lon="4.85094">
        <ele>169.6</ele>
        <time>2024-09-20T09:06:45Z</time>
      </trkpt>
      <trkpt lat="45.82853" lon="4.85098">
        <ele>169.6</ele>
        <time>2024-09-20T09:06:46Z</time>
      </trkpt>
      <trkpt lat="45.82849" lon="4.85102">
        <ele>169.6</ele>
        <time>2024-09-20T09:06:47Z</time>
      </trkpt>
      <trkpt lat="45.82844" lon="4.85107">
        <ele>169.6</ele>
        <time>2024-09-20T09:06:48Z</time>
      </trkpt>
      <trkpt lat="45.8284" lon="4.85111">
        <ele>169.6</ele>
        <time>2024-09-20T09:06:49Z</time>
      </trkpt>
      <trkpt lat="45.82835" lon="4.85115">
        <ele>169.6</ele>
        <time>2024-09-20T09:06:50Z</time>
      </trkpt>
      <trkpt lat="45.82831" lon="4.85119">
        <ele>169.6</ele>
        <time>2024-09-20T09:06:51Z</time>
      </trkpt>
      <trkpt lat="45.82827" lon="4.85123">
        <ele>169.6</ele>
        <time>2024-09-20T09:06:52Z</time>
      </trkpt>
      <trkpt lat="45.82822" lon="4.85127">
        <ele>169.6</ele>
        <time>2024-09-20T09:06:53Z</time>
      </trkpt>
      <trkpt lat="45.82818" lon="4.85131">
        <ele>169.6</ele>
        <time>2024-09-20T09:06:54Z</time>
      </trkpt>
      <trkpt lat="45.82814" lon="4.85134">
        <ele>169.6</ele>
        <time>2024-09-20T09:06:55Z</time>
      </trkpt>
      <trkpt lat="45.82809" lon="4.85138">
        <ele>169.6</ele>
        <time>2024-09-20T09:06:56Z</time>
      </trkpt>
      <trkpt lat="45.82805" lon="4.85141">
        <ele>169.4</ele>
        <time>2024-09-20T09:06:57Z</time>
      </trkpt>
      <trkpt lat="45.82801" lon="4.85145">
        <ele>169.4</ele>
        <time>2024-09-20T09:06:58Z</time>
      </trkpt>
      <trkpt lat="45.82796" lon="4.85149">
        <ele>169.6</ele>
        <time>2024-09-20T09:06:59Z</time>
      </trkpt>
      <trkpt lat="45.82792" lon="4.85152">
        <ele>169.6</ele>
        <time>2024-09-20T09:07:00Z</time>
      </trkpt>
      <trkpt lat="45.82787" lon="4.85155">
        <ele>169.6</ele>
        <time>2024-09-20T09:07:01Z</time>
      </trkpt>
      <trkpt lat="45.82783" lon="4.85159">
        <ele>169.6</ele>
        <time>2024-09-20T09:07:02Z</time>
      </trkpt>
      <trkpt lat="45.82778" lon="4.85163">
        <ele>169.6</ele>
        <time>2024-09-20T09:07:03Z</time>
      </trkpt>
      <trkpt lat="45.82774" lon="4.85166">
        <ele>169.6</ele>
        <time>2024-09-20T09:07:04Z</time>
      </trkpt>
      <trkpt lat="45.82769" lon="4.8517">
        <ele>169.6</ele>
        <time>2024-09-20T09:07:05Z</time>
      </trkpt>
      <trkpt lat="45.82765" lon="4.85173">
        <ele>169.6</ele>
        <time>2024-09-20T09:07:06Z</time>
      </trkpt>
      <trkpt lat="45.8276" lon="4.85177">
        <ele>169.6</ele>
        <time>2024-09-20T09:07:07Z</time>
      </trkpt>
      <trkpt lat="45.82755" lon="4.8518">
        <ele>169.6</ele>
        <time>2024-09-20T09:07:08Z</time>
      </trkpt>
      <trkpt lat="45.82751" lon="4.85184">
        <ele>169.6</ele>
        <time>2024-09-20T09:07:09Z</time>
      </trkpt>
      <trkpt lat="45.82747" lon="4.85187">
        <ele>169.4</ele>
        <time>2024-09-20T09:07:10Z</time>
      </trkpt>
      <trkpt lat="45.82742" lon="4.85191">
        <ele>169.4</ele>
        <time>2024-09-20T09:07:11Z</time>
      </trkpt>
      <trkpt lat="45.82738" lon="4.85195">
        <ele>169.4</ele>
        <time>2024-09-20T09:07:12Z</time>
      </trkpt>
      <trkpt lat="45.82733" lon="4.85199">
        <ele>169.8</ele>
        <time>2024-09-20T09:07:13Z</time>
      </trkpt>
      <trkpt lat="45.82729" lon="4.85202">
        <ele>169.6</ele>
        <time>2024-09-20T09:07:14Z</time>
      </trkpt>
      <trkpt lat="45.82724" lon="4.85206">
        <ele>169.6</ele>
        <time>2024-09-20T09:07:15Z</time>
      </trkpt>
      <trkpt lat="45.8272" lon="4.85209">
        <ele>169.6</ele>
        <time>2024-09-20T09:07:16Z</time>
      </trkpt>
      <trkpt lat="45.82715" lon="4.85212">
        <ele>169.6</ele>
        <time>2024-09-20T09:07:17Z</time>
      </trkpt>
      <trkpt lat="45.82711" lon="4.85216">
        <ele>169.6</ele>
        <time>2024-09-20T09:07:18Z</time>
      </trkpt>
      <trkpt lat="45.82707" lon="4.85219">
        <ele>169.6</ele>
        <time>2024-09-20T09:07:19Z</time>
      </trkpt>
      <trkpt lat="45.82703" lon="4.85223">
        <ele>169.6</ele>
        <time>2024-09-20T09:07:20Z</time>
      </trkpt>
      <trkpt lat="45.82698" lon="4.85226">
        <ele>169.6</ele>
        <time>2024-09-20T09:07:21Z</time>
      </trkpt>
      <trkpt lat="45.82694" lon="4.85229">
        <ele>169.4</ele>
        <time>2024-09-20T09:07:22Z</time>
      </trkpt>
      <trkpt lat="45.82689" lon="4.85232">
        <ele>169.4</ele>
        <time>2024-09-20T09:07:23Z</time>
      </trkpt>
      <trkpt lat="45.82685" lon="4.85235">
        <ele>169.2</ele>
        <time>2024-09-20T09:07:24Z</time>
      </trkpt>
      <trkpt lat="45.8268" lon="4.85238">
        <ele>169.2</ele>
        <time>2024-09-20T09:07:25Z</time>
      </trkpt>
      <trkpt lat="45.82676" lon="4.85241">
        <ele>169.2</ele>
        <time>2024-09-20T09:07:26Z</time>
      </trkpt>
      <trkpt lat="45.82672" lon="4.85245">
        <ele>169.2</ele>
        <time>2024-09-20T09:07:27Z</time>
      </trkpt>
      <trkpt lat="45.82667" lon="4.85249">
        <ele>169.2</ele>
        <time>2024-09-20T09:07:28Z</time>
      </trkpt>
      <trkpt lat="45.82663" lon="4.85253">
        <ele>169.2</ele>
        <time>2024-09-20T09:07:29Z</time>
      </trkpt>
      <trkpt lat="45.82658" lon="4.85257">
        <ele>169.2</ele>
        <time>2024-09-20T09:07:30Z</time>
      </trkpt>
      <trkpt lat="45.82654" lon="4.8526">
        <ele>169.6</ele>
        <time>2024-09-20T09:07:31Z</time>
      </trkpt>
      <trkpt lat="45.82649" lon="4.85263">
        <ele>169.2</ele>
        <time>2024-09-20T09:07:32Z</time>
      </trkpt>
      <trkpt lat="45.82645" lon="4.85266">
        <ele>169.2</ele>
        <time>2024-09-20T09:07:33Z</time>
      </trkpt>
      <trkpt lat="45.82641" lon="4.8527">
        <ele>169.2</ele>
        <time>2024-09-20T09:07:34Z</time>
      </trkpt>
      <trkpt lat="45.82636" lon="4.85273">
        <ele>169.6</ele>
        <time>2024-09-20T09:07:35Z</time>
      </trkpt>
      <trkpt lat="45.82632" lon="4.85276">
        <ele>169.2</ele>
        <time>2024-09-20T09:07:36Z</time>
      </trkpt>
      <trkpt lat="45.82628" lon="4.85279">
        <ele>169.2</ele>
        <time>2024-09-20T09:07:37Z</time>
      </trkpt>
      <trkpt lat="45.82624" lon="4.85283">
        <ele>169.2</ele>
        <time>2024-09-20T09:07:38Z</time>
      </trkpt>
      <trkpt lat="45.8262" lon="4.85286">
        <ele>169.6</ele>
        <time>2024-09-20T09:07:39Z</time>
      </trkpt>
      <trkpt lat="45.82616" lon="4.85289">
        <ele>169.6</ele>
        <time>2024-09-20T09:07:40Z</time>
      </trkpt>
      <trkpt lat="45.82612" lon="4.85291">
        <ele>169.6</ele>
        <time>2024-09-20T09:07:41Z</time>
      </trkpt>
      <trkpt lat="45.8261" lon="4.85294">
        <ele>169.6</ele>
        <time>2024-09-20T09:07:42Z</time>
      </trkpt>
      <trkpt lat="45.82607" lon="4.85296">
        <ele>169.6</ele>
        <time>2024-09-20T09:07:43Z</time>
      </trkpt>
      <trkpt lat="45.82604" lon="4.85298">
        <ele>169.8</ele>
        <time>2024-09-20T09:07:44Z</time>
      </trkpt>
      <trkpt lat="45.82601" lon="4.853">
        <ele>169.6</ele>
        <time>2024-09-20T09:07:45Z</time>
      </trkpt>
      <trkpt lat="45.82598" lon="4.85301">
        <ele>169.6</ele>
        <time>2024-09-20T09:07:46Z</time>
      </trkpt>
      <trkpt lat="45.82595" lon="4.85302">
        <ele>169.6</ele>
        <time>2024-09-20T09:07:47Z</time>
      </trkpt>
      <trkpt lat="45.82591" lon="4.85304">
        <ele>169.6</ele>
        <time>2024-09-20T09:07:48Z</time>
      </trkpt>
      <trkpt lat="45.82588" lon="4.85306">
        <ele>169.6</ele>
        <time>2024-09-20T09:07:49Z</time>
      </trkpt>
      <trkpt lat="45.82585" lon="4.85307">
        <ele>169.8</ele>
        <time>2024-09-20T09:07:50Z</time>
      </trkpt>
      <trkpt lat="45.82581" lon="4.8531">
        <ele>169.8</ele>
        <time>2024-09-20T09:07:51Z</time>
      </trkpt>
      <trkpt lat="45.82577" lon="4.85312">
        <ele>169.8</ele>
        <time>2024-09-20T09:07:52Z</time>
      </trkpt>
      <trkpt lat="45.82574" lon="4.85315">
        <ele>169.8</ele>
        <time>2024-09-20T09:07:53Z</time>
      </trkpt>
      <trkpt lat="45.8257" lon="4.85318">
        <ele>170</ele>
        <time>2024-09-20T09:07:54Z</time>
      </trkpt>
      <trkpt lat="45.82567" lon="4.85321">
        <ele>170</ele>
        <time>2024-09-20T09:07:55Z</time>
      </trkpt>
      <trkpt lat="45.82563" lon="4.85323">
        <ele>170</ele>
        <time>2024-09-20T09:07:56Z</time>
      </trkpt>
      <trkpt lat="45.82559" lon="4.85326">
        <ele>170</ele>
        <time>2024-09-20T09:07:57Z</time>
      </trkpt>
      <trkpt lat="45.82555" lon="4.85328">
        <ele>170</ele>
        <time>2024-09-20T09:07:58Z</time>
      </trkpt>
      <trkpt lat="45.82551" lon="4.85331">
        <ele>170</ele>
        <time>2024-09-20T09:07:59Z</time>
      </trkpt>
      <trkpt lat="45.82547" lon="4.85333">
        <ele>170</ele>
        <time>2024-09-20T09:08:00Z</time>
      </trkpt>
      <trkpt lat="45.82543" lon="4.85335">
        <ele>170</ele>
        <time>2024-09-20T09:08:01Z</time>
      </trkpt>
      <trkpt lat="45.82539" lon="4.85338">
        <ele>170.2</ele>
        <time>2024-09-20T09:08:02Z</time>
      </trkpt>
      <trkpt lat="45.82535" lon="4.8534">
        <ele>170.2</ele>
        <time>2024-09-20T09:08:03Z</time>
      </trkpt>
      <trkpt lat="45.82531" lon="4.85343">
        <ele>170.2</ele>
        <time>2024-09-20T09:08:04Z</time>
      </trkpt>
      <trkpt lat="45.82527" lon="4.85345">
        <ele>170.2</ele>
        <time>2024-09-20T09:08:05Z</time>
      </trkpt>
      <trkpt lat="45.82523" lon="4.85348">
        <ele>170.2</ele>
        <time>2024-09-20T09:08:06Z</time>
      </trkpt>
      <trkpt lat="45.8252" lon="4.85351">
        <ele>170.4</ele>
        <time>2024-09-20T09:08:07Z</time>
      </trkpt>
      <trkpt lat="45.82516" lon="4.85354">
        <ele>170.4</ele>
        <time>2024-09-20T09:08:08Z</time>
      </trkpt>
      <trkpt lat="45.82512" lon="4.85357">
        <ele>170.4</ele>
        <time>2024-09-20T09:08:09Z</time>
      </trkpt>
      <trkpt lat="45.82507" lon="4.85359">
        <ele>170.4</ele>
        <time>2024-09-20T09:08:10Z</time>
      </trkpt>
      <trkpt lat="45.82504" lon="4.85362">
        <ele>170.4</ele>
        <time>2024-09-20T09:08:11Z</time>
      </trkpt>
      <trkpt lat="45.825" lon="4.85364">
        <ele>170.6</ele>
        <time>2024-09-20T09:08:12Z</time>
      </trkpt>
      <trkpt lat="45.82495" lon="4.85366">
        <ele>170.6</ele>
        <time>2024-09-20T09:08:13Z</time>
      </trkpt>
      <trkpt lat="45.82491" lon="4.85369">
        <ele>170.6</ele>
        <time>2024-09-20T09:08:14Z</time>
      </trkpt>
      <trkpt lat="45.82487" lon="4.85371">
        <ele>171</ele>
        <time>2024-09-20T09:08:15Z</time>
      </trkpt>
      <trkpt lat="45.82483" lon="4.85374">
        <ele>171</ele>
        <time>2024-09-20T09:08:16Z</time>
      </trkpt>
      <trkpt lat="45.82479" lon="4.85377">
        <ele>171</ele>
        <time>2024-09-20T09:08:17Z</time>
      </trkpt>
      <trkpt lat="45.82475" lon="4.85379">
        <ele>171</ele>
        <time>2024-09-20T09:08:18Z</time>
      </trkpt>
      <trkpt lat="45.8247" lon="4.85382">
        <ele>171</ele>
        <time>2024-09-20T09:08:19Z</time>
      </trkpt>
      <trkpt lat="45.82466" lon="4.85385">
        <ele>171</ele>
        <time>2024-09-20T09:08:20Z</time>
      </trkpt>
      <trkpt lat="45.82462" lon="4.85387">
        <ele>171</ele>
        <time>2024-09-20T09:08:21Z</time>
      </trkpt>
      <trkpt lat="45.82457" lon="4.85389">
        <ele>171</ele>
        <time>2024-09-20T09:08:22Z</time>
      </trkpt>
      <trkpt lat="45.82453" lon="4.85391">
        <ele>171</ele>
        <time>2024-09-20T09:08:23Z</time>
      </trkpt>
      <trkpt lat="45.82449" lon="4.85394">
        <ele>171.2</ele>
        <time>2024-09-20T09:08:24Z</time>
      </trkpt>
      <trkpt lat="45.82444" lon="4.85396">
        <ele>171.2</ele>
        <time>2024-09-20T09:08:25Z</time>
      </trkpt>
      <trkpt lat="45.82439" lon="4.85398">
        <ele>171.2</ele>
        <time>2024-09-20T09:08:26Z</time>
      </trkpt>
      <trkpt lat="45.82435" lon="4.85401">
        <ele>171.2</ele>
        <time>2024-09-20T09:08:27Z</time>
      </trkpt>
      <trkpt lat="45.8243" lon="4.85403">
        <ele>171.2</ele>
        <time>2024-09-20T09:08:28Z</time>
      </trkpt>
      <trkpt lat="45.82426" lon="4.85405">
        <ele>171.2</ele>
        <time>2024-09-20T09:08:29Z</time>
      </trkpt>
      <trkpt lat="45.82421" lon="4.85408">
        <ele>171.2</ele>
        <time>2024-09-20T09:08:30Z</time>
      </trkpt>
      <trkpt lat="45.82416" lon="4.8541">
        <ele>171.4</ele>
        <time>2024-09-20T09:08:31Z</time>
      </trkpt>
      <trkpt lat="45.82412" lon="4.85412">
        <ele>171.4</ele>
        <time>2024-09-20T09:08:32Z</time>
      </trkpt>
      <trkpt lat="45.82407" lon="4.85414">
        <ele>171.4</ele>
        <time>2024-09-20T09:08:33Z</time>
      </trkpt>
      <trkpt lat="45.82402" lon="4.85417">
        <ele>171</ele>
        <time>2024-09-20T09:08:34Z</time>
      </trkpt>
      <trkpt lat="45.82397" lon="4.85419">
        <ele>171</ele>
        <time>2024-09-20T09:08:35Z</time>
      </trkpt>
      <trkpt lat="45.82393" lon="4.85421">
        <ele>171</ele>
        <time>2024-09-20T09:08:36Z</time>
      </trkpt>
      <trkpt lat="45.82388" lon="4.85424">
        <ele>171</ele>
        <time>2024-09-20T09:08:37Z</time>
      </trkpt>
      <trkpt lat="45.82383" lon="4.85426">
        <ele>171</ele>
        <time>2024-09-20T09:08:38Z</time>
      </trkpt>
      <trkpt lat="45.82378" lon="4.85429">
        <ele>171</ele>
        <time>2024-09-20T09:08:39Z</time>
      </trkpt>
      <trkpt lat="45.82373" lon="4.85431">
        <ele>170.8</ele>
        <time>2024-09-20T09:08:40Z</time>
      </trkpt>
      <trkpt lat="45.82368" lon="4.85434">
        <ele>170.8</ele>
        <time>2024-09-20T09:08:41Z</time>
      </trkpt>
      <trkpt lat="45.82363" lon="4.85436">
        <ele>170.8</ele>
        <time>2024-09-20T09:08:42Z</time>
      </trkpt>
      <trkpt lat="45.82358" lon="4.85438">
        <ele>170.8</ele>
        <time>2024-09-20T09:08:43Z</time>
      </trkpt>
      <trkpt lat="45.82352" lon="4.8544">
        <ele>170.6</ele>
        <time>2024-09-20T09:08:44Z</time>
      </trkpt>
      <trkpt lat="45.82347" lon="4.85442">
        <ele>170.6</ele>
        <time>2024-09-20T09:08:45Z</time>
      </trkpt>
      <trkpt lat="45.82342" lon="4.85444">
        <ele>170.6</ele>
        <time>2024-09-20T09:08:46Z</time>
      </trkpt>
      <trkpt lat="45.82337" lon="4.85446">
        <ele>170.4</ele>
        <time>2024-09-20T09:08:47Z</time>
      </trkpt>
      <trkpt lat="45.82332" lon="4.85448">
        <ele>170.4</ele>
        <time>2024-09-20T09:08:48Z</time>
      </trkpt>
      <trkpt lat="45.82327" lon="4.8545">
        <ele>170.4</ele>
        <time>2024-09-20T09:08:49Z</time>
      </trkpt>
      <trkpt lat="45.82322" lon="4.85452">
        <ele>170.4</ele>
        <time>2024-09-20T09:08:50Z</time>
      </trkpt>
      <trkpt lat="45.82317" lon="4.85454">
        <ele>170.4</ele>
        <time>2024-09-20T09:08:51Z</time>
      </trkpt>
      <trkpt lat="45.82312" lon="4.85455">
        <ele>170.4</ele>
        <time>2024-09-20T09:08:52Z</time>
      </trkpt>
      <trkpt lat="45.82307" lon="4.85457">
        <ele>170.2</ele>
        <time>2024-09-20T09:08:53Z</time>
      </trkpt>
      <trkpt lat="45.82302" lon="4.85459">
        <ele>170.2</ele>
        <time>2024-09-20T09:08:54Z</time>
      </trkpt>
      <trkpt lat="45.82297" lon="4.8546">
        <ele>170.2</ele>
        <time>2024-09-20T09:08:55Z</time>
      </trkpt>
      <trkpt lat="45.82291" lon="4.85462">
        <ele>170</ele>
        <time>2024-09-20T09:08:56Z</time>
      </trkpt>
      <trkpt lat="45.82286" lon="4.85464">
        <ele>170.4</ele>
        <time>2024-09-20T09:08:57Z</time>
      </trkpt>
      <trkpt lat="45.82281" lon="4.85466">
        <ele>170.4</ele>
        <time>2024-09-20T09:08:58Z</time>
      </trkpt>
      <trkpt lat="45.82276" lon="4.85467">
        <ele>170.4</ele>
        <time>2024-09-20T09:08:59Z</time>
      </trkpt>
      <trkpt lat="45.8227" lon="4.85469">
        <ele>170.4</ele>
        <time>2024-09-20T09:09:00Z</time>
      </trkpt>
      <trkpt lat="45.82265" lon="4.8547">
        <ele>170</ele>
        <time>2024-09-20T09:09:01Z</time>
      </trkpt>
      <trkpt lat="45.8226" lon="4.85472">
        <ele>170</ele>
        <time>2024-09-20T09:09:02Z</time>
      </trkpt>
      <trkpt lat="45.82255" lon="4.85473">
        <ele>170</ele>
        <time>2024-09-20T09:09:03Z</time>
      </trkpt>
      <trkpt lat="45.8225" lon="4.85474">
        <ele>170</ele>
        <time>2024-09-20T09:09:04Z</time>
      </trkpt>
      <trkpt lat="45.82245" lon="4.85475">
        <ele>170</ele>
        <time>2024-09-20T09:09:05Z</time>
      </trkpt>
      <trkpt lat="45.8224" lon="4.85476">
        <ele>169.6</ele>
        <time>2024-09-20T09:09:06Z</time>
      </trkpt>
      <trkpt lat="45.82235" lon="4.85477">
        <ele>169.6</ele>
        <time>2024-09-20T09:09:07Z</time>
      </trkpt>
      <trkpt lat="45.8223" lon="4.85478">
        <ele>169.6</ele>
        <time>2024-09-20T09:09:08Z</time>
      </trkpt>
      <trkpt lat="45.82225" lon="4.85479">
        <ele>169.8</ele>
        <time>2024-09-20T09:09:09Z</time>
      </trkpt>
      <trkpt lat="45.8222" lon="4.8548">
        <ele>169.8</ele>
        <time>2024-09-20T09:09:10Z</time>
      </trkpt>
      <trkpt lat="45.82215" lon="4.85481">
        <ele>169.8</ele>
        <time>2024-09-20T09:09:11Z</time>
      </trkpt>
      <trkpt lat="45.82209" lon="4.85483">
        <ele>169.8</ele>
        <time>2024-09-20T09:09:12Z</time>
      </trkpt>
      <trkpt lat="45.82204" lon="4.85484">
        <ele>169.8</ele>
        <time>2024-09-20T09:09:13Z</time>
      </trkpt>
      <trkpt lat="45.82198" lon="4.85484">
        <ele>169.8</ele>
        <time>2024-09-20T09:09:14Z</time>
      </trkpt>
      <trkpt lat="45.82193" lon="4.85485">
        <ele>169.8</ele>
        <time>2024-09-20T09:09:15Z</time>
      </trkpt>
      <trkpt lat="45.82187" lon="4.85485">
        <ele>169.6</ele>
        <time>2024-09-20T09:09:16Z</time>
      </trkpt>
      <trkpt lat="45.82182" lon="4.85485">
        <ele>169.6</ele>
        <time>2024-09-20T09:09:17Z</time>
      </trkpt>
      <trkpt lat="45.82177" lon="4.85486">
        <ele>169.6</ele>
        <time>2024-09-20T09:09:18Z</time>
      </trkpt>
      <trkpt lat="45.82172" lon="4.85487">
        <ele>169.6</ele>
        <time>2024-09-20T09:09:19Z</time>
      </trkpt>
      <trkpt lat="45.82166" lon="4.85487">
        <ele>169.6</ele>
        <time>2024-09-20T09:09:20Z</time>
      </trkpt>
      <trkpt lat="45.82161" lon="4.85488">
        <ele>169.4</ele>
        <time>2024-09-20T09:09:21Z</time>
      </trkpt>
      <trkpt lat="45.82156" lon="4.85488">
        <ele>169.4</ele>
        <time>2024-09-20T09:09:22Z</time>
      </trkpt>
      <trkpt lat="45.82151" lon="4.85489">
        <ele>169.4</ele>
        <time>2024-09-20T09:09:23Z</time>
      </trkpt>
      <trkpt lat="45.82145" lon="4.85489">
        <ele>169.6</ele>
        <time>2024-09-20T09:09:24Z</time>
      </trkpt>
      <trkpt lat="45.8214" lon="4.85489">
        <ele>169.8</ele>
        <time>2024-09-20T09:09:25Z</time>
      </trkpt>
      <trkpt lat="45.82135" lon="4.85489">
        <ele>169.8</ele>
        <time>2024-09-20T09:09:26Z</time>
      </trkpt>
      <trkpt lat="45.8213" lon="4.85489">
        <ele>169.8</ele>
        <time>2024-09-20T09:09:27Z</time>
      </trkpt>
      <trkpt lat="45.82124" lon="4.85488">
        <ele>169.8</ele>
        <time>2024-09-20T09:09:28Z</time>
      </trkpt>
      <trkpt lat="45.82119" lon="4.85488">
        <ele>169.6</ele>
        <time>2024-09-20T09:09:29Z</time>
      </trkpt>
      <trkpt lat="45.82113" lon="4.85488">
        <ele>169.6</ele>
        <time>2024-09-20T09:09:30Z</time>
      </trkpt>
      <trkpt lat="45.82108" lon="4.85488">
        <ele>169.6</ele>
        <time>2024-09-20T09:09:31Z</time>
      </trkpt>
      <trkpt lat="45.82103" lon="4.85487">
        <ele>169.6</ele>
        <time>2024-09-20T09:09:32Z</time>
      </trkpt>
      <trkpt lat="45.82097" lon="4.85487">
        <ele>169.6</ele>
        <time>2024-09-20T09:09:33Z</time>
      </trkpt>
      <trkpt lat="45.82092" lon="4.85487">
        <ele>169.6</ele>
        <time>2024-09-20T09:09:34Z</time>
      </trkpt>
      <trkpt lat="45.82087" lon="4.85486">
        <ele>169.6</ele>
        <time>2024-09-20T09:09:35Z</time>
      </trkpt>
      <trkpt lat="45.82082" lon="4.85486">
        <ele>169.6</ele>
        <time>2024-09-20T09:09:36Z</time>
      </trkpt>
      <trkpt lat="45.82077" lon="4.85485">
        <ele>169.6</ele>
        <time>2024-09-20T09:09:37Z</time>
      </trkpt>
      <trkpt lat="45.82071" lon="4.85484">
        <ele>169.6</ele>
        <time>2024-09-20T09:09:38Z</time>
      </trkpt>
      <trkpt lat="45.82066" lon="4.85482">
        <ele>169.6</ele>
        <time>2024-09-20T09:09:39Z</time>
      </trkpt>
      <trkpt lat="45.82061" lon="4.85482">
        <ele>169.6</ele>
        <time>2024-09-20T09:09:40Z</time>
      </trkpt>
      <trkpt lat="45.82056" lon="4.85481">
        <ele>169.4</ele>
        <time>2024-09-20T09:09:41Z</time>
      </trkpt>
      <trkpt lat="45.82051" lon="4.8548">
        <ele>169.4</ele>
        <time>2024-09-20T09:09:42Z</time>
      </trkpt>
      <trkpt lat="45.82046" lon="4.85479">
        <ele>169.4</ele>
        <time>2024-09-20T09:09:43Z</time>
      </trkpt>
      <trkpt lat="45.82041" lon="4.85478">
        <ele>169.4</ele>
        <time>2024-09-20T09:09:44Z</time>
      </trkpt>
      <trkpt lat="45.82037" lon="4.85478">
        <ele>169.4</ele>
        <time>2024-09-20T09:09:45Z</time>
      </trkpt>
      <trkpt lat="45.82032" lon="4.85477">
        <ele>169.4</ele>
        <time>2024-09-20T09:09:46Z</time>
      </trkpt>
      <trkpt lat="45.82027" lon="4.85476">
        <ele>169.4</ele>
        <time>2024-09-20T09:09:47Z</time>
      </trkpt>
      <trkpt lat="45.82021" lon="4.85474">
        <ele>169.4</ele>
        <time>2024-09-20T09:09:48Z</time>
      </trkpt>
      <trkpt lat="45.82016" lon="4.85473">
        <ele>169.4</ele>
        <time>2024-09-20T09:09:49Z</time>
      </trkpt>
      <trkpt lat="45.82011" lon="4.85472">
        <ele>169.2</ele>
        <time>2024-09-20T09:09:50Z</time>
      </trkpt>
      <trkpt lat="45.82006" lon="4.85471">
        <ele>169.2</ele>
        <time>2024-09-20T09:09:51Z</time>
      </trkpt>
      <trkpt lat="45.82001" lon="4.85469">
        <ele>169.2</ele>
        <time>2024-09-20T09:09:52Z</time>
      </trkpt>
      <trkpt lat="45.81996" lon="4.85468">
        <ele>169.2</ele>
        <time>2024-09-20T09:09:53Z</time>
      </trkpt>
      <trkpt lat="45.81991" lon="4.85467">
        <ele>169.2</ele>
        <time>2024-09-20T09:09:54Z</time>
      </trkpt>
      <trkpt lat="45.81986" lon="4.85465">
        <ele>169.2</ele>
        <time>2024-09-20T09:09:55Z</time>
      </trkpt>
      <trkpt lat="45.81981" lon="4.85464">
        <ele>169.2</ele>
        <time>2024-09-20T09:09:56Z</time>
      </trkpt>
      <trkpt lat="45.81976" lon="4.85462">
        <ele>169.2</ele>
        <time>2024-09-20T09:09:57Z</time>
      </trkpt>
      <trkpt lat="45.81972" lon="4.85461">
        <ele>169.2</ele>
        <time>2024-09-20T09:09:58Z</time>
      </trkpt>
      <trkpt lat="45.81967" lon="4.85459">
        <ele>169.2</ele>
        <time>2024-09-20T09:09:59Z</time>
      </trkpt>
      <trkpt lat="45.81963" lon="4.85457">
        <ele>169.2</ele>
        <time>2024-09-20T09:10:00Z</time>
      </trkpt>
      <trkpt lat="45.81958" lon="4.85455">
        <ele>169.6</ele>
        <time>2024-09-20T09:10:01Z</time>
      </trkpt>
      <trkpt lat="45.81954" lon="4.85453">
        <ele>169.6</ele>
        <time>2024-09-20T09:10:02Z</time>
      </trkpt>
      <trkpt lat="45.81949" lon="4.85451">
        <ele>169.6</ele>
        <time>2024-09-20T09:10:03Z</time>
      </trkpt>
      <trkpt lat="45.81945" lon="4.8545">
        <ele>169.6</ele>
        <time>2024-09-20T09:10:04Z</time>
      </trkpt>
      <trkpt lat="45.8194" lon="4.85448">
        <ele>169.6</ele>
        <time>2024-09-20T09:10:05Z</time>
      </trkpt>
      <trkpt lat="45.81935" lon="4.85446">
        <ele>169.4</ele>
        <time>2024-09-20T09:10:06Z</time>
      </trkpt>
      <trkpt lat="45.8193" lon="4.85443">
        <ele>169.4</ele>
        <time>2024-09-20T09:10:07Z</time>
      </trkpt>
      <trkpt lat="45.81926" lon="4.85441">
        <ele>169.4</ele>
        <time>2024-09-20T09:10:08Z</time>
      </trkpt>
      <trkpt lat="45.8192" lon="4.85439">
        <ele>169.4</ele>
        <time>2024-09-20T09:10:09Z</time>
      </trkpt>
      <trkpt lat="45.81916" lon="4.85436">
        <ele>169.4</ele>
        <time>2024-09-20T09:10:10Z</time>
      </trkpt>
      <trkpt lat="45.8191" lon="4.85433">
        <ele>169.2</ele>
        <time>2024-09-20T09:10:11Z</time>
      </trkpt>
      <trkpt lat="45.81905" lon="4.8543">
        <ele>169.2</ele>
        <time>2024-09-20T09:10:12Z</time>
      </trkpt>
      <trkpt lat="45.81901" lon="4.85428">
        <ele>169.2</ele>
        <time>2024-09-20T09:10:13Z</time>
      </trkpt>
      <trkpt lat="45.81896" lon="4.85425">
        <ele>169.2</ele>
        <time>2024-09-20T09:10:14Z</time>
      </trkpt>
      <trkpt lat="45.81891" lon="4.85422">
        <ele>169.2</ele>
        <time>2024-09-20T09:10:15Z</time>
      </trkpt>
      <trkpt lat="45.81886" lon="4.85418">
        <ele>169.2</ele>
        <time>2024-09-20T09:10:16Z</time>
      </trkpt>
      <trkpt lat="45.81881" lon="4.85415">
        <ele>169.2</ele>
        <time>2024-09-20T09:10:17Z</time>
      </trkpt>
      <trkpt lat="45.81877" lon="4.85411">
        <ele>169.2</ele>
        <time>2024-09-20T09:10:18Z</time>
      </trkpt>
      <trkpt lat="45.81872" lon="4.85408">
        <ele>169</ele>
        <time>2024-09-20T09:10:19Z</time>
      </trkpt>
      <trkpt lat="45.81867" lon="4.85405">
        <ele>169</ele>
        <time>2024-09-20T09:10:20Z</time>
      </trkpt>
      <trkpt lat="45.81863" lon="4.85401">
        <ele>169</ele>
        <time>2024-09-20T09:10:21Z</time>
      </trkpt>
      <trkpt lat="45.81859" lon="4.85398">
        <ele>169.2</ele>
        <time>2024-09-20T09:10:22Z</time>
      </trkpt>
      <trkpt lat="45.81854" lon="4.85395">
        <ele>169.2</ele>
        <time>2024-09-20T09:10:23Z</time>
      </trkpt>
      <trkpt lat="45.8185" lon="4.85392">
        <ele>169.2</ele>
        <time>2024-09-20T09:10:24Z</time>
      </trkpt>
      <trkpt lat="45.81846" lon="4.85388">
        <ele>169.2</ele>
        <time>2024-09-20T09:10:25Z</time>
      </trkpt>
      <trkpt lat="45.81842" lon="4.85385">
        <ele>169.2</ele>
        <time>2024-09-20T09:10:26Z</time>
      </trkpt>
      <trkpt lat="45.81837" lon="4.85381">
        <ele>169.2</ele>
        <time>2024-09-20T09:10:27Z</time>
      </trkpt>
      <trkpt lat="45.81833" lon="4.85376">
        <ele>169.2</ele>
        <time>2024-09-20T09:10:28Z</time>
      </trkpt>
      <trkpt lat="45.81829" lon="4.85372">
        <ele>169.2</ele>
        <time>2024-09-20T09:10:29Z</time>
      </trkpt>
      <trkpt lat="45.81825" lon="4.85367">
        <ele>169.2</ele>
        <time>2024-09-20T09:10:30Z</time>
      </trkpt>
      <trkpt lat="45.81821" lon="4.85363">
        <ele>169.2</ele>
        <time>2024-09-20T09:10:31Z</time>
      </trkpt>
      <trkpt lat="45.81817" lon="4.85359">
        <ele>169</ele>
        <time>2024-09-20T09:10:32Z</time>
      </trkpt>
      <trkpt lat="45.81812" lon="4.85354">
        <ele>169</ele>
        <time>2024-09-20T09:10:33Z</time>
      </trkpt>
      <trkpt lat="45.81808" lon="4.8535">
        <ele>169</ele>
        <time>2024-09-20T09:10:34Z</time>
      </trkpt>
      <trkpt lat="45.81804" lon="4.85346">
        <ele>169</ele>
        <time>2024-09-20T09:10:35Z</time>
      </trkpt>
      <trkpt lat="45.81801" lon="4.85342">
        <ele>169</ele>
        <time>2024-09-20T09:10:36Z</time>
      </trkpt>
      <trkpt lat="45.81797" lon="4.85337">
        <ele>169</ele>
        <time>2024-09-20T09:10:37Z</time>
      </trkpt>
      <trkpt lat="45.81794" lon="4.85333">
        <ele>169.2</ele>
        <time>2024-09-20T09:10:38Z</time>
      </trkpt>
      <trkpt lat="45.8179" lon="4.85329">
        <ele>169.2</ele>
        <time>2024-09-20T09:10:39Z</time>
      </trkpt>
      <trkpt lat="45.81787" lon="4.85325">
        <ele>169.2</ele>
        <time>2024-09-20T09:10:40Z</time>
      </trkpt>
      <trkpt lat="45.81783" lon="4.85321">
        <ele>169.2</ele>
        <time>2024-09-20T09:10:41Z</time>
      </trkpt>
      <trkpt lat="45.8178" lon="4.85317">
        <ele>169.2</ele>
        <time>2024-09-20T09:10:42Z</time>
      </trkpt>
      <trkpt lat="45.81776" lon="4.85313">
        <ele>169.2</ele>
        <time>2024-09-20T09:10:43Z</time>
      </trkpt>
      <trkpt lat="45.81773" lon="4.85309">
        <ele>169.2</ele>
        <time>2024-09-20T09:10:44Z</time>
      </trkpt>
      <trkpt lat="45.8177" lon="4.85304">
        <ele>169.2</ele>
        <time>2024-09-20T09:10:45Z</time>
      </trkpt>
      <trkpt lat="45.81767" lon="4.853">
        <ele>169</ele>
        <time>2024-09-20T09:10:46Z</time>
      </trkpt>
      <trkpt lat="45.81763" lon="4.85295">
        <ele>169</ele>
        <time>2024-09-20T09:10:47Z</time>
      </trkpt>
      <trkpt lat="45.8176" lon="4.8529">
        <ele>169</ele>
        <time>2024-09-20T09:10:48Z</time>
      </trkpt>
      <trkpt lat="45.81757" lon="4.85285">
        <ele>169</ele>
        <time>2024-09-20T09:10:49Z</time>
      </trkpt>
      <trkpt lat="45.81754" lon="4.85281">
        <ele>169.2</ele>
        <time>2024-09-20T09:10:50Z</time>
      </trkpt>
      <trkpt lat="45.81751" lon="4.85276">
        <ele>169</ele>
        <time>2024-09-20T09:10:51Z</time>
      </trkpt>
      <trkpt lat="45.81747" lon="4.85271">
        <ele>169</ele>
        <time>2024-09-20T09:10:52Z</time>
      </trkpt>
      <trkpt lat="45.81744" lon="4.85265">
        <ele>169</ele>
        <time>2024-09-20T09:10:53Z</time>
      </trkpt>
      <trkpt lat="45.81741" lon="4.8526">
        <ele>169</ele>
        <time>2024-09-20T09:10:54Z</time>
      </trkpt>
      <trkpt lat="45.81738" lon="4.85255">
        <ele>169</ele>
        <time>2024-09-20T09:10:55Z</time>
      </trkpt>
      <trkpt lat="45.81735" lon="4.8525">
        <ele>169</ele>
        <time>2024-09-20T09:10:56Z</time>
      </trkpt>
      <trkpt lat="45.81732" lon="4.85244">
        <ele>169</ele>
        <time>2024-09-20T09:10:57Z</time>
      </trkpt>
      <trkpt lat="45.81729" lon="4.85239">
        <ele>169</ele>
        <time>2024-09-20T09:10:58Z</time>
      </trkpt>
      <trkpt lat="45.81725" lon="4.85235">
        <ele>169</ele>
        <time>2024-09-20T09:10:59Z</time>
      </trkpt>
      <trkpt lat="45.81723" lon="4.8523">
        <ele>168.8</ele>
        <time>2024-09-20T09:11:00Z</time>
      </trkpt>
      <trkpt lat="45.8172" lon="4.85225">
        <ele>168.8</ele>
        <time>2024-09-20T09:11:01Z</time>
      </trkpt>
      <trkpt lat="45.81718" lon="4.85219">
        <ele>168.8</ele>
        <time>2024-09-20T09:11:02Z</time>
      </trkpt>
      <trkpt lat="45.81716" lon="4.85214">
        <ele>169.2</ele>
        <time>2024-09-20T09:11:03Z</time>
      </trkpt>
      <trkpt lat="45.81713" lon="4.85209">
        <ele>169.2</ele>
        <time>2024-09-20T09:11:04Z</time>
      </trkpt>
      <trkpt lat="45.81711" lon="4.85204">
        <ele>169.2</ele>
        <time>2024-09-20T09:11:05Z</time>
      </trkpt>
      <trkpt lat="45.81708" lon="4.85199">
        <ele>169.2</ele>
        <time>2024-09-20T09:11:06Z</time>
      </trkpt>
      <trkpt lat="45.81706" lon="4.85194">
        <ele>169.2</ele>
        <time>2024-09-20T09:11:07Z</time>
      </trkpt>
      <trkpt lat="45.81703" lon="4.85189">
        <ele>169.2</ele>
        <time>2024-09-20T09:11:08Z</time>
      </trkpt>
      <trkpt lat="45.81701" lon="4.85184">
        <ele>169</ele>
        <time>2024-09-20T09:11:09Z</time>
      </trkpt>
      <trkpt lat="45.81698" lon="4.85179">
        <ele>169</ele>
        <time>2024-09-20T09:11:10Z</time>
      </trkpt>
      <trkpt lat="45.81696" lon="4.85174">
        <ele>169</ele>
        <time>2024-09-20T09:11:11Z</time>
      </trkpt>
      <trkpt lat="45.81693" lon="4.85169">
        <ele>169.2</ele>
        <time>2024-09-20T09:11:12Z</time>
      </trkpt>
      <trkpt lat="45.81691" lon="4.85164">
        <ele>169.2</ele>
        <time>2024-09-20T09:11:13Z</time>
      </trkpt>
      <trkpt lat="45.81688" lon="4.85158">
        <ele>169.2</ele>
        <time>2024-09-20T09:11:14Z</time>
      </trkpt>
      <trkpt lat="45.81686" lon="4.85153">
        <ele>169.2</ele>
        <time>2024-09-20T09:11:15Z</time>
      </trkpt>
      <trkpt lat="45.81683" lon="4.85147">
        <ele>169</ele>
        <time>2024-09-20T09:11:16Z</time>
      </trkpt>
      <trkpt lat="45.81681" lon="4.85142">
        <ele>169</ele>
        <time>2024-09-20T09:11:17Z</time>
      </trkpt>
      <trkpt lat="45.81678" lon="4.85136">
        <ele>169</ele>
        <time>2024-09-20T09:11:18Z</time>
      </trkpt>
      <trkpt lat="45.81676" lon="4.8513">
        <ele>169</ele>
        <time>2024-09-20T09:11:19Z</time>
      </trkpt>
      <trkpt lat="45.81673" lon="4.85124">
        <ele>169</ele>
        <time>2024-09-20T09:11:20Z</time>
      </trkpt>
      <trkpt lat="45.81671" lon="4.85119">
        <ele>169</ele>
        <time>2024-09-20T09:11:21Z</time>
      </trkpt>
      <trkpt lat="45.81668" lon="4.85113">
        <ele>168.8</ele>
        <time>2024-09-20T09:11:22Z</time>
      </trkpt>
      <trkpt lat="45.81666" lon="4.85108">
        <ele>168.8</ele>
        <time>2024-09-20T09:11:23Z</time>
      </trkpt>
      <trkpt lat="45.81663" lon="4.85102">
        <ele>168.8</ele>
        <time>2024-09-20T09:11:24Z</time>
      </trkpt>
      <trkpt lat="45.81661" lon="4.85096">
        <ele>168.8</ele>
        <time>2024-09-20T09:11:25Z</time>
      </trkpt>
      <trkpt lat="45.81658" lon="4.8509">
        <ele>169</ele>
        <time>2024-09-20T09:11:26Z</time>
      </trkpt>
      <trkpt lat="45.81655" lon="4.85084">
        <ele>169.2</ele>
        <time>2024-09-20T09:11:27Z</time>
      </trkpt>
      <trkpt lat="45.81653" lon="4.85077">
        <ele>169.2</ele>
        <time>2024-09-20T09:11:28Z</time>
      </trkpt>
      <trkpt lat="45.8165" lon="4.85071">
        <ele>169.2</ele>
        <time>2024-09-20T09:11:29Z</time>
      </trkpt>
      <trkpt lat="45.81648" lon="4.85065">
        <ele>169.2</ele>
        <time>2024-09-20T09:11:30Z</time>
      </trkpt>
      <trkpt lat="45.81645" lon="4.85059">
        <ele>169.2</ele>
        <time>2024-09-20T09:11:31Z</time>
      </trkpt>
      <trkpt lat="45.81642" lon="4.85052">
        <ele>169.2</ele>
        <time>2024-09-20T09:11:32Z</time>
      </trkpt>
      <trkpt lat="45.8164" lon="4.85046">
        <ele>169.2</ele>
        <time>2024-09-20T09:11:33Z</time>
      </trkpt>
      <trkpt lat="45.81637" lon="4.8504">
        <ele>169.2</ele>
        <time>2024-09-20T09:11:34Z</time>
      </trkpt>
      <trkpt lat="45.81635" lon="4.85034">
        <ele>169.2</ele>
        <time>2024-09-20T09:11:35Z</time>
      </trkpt>
      <trkpt lat="45.81632" lon="4.85028">
        <ele>169</ele>
        <time>2024-09-20T09:11:36Z</time>
      </trkpt>
      <trkpt lat="45.8163" lon="4.85022">
        <ele>169</ele>
        <time>2024-09-20T09:11:37Z</time>
      </trkpt>
      <trkpt lat="45.81627" lon="4.85016">
        <ele>169</ele>
        <time>2024-09-20T09:11:38Z</time>
      </trkpt>
      <trkpt lat="45.81625" lon="4.8501">
        <ele>169</ele>
        <time>2024-09-20T09:11:39Z</time>
      </trkpt>
      <trkpt lat="45.81622" lon="4.85004">
        <ele>169.2</ele>
        <time>2024-09-20T09:11:40Z</time>
      </trkpt>
      <trkpt lat="45.8162" lon="4.84997">
        <ele>169.2</ele>
        <time>2024-09-20T09:11:41Z</time>
      </trkpt>
      <trkpt lat="45.81618" lon="4.84991">
        <ele>169.2</ele>
        <time>2024-09-20T09:11:42Z</time>
      </trkpt>
      <trkpt lat="45.81615" lon="4.84984">
        <ele>168.8</ele>
        <time>2024-09-20T09:11:43Z</time>
      </trkpt>
      <trkpt lat="45.81613" lon="4.84978">
        <ele>168.6</ele>
        <time>2024-09-20T09:11:44Z</time>
      </trkpt>
      <trkpt lat="45.81611" lon="4.84972">
        <ele>168.6</ele>
        <time>2024-09-20T09:11:45Z</time>
      </trkpt>
      <trkpt lat="45.81608" lon="4.84966">
        <ele>168.6</ele>
        <time>2024-09-20T09:11:46Z</time>
      </trkpt>
      <trkpt lat="45.81606" lon="4.8496">
        <ele>168.6</ele>
        <time>2024-09-20T09:11:47Z</time>
      </trkpt>
      <trkpt lat="45.81603" lon="4.84954">
        <ele>168.6</ele>
        <time>2024-09-20T09:11:48Z</time>
      </trkpt>
      <trkpt lat="45.81601" lon="4.84947">
        <ele>168.4</ele>
        <time>2024-09-20T09:11:49Z</time>
      </trkpt>
      <trkpt lat="45.81598" lon="4.84941">
        <ele>168.4</ele>
        <time>2024-09-20T09:11:50Z</time>
      </trkpt>
      <trkpt lat="45.81596" lon="4.84935">
        <ele>168.4</ele>
        <time>2024-09-20T09:11:51Z</time>
      </trkpt>
      <trkpt lat="45.81596" lon="4.84935">
        <ele>168.6</ele>
        <time>2024-09-20T09:11:52Z</time>
      </trkpt>
      <trkpt lat="45.81591" lon="4.84924">
        <ele>168.4</ele>
        <time>2024-09-20T09:11:53Z</time>
      </trkpt>
      <trkpt lat="45.81589" lon="4.84918">
        <ele>168.4</ele>
        <time>2024-09-20T09:11:54Z</time>
      </trkpt>
      <trkpt lat="45.81587" lon="4.84912">
        <ele>168.4</ele>
        <time>2024-09-20T09:11:55Z</time>
      </trkpt>
      <trkpt lat="45.81585" lon="4.84907">
        <ele>168.8</ele>
        <time>2024-09-20T09:11:56Z</time>
      </trkpt>
      <trkpt lat="45.81583" lon="4.84904">
        <ele>168.4</ele>
        <time>2024-09-20T09:11:57Z</time>
      </trkpt>
      <trkpt lat="45.81582" lon="4.849">
        <ele>168.4</ele>
        <time>2024-09-20T09:11:58Z</time>
      </trkpt>
      <trkpt lat="45.81582" lon="4.84897">
        <ele>168.4</ele>
        <time>2024-09-20T09:11:59Z</time>
      </trkpt>
      <trkpt lat="45.81583" lon="4.84893">
        <ele>168.4</ele>
        <time>2024-09-20T09:12:00Z</time>
      </trkpt>
      <trkpt lat="45.81584" lon="4.8489">
        <ele>168.4</ele>
        <time>2024-09-20T09:12:01Z</time>
      </trkpt>
      <trkpt lat="45.81585" lon="4.84886">
        <ele>168.4</ele>
        <time>2024-09-20T09:12:02Z</time>
      </trkpt>
      <trkpt lat="45.81584" lon="4.84881">
        <ele>168.6</ele>
        <time>2024-09-20T09:12:03Z</time>
      </trkpt>
      <trkpt lat="45.81583" lon="4.84876">
        <ele>168.6</ele>
        <time>2024-09-20T09:12:04Z</time>
      </trkpt>
      <trkpt lat="45.81581" lon="4.84872">
        <ele>168.6</ele>
        <time>2024-09-20T09:12:05Z</time>
      </trkpt>
      <trkpt lat="45.81579" lon="4.84867">
        <ele>168.2</ele>
        <time>2024-09-20T09:12:06Z</time>
      </trkpt>
      <trkpt lat="45.81577" lon="4.84862">
        <ele>168.2</ele>
        <time>2024-09-20T09:12:07Z</time>
      </trkpt>
      <trkpt lat="45.81575" lon="4.84856">
        <ele>168.4</ele>
        <time>2024-09-20T09:12:08Z</time>
      </trkpt>
      <trkpt lat="45.81573" lon="4.84851">
        <ele>168.4</ele>
        <time>2024-09-20T09:12:09Z</time>
      </trkpt>
      <trkpt lat="45.81571" lon="4.84845">
        <ele>168.4</ele>
        <time>2024-09-20T09:12:10Z</time>
      </trkpt>
      <trkpt lat="45.81569" lon="4.84839">
        <ele>168.4</ele>
        <time>2024-09-20T09:12:11Z</time>
      </trkpt>
      <trkpt lat="45.81566" lon="4.84833">
        <ele>168.4</ele>
        <time>2024-09-20T09:12:12Z</time>
      </trkpt>
      <trkpt lat="45.81564" lon="4.84827">
        <ele>168.4</ele>
        <time>2024-09-20T09:12:13Z</time>
      </trkpt>
      <trkpt lat="45.81562" lon="4.84821">
        <ele>168.4</ele>
        <time>2024-09-20T09:12:14Z</time>
      </trkpt>
      <trkpt lat="45.8156" lon="4.84815">
        <ele>168.4</ele>
        <time>2024-09-20T09:12:15Z</time>
      </trkpt>
      <trkpt lat="45.81557" lon="4.8481">
        <ele>168.6</ele>
        <time>2024-09-20T09:12:16Z</time>
      </trkpt>
      <trkpt lat="45.81555" lon="4.84804">
        <ele>168.6</ele>
        <time>2024-09-20T09:12:17Z</time>
      </trkpt>
      <trkpt lat="45.81553" lon="4.84798">
        <ele>168.6</ele>
        <time>2024-09-20T09:12:18Z</time>
      </trkpt>
      <trkpt lat="45.8155" lon="4.84791">
        <ele>168.6</ele>
        <time>2024-09-20T09:12:19Z</time>
      </trkpt>
      <trkpt lat="45.81548" lon="4.84785">
        <ele>168.6</ele>
        <time>2024-09-20T09:12:20Z</time>
      </trkpt>
      <trkpt lat="45.81545" lon="4.84779">
        <ele>168.6</ele>
        <time>2024-09-20T09:12:21Z</time>
      </trkpt>
      <trkpt lat="45.81543" lon="4.84773">
        <ele>168.6</ele>
        <time>2024-09-20T09:12:22Z</time>
      </trkpt>
      <trkpt lat="45.81541" lon="4.84767">
        <ele>168.6</ele>
        <time>2024-09-20T09:12:23Z</time>
      </trkpt>
      <trkpt lat="45.8154" lon="4.8476">
        <ele>168.6</ele>
        <time>2024-09-20T09:12:24Z</time>
      </trkpt>
      <trkpt lat="45.81538" lon="4.84754">
        <ele>168.6</ele>
        <time>2024-09-20T09:12:25Z</time>
      </trkpt>
      <trkpt lat="45.81536" lon="4.84748">
        <ele>168.8</ele>
        <time>2024-09-20T09:12:26Z</time>
      </trkpt>
      <trkpt lat="45.81534" lon="4.84741">
        <ele>168.8</ele>
        <time>2024-09-20T09:12:27Z</time>
      </trkpt>
      <trkpt lat="45.81532" lon="4.84735">
        <ele>169</ele>
        <time>2024-09-20T09:12:28Z</time>
      </trkpt>
      <trkpt lat="45.81531" lon="4.84729">
        <ele>169.2</ele>
        <time>2024-09-20T09:12:29Z</time>
      </trkpt>
      <trkpt lat="45.81529" lon="4.84723">
        <ele>169.2</ele>
        <time>2024-09-20T09:12:30Z</time>
      </trkpt>
      <trkpt lat="45.81527" lon="4.84717">
        <ele>169.2</ele>
        <time>2024-09-20T09:12:31Z</time>
      </trkpt>
      <trkpt lat="45.81526" lon="4.84712">
        <ele>169.2</ele>
        <time>2024-09-20T09:12:32Z</time>
      </trkpt>
      <trkpt lat="45.81524" lon="4.84707">
        <ele>169.2</ele>
        <time>2024-09-20T09:12:33Z</time>
      </trkpt>
      <trkpt lat="45.81523" lon="4.84701">
        <ele>169.4</ele>
        <time>2024-09-20T09:12:34Z</time>
      </trkpt>
      <trkpt lat="45.81521" lon="4.84696">
        <ele>169.4</ele>
        <time>2024-09-20T09:12:35Z</time>
      </trkpt>
      <trkpt lat="45.8152" lon="4.8469">
        <ele>169.4</ele>
        <time>2024-09-20T09:12:36Z</time>
      </trkpt>
      <trkpt lat="45.81518" lon="4.84685">
        <ele>169.4</ele>
        <time>2024-09-20T09:12:37Z</time>
      </trkpt>
      <trkpt lat="45.81516" lon="4.8468">
        <ele>170</ele>
        <time>2024-09-20T09:12:38Z</time>
      </trkpt>
      <trkpt lat="45.81514" lon="4.84675">
        <ele>170</ele>
        <time>2024-09-20T09:12:39Z</time>
      </trkpt>
      <trkpt lat="45.81512" lon="4.8467">
        <ele>170</ele>
        <time>2024-09-20T09:12:40Z</time>
      </trkpt>
      <trkpt lat="45.8151" lon="4.84665">
        <ele>170.8</ele>
        <time>2024-09-20T09:12:41Z</time>
      </trkpt>
      <trkpt lat="45.81508" lon="4.8466">
        <ele>170.8</ele>
        <time>2024-09-20T09:12:42Z</time>
      </trkpt>
      <trkpt lat="45.81506" lon="4.84655">
        <ele>170.8</ele>
        <time>2024-09-20T09:12:43Z</time>
      </trkpt>
      <trkpt lat="45.81504" lon="4.84651">
        <ele>170.8</ele>
        <time>2024-09-20T09:12:44Z</time>
      </trkpt>
      <trkpt lat="45.81503" lon="4.84647">
        <ele>170.8</ele>
        <time>2024-09-20T09:12:45Z</time>
      </trkpt>
      <trkpt lat="45.81501" lon="4.84642">
        <ele>170.8</ele>
        <time>2024-09-20T09:12:46Z</time>
      </trkpt>
      <trkpt lat="45.815" lon="4.84638">
        <ele>171.8</ele>
        <time>2024-09-20T09:12:47Z</time>
      </trkpt>
      <trkpt lat="45.81499" lon="4.84633">
        <ele>171.8</ele>
        <time>2024-09-20T09:12:48Z</time>
      </trkpt>
      <trkpt lat="45.81498" lon="4.84628">
        <ele>171.8</ele>
        <time>2024-09-20T09:12:49Z</time>
      </trkpt>
      <trkpt lat="45.81497" lon="4.84623">
        <ele>171.8</ele>
        <time>2024-09-20T09:12:50Z</time>
      </trkpt>
      <trkpt lat="45.81494" lon="4.8462">
        <ele>172</ele>
        <time>2024-09-20T09:12:51Z</time>
      </trkpt>
      <trkpt lat="45.81492" lon="4.84617">
        <ele>172</ele>
        <time>2024-09-20T09:12:52Z</time>
      </trkpt>
      <trkpt lat="45.81488" lon="4.84616">
        <ele>172</ele>
        <time>2024-09-20T09:12:53Z</time>
      </trkpt>
      <trkpt lat="45.81486" lon="4.84616">
        <ele>172</ele>
        <time>2024-09-20T09:12:54Z</time>
      </trkpt>
      <trkpt lat="45.81483" lon="4.84618">
        <ele>172.2</ele>
        <time>2024-09-20T09:12:55Z</time>
      </trkpt>
      <trkpt lat="45.81481" lon="4.84619">
        <ele>172.2</ele>
        <time>2024-09-20T09:12:56Z</time>
      </trkpt>
      <trkpt lat="45.81478" lon="4.8462">
        <ele>172.2</ele>
        <time>2024-09-20T09:12:57Z</time>
      </trkpt>
      <trkpt lat="45.81476" lon="4.8462">
        <ele>172.2</ele>
        <time>2024-09-20T09:12:58Z</time>
      </trkpt>
      <trkpt lat="45.81473" lon="4.84619">
        <ele>172.2</ele>
        <time>2024-09-20T09:12:59Z</time>
      </trkpt>
      <trkpt lat="45.81471" lon="4.84616">
        <ele>171.8</ele>
        <time>2024-09-20T09:13:00Z</time>
      </trkpt>
      <trkpt lat="45.81469" lon="4.84613">
        <ele>171.8</ele>
        <time>2024-09-20T09:13:01Z</time>
      </trkpt>
      <trkpt lat="45.81468" lon="4.8461">
        <ele>171.8</ele>
        <time>2024-09-20T09:13:02Z</time>
      </trkpt>
      <trkpt lat="45.81466" lon="4.84606">
        <ele>171.8</ele>
        <time>2024-09-20T09:13:03Z</time>
      </trkpt>
      <trkpt lat="45.81465" lon="4.84602">
        <ele>171.4</ele>
        <time>2024-09-20T09:13:04Z</time>
      </trkpt>
      <trkpt lat="45.81463" lon="4.84598">
        <ele>171.4</ele>
        <time>2024-09-20T09:13:05Z</time>
      </trkpt>
      <trkpt lat="45.81461" lon="4.84594">
        <ele>171.4</ele>
        <time>2024-09-20T09:13:06Z</time>
      </trkpt>
      <trkpt lat="45.81459" lon="4.8459">
        <ele>171.4</ele>
        <time>2024-09-20T09:13:07Z</time>
      </trkpt>
      <trkpt lat="45.81456" lon="4.84587">
        <ele>171</ele>
        <time>2024-09-20T09:13:08Z</time>
      </trkpt>
      <trkpt lat="45.81453" lon="4.84584">
        <ele>170.8</ele>
        <time>2024-09-20T09:13:09Z</time>
      </trkpt>
      <trkpt lat="45.8145" lon="4.8458">
        <ele>170.8</ele>
        <time>2024-09-20T09:13:10Z</time>
      </trkpt>
      <trkpt lat="45.81448" lon="4.84577">
        <ele>170.8</ele>
        <time>2024-09-20T09:13:11Z</time>
      </trkpt>
      <trkpt lat="45.81445" lon="4.84573">
        <ele>170.8</ele>
        <time>2024-09-20T09:13:12Z</time>
      </trkpt>
      <trkpt lat="45.81442" lon="4.84569">
        <ele>170.4</ele>
        <time>2024-09-20T09:13:13Z</time>
      </trkpt>
      <trkpt lat="45.81438" lon="4.84565">
        <ele>170.4</ele>
        <time>2024-09-20T09:13:14Z</time>
      </trkpt>
      <trkpt lat="45.81434" lon="4.84561">
        <ele>170.4</ele>
        <time>2024-09-20T09:13:15Z</time>
      </trkpt>
      <trkpt lat="45.81431" lon="4.84557">
        <ele>170.4</ele>
        <time>2024-09-20T09:13:16Z</time>
      </trkpt>
      <trkpt lat="45.81427" lon="4.84553">
        <ele>170</ele>
        <time>2024-09-20T09:13:17Z</time>
      </trkpt>
      <trkpt lat="45.81424" lon="4.84548">
        <ele>169.8</ele>
        <time>2024-09-20T09:13:18Z</time>
      </trkpt>
      <trkpt lat="45.8142" lon="4.84544">
        <ele>169.8</ele>
        <time>2024-09-20T09:13:19Z</time>
      </trkpt>
      <trkpt lat="45.81417" lon="4.84539">
        <ele>169.8</ele>
        <time>2024-09-20T09:13:20Z</time>
      </trkpt>
      <trkpt lat="45.81413" lon="4.84534">
        <ele>169.6</ele>
        <time>2024-09-20T09:13:21Z</time>
      </trkpt>
      <trkpt lat="45.81408" lon="4.8453">
        <ele>169.6</ele>
        <time>2024-09-20T09:13:22Z</time>
      </trkpt>
      <trkpt lat="45.81404" lon="4.84525">
        <ele>169.4</ele>
        <time>2024-09-20T09:13:23Z</time>
      </trkpt>
      <trkpt lat="45.814" lon="4.8452">
        <ele>169.4</ele>
        <time>2024-09-20T09:13:24Z</time>
      </trkpt>
      <trkpt lat="45.81396" lon="4.84515">
        <ele>169.4</ele>
        <time>2024-09-20T09:13:25Z</time>
      </trkpt>
      <trkpt lat="45.81392" lon="4.8451">
        <ele>169.2</ele>
        <time>2024-09-20T09:13:26Z</time>
      </trkpt>
      <trkpt lat="45.81387" lon="4.84505">
        <ele>169.2</ele>
        <time>2024-09-20T09:13:27Z</time>
      </trkpt>
      <trkpt lat="45.81383" lon="4.84499">
        <ele>169.2</ele>
        <time>2024-09-20T09:13:28Z</time>
      </trkpt>
      <trkpt lat="45.81379" lon="4.84494">
        <ele>169.2</ele>
        <time>2024-09-20T09:13:29Z</time>
      </trkpt>
      <trkpt lat="45.81375" lon="4.84489">
        <ele>169.2</ele>
        <time>2024-09-20T09:13:30Z</time>
      </trkpt>
      <trkpt lat="45.81371" lon="4.84484">
        <ele>168.8</ele>
        <time>2024-09-20T09:13:31Z</time>
      </trkpt>
      <trkpt lat="45.81367" lon="4.84479">
        <ele>168.8</ele>
        <time>2024-09-20T09:13:32Z</time>
      </trkpt>
      <trkpt lat="45.81363" lon="4.84474">
        <ele>168.8</ele>
        <time>2024-09-20T09:13:33Z</time>
      </trkpt>
      <trkpt lat="45.81359" lon="4.84469">
        <ele>168.8</ele>
        <time>2024-09-20T09:13:34Z</time>
      </trkpt>
      <trkpt lat="45.81355" lon="4.84464">
        <ele>168.8</ele>
        <time>2024-09-20T09:13:35Z</time>
      </trkpt>
      <trkpt lat="45.81351" lon="4.84459">
        <ele>168.8</ele>
        <time>2024-09-20T09:13:36Z</time>
      </trkpt>
      <trkpt lat="45.81347" lon="4.84454">
        <ele>168.6</ele>
        <time>2024-09-20T09:13:37Z</time>
      </trkpt>
      <trkpt lat="45.81343" lon="4.8445">
        <ele>168.6</ele>
        <time>2024-09-20T09:13:38Z</time>
      </trkpt>
      <trkpt lat="45.81339" lon="4.84445">
        <ele>168.6</ele>
        <time>2024-09-20T09:13:39Z</time>
      </trkpt>
      <trkpt lat="45.81335" lon="4.8444">
        <ele>169</ele>
        <time>2024-09-20T09:13:40Z</time>
      </trkpt>
      <trkpt lat="45.81332" lon="4.84436">
        <ele>168.8</ele>
        <time>2024-09-20T09:13:41Z</time>
      </trkpt>
      <trkpt lat="45.81328" lon="4.84432">
        <ele>168.8</ele>
        <time>2024-09-20T09:13:42Z</time>
      </trkpt>
      <trkpt lat="45.81324" lon="4.84428">
        <ele>168.8</ele>
        <time>2024-09-20T09:13:43Z</time>
      </trkpt>
      <trkpt lat="45.8132" lon="4.84423">
        <ele>168.8</ele>
        <time>2024-09-20T09:13:44Z</time>
      </trkpt>
      <trkpt lat="45.81316" lon="4.84419">
        <ele>168.8</ele>
        <time>2024-09-20T09:13:45Z</time>
      </trkpt>
      <trkpt lat="45.81313" lon="4.84415">
        <ele>168.8</ele>
        <time>2024-09-20T09:13:46Z</time>
      </trkpt>
      <trkpt lat="45.81309" lon="4.8441">
        <ele>168.8</ele>
        <time>2024-09-20T09:13:47Z</time>
      </trkpt>
      <trkpt lat="45.81305" lon="4.84406">
        <ele>168.8</ele>
        <time>2024-09-20T09:13:48Z</time>
      </trkpt>
      <trkpt lat="45.81301" lon="4.84401">
        <ele>168.8</ele>
        <time>2024-09-20T09:13:49Z</time>
      </trkpt>
      <trkpt lat="45.81298" lon="4.84396">
        <ele>168.8</ele>
        <time>2024-09-20T09:13:50Z</time>
      </trkpt>
      <trkpt lat="45.81294" lon="4.84392">
        <ele>168.8</ele>
        <time>2024-09-20T09:13:51Z</time>
      </trkpt>
      <trkpt lat="45.8129" lon="4.84387">
        <ele>168.8</ele>
        <time>2024-09-20T09:13:52Z</time>
      </trkpt>
      <trkpt lat="45.81287" lon="4.84382">
        <ele>168.8</ele>
        <time>2024-09-20T09:13:53Z</time>
      </trkpt>
      <trkpt lat="45.81283" lon="4.84377">
        <ele>168.8</ele>
        <time>2024-09-20T09:13:54Z</time>
      </trkpt>
      <trkpt lat="45.81279" lon="4.84372">
        <ele>168.8</ele>
        <time>2024-09-20T09:13:55Z</time>
      </trkpt>
      <trkpt lat="45.81275" lon="4.84367">
        <ele>168.8</ele>
        <time>2024-09-20T09:13:56Z</time>
      </trkpt>
      <trkpt lat="45.81271" lon="4.84363">
        <ele>168.8</ele>
        <time>2024-09-20T09:13:57Z</time>
      </trkpt>
      <trkpt lat="45.81267" lon="4.84358">
        <ele>168.8</ele>
        <time>2024-09-20T09:13:58Z</time>
      </trkpt>
      <trkpt lat="45.81263" lon="4.84353">
        <ele>168.8</ele>
        <time>2024-09-20T09:13:59Z</time>
      </trkpt>
      <trkpt lat="45.81259" lon="4.84349">
        <ele>168.8</ele>
        <time>2024-09-20T09:14:00Z</time>
      </trkpt>
      <trkpt lat="45.81255" lon="4.84345">
        <ele>168.8</ele>
        <time>2024-09-20T09:14:01Z</time>
      </trkpt>
      <trkpt lat="45.8125" lon="4.8434">
        <ele>168.8</ele>
        <time>2024-09-20T09:14:02Z</time>
      </trkpt>
      <trkpt lat="45.81246" lon="4.84336">
        <ele>168.8</ele>
        <time>2024-09-20T09:14:03Z</time>
      </trkpt>
      <trkpt lat="45.81242" lon="4.84333">
        <ele>168.8</ele>
        <time>2024-09-20T09:14:04Z</time>
      </trkpt>
      <trkpt lat="45.81238" lon="4.84329">
        <ele>168.8</ele>
        <time>2024-09-20T09:14:05Z</time>
      </trkpt>
      <trkpt lat="45.81233" lon="4.84324">
        <ele>169</ele>
        <time>2024-09-20T09:14:06Z</time>
      </trkpt>
      <trkpt lat="45.81229" lon="4.8432">
        <ele>169.2</ele>
        <time>2024-09-20T09:14:07Z</time>
      </trkpt>
      <trkpt lat="45.81225" lon="4.84316">
        <ele>169.2</ele>
        <time>2024-09-20T09:14:08Z</time>
      </trkpt>
      <trkpt lat="45.81221" lon="4.84312">
        <ele>169.2</ele>
        <time>2024-09-20T09:14:09Z</time>
      </trkpt>
      <trkpt lat="45.81217" lon="4.84308">
        <ele>169.2</ele>
        <time>2024-09-20T09:14:10Z</time>
      </trkpt>
      <trkpt lat="45.81212" lon="4.84305">
        <ele>169.2</ele>
        <time>2024-09-20T09:14:11Z</time>
      </trkpt>
      <trkpt lat="45.81208" lon="4.84301">
        <ele>168.8</ele>
        <time>2024-09-20T09:14:12Z</time>
      </trkpt>
      <trkpt lat="45.81204" lon="4.84297">
        <ele>169</ele>
        <time>2024-09-20T09:14:13Z</time>
      </trkpt>
      <trkpt lat="45.812" lon="4.84294">
        <ele>169</ele>
        <time>2024-09-20T09:14:14Z</time>
      </trkpt>
      <trkpt lat="45.81195" lon="4.8429">
        <ele>169</ele>
        <time>2024-09-20T09:14:15Z</time>
      </trkpt>
      <trkpt lat="45.81191" lon="4.84286">
        <ele>169</ele>
        <time>2024-09-20T09:14:16Z</time>
      </trkpt>
      <trkpt lat="45.81186" lon="4.84283">
        <ele>168.8</ele>
        <time>2024-09-20T09:14:17Z</time>
      </trkpt>
      <trkpt lat="45.81181" lon="4.84279">
        <ele>168.8</ele>
        <time>2024-09-20T09:14:18Z</time>
      </trkpt>
      <trkpt lat="45.81177" lon="4.84276">
        <ele>168.8</ele>
        <time>2024-09-20T09:14:19Z</time>
      </trkpt>
      <trkpt lat="45.81172" lon="4.84273">
        <ele>168.8</ele>
        <time>2024-09-20T09:14:20Z</time>
      </trkpt>
      <trkpt lat="45.81167" lon="4.8427">
        <ele>169</ele>
        <time>2024-09-20T09:14:21Z</time>
      </trkpt>
      <trkpt lat="45.81162" lon="4.84266">
        <ele>169</ele>
        <time>2024-09-20T09:14:22Z</time>
      </trkpt>
      <trkpt lat="45.81158" lon="4.84263">
        <ele>169</ele>
        <time>2024-09-20T09:14:23Z</time>
      </trkpt>
      <trkpt lat="45.81153" lon="4.8426">
        <ele>169</ele>
        <time>2024-09-20T09:14:24Z</time>
      </trkpt>
      <trkpt lat="45.81148" lon="4.84258">
        <ele>169</ele>
        <time>2024-09-20T09:14:25Z</time>
      </trkpt>
      <trkpt lat="45.81143" lon="4.84255">
        <ele>169</ele>
        <time>2024-09-20T09:14:26Z</time>
      </trkpt>
      <trkpt lat="45.81138" lon="4.84252">
        <ele>168.8</ele>
        <time>2024-09-20T09:14:27Z</time>
      </trkpt>
      <trkpt lat="45.81133" lon="4.84249">
        <ele>168.8</ele>
        <time>2024-09-20T09:14:28Z</time>
      </trkpt>
      <trkpt lat="45.81128" lon="4.84246">
        <ele>169</ele>
        <time>2024-09-20T09:14:29Z</time>
      </trkpt>
      <trkpt lat="45.81123" lon="4.84244">
        <ele>169</ele>
        <time>2024-09-20T09:14:30Z</time>
      </trkpt>
      <trkpt lat="45.81119" lon="4.84241">
        <ele>169</ele>
        <time>2024-09-20T09:14:31Z</time>
      </trkpt>
      <trkpt lat="45.81114" lon="4.84239">
        <ele>169</ele>
        <time>2024-09-20T09:14:32Z</time>
      </trkpt>
      <trkpt lat="45.81109" lon="4.84236">
        <ele>169</ele>
        <time>2024-09-20T09:14:33Z</time>
      </trkpt>
      <trkpt lat="45.81104" lon="4.84234">
        <ele>169</ele>
        <time>2024-09-20T09:14:34Z</time>
      </trkpt>
      <trkpt lat="45.81099" lon="4.84231">
        <ele>168.6</ele>
        <time>2024-09-20T09:14:35Z</time>
      </trkpt>
      <trkpt lat="45.81094" lon="4.84229">
        <ele>168.6</ele>
        <time>2024-09-20T09:14:36Z</time>
      </trkpt>
      <trkpt lat="45.81089" lon="4.84226">
        <ele>168.6</ele>
        <time>2024-09-20T09:14:37Z</time>
      </trkpt>
      <trkpt lat="45.81084" lon="4.84224">
        <ele>168.8</ele>
        <time>2024-09-20T09:14:38Z</time>
      </trkpt>
      <trkpt lat="45.81079" lon="4.84223">
        <ele>168.8</ele>
        <time>2024-09-20T09:14:39Z</time>
      </trkpt>
      <trkpt lat="45.81074" lon="4.84222">
        <ele>168.8</ele>
        <time>2024-09-20T09:14:40Z</time>
      </trkpt>
      <trkpt lat="45.8107" lon="4.8422">
        <ele>168.8</ele>
        <time>2024-09-20T09:14:41Z</time>
      </trkpt>
      <trkpt lat="45.81065" lon="4.84219">
        <ele>168.8</ele>
        <time>2024-09-20T09:14:42Z</time>
      </trkpt>
      <trkpt lat="45.81061" lon="4.84217">
        <ele>168.6</ele>
        <time>2024-09-20T09:14:43Z</time>
      </trkpt>
      <trkpt lat="45.81056" lon="4.84215">
        <ele>168.4</ele>
        <time>2024-09-20T09:14:44Z</time>
      </trkpt>
      <trkpt lat="45.81051" lon="4.84213">
        <ele>168.4</ele>
        <time>2024-09-20T09:14:45Z</time>
      </trkpt>
      <trkpt lat="45.81047" lon="4.84212">
        <ele>168.4</ele>
        <time>2024-09-20T09:14:46Z</time>
      </trkpt>
      <trkpt lat="45.81043" lon="4.8421">
        <ele>169</ele>
        <time>2024-09-20T09:14:47Z</time>
      </trkpt>
      <trkpt lat="45.81038" lon="4.84209">
        <ele>169.2</ele>
        <time>2024-09-20T09:14:48Z</time>
      </trkpt>
      <trkpt lat="45.81033" lon="4.84207">
        <ele>169.2</ele>
        <time>2024-09-20T09:14:49Z</time>
      </trkpt>
      <trkpt lat="45.81029" lon="4.84206">
        <ele>169.2</ele>
        <time>2024-09-20T09:14:50Z</time>
      </trkpt>
      <trkpt lat="45.81024" lon="4.84206">
        <ele>169.2</ele>
        <time>2024-09-20T09:14:51Z</time>
      </trkpt>
      <trkpt lat="45.8102" lon="4.84205">
        <ele>169.2</ele>
        <time>2024-09-20T09:14:52Z</time>
      </trkpt>
      <trkpt lat="45.81015" lon="4.84204">
        <ele>169.2</ele>
        <time>2024-09-20T09:14:53Z</time>
      </trkpt>
      <trkpt lat="45.8101" lon="4.84203">
        <ele>169.2</ele>
        <time>2024-09-20T09:14:54Z</time>
      </trkpt>
      <trkpt lat="45.81006" lon="4.84201">
        <ele>169.2</ele>
        <time>2024-09-20T09:14:55Z</time>
      </trkpt>
      <trkpt lat="45.81001" lon="4.84201">
        <ele>169.2</ele>
        <time>2024-09-20T09:14:56Z</time>
      </trkpt>
      <trkpt lat="45.80996" lon="4.842">
        <ele>169.2</ele>
        <time>2024-09-20T09:14:57Z</time>
      </trkpt>
      <trkpt lat="45.80991" lon="4.842">
        <ele>169.2</ele>
        <time>2024-09-20T09:14:58Z</time>
      </trkpt>
      <trkpt lat="45.80986" lon="4.84199">
        <ele>169.2</ele>
        <time>2024-09-20T09:14:59Z</time>
      </trkpt>
      <trkpt lat="45.80982" lon="4.84198">
        <ele>169.2</ele>
        <time>2024-09-20T09:15:00Z</time>
      </trkpt>
      <trkpt lat="45.80977" lon="4.84198">
        <ele>169.2</ele>
        <time>2024-09-20T09:15:01Z</time>
      </trkpt>
      <trkpt lat="45.80972" lon="4.84198">
        <ele>169.2</ele>
        <time>2024-09-20T09:15:02Z</time>
      </trkpt>
      <trkpt lat="45.80968" lon="4.84197">
        <ele>169.4</ele>
        <time>2024-09-20T09:15:03Z</time>
      </trkpt>
      <trkpt lat="45.80963" lon="4.84197">
        <ele>169.4</ele>
        <time>2024-09-20T09:15:04Z</time>
      </trkpt>
      <trkpt lat="45.80958" lon="4.84197">
        <ele>169.4</ele>
        <time>2024-09-20T09:15:05Z</time>
      </trkpt>
      <trkpt lat="45.80953" lon="4.84197">
        <ele>169.4</ele>
        <time>2024-09-20T09:15:06Z</time>
      </trkpt>
      <trkpt lat="45.80948" lon="4.84197">
        <ele>169.2</ele>
        <time>2024-09-20T09:15:07Z</time>
      </trkpt>
      <trkpt lat="45.80943" lon="4.84196">
        <ele>169.2</ele>
        <time>2024-09-20T09:15:08Z</time>
      </trkpt>
      <trkpt lat="45.80938" lon="4.84196">
        <ele>169.2</ele>
        <time>2024-09-20T09:15:09Z</time>
      </trkpt>
      <trkpt lat="45.80933" lon="4.84195">
        <ele>169.2</ele>
        <time>2024-09-20T09:15:10Z</time>
      </trkpt>
      <trkpt lat="45.80928" lon="4.84195">
        <ele>169.2</ele>
        <time>2024-09-20T09:15:11Z</time>
      </trkpt>
      <trkpt lat="45.80924" lon="4.84195">
        <ele>169.2</ele>
        <time>2024-09-20T09:15:12Z</time>
      </trkpt>
      <trkpt lat="45.80919" lon="4.84195">
        <ele>169.2</ele>
        <time>2024-09-20T09:15:13Z</time>
      </trkpt>
      <trkpt lat="45.80914" lon="4.84195">
        <ele>169.2</ele>
        <time>2024-09-20T09:15:14Z</time>
      </trkpt>
      <trkpt lat="45.80909" lon="4.84195">
        <ele>169.4</ele>
        <time>2024-09-20T09:15:15Z</time>
      </trkpt>
      <trkpt lat="45.80904" lon="4.84195">
        <ele>169.4</ele>
        <time>2024-09-20T09:15:16Z</time>
      </trkpt>
      <trkpt lat="45.80899" lon="4.84195">
        <ele>169.4</ele>
        <time>2024-09-20T09:15:17Z</time>
      </trkpt>
      <trkpt lat="45.80894" lon="4.84195">
        <ele>169.4</ele>
        <time>2024-09-20T09:15:18Z</time>
      </trkpt>
      <trkpt lat="45.8089" lon="4.84195">
        <ele>169.4</ele>
        <time>2024-09-20T09:15:19Z</time>
      </trkpt>
      <trkpt lat="45.80885" lon="4.84195">
        <ele>169.4</ele>
        <time>2024-09-20T09:15:20Z</time>
      </trkpt>
      <trkpt lat="45.8088" lon="4.84195">
        <ele>169.2</ele>
        <time>2024-09-20T09:15:21Z</time>
      </trkpt>
      <trkpt lat="45.80875" lon="4.84196">
        <ele>169.2</ele>
        <time>2024-09-20T09:15:22Z</time>
      </trkpt>
      <trkpt lat="45.8087" lon="4.84195">
        <ele>169.2</ele>
        <time>2024-09-20T09:15:23Z</time>
      </trkpt>
      <trkpt lat="45.80865" lon="4.84195">
        <ele>169.2</ele>
        <time>2024-09-20T09:15:24Z</time>
      </trkpt>
      <trkpt lat="45.8086" lon="4.84196">
        <ele>169.2</ele>
        <time>2024-09-20T09:15:25Z</time>
      </trkpt>
      <trkpt lat="45.80855" lon="4.84195">
        <ele>169.2</ele>
        <time>2024-09-20T09:15:26Z</time>
      </trkpt>
      <trkpt lat="45.8085" lon="4.84195">
        <ele>169.2</ele>
        <time>2024-09-20T09:15:27Z</time>
      </trkpt>
      <trkpt lat="45.80845" lon="4.84195">
        <ele>169.2</ele>
        <time>2024-09-20T09:15:28Z</time>
      </trkpt>
      <trkpt lat="45.8084" lon="4.84195">
        <ele>169</ele>
        <time>2024-09-20T09:15:29Z</time>
      </trkpt>
      <trkpt lat="45.80835" lon="4.84194">
        <ele>169</ele>
        <time>2024-09-20T09:15:30Z</time>
      </trkpt>
      <trkpt lat="45.8083" lon="4.84193">
        <ele>169</ele>
        <time>2024-09-20T09:15:31Z</time>
      </trkpt>
      <trkpt lat="45.80825" lon="4.84193">
        <ele>169</ele>
        <time>2024-09-20T09:15:32Z</time>
      </trkpt>
      <trkpt lat="45.80821" lon="4.84192">
        <ele>169.2</ele>
        <time>2024-09-20T09:15:33Z</time>
      </trkpt>
      <trkpt lat="45.80816" lon="4.84192">
        <ele>169.2</ele>
        <time>2024-09-20T09:15:34Z</time>
      </trkpt>
      <trkpt lat="45.80811" lon="4.84191">
        <ele>169.2</ele>
        <time>2024-09-20T09:15:35Z</time>
      </trkpt>
      <trkpt lat="45.80806" lon="4.8419">
        <ele>169.2</ele>
        <time>2024-09-20T09:15:36Z</time>
      </trkpt>
      <trkpt lat="45.80801" lon="4.8419">
        <ele>169.2</ele>
        <time>2024-09-20T09:15:37Z</time>
      </trkpt>
      <trkpt lat="45.80796" lon="4.84189">
        <ele>169.2</ele>
        <time>2024-09-20T09:15:38Z</time>
      </trkpt>
      <trkpt lat="45.80792" lon="4.84189">
        <ele>169.2</ele>
        <time>2024-09-20T09:15:39Z</time>
      </trkpt>
      <trkpt lat="45.80787" lon="4.84188">
        <ele>169.2</ele>
        <time>2024-09-20T09:15:40Z</time>
      </trkpt>
      <trkpt lat="45.80782" lon="4.84188">
        <ele>169.2</ele>
        <time>2024-09-20T09:15:41Z</time>
      </trkpt>
      <trkpt lat="45.80777" lon="4.84187">
        <ele>169.2</ele>
        <time>2024-09-20T09:15:42Z</time>
      </trkpt>
      <trkpt lat="45.80772" lon="4.84186">
        <ele>169.2</ele>
        <time>2024-09-20T09:15:43Z</time>
      </trkpt>
      <trkpt lat="45.80768" lon="4.84185">
        <ele>169.2</ele>
        <time>2024-09-20T09:15:44Z</time>
      </trkpt>
      <trkpt lat="45.80763" lon="4.84184">
        <ele>169.2</ele>
        <time>2024-09-20T09:15:45Z</time>
      </trkpt>
      <trkpt lat="45.80758" lon="4.84183">
        <ele>169.4</ele>
        <time>2024-09-20T09:15:46Z</time>
      </trkpt>
      <trkpt lat="45.80753" lon="4.84182">
        <ele>169.2</ele>
        <time>2024-09-20T09:15:47Z</time>
      </trkpt>
      <trkpt lat="45.80748" lon="4.84181">
        <ele>169.2</ele>
        <time>2024-09-20T09:15:48Z</time>
      </trkpt>
      <trkpt lat="45.80743" lon="4.84179">
        <ele>169.2</ele>
        <time>2024-09-20T09:15:49Z</time>
      </trkpt>
      <trkpt lat="45.80738" lon="4.84178">
        <ele>169.2</ele>
        <time>2024-09-20T09:15:50Z</time>
      </trkpt>
      <trkpt lat="45.80734" lon="4.84176">
        <ele>169</ele>
        <time>2024-09-20T09:15:51Z</time>
      </trkpt>
      <trkpt lat="45.80729" lon="4.84175">
        <ele>169.4</ele>
        <time>2024-09-20T09:15:52Z</time>
      </trkpt>
      <trkpt lat="45.80724" lon="4.84174">
        <ele>169.4</ele>
        <time>2024-09-20T09:15:53Z</time>
      </trkpt>
      <trkpt lat="45.80719" lon="4.84173">
        <ele>169.4</ele>
        <time>2024-09-20T09:15:54Z</time>
      </trkpt>
      <trkpt lat="45.80714" lon="4.84171">
        <ele>169.4</ele>
        <time>2024-09-20T09:15:55Z</time>
      </trkpt>
      <trkpt lat="45.8071" lon="4.84169">
        <ele>169.4</ele>
        <time>2024-09-20T09:15:56Z</time>
      </trkpt>
      <trkpt lat="45.80705" lon="4.84168">
        <ele>169.8</ele>
        <time>2024-09-20T09:15:57Z</time>
      </trkpt>
      <trkpt lat="45.80701" lon="4.84167">
        <ele>169.8</ele>
        <time>2024-09-20T09:15:58Z</time>
      </trkpt>
      <trkpt lat="45.80696" lon="4.84165">
        <ele>169.8</ele>
        <time>2024-09-20T09:15:59Z</time>
      </trkpt>
      <trkpt lat="45.80692" lon="4.84164">
        <ele>169.4</ele>
        <time>2024-09-20T09:16:00Z</time>
      </trkpt>
      <trkpt lat="45.80687" lon="4.84162">
        <ele>169.2</ele>
        <time>2024-09-20T09:16:01Z</time>
      </trkpt>
      <trkpt lat="45.80683" lon="4.84161">
        <ele>169.2</ele>
        <time>2024-09-20T09:16:02Z</time>
      </trkpt>
      <trkpt lat="45.80678" lon="4.84159">
        <ele>169.2</ele>
        <time>2024-09-20T09:16:03Z</time>
      </trkpt>
      <trkpt lat="45.80674" lon="4.84158">
        <ele>169.2</ele>
        <time>2024-09-20T09:16:04Z</time>
      </trkpt>
      <trkpt lat="45.80669" lon="4.84157">
        <ele>169</ele>
        <time>2024-09-20T09:16:05Z</time>
      </trkpt>
      <trkpt lat="45.80665" lon="4.84156">
        <ele>169</ele>
        <time>2024-09-20T09:16:06Z</time>
      </trkpt>
      <trkpt lat="45.8066" lon="4.84154">
        <ele>169</ele>
        <time>2024-09-20T09:16:07Z</time>
      </trkpt>
      <trkpt lat="45.80656" lon="4.84153">
        <ele>169</ele>
        <time>2024-09-20T09:16:08Z</time>
      </trkpt>
      <trkpt lat="45.80651" lon="4.84151">
        <ele>169</ele>
        <time>2024-09-20T09:16:09Z</time>
      </trkpt>
      <trkpt lat="45.80647" lon="4.84149">
        <ele>169.2</ele>
        <time>2024-09-20T09:16:10Z</time>
      </trkpt>
      <trkpt lat="45.80642" lon="4.84147">
        <ele>169.2</ele>
        <time>2024-09-20T09:16:11Z</time>
      </trkpt>
      <trkpt lat="45.80638" lon="4.84145">
        <ele>169.2</ele>
        <time>2024-09-20T09:16:12Z</time>
      </trkpt>
      <trkpt lat="45.80633" lon="4.84143">
        <ele>169.2</ele>
        <time>2024-09-20T09:16:13Z</time>
      </trkpt>
      <trkpt lat="45.80629" lon="4.84141">
        <ele>169.2</ele>
        <time>2024-09-20T09:16:14Z</time>
      </trkpt>
      <trkpt lat="45.80624" lon="4.84139">
        <ele>169.2</ele>
        <time>2024-09-20T09:16:15Z</time>
      </trkpt>
      <trkpt lat="45.8062" lon="4.84137">
        <ele>169.2</ele>
        <time>2024-09-20T09:16:16Z</time>
      </trkpt>
      <trkpt lat="45.80615" lon="4.84135">
        <ele>169</ele>
        <time>2024-09-20T09:16:17Z</time>
      </trkpt>
      <trkpt lat="45.8061" lon="4.84132">
        <ele>169</ele>
        <time>2024-09-20T09:16:18Z</time>
      </trkpt>
      <trkpt lat="45.80606" lon="4.8413">
        <ele>168.8</ele>
        <time>2024-09-20T09:16:19Z</time>
      </trkpt>
      <trkpt lat="45.80601" lon="4.84127">
        <ele>168.8</ele>
        <time>2024-09-20T09:16:20Z</time>
      </trkpt>
      <trkpt lat="45.80597" lon="4.84125">
        <ele>168.8</ele>
        <time>2024-09-20T09:16:21Z</time>
      </trkpt>
      <trkpt lat="45.80592" lon="4.84122">
        <ele>169.2</ele>
        <time>2024-09-20T09:16:22Z</time>
      </trkpt>
      <trkpt lat="45.80588" lon="4.8412">
        <ele>169</ele>
        <time>2024-09-20T09:16:23Z</time>
      </trkpt>
      <trkpt lat="45.80583" lon="4.84117">
        <ele>169</ele>
        <time>2024-09-20T09:16:24Z</time>
      </trkpt>
      <trkpt lat="45.80578" lon="4.84115">
        <ele>169</ele>
        <time>2024-09-20T09:16:25Z</time>
      </trkpt>
      <trkpt lat="45.80574" lon="4.84112">
        <ele>169</ele>
        <time>2024-09-20T09:16:26Z</time>
      </trkpt>
      <trkpt lat="45.8057" lon="4.8411">
        <ele>169</ele>
        <time>2024-09-20T09:16:27Z</time>
      </trkpt>
      <trkpt lat="45.80565" lon="4.84107">
        <ele>169</ele>
        <time>2024-09-20T09:16:28Z</time>
      </trkpt>
      <trkpt lat="45.80561" lon="4.84105">
        <ele>169</ele>
        <time>2024-09-20T09:16:29Z</time>
      </trkpt>
      <trkpt lat="45.80556" lon="4.84102">
        <ele>169</ele>
        <time>2024-09-20T09:16:30Z</time>
      </trkpt>
      <trkpt lat="45.80552" lon="4.84099">
        <ele>169</ele>
        <time>2024-09-20T09:16:31Z</time>
      </trkpt>
      <trkpt lat="45.80547" lon="4.84096">
        <ele>169</ele>
        <time>2024-09-20T09:16:32Z</time>
      </trkpt>
      <trkpt lat="45.80543" lon="4.84094">
        <ele>169.2</ele>
        <time>2024-09-20T09:16:33Z</time>
      </trkpt>
      <trkpt lat="45.80539" lon="4.84091">
        <ele>169.2</ele>
        <time>2024-09-20T09:16:34Z</time>
      </trkpt>
      <trkpt lat="45.80534" lon="4.84089">
        <ele>169.2</ele>
        <time>2024-09-20T09:16:35Z</time>
      </trkpt>
      <trkpt lat="45.8053" lon="4.84087">
        <ele>169.2</ele>
        <time>2024-09-20T09:16:36Z</time>
      </trkpt>
      <trkpt lat="45.80525" lon="4.84084">
        <ele>169.2</ele>
        <time>2024-09-20T09:16:37Z</time>
      </trkpt>
      <trkpt lat="45.80521" lon="4.84082">
        <ele>169.2</ele>
        <time>2024-09-20T09:16:38Z</time>
      </trkpt>
      <trkpt lat="45.80517" lon="4.84079">
        <ele>169.2</ele>
        <time>2024-09-20T09:16:39Z</time>
      </trkpt>
      <trkpt lat="45.80513" lon="4.84076">
        <ele>170</ele>
        <time>2024-09-20T09:16:40Z</time>
      </trkpt>
      <trkpt lat="45.80509" lon="4.84074">
        <ele>170</ele>
        <time>2024-09-20T09:16:41Z</time>
      </trkpt>
      <trkpt lat="45.80505" lon="4.84072">
        <ele>170</ele>
        <time>2024-09-20T09:16:42Z</time>
      </trkpt>
      <trkpt lat="45.80502" lon="4.8407">
        <ele>170</ele>
        <time>2024-09-20T09:16:43Z</time>
      </trkpt>
      <trkpt lat="45.80498" lon="4.84068">
        <ele>170</ele>
        <time>2024-09-20T09:16:44Z</time>
      </trkpt>
      <trkpt lat="45.80495" lon="4.84067">
        <ele>170.6</ele>
        <time>2024-09-20T09:16:45Z</time>
      </trkpt>
      <trkpt lat="45.80492" lon="4.84065">
        <ele>171</ele>
        <time>2024-09-20T09:16:46Z</time>
      </trkpt>
      <trkpt lat="45.80488" lon="4.84063">
        <ele>171</ele>
        <time>2024-09-20T09:16:47Z</time>
      </trkpt>
      <trkpt lat="45.80485" lon="4.84062">
        <ele>171</ele>
        <time>2024-09-20T09:16:48Z</time>
      </trkpt>
      <trkpt lat="45.80482" lon="4.8406">
        <ele>171.2</ele>
        <time>2024-09-20T09:16:49Z</time>
      </trkpt>
      <trkpt lat="45.80479" lon="4.84059">
        <ele>171.6</ele>
        <time>2024-09-20T09:16:50Z</time>
      </trkpt>
      <trkpt lat="45.80477" lon="4.84059">
        <ele>171.6</ele>
        <time>2024-09-20T09:16:51Z</time>
      </trkpt>
      <trkpt lat="45.80475" lon="4.84058">
        <ele>171.6</ele>
        <time>2024-09-20T09:16:52Z</time>
      </trkpt>
      <trkpt lat="45.80473" lon="4.84057">
        <ele>171.8</ele>
        <time>2024-09-20T09:16:53Z</time>
      </trkpt>
      <trkpt lat="45.80472" lon="4.84055">
        <ele>171.8</ele>
        <time>2024-09-20T09:16:54Z</time>
      </trkpt>
      <trkpt lat="45.80471" lon="4.84052">
        <ele>171.8</ele>
        <time>2024-09-20T09:16:55Z</time>
      </trkpt>
      <trkpt lat="45.8047" lon="4.84049">
        <ele>171.8</ele>
        <time>2024-09-20T09:16:56Z</time>
      </trkpt>
      <trkpt lat="45.80469" lon="4.84045">
        <ele>171.8</ele>
        <time>2024-09-20T09:16:57Z</time>
      </trkpt>
      <trkpt lat="45.80466" lon="4.84043">
        <ele>172.2</ele>
        <time>2024-09-20T09:16:58Z</time>
      </trkpt>
      <trkpt lat="45.80464" lon="4.84042">
        <ele>172.2</ele>
        <time>2024-09-20T09:16:59Z</time>
      </trkpt>
      <trkpt lat="45.80461" lon="4.8404">
        <ele>172.2</ele>
        <time>2024-09-20T09:17:00Z</time>
      </trkpt>
      <trkpt lat="45.80459" lon="4.84039">
        <ele>172.2</ele>
        <time>2024-09-20T09:17:01Z</time>
      </trkpt>
      <trkpt lat="45.80456" lon="4.84037">
        <ele>172.2</ele>
        <time>2024-09-20T09:17:02Z</time>
      </trkpt>
      <trkpt lat="45.80453" lon="4.84035">
        <ele>172.2</ele>
        <time>2024-09-20T09:17:03Z</time>
      </trkpt>
      <trkpt lat="45.80451" lon="4.84033">
        <ele>172.6</ele>
        <time>2024-09-20T09:17:04Z</time>
      </trkpt>
      <trkpt lat="45.80448" lon="4.84031">
        <ele>172.6</ele>
        <time>2024-09-20T09:17:05Z</time>
      </trkpt>
      <trkpt lat="45.80446" lon="4.8403">
        <ele>172.6</ele>
        <time>2024-09-20T09:17:06Z</time>
      </trkpt>
      <trkpt lat="45.80443" lon="4.84028">
        <ele>173</ele>
        <time>2024-09-20T09:17:07Z</time>
      </trkpt>
      <trkpt lat="45.8044" lon="4.84026">
        <ele>173.2</ele>
        <time>2024-09-20T09:17:08Z</time>
      </trkpt>
      <trkpt lat="45.80437" lon="4.84025">
        <ele>173.2</ele>
        <time>2024-09-20T09:17:09Z</time>
      </trkpt>
      <trkpt lat="45.80435" lon="4.84023">
        <ele>173.2</ele>
        <time>2024-09-20T09:17:10Z</time>
      </trkpt>
      <trkpt lat="45.80432" lon="4.84021">
        <ele>173.2</ele>
        <time>2024-09-20T09:17:11Z</time>
      </trkpt>
      <trkpt lat="45.8043" lon="4.84019">
        <ele>173.6</ele>
        <time>2024-09-20T09:17:12Z</time>
      </trkpt>
      <trkpt lat="45.80427" lon="4.84017">
        <ele>173.6</ele>
        <time>2024-09-20T09:17:13Z</time>
      </trkpt>
      <trkpt lat="45.80424" lon="4.84015">
        <ele>173.6</ele>
        <time>2024-09-20T09:17:14Z</time>
      </trkpt>
      <trkpt lat="45.80421" lon="4.84013">
        <ele>173.6</ele>
        <time>2024-09-20T09:17:15Z</time>
      </trkpt>
      <trkpt lat="45.80418" lon="4.84012">
        <ele>174</ele>
        <time>2024-09-20T09:17:16Z</time>
      </trkpt>
      <trkpt lat="45.80415" lon="4.8401">
        <ele>174.4</ele>
        <time>2024-09-20T09:17:17Z</time>
      </trkpt>
      <trkpt lat="45.80412" lon="4.84008">
        <ele>174.4</ele>
        <time>2024-09-20T09:17:18Z</time>
      </trkpt>
      <trkpt lat="45.80409" lon="4.84005">
        <ele>174.4</ele>
        <time>2024-09-20T09:17:19Z</time>
      </trkpt>
      <trkpt lat="45.80406" lon="4.84003">
        <ele>174.4</ele>
        <time>2024-09-20T09:17:20Z</time>
      </trkpt>
      <trkpt lat="45.80404" lon="4.84001">
        <ele>174.4</ele>
        <time>2024-09-20T09:17:21Z</time>
      </trkpt>
      <trkpt lat="45.80401" lon="4.83999">
        <ele>175</ele>
        <time>2024-09-20T09:17:22Z</time>
      </trkpt>
      <trkpt lat="45.80397" lon="4.83997">
        <ele>175</ele>
        <time>2024-09-20T09:17:23Z</time>
      </trkpt>
      <trkpt lat="45.80394" lon="4.83996">
        <ele>175</ele>
        <time>2024-09-20T09:17:24Z</time>
      </trkpt>
      <trkpt lat="45.80392" lon="4.83994">
        <ele>175.6</ele>
        <time>2024-09-20T09:17:25Z</time>
      </trkpt>
      <trkpt lat="45.80389" lon="4.83992">
        <ele>175.8</ele>
        <time>2024-09-20T09:17:26Z</time>
      </trkpt>
      <trkpt lat="45.80386" lon="4.83989">
        <ele>175.8</ele>
        <time>2024-09-20T09:17:27Z</time>
      </trkpt>
      <trkpt lat="45.80384" lon="4.83986">
        <ele>175.8</ele>
        <time>2024-09-20T09:17:28Z</time>
      </trkpt>
      <trkpt lat="45.80381" lon="4.83984">
        <ele>175.8</ele>
        <time>2024-09-20T09:17:29Z</time>
      </trkpt>
      <trkpt lat="45.80378" lon="4.83982">
        <ele>176</ele>
        <time>2024-09-20T09:17:30Z</time>
      </trkpt>
      <trkpt lat="45.80376" lon="4.83979">
        <ele>176.2</ele>
        <time>2024-09-20T09:17:31Z</time>
      </trkpt>
      <trkpt lat="45.80373" lon="4.83977">
        <ele>176.2</ele>
        <time>2024-09-20T09:17:32Z</time>
      </trkpt>
      <trkpt lat="45.8037" lon="4.83975">
        <ele>176.2</ele>
        <time>2024-09-20T09:17:33Z</time>
      </trkpt>
      <trkpt lat="45.80367" lon="4.83973">
        <ele>176.6</ele>
        <time>2024-09-20T09:17:34Z</time>
      </trkpt>
      <trkpt lat="45.80365" lon="4.8397">
        <ele>176.8</ele>
        <time>2024-09-20T09:17:35Z</time>
      </trkpt>
      <trkpt lat="45.80362" lon="4.83967">
        <ele>176.8</ele>
        <time>2024-09-20T09:17:36Z</time>
      </trkpt>
      <trkpt lat="45.80359" lon="4.83965">
        <ele>176.8</ele>
        <time>2024-09-20T09:17:37Z</time>
      </trkpt>
      <trkpt lat="45.80356" lon="4.83962">
        <ele>177.2</ele>
        <time>2024-09-20T09:17:38Z</time>
      </trkpt>
      <trkpt lat="45.80353" lon="4.83959">
        <ele>177.2</ele>
        <time>2024-09-20T09:17:39Z</time>
      </trkpt>
      <trkpt lat="45.8035" lon="4.83956">
        <ele>177.2</ele>
        <time>2024-09-20T09:17:40Z</time>
      </trkpt>
      <trkpt lat="45.80348" lon="4.83953">
        <ele>177.2</ele>
        <time>2024-09-20T09:17:41Z</time>
      </trkpt>
      <trkpt lat="45.80345" lon="4.8395">
        <ele>177.2</ele>
        <time>2024-09-20T09:17:42Z</time>
      </trkpt>
      <trkpt lat="45.80342" lon="4.83948">
        <ele>177.6</ele>
        <time>2024-09-20T09:17:43Z</time>
      </trkpt>
      <trkpt lat="45.8034" lon="4.83945">
        <ele>177.6</ele>
        <time>2024-09-20T09:17:44Z</time>
      </trkpt>
      <trkpt lat="45.80337" lon="4.83941">
        <ele>177.6</ele>
        <time>2024-09-20T09:17:45Z</time>
      </trkpt>
      <trkpt lat="45.80334" lon="4.83938">
        <ele>177.6</ele>
        <time>2024-09-20T09:17:46Z</time>
      </trkpt>
      <trkpt lat="45.80332" lon="4.83935">
        <ele>177.6</ele>
        <time>2024-09-20T09:17:47Z</time>
      </trkpt>
      <trkpt lat="45.80329" lon="4.83932">
        <ele>177.8</ele>
        <time>2024-09-20T09:17:48Z</time>
      </trkpt>
      <trkpt lat="45.80326" lon="4.83928">
        <ele>178</ele>
        <time>2024-09-20T09:17:49Z</time>
      </trkpt>
      <trkpt lat="45.80323" lon="4.83925">
        <ele>178</ele>
        <time>2024-09-20T09:17:50Z</time>
      </trkpt>
      <trkpt lat="45.8032" lon="4.83922">
        <ele>178</ele>
        <time>2024-09-20T09:17:51Z</time>
      </trkpt>
      <trkpt lat="45.80317" lon="4.83919">
        <ele>178</ele>
        <time>2024-09-20T09:17:52Z</time>
      </trkpt>
      <trkpt lat="45.80314" lon="4.83916">
        <ele>178</ele>
        <time>2024-09-20T09:17:53Z</time>
      </trkpt>
      <trkpt lat="45.80311" lon="4.83913">
        <ele>178.2</ele>
        <time>2024-09-20T09:17:54Z</time>
      </trkpt>
      <trkpt lat="45.80308" lon="4.83909">
        <ele>178.2</ele>
        <time>2024-09-20T09:17:55Z</time>
      </trkpt>
      <trkpt lat="45.80305" lon="4.83906">
        <ele>178.2</ele>
        <time>2024-09-20T09:17:56Z</time>
      </trkpt>
      <trkpt lat="45.80303" lon="4.83902">
        <ele>178.2</ele>
        <time>2024-09-20T09:17:57Z</time>
      </trkpt>
      <trkpt lat="45.80299" lon="4.83899">
        <ele>178.4</ele>
        <time>2024-09-20T09:17:58Z</time>
      </trkpt>
      <trkpt lat="45.80296" lon="4.83895">
        <ele>178.4</ele>
        <time>2024-09-20T09:17:59Z</time>
      </trkpt>
      <trkpt lat="45.80292" lon="4.83892">
        <ele>178.4</ele>
        <time>2024-09-20T09:18:00Z</time>
      </trkpt>
      <trkpt lat="45.80289" lon="4.83888">
        <ele>178.6</ele>
        <time>2024-09-20T09:18:01Z</time>
      </trkpt>
      <trkpt lat="45.80287" lon="4.83884">
        <ele>178.4</ele>
        <time>2024-09-20T09:18:02Z</time>
      </trkpt>
      <trkpt lat="45.80285" lon="4.8388">
        <ele>178.4</ele>
        <time>2024-09-20T09:18:03Z</time>
      </trkpt>
      <trkpt lat="45.80283" lon="4.83876">
        <ele>178.4</ele>
        <time>2024-09-20T09:18:04Z</time>
      </trkpt>
      <trkpt lat="45.80281" lon="4.83873">
        <ele>178.4</ele>
        <time>2024-09-20T09:18:05Z</time>
      </trkpt>
      <trkpt lat="45.80278" lon="4.8387">
        <ele>178.2</ele>
        <time>2024-09-20T09:18:06Z</time>
      </trkpt>
      <trkpt lat="45.80275" lon="4.83865">
        <ele>178.2</ele>
        <time>2024-09-20T09:18:07Z</time>
      </trkpt>
      <trkpt lat="45.80271" lon="4.83861">
        <ele>178.2</ele>
        <time>2024-09-20T09:18:08Z</time>
      </trkpt>
      <trkpt lat="45.80266" lon="4.83856">
        <ele>178.2</ele>
        <time>2024-09-20T09:18:09Z</time>
      </trkpt>
      <trkpt lat="45.80261" lon="4.83851">
        <ele>178.2</ele>
        <time>2024-09-20T09:18:10Z</time>
      </trkpt>
      <trkpt lat="45.80257" lon="4.83847">
        <ele>177.4</ele>
        <time>2024-09-20T09:18:11Z</time>
      </trkpt>
      <trkpt lat="45.80252" lon="4.83844">
        <ele>177.4</ele>
        <time>2024-09-20T09:18:12Z</time>
      </trkpt>
      <trkpt lat="45.80247" lon="4.83841">
        <ele>177.4</ele>
        <time>2024-09-20T09:18:13Z</time>
      </trkpt>
      <trkpt lat="45.80242" lon="4.83838">
        <ele>177.4</ele>
        <time>2024-09-20T09:18:14Z</time>
      </trkpt>
      <trkpt lat="45.80237" lon="4.83836">
        <ele>177</ele>
        <time>2024-09-20T09:18:15Z</time>
      </trkpt>
      <trkpt lat="45.80231" lon="4.83834">
        <ele>177</ele>
        <time>2024-09-20T09:18:16Z</time>
      </trkpt>
      <trkpt lat="45.80226" lon="4.83832">
        <ele>177</ele>
        <time>2024-09-20T09:18:17Z</time>
      </trkpt>
      <trkpt lat="45.8022" lon="4.83832">
        <ele>177</ele>
        <time>2024-09-20T09:18:18Z</time>
      </trkpt>
      <trkpt lat="45.80214" lon="4.83832">
        <ele>177</ele>
        <time>2024-09-20T09:18:19Z</time>
      </trkpt>
      <trkpt lat="45.80209" lon="4.83832">
        <ele>176.4</ele>
        <time>2024-09-20T09:18:20Z</time>
      </trkpt>
      <trkpt lat="45.80203" lon="4.83832">
        <ele>176.4</ele>
        <time>2024-09-20T09:18:21Z</time>
      </trkpt>
      <trkpt lat="45.80198" lon="4.83833">
        <ele>176.4</ele>
        <time>2024-09-20T09:18:22Z</time>
      </trkpt>
      <trkpt lat="45.80193" lon="4.83834">
        <ele>175.6</ele>
        <time>2024-09-20T09:18:23Z</time>
      </trkpt>
      <trkpt lat="45.80189" lon="4.83834">
        <ele>175.4</ele>
        <time>2024-09-20T09:18:24Z</time>
      </trkpt>
      <trkpt lat="45.80184" lon="4.83835">
        <ele>175.4</ele>
        <time>2024-09-20T09:18:25Z</time>
      </trkpt>
      <trkpt lat="45.80179" lon="4.83835">
        <ele>175.4</ele>
        <time>2024-09-20T09:18:26Z</time>
      </trkpt>
      <trkpt lat="45.80174" lon="4.83836">
        <ele>174.6</ele>
        <time>2024-09-20T09:18:27Z</time>
      </trkpt>
      <trkpt lat="45.8017" lon="4.83835">
        <ele>174.6</ele>
        <time>2024-09-20T09:18:28Z</time>
      </trkpt>
      <trkpt lat="45.80165" lon="4.83835">
        <ele>174.6</ele>
        <time>2024-09-20T09:18:29Z</time>
      </trkpt>
      <trkpt lat="45.8016" lon="4.83834">
        <ele>174.6</ele>
        <time>2024-09-20T09:18:30Z</time>
      </trkpt>
      <trkpt lat="45.80155" lon="4.83833">
        <ele>174.6</ele>
        <time>2024-09-20T09:18:31Z</time>
      </trkpt>
      <trkpt lat="45.8015" lon="4.8383">
        <ele>174.6</ele>
        <time>2024-09-20T09:18:32Z</time>
      </trkpt>
      <trkpt lat="45.80145" lon="4.83826">
        <ele>173.6</ele>
        <time>2024-09-20T09:18:33Z</time>
      </trkpt>
      <trkpt lat="45.8014" lon="4.83822">
        <ele>173</ele>
        <time>2024-09-20T09:18:34Z</time>
      </trkpt>
      <trkpt lat="45.80135" lon="4.83818">
        <ele>173</ele>
        <time>2024-09-20T09:18:35Z</time>
      </trkpt>
      <trkpt lat="45.8013" lon="4.83814">
        <ele>173</ele>
        <time>2024-09-20T09:18:36Z</time>
      </trkpt>
      <trkpt lat="45.80124" lon="4.83809">
        <ele>173</ele>
        <time>2024-09-20T09:18:37Z</time>
      </trkpt>
      <trkpt lat="45.80119" lon="4.83804">
        <ele>171.4</ele>
        <time>2024-09-20T09:18:38Z</time>
      </trkpt>
      <trkpt lat="45.80113" lon="4.83799">
        <ele>171.4</ele>
        <time>2024-09-20T09:18:39Z</time>
      </trkpt>
      <trkpt lat="45.80108" lon="4.83794">
        <ele>171.4</ele>
        <time>2024-09-20T09:18:40Z</time>
      </trkpt>
      <trkpt lat="45.80103" lon="4.83788">
        <ele>170.8</ele>
        <time>2024-09-20T09:18:41Z</time>
      </trkpt>
      <trkpt lat="45.80097" lon="4.83782">
        <ele>170.8</ele>
        <time>2024-09-20T09:18:42Z</time>
      </trkpt>
      <trkpt lat="45.80092" lon="4.83776">
        <ele>170.6</ele>
        <time>2024-09-20T09:18:43Z</time>
      </trkpt>
      <trkpt lat="45.80087" lon="4.8377">
        <ele>170.6</ele>
        <time>2024-09-20T09:18:44Z</time>
      </trkpt>
      <trkpt lat="45.80081" lon="4.83764">
        <ele>170.6</ele>
        <time>2024-09-20T09:18:45Z</time>
      </trkpt>
      <trkpt lat="45.80076" lon="4.83758">
        <ele>170</ele>
        <time>2024-09-20T09:18:46Z</time>
      </trkpt>
      <trkpt lat="45.80071" lon="4.83751">
        <ele>170</ele>
        <time>2024-09-20T09:18:47Z</time>
      </trkpt>
      <trkpt lat="45.80066" lon="4.83744">
        <ele>170</ele>
        <time>2024-09-20T09:18:48Z</time>
      </trkpt>
      <trkpt lat="45.80061" lon="4.83737">
        <ele>170</ele>
        <time>2024-09-20T09:18:49Z</time>
      </trkpt>
      <trkpt lat="45.80056" lon="4.8373">
        <ele>169.6</ele>
        <time>2024-09-20T09:18:50Z</time>
      </trkpt>
      <trkpt lat="45.80051" lon="4.83723">
        <ele>169.6</ele>
        <time>2024-09-20T09:18:51Z</time>
      </trkpt>
      <trkpt lat="45.80047" lon="4.83716">
        <ele>169.6</ele>
        <time>2024-09-20T09:18:52Z</time>
      </trkpt>
      <trkpt lat="45.80042" lon="4.83709">
        <ele>169.6</ele>
        <time>2024-09-20T09:18:53Z</time>
      </trkpt>
      <trkpt lat="45.80038" lon="4.83703">
        <ele>169.6</ele>
        <time>2024-09-20T09:18:54Z</time>
      </trkpt>
      <trkpt lat="45.80034" lon="4.83696">
        <ele>169.6</ele>
        <time>2024-09-20T09:18:55Z</time>
      </trkpt>
      <trkpt lat="45.80031" lon="4.83689">
        <ele>169.4</ele>
        <time>2024-09-20T09:18:56Z</time>
      </trkpt>
      <trkpt lat="45.80027" lon="4.83683">
        <ele>169.4</ele>
        <time>2024-09-20T09:18:57Z</time>
      </trkpt>
      <trkpt lat="45.80023" lon="4.83676">
        <ele>169.4</ele>
        <time>2024-09-20T09:18:58Z</time>
      </trkpt>
      <trkpt lat="45.8002" lon="4.8367">
        <ele>169.2</ele>
        <time>2024-09-20T09:18:59Z</time>
      </trkpt>
      <trkpt lat="45.80017" lon="4.83663">
        <ele>169</ele>
        <time>2024-09-20T09:19:00Z</time>
      </trkpt>
      <trkpt lat="45.80013" lon="4.83657">
        <ele>169</ele>
        <time>2024-09-20T09:19:01Z</time>
      </trkpt>
      <trkpt lat="45.8001" lon="4.83651">
        <ele>169</ele>
        <time>2024-09-20T09:19:02Z</time>
      </trkpt>
      <trkpt lat="45.80007" lon="4.83644">
        <ele>169</ele>
        <time>2024-09-20T09:19:03Z</time>
      </trkpt>
      <trkpt lat="45.80004" lon="4.83638">
        <ele>169</ele>
        <time>2024-09-20T09:19:04Z</time>
      </trkpt>
      <trkpt lat="45.80002" lon="4.83632">
        <ele>168.8</ele>
        <time>2024-09-20T09:19:05Z</time>
      </trkpt>
      <trkpt lat="45.79999" lon="4.83626">
        <ele>168.8</ele>
        <time>2024-09-20T09:19:06Z</time>
      </trkpt>
      <trkpt lat="45.79996" lon="4.8362">
        <ele>168.8</ele>
        <time>2024-09-20T09:19:07Z</time>
      </trkpt>
      <trkpt lat="45.79994" lon="4.83614">
        <ele>168.8</ele>
        <time>2024-09-20T09:19:08Z</time>
      </trkpt>
      <trkpt lat="45.79991" lon="4.83608">
        <ele>168.8</ele>
        <time>2024-09-20T09:19:09Z</time>
      </trkpt>
      <trkpt lat="45.79988" lon="4.83602">
        <ele>169</ele>
        <time>2024-09-20T09:19:10Z</time>
      </trkpt>
      <trkpt lat="45.79986" lon="4.83596">
        <ele>169</ele>
        <time>2024-09-20T09:19:11Z</time>
      </trkpt>
      <trkpt lat="45.79984" lon="4.8359">
        <ele>169</ele>
        <time>2024-09-20T09:19:12Z</time>
      </trkpt>
      <trkpt lat="45.79983" lon="4.83585">
        <ele>169</ele>
        <time>2024-09-20T09:19:13Z</time>
      </trkpt>
      <trkpt lat="45.79981" lon="4.83579">
        <ele>169</ele>
        <time>2024-09-20T09:19:14Z</time>
      </trkpt>
      <trkpt lat="45.79978" lon="4.83573">
        <ele>168.8</ele>
        <time>2024-09-20T09:19:15Z</time>
      </trkpt>
      <trkpt lat="45.79976" lon="4.83568">
        <ele>168.8</ele>
        <time>2024-09-20T09:19:16Z</time>
      </trkpt>
      <trkpt lat="45.79974" lon="4.83562">
        <ele>168.8</ele>
        <time>2024-09-20T09:19:17Z</time>
      </trkpt>
      <trkpt lat="45.79972" lon="4.83556">
        <ele>168.8</ele>
        <time>2024-09-20T09:19:18Z</time>
      </trkpt>
      <trkpt lat="45.79969" lon="4.8355">
        <ele>168.6</ele>
        <time>2024-09-20T09:19:19Z</time>
      </trkpt>
      <trkpt lat="45.79968" lon="4.83545">
        <ele>168.6</ele>
        <time>2024-09-20T09:19:20Z</time>
      </trkpt>
      <trkpt lat="45.79966" lon="4.83539">
        <ele>168.6</ele>
        <time>2024-09-20T09:19:21Z</time>
      </trkpt>
      <trkpt lat="45.79963" lon="4.83533">
        <ele>168.6</ele>
        <time>2024-09-20T09:19:22Z</time>
      </trkpt>
      <trkpt lat="45.79961" lon="4.83526">
        <ele>168.6</ele>
        <time>2024-09-20T09:19:23Z</time>
      </trkpt>
      <trkpt lat="45.79959" lon="4.8352">
        <ele>168.6</ele>
        <time>2024-09-20T09:19:24Z</time>
      </trkpt>
      <trkpt lat="45.79957" lon="4.83513">
        <ele>168.6</ele>
        <time>2024-09-20T09:19:25Z</time>
      </trkpt>
      <trkpt lat="45.79955" lon="4.83506">
        <ele>168.6</ele>
        <time>2024-09-20T09:19:26Z</time>
      </trkpt>
      <trkpt lat="45.79954" lon="4.835">
        <ele>168.8</ele>
        <time>2024-09-20T09:19:27Z</time>
      </trkpt>
      <trkpt lat="45.79953" lon="4.83494">
        <ele>168.8</ele>
        <time>2024-09-20T09:19:28Z</time>
      </trkpt>
      <trkpt lat="45.79951" lon="4.83488">
        <ele>168.8</ele>
        <time>2024-09-20T09:19:29Z</time>
      </trkpt>
      <trkpt lat="45.79949" lon="4.83482">
        <ele>168.8</ele>
        <time>2024-09-20T09:19:30Z</time>
      </trkpt>
      <trkpt lat="45.79948" lon="4.83476">
        <ele>168.8</ele>
        <time>2024-09-20T09:19:31Z</time>
      </trkpt>
      <trkpt lat="45.79946" lon="4.8347">
        <ele>168.8</ele>
        <time>2024-09-20T09:19:32Z</time>
      </trkpt>
      <trkpt lat="45.79944" lon="4.83464">
        <ele>168.8</ele>
        <time>2024-09-20T09:19:33Z</time>
      </trkpt>
      <trkpt lat="45.79943" lon="4.83459">
        <ele>168.8</ele>
        <time>2024-09-20T09:19:34Z</time>
      </trkpt>
      <trkpt lat="45.79941" lon="4.83453">
        <ele>169</ele>
        <time>2024-09-20T09:19:35Z</time>
      </trkpt>
      <trkpt lat="45.7994" lon="4.83447">
        <ele>169</ele>
        <time>2024-09-20T09:19:36Z</time>
      </trkpt>
      <trkpt lat="45.79938" lon="4.83441">
        <ele>169</ele>
        <time>2024-09-20T09:19:37Z</time>
      </trkpt>
      <trkpt lat="45.79936" lon="4.83435">
        <ele>169</ele>
        <time>2024-09-20T09:19:38Z</time>
      </trkpt>
      <trkpt lat="45.79935" lon="4.8343">
        <ele>169</ele>
        <time>2024-09-20T09:19:39Z</time>
      </trkpt>
      <trkpt lat="45.79933" lon="4.83424">
        <ele>169</ele>
        <time>2024-09-20T09:19:40Z</time>
      </trkpt>
      <trkpt lat="45.79931" lon="4.83417">
        <ele>168.8</ele>
        <time>2024-09-20T09:19:41Z</time>
      </trkpt>
      <trkpt lat="45.79929" lon="4.83411">
        <ele>168.8</ele>
        <time>2024-09-20T09:19:42Z</time>
      </trkpt>
      <trkpt lat="45.79927" lon="4.83405">
        <ele>168.8</ele>
        <time>2024-09-20T09:19:43Z</time>
      </trkpt>
      <trkpt lat="45.79925" lon="4.83399">
        <ele>169</ele>
        <time>2024-09-20T09:19:44Z</time>
      </trkpt>
      <trkpt lat="45.79923" lon="4.83393">
        <ele>169</ele>
        <time>2024-09-20T09:19:45Z</time>
      </trkpt>
      <trkpt lat="45.79922" lon="4.83387">
        <ele>169</ele>
        <time>2024-09-20T09:19:46Z</time>
      </trkpt>
      <trkpt lat="45.79921" lon="4.8338">
        <ele>169</ele>
        <time>2024-09-20T09:19:47Z</time>
      </trkpt>
      <trkpt lat="45.79919" lon="4.83374">
        <ele>169</ele>
        <time>2024-09-20T09:19:48Z</time>
      </trkpt>
      <trkpt lat="45.79917" lon="4.83368">
        <ele>169</ele>
        <time>2024-09-20T09:19:49Z</time>
      </trkpt>
      <trkpt lat="45.79914" lon="4.83361">
        <ele>169</ele>
        <time>2024-09-20T09:19:50Z</time>
      </trkpt>
      <trkpt lat="45.79913" lon="4.83355">
        <ele>169</ele>
        <time>2024-09-20T09:19:51Z</time>
      </trkpt>
      <trkpt lat="45.79911" lon="4.83348">
        <ele>169</ele>
        <time>2024-09-20T09:19:52Z</time>
      </trkpt>
      <trkpt lat="45.79909" lon="4.83342">
        <ele>169</ele>
        <time>2024-09-20T09:19:53Z</time>
      </trkpt>
      <trkpt lat="45.79907" lon="4.83335">
        <ele>169</ele>
        <time>2024-09-20T09:19:54Z</time>
      </trkpt>
      <trkpt lat="45.79905" lon="4.83329">
        <ele>169.2</ele>
        <time>2024-09-20T09:19:55Z</time>
      </trkpt>
      <trkpt lat="45.79903" lon="4.83323">
        <ele>169.2</ele>
        <time>2024-09-20T09:19:56Z</time>
      </trkpt>
      <trkpt lat="45.79901" lon="4.83317">
        <ele>169.2</ele>
        <time>2024-09-20T09:19:57Z</time>
      </trkpt>
      <trkpt lat="45.79899" lon="4.8331">
        <ele>168.8</ele>
        <time>2024-09-20T09:19:58Z</time>
      </trkpt>
      <trkpt lat="45.79898" lon="4.83304">
        <ele>168.8</ele>
        <time>2024-09-20T09:19:59Z</time>
      </trkpt>
      <trkpt lat="45.79896" lon="4.83297">
        <ele>168.8</ele>
        <time>2024-09-20T09:20:00Z</time>
      </trkpt>
      <trkpt lat="45.79893" lon="4.8329">
        <ele>168.8</ele>
        <time>2024-09-20T09:20:01Z</time>
      </trkpt>
      <trkpt lat="45.79891" lon="4.83283">
        <ele>168.8</ele>
        <time>2024-09-20T09:20:02Z</time>
      </trkpt>
      <trkpt lat="45.79889" lon="4.83277">
        <ele>169</ele>
        <time>2024-09-20T09:20:03Z</time>
      </trkpt>
      <trkpt lat="45.79887" lon="4.8327">
        <ele>169</ele>
        <time>2024-09-20T09:20:04Z</time>
      </trkpt>
      <trkpt lat="45.79885" lon="4.83264">
        <ele>169</ele>
        <time>2024-09-20T09:20:05Z</time>
      </trkpt>
      <trkpt lat="45.79882" lon="4.83258">
        <ele>169</ele>
        <time>2024-09-20T09:20:06Z</time>
      </trkpt>
      <trkpt lat="45.79881" lon="4.83252">
        <ele>168.6</ele>
        <time>2024-09-20T09:20:07Z</time>
      </trkpt>
      <trkpt lat="45.79879" lon="4.83246">
        <ele>168.4</ele>
        <time>2024-09-20T09:20:08Z</time>
      </trkpt>
      <trkpt lat="45.79877" lon="4.8324">
        <ele>168.4</ele>
        <time>2024-09-20T09:20:09Z</time>
      </trkpt>
      <trkpt lat="45.79875" lon="4.83233">
        <ele>168.4</ele>
        <time>2024-09-20T09:20:10Z</time>
      </trkpt>
      <trkpt lat="45.79873" lon="4.83227">
        <ele>168.4</ele>
        <time>2024-09-20T09:20:11Z</time>
      </trkpt>
      <trkpt lat="45.79871" lon="4.83221">
        <ele>168.4</ele>
        <time>2024-09-20T09:20:12Z</time>
      </trkpt>
      <trkpt lat="45.79869" lon="4.83215">
        <ele>168.6</ele>
        <time>2024-09-20T09:20:13Z</time>
      </trkpt>
      <trkpt lat="45.79867" lon="4.83208">
        <ele>168.6</ele>
        <time>2024-09-20T09:20:14Z</time>
      </trkpt>
      <trkpt lat="45.79865" lon="4.83202">
        <ele>168.6</ele>
        <time>2024-09-20T09:20:15Z</time>
      </trkpt>
      <trkpt lat="45.79863" lon="4.83195">
        <ele>168.6</ele>
        <time>2024-09-20T09:20:16Z</time>
      </trkpt>
      <trkpt lat="45.7986" lon="4.83189">
        <ele>168.4</ele>
        <time>2024-09-20T09:20:17Z</time>
      </trkpt>
      <trkpt lat="45.79858" lon="4.83183">
        <ele>168.4</ele>
        <time>2024-09-20T09:20:18Z</time>
      </trkpt>
      <trkpt lat="45.79855" lon="4.83177">
        <ele>168.4</ele>
        <time>2024-09-20T09:20:19Z</time>
      </trkpt>
      <trkpt lat="45.79853" lon="4.83171">
        <ele>168.4</ele>
        <time>2024-09-20T09:20:20Z</time>
      </trkpt>
      <trkpt lat="45.7985" lon="4.83165">
        <ele>168.8</ele>
        <time>2024-09-20T09:20:21Z</time>
      </trkpt>
      <trkpt lat="45.79848" lon="4.83159">
        <ele>168.8</ele>
        <time>2024-09-20T09:20:22Z</time>
      </trkpt>
      <trkpt lat="45.79845" lon="4.83153">
        <ele>168.8</ele>
        <time>2024-09-20T09:20:23Z</time>
      </trkpt>
      <trkpt lat="45.79842" lon="4.83147">
        <ele>168.8</ele>
        <time>2024-09-20T09:20:24Z</time>
      </trkpt>
      <trkpt lat="45.79839" lon="4.83141">
        <ele>168.4</ele>
        <time>2024-09-20T09:20:25Z</time>
      </trkpt>
      <trkpt lat="45.79837" lon="4.83134">
        <ele>168.4</ele>
        <time>2024-09-20T09:20:26Z</time>
      </trkpt>
      <trkpt lat="45.79834" lon="4.83128">
        <ele>168.4</ele>
        <time>2024-09-20T09:20:27Z</time>
      </trkpt>
      <trkpt lat="45.79832" lon="4.83122">
        <ele>168.4</ele>
        <time>2024-09-20T09:20:28Z</time>
      </trkpt>
      <trkpt lat="45.79829" lon="4.83116">
        <ele>168.4</ele>
        <time>2024-09-20T09:20:29Z</time>
      </trkpt>
      <trkpt lat="45.79826" lon="4.83109">
        <ele>168.6</ele>
        <time>2024-09-20T09:20:30Z</time>
      </trkpt>
      <trkpt lat="45.79823" lon="4.83103">
        <ele>168.6</ele>
        <time>2024-09-20T09:20:31Z</time>
      </trkpt>
      <trkpt lat="45.79821" lon="4.83097">
        <ele>168.6</ele>
        <time>2024-09-20T09:20:32Z</time>
      </trkpt>
      <trkpt lat="45.79818" lon="4.83091">
        <ele>168.6</ele>
        <time>2024-09-20T09:20:33Z</time>
      </trkpt>
      <trkpt lat="45.79815" lon="4.83085">
        <ele>168.6</ele>
        <time>2024-09-20T09:20:34Z</time>
      </trkpt>
      <trkpt lat="45.79813" lon="4.8308">
        <ele>168.6</ele>
        <time>2024-09-20T09:20:35Z</time>
      </trkpt>
      <trkpt lat="45.79811" lon="4.83075">
        <ele>169.4</ele>
        <time>2024-09-20T09:20:36Z</time>
      </trkpt>
      <trkpt lat="45.79809" lon="4.8307">
        <ele>169.4</ele>
        <time>2024-09-20T09:20:37Z</time>
      </trkpt>
      <trkpt lat="45.79807" lon="4.83065">
        <ele>169.4</ele>
        <time>2024-09-20T09:20:38Z</time>
      </trkpt>
      <trkpt lat="45.79805" lon="4.83062">
        <ele>170.2</ele>
        <time>2024-09-20T09:20:39Z</time>
      </trkpt>
      <trkpt lat="45.79803" lon="4.83058">
        <ele>170.4</ele>
        <time>2024-09-20T09:20:40Z</time>
      </trkpt>
      <trkpt lat="45.79802" lon="4.83053">
        <ele>170.4</ele>
        <time>2024-09-20T09:20:41Z</time>
      </trkpt>
      <trkpt lat="45.79802" lon="4.83049">
        <ele>170.4</ele>
        <time>2024-09-20T09:20:42Z</time>
      </trkpt>
      <trkpt lat="45.79802" lon="4.83044">
        <ele>170.4</ele>
        <time>2024-09-20T09:20:43Z</time>
      </trkpt>
      <trkpt lat="45.79803" lon="4.83041">
        <ele>170.8</ele>
        <time>2024-09-20T09:20:44Z</time>
      </trkpt>
      <trkpt lat="45.79803" lon="4.83037">
        <ele>170.8</ele>
        <time>2024-09-20T09:20:45Z</time>
      </trkpt>
      <trkpt lat="45.79804" lon="4.83035">
        <ele>170.8</ele>
        <time>2024-09-20T09:20:46Z</time>
      </trkpt>
      <trkpt lat="45.79804" lon="4.83034">
        <ele>170.8</ele>
        <time>2024-09-20T09:20:47Z</time>
      </trkpt>
      <trkpt lat="45.79804" lon="4.83033">
        <ele>170.6</ele>
        <time>2024-09-20T09:20:48Z</time>
      </trkpt>
      <trkpt lat="45.79804" lon="4.83033">
        <ele>170.6</ele>
        <time>2024-09-20T09:20:49Z</time>
      </trkpt>
      <trkpt lat="45.79802" lon="4.83019">
        <ele>170.2</ele>
        <time>2024-09-20T09:23:36Z</time>
      </trkpt>
      <trkpt lat="45.79801" lon="4.83018">
        <ele>170.4</ele>
        <time>2024-09-20T09:23:37Z</time>
      </trkpt>
      <trkpt lat="45.79801" lon="4.83017">
        <ele>170.4</ele>
        <time>2024-09-20T09:23:38Z</time>
      </trkpt>
      <trkpt lat="45.798" lon="4.83017">
        <ele>170.6</ele>
        <time>2024-09-20T09:23:39Z</time>
      </trkpt>
      <trkpt lat="45.79799" lon="4.83015">
        <ele>170.6</ele>
        <time>2024-09-20T09:23:40Z</time>
      </trkpt>
      <trkpt lat="45.79797" lon="4.83013">
        <ele>170.4</ele>
        <time>2024-09-20T09:23:41Z</time>
      </trkpt>
      <trkpt lat="45.79795" lon="4.83012">
        <ele>170.4</ele>
        <time>2024-09-20T09:23:42Z</time>
      </trkpt>
      <trkpt lat="45.79793" lon="4.83009">
        <ele>170.2</ele>
        <time>2024-09-20T09:23:43Z</time>
      </trkpt>
      <trkpt lat="45.79791" lon="4.83006">
        <ele>170.2</ele>
        <time>2024-09-20T09:23:44Z</time>
      </trkpt>
      <trkpt lat="45.79788" lon="4.83003">
        <ele>170</ele>
        <time>2024-09-20T09:23:45Z</time>
      </trkpt>
      <trkpt lat="45.79786" lon="4.83">
        <ele>170.2</ele>
        <time>2024-09-20T09:23:46Z</time>
      </trkpt>
      <trkpt lat="45.79783" lon="4.82998">
        <ele>170.2</ele>
        <time>2024-09-20T09:23:47Z</time>
      </trkpt>
      <trkpt lat="45.7978" lon="4.82998">
        <ele>170.2</ele>
        <time>2024-09-20T09:23:48Z</time>
      </trkpt>
      <trkpt lat="45.79777" lon="4.82998">
        <ele>170.2</ele>
        <time>2024-09-20T09:23:49Z</time>
      </trkpt>
      <trkpt lat="45.79776" lon="4.82997">
        <ele>170.2</ele>
        <time>2024-09-20T09:23:50Z</time>
      </trkpt>
      <trkpt lat="45.79774" lon="4.82995">
        <ele>170</ele>
        <time>2024-09-20T09:23:51Z</time>
      </trkpt>
      <trkpt lat="45.79773" lon="4.82994">
        <ele>170</ele>
        <time>2024-09-20T09:23:52Z</time>
      </trkpt>
      <trkpt lat="45.79772" lon="4.82992">
        <ele>170</ele>
        <time>2024-09-20T09:23:53Z</time>
      </trkpt>
      <trkpt lat="45.79771" lon="4.8299">
        <ele>169.8</ele>
        <time>2024-09-20T09:23:54Z</time>
      </trkpt>
      <trkpt lat="45.7977" lon="4.82988">
        <ele>169.8</ele>
        <time>2024-09-20T09:23:55Z</time>
      </trkpt>
      <trkpt lat="45.7977" lon="4.82987">
        <ele>169.8</ele>
        <time>2024-09-20T09:23:56Z</time>
      </trkpt>
      <trkpt lat="45.7977" lon="4.82986">
        <ele>169.8</ele>
        <time>2024-09-20T09:23:57Z</time>
      </trkpt>
      <trkpt lat="45.7977" lon="4.82986">
        <ele>169.8</ele>
        <time>2024-09-20T09:23:58Z</time>
      </trkpt>
      <trkpt lat="45.79769" lon="4.82973">
        <ele>169.6</ele>
        <time>2024-09-20T09:24:38Z</time>
      </trkpt>
      <trkpt lat="45.79768" lon="4.8297">
        <ele>169.6</ele>
        <time>2024-09-20T09:24:39Z</time>
      </trkpt>
      <trkpt lat="45.79766" lon="4.82967">
        <ele>169.6</ele>
        <time>2024-09-20T09:24:40Z</time>
      </trkpt>
      <trkpt lat="45.79764" lon="4.82963">
        <ele>169.6</ele>
        <time>2024-09-20T09:24:41Z</time>
      </trkpt>
      <trkpt lat="45.79762" lon="4.82959">
        <ele>169.6</ele>
        <time>2024-09-20T09:24:42Z</time>
      </trkpt>
      <trkpt lat="45.79759" lon="4.82954">
        <ele>169.4</ele>
        <time>2024-09-20T09:24:43Z</time>
      </trkpt>
      <trkpt lat="45.79757" lon="4.82949">
        <ele>169.4</ele>
        <time>2024-09-20T09:24:44Z</time>
      </trkpt>
      <trkpt lat="45.79755" lon="4.82944">
        <ele>169.4</ele>
        <time>2024-09-20T09:24:45Z</time>
      </trkpt>
      <trkpt lat="45.79752" lon="4.82939">
        <ele>169</ele>
        <time>2024-09-20T09:24:46Z</time>
      </trkpt>
      <trkpt lat="45.79749" lon="4.82934">
        <ele>169</ele>
        <time>2024-09-20T09:24:47Z</time>
      </trkpt>
      <trkpt lat="45.79747" lon="4.82928">
        <ele>169</ele>
        <time>2024-09-20T09:24:48Z</time>
      </trkpt>
      <trkpt lat="45.79744" lon="4.82923">
        <ele>169</ele>
        <time>2024-09-20T09:24:49Z</time>
      </trkpt>
      <trkpt lat="45.79741" lon="4.82917">
        <ele>169</ele>
        <time>2024-09-20T09:24:50Z</time>
      </trkpt>
      <trkpt lat="45.79738" lon="4.82911">
        <ele>169</ele>
        <time>2024-09-20T09:24:51Z</time>
      </trkpt>
      <trkpt lat="45.79734" lon="4.82906">
        <ele>168.8</ele>
        <time>2024-09-20T09:24:52Z</time>
      </trkpt>
      <trkpt lat="45.79731" lon="4.829">
        <ele>168.8</ele>
        <time>2024-09-20T09:24:53Z</time>
      </trkpt>
      <trkpt lat="45.79728" lon="4.82894">
        <ele>168.8</ele>
        <time>2024-09-20T09:24:54Z</time>
      </trkpt>
      <trkpt lat="45.79725" lon="4.82889">
        <ele>168.8</ele>
        <time>2024-09-20T09:24:55Z</time>
      </trkpt>
      <trkpt lat="45.79722" lon="4.82883">
        <ele>168.6</ele>
        <time>2024-09-20T09:24:56Z</time>
      </trkpt>
      <trkpt lat="45.79718" lon="4.82878">
        <ele>168.6</ele>
        <time>2024-09-20T09:24:57Z</time>
      </trkpt>
      <trkpt lat="45.79715" lon="4.82872">
        <ele>168.6</ele>
        <time>2024-09-20T09:24:58Z</time>
      </trkpt>
      <trkpt lat="45.79712" lon="4.82866">
        <ele>168.6</ele>
        <time>2024-09-20T09:24:59Z</time>
      </trkpt>
      <trkpt lat="45.79709" lon="4.8286">
        <ele>168.6</ele>
        <time>2024-09-20T09:25:00Z</time>
      </trkpt>
      <trkpt lat="45.79706" lon="4.82855">
        <ele>168.6</ele>
        <time>2024-09-20T09:25:01Z</time>
      </trkpt>
      <trkpt lat="45.79703" lon="4.82848">
        <ele>168.6</ele>
        <time>2024-09-20T09:25:02Z</time>
      </trkpt>
      <trkpt lat="45.797" lon="4.82843">
        <ele>168.6</ele>
        <time>2024-09-20T09:25:03Z</time>
      </trkpt>
      <trkpt lat="45.79697" lon="4.82837">
        <ele>168.6</ele>
        <time>2024-09-20T09:25:04Z</time>
      </trkpt>
      <trkpt lat="45.79694" lon="4.82831">
        <ele>168.6</ele>
        <time>2024-09-20T09:25:05Z</time>
      </trkpt>
      <trkpt lat="45.79691" lon="4.82826">
        <ele>168.6</ele>
        <time>2024-09-20T09:25:06Z</time>
      </trkpt>
      <trkpt lat="45.79688" lon="4.82821">
        <ele>168.6</ele>
        <time>2024-09-20T09:25:07Z</time>
      </trkpt>
      <trkpt lat="45.79685" lon="4.82816">
        <ele>168.6</ele>
        <time>2024-09-20T09:25:08Z</time>
      </trkpt>
      <trkpt lat="45.79683" lon="4.82811">
        <ele>168.6</ele>
        <time>2024-09-20T09:25:09Z</time>
      </trkpt>
      <trkpt lat="45.7968" lon="4.82806">
        <ele>168.8</ele>
        <time>2024-09-20T09:25:10Z</time>
      </trkpt>
      <trkpt lat="45.79678" lon="4.82801">
        <ele>168.8</ele>
        <time>2024-09-20T09:25:11Z</time>
      </trkpt>
      <trkpt lat="45.79675" lon="4.82796">
        <ele>168.8</ele>
        <time>2024-09-20T09:25:12Z</time>
      </trkpt>
      <trkpt lat="45.79672" lon="4.8279">
        <ele>168.8</ele>
        <time>2024-09-20T09:25:13Z</time>
      </trkpt>
      <trkpt lat="45.79669" lon="4.82785">
        <ele>168.4</ele>
        <time>2024-09-20T09:25:14Z</time>
      </trkpt>
      <trkpt lat="45.79666" lon="4.8278">
        <ele>168.4</ele>
        <time>2024-09-20T09:25:15Z</time>
      </trkpt>
      <trkpt lat="45.79663" lon="4.82775">
        <ele>168.4</ele>
        <time>2024-09-20T09:25:16Z</time>
      </trkpt>
      <trkpt lat="45.79661" lon="4.8277">
        <ele>168.4</ele>
        <time>2024-09-20T09:25:17Z</time>
      </trkpt>
      <trkpt lat="45.79658" lon="4.82765">
        <ele>168.4</ele>
        <time>2024-09-20T09:25:18Z</time>
      </trkpt>
      <trkpt lat="45.79655" lon="4.8276">
        <ele>168.4</ele>
        <time>2024-09-20T09:25:19Z</time>
      </trkpt>
      <trkpt lat="45.79652" lon="4.82756">
        <ele>168.4</ele>
        <time>2024-09-20T09:25:20Z</time>
      </trkpt>
      <trkpt lat="45.7965" lon="4.82751">
        <ele>168.4</ele>
        <time>2024-09-20T09:25:21Z</time>
      </trkpt>
      <trkpt lat="45.79648" lon="4.82747">
        <ele>168.4</ele>
        <time>2024-09-20T09:25:22Z</time>
      </trkpt>
      <trkpt lat="45.79646" lon="4.82743">
        <ele>168</ele>
        <time>2024-09-20T09:25:23Z</time>
      </trkpt>
      <trkpt lat="45.79644" lon="4.82739">
        <ele>168.2</ele>
        <time>2024-09-20T09:25:24Z</time>
      </trkpt>
      <trkpt lat="45.79641" lon="4.82735">
        <ele>168.2</ele>
        <time>2024-09-20T09:25:25Z</time>
      </trkpt>
      <trkpt lat="45.79639" lon="4.8273">
        <ele>168.2</ele>
        <time>2024-09-20T09:25:26Z</time>
      </trkpt>
      <trkpt lat="45.79637" lon="4.82726">
        <ele>168.2</ele>
        <time>2024-09-20T09:25:27Z</time>
      </trkpt>
      <trkpt lat="45.79635" lon="4.82722">
        <ele>168.2</ele>
        <time>2024-09-20T09:25:28Z</time>
      </trkpt>
      <trkpt lat="45.79632" lon="4.82717">
        <ele>168.2</ele>
        <time>2024-09-20T09:25:29Z</time>
      </trkpt>
      <trkpt lat="45.7963" lon="4.82713">
        <ele>168.2</ele>
        <time>2024-09-20T09:25:30Z</time>
      </trkpt>
      <trkpt lat="45.79628" lon="4.82708">
        <ele>168.2</ele>
        <time>2024-09-20T09:25:31Z</time>
      </trkpt>
      <trkpt lat="45.79626" lon="4.82703">
        <ele>168.2</ele>
        <time>2024-09-20T09:25:32Z</time>
      </trkpt>
      <trkpt lat="45.79623" lon="4.82699">
        <ele>168.6</ele>
        <time>2024-09-20T09:25:33Z</time>
      </trkpt>
      <trkpt lat="45.7962" lon="4.82693">
        <ele>168.6</ele>
        <time>2024-09-20T09:25:34Z</time>
      </trkpt>
      <trkpt lat="45.79618" lon="4.82688">
        <ele>168.6</ele>
        <time>2024-09-20T09:25:35Z</time>
      </trkpt>
      <trkpt lat="45.79615" lon="4.82683">
        <ele>168</ele>
        <time>2024-09-20T09:25:36Z</time>
      </trkpt>
      <trkpt lat="45.79612" lon="4.82677">
        <ele>168</ele>
        <time>2024-09-20T09:25:37Z</time>
      </trkpt>
      <trkpt lat="45.79609" lon="4.82672">
        <ele>168.2</ele>
        <time>2024-09-20T09:25:38Z</time>
      </trkpt>
      <trkpt lat="45.79606" lon="4.82667">
        <ele>168.2</ele>
        <time>2024-09-20T09:25:39Z</time>
      </trkpt>
      <trkpt lat="45.79603" lon="4.82662">
        <ele>168.4</ele>
        <time>2024-09-20T09:25:40Z</time>
      </trkpt>
      <trkpt lat="45.796" lon="4.82657">
        <ele>168.4</ele>
        <time>2024-09-20T09:25:41Z</time>
      </trkpt>
      <trkpt lat="45.79597" lon="4.82652">
        <ele>168.4</ele>
        <time>2024-09-20T09:25:42Z</time>
      </trkpt>
      <trkpt lat="45.79594" lon="4.82646">
        <ele>168.4</ele>
        <time>2024-09-20T09:25:43Z</time>
      </trkpt>
      <trkpt lat="45.79591" lon="4.82641">
        <ele>168.6</ele>
        <time>2024-09-20T09:25:44Z</time>
      </trkpt>
      <trkpt lat="45.79588" lon="4.82636">
        <ele>168.6</ele>
        <time>2024-09-20T09:25:45Z</time>
      </trkpt>
      <trkpt lat="45.79586" lon="4.8263">
        <ele>168.6</ele>
        <time>2024-09-20T09:25:46Z</time>
      </trkpt>
      <trkpt lat="45.79583" lon="4.82625">
        <ele>168.6</ele>
        <time>2024-09-20T09:25:47Z</time>
      </trkpt>
      <trkpt lat="45.7958" lon="4.8262">
        <ele>168.6</ele>
        <time>2024-09-20T09:25:48Z</time>
      </trkpt>
      <trkpt lat="45.79578" lon="4.82614">
        <ele>168.4</ele>
        <time>2024-09-20T09:25:49Z</time>
      </trkpt>
      <trkpt lat="45.79575" lon="4.82609">
        <ele>168.4</ele>
        <time>2024-09-20T09:25:50Z</time>
      </trkpt>
      <trkpt lat="45.79572" lon="4.82603">
        <ele>168.4</ele>
        <time>2024-09-20T09:25:51Z</time>
      </trkpt>
      <trkpt lat="45.79569" lon="4.82597">
        <ele>168.4</ele>
        <time>2024-09-20T09:25:52Z</time>
      </trkpt>
      <trkpt lat="45.79566" lon="4.82592">
        <ele>168.4</ele>
        <time>2024-09-20T09:25:53Z</time>
      </trkpt>
      <trkpt lat="45.79564" lon="4.82586">
        <ele>168.4</ele>
        <time>2024-09-20T09:25:54Z</time>
      </trkpt>
      <trkpt lat="45.79561" lon="4.8258">
        <ele>168.4</ele>
        <time>2024-09-20T09:25:55Z</time>
      </trkpt>
      <trkpt lat="45.79558" lon="4.82574">
        <ele>168.4</ele>
        <time>2024-09-20T09:25:56Z</time>
      </trkpt>
      <trkpt lat="45.79555" lon="4.82568">
        <ele>168.4</ele>
        <time>2024-09-20T09:25:57Z</time>
      </trkpt>
      <trkpt lat="45.79552" lon="4.82563">
        <ele>168.4</ele>
        <time>2024-09-20T09:25:58Z</time>
      </trkpt>
      <trkpt lat="45.79549" lon="4.82557">
        <ele>168.6</ele>
        <time>2024-09-20T09:25:59Z</time>
      </trkpt>
      <trkpt lat="45.79546" lon="4.82552">
        <ele>168.6</ele>
        <time>2024-09-20T09:26:00Z</time>
      </trkpt>
      <trkpt lat="45.79544" lon="4.82547">
        <ele>168.6</ele>
        <time>2024-09-20T09:26:01Z</time>
      </trkpt>
      <trkpt lat="45.79541" lon="4.82541">
        <ele>168.6</ele>
        <time>2024-09-20T09:26:02Z</time>
      </trkpt>
      <trkpt lat="45.79539" lon="4.82536">
        <ele>168.6</ele>
        <time>2024-09-20T09:26:03Z</time>
      </trkpt>
      <trkpt lat="45.79536" lon="4.8253">
        <ele>168.6</ele>
        <time>2024-09-20T09:26:04Z</time>
      </trkpt>
      <trkpt lat="45.79533" lon="4.82524">
        <ele>168.6</ele>
        <time>2024-09-20T09:26:05Z</time>
      </trkpt>
      <trkpt lat="45.79529" lon="4.82518">
        <ele>168.6</ele>
        <time>2024-09-20T09:26:06Z</time>
      </trkpt>
      <trkpt lat="45.79526" lon="4.82513">
        <ele>168.4</ele>
        <time>2024-09-20T09:26:07Z</time>
      </trkpt>
      <trkpt lat="45.79523" lon="4.82507">
        <ele>168.4</ele>
        <time>2024-09-20T09:26:08Z</time>
      </trkpt>
      <trkpt lat="45.7952" lon="4.82501">
        <ele>168.4</ele>
        <time>2024-09-20T09:26:09Z</time>
      </trkpt>
      <trkpt lat="45.79517" lon="4.82495">
        <ele>168.4</ele>
        <time>2024-09-20T09:26:10Z</time>
      </trkpt>
      <trkpt lat="45.79514" lon="4.8249">
        <ele>168.4</ele>
        <time>2024-09-20T09:26:11Z</time>
      </trkpt>
      <trkpt lat="45.79511" lon="4.82484">
        <ele>168.4</ele>
        <time>2024-09-20T09:26:12Z</time>
      </trkpt>
      <trkpt lat="45.79508" lon="4.82478">
        <ele>168.4</ele>
        <time>2024-09-20T09:26:13Z</time>
      </trkpt>
      <trkpt lat="45.79505" lon="4.82473">
        <ele>168.4</ele>
        <time>2024-09-20T09:26:14Z</time>
      </trkpt>
      <trkpt lat="45.79502" lon="4.82468">
        <ele>168.4</ele>
        <time>2024-09-20T09:26:15Z</time>
      </trkpt>
      <trkpt lat="45.79499" lon="4.82462">
        <ele>168.4</ele>
        <time>2024-09-20T09:26:16Z</time>
      </trkpt>
      <trkpt lat="45.79496" lon="4.82456">
        <ele>168.4</ele>
        <time>2024-09-20T09:26:17Z</time>
      </trkpt>
      <trkpt lat="45.79493" lon="4.8245">
        <ele>168.6</ele>
        <time>2024-09-20T09:26:18Z</time>
      </trkpt>
      <trkpt lat="45.7949" lon="4.82444">
        <ele>168.6</ele>
        <time>2024-09-20T09:26:19Z</time>
      </trkpt>
      <trkpt lat="45.79487" lon="4.82438">
        <ele>168.4</ele>
        <time>2024-09-20T09:26:20Z</time>
      </trkpt>
      <trkpt lat="45.79484" lon="4.82433">
        <ele>168.4</ele>
        <time>2024-09-20T09:26:21Z</time>
      </trkpt>
      <trkpt lat="45.79481" lon="4.82427">
        <ele>168.4</ele>
        <time>2024-09-20T09:26:22Z</time>
      </trkpt>
      <trkpt lat="45.79478" lon="4.82421">
        <ele>168.4</ele>
        <time>2024-09-20T09:26:23Z</time>
      </trkpt>
      <trkpt lat="45.79475" lon="4.82416">
        <ele>168.4</ele>
        <time>2024-09-20T09:26:24Z</time>
      </trkpt>
      <trkpt lat="45.79472" lon="4.8241">
        <ele>168.4</ele>
        <time>2024-09-20T09:26:25Z</time>
      </trkpt>
      <trkpt lat="45.79469" lon="4.82405">
        <ele>168.6</ele>
        <time>2024-09-20T09:26:26Z</time>
      </trkpt>
      <trkpt lat="45.79467" lon="4.82399">
        <ele>168.6</ele>
        <time>2024-09-20T09:26:27Z</time>
      </trkpt>
      <trkpt lat="45.79463" lon="4.82394">
        <ele>168.6</ele>
        <time>2024-09-20T09:26:28Z</time>
      </trkpt>
      <trkpt lat="45.7946" lon="4.82389">
        <ele>168.6</ele>
        <time>2024-09-20T09:26:29Z</time>
      </trkpt>
      <trkpt lat="45.79457" lon="4.82383">
        <ele>168.6</ele>
        <time>2024-09-20T09:26:30Z</time>
      </trkpt>
      <trkpt lat="45.79453" lon="4.82378">
        <ele>168.6</ele>
        <time>2024-09-20T09:26:31Z</time>
      </trkpt>
      <trkpt lat="45.79451" lon="4.82372">
        <ele>168.6</ele>
        <time>2024-09-20T09:26:32Z</time>
      </trkpt>
      <trkpt lat="45.79447" lon="4.82367">
        <ele>168.6</ele>
        <time>2024-09-20T09:26:33Z</time>
      </trkpt>
      <trkpt lat="45.79444" lon="4.82361">
        <ele>168.6</ele>
        <time>2024-09-20T09:26:34Z</time>
      </trkpt>
      <trkpt lat="45.79441" lon="4.82355">
        <ele>168.2</ele>
        <time>2024-09-20T09:26:35Z</time>
      </trkpt>
      <trkpt lat="45.79438" lon="4.8235">
        <ele>168.2</ele>
        <time>2024-09-20T09:26:36Z</time>
      </trkpt>
      <trkpt lat="45.79435" lon="4.82344">
        <ele>168.2</ele>
        <time>2024-09-20T09:26:37Z</time>
      </trkpt>
      <trkpt lat="45.79432" lon="4.82339">
        <ele>168.4</ele>
        <time>2024-09-20T09:26:38Z</time>
      </trkpt>
      <trkpt lat="45.79429" lon="4.82333">
        <ele>168.4</ele>
        <time>2024-09-20T09:26:39Z</time>
      </trkpt>
      <trkpt lat="45.79426" lon="4.82327">
        <ele>168.4</ele>
        <time>2024-09-20T09:26:40Z</time>
      </trkpt>
      <trkpt lat="45.79423" lon="4.82321">
        <ele>168.4</ele>
        <time>2024-09-20T09:26:41Z</time>
      </trkpt>
      <trkpt lat="45.7942" lon="4.82315">
        <ele>168.4</ele>
        <time>2024-09-20T09:26:42Z</time>
      </trkpt>
      <trkpt lat="45.79416" lon="4.82309">
        <ele>168.4</ele>
        <time>2024-09-20T09:26:43Z</time>
      </trkpt>
      <trkpt lat="45.79413" lon="4.82303">
        <ele>168.4</ele>
        <time>2024-09-20T09:26:44Z</time>
      </trkpt>
      <trkpt lat="45.7941" lon="4.82297">
        <ele>168.4</ele>
        <time>2024-09-20T09:26:45Z</time>
      </trkpt>
      <trkpt lat="45.79407" lon="4.82292">
        <ele>168.4</ele>
        <time>2024-09-20T09:26:46Z</time>
      </trkpt>
      <trkpt lat="45.79403" lon="4.82286">
        <ele>168.4</ele>
        <time>2024-09-20T09:26:47Z</time>
      </trkpt>
      <trkpt lat="45.79401" lon="4.82281">
        <ele>168.6</ele>
        <time>2024-09-20T09:26:48Z</time>
      </trkpt>
      <trkpt lat="45.79398" lon="4.82275">
        <ele>168.6</ele>
        <time>2024-09-20T09:26:49Z</time>
      </trkpt>
      <trkpt lat="45.79395" lon="4.82269">
        <ele>168.6</ele>
        <time>2024-09-20T09:26:50Z</time>
      </trkpt>
      <trkpt lat="45.79392" lon="4.82264">
        <ele>168.6</ele>
        <time>2024-09-20T09:26:51Z</time>
      </trkpt>
      <trkpt lat="45.79389" lon="4.82258">
        <ele>168.6</ele>
        <time>2024-09-20T09:26:52Z</time>
      </trkpt>
      <trkpt lat="45.79386" lon="4.82252">
        <ele>168.6</ele>
        <time>2024-09-20T09:26:53Z</time>
      </trkpt>
      <trkpt lat="45.79383" lon="4.82246">
        <ele>168.6</ele>
        <time>2024-09-20T09:26:54Z</time>
      </trkpt>
      <trkpt lat="45.7938" lon="4.8224">
        <ele>168.6</ele>
        <time>2024-09-20T09:26:55Z</time>
      </trkpt>
      <trkpt lat="45.79376" lon="4.82235">
        <ele>168.6</ele>
        <time>2024-09-20T09:26:56Z</time>
      </trkpt>
      <trkpt lat="45.79374" lon="4.82229">
        <ele>168.6</ele>
        <time>2024-09-20T09:26:57Z</time>
      </trkpt>
      <trkpt lat="45.7937" lon="4.82224">
        <ele>168.6</ele>
        <time>2024-09-20T09:26:58Z</time>
      </trkpt>
      <trkpt lat="45.79367" lon="4.82218">
        <ele>168.6</ele>
        <time>2024-09-20T09:26:59Z</time>
      </trkpt>
      <trkpt lat="45.79363" lon="4.82213">
        <ele>168.6</ele>
        <time>2024-09-20T09:27:00Z</time>
      </trkpt>
      <trkpt lat="45.7936" lon="4.82208">
        <ele>168.6</ele>
        <time>2024-09-20T09:27:01Z</time>
      </trkpt>
      <trkpt lat="45.79356" lon="4.82202">
        <ele>168.6</ele>
        <time>2024-09-20T09:27:02Z</time>
      </trkpt>
      <trkpt lat="45.79353" lon="4.82197">
        <ele>168.6</ele>
        <time>2024-09-20T09:27:03Z</time>
      </trkpt>
      <trkpt lat="45.79349" lon="4.82192">
        <ele>168.6</ele>
        <time>2024-09-20T09:27:04Z</time>
      </trkpt>
      <trkpt lat="45.79345" lon="4.82187">
        <ele>168.6</ele>
        <time>2024-09-20T09:27:05Z</time>
      </trkpt>
      <trkpt lat="45.79341" lon="4.82182">
        <ele>168.8</ele>
        <time>2024-09-20T09:27:06Z</time>
      </trkpt>
      <trkpt lat="45.79337" lon="4.82176">
        <ele>168.8</ele>
        <time>2024-09-20T09:27:07Z</time>
      </trkpt>
      <trkpt lat="45.79333" lon="4.82171">
        <ele>168.8</ele>
        <time>2024-09-20T09:27:08Z</time>
      </trkpt>
      <trkpt lat="45.79329" lon="4.82166">
        <ele>168.8</ele>
        <time>2024-09-20T09:27:09Z</time>
      </trkpt>
      <trkpt lat="45.79325" lon="4.82161">
        <ele>168.8</ele>
        <time>2024-09-20T09:27:10Z</time>
      </trkpt>
      <trkpt lat="45.79321" lon="4.82156">
        <ele>168.4</ele>
        <time>2024-09-20T09:27:11Z</time>
      </trkpt>
      <trkpt lat="45.79317" lon="4.82151">
        <ele>168.4</ele>
        <time>2024-09-20T09:27:12Z</time>
      </trkpt>
      <trkpt lat="45.79312" lon="4.82145">
        <ele>168.4</ele>
        <time>2024-09-20T09:27:13Z</time>
      </trkpt>
      <trkpt lat="45.79308" lon="4.8214">
        <ele>168.6</ele>
        <time>2024-09-20T09:27:14Z</time>
      </trkpt>
      <trkpt lat="45.79305" lon="4.82136">
        <ele>168.6</ele>
        <time>2024-09-20T09:27:15Z</time>
      </trkpt>
      <trkpt lat="45.79301" lon="4.82132">
        <ele>168.6</ele>
        <time>2024-09-20T09:27:16Z</time>
      </trkpt>
      <trkpt lat="45.79298" lon="4.8213">
        <ele>168.6</ele>
        <time>2024-09-20T09:27:17Z</time>
      </trkpt>
      <trkpt lat="45.79296" lon="4.82128">
        <ele>168.6</ele>
        <time>2024-09-20T09:27:18Z</time>
      </trkpt>
      <trkpt lat="45.79294" lon="4.82125">
        <ele>168.4</ele>
        <time>2024-09-20T09:27:19Z</time>
      </trkpt>
      <trkpt lat="45.79293" lon="4.82123">
        <ele>168.4</ele>
        <time>2024-09-20T09:27:20Z</time>
      </trkpt>
      <trkpt lat="45.7929" lon="4.8212">
        <ele>168.4</ele>
        <time>2024-09-20T09:27:21Z</time>
      </trkpt>
      <trkpt lat="45.79288" lon="4.82117">
        <ele>168.4</ele>
        <time>2024-09-20T09:27:22Z</time>
      </trkpt>
      <trkpt lat="45.79286" lon="4.82114">
        <ele>168.4</ele>
        <time>2024-09-20T09:27:23Z</time>
      </trkpt>
      <trkpt lat="45.79283" lon="4.82111">
        <ele>168.4</ele>
        <time>2024-09-20T09:27:24Z</time>
      </trkpt>
      <trkpt lat="45.7928" lon="4.82107">
        <ele>168.4</ele>
        <time>2024-09-20T09:27:25Z</time>
      </trkpt>
      <trkpt lat="45.79278" lon="4.82104">
        <ele>168.4</ele>
        <time>2024-09-20T09:27:26Z</time>
      </trkpt>
      <trkpt lat="45.79275" lon="4.821">
        <ele>168.4</ele>
        <time>2024-09-20T09:27:27Z</time>
      </trkpt>
      <trkpt lat="45.79271" lon="4.82096">
        <ele>168.4</ele>
        <time>2024-09-20T09:27:28Z</time>
      </trkpt>
      <trkpt lat="45.79268" lon="4.82092">
        <ele>168.4</ele>
        <time>2024-09-20T09:27:29Z</time>
      </trkpt>
      <trkpt lat="45.79265" lon="4.82088">
        <ele>168.4</ele>
        <time>2024-09-20T09:27:30Z</time>
      </trkpt>
      <trkpt lat="45.79262" lon="4.82084">
        <ele>168.4</ele>
        <time>2024-09-20T09:27:31Z</time>
      </trkpt>
      <trkpt lat="45.79258" lon="4.82079">
        <ele>168.4</ele>
        <time>2024-09-20T09:27:32Z</time>
      </trkpt>
      <trkpt lat="45.79255" lon="4.82075">
        <ele>168.4</ele>
        <time>2024-09-20T09:27:33Z</time>
      </trkpt>
      <trkpt lat="45.79251" lon="4.8207">
        <ele>168.4</ele>
        <time>2024-09-20T09:27:34Z</time>
      </trkpt>
      <trkpt lat="45.79248" lon="4.82066">
        <ele>168.4</ele>
        <time>2024-09-20T09:27:35Z</time>
      </trkpt>
      <trkpt lat="45.79244" lon="4.82062">
        <ele>168.4</ele>
        <time>2024-09-20T09:27:36Z</time>
      </trkpt>
      <trkpt lat="45.79241" lon="4.82057">
        <ele>168.6</ele>
        <time>2024-09-20T09:27:37Z</time>
      </trkpt>
      <trkpt lat="45.79237" lon="4.82053">
        <ele>168.6</ele>
        <time>2024-09-20T09:27:38Z</time>
      </trkpt>
      <trkpt lat="45.79234" lon="4.82048">
        <ele>168.6</ele>
        <time>2024-09-20T09:27:39Z</time>
      </trkpt>
      <trkpt lat="45.79231" lon="4.82044">
        <ele>168.6</ele>
        <time>2024-09-20T09:27:40Z</time>
      </trkpt>
      <trkpt lat="45.79227" lon="4.8204">
        <ele>168.6</ele>
        <time>2024-09-20T09:27:41Z</time>
      </trkpt>
      <trkpt lat="45.79224" lon="4.82036">
        <ele>168.2</ele>
        <time>2024-09-20T09:27:42Z</time>
      </trkpt>
      <trkpt lat="45.7922" lon="4.82031">
        <ele>168.2</ele>
        <time>2024-09-20T09:27:43Z</time>
      </trkpt>
      <trkpt lat="45.79217" lon="4.82027">
        <ele>168.2</ele>
        <time>2024-09-20T09:27:44Z</time>
      </trkpt>
      <trkpt lat="45.79214" lon="4.82023">
        <ele>168.6</ele>
        <time>2024-09-20T09:27:45Z</time>
      </trkpt>
      <trkpt lat="45.7921" lon="4.82018">
        <ele>168.6</ele>
        <time>2024-09-20T09:27:46Z</time>
      </trkpt>
      <trkpt lat="45.79206" lon="4.82014">
        <ele>168.6</ele>
        <time>2024-09-20T09:27:47Z</time>
      </trkpt>
      <trkpt lat="45.79203" lon="4.82009">
        <ele>168.6</ele>
        <time>2024-09-20T09:27:48Z</time>
      </trkpt>
      <trkpt lat="45.79199" lon="4.82004">
        <ele>168.6</ele>
        <time>2024-09-20T09:27:49Z</time>
      </trkpt>
      <trkpt lat="45.79196" lon="4.82">
        <ele>168.8</ele>
        <time>2024-09-20T09:27:50Z</time>
      </trkpt>
      <trkpt lat="45.79192" lon="4.81996">
        <ele>168.8</ele>
        <time>2024-09-20T09:27:51Z</time>
      </trkpt>
      <trkpt lat="45.79188" lon="4.81991">
        <ele>168.8</ele>
        <time>2024-09-20T09:27:52Z</time>
      </trkpt>
      <trkpt lat="45.79184" lon="4.81987">
        <ele>168.8</ele>
        <time>2024-09-20T09:27:53Z</time>
      </trkpt>
      <trkpt lat="45.7918" lon="4.81982">
        <ele>168.4</ele>
        <time>2024-09-20T09:27:54Z</time>
      </trkpt>
      <trkpt lat="45.79177" lon="4.81978">
        <ele>168.8</ele>
        <time>2024-09-20T09:27:55Z</time>
      </trkpt>
      <trkpt lat="45.79173" lon="4.81973">
        <ele>168.8</ele>
        <time>2024-09-20T09:27:56Z</time>
      </trkpt>
      <trkpt lat="45.79169" lon="4.81968">
        <ele>168.8</ele>
        <time>2024-09-20T09:27:57Z</time>
      </trkpt>
      <trkpt lat="45.79166" lon="4.81964">
        <ele>168.8</ele>
        <time>2024-09-20T09:27:58Z</time>
      </trkpt>
      <trkpt lat="45.79162" lon="4.8196">
        <ele>168.8</ele>
        <time>2024-09-20T09:27:59Z</time>
      </trkpt>
      <trkpt lat="45.79158" lon="4.81955">
        <ele>168.8</ele>
        <time>2024-09-20T09:28:00Z</time>
      </trkpt>
      <trkpt lat="45.79155" lon="4.81951">
        <ele>168.8</ele>
        <time>2024-09-20T09:28:01Z</time>
      </trkpt>
      <trkpt lat="45.79151" lon="4.81946">
        <ele>168.4</ele>
        <time>2024-09-20T09:28:02Z</time>
      </trkpt>
      <trkpt lat="45.79147" lon="4.81941">
        <ele>168.8</ele>
        <time>2024-09-20T09:28:03Z</time>
      </trkpt>
      <trkpt lat="45.79144" lon="4.81937">
        <ele>168.8</ele>
        <time>2024-09-20T09:28:04Z</time>
      </trkpt>
      <trkpt lat="45.7914" lon="4.81932">
        <ele>168.8</ele>
        <time>2024-09-20T09:28:05Z</time>
      </trkpt>
      <trkpt lat="45.79137" lon="4.81927">
        <ele>168.8</ele>
        <time>2024-09-20T09:28:06Z</time>
      </trkpt>
      <trkpt lat="45.79134" lon="4.81922">
        <ele>168.6</ele>
        <time>2024-09-20T09:28:07Z</time>
      </trkpt>
      <trkpt lat="45.79131" lon="4.81918">
        <ele>168.6</ele>
        <time>2024-09-20T09:28:08Z</time>
      </trkpt>
      <trkpt lat="45.79127" lon="4.81913">
        <ele>169</ele>
        <time>2024-09-20T09:28:09Z</time>
      </trkpt>
      <trkpt lat="45.79123" lon="4.81908">
        <ele>169</ele>
        <time>2024-09-20T09:28:10Z</time>
      </trkpt>
      <trkpt lat="45.79119" lon="4.81904">
        <ele>169</ele>
        <time>2024-09-20T09:28:11Z</time>
      </trkpt>
      <trkpt lat="45.79116" lon="4.81899">
        <ele>168.6</ele>
        <time>2024-09-20T09:28:12Z</time>
      </trkpt>
      <trkpt lat="45.79112" lon="4.81894">
        <ele>168.6</ele>
        <time>2024-09-20T09:28:13Z</time>
      </trkpt>
      <trkpt lat="45.79108" lon="4.81889">
        <ele>168.6</ele>
        <time>2024-09-20T09:28:14Z</time>
      </trkpt>
      <trkpt lat="45.79104" lon="4.81883">
        <ele>168.6</ele>
        <time>2024-09-20T09:28:15Z</time>
      </trkpt>
      <trkpt lat="45.791" lon="4.81878">
        <ele>168.6</ele>
        <time>2024-09-20T09:28:16Z</time>
      </trkpt>
      <trkpt lat="45.79097" lon="4.81873">
        <ele>168.8</ele>
        <time>2024-09-20T09:28:17Z</time>
      </trkpt>
      <trkpt lat="45.79093" lon="4.81867">
        <ele>168.6</ele>
        <time>2024-09-20T09:28:18Z</time>
      </trkpt>
      <trkpt lat="45.79089" lon="4.81862">
        <ele>168.6</ele>
        <time>2024-09-20T09:28:19Z</time>
      </trkpt>
      <trkpt lat="45.79085" lon="4.81856">
        <ele>168.6</ele>
        <time>2024-09-20T09:28:20Z</time>
      </trkpt>
      <trkpt lat="45.79082" lon="4.81851">
        <ele>168.6</ele>
        <time>2024-09-20T09:28:21Z</time>
      </trkpt>
      <trkpt lat="45.79077" lon="4.81846">
        <ele>168.6</ele>
        <time>2024-09-20T09:28:22Z</time>
      </trkpt>
      <trkpt lat="45.79073" lon="4.8184">
        <ele>168.6</ele>
        <time>2024-09-20T09:28:23Z</time>
      </trkpt>
      <trkpt lat="45.79069" lon="4.81835">
        <ele>168.6</ele>
        <time>2024-09-20T09:28:24Z</time>
      </trkpt>
      <trkpt lat="45.79066" lon="4.81829">
        <ele>168.6</ele>
        <time>2024-09-20T09:28:25Z</time>
      </trkpt>
      <trkpt lat="45.79062" lon="4.81824">
        <ele>168.6</ele>
        <time>2024-09-20T09:28:26Z</time>
      </trkpt>
      <trkpt lat="45.79059" lon="4.81818">
        <ele>168.6</ele>
        <time>2024-09-20T09:28:27Z</time>
      </trkpt>
      <trkpt lat="45.79055" lon="4.81813">
        <ele>168.6</ele>
        <time>2024-09-20T09:28:28Z</time>
      </trkpt>
      <trkpt lat="45.79051" lon="4.81809">
        <ele>168.6</ele>
        <time>2024-09-20T09:28:29Z</time>
      </trkpt>
      <trkpt lat="45.79047" lon="4.81804">
        <ele>168.6</ele>
        <time>2024-09-20T09:28:30Z</time>
      </trkpt>
      <trkpt lat="45.79044" lon="4.81798">
        <ele>168.4</ele>
        <time>2024-09-20T09:28:31Z</time>
      </trkpt>
      <trkpt lat="45.79039" lon="4.81793">
        <ele>168.4</ele>
        <time>2024-09-20T09:28:32Z</time>
      </trkpt>
      <trkpt lat="45.79035" lon="4.81787">
        <ele>168.4</ele>
        <time>2024-09-20T09:28:33Z</time>
      </trkpt>
      <trkpt lat="45.79032" lon="4.81783">
        <ele>168.4</ele>
        <time>2024-09-20T09:28:34Z</time>
      </trkpt>
      <trkpt lat="45.79028" lon="4.81777">
        <ele>168.4</ele>
        <time>2024-09-20T09:28:35Z</time>
      </trkpt>
      <trkpt lat="45.79025" lon="4.81772">
        <ele>168.4</ele>
        <time>2024-09-20T09:28:36Z</time>
      </trkpt>
      <trkpt lat="45.79021" lon="4.81767">
        <ele>168.4</ele>
        <time>2024-09-20T09:28:37Z</time>
      </trkpt>
      <trkpt lat="45.79017" lon="4.81762">
        <ele>167.8</ele>
        <time>2024-09-20T09:28:38Z</time>
      </trkpt>
      <trkpt lat="45.79014" lon="4.81757">
        <ele>167.8</ele>
        <time>2024-09-20T09:28:39Z</time>
      </trkpt>
      <trkpt lat="45.7901" lon="4.81752">
        <ele>168</ele>
        <time>2024-09-20T09:28:40Z</time>
      </trkpt>
      <trkpt lat="45.79007" lon="4.81747">
        <ele>168</ele>
        <time>2024-09-20T09:28:41Z</time>
      </trkpt>
      <trkpt lat="45.79004" lon="4.81742">
        <ele>168</ele>
        <time>2024-09-20T09:28:42Z</time>
      </trkpt>
      <trkpt lat="45.79" lon="4.81737">
        <ele>168</ele>
        <time>2024-09-20T09:28:43Z</time>
      </trkpt>
      <trkpt lat="45.78996" lon="4.81732">
        <ele>167.8</ele>
        <time>2024-09-20T09:28:44Z</time>
      </trkpt>
      <trkpt lat="45.78993" lon="4.81728">
        <ele>167.8</ele>
        <time>2024-09-20T09:28:45Z</time>
      </trkpt>
      <trkpt lat="45.7899" lon="4.81724">
        <ele>167.8</ele>
        <time>2024-09-20T09:28:46Z</time>
      </trkpt>
      <trkpt lat="45.78986" lon="4.81719">
        <ele>168.2</ele>
        <time>2024-09-20T09:28:47Z</time>
      </trkpt>
      <trkpt lat="45.78983" lon="4.81713">
        <ele>168.2</ele>
        <time>2024-09-20T09:28:48Z</time>
      </trkpt>
      <trkpt lat="45.78979" lon="4.81708">
        <ele>168.4</ele>
        <time>2024-09-20T09:28:49Z</time>
      </trkpt>
      <trkpt lat="45.78975" lon="4.81704">
        <ele>168.4</ele>
        <time>2024-09-20T09:28:50Z</time>
      </trkpt>
      <trkpt lat="45.78972" lon="4.81699">
        <ele>168.4</ele>
        <time>2024-09-20T09:28:51Z</time>
      </trkpt>
      <trkpt lat="45.78969" lon="4.81694">
        <ele>168.2</ele>
        <time>2024-09-20T09:28:52Z</time>
      </trkpt>
      <trkpt lat="45.78965" lon="4.81689">
        <ele>168.4</ele>
        <time>2024-09-20T09:28:53Z</time>
      </trkpt>
      <trkpt lat="45.78962" lon="4.81684">
        <ele>168.4</ele>
        <time>2024-09-20T09:28:54Z</time>
      </trkpt>
      <trkpt lat="45.78959" lon="4.81679">
        <ele>168.4</ele>
        <time>2024-09-20T09:28:55Z</time>
      </trkpt>
      <trkpt lat="45.78956" lon="4.81674">
        <ele>168.4</ele>
        <time>2024-09-20T09:28:56Z</time>
      </trkpt>
      <trkpt lat="45.78952" lon="4.8167">
        <ele>168.4</ele>
        <time>2024-09-20T09:28:57Z</time>
      </trkpt>
      <trkpt lat="45.78949" lon="4.81665">
        <ele>168.4</ele>
        <time>2024-09-20T09:28:58Z</time>
      </trkpt>
      <trkpt lat="45.78946" lon="4.8166">
        <ele>168.4</ele>
        <time>2024-09-20T09:28:59Z</time>
      </trkpt>
      <trkpt lat="45.78942" lon="4.81655">
        <ele>168.4</ele>
        <time>2024-09-20T09:29:00Z</time>
      </trkpt>
      <trkpt lat="45.78938" lon="4.8165">
        <ele>168.4</ele>
        <time>2024-09-20T09:29:01Z</time>
      </trkpt>
      <trkpt lat="45.78934" lon="4.81645">
        <ele>168.4</ele>
        <time>2024-09-20T09:29:02Z</time>
      </trkpt>
      <trkpt lat="45.78931" lon="4.8164">
        <ele>168.4</ele>
        <time>2024-09-20T09:29:03Z</time>
      </trkpt>
      <trkpt lat="45.78928" lon="4.81635">
        <ele>168.4</ele>
        <time>2024-09-20T09:29:04Z</time>
      </trkpt>
      <trkpt lat="45.78924" lon="4.8163">
        <ele>168.4</ele>
        <time>2024-09-20T09:29:05Z</time>
      </trkpt>
      <trkpt lat="45.78921" lon="4.81625">
        <ele>168.4</ele>
        <time>2024-09-20T09:29:06Z</time>
      </trkpt>
      <trkpt lat="45.78917" lon="4.8162">
        <ele>168.2</ele>
        <time>2024-09-20T09:29:07Z</time>
      </trkpt>
      <trkpt lat="45.78913" lon="4.81614">
        <ele>168.2</ele>
        <time>2024-09-20T09:29:08Z</time>
      </trkpt>
      <trkpt lat="45.7891" lon="4.81609">
        <ele>168.2</ele>
        <time>2024-09-20T09:29:09Z</time>
      </trkpt>
      <trkpt lat="45.78906" lon="4.81604">
        <ele>168.4</ele>
        <time>2024-09-20T09:29:10Z</time>
      </trkpt>
      <trkpt lat="45.78902" lon="4.81599">
        <ele>168.6</ele>
        <time>2024-09-20T09:29:11Z</time>
      </trkpt>
      <trkpt lat="45.78898" lon="4.81594">
        <ele>168.6</ele>
        <time>2024-09-20T09:29:12Z</time>
      </trkpt>
      <trkpt lat="45.78894" lon="4.81589">
        <ele>168.6</ele>
        <time>2024-09-20T09:29:13Z</time>
      </trkpt>
      <trkpt lat="45.7889" lon="4.81585">
        <ele>168.6</ele>
        <time>2024-09-20T09:29:14Z</time>
      </trkpt>
      <trkpt lat="45.78886" lon="4.8158">
        <ele>167.6</ele>
        <time>2024-09-20T09:29:15Z</time>
      </trkpt>
      <trkpt lat="45.78882" lon="4.81575">
        <ele>168.6</ele>
        <time>2024-09-20T09:29:16Z</time>
      </trkpt>
      <trkpt lat="45.78878" lon="4.8157">
        <ele>168.6</ele>
        <time>2024-09-20T09:29:17Z</time>
      </trkpt>
      <trkpt lat="45.78875" lon="4.81565">
        <ele>168.6</ele>
        <time>2024-09-20T09:29:18Z</time>
      </trkpt>
      <trkpt lat="45.78871" lon="4.81561">
        <ele>168.6</ele>
        <time>2024-09-20T09:29:19Z</time>
      </trkpt>
      <trkpt lat="45.78867" lon="4.81556">
        <ele>168.6</ele>
        <time>2024-09-20T09:29:20Z</time>
      </trkpt>
      <trkpt lat="45.78863" lon="4.81552">
        <ele>168.6</ele>
        <time>2024-09-20T09:29:21Z</time>
      </trkpt>
      <trkpt lat="45.78858" lon="4.81548">
        <ele>168.6</ele>
        <time>2024-09-20T09:29:22Z</time>
      </trkpt>
      <trkpt lat="45.78854" lon="4.81543">
        <ele>168.6</ele>
        <time>2024-09-20T09:29:23Z</time>
      </trkpt>
      <trkpt lat="45.7885" lon="4.81539">
        <ele>168.4</ele>
        <time>2024-09-20T09:29:24Z</time>
      </trkpt>
      <trkpt lat="45.78846" lon="4.81535">
        <ele>168.4</ele>
        <time>2024-09-20T09:29:25Z</time>
      </trkpt>
      <trkpt lat="45.78842" lon="4.81531">
        <ele>168.4</ele>
        <time>2024-09-20T09:29:26Z</time>
      </trkpt>
      <trkpt lat="45.78838" lon="4.81528">
        <ele>168.4</ele>
        <time>2024-09-20T09:29:27Z</time>
      </trkpt>
      <trkpt lat="45.78834" lon="4.81524">
        <ele>168.4</ele>
        <time>2024-09-20T09:29:28Z</time>
      </trkpt>
      <trkpt lat="45.7883" lon="4.8152">
        <ele>168.4</ele>
        <time>2024-09-20T09:29:29Z</time>
      </trkpt>
      <trkpt lat="45.78826" lon="4.81516">
        <ele>168.4</ele>
        <time>2024-09-20T09:29:30Z</time>
      </trkpt>
      <trkpt lat="45.78822" lon="4.81512">
        <ele>168.4</ele>
        <time>2024-09-20T09:29:31Z</time>
      </trkpt>
      <trkpt lat="45.78818" lon="4.81508">
        <ele>168.4</ele>
        <time>2024-09-20T09:29:32Z</time>
      </trkpt>
      <trkpt lat="45.78815" lon="4.81505">
        <ele>168.4</ele>
        <time>2024-09-20T09:29:33Z</time>
      </trkpt>
      <trkpt lat="45.78811" lon="4.81502">
        <ele>168.4</ele>
        <time>2024-09-20T09:29:34Z</time>
      </trkpt>
      <trkpt lat="45.78807" lon="4.81498">
        <ele>168.4</ele>
        <time>2024-09-20T09:29:35Z</time>
      </trkpt>
      <trkpt lat="45.78803" lon="4.81494">
        <ele>168.4</ele>
        <time>2024-09-20T09:29:36Z</time>
      </trkpt>
      <trkpt lat="45.788" lon="4.81491">
        <ele>168.4</ele>
        <time>2024-09-20T09:29:37Z</time>
      </trkpt>
      <trkpt lat="45.78795" lon="4.81488">
        <ele>168.6</ele>
        <time>2024-09-20T09:29:38Z</time>
      </trkpt>
      <trkpt lat="45.78791" lon="4.81484">
        <ele>168.6</ele>
        <time>2024-09-20T09:29:39Z</time>
      </trkpt>
      <trkpt lat="45.78787" lon="4.81481">
        <ele>168.6</ele>
        <time>2024-09-20T09:29:40Z</time>
      </trkpt>
      <trkpt lat="45.78782" lon="4.81477">
        <ele>168.6</ele>
        <time>2024-09-20T09:29:41Z</time>
      </trkpt>
      <trkpt lat="45.78779" lon="4.81474">
        <ele>168.6</ele>
        <time>2024-09-20T09:29:42Z</time>
      </trkpt>
      <trkpt lat="45.78776" lon="4.81471">
        <ele>168.6</ele>
        <time>2024-09-20T09:29:43Z</time>
      </trkpt>
      <trkpt lat="45.78772" lon="4.81468">
        <ele>168.6</ele>
        <time>2024-09-20T09:29:44Z</time>
      </trkpt>
      <trkpt lat="45.78768" lon="4.81465">
        <ele>168.6</ele>
        <time>2024-09-20T09:29:45Z</time>
      </trkpt>
      <trkpt lat="45.78764" lon="4.81462">
        <ele>168.6</ele>
        <time>2024-09-20T09:29:46Z</time>
      </trkpt>
      <trkpt lat="45.7876" lon="4.81459">
        <ele>168.6</ele>
        <time>2024-09-20T09:29:47Z</time>
      </trkpt>
      <trkpt lat="45.78756" lon="4.81455">
        <ele>168.8</ele>
        <time>2024-09-20T09:29:48Z</time>
      </trkpt>
      <trkpt lat="45.78751" lon="4.81452">
        <ele>168.8</ele>
        <time>2024-09-20T09:29:49Z</time>
      </trkpt>
      <trkpt lat="45.78747" lon="4.8145">
        <ele>168.8</ele>
        <time>2024-09-20T09:29:50Z</time>
      </trkpt>
      <trkpt lat="45.78743" lon="4.81446">
        <ele>168.8</ele>
        <time>2024-09-20T09:29:51Z</time>
      </trkpt>
      <trkpt lat="45.78738" lon="4.81443">
        <ele>168.4</ele>
        <time>2024-09-20T09:29:52Z</time>
      </trkpt>
      <trkpt lat="45.78733" lon="4.8144">
        <ele>168.4</ele>
        <time>2024-09-20T09:29:53Z</time>
      </trkpt>
      <trkpt lat="45.78729" lon="4.81437">
        <ele>168.4</ele>
        <time>2024-09-20T09:29:54Z</time>
      </trkpt>
      <trkpt lat="45.78725" lon="4.81434">
        <ele>168.4</ele>
        <time>2024-09-20T09:29:55Z</time>
      </trkpt>
      <trkpt lat="45.7872" lon="4.81431">
        <ele>168.4</ele>
        <time>2024-09-20T09:29:56Z</time>
      </trkpt>
      <trkpt lat="45.78716" lon="4.81428">
        <ele>168.4</ele>
        <time>2024-09-20T09:29:57Z</time>
      </trkpt>
      <trkpt lat="45.78711" lon="4.81425">
        <ele>168.4</ele>
        <time>2024-09-20T09:29:58Z</time>
      </trkpt>
      <trkpt lat="45.78707" lon="4.81423">
        <ele>168.4</ele>
        <time>2024-09-20T09:29:59Z</time>
      </trkpt>
      <trkpt lat="45.78702" lon="4.8142">
        <ele>168.4</ele>
        <time>2024-09-20T09:30:00Z</time>
      </trkpt>
      <trkpt lat="45.78698" lon="4.81417">
        <ele>168.4</ele>
        <time>2024-09-20T09:30:01Z</time>
      </trkpt>
      <trkpt lat="45.78693" lon="4.81414">
        <ele>168.6</ele>
        <time>2024-09-20T09:30:02Z</time>
      </trkpt>
      <trkpt lat="45.78689" lon="4.81412">
        <ele>168.6</ele>
        <time>2024-09-20T09:30:03Z</time>
      </trkpt>
      <trkpt lat="45.78685" lon="4.81409">
        <ele>169.2</ele>
        <time>2024-09-20T09:30:04Z</time>
      </trkpt>
      <trkpt lat="45.78681" lon="4.81407">
        <ele>169.2</ele>
        <time>2024-09-20T09:30:05Z</time>
      </trkpt>
      <trkpt lat="45.78677" lon="4.81404">
        <ele>168.8</ele>
        <time>2024-09-20T09:30:06Z</time>
      </trkpt>
      <trkpt lat="45.78673" lon="4.81401">
        <ele>168.8</ele>
        <time>2024-09-20T09:30:07Z</time>
      </trkpt>
      <trkpt lat="45.78669" lon="4.81398">
        <ele>168.8</ele>
        <time>2024-09-20T09:30:08Z</time>
      </trkpt>
      <trkpt lat="45.78665" lon="4.81395">
        <ele>168.6</ele>
        <time>2024-09-20T09:30:09Z</time>
      </trkpt>
      <trkpt lat="45.78661" lon="4.81393">
        <ele>168.6</ele>
        <time>2024-09-20T09:30:10Z</time>
      </trkpt>
      <trkpt lat="45.78657" lon="4.8139">
        <ele>168.6</ele>
        <time>2024-09-20T09:30:11Z</time>
      </trkpt>
      <trkpt lat="45.78653" lon="4.81387">
        <ele>168.6</ele>
        <time>2024-09-20T09:30:12Z</time>
      </trkpt>
      <trkpt lat="45.78648" lon="4.81385">
        <ele>168.6</ele>
        <time>2024-09-20T09:30:13Z</time>
      </trkpt>
      <trkpt lat="45.78644" lon="4.81382">
        <ele>168.6</ele>
        <time>2024-09-20T09:30:14Z</time>
      </trkpt>
      <trkpt lat="45.7864" lon="4.81379">
        <ele>168.6</ele>
        <time>2024-09-20T09:30:15Z</time>
      </trkpt>
      <trkpt lat="45.78635" lon="4.81377">
        <ele>168.6</ele>
        <time>2024-09-20T09:30:16Z</time>
      </trkpt>
      <trkpt lat="45.78631" lon="4.81374">
        <ele>168.6</ele>
        <time>2024-09-20T09:30:17Z</time>
      </trkpt>
      <trkpt lat="45.78626" lon="4.81371">
        <ele>168.6</ele>
        <time>2024-09-20T09:30:18Z</time>
      </trkpt>
      <trkpt lat="45.78622" lon="4.81368">
        <ele>168.6</ele>
        <time>2024-09-20T09:30:19Z</time>
      </trkpt>
      <trkpt lat="45.78617" lon="4.81366">
        <ele>168.6</ele>
        <time>2024-09-20T09:30:20Z</time>
      </trkpt>
      <trkpt lat="45.78612" lon="4.81363">
        <ele>168.6</ele>
        <time>2024-09-20T09:30:21Z</time>
      </trkpt>
      <trkpt lat="45.78607" lon="4.81361">
        <ele>168.6</ele>
        <time>2024-09-20T09:30:22Z</time>
      </trkpt>
      <trkpt lat="45.78603" lon="4.81358">
        <ele>168.8</ele>
        <time>2024-09-20T09:30:23Z</time>
      </trkpt>
      <trkpt lat="45.78598" lon="4.81355">
        <ele>168.4</ele>
        <time>2024-09-20T09:30:24Z</time>
      </trkpt>
      <trkpt lat="45.78593" lon="4.81352">
        <ele>168.4</ele>
        <time>2024-09-20T09:30:25Z</time>
      </trkpt>
      <trkpt lat="45.78589" lon="4.81349">
        <ele>168.4</ele>
        <time>2024-09-20T09:30:26Z</time>
      </trkpt>
      <trkpt lat="45.78584" lon="4.81346">
        <ele>168.4</ele>
        <time>2024-09-20T09:30:27Z</time>
      </trkpt>
      <trkpt lat="45.7858" lon="4.81343">
        <ele>168.4</ele>
        <time>2024-09-20T09:30:28Z</time>
      </trkpt>
      <trkpt lat="45.78575" lon="4.8134">
        <ele>168.4</ele>
        <time>2024-09-20T09:30:29Z</time>
      </trkpt>
      <trkpt lat="45.7857" lon="4.81339">
        <ele>168.4</ele>
        <time>2024-09-20T09:30:30Z</time>
      </trkpt>
      <trkpt lat="45.78566" lon="4.81336">
        <ele>168.4</ele>
        <time>2024-09-20T09:30:31Z</time>
      </trkpt>
      <trkpt lat="45.78562" lon="4.81333">
        <ele>168.4</ele>
        <time>2024-09-20T09:30:32Z</time>
      </trkpt>
      <trkpt lat="45.78559" lon="4.8133">
        <ele>168.4</ele>
        <time>2024-09-20T09:30:33Z</time>
      </trkpt>
      <trkpt lat="45.78556" lon="4.81328">
        <ele>168.2</ele>
        <time>2024-09-20T09:30:34Z</time>
      </trkpt>
      <trkpt lat="45.78555" lon="4.81326">
        <ele>168.2</ele>
        <time>2024-09-20T09:30:35Z</time>
      </trkpt>
      <trkpt lat="45.78554" lon="4.81326">
        <ele>168.2</ele>
        <time>2024-09-20T09:30:36Z</time>
      </trkpt>
      <trkpt lat="45.78548" lon="4.81323">
        <ele>168.8</ele>
        <time>2024-09-20T09:30:46Z</time>
      </trkpt>
      <trkpt lat="45.78545" lon="4.81321">
        <ele>168.8</ele>
        <time>2024-09-20T09:30:47Z</time>
      </trkpt>
      <trkpt lat="45.78543" lon="4.8132">
        <ele>168.8</ele>
        <time>2024-09-20T09:30:48Z</time>
      </trkpt>
      <trkpt lat="45.78541" lon="4.81318">
        <ele>168.6</ele>
        <time>2024-09-20T09:30:49Z</time>
      </trkpt>
      <trkpt lat="45.78538" lon="4.81316">
        <ele>168.6</ele>
        <time>2024-09-20T09:30:50Z</time>
      </trkpt>
      <trkpt lat="45.78536" lon="4.81315">
        <ele>168.6</ele>
        <time>2024-09-20T09:30:51Z</time>
      </trkpt>
      <trkpt lat="45.78534" lon="4.81313">
        <ele>168.6</ele>
        <time>2024-09-20T09:30:52Z</time>
      </trkpt>
      <trkpt lat="45.78531" lon="4.81311">
        <ele>168.6</ele>
        <time>2024-09-20T09:30:53Z</time>
      </trkpt>
      <trkpt lat="45.78528" lon="4.8131">
        <ele>168.6</ele>
        <time>2024-09-20T09:30:54Z</time>
      </trkpt>
      <trkpt lat="45.78525" lon="4.81307">
        <ele>169</ele>
        <time>2024-09-20T09:30:55Z</time>
      </trkpt>
      <trkpt lat="45.78522" lon="4.81305">
        <ele>169</ele>
        <time>2024-09-20T09:30:56Z</time>
      </trkpt>
      <trkpt lat="45.78519" lon="4.81303">
        <ele>169</ele>
        <time>2024-09-20T09:30:57Z</time>
      </trkpt>
      <trkpt lat="45.78515" lon="4.81301">
        <ele>169</ele>
        <time>2024-09-20T09:30:58Z</time>
      </trkpt>
      <trkpt lat="45.78512" lon="4.81298">
        <ele>169.2</ele>
        <time>2024-09-20T09:30:59Z</time>
      </trkpt>
      <trkpt lat="45.78508" lon="4.81296">
        <ele>169.2</ele>
        <time>2024-09-20T09:31:00Z</time>
      </trkpt>
      <trkpt lat="45.78505" lon="4.81293">
        <ele>169.2</ele>
        <time>2024-09-20T09:31:01Z</time>
      </trkpt>
      <trkpt lat="45.78502" lon="4.8129">
        <ele>169.2</ele>
        <time>2024-09-20T09:31:02Z</time>
      </trkpt>
      <trkpt lat="45.78498" lon="4.81287">
        <ele>169.2</ele>
        <time>2024-09-20T09:31:03Z</time>
      </trkpt>
      <trkpt lat="45.78495" lon="4.81285">
        <ele>169.2</ele>
        <time>2024-09-20T09:31:04Z</time>
      </trkpt>
      <trkpt lat="45.78492" lon="4.81281">
        <ele>169.2</ele>
        <time>2024-09-20T09:31:05Z</time>
      </trkpt>
      <trkpt lat="45.78488" lon="4.81278">
        <ele>169.2</ele>
        <time>2024-09-20T09:31:06Z</time>
      </trkpt>
      <trkpt lat="45.78485" lon="4.81275">
        <ele>169.2</ele>
        <time>2024-09-20T09:31:07Z</time>
      </trkpt>
      <trkpt lat="45.78481" lon="4.81272">
        <ele>169</ele>
        <time>2024-09-20T09:31:08Z</time>
      </trkpt>
      <trkpt lat="45.78477" lon="4.81269">
        <ele>169</ele>
        <time>2024-09-20T09:31:09Z</time>
      </trkpt>
      <trkpt lat="45.78473" lon="4.81266">
        <ele>169</ele>
        <time>2024-09-20T09:31:10Z</time>
      </trkpt>
      <trkpt lat="45.7847" lon="4.81264">
        <ele>169</ele>
        <time>2024-09-20T09:31:11Z</time>
      </trkpt>
      <trkpt lat="45.78466" lon="4.81261">
        <ele>169</ele>
        <time>2024-09-20T09:31:12Z</time>
      </trkpt>
      <trkpt lat="45.78463" lon="4.81257">
        <ele>168.8</ele>
        <time>2024-09-20T09:31:13Z</time>
      </trkpt>
      <trkpt lat="45.78459" lon="4.81255">
        <ele>168.8</ele>
        <time>2024-09-20T09:31:14Z</time>
      </trkpt>
      <trkpt lat="45.78455" lon="4.81252">
        <ele>168.8</ele>
        <time>2024-09-20T09:31:15Z</time>
      </trkpt>
      <trkpt lat="45.78452" lon="4.81249">
        <ele>168.8</ele>
        <time>2024-09-20T09:31:16Z</time>
      </trkpt>
      <trkpt lat="45.78448" lon="4.81246">
        <ele>168.8</ele>
        <time>2024-09-20T09:31:17Z</time>
      </trkpt>
      <trkpt lat="45.78445" lon="4.81243">
        <ele>168.8</ele>
        <time>2024-09-20T09:31:18Z</time>
      </trkpt>
      <trkpt lat="45.78441" lon="4.8124">
        <ele>168.8</ele>
        <time>2024-09-20T09:31:19Z</time>
      </trkpt>
      <trkpt lat="45.78437" lon="4.81237">
        <ele>168.8</ele>
        <time>2024-09-20T09:31:20Z</time>
      </trkpt>
      <trkpt lat="45.78433" lon="4.81234">
        <ele>168.8</ele>
        <time>2024-09-20T09:31:21Z</time>
      </trkpt>
      <trkpt lat="45.78429" lon="4.81231">
        <ele>169</ele>
        <time>2024-09-20T09:31:22Z</time>
      </trkpt>
      <trkpt lat="45.78425" lon="4.81228">
        <ele>169</ele>
        <time>2024-09-20T09:31:23Z</time>
      </trkpt>
      <trkpt lat="45.78421" lon="4.81225">
        <ele>169</ele>
        <time>2024-09-20T09:31:24Z</time>
      </trkpt>
      <trkpt lat="45.78418" lon="4.81222">
        <ele>169</ele>
        <time>2024-09-20T09:31:25Z</time>
      </trkpt>
      <trkpt lat="45.78414" lon="4.81218">
        <ele>169</ele>
        <time>2024-09-20T09:31:26Z</time>
      </trkpt>
      <trkpt lat="45.7841" lon="4.81216">
        <ele>169</ele>
        <time>2024-09-20T09:31:27Z</time>
      </trkpt>
      <trkpt lat="45.78406" lon="4.81213">
        <ele>169</ele>
        <time>2024-09-20T09:31:28Z</time>
      </trkpt>
      <trkpt lat="45.78402" lon="4.8121">
        <ele>169</ele>
        <time>2024-09-20T09:31:29Z</time>
      </trkpt>
      <trkpt lat="45.78399" lon="4.81207">
        <ele>169</ele>
        <time>2024-09-20T09:31:30Z</time>
      </trkpt>
      <trkpt lat="45.78395" lon="4.81203">
        <ele>169.2</ele>
        <time>2024-09-20T09:31:31Z</time>
      </trkpt>
      <trkpt lat="45.78391" lon="4.812">
        <ele>169.2</ele>
        <time>2024-09-20T09:31:32Z</time>
      </trkpt>
      <trkpt lat="45.78387" lon="4.81197">
        <ele>169.2</ele>
        <time>2024-09-20T09:31:33Z</time>
      </trkpt>
      <trkpt lat="45.78383" lon="4.81194">
        <ele>169</ele>
        <time>2024-09-20T09:31:34Z</time>
      </trkpt>
      <trkpt lat="45.78379" lon="4.8119">
        <ele>169</ele>
        <time>2024-09-20T09:31:35Z</time>
      </trkpt>
      <trkpt lat="45.78375" lon="4.81187">
        <ele>169</ele>
        <time>2024-09-20T09:31:36Z</time>
      </trkpt>
      <trkpt lat="45.78372" lon="4.81184">
        <ele>169</ele>
        <time>2024-09-20T09:31:37Z</time>
      </trkpt>
      <trkpt lat="45.78369" lon="4.81181">
        <ele>169</ele>
        <time>2024-09-20T09:31:38Z</time>
      </trkpt>
      <trkpt lat="45.78365" lon="4.81177">
        <ele>169</ele>
        <time>2024-09-20T09:31:39Z</time>
      </trkpt>
      <trkpt lat="45.78362" lon="4.81174">
        <ele>169</ele>
        <time>2024-09-20T09:31:40Z</time>
      </trkpt>
      <trkpt lat="45.78358" lon="4.8117">
        <ele>169</ele>
        <time>2024-09-20T09:31:41Z</time>
      </trkpt>
      <trkpt lat="45.78355" lon="4.81167">
        <ele>169</ele>
        <time>2024-09-20T09:31:42Z</time>
      </trkpt>
      <trkpt lat="45.78351" lon="4.81164">
        <ele>169</ele>
        <time>2024-09-20T09:31:43Z</time>
      </trkpt>
      <trkpt lat="45.78346" lon="4.81162">
        <ele>169</ele>
        <time>2024-09-20T09:31:44Z</time>
      </trkpt>
      <trkpt lat="45.78342" lon="4.81158">
        <ele>169</ele>
        <time>2024-09-20T09:31:45Z</time>
      </trkpt>
      <trkpt lat="45.78339" lon="4.81155">
        <ele>169</ele>
        <time>2024-09-20T09:31:46Z</time>
      </trkpt>
      <trkpt lat="45.78335" lon="4.81151">
        <ele>169</ele>
        <time>2024-09-20T09:31:47Z</time>
      </trkpt>
      <trkpt lat="45.78332" lon="4.81149">
        <ele>169</ele>
        <time>2024-09-20T09:31:48Z</time>
      </trkpt>
      <trkpt lat="45.78328" lon="4.81146">
        <ele>169</ele>
        <time>2024-09-20T09:31:49Z</time>
      </trkpt>
      <trkpt lat="45.78324" lon="4.81143">
        <ele>169.2</ele>
        <time>2024-09-20T09:31:50Z</time>
      </trkpt>
      <trkpt lat="45.78321" lon="4.8114">
        <ele>169.2</ele>
        <time>2024-09-20T09:31:51Z</time>
      </trkpt>
      <trkpt lat="45.78316" lon="4.81137">
        <ele>169.2</ele>
        <time>2024-09-20T09:31:52Z</time>
      </trkpt>
      <trkpt lat="45.78312" lon="4.81134">
        <ele>169.2</ele>
        <time>2024-09-20T09:31:53Z</time>
      </trkpt>
      <trkpt lat="45.78308" lon="4.81131">
        <ele>169.2</ele>
        <time>2024-09-20T09:31:54Z</time>
      </trkpt>
      <trkpt lat="45.78304" lon="4.81128">
        <ele>169.2</ele>
        <time>2024-09-20T09:31:55Z</time>
      </trkpt>
      <trkpt lat="45.783" lon="4.81126">
        <ele>169.2</ele>
        <time>2024-09-20T09:31:56Z</time>
      </trkpt>
      <trkpt lat="45.78296" lon="4.81124">
        <ele>169.6</ele>
        <time>2024-09-20T09:31:57Z</time>
      </trkpt>
      <trkpt lat="45.78292" lon="4.81122">
        <ele>169.4</ele>
        <time>2024-09-20T09:31:58Z</time>
      </trkpt>
      <trkpt lat="45.78289" lon="4.81119">
        <ele>169.4</ele>
        <time>2024-09-20T09:31:59Z</time>
      </trkpt>
      <trkpt lat="45.78285" lon="4.81117">
        <ele>169.4</ele>
        <time>2024-09-20T09:32:00Z</time>
      </trkpt>
      <trkpt lat="45.78282" lon="4.81114">
        <ele>169.4</ele>
        <time>2024-09-20T09:32:01Z</time>
      </trkpt>
      <trkpt lat="45.78278" lon="4.81111">
        <ele>169.4</ele>
        <time>2024-09-20T09:32:02Z</time>
      </trkpt>
      <trkpt lat="45.78275" lon="4.81108">
        <ele>169.6</ele>
        <time>2024-09-20T09:32:03Z</time>
      </trkpt>
      <trkpt lat="45.78271" lon="4.81105">
        <ele>169.6</ele>
        <time>2024-09-20T09:32:04Z</time>
      </trkpt>
      <trkpt lat="45.78268" lon="4.81102">
        <ele>169.6</ele>
        <time>2024-09-20T09:32:05Z</time>
      </trkpt>
      <trkpt lat="45.78266" lon="4.81098">
        <ele>169.6</ele>
        <time>2024-09-20T09:32:06Z</time>
      </trkpt>
      <trkpt lat="45.78264" lon="4.81093">
        <ele>169.4</ele>
        <time>2024-09-20T09:32:07Z</time>
      </trkpt>
      <trkpt lat="45.78262" lon="4.81088">
        <ele>169.4</ele>
        <time>2024-09-20T09:32:08Z</time>
      </trkpt>
      <trkpt lat="45.78258" lon="4.81085">
        <ele>169.4</ele>
        <time>2024-09-20T09:32:09Z</time>
      </trkpt>
      <trkpt lat="45.78255" lon="4.81082">
        <ele>169.4</ele>
        <time>2024-09-20T09:32:10Z</time>
      </trkpt>
      <trkpt lat="45.78251" lon="4.81079">
        <ele>169.4</ele>
        <time>2024-09-20T09:32:11Z</time>
      </trkpt>
      <trkpt lat="45.78247" lon="4.81076">
        <ele>169.2</ele>
        <time>2024-09-20T09:32:12Z</time>
      </trkpt>
      <trkpt lat="45.78243" lon="4.81073">
        <ele>169.2</ele>
        <time>2024-09-20T09:32:13Z</time>
      </trkpt>
      <trkpt lat="45.7824" lon="4.8107">
        <ele>169.2</ele>
        <time>2024-09-20T09:32:14Z</time>
      </trkpt>
      <trkpt lat="45.78236" lon="4.81067">
        <ele>169</ele>
        <time>2024-09-20T09:32:15Z</time>
      </trkpt>
      <trkpt lat="45.78232" lon="4.81064">
        <ele>169.2</ele>
        <time>2024-09-20T09:32:16Z</time>
      </trkpt>
      <trkpt lat="45.78229" lon="4.81061">
        <ele>169.2</ele>
        <time>2024-09-20T09:32:17Z</time>
      </trkpt>
      <trkpt lat="45.78225" lon="4.81058">
        <ele>169.2</ele>
        <time>2024-09-20T09:32:18Z</time>
      </trkpt>
      <trkpt lat="45.78221" lon="4.81055">
        <ele>169.2</ele>
        <time>2024-09-20T09:32:19Z</time>
      </trkpt>
      <trkpt lat="45.78217" lon="4.81052">
        <ele>169</ele>
        <time>2024-09-20T09:32:20Z</time>
      </trkpt>
      <trkpt lat="45.78214" lon="4.81048">
        <ele>169</ele>
        <time>2024-09-20T09:32:21Z</time>
      </trkpt>
      <trkpt lat="45.7821" lon="4.81045">
        <ele>169</ele>
        <time>2024-09-20T09:32:22Z</time>
      </trkpt>
      <trkpt lat="45.78206" lon="4.81043">
        <ele>169</ele>
        <time>2024-09-20T09:32:23Z</time>
      </trkpt>
      <trkpt lat="45.78202" lon="4.8104">
        <ele>169</ele>
        <time>2024-09-20T09:32:24Z</time>
      </trkpt>
      <trkpt lat="45.78198" lon="4.81037">
        <ele>169.2</ele>
        <time>2024-09-20T09:32:25Z</time>
      </trkpt>
      <trkpt lat="45.78194" lon="4.81034">
        <ele>169.2</ele>
        <time>2024-09-20T09:32:26Z</time>
      </trkpt>
      <trkpt lat="45.78191" lon="4.81031">
        <ele>169.2</ele>
        <time>2024-09-20T09:32:27Z</time>
      </trkpt>
      <trkpt lat="45.78187" lon="4.81028">
        <ele>169.4</ele>
        <time>2024-09-20T09:32:28Z</time>
      </trkpt>
      <trkpt lat="45.78183" lon="4.81025">
        <ele>169.4</ele>
        <time>2024-09-20T09:32:29Z</time>
      </trkpt>
      <trkpt lat="45.78179" lon="4.81022">
        <ele>169.4</ele>
        <time>2024-09-20T09:32:30Z</time>
      </trkpt>
      <trkpt lat="45.78175" lon="4.81019">
        <ele>169.4</ele>
        <time>2024-09-20T09:32:31Z</time>
      </trkpt>
      <trkpt lat="45.78171" lon="4.81016">
        <ele>169.4</ele>
        <time>2024-09-20T09:32:32Z</time>
      </trkpt>
      <trkpt lat="45.78168" lon="4.81013">
        <ele>169.4</ele>
        <time>2024-09-20T09:32:33Z</time>
      </trkpt>
      <trkpt lat="45.78164" lon="4.81009">
        <ele>169.4</ele>
        <time>2024-09-20T09:32:34Z</time>
      </trkpt>
      <trkpt lat="45.7816" lon="4.81006">
        <ele>169.8</ele>
        <time>2024-09-20T09:32:35Z</time>
      </trkpt>
      <trkpt lat="45.78156" lon="4.81003">
        <ele>169.8</ele>
        <time>2024-09-20T09:32:36Z</time>
      </trkpt>
      <trkpt lat="45.78152" lon="4.81">
        <ele>169.8</ele>
        <time>2024-09-20T09:32:37Z</time>
      </trkpt>
      <trkpt lat="45.78149" lon="4.80998">
        <ele>169.4</ele>
        <time>2024-09-20T09:32:38Z</time>
      </trkpt>
      <trkpt lat="45.78145" lon="4.80995">
        <ele>169.4</ele>
        <time>2024-09-20T09:32:39Z</time>
      </trkpt>
      <trkpt lat="45.78141" lon="4.80992">
        <ele>169.4</ele>
        <time>2024-09-20T09:32:40Z</time>
      </trkpt>
      <trkpt lat="45.78137" lon="4.80989">
        <ele>169.4</ele>
        <time>2024-09-20T09:32:41Z</time>
      </trkpt>
      <trkpt lat="45.78134" lon="4.80986">
        <ele>169.4</ele>
        <time>2024-09-20T09:32:42Z</time>
      </trkpt>
      <trkpt lat="45.7813" lon="4.80983">
        <ele>169.4</ele>
        <time>2024-09-20T09:32:43Z</time>
      </trkpt>
      <trkpt lat="45.78126" lon="4.8098">
        <ele>169.6</ele>
        <time>2024-09-20T09:32:44Z</time>
      </trkpt>
      <trkpt lat="45.78123" lon="4.80977">
        <ele>169.6</ele>
        <time>2024-09-20T09:32:45Z</time>
      </trkpt>
      <trkpt lat="45.78119" lon="4.80974">
        <ele>169.6</ele>
        <time>2024-09-20T09:32:46Z</time>
      </trkpt>
      <trkpt lat="45.78116" lon="4.80971">
        <ele>169.6</ele>
        <time>2024-09-20T09:32:47Z</time>
      </trkpt>
      <trkpt lat="45.78112" lon="4.80968">
        <ele>169.8</ele>
        <time>2024-09-20T09:32:48Z</time>
      </trkpt>
      <trkpt lat="45.78109" lon="4.80965">
        <ele>169.8</ele>
        <time>2024-09-20T09:32:49Z</time>
      </trkpt>
      <trkpt lat="45.78105" lon="4.80962">
        <ele>169.8</ele>
        <time>2024-09-20T09:32:50Z</time>
      </trkpt>
      <trkpt lat="45.78102" lon="4.80959">
        <ele>170</ele>
        <time>2024-09-20T09:32:51Z</time>
      </trkpt>
      <trkpt lat="45.78098" lon="4.80956">
        <ele>170</ele>
        <time>2024-09-20T09:32:52Z</time>
      </trkpt>
      <trkpt lat="45.78095" lon="4.80953">
        <ele>170</ele>
        <time>2024-09-20T09:32:53Z</time>
      </trkpt>
      <trkpt lat="45.78091" lon="4.8095">
        <ele>170</ele>
        <time>2024-09-20T09:32:54Z</time>
      </trkpt>
      <trkpt lat="45.78088" lon="4.80948">
        <ele>170</ele>
        <time>2024-09-20T09:32:55Z</time>
      </trkpt>
      <trkpt lat="45.78084" lon="4.80945">
        <ele>170.6</ele>
        <time>2024-09-20T09:32:56Z</time>
      </trkpt>
      <trkpt lat="45.78081" lon="4.80942">
        <ele>170.8</ele>
        <time>2024-09-20T09:32:57Z</time>
      </trkpt>
      <trkpt lat="45.78077" lon="4.8094">
        <ele>170.8</ele>
        <time>2024-09-20T09:32:58Z</time>
      </trkpt>
      <trkpt lat="45.78074" lon="4.80938">
        <ele>170.8</ele>
        <time>2024-09-20T09:32:59Z</time>
      </trkpt>
      <trkpt lat="45.78071" lon="4.80935">
        <ele>171.2</ele>
        <time>2024-09-20T09:33:00Z</time>
      </trkpt>
      <trkpt lat="45.78068" lon="4.80933">
        <ele>171.2</ele>
        <time>2024-09-20T09:33:01Z</time>
      </trkpt>
      <trkpt lat="45.78064" lon="4.80931">
        <ele>171.2</ele>
        <time>2024-09-20T09:33:02Z</time>
      </trkpt>
      <trkpt lat="45.78062" lon="4.80929">
        <ele>171.2</ele>
        <time>2024-09-20T09:33:03Z</time>
      </trkpt>
      <trkpt lat="45.78059" lon="4.80927">
        <ele>171.2</ele>
        <time>2024-09-20T09:33:04Z</time>
      </trkpt>
      <trkpt lat="45.78058" lon="4.80926">
        <ele>171.6</ele>
        <time>2024-09-20T09:33:05Z</time>
      </trkpt>
      <trkpt lat="45.78057" lon="4.80926">
        <ele>171.6</ele>
        <time>2024-09-20T09:33:06Z</time>
      </trkpt>
      <trkpt lat="45.78056" lon="4.80926">
        <ele>171.6</ele>
        <time>2024-09-20T09:33:07Z</time>
      </trkpt>
      <trkpt lat="45.78056" lon="4.80926">
        <ele>171.6</ele>
        <time>2024-09-20T09:33:08Z</time>
      </trkpt>
      <trkpt lat="45.78051" lon="4.80923">
        <ele>171.8</ele>
        <time>2024-09-20T09:33:55Z</time>
      </trkpt>
      <trkpt lat="45.7805" lon="4.80922">
        <ele>171.8</ele>
        <time>2024-09-20T09:33:56Z</time>
      </trkpt>
      <trkpt lat="45.78048" lon="4.8092">
        <ele>171.8</ele>
        <time>2024-09-20T09:33:57Z</time>
      </trkpt>
      <trkpt lat="45.78046" lon="4.80919">
        <ele>171.8</ele>
        <time>2024-09-20T09:33:58Z</time>
      </trkpt>
      <trkpt lat="45.78044" lon="4.80918">
        <ele>171.8</ele>
        <time>2024-09-20T09:33:59Z</time>
      </trkpt>
      <trkpt lat="45.78042" lon="4.80916">
        <ele>171.8</ele>
        <time>2024-09-20T09:34:00Z</time>
      </trkpt>
      <trkpt lat="45.78039" lon="4.80913">
        <ele>171.8</ele>
        <time>2024-09-20T09:34:01Z</time>
      </trkpt>
      <trkpt lat="45.78036" lon="4.80911">
        <ele>171.8</ele>
        <time>2024-09-20T09:34:02Z</time>
      </trkpt>
      <trkpt lat="45.78033" lon="4.80908">
        <ele>171.8</ele>
        <time>2024-09-20T09:34:03Z</time>
      </trkpt>
      <trkpt lat="45.7803" lon="4.80905">
        <ele>171.6</ele>
        <time>2024-09-20T09:34:04Z</time>
      </trkpt>
      <trkpt lat="45.78026" lon="4.80903">
        <ele>171.6</ele>
        <time>2024-09-20T09:34:05Z</time>
      </trkpt>
      <trkpt lat="45.78022" lon="4.80901">
        <ele>171.6</ele>
        <time>2024-09-20T09:34:06Z</time>
      </trkpt>
      <trkpt lat="45.78018" lon="4.80899">
        <ele>171.6</ele>
        <time>2024-09-20T09:34:07Z</time>
      </trkpt>
      <trkpt lat="45.78014" lon="4.80897">
        <ele>171.6</ele>
        <time>2024-09-20T09:34:08Z</time>
      </trkpt>
      <trkpt lat="45.7801" lon="4.80894">
        <ele>171.6</ele>
        <time>2024-09-20T09:34:09Z</time>
      </trkpt>
      <trkpt lat="45.78005" lon="4.80891">
        <ele>171.6</ele>
        <time>2024-09-20T09:34:10Z</time>
      </trkpt>
      <trkpt lat="45.78001" lon="4.80889">
        <ele>171.6</ele>
        <time>2024-09-20T09:34:11Z</time>
      </trkpt>
      <trkpt lat="45.77997" lon="4.80886">
        <ele>171.6</ele>
        <time>2024-09-20T09:34:12Z</time>
      </trkpt>
      <trkpt lat="45.77992" lon="4.80884">
        <ele>171.2</ele>
        <time>2024-09-20T09:34:13Z</time>
      </trkpt>
      <trkpt lat="45.77988" lon="4.80882">
        <ele>171.2</ele>
        <time>2024-09-20T09:34:14Z</time>
      </trkpt>
      <trkpt lat="45.77984" lon="4.8088">
        <ele>171.2</ele>
        <time>2024-09-20T09:34:15Z</time>
      </trkpt>
      <trkpt lat="45.7798" lon="4.80879">
        <ele>171.2</ele>
        <time>2024-09-20T09:34:16Z</time>
      </trkpt>
      <trkpt lat="45.77975" lon="4.80876">
        <ele>171</ele>
        <time>2024-09-20T09:34:17Z</time>
      </trkpt>
      <trkpt lat="45.77971" lon="4.80874">
        <ele>170.8</ele>
        <time>2024-09-20T09:34:18Z</time>
      </trkpt>
      <trkpt lat="45.77967" lon="4.80872">
        <ele>170.8</ele>
        <time>2024-09-20T09:34:19Z</time>
      </trkpt>
      <trkpt lat="45.77963" lon="4.80869">
        <ele>170.8</ele>
        <time>2024-09-20T09:34:20Z</time>
      </trkpt>
      <trkpt lat="45.77959" lon="4.80867">
        <ele>170.8</ele>
        <time>2024-09-20T09:34:21Z</time>
      </trkpt>
      <trkpt lat="45.77955" lon="4.80864">
        <ele>170.6</ele>
        <time>2024-09-20T09:34:22Z</time>
      </trkpt>
      <trkpt lat="45.77951" lon="4.80861">
        <ele>170.6</ele>
        <time>2024-09-20T09:34:23Z</time>
      </trkpt>
      <trkpt lat="45.77946" lon="4.80859">
        <ele>170.6</ele>
        <time>2024-09-20T09:34:24Z</time>
      </trkpt>
      <trkpt lat="45.77941" lon="4.80856">
        <ele>170.6</ele>
        <time>2024-09-20T09:34:25Z</time>
      </trkpt>
      <trkpt lat="45.77937" lon="4.80853">
        <ele>170.6</ele>
        <time>2024-09-20T09:34:26Z</time>
      </trkpt>
      <trkpt lat="45.77932" lon="4.80849">
        <ele>170.8</ele>
        <time>2024-09-20T09:34:27Z</time>
      </trkpt>
      <trkpt lat="45.77928" lon="4.80846">
        <ele>170.8</ele>
        <time>2024-09-20T09:34:28Z</time>
      </trkpt>
      <trkpt lat="45.77923" lon="4.80843">
        <ele>170.8</ele>
        <time>2024-09-20T09:34:29Z</time>
      </trkpt>
      <trkpt lat="45.77918" lon="4.80839">
        <ele>170.6</ele>
        <time>2024-09-20T09:34:30Z</time>
      </trkpt>
      <trkpt lat="45.77914" lon="4.80837">
        <ele>170.6</ele>
        <time>2024-09-20T09:34:31Z</time>
      </trkpt>
      <trkpt lat="45.7791" lon="4.80833">
        <ele>170.6</ele>
        <time>2024-09-20T09:34:32Z</time>
      </trkpt>
      <trkpt lat="45.77906" lon="4.80829">
        <ele>170.6</ele>
        <time>2024-09-20T09:34:33Z</time>
      </trkpt>
      <trkpt lat="45.77902" lon="4.80827">
        <ele>170.6</ele>
        <time>2024-09-20T09:34:34Z</time>
      </trkpt>
      <trkpt lat="45.77897" lon="4.80825">
        <ele>170.6</ele>
        <time>2024-09-20T09:34:35Z</time>
      </trkpt>
      <trkpt lat="45.77894" lon="4.80822">
        <ele>170.6</ele>
        <time>2024-09-20T09:34:36Z</time>
      </trkpt>
      <trkpt lat="45.7789" lon="4.80819">
        <ele>170.6</ele>
        <time>2024-09-20T09:34:37Z</time>
      </trkpt>
      <trkpt lat="45.77886" lon="4.80816">
        <ele>170.6</ele>
        <time>2024-09-20T09:34:38Z</time>
      </trkpt>
      <trkpt lat="45.77881" lon="4.80813">
        <ele>170.6</ele>
        <time>2024-09-20T09:34:39Z</time>
      </trkpt>
      <trkpt lat="45.77877" lon="4.8081">
        <ele>170.6</ele>
        <time>2024-09-20T09:34:40Z</time>
      </trkpt>
      <trkpt lat="45.77872" lon="4.80807">
        <ele>170.8</ele>
        <time>2024-09-20T09:34:41Z</time>
      </trkpt>
      <trkpt lat="45.77867" lon="4.80805">
        <ele>170.8</ele>
        <time>2024-09-20T09:34:42Z</time>
      </trkpt>
      <trkpt lat="45.77863" lon="4.80803">
        <ele>170.8</ele>
        <time>2024-09-20T09:34:43Z</time>
      </trkpt>
      <trkpt lat="45.77858" lon="4.80801">
        <ele>170.8</ele>
        <time>2024-09-20T09:34:44Z</time>
      </trkpt>
      <trkpt lat="45.77854" lon="4.808">
        <ele>170.8</ele>
        <time>2024-09-20T09:34:45Z</time>
      </trkpt>
      <trkpt lat="45.77849" lon="4.80799">
        <ele>170.8</ele>
        <time>2024-09-20T09:34:46Z</time>
      </trkpt>
      <trkpt lat="45.77844" lon="4.80798">
        <ele>170.8</ele>
        <time>2024-09-20T09:34:47Z</time>
      </trkpt>
      <trkpt lat="45.77839" lon="4.80796">
        <ele>170.8</ele>
        <time>2024-09-20T09:34:48Z</time>
      </trkpt>
      <trkpt lat="45.77835" lon="4.80794">
        <ele>170.8</ele>
        <time>2024-09-20T09:34:49Z</time>
      </trkpt>
      <trkpt lat="45.77829" lon="4.80793">
        <ele>170.4</ele>
        <time>2024-09-20T09:34:50Z</time>
      </trkpt>
      <trkpt lat="45.77824" lon="4.80791">
        <ele>170.4</ele>
        <time>2024-09-20T09:34:51Z</time>
      </trkpt>
      <trkpt lat="45.77818" lon="4.80791">
        <ele>170.4</ele>
        <time>2024-09-20T09:34:52Z</time>
      </trkpt>
      <trkpt lat="45.77812" lon="4.80791">
        <ele>170.4</ele>
        <time>2024-09-20T09:34:53Z</time>
      </trkpt>
      <trkpt lat="45.77807" lon="4.80789">
        <ele>170.4</ele>
        <time>2024-09-20T09:34:54Z</time>
      </trkpt>
      <trkpt lat="45.77802" lon="4.80787">
        <ele>170.4</ele>
        <time>2024-09-20T09:34:55Z</time>
      </trkpt>
      <trkpt lat="45.77797" lon="4.80786">
        <ele>170.4</ele>
        <time>2024-09-20T09:34:56Z</time>
      </trkpt>
      <trkpt lat="45.77792" lon="4.80785">
        <ele>170.4</ele>
        <time>2024-09-20T09:34:57Z</time>
      </trkpt>
      <trkpt lat="45.77787" lon="4.80784">
        <ele>170.4</ele>
        <time>2024-09-20T09:34:58Z</time>
      </trkpt>
      <trkpt lat="45.77781" lon="4.80783">
        <ele>170.2</ele>
        <time>2024-09-20T09:34:59Z</time>
      </trkpt>
      <trkpt lat="45.77776" lon="4.80782">
        <ele>170.2</ele>
        <time>2024-09-20T09:35:00Z</time>
      </trkpt>
      <trkpt lat="45.77771" lon="4.80782">
        <ele>170.2</ele>
        <time>2024-09-20T09:35:01Z</time>
      </trkpt>
      <trkpt lat="45.77767" lon="4.8078">
        <ele>170.2</ele>
        <time>2024-09-20T09:35:02Z</time>
      </trkpt>
      <trkpt lat="45.77762" lon="4.8078">
        <ele>170.2</ele>
        <time>2024-09-20T09:35:03Z</time>
      </trkpt>
      <trkpt lat="45.77758" lon="4.80778">
        <ele>170.2</ele>
        <time>2024-09-20T09:35:04Z</time>
      </trkpt>
      <trkpt lat="45.77754" lon="4.80777">
        <ele>170.2</ele>
        <time>2024-09-20T09:35:05Z</time>
      </trkpt>
      <trkpt lat="45.77751" lon="4.80776">
        <ele>170.2</ele>
        <time>2024-09-20T09:35:06Z</time>
      </trkpt>
      <trkpt lat="45.77747" lon="4.80775">
        <ele>170</ele>
        <time>2024-09-20T09:35:07Z</time>
      </trkpt>
      <trkpt lat="45.77743" lon="4.80775">
        <ele>170</ele>
        <time>2024-09-20T09:35:08Z</time>
      </trkpt>
      <trkpt lat="45.7774" lon="4.80775">
        <ele>170</ele>
        <time>2024-09-20T09:35:09Z</time>
      </trkpt>
      <trkpt lat="45.77736" lon="4.80776">
        <ele>170</ele>
        <time>2024-09-20T09:35:10Z</time>
      </trkpt>
      <trkpt lat="45.77732" lon="4.80776">
        <ele>170</ele>
        <time>2024-09-20T09:35:11Z</time>
      </trkpt>
      <trkpt lat="45.77729" lon="4.80775">
        <ele>170.2</ele>
        <time>2024-09-20T09:35:12Z</time>
      </trkpt>
      <trkpt lat="45.77725" lon="4.80774">
        <ele>170.2</ele>
        <time>2024-09-20T09:35:13Z</time>
      </trkpt>
      <trkpt lat="45.77721" lon="4.80773">
        <ele>170.2</ele>
        <time>2024-09-20T09:35:14Z</time>
      </trkpt>
      <trkpt lat="45.77717" lon="4.80775">
        <ele>170.2</ele>
        <time>2024-09-20T09:35:15Z</time>
      </trkpt>
      <trkpt lat="45.77712" lon="4.80776">
        <ele>170.2</ele>
        <time>2024-09-20T09:35:16Z</time>
      </trkpt>
      <trkpt lat="45.77707" lon="4.80776">
        <ele>169.6</ele>
        <time>2024-09-20T09:35:17Z</time>
      </trkpt>
      <trkpt lat="45.77703" lon="4.80777">
        <ele>169.6</ele>
        <time>2024-09-20T09:35:18Z</time>
      </trkpt>
      <trkpt lat="45.77699" lon="4.80777">
        <ele>170.2</ele>
        <time>2024-09-20T09:35:19Z</time>
      </trkpt>
      <trkpt lat="45.77695" lon="4.80777">
        <ele>170.2</ele>
        <time>2024-09-20T09:35:20Z</time>
      </trkpt>
      <trkpt lat="45.77691" lon="4.80777">
        <ele>170.4</ele>
        <time>2024-09-20T09:35:21Z</time>
      </trkpt>
      <trkpt lat="45.77687" lon="4.80778">
        <ele>170.4</ele>
        <time>2024-09-20T09:35:22Z</time>
      </trkpt>
      <trkpt lat="45.77683" lon="4.80779">
        <ele>170.4</ele>
        <time>2024-09-20T09:35:23Z</time>
      </trkpt>
      <trkpt lat="45.77679" lon="4.8078">
        <ele>170.4</ele>
        <time>2024-09-20T09:35:24Z</time>
      </trkpt>
      <trkpt lat="45.77675" lon="4.80782">
        <ele>170.4</ele>
        <time>2024-09-20T09:35:25Z</time>
      </trkpt>
      <trkpt lat="45.7767" lon="4.80785">
        <ele>170.4</ele>
        <time>2024-09-20T09:35:26Z</time>
      </trkpt>
      <trkpt lat="45.77665" lon="4.80787">
        <ele>170.4</ele>
        <time>2024-09-20T09:35:27Z</time>
      </trkpt>
      <trkpt lat="45.7766" lon="4.8079">
        <ele>170.4</ele>
        <time>2024-09-20T09:35:28Z</time>
      </trkpt>
      <trkpt lat="45.77656" lon="4.80792">
        <ele>170.2</ele>
        <time>2024-09-20T09:35:29Z</time>
      </trkpt>
      <trkpt lat="45.77652" lon="4.80793">
        <ele>170.2</ele>
        <time>2024-09-20T09:35:30Z</time>
      </trkpt>
      <trkpt lat="45.77648" lon="4.80794">
        <ele>170.2</ele>
        <time>2024-09-20T09:35:31Z</time>
      </trkpt>
      <trkpt lat="45.77643" lon="4.80796">
        <ele>170.2</ele>
        <time>2024-09-20T09:35:32Z</time>
      </trkpt>
      <trkpt lat="45.77639" lon="4.80799">
        <ele>170.2</ele>
        <time>2024-09-20T09:35:33Z</time>
      </trkpt>
      <trkpt lat="45.77634" lon="4.808">
        <ele>170.4</ele>
        <time>2024-09-20T09:35:34Z</time>
      </trkpt>
      <trkpt lat="45.7763" lon="4.80802">
        <ele>170.6</ele>
        <time>2024-09-20T09:35:35Z</time>
      </trkpt>
      <trkpt lat="45.77625" lon="4.80803">
        <ele>170.6</ele>
        <time>2024-09-20T09:35:36Z</time>
      </trkpt>
      <trkpt lat="45.77621" lon="4.80804">
        <ele>170.6</ele>
        <time>2024-09-20T09:35:37Z</time>
      </trkpt>
      <trkpt lat="45.77616" lon="4.80806">
        <ele>170.6</ele>
        <time>2024-09-20T09:35:38Z</time>
      </trkpt>
      <trkpt lat="45.77612" lon="4.80806">
        <ele>170.8</ele>
        <time>2024-09-20T09:35:39Z</time>
      </trkpt>
      <trkpt lat="45.77608" lon="4.80806">
        <ele>170.8</ele>
        <time>2024-09-20T09:35:40Z</time>
      </trkpt>
      <trkpt lat="45.77604" lon="4.80807">
        <ele>170.8</ele>
        <time>2024-09-20T09:35:41Z</time>
      </trkpt>
      <trkpt lat="45.776" lon="4.80809">
        <ele>170.6</ele>
        <time>2024-09-20T09:35:42Z</time>
      </trkpt>
      <trkpt lat="45.77595" lon="4.8081">
        <ele>170.6</ele>
        <time>2024-09-20T09:35:43Z</time>
      </trkpt>
      <trkpt lat="45.77591" lon="4.80812">
        <ele>170.6</ele>
        <time>2024-09-20T09:35:44Z</time>
      </trkpt>
      <trkpt lat="45.77586" lon="4.80814">
        <ele>170.6</ele>
        <time>2024-09-20T09:35:45Z</time>
      </trkpt>
      <trkpt lat="45.77582" lon="4.80816">
        <ele>170.6</ele>
        <time>2024-09-20T09:35:46Z</time>
      </trkpt>
      <trkpt lat="45.77577" lon="4.80819">
        <ele>170.4</ele>
        <time>2024-09-20T09:35:47Z</time>
      </trkpt>
      <trkpt lat="45.77572" lon="4.80821">
        <ele>170.4</ele>
        <time>2024-09-20T09:35:48Z</time>
      </trkpt>
      <trkpt lat="45.77568" lon="4.80823">
        <ele>170.4</ele>
        <time>2024-09-20T09:35:49Z</time>
      </trkpt>
      <trkpt lat="45.77563" lon="4.80825">
        <ele>170.4</ele>
        <time>2024-09-20T09:35:50Z</time>
      </trkpt>
      <trkpt lat="45.77559" lon="4.80827">
        <ele>170.6</ele>
        <time>2024-09-20T09:35:51Z</time>
      </trkpt>
      <trkpt lat="45.77555" lon="4.80829">
        <ele>170.8</ele>
        <time>2024-09-20T09:35:52Z</time>
      </trkpt>
      <trkpt lat="45.77551" lon="4.8083">
        <ele>170.8</ele>
        <time>2024-09-20T09:35:53Z</time>
      </trkpt>
      <trkpt lat="45.77547" lon="4.80832">
        <ele>170.8</ele>
        <time>2024-09-20T09:35:54Z</time>
      </trkpt>
      <trkpt lat="45.77543" lon="4.80833">
        <ele>170.8</ele>
        <time>2024-09-20T09:35:55Z</time>
      </trkpt>
      <trkpt lat="45.77539" lon="4.80835">
        <ele>170.8</ele>
        <time>2024-09-20T09:35:56Z</time>
      </trkpt>
      <trkpt lat="45.77535" lon="4.80836">
        <ele>170.6</ele>
        <time>2024-09-20T09:35:57Z</time>
      </trkpt>
      <trkpt lat="45.77531" lon="4.80838">
        <ele>170.6</ele>
        <time>2024-09-20T09:35:58Z</time>
      </trkpt>
      <trkpt lat="45.77528" lon="4.8084">
        <ele>170.6</ele>
        <time>2024-09-20T09:35:59Z</time>
      </trkpt>
      <trkpt lat="45.77524" lon="4.80841">
        <ele>170.8</ele>
        <time>2024-09-20T09:36:00Z</time>
      </trkpt>
      <trkpt lat="45.7752" lon="4.80843">
        <ele>171</ele>
        <time>2024-09-20T09:36:01Z</time>
      </trkpt>
      <trkpt lat="45.77516" lon="4.80844">
        <ele>171</ele>
        <time>2024-09-20T09:36:02Z</time>
      </trkpt>
      <trkpt lat="45.77513" lon="4.80847">
        <ele>171</ele>
        <time>2024-09-20T09:36:03Z</time>
      </trkpt>
      <trkpt lat="45.7751" lon="4.8085">
        <ele>171.2</ele>
        <time>2024-09-20T09:36:04Z</time>
      </trkpt>
      <trkpt lat="45.77508" lon="4.80853">
        <ele>171.2</ele>
        <time>2024-09-20T09:36:05Z</time>
      </trkpt>
      <trkpt lat="45.77507" lon="4.80855">
        <ele>171.4</ele>
        <time>2024-09-20T09:36:06Z</time>
      </trkpt>
      <trkpt lat="45.77506" lon="4.80856">
        <ele>171.4</ele>
        <time>2024-09-20T09:36:07Z</time>
      </trkpt>
      <trkpt lat="45.77505" lon="4.80856">
        <ele>171.4</ele>
        <time>2024-09-20T09:36:08Z</time>
      </trkpt>
      <trkpt lat="45.77505" lon="4.80856">
        <ele>171.4</ele>
        <time>2024-09-20T09:36:09Z</time>
      </trkpt>
      <trkpt lat="45.77505" lon="4.80856">
        <ele>171.4</ele>
        <time>2024-09-20T09:36:10Z</time>
      </trkpt>
      <trkpt lat="45.775" lon="4.80863">
        <ele>171</ele>
        <time>2024-09-20T09:40:22Z</time>
      </trkpt>
      <trkpt lat="45.77498" lon="4.80863">
        <ele>171</ele>
        <time>2024-09-20T09:40:23Z</time>
      </trkpt>
      <trkpt lat="45.77495" lon="4.80862">
        <ele>171</ele>
        <time>2024-09-20T09:40:24Z</time>
      </trkpt>
      <trkpt lat="45.77493" lon="4.80862">
        <ele>171</ele>
        <time>2024-09-20T09:40:25Z</time>
      </trkpt>
      <trkpt lat="45.7749" lon="4.80862">
        <ele>171</ele>
        <time>2024-09-20T09:40:26Z</time>
      </trkpt>
      <trkpt lat="45.77489" lon="4.80861">
        <ele>171</ele>
        <time>2024-09-20T09:40:27Z</time>
      </trkpt>
      <trkpt lat="45.77488" lon="4.80858">
        <ele>171.2</ele>
        <time>2024-09-20T09:40:28Z</time>
      </trkpt>
      <trkpt lat="45.77488" lon="4.80855">
        <ele>171.2</ele>
        <time>2024-09-20T09:40:29Z</time>
      </trkpt>
      <trkpt lat="45.77489" lon="4.80851">
        <ele>171</ele>
        <time>2024-09-20T09:40:30Z</time>
      </trkpt>
      <trkpt lat="45.77489" lon="4.80848">
        <ele>171</ele>
        <time>2024-09-20T09:40:31Z</time>
      </trkpt>
      <trkpt lat="45.77489" lon="4.80844">
        <ele>171</ele>
        <time>2024-09-20T09:40:32Z</time>
      </trkpt>
      <trkpt lat="45.77488" lon="4.8084">
        <ele>170.8</ele>
        <time>2024-09-20T09:40:33Z</time>
      </trkpt>
      <trkpt lat="45.77488" lon="4.80837">
        <ele>170.4</ele>
        <time>2024-09-20T09:40:34Z</time>
      </trkpt>
      <trkpt lat="45.77486" lon="4.80834">
        <ele>170.4</ele>
        <time>2024-09-20T09:40:35Z</time>
      </trkpt>
      <trkpt lat="45.77484" lon="4.80833">
        <ele>170.4</ele>
        <time>2024-09-20T09:40:36Z</time>
      </trkpt>
      <trkpt lat="45.77482" lon="4.80834">
        <ele>170.6</ele>
        <time>2024-09-20T09:40:37Z</time>
      </trkpt>
      <trkpt lat="45.77479" lon="4.80835">
        <ele>170.4</ele>
        <time>2024-09-20T09:40:38Z</time>
      </trkpt>
      <trkpt lat="45.77476" lon="4.80836">
        <ele>170.4</ele>
        <time>2024-09-20T09:40:39Z</time>
      </trkpt>
      <trkpt lat="45.77473" lon="4.80838">
        <ele>170.4</ele>
        <time>2024-09-20T09:40:40Z</time>
      </trkpt>
      <trkpt lat="45.77469" lon="4.8084">
        <ele>170.4</ele>
        <time>2024-09-20T09:40:41Z</time>
      </trkpt>
      <trkpt lat="45.77466" lon="4.80843">
        <ele>170.4</ele>
        <time>2024-09-20T09:40:42Z</time>
      </trkpt>
      <trkpt lat="45.77463" lon="4.80845">
        <ele>170.2</ele>
        <time>2024-09-20T09:40:43Z</time>
      </trkpt>
      <trkpt lat="45.77459" lon="4.80848">
        <ele>170.2</ele>
        <time>2024-09-20T09:40:44Z</time>
      </trkpt>
      <trkpt lat="45.77455" lon="4.80851">
        <ele>170.2</ele>
        <time>2024-09-20T09:40:45Z</time>
      </trkpt>
      <trkpt lat="45.7745" lon="4.80853">
        <ele>170.2</ele>
        <time>2024-09-20T09:40:46Z</time>
      </trkpt>
      <trkpt lat="45.77446" lon="4.80857">
        <ele>170.4</ele>
        <time>2024-09-20T09:40:47Z</time>
      </trkpt>
      <trkpt lat="45.77441" lon="4.80861">
        <ele>170.4</ele>
        <time>2024-09-20T09:40:48Z</time>
      </trkpt>
      <trkpt lat="45.77437" lon="4.80864">
        <ele>170.4</ele>
        <time>2024-09-20T09:40:49Z</time>
      </trkpt>
      <trkpt lat="45.77433" lon="4.80867">
        <ele>170.4</ele>
        <time>2024-09-20T09:40:50Z</time>
      </trkpt>
      <trkpt lat="45.77429" lon="4.8087">
        <ele>170.2</ele>
        <time>2024-09-20T09:40:51Z</time>
      </trkpt>
      <trkpt lat="45.77425" lon="4.80874">
        <ele>170.2</ele>
        <time>2024-09-20T09:40:52Z</time>
      </trkpt>
      <trkpt lat="45.77421" lon="4.80878">
        <ele>170.2</ele>
        <time>2024-09-20T09:40:53Z</time>
      </trkpt>
      <trkpt lat="45.77417" lon="4.80881">
        <ele>170.2</ele>
        <time>2024-09-20T09:40:54Z</time>
      </trkpt>
      <trkpt lat="45.77413" lon="4.80885">
        <ele>170.2</ele>
        <time>2024-09-20T09:40:55Z</time>
      </trkpt>
      <trkpt lat="45.77411" lon="4.80888">
        <ele>170.2</ele>
        <time>2024-09-20T09:40:56Z</time>
      </trkpt>
      <trkpt lat="45.77408" lon="4.8089">
        <ele>170.2</ele>
        <time>2024-09-20T09:40:57Z</time>
      </trkpt>
      <trkpt lat="45.77406" lon="4.80892">
        <ele>170.2</ele>
        <time>2024-09-20T09:40:58Z</time>
      </trkpt>
      <trkpt lat="45.77404" lon="4.80893">
        <ele>170.2</ele>
        <time>2024-09-20T09:40:59Z</time>
      </trkpt>
      <trkpt lat="45.77403" lon="4.80894">
        <ele>170.2</ele>
        <time>2024-09-20T09:41:00Z</time>
      </trkpt>
      <trkpt lat="45.774" lon="4.80894">
        <ele>170</ele>
        <time>2024-09-20T09:41:01Z</time>
      </trkpt>
      <trkpt lat="45.77399" lon="4.80893">
        <ele>170</ele>
        <time>2024-09-20T09:41:02Z</time>
      </trkpt>
      <trkpt lat="45.77397" lon="4.80892">
        <ele>170</ele>
        <time>2024-09-20T09:41:03Z</time>
      </trkpt>
      <trkpt lat="45.77395" lon="4.8089">
        <ele>170</ele>
        <time>2024-09-20T09:41:04Z</time>
      </trkpt>
      <trkpt lat="45.77393" lon="4.80888">
        <ele>170</ele>
        <time>2024-09-20T09:41:05Z</time>
      </trkpt>
      <trkpt lat="45.77392" lon="4.80886">
        <ele>169.6</ele>
        <time>2024-09-20T09:41:06Z</time>
      </trkpt>
      <trkpt lat="45.7739" lon="4.80884">
        <ele>169.6</ele>
        <time>2024-09-20T09:41:07Z</time>
      </trkpt>
      <trkpt lat="45.77388" lon="4.80882">
        <ele>169.6</ele>
        <time>2024-09-20T09:41:08Z</time>
      </trkpt>
      <trkpt lat="45.77386" lon="4.80881">
        <ele>169.4</ele>
        <time>2024-09-20T09:41:09Z</time>
      </trkpt>
      <trkpt lat="45.77385" lon="4.80879">
        <ele>169.2</ele>
        <time>2024-09-20T09:41:10Z</time>
      </trkpt>
      <trkpt lat="45.77383" lon="4.80877">
        <ele>169.2</ele>
        <time>2024-09-20T09:41:11Z</time>
      </trkpt>
      <trkpt lat="45.7738" lon="4.80875">
        <ele>169.2</ele>
        <time>2024-09-20T09:41:12Z</time>
      </trkpt>
      <trkpt lat="45.77378" lon="4.80874">
        <ele>169.2</ele>
        <time>2024-09-20T09:41:13Z</time>
      </trkpt>
      <trkpt lat="45.77377" lon="4.80873">
        <ele>169.4</ele>
        <time>2024-09-20T09:41:14Z</time>
      </trkpt>
      <trkpt lat="45.77376" lon="4.80871">
        <ele>169.4</ele>
        <time>2024-09-20T09:41:15Z</time>
      </trkpt>
      <trkpt lat="45.77375" lon="4.80869">
        <ele>169.4</ele>
        <time>2024-09-20T09:41:16Z</time>
      </trkpt>
      <trkpt lat="45.77374" lon="4.80866">
        <ele>169.4</ele>
        <time>2024-09-20T09:41:17Z</time>
      </trkpt>
      <trkpt lat="45.77373" lon="4.80863">
        <ele>169.4</ele>
        <time>2024-09-20T09:41:18Z</time>
      </trkpt>
      <trkpt lat="45.77371" lon="4.8086">
        <ele>169.4</ele>
        <time>2024-09-20T09:41:19Z</time>
      </trkpt>
      <trkpt lat="45.77369" lon="4.80857">
        <ele>169.4</ele>
        <time>2024-09-20T09:41:20Z</time>
      </trkpt>
      <trkpt lat="45.77367" lon="4.80853">
        <ele>169.4</ele>
        <time>2024-09-20T09:41:21Z</time>
      </trkpt>
      <trkpt lat="45.77365" lon="4.8085">
        <ele>169.6</ele>
        <time>2024-09-20T09:41:22Z</time>
      </trkpt>
      <trkpt lat="45.77363" lon="4.80845">
        <ele>169.6</ele>
        <time>2024-09-20T09:41:23Z</time>
      </trkpt>
      <trkpt lat="45.7736" lon="4.80841">
        <ele>169.6</ele>
        <time>2024-09-20T09:41:24Z</time>
      </trkpt>
      <trkpt lat="45.77358" lon="4.80837">
        <ele>169.6</ele>
        <time>2024-09-20T09:41:25Z</time>
      </trkpt>
      <trkpt lat="45.77355" lon="4.80832">
        <ele>169.6</ele>
        <time>2024-09-20T09:41:26Z</time>
      </trkpt>
      <trkpt lat="45.77353" lon="4.80828">
        <ele>169.6</ele>
        <time>2024-09-20T09:41:27Z</time>
      </trkpt>
      <trkpt lat="45.7735" lon="4.80825">
        <ele>170</ele>
        <time>2024-09-20T09:41:28Z</time>
      </trkpt>
      <trkpt lat="45.77348" lon="4.80821">
        <ele>170</ele>
        <time>2024-09-20T09:41:29Z</time>
      </trkpt>
      <trkpt lat="45.77346" lon="4.80817">
        <ele>170</ele>
        <time>2024-09-20T09:41:30Z</time>
      </trkpt>
      <trkpt lat="45.77343" lon="4.80813">
        <ele>170.4</ele>
        <time>2024-09-20T09:41:31Z</time>
      </trkpt>
      <trkpt lat="45.77341" lon="4.80809">
        <ele>170.6</ele>
        <time>2024-09-20T09:41:32Z</time>
      </trkpt>
      <trkpt lat="45.77339" lon="4.80806">
        <ele>170.6</ele>
        <time>2024-09-20T09:41:33Z</time>
      </trkpt>
      <trkpt lat="45.77336" lon="4.80802">
        <ele>170.6</ele>
        <time>2024-09-20T09:41:34Z</time>
      </trkpt>
      <trkpt lat="45.77333" lon="4.80798">
        <ele>170.6</ele>
        <time>2024-09-20T09:41:35Z</time>
      </trkpt>
      <trkpt lat="45.77331" lon="4.80795">
        <ele>170.6</ele>
        <time>2024-09-20T09:41:36Z</time>
      </trkpt>
      <trkpt lat="45.77329" lon="4.8079">
        <ele>170.6</ele>
        <time>2024-09-20T09:41:37Z</time>
      </trkpt>
      <trkpt lat="45.77326" lon="4.80785">
        <ele>170.6</ele>
        <time>2024-09-20T09:41:38Z</time>
      </trkpt>
      <trkpt lat="45.77323" lon="4.80781">
        <ele>170.6</ele>
        <time>2024-09-20T09:41:39Z</time>
      </trkpt>
      <trkpt lat="45.77321" lon="4.80777">
        <ele>170.6</ele>
        <time>2024-09-20T09:41:40Z</time>
      </trkpt>
      <trkpt lat="45.77319" lon="4.80775">
        <ele>170.6</ele>
        <time>2024-09-20T09:41:41Z</time>
      </trkpt>
      <trkpt lat="45.77319" lon="4.80772">
        <ele>170.8</ele>
        <time>2024-09-20T09:41:42Z</time>
      </trkpt>
      <trkpt lat="45.77318" lon="4.80771">
        <ele>170.8</ele>
        <time>2024-09-20T09:41:43Z</time>
      </trkpt>
      <trkpt lat="45.77318" lon="4.8077">
        <ele>170.8</ele>
        <time>2024-09-20T09:41:44Z</time>
      </trkpt>
      <trkpt lat="45.77318" lon="4.8077">
        <ele>170.8</ele>
        <time>2024-09-20T09:41:45Z</time>
      </trkpt>
      <trkpt lat="45.77319" lon="4.80772">
        <ele>170.6</ele>
        <time>2024-09-20T09:41:54Z</time>
      </trkpt>
      <trkpt lat="45.7732" lon="4.80774">
        <ele>170.6</ele>
        <time>2024-09-20T09:41:55Z</time>
      </trkpt>
      <trkpt lat="45.77321" lon="4.80777">
        <ele>170.6</ele>
        <time>2024-09-20T09:41:56Z</time>
      </trkpt>
      <trkpt lat="45.77323" lon="4.8078">
        <ele>170.6</ele>
        <time>2024-09-20T09:41:57Z</time>
      </trkpt>
      <trkpt lat="45.77324" lon="4.80782">
        <ele>170.6</ele>
        <time>2024-09-20T09:41:58Z</time>
      </trkpt>
      <trkpt lat="45.77326" lon="4.80785">
        <ele>170.6</ele>
        <time>2024-09-20T09:41:59Z</time>
      </trkpt>
      <trkpt lat="45.77328" lon="4.80788">
        <ele>170.8</ele>
        <time>2024-09-20T09:42:00Z</time>
      </trkpt>
      <trkpt lat="45.7733" lon="4.80791">
        <ele>170.8</ele>
        <time>2024-09-20T09:42:01Z</time>
      </trkpt>
      <trkpt lat="45.77331" lon="4.80794">
        <ele>170.8</ele>
        <time>2024-09-20T09:42:02Z</time>
      </trkpt>
      <trkpt lat="45.77332" lon="4.80797">
        <ele>170.8</ele>
        <time>2024-09-20T09:42:03Z</time>
      </trkpt>
      <trkpt lat="45.77334" lon="4.80799">
        <ele>171.2</ele>
        <time>2024-09-20T09:42:04Z</time>
      </trkpt>
      <trkpt lat="45.77336" lon="4.80801">
        <ele>171.2</ele>
        <time>2024-09-20T09:42:05Z</time>
      </trkpt>
      <trkpt lat="45.77339" lon="4.80803">
        <ele>171.2</ele>
        <time>2024-09-20T09:42:06Z</time>
      </trkpt>
      <trkpt lat="45.77342" lon="4.80807">
        <ele>171.2</ele>
        <time>2024-09-20T09:42:07Z</time>
      </trkpt>
      <trkpt lat="45.77344" lon="4.8081">
        <ele>170.8</ele>
        <time>2024-09-20T09:42:08Z</time>
      </trkpt>
      <trkpt lat="45.77347" lon="4.80815">
        <ele>170.8</ele>
        <time>2024-09-20T09:42:09Z</time>
      </trkpt>
      <trkpt lat="45.7735" lon="4.8082">
        <ele>170.8</ele>
        <time>2024-09-20T09:42:10Z</time>
      </trkpt>
      <trkpt lat="45.77352" lon="4.80826">
        <ele>170.8</ele>
        <time>2024-09-20T09:42:11Z</time>
      </trkpt>
      <trkpt lat="45.77355" lon="4.80831">
        <ele>170.4</ele>
        <time>2024-09-20T09:42:12Z</time>
      </trkpt>
      <trkpt lat="45.77357" lon="4.80837">
        <ele>170.6</ele>
        <time>2024-09-20T09:42:13Z</time>
      </trkpt>
      <trkpt lat="45.7736" lon="4.80843">
        <ele>170.6</ele>
        <time>2024-09-20T09:42:14Z</time>
      </trkpt>
      <trkpt lat="45.77362" lon="4.80849">
        <ele>170.6</ele>
        <time>2024-09-20T09:42:15Z</time>
      </trkpt>
      <trkpt lat="45.77365" lon="4.80854">
        <ele>170.4</ele>
        <time>2024-09-20T09:42:16Z</time>
      </trkpt>
      <trkpt lat="45.77368" lon="4.8086">
        <ele>170.4</ele>
        <time>2024-09-20T09:42:17Z</time>
      </trkpt>
      <trkpt lat="45.7737" lon="4.80866">
        <ele>170</ele>
        <time>2024-09-20T09:42:18Z</time>
      </trkpt>
      <trkpt lat="45.77373" lon="4.80872">
        <ele>170</ele>
        <time>2024-09-20T09:42:19Z</time>
      </trkpt>
      <trkpt lat="45.77375" lon="4.80876">
        <ele>170.2</ele>
        <time>2024-09-20T09:42:20Z</time>
      </trkpt>
      <trkpt lat="45.77376" lon="4.80882">
        <ele>170.2</ele>
        <time>2024-09-20T09:42:21Z</time>
      </trkpt>
      <trkpt lat="45.77375" lon="4.80887">
        <ele>170.2</ele>
        <time>2024-09-20T09:42:22Z</time>
      </trkpt>
      <trkpt lat="45.77373" lon="4.80893">
        <ele>170.2</ele>
        <time>2024-09-20T09:42:23Z</time>
      </trkpt>
      <trkpt lat="45.77371" lon="4.80898">
        <ele>170.2</ele>
        <time>2024-09-20T09:42:24Z</time>
      </trkpt>
      <trkpt lat="45.77368" lon="4.80903">
        <ele>170.2</ele>
        <time>2024-09-20T09:42:25Z</time>
      </trkpt>
      <trkpt lat="45.77366" lon="4.80908">
        <ele>170.2</ele>
        <time>2024-09-20T09:42:26Z</time>
      </trkpt>
      <trkpt lat="45.77364" lon="4.80912">
        <ele>170.6</ele>
        <time>2024-09-20T09:42:27Z</time>
      </trkpt>
      <trkpt lat="45.77362" lon="4.80916">
        <ele>170.6</ele>
        <time>2024-09-20T09:42:28Z</time>
      </trkpt>
      <trkpt lat="45.77361" lon="4.8092">
        <ele>170.6</ele>
        <time>2024-09-20T09:42:29Z</time>
      </trkpt>
      <trkpt lat="45.77359" lon="4.80924">
        <ele>170.8</ele>
        <time>2024-09-20T09:42:30Z</time>
      </trkpt>
      <trkpt lat="45.77358" lon="4.80929">
        <ele>170.8</ele>
        <time>2024-09-20T09:42:31Z</time>
      </trkpt>
      <trkpt lat="45.77355" lon="4.80933">
        <ele>170.8</ele>
        <time>2024-09-20T09:42:32Z</time>
      </trkpt>
      <trkpt lat="45.77353" lon="4.80938">
        <ele>170.8</ele>
        <time>2024-09-20T09:42:33Z</time>
      </trkpt>
      <trkpt lat="45.77351" lon="4.80942">
        <ele>171</ele>
        <time>2024-09-20T09:42:34Z</time>
      </trkpt>
      <trkpt lat="45.77348" lon="4.80946">
        <ele>170.8</ele>
        <time>2024-09-20T09:42:35Z</time>
      </trkpt>
      <trkpt lat="45.77345" lon="4.8095">
        <ele>170.8</ele>
        <time>2024-09-20T09:42:36Z</time>
      </trkpt>
      <trkpt lat="45.77343" lon="4.80954">
        <ele>170.8</ele>
        <time>2024-09-20T09:42:37Z</time>
      </trkpt>
      <trkpt lat="45.77341" lon="4.8096">
        <ele>170.8</ele>
        <time>2024-09-20T09:42:38Z</time>
      </trkpt>
      <trkpt lat="45.77338" lon="4.80964">
        <ele>170.8</ele>
        <time>2024-09-20T09:42:39Z</time>
      </trkpt>
      <trkpt lat="45.77336" lon="4.80969">
        <ele>171</ele>
        <time>2024-09-20T09:42:40Z</time>
      </trkpt>
      <trkpt lat="45.77333" lon="4.80974">
        <ele>171</ele>
        <time>2024-09-20T09:42:41Z</time>
      </trkpt>
      <trkpt lat="45.77331" lon="4.80978">
        <ele>171</ele>
        <time>2024-09-20T09:42:42Z</time>
      </trkpt>
      <trkpt lat="45.77329" lon="4.80983">
        <ele>171.6</ele>
        <time>2024-09-20T09:42:43Z</time>
      </trkpt>
      <trkpt lat="45.77327" lon="4.80988">
        <ele>171.6</ele>
        <time>2024-09-20T09:42:44Z</time>
      </trkpt>
      <trkpt lat="45.77324" lon="4.80992">
        <ele>171.6</ele>
        <time>2024-09-20T09:42:45Z</time>
      </trkpt>
      <trkpt lat="45.77321" lon="4.80996">
        <ele>171.6</ele>
        <time>2024-09-20T09:42:46Z</time>
      </trkpt>
      <trkpt lat="45.77318" lon="4.81">
        <ele>171.6</ele>
        <time>2024-09-20T09:42:47Z</time>
      </trkpt>
      <trkpt lat="45.77315" lon="4.81004">
        <ele>171.6</ele>
        <time>2024-09-20T09:42:48Z</time>
      </trkpt>
      <trkpt lat="45.77312" lon="4.81007">
        <ele>171.8</ele>
        <time>2024-09-20T09:42:49Z</time>
      </trkpt>
      <trkpt lat="45.77308" lon="4.81011">
        <ele>171.8</ele>
        <time>2024-09-20T09:42:50Z</time>
      </trkpt>
      <trkpt lat="45.77305" lon="4.81014">
        <ele>171.8</ele>
        <time>2024-09-20T09:42:51Z</time>
      </trkpt>
      <trkpt lat="45.77301" lon="4.81019">
        <ele>171.8</ele>
        <time>2024-09-20T09:42:52Z</time>
      </trkpt>
      <trkpt lat="45.77298" lon="4.81022">
        <ele>172.4</ele>
        <time>2024-09-20T09:42:53Z</time>
      </trkpt>
      <trkpt lat="45.77294" lon="4.81026">
        <ele>172.4</ele>
        <time>2024-09-20T09:42:54Z</time>
      </trkpt>
      <trkpt lat="45.77291" lon="4.8103">
        <ele>172.4</ele>
        <time>2024-09-20T09:42:55Z</time>
      </trkpt>
      <trkpt lat="45.77287" lon="4.81034">
        <ele>171.8</ele>
        <time>2024-09-20T09:42:56Z</time>
      </trkpt>
      <trkpt lat="45.77283" lon="4.81038">
        <ele>171.8</ele>
        <time>2024-09-20T09:42:57Z</time>
      </trkpt>
      <trkpt lat="45.7728" lon="4.81042">
        <ele>171.8</ele>
        <time>2024-09-20T09:42:58Z</time>
      </trkpt>
      <trkpt lat="45.77276" lon="4.81045">
        <ele>171.8</ele>
        <time>2024-09-20T09:42:59Z</time>
      </trkpt>
      <trkpt lat="45.77272" lon="4.81049">
        <ele>171.8</ele>
        <time>2024-09-20T09:43:00Z</time>
      </trkpt>
      <trkpt lat="45.77268" lon="4.81053">
        <ele>171.8</ele>
        <time>2024-09-20T09:43:01Z</time>
      </trkpt>
      <trkpt lat="45.77264" lon="4.81058">
        <ele>171.8</ele>
        <time>2024-09-20T09:43:02Z</time>
      </trkpt>
      <trkpt lat="45.7726" lon="4.81062">
        <ele>171.8</ele>
        <time>2024-09-20T09:43:03Z</time>
      </trkpt>
      <trkpt lat="45.77256" lon="4.81066">
        <ele>171.8</ele>
        <time>2024-09-20T09:43:04Z</time>
      </trkpt>
      <trkpt lat="45.77252" lon="4.8107">
        <ele>171.6</ele>
        <time>2024-09-20T09:43:05Z</time>
      </trkpt>
      <trkpt lat="45.77249" lon="4.81075">
        <ele>171.6</ele>
        <time>2024-09-20T09:43:06Z</time>
      </trkpt>
      <trkpt lat="45.77245" lon="4.81079">
        <ele>171.6</ele>
        <time>2024-09-20T09:43:07Z</time>
      </trkpt>
      <trkpt lat="45.77241" lon="4.81084">
        <ele>171.6</ele>
        <time>2024-09-20T09:43:08Z</time>
      </trkpt>
      <trkpt lat="45.77237" lon="4.81088">
        <ele>171.6</ele>
        <time>2024-09-20T09:43:09Z</time>
      </trkpt>
      <trkpt lat="45.77233" lon="4.81093">
        <ele>171.6</ele>
        <time>2024-09-20T09:43:10Z</time>
      </trkpt>
      <trkpt lat="45.77229" lon="4.81097">
        <ele>171.6</ele>
        <time>2024-09-20T09:43:11Z</time>
      </trkpt>
      <trkpt lat="45.77225" lon="4.81102">
        <ele>171.4</ele>
        <time>2024-09-20T09:43:12Z</time>
      </trkpt>
      <trkpt lat="45.77221" lon="4.81107">
        <ele>171.4</ele>
        <time>2024-09-20T09:43:13Z</time>
      </trkpt>
      <trkpt lat="45.77217" lon="4.81111">
        <ele>171.4</ele>
        <time>2024-09-20T09:43:14Z</time>
      </trkpt>
      <trkpt lat="45.77213" lon="4.81115">
        <ele>171.4</ele>
        <time>2024-09-20T09:43:15Z</time>
      </trkpt>
      <trkpt lat="45.77209" lon="4.8112">
        <ele>171.2</ele>
        <time>2024-09-20T09:43:16Z</time>
      </trkpt>
      <trkpt lat="45.77206" lon="4.81124">
        <ele>171.2</ele>
        <time>2024-09-20T09:43:17Z</time>
      </trkpt>
      <trkpt lat="45.77202" lon="4.81129">
        <ele>171.2</ele>
        <time>2024-09-20T09:43:18Z</time>
      </trkpt>
      <trkpt lat="45.77197" lon="4.81131">
        <ele>171.2</ele>
        <time>2024-09-20T09:43:19Z</time>
      </trkpt>
      <trkpt lat="45.77193" lon="4.81134">
        <ele>171</ele>
        <time>2024-09-20T09:43:20Z</time>
      </trkpt>
      <trkpt lat="45.77188" lon="4.81136">
        <ele>171</ele>
        <time>2024-09-20T09:43:21Z</time>
      </trkpt>
      <trkpt lat="45.77184" lon="4.81139">
        <ele>171</ele>
        <time>2024-09-20T09:43:22Z</time>
      </trkpt>
      <trkpt lat="45.7718" lon="4.81142">
        <ele>171</ele>
        <time>2024-09-20T09:43:23Z</time>
      </trkpt>
      <trkpt lat="45.77176" lon="4.81144">
        <ele>170.8</ele>
        <time>2024-09-20T09:43:24Z</time>
      </trkpt>
      <trkpt lat="45.77171" lon="4.81147">
        <ele>170.6</ele>
        <time>2024-09-20T09:43:25Z</time>
      </trkpt>
      <trkpt lat="45.77166" lon="4.81151">
        <ele>170.6</ele>
        <time>2024-09-20T09:43:26Z</time>
      </trkpt>
      <trkpt lat="45.77161" lon="4.81155">
        <ele>170.6</ele>
        <time>2024-09-20T09:43:27Z</time>
      </trkpt>
      <trkpt lat="45.77157" lon="4.81158">
        <ele>170.4</ele>
        <time>2024-09-20T09:43:28Z</time>
      </trkpt>
      <trkpt lat="45.77151" lon="4.8116">
        <ele>170.4</ele>
        <time>2024-09-20T09:43:29Z</time>
      </trkpt>
      <trkpt lat="45.77146" lon="4.81163">
        <ele>170.4</ele>
        <time>2024-09-20T09:43:30Z</time>
      </trkpt>
      <trkpt lat="45.77142" lon="4.81165">
        <ele>170.4</ele>
        <time>2024-09-20T09:43:31Z</time>
      </trkpt>
      <trkpt lat="45.77137" lon="4.81167">
        <ele>170.4</ele>
        <time>2024-09-20T09:43:32Z</time>
      </trkpt>
      <trkpt lat="45.77132" lon="4.8117">
        <ele>170.4</ele>
        <time>2024-09-20T09:43:33Z</time>
      </trkpt>
      <trkpt lat="45.77127" lon="4.81172">
        <ele>170.2</ele>
        <time>2024-09-20T09:43:34Z</time>
      </trkpt>
      <trkpt lat="45.77122" lon="4.81175">
        <ele>170.2</ele>
        <time>2024-09-20T09:43:35Z</time>
      </trkpt>
      <trkpt lat="45.77117" lon="4.81177">
        <ele>170.2</ele>
        <time>2024-09-20T09:43:36Z</time>
      </trkpt>
      <trkpt lat="45.77112" lon="4.81179">
        <ele>170.4</ele>
        <time>2024-09-20T09:43:37Z</time>
      </trkpt>
      <trkpt lat="45.77107" lon="4.81181">
        <ele>170.2</ele>
        <time>2024-09-20T09:43:38Z</time>
      </trkpt>
      <trkpt lat="45.77102" lon="4.81183">
        <ele>170.2</ele>
        <time>2024-09-20T09:43:39Z</time>
      </trkpt>
      <trkpt lat="45.77097" lon="4.81186">
        <ele>170.2</ele>
        <time>2024-09-20T09:43:40Z</time>
      </trkpt>
      <trkpt lat="45.77092" lon="4.81189">
        <ele>170.2</ele>
        <time>2024-09-20T09:43:41Z</time>
      </trkpt>
      <trkpt lat="45.77087" lon="4.81192">
        <ele>170.6</ele>
        <time>2024-09-20T09:43:42Z</time>
      </trkpt>
      <trkpt lat="45.77082" lon="4.81196">
        <ele>170.6</ele>
        <time>2024-09-20T09:43:43Z</time>
      </trkpt>
      <trkpt lat="45.77076" lon="4.812">
        <ele>170.6</ele>
        <time>2024-09-20T09:43:44Z</time>
      </trkpt>
      <trkpt lat="45.77071" lon="4.81203">
        <ele>170.6</ele>
        <time>2024-09-20T09:43:45Z</time>
      </trkpt>
      <trkpt lat="45.77067" lon="4.81206">
        <ele>170.6</ele>
        <time>2024-09-20T09:43:46Z</time>
      </trkpt>
      <trkpt lat="45.77062" lon="4.81208">
        <ele>170.6</ele>
        <time>2024-09-20T09:43:47Z</time>
      </trkpt>
      <trkpt lat="45.77057" lon="4.81211">
        <ele>170.6</ele>
        <time>2024-09-20T09:43:48Z</time>
      </trkpt>
      <trkpt lat="45.77053" lon="4.81212">
        <ele>170.6</ele>
        <time>2024-09-20T09:43:49Z</time>
      </trkpt>
      <trkpt lat="45.77048" lon="4.81215">
        <ele>170.6</ele>
        <time>2024-09-20T09:43:50Z</time>
      </trkpt>
      <trkpt lat="45.77043" lon="4.81217">
        <ele>170.6</ele>
        <time>2024-09-20T09:43:51Z</time>
      </trkpt>
      <trkpt lat="45.77039" lon="4.81219">
        <ele>170.6</ele>
        <time>2024-09-20T09:43:52Z</time>
      </trkpt>
      <trkpt lat="45.77035" lon="4.81221">
        <ele>171</ele>
        <time>2024-09-20T09:43:53Z</time>
      </trkpt>
      <trkpt lat="45.77031" lon="4.81223">
        <ele>171</ele>
        <time>2024-09-20T09:43:54Z</time>
      </trkpt>
      <trkpt lat="45.77027" lon="4.81225">
        <ele>171</ele>
        <time>2024-09-20T09:43:55Z</time>
      </trkpt>
      <trkpt lat="45.77024" lon="4.81227">
        <ele>171</ele>
        <time>2024-09-20T09:43:56Z</time>
      </trkpt>
      <trkpt lat="45.7702" lon="4.81229">
        <ele>171</ele>
        <time>2024-09-20T09:43:57Z</time>
      </trkpt>
      <trkpt lat="45.77017" lon="4.8123">
        <ele>171</ele>
        <time>2024-09-20T09:43:58Z</time>
      </trkpt>
      <trkpt lat="45.77014" lon="4.81232">
        <ele>171</ele>
        <time>2024-09-20T09:43:59Z</time>
      </trkpt>
      <trkpt lat="45.77012" lon="4.81233">
        <ele>171</ele>
        <time>2024-09-20T09:44:00Z</time>
      </trkpt>
      <trkpt lat="45.7701" lon="4.81234">
        <ele>171.2</ele>
        <time>2024-09-20T09:44:01Z</time>
      </trkpt>
      <trkpt lat="45.77009" lon="4.81234">
        <ele>171.2</ele>
        <time>2024-09-20T09:44:02Z</time>
      </trkpt>
      <trkpt lat="45.77009" lon="4.81235">
        <ele>171.2</ele>
        <time>2024-09-20T09:44:03Z</time>
      </trkpt>
      <trkpt lat="45.77009" lon="4.81236">
        <ele>171.2</ele>
        <time>2024-09-20T09:44:04Z</time>
      </trkpt>
      <trkpt lat="45.77009" lon="4.81236">
        <ele>171.2</ele>
        <time>2024-09-20T09:44:05Z</time>
      </trkpt>
      <trkpt lat="45.77007" lon="4.8124">
        <ele>171</ele>
        <time>2024-09-20T09:44:39Z</time>
      </trkpt>
      <trkpt lat="45.77004" lon="4.8124">
        <ele>171</ele>
        <time>2024-09-20T09:44:40Z</time>
      </trkpt>
      <trkpt lat="45.77002" lon="4.81242">
        <ele>171</ele>
        <time>2024-09-20T09:44:41Z</time>
      </trkpt>
      <trkpt lat="45.76999" lon="4.81244">
        <ele>171</ele>
        <time>2024-09-20T09:44:42Z</time>
      </trkpt>
      <trkpt lat="45.76997" lon="4.81246">
        <ele>171</ele>
        <time>2024-09-20T09:44:43Z</time>
      </trkpt>
      <trkpt lat="45.76995" lon="4.81249">
        <ele>171</ele>
        <time>2024-09-20T09:44:44Z</time>
      </trkpt>
      <trkpt lat="45.76994" lon="4.81252">
        <ele>171</ele>
        <time>2024-09-20T09:44:45Z</time>
      </trkpt>
      <trkpt lat="45.76993" lon="4.81257">
        <ele>171</ele>
        <time>2024-09-20T09:44:46Z</time>
      </trkpt>
      <trkpt lat="45.76993" lon="4.81261">
        <ele>171.6</ele>
        <time>2024-09-20T09:44:47Z</time>
      </trkpt>
      <trkpt lat="45.76992" lon="4.81264">
        <ele>171.8</ele>
        <time>2024-09-20T09:44:48Z</time>
      </trkpt>
      <trkpt lat="45.76989" lon="4.81268">
        <ele>171.8</ele>
        <time>2024-09-20T09:44:49Z</time>
      </trkpt>
      <trkpt lat="45.76987" lon="4.8127">
        <ele>171.8</ele>
        <time>2024-09-20T09:44:50Z</time>
      </trkpt>
      <trkpt lat="45.76985" lon="4.8127">
        <ele>171.8</ele>
        <time>2024-09-20T09:44:51Z</time>
      </trkpt>
      <trkpt lat="45.76982" lon="4.8127">
        <ele>172</ele>
        <time>2024-09-20T09:44:52Z</time>
      </trkpt>
      <trkpt lat="45.76979" lon="4.8127">
        <ele>172</ele>
        <time>2024-09-20T09:44:53Z</time>
      </trkpt>
      <trkpt lat="45.76976" lon="4.81271">
        <ele>172</ele>
        <time>2024-09-20T09:44:54Z</time>
      </trkpt>
      <trkpt lat="45.76974" lon="4.81272">
        <ele>172</ele>
        <time>2024-09-20T09:44:55Z</time>
      </trkpt>
      <trkpt lat="45.76971" lon="4.81273">
        <ele>172</ele>
        <time>2024-09-20T09:44:56Z</time>
      </trkpt>
      <trkpt lat="45.76968" lon="4.81274">
        <ele>172.2</ele>
        <time>2024-09-20T09:44:57Z</time>
      </trkpt>
      <trkpt lat="45.76965" lon="4.81274">
        <ele>172</ele>
        <time>2024-09-20T09:44:58Z</time>
      </trkpt>
      <trkpt lat="45.76962" lon="4.81273">
        <ele>172</ele>
        <time>2024-09-20T09:44:59Z</time>
      </trkpt>
      <trkpt lat="45.76958" lon="4.81274">
        <ele>172</ele>
        <time>2024-09-20T09:45:00Z</time>
      </trkpt>
      <trkpt lat="45.76955" lon="4.81274">
        <ele>172</ele>
        <time>2024-09-20T09:45:01Z</time>
      </trkpt>
      <trkpt lat="45.76951" lon="4.81274">
        <ele>172.2</ele>
        <time>2024-09-20T09:45:02Z</time>
      </trkpt>
      <trkpt lat="45.76947" lon="4.81275">
        <ele>172.2</ele>
        <time>2024-09-20T09:45:03Z</time>
      </trkpt>
      <trkpt lat="45.76943" lon="4.81275">
        <ele>172.2</ele>
        <time>2024-09-20T09:45:04Z</time>
      </trkpt>
      <trkpt lat="45.76939" lon="4.81276">
        <ele>172.2</ele>
        <time>2024-09-20T09:45:05Z</time>
      </trkpt>
      <trkpt lat="45.76934" lon="4.81276">
        <ele>171.8</ele>
        <time>2024-09-20T09:45:06Z</time>
      </trkpt>
      <trkpt lat="45.76929" lon="4.81277">
        <ele>171.4</ele>
        <time>2024-09-20T09:45:07Z</time>
      </trkpt>
      <trkpt lat="45.76924" lon="4.81277">
        <ele>171.4</ele>
        <time>2024-09-20T09:45:08Z</time>
      </trkpt>
      <trkpt lat="45.76919" lon="4.81278">
        <ele>171.4</ele>
        <time>2024-09-20T09:45:09Z</time>
      </trkpt>
      <trkpt lat="45.76914" lon="4.81279">
        <ele>171</ele>
        <time>2024-09-20T09:45:10Z</time>
      </trkpt>
      <trkpt lat="45.76909" lon="4.81279">
        <ele>170.8</ele>
        <time>2024-09-20T09:45:11Z</time>
      </trkpt>
      <trkpt lat="45.76903" lon="4.81279">
        <ele>170.8</ele>
        <time>2024-09-20T09:45:12Z</time>
      </trkpt>
      <trkpt lat="45.76898" lon="4.81277">
        <ele>170.8</ele>
        <time>2024-09-20T09:45:13Z</time>
      </trkpt>
      <trkpt lat="45.76893" lon="4.81276">
        <ele>170.2</ele>
        <time>2024-09-20T09:45:14Z</time>
      </trkpt>
      <trkpt lat="45.76888" lon="4.81277">
        <ele>170.2</ele>
        <time>2024-09-20T09:45:15Z</time>
      </trkpt>
      <trkpt lat="45.76882" lon="4.81277">
        <ele>170.2</ele>
        <time>2024-09-20T09:45:16Z</time>
      </trkpt>
      <trkpt lat="45.76877" lon="4.81278">
        <ele>170.2</ele>
        <time>2024-09-20T09:45:17Z</time>
      </trkpt>
      <trkpt lat="45.76872" lon="4.81279">
        <ele>170.2</ele>
        <time>2024-09-20T09:45:18Z</time>
      </trkpt>
      <trkpt lat="45.76867" lon="4.8128">
        <ele>170.2</ele>
        <time>2024-09-20T09:45:19Z</time>
      </trkpt>
      <trkpt lat="45.76862" lon="4.81281">
        <ele>170</ele>
        <time>2024-09-20T09:45:20Z</time>
      </trkpt>
      <trkpt lat="45.76857" lon="4.81283">
        <ele>170</ele>
        <time>2024-09-20T09:45:21Z</time>
      </trkpt>
      <trkpt lat="45.76852" lon="4.81285">
        <ele>170</ele>
        <time>2024-09-20T09:45:22Z</time>
      </trkpt>
      <trkpt lat="45.76848" lon="4.81287">
        <ele>170</ele>
        <time>2024-09-20T09:45:23Z</time>
      </trkpt>
      <trkpt lat="45.76843" lon="4.81289">
        <ele>169.8</ele>
        <time>2024-09-20T09:45:24Z</time>
      </trkpt>
      <trkpt lat="45.76838" lon="4.81291">
        <ele>169.8</ele>
        <time>2024-09-20T09:45:25Z</time>
      </trkpt>
      <trkpt lat="45.76834" lon="4.81294">
        <ele>169.8</ele>
        <time>2024-09-20T09:45:26Z</time>
      </trkpt>
      <trkpt lat="45.76829" lon="4.81297">
        <ele>169.8</ele>
        <time>2024-09-20T09:45:27Z</time>
      </trkpt>
      <trkpt lat="45.76825" lon="4.813">
        <ele>169.8</ele>
        <time>2024-09-20T09:45:28Z</time>
      </trkpt>
      <trkpt lat="45.7682" lon="4.81304">
        <ele>169.8</ele>
        <time>2024-09-20T09:45:29Z</time>
      </trkpt>
      <trkpt lat="45.76816" lon="4.81307">
        <ele>169.8</ele>
        <time>2024-09-20T09:45:30Z</time>
      </trkpt>
      <trkpt lat="45.76811" lon="4.81311">
        <ele>169.8</ele>
        <time>2024-09-20T09:45:31Z</time>
      </trkpt>
      <trkpt lat="45.76807" lon="4.81315">
        <ele>170</ele>
        <time>2024-09-20T09:45:32Z</time>
      </trkpt>
      <trkpt lat="45.76803" lon="4.81319">
        <ele>170</ele>
        <time>2024-09-20T09:45:33Z</time>
      </trkpt>
      <trkpt lat="45.76799" lon="4.81324">
        <ele>170</ele>
        <time>2024-09-20T09:45:34Z</time>
      </trkpt>
      <trkpt lat="45.76795" lon="4.81328">
        <ele>170</ele>
        <time>2024-09-20T09:45:35Z</time>
      </trkpt>
      <trkpt lat="45.76791" lon="4.81333">
        <ele>170</ele>
        <time>2024-09-20T09:45:36Z</time>
      </trkpt>
      <trkpt lat="45.76788" lon="4.81337">
        <ele>170.2</ele>
        <time>2024-09-20T09:45:37Z</time>
      </trkpt>
      <trkpt lat="45.76784" lon="4.81342">
        <ele>170.2</ele>
        <time>2024-09-20T09:45:38Z</time>
      </trkpt>
      <trkpt lat="45.76781" lon="4.81347">
        <ele>170.2</ele>
        <time>2024-09-20T09:45:39Z</time>
      </trkpt>
      <trkpt lat="45.76778" lon="4.81352">
        <ele>170.2</ele>
        <time>2024-09-20T09:45:40Z</time>
      </trkpt>
      <trkpt lat="45.76775" lon="4.81357">
        <ele>170.2</ele>
        <time>2024-09-20T09:45:41Z</time>
      </trkpt>
      <trkpt lat="45.76772" lon="4.81361">
        <ele>170.2</ele>
        <time>2024-09-20T09:45:42Z</time>
      </trkpt>
      <trkpt lat="45.76769" lon="4.81367">
        <ele>170.2</ele>
        <time>2024-09-20T09:45:43Z</time>
      </trkpt>
      <trkpt lat="45.76766" lon="4.81372">
        <ele>170.2</ele>
        <time>2024-09-20T09:45:44Z</time>
      </trkpt>
      <trkpt lat="45.76763" lon="4.81378">
        <ele>170.2</ele>
        <time>2024-09-20T09:45:45Z</time>
      </trkpt>
      <trkpt lat="45.76761" lon="4.81383">
        <ele>170.6</ele>
        <time>2024-09-20T09:45:46Z</time>
      </trkpt>
      <trkpt lat="45.76759" lon="4.8139">
        <ele>170.4</ele>
        <time>2024-09-20T09:45:47Z</time>
      </trkpt>
      <trkpt lat="45.76756" lon="4.81396">
        <ele>170.4</ele>
        <time>2024-09-20T09:45:48Z</time>
      </trkpt>
      <trkpt lat="45.76754" lon="4.81402">
        <ele>170.4</ele>
        <time>2024-09-20T09:45:49Z</time>
      </trkpt>
      <trkpt lat="45.76752" lon="4.81408">
        <ele>170.4</ele>
        <time>2024-09-20T09:45:50Z</time>
      </trkpt>
      <trkpt lat="45.7675" lon="4.81414">
        <ele>170.4</ele>
        <time>2024-09-20T09:45:51Z</time>
      </trkpt>
      <trkpt lat="45.76748" lon="4.8142">
        <ele>170.4</ele>
        <time>2024-09-20T09:45:52Z</time>
      </trkpt>
      <trkpt lat="45.76746" lon="4.81427">
        <ele>170.4</ele>
        <time>2024-09-20T09:45:53Z</time>
      </trkpt>
      <trkpt lat="45.76743" lon="4.81433">
        <ele>170.4</ele>
        <time>2024-09-20T09:45:54Z</time>
      </trkpt>
      <trkpt lat="45.76741" lon="4.8144">
        <ele>170.4</ele>
        <time>2024-09-20T09:45:55Z</time>
      </trkpt>
      <trkpt lat="45.76739" lon="4.81446">
        <ele>170.2</ele>
        <time>2024-09-20T09:45:56Z</time>
      </trkpt>
      <trkpt lat="45.76737" lon="4.81452">
        <ele>170.2</ele>
        <time>2024-09-20T09:45:57Z</time>
      </trkpt>
      <trkpt lat="45.76735" lon="4.81458">
        <ele>170.2</ele>
        <time>2024-09-20T09:45:58Z</time>
      </trkpt>
      <trkpt lat="45.76733" lon="4.81464">
        <ele>170.2</ele>
        <time>2024-09-20T09:45:59Z</time>
      </trkpt>
      <trkpt lat="45.76731" lon="4.8147">
        <ele>170.4</ele>
        <time>2024-09-20T09:46:00Z</time>
      </trkpt>
      <trkpt lat="45.76729" lon="4.81477">
        <ele>170.4</ele>
        <time>2024-09-20T09:46:01Z</time>
      </trkpt>
      <trkpt lat="45.76727" lon="4.81483">
        <ele>170.4</ele>
        <time>2024-09-20T09:46:02Z</time>
      </trkpt>
      <trkpt lat="45.76725" lon="4.81489">
        <ele>170.4</ele>
        <time>2024-09-20T09:46:03Z</time>
      </trkpt>
      <trkpt lat="45.76724" lon="4.81495">
        <ele>170.4</ele>
        <time>2024-09-20T09:46:04Z</time>
      </trkpt>
      <trkpt lat="45.76723" lon="4.815">
        <ele>170.6</ele>
        <time>2024-09-20T09:46:05Z</time>
      </trkpt>
      <trkpt lat="45.76721" lon="4.81506">
        <ele>170.6</ele>
        <time>2024-09-20T09:46:06Z</time>
      </trkpt>
      <trkpt lat="45.76719" lon="4.81512">
        <ele>170.6</ele>
        <time>2024-09-20T09:46:07Z</time>
      </trkpt>
      <trkpt lat="45.76717" lon="4.81517">
        <ele>170.6</ele>
        <time>2024-09-20T09:46:08Z</time>
      </trkpt>
      <trkpt lat="45.76715" lon="4.81523">
        <ele>170.6</ele>
        <time>2024-09-20T09:46:09Z</time>
      </trkpt>
      <trkpt lat="45.76713" lon="4.81528">
        <ele>170.8</ele>
        <time>2024-09-20T09:46:10Z</time>
      </trkpt>
      <trkpt lat="45.7671" lon="4.81534">
        <ele>170.8</ele>
        <time>2024-09-20T09:46:11Z</time>
      </trkpt>
      <trkpt lat="45.76707" lon="4.81539">
        <ele>170.8</ele>
        <time>2024-09-20T09:46:12Z</time>
      </trkpt>
      <trkpt lat="45.76705" lon="4.81545">
        <ele>170.8</ele>
        <time>2024-09-20T09:46:13Z</time>
      </trkpt>
      <trkpt lat="45.76703" lon="4.81551">
        <ele>170.8</ele>
        <time>2024-09-20T09:46:14Z</time>
      </trkpt>
      <trkpt lat="45.767" lon="4.81557">
        <ele>170.8</ele>
        <time>2024-09-20T09:46:15Z</time>
      </trkpt>
      <trkpt lat="45.76698" lon="4.81563">
        <ele>170.8</ele>
        <time>2024-09-20T09:46:16Z</time>
      </trkpt>
      <trkpt lat="45.76696" lon="4.81569">
        <ele>170.8</ele>
        <time>2024-09-20T09:46:17Z</time>
      </trkpt>
      <trkpt lat="45.76694" lon="4.81575">
        <ele>171</ele>
        <time>2024-09-20T09:46:18Z</time>
      </trkpt>
      <trkpt lat="45.76692" lon="4.81581">
        <ele>171</ele>
        <time>2024-09-20T09:46:19Z</time>
      </trkpt>
      <trkpt lat="45.7669" lon="4.81587">
        <ele>171</ele>
        <time>2024-09-20T09:46:20Z</time>
      </trkpt>
      <trkpt lat="45.76688" lon="4.81594">
        <ele>171</ele>
        <time>2024-09-20T09:46:21Z</time>
      </trkpt>
      <trkpt lat="45.76686" lon="4.816">
        <ele>171</ele>
        <time>2024-09-20T09:46:22Z</time>
      </trkpt>
      <trkpt lat="45.76684" lon="4.81607">
        <ele>171</ele>
        <time>2024-09-20T09:46:23Z</time>
      </trkpt>
      <trkpt lat="45.76683" lon="4.81614">
        <ele>170.6</ele>
        <time>2024-09-20T09:46:24Z</time>
      </trkpt>
      <trkpt lat="45.76681" lon="4.81621">
        <ele>170.6</ele>
        <time>2024-09-20T09:46:25Z</time>
      </trkpt>
      <trkpt lat="45.7668" lon="4.81628">
        <ele>170.6</ele>
        <time>2024-09-20T09:46:26Z</time>
      </trkpt>
      <trkpt lat="45.76679" lon="4.81634">
        <ele>170.6</ele>
        <time>2024-09-20T09:46:27Z</time>
      </trkpt>
      <trkpt lat="45.76678" lon="4.81641">
        <ele>171</ele>
        <time>2024-09-20T09:46:28Z</time>
      </trkpt>
      <trkpt lat="45.76676" lon="4.81647">
        <ele>171</ele>
        <time>2024-09-20T09:46:29Z</time>
      </trkpt>
      <trkpt lat="45.76675" lon="4.81653">
        <ele>171</ele>
        <time>2024-09-20T09:46:30Z</time>
      </trkpt>
      <trkpt lat="45.76674" lon="4.8166">
        <ele>171</ele>
        <time>2024-09-20T09:46:31Z</time>
      </trkpt>
      <trkpt lat="45.76673" lon="4.81666">
        <ele>171</ele>
        <time>2024-09-20T09:46:32Z</time>
      </trkpt>
      <trkpt lat="45.76672" lon="4.81672">
        <ele>171</ele>
        <time>2024-09-20T09:46:33Z</time>
      </trkpt>
      <trkpt lat="45.7667" lon="4.81678">
        <ele>171</ele>
        <time>2024-09-20T09:46:34Z</time>
      </trkpt>
      <trkpt lat="45.76669" lon="4.81684">
        <ele>171</ele>
        <time>2024-09-20T09:46:35Z</time>
      </trkpt>
      <trkpt lat="45.76667" lon="4.81691">
        <ele>171</ele>
        <time>2024-09-20T09:46:36Z</time>
      </trkpt>
      <trkpt lat="45.76666" lon="4.81697">
        <ele>171</ele>
        <time>2024-09-20T09:46:37Z</time>
      </trkpt>
      <trkpt lat="45.76665" lon="4.81704">
        <ele>171</ele>
        <time>2024-09-20T09:46:38Z</time>
      </trkpt>
      <trkpt lat="45.76664" lon="4.81711">
        <ele>171</ele>
        <time>2024-09-20T09:46:39Z</time>
      </trkpt>
      <trkpt lat="45.76662" lon="4.81717">
        <ele>171</ele>
        <time>2024-09-20T09:46:40Z</time>
      </trkpt>
      <trkpt lat="45.76661" lon="4.81723">
        <ele>171</ele>
        <time>2024-09-20T09:46:41Z</time>
      </trkpt>
      <trkpt lat="45.7666" lon="4.81729">
        <ele>171</ele>
        <time>2024-09-20T09:46:42Z</time>
      </trkpt>
      <trkpt lat="45.76659" lon="4.81735">
        <ele>171</ele>
        <time>2024-09-20T09:46:43Z</time>
      </trkpt>
      <trkpt lat="45.76659" lon="4.81741">
        <ele>171</ele>
        <time>2024-09-20T09:46:44Z</time>
      </trkpt>
      <trkpt lat="45.76658" lon="4.81746">
        <ele>171.4</ele>
        <time>2024-09-20T09:46:45Z</time>
      </trkpt>
      <trkpt lat="45.76656" lon="4.81751">
        <ele>171.4</ele>
        <time>2024-09-20T09:46:46Z</time>
      </trkpt>
      <trkpt lat="45.76656" lon="4.81757">
        <ele>171.6</ele>
        <time>2024-09-20T09:46:47Z</time>
      </trkpt>
      <trkpt lat="45.76655" lon="4.81762">
        <ele>171.6</ele>
        <time>2024-09-20T09:46:48Z</time>
      </trkpt>
      <trkpt lat="45.76654" lon="4.81767">
        <ele>171.4</ele>
        <time>2024-09-20T09:46:49Z</time>
      </trkpt>
      <trkpt lat="45.76654" lon="4.81772">
        <ele>171.6</ele>
        <time>2024-09-20T09:46:50Z</time>
      </trkpt>
      <trkpt lat="45.76654" lon="4.81776">
        <ele>171.6</ele>
        <time>2024-09-20T09:46:51Z</time>
      </trkpt>
      <trkpt lat="45.76654" lon="4.8178">
        <ele>171.6</ele>
        <time>2024-09-20T09:46:52Z</time>
      </trkpt>
      <trkpt lat="45.76654" lon="4.81782">
        <ele>171.6</ele>
        <time>2024-09-20T09:46:53Z</time>
      </trkpt>
      <trkpt lat="45.76655" lon="4.81783">
        <ele>171.6</ele>
        <time>2024-09-20T09:46:54Z</time>
      </trkpt>
      <trkpt lat="45.76656" lon="4.81785">
        <ele>171.4</ele>
        <time>2024-09-20T09:46:55Z</time>
      </trkpt>
      <trkpt lat="45.76657" lon="4.81786">
        <ele>171.4</ele>
        <time>2024-09-20T09:46:56Z</time>
      </trkpt>
      <trkpt lat="45.76658" lon="4.81786">
        <ele>171.4</ele>
        <time>2024-09-20T09:46:57Z</time>
      </trkpt>
      <trkpt lat="45.76658" lon="4.81786">
        <ele>171.4</ele>
        <time>2024-09-20T09:46:58Z</time>
      </trkpt>
      <trkpt lat="45.76656" lon="4.81786">
        <ele>171.2</ele>
        <time>2024-09-20T09:48:40Z</time>
      </trkpt>
      <trkpt lat="45.76654" lon="4.81787">
        <ele>171.2</ele>
        <time>2024-09-20T09:48:41Z</time>
      </trkpt>
      <trkpt lat="45.76653" lon="4.81788">
        <ele>171.4</ele>
        <time>2024-09-20T09:48:42Z</time>
      </trkpt>
      <trkpt lat="45.76652" lon="4.8179">
        <ele>171.4</ele>
        <time>2024-09-20T09:48:43Z</time>
      </trkpt>
      <trkpt lat="45.76652" lon="4.81792">
        <ele>171.4</ele>
        <time>2024-09-20T09:48:44Z</time>
      </trkpt>
      <trkpt lat="45.76652" lon="4.81795">
        <ele>171.4</ele>
        <time>2024-09-20T09:48:45Z</time>
      </trkpt>
      <trkpt lat="45.76652" lon="4.81799">
        <ele>171.4</ele>
        <time>2024-09-20T09:48:46Z</time>
      </trkpt>
      <trkpt lat="45.76651" lon="4.81803">
        <ele>171.4</ele>
        <time>2024-09-20T09:48:47Z</time>
      </trkpt>
      <trkpt lat="45.76651" lon="4.81808">
        <ele>171.4</ele>
        <time>2024-09-20T09:48:48Z</time>
      </trkpt>
      <trkpt lat="45.7665" lon="4.81812">
        <ele>171.4</ele>
        <time>2024-09-20T09:48:49Z</time>
      </trkpt>
      <trkpt lat="45.7665" lon="4.81818">
        <ele>171.6</ele>
        <time>2024-09-20T09:48:50Z</time>
      </trkpt>
      <trkpt lat="45.7665" lon="4.81823">
        <ele>171.8</ele>
        <time>2024-09-20T09:48:51Z</time>
      </trkpt>
      <trkpt lat="45.76649" lon="4.81829">
        <ele>171.8</ele>
        <time>2024-09-20T09:48:52Z</time>
      </trkpt>
      <trkpt lat="45.76649" lon="4.81835">
        <ele>171.8</ele>
        <time>2024-09-20T09:48:53Z</time>
      </trkpt>
      <trkpt lat="45.76648" lon="4.81841">
        <ele>171.8</ele>
        <time>2024-09-20T09:48:54Z</time>
      </trkpt>
      <trkpt lat="45.76648" lon="4.81847">
        <ele>172</ele>
        <time>2024-09-20T09:48:55Z</time>
      </trkpt>
      <trkpt lat="45.76648" lon="4.81853">
        <ele>172</ele>
        <time>2024-09-20T09:48:56Z</time>
      </trkpt>
      <trkpt lat="45.76648" lon="4.81858">
        <ele>172</ele>
        <time>2024-09-20T09:48:57Z</time>
      </trkpt>
      <trkpt lat="45.76648" lon="4.81865">
        <ele>172</ele>
        <time>2024-09-20T09:48:58Z</time>
      </trkpt>
      <trkpt lat="45.76649" lon="4.81871">
        <ele>171.8</ele>
        <time>2024-09-20T09:48:59Z</time>
      </trkpt>
      <trkpt lat="45.76649" lon="4.81877">
        <ele>171.8</ele>
        <time>2024-09-20T09:49:00Z</time>
      </trkpt>
      <trkpt lat="45.76649" lon="4.81883">
        <ele>171.8</ele>
        <time>2024-09-20T09:49:01Z</time>
      </trkpt>
      <trkpt lat="45.7665" lon="4.81888">
        <ele>171.8</ele>
        <time>2024-09-20T09:49:02Z</time>
      </trkpt>
      <trkpt lat="45.7665" lon="4.81895">
        <ele>171.8</ele>
        <time>2024-09-20T09:49:03Z</time>
      </trkpt>
      <trkpt lat="45.76651" lon="4.81901">
        <ele>171.8</ele>
        <time>2024-09-20T09:49:04Z</time>
      </trkpt>
      <trkpt lat="45.76651" lon="4.81906">
        <ele>172</ele>
        <time>2024-09-20T09:49:05Z</time>
      </trkpt>
      <trkpt lat="45.76651" lon="4.81912">
        <ele>172</ele>
        <time>2024-09-20T09:49:06Z</time>
      </trkpt>
      <trkpt lat="45.76652" lon="4.81917">
        <ele>172</ele>
        <time>2024-09-20T09:49:07Z</time>
      </trkpt>
      <trkpt lat="45.76653" lon="4.81923">
        <ele>172.2</ele>
        <time>2024-09-20T09:49:08Z</time>
      </trkpt>
      <trkpt lat="45.76654" lon="4.81929">
        <ele>172.2</ele>
        <time>2024-09-20T09:49:09Z</time>
      </trkpt>
      <trkpt lat="45.76655" lon="4.81936">
        <ele>172.2</ele>
        <time>2024-09-20T09:49:10Z</time>
      </trkpt>
      <trkpt lat="45.76656" lon="4.81942">
        <ele>172.2</ele>
        <time>2024-09-20T09:49:11Z</time>
      </trkpt>
      <trkpt lat="45.76657" lon="4.81949">
        <ele>172.2</ele>
        <time>2024-09-20T09:49:12Z</time>
      </trkpt>
      <trkpt lat="45.76658" lon="4.81956">
        <ele>172.2</ele>
        <time>2024-09-20T09:49:13Z</time>
      </trkpt>
      <trkpt lat="45.76659" lon="4.81963">
        <ele>172.2</ele>
        <time>2024-09-20T09:49:14Z</time>
      </trkpt>
      <trkpt lat="45.76661" lon="4.81969">
        <ele>172.2</ele>
        <time>2024-09-20T09:49:15Z</time>
      </trkpt>
      <trkpt lat="45.76662" lon="4.81976">
        <ele>172.2</ele>
        <time>2024-09-20T09:49:16Z</time>
      </trkpt>
      <trkpt lat="45.76663" lon="4.81983">
        <ele>172.2</ele>
        <time>2024-09-20T09:49:17Z</time>
      </trkpt>
      <trkpt lat="45.76665" lon="4.8199">
        <ele>172.2</ele>
        <time>2024-09-20T09:49:18Z</time>
      </trkpt>
      <trkpt lat="45.76668" lon="4.81996">
        <ele>172.2</ele>
        <time>2024-09-20T09:49:19Z</time>
      </trkpt>
      <trkpt lat="45.7667" lon="4.82002">
        <ele>172.2</ele>
        <time>2024-09-20T09:49:20Z</time>
      </trkpt>
      <trkpt lat="45.76672" lon="4.82009">
        <ele>172.2</ele>
        <time>2024-09-20T09:49:21Z</time>
      </trkpt>
      <trkpt lat="45.76673" lon="4.82016">
        <ele>172.2</ele>
        <time>2024-09-20T09:49:22Z</time>
      </trkpt>
      <trkpt lat="45.76674" lon="4.82024">
        <ele>172.2</ele>
        <time>2024-09-20T09:49:23Z</time>
      </trkpt>
      <trkpt lat="45.76676" lon="4.8203">
        <ele>172.2</ele>
        <time>2024-09-20T09:49:24Z</time>
      </trkpt>
      <trkpt lat="45.76678" lon="4.82037">
        <ele>172.2</ele>
        <time>2024-09-20T09:49:25Z</time>
      </trkpt>
      <trkpt lat="45.7668" lon="4.82044">
        <ele>172.2</ele>
        <time>2024-09-20T09:49:26Z</time>
      </trkpt>
      <trkpt lat="45.76681" lon="4.8205">
        <ele>172.4</ele>
        <time>2024-09-20T09:49:27Z</time>
      </trkpt>
      <trkpt lat="45.76682" lon="4.82056">
        <ele>172.4</ele>
        <time>2024-09-20T09:49:28Z</time>
      </trkpt>
      <trkpt lat="45.76683" lon="4.82063">
        <ele>172.4</ele>
        <time>2024-09-20T09:49:29Z</time>
      </trkpt>
      <trkpt lat="45.76685" lon="4.8207">
        <ele>172.4</ele>
        <time>2024-09-20T09:49:30Z</time>
      </trkpt>
      <trkpt lat="45.76686" lon="4.82077">
        <ele>172.4</ele>
        <time>2024-09-20T09:49:31Z</time>
      </trkpt>
      <trkpt lat="45.76687" lon="4.82084">
        <ele>172.2</ele>
        <time>2024-09-20T09:49:32Z</time>
      </trkpt>
      <trkpt lat="45.76689" lon="4.82091">
        <ele>172.2</ele>
        <time>2024-09-20T09:49:33Z</time>
      </trkpt>
      <trkpt lat="45.76691" lon="4.82097">
        <ele>172.2</ele>
        <time>2024-09-20T09:49:34Z</time>
      </trkpt>
      <trkpt lat="45.76692" lon="4.82103">
        <ele>172.4</ele>
        <time>2024-09-20T09:49:35Z</time>
      </trkpt>
      <trkpt lat="45.76694" lon="4.8211">
        <ele>172.6</ele>
        <time>2024-09-20T09:49:36Z</time>
      </trkpt>
      <trkpt lat="45.76696" lon="4.82117">
        <ele>172.6</ele>
        <time>2024-09-20T09:49:37Z</time>
      </trkpt>
      <trkpt lat="45.76697" lon="4.82123">
        <ele>172.6</ele>
        <time>2024-09-20T09:49:38Z</time>
      </trkpt>
      <trkpt lat="45.76699" lon="4.8213">
        <ele>172.6</ele>
        <time>2024-09-20T09:49:39Z</time>
      </trkpt>
      <trkpt lat="45.76701" lon="4.82136">
        <ele>172.4</ele>
        <time>2024-09-20T09:49:40Z</time>
      </trkpt>
      <trkpt lat="45.76702" lon="4.82143">
        <ele>172.6</ele>
        <time>2024-09-20T09:49:41Z</time>
      </trkpt>
      <trkpt lat="45.76704" lon="4.8215">
        <ele>172.6</ele>
        <time>2024-09-20T09:49:42Z</time>
      </trkpt>
      <trkpt lat="45.76705" lon="4.82157">
        <ele>172.6</ele>
        <time>2024-09-20T09:49:43Z</time>
      </trkpt>
      <trkpt lat="45.76707" lon="4.82164">
        <ele>172.4</ele>
        <time>2024-09-20T09:49:44Z</time>
      </trkpt>
      <trkpt lat="45.76709" lon="4.8217">
        <ele>172.6</ele>
        <time>2024-09-20T09:49:45Z</time>
      </trkpt>
      <trkpt lat="45.7671" lon="4.82176">
        <ele>172.6</ele>
        <time>2024-09-20T09:49:46Z</time>
      </trkpt>
      <trkpt lat="45.76712" lon="4.82183">
        <ele>172.6</ele>
        <time>2024-09-20T09:49:47Z</time>
      </trkpt>
      <trkpt lat="45.76714" lon="4.82189">
        <ele>172.6</ele>
        <time>2024-09-20T09:49:48Z</time>
      </trkpt>
      <trkpt lat="45.76716" lon="4.82196">
        <ele>172.4</ele>
        <time>2024-09-20T09:49:49Z</time>
      </trkpt>
      <trkpt lat="45.76717" lon="4.82203">
        <ele>172.2</ele>
        <time>2024-09-20T09:49:50Z</time>
      </trkpt>
      <trkpt lat="45.76719" lon="4.82209">
        <ele>172.2</ele>
        <time>2024-09-20T09:49:51Z</time>
      </trkpt>
      <trkpt lat="45.76721" lon="4.82215">
        <ele>172.2</ele>
        <time>2024-09-20T09:49:52Z</time>
      </trkpt>
      <trkpt lat="45.76723" lon="4.82221">
        <ele>172.2</ele>
        <time>2024-09-20T09:49:53Z</time>
      </trkpt>
      <trkpt lat="45.76725" lon="4.82228">
        <ele>172.6</ele>
        <time>2024-09-20T09:49:54Z</time>
      </trkpt>
      <trkpt lat="45.76727" lon="4.82234">
        <ele>172.6</ele>
        <time>2024-09-20T09:49:55Z</time>
      </trkpt>
      <trkpt lat="45.76729" lon="4.8224">
        <ele>172.6</ele>
        <time>2024-09-20T09:49:56Z</time>
      </trkpt>
      <trkpt lat="45.76731" lon="4.82247">
        <ele>172.6</ele>
        <time>2024-09-20T09:49:57Z</time>
      </trkpt>
      <trkpt lat="45.76732" lon="4.82254">
        <ele>172.2</ele>
        <time>2024-09-20T09:49:58Z</time>
      </trkpt>
      <trkpt lat="45.76733" lon="4.8226">
        <ele>172.4</ele>
        <time>2024-09-20T09:49:59Z</time>
      </trkpt>
      <trkpt lat="45.76735" lon="4.82267">
        <ele>172.4</ele>
        <time>2024-09-20T09:50:00Z</time>
      </trkpt>
      <trkpt lat="45.76735" lon="4.82274">
        <ele>172.4</ele>
        <time>2024-09-20T09:50:01Z</time>
      </trkpt>
      <trkpt lat="45.76735" lon="4.82281">
        <ele>172.4</ele>
        <time>2024-09-20T09:50:02Z</time>
      </trkpt>
      <trkpt lat="45.76736" lon="4.82287">
        <ele>172.4</ele>
        <time>2024-09-20T09:50:03Z</time>
      </trkpt>
      <trkpt lat="45.76736" lon="4.82294">
        <ele>172.4</ele>
        <time>2024-09-20T09:50:04Z</time>
      </trkpt>
      <trkpt lat="45.76737" lon="4.82301">
        <ele>172.4</ele>
        <time>2024-09-20T09:50:05Z</time>
      </trkpt>
      <trkpt lat="45.76737" lon="4.82308">
        <ele>172.4</ele>
        <time>2024-09-20T09:50:06Z</time>
      </trkpt>
      <trkpt lat="45.76737" lon="4.82315">
        <ele>172</ele>
        <time>2024-09-20T09:50:07Z</time>
      </trkpt>
      <trkpt lat="45.76738" lon="4.82322">
        <ele>172</ele>
        <time>2024-09-20T09:50:08Z</time>
      </trkpt>
      <trkpt lat="45.76739" lon="4.82328">
        <ele>172.4</ele>
        <time>2024-09-20T09:50:09Z</time>
      </trkpt>
      <trkpt lat="45.7674" lon="4.82334">
        <ele>172.4</ele>
        <time>2024-09-20T09:50:10Z</time>
      </trkpt>
      <trkpt lat="45.7674" lon="4.8234">
        <ele>172.4</ele>
        <time>2024-09-20T09:50:11Z</time>
      </trkpt>
      <trkpt lat="45.76741" lon="4.82346">
        <ele>172.4</ele>
        <time>2024-09-20T09:50:12Z</time>
      </trkpt>
      <trkpt lat="45.76741" lon="4.82353">
        <ele>172.2</ele>
        <time>2024-09-20T09:50:13Z</time>
      </trkpt>
      <trkpt lat="45.76742" lon="4.82359">
        <ele>172.2</ele>
        <time>2024-09-20T09:50:14Z</time>
      </trkpt>
      <trkpt lat="45.76742" lon="4.82365">
        <ele>172.2</ele>
        <time>2024-09-20T09:50:15Z</time>
      </trkpt>
      <trkpt lat="45.76742" lon="4.82371">
        <ele>172.2</ele>
        <time>2024-09-20T09:50:16Z</time>
      </trkpt>
      <trkpt lat="45.76742" lon="4.82378">
        <ele>172</ele>
        <time>2024-09-20T09:50:17Z</time>
      </trkpt>
      <trkpt lat="45.76743" lon="4.82384">
        <ele>172</ele>
        <time>2024-09-20T09:50:18Z</time>
      </trkpt>
      <trkpt lat="45.76742" lon="4.8239">
        <ele>172</ele>
        <time>2024-09-20T09:50:19Z</time>
      </trkpt>
      <trkpt lat="45.76742" lon="4.82396">
        <ele>172</ele>
        <time>2024-09-20T09:50:20Z</time>
      </trkpt>
      <trkpt lat="45.76742" lon="4.82402">
        <ele>172.2</ele>
        <time>2024-09-20T09:50:21Z</time>
      </trkpt>
      <trkpt lat="45.76742" lon="4.82409">
        <ele>172.2</ele>
        <time>2024-09-20T09:50:22Z</time>
      </trkpt>
      <trkpt lat="45.76742" lon="4.82415">
        <ele>172.2</ele>
        <time>2024-09-20T09:50:23Z</time>
      </trkpt>
      <trkpt lat="45.76742" lon="4.82422">
        <ele>172.2</ele>
        <time>2024-09-20T09:50:24Z</time>
      </trkpt>
      <trkpt lat="45.76742" lon="4.82429">
        <ele>172.2</ele>
        <time>2024-09-20T09:50:25Z</time>
      </trkpt>
      <trkpt lat="45.76741" lon="4.82436">
        <ele>172.2</ele>
        <time>2024-09-20T09:50:26Z</time>
      </trkpt>
      <trkpt lat="45.76741" lon="4.82442">
        <ele>172.2</ele>
        <time>2024-09-20T09:50:27Z</time>
      </trkpt>
      <trkpt lat="45.76741" lon="4.82449">
        <ele>172.2</ele>
        <time>2024-09-20T09:50:28Z</time>
      </trkpt>
      <trkpt lat="45.76742" lon="4.82455">
        <ele>172.2</ele>
        <time>2024-09-20T09:50:29Z</time>
      </trkpt>
      <trkpt lat="45.76742" lon="4.82462">
        <ele>172.2</ele>
        <time>2024-09-20T09:50:30Z</time>
      </trkpt>
      <trkpt lat="45.76742" lon="4.82469">
        <ele>172</ele>
        <time>2024-09-20T09:50:31Z</time>
      </trkpt>
      <trkpt lat="45.76742" lon="4.82476">
        <ele>172</ele>
        <time>2024-09-20T09:50:32Z</time>
      </trkpt>
      <trkpt lat="45.76742" lon="4.82482">
        <ele>172</ele>
        <time>2024-09-20T09:50:33Z</time>
      </trkpt>
      <trkpt lat="45.76742" lon="4.82488">
        <ele>171.8</ele>
        <time>2024-09-20T09:50:34Z</time>
      </trkpt>
      <trkpt lat="45.76743" lon="4.82494">
        <ele>171.8</ele>
        <time>2024-09-20T09:50:35Z</time>
      </trkpt>
      <trkpt lat="45.76743" lon="4.825">
        <ele>171.8</ele>
        <time>2024-09-20T09:50:36Z</time>
      </trkpt>
      <trkpt lat="45.76743" lon="4.82506">
        <ele>171.8</ele>
        <time>2024-09-20T09:50:37Z</time>
      </trkpt>
      <trkpt lat="45.76743" lon="4.82512">
        <ele>171.8</ele>
        <time>2024-09-20T09:50:38Z</time>
      </trkpt>
      <trkpt lat="45.76744" lon="4.82518">
        <ele>171.8</ele>
        <time>2024-09-20T09:50:39Z</time>
      </trkpt>
      <trkpt lat="45.76744" lon="4.82524">
        <ele>171.8</ele>
        <time>2024-09-20T09:50:40Z</time>
      </trkpt>
      <trkpt lat="45.76744" lon="4.8253">
        <ele>171.8</ele>
        <time>2024-09-20T09:50:41Z</time>
      </trkpt>
      <trkpt lat="45.76745" lon="4.82537">
        <ele>171.8</ele>
        <time>2024-09-20T09:50:42Z</time>
      </trkpt>
      <trkpt lat="45.76745" lon="4.82543">
        <ele>171.8</ele>
        <time>2024-09-20T09:50:43Z</time>
      </trkpt>
      <trkpt lat="45.76745" lon="4.82549">
        <ele>171.6</ele>
        <time>2024-09-20T09:50:44Z</time>
      </trkpt>
      <trkpt lat="45.76746" lon="4.82556">
        <ele>171.6</ele>
        <time>2024-09-20T09:50:45Z</time>
      </trkpt>
      <trkpt lat="45.76746" lon="4.82562">
        <ele>171.6</ele>
        <time>2024-09-20T09:50:46Z</time>
      </trkpt>
      <trkpt lat="45.76746" lon="4.82569">
        <ele>171.6</ele>
        <time>2024-09-20T09:50:47Z</time>
      </trkpt>
      <trkpt lat="45.76747" lon="4.82576">
        <ele>171.4</ele>
        <time>2024-09-20T09:50:48Z</time>
      </trkpt>
      <trkpt lat="45.76747" lon="4.82583">
        <ele>171.4</ele>
        <time>2024-09-20T09:50:49Z</time>
      </trkpt>
      <trkpt lat="45.76747" lon="4.8259">
        <ele>171.4</ele>
        <time>2024-09-20T09:50:50Z</time>
      </trkpt>
      <trkpt lat="45.76747" lon="4.82597">
        <ele>171.4</ele>
        <time>2024-09-20T09:50:51Z</time>
      </trkpt>
      <trkpt lat="45.76748" lon="4.82604">
        <ele>171.4</ele>
        <time>2024-09-20T09:50:52Z</time>
      </trkpt>
      <trkpt lat="45.76748" lon="4.82612">
        <ele>171.4</ele>
        <time>2024-09-20T09:50:53Z</time>
      </trkpt>
      <trkpt lat="45.76748" lon="4.82619">
        <ele>171.4</ele>
        <time>2024-09-20T09:50:54Z</time>
      </trkpt>
      <trkpt lat="45.76748" lon="4.82626">
        <ele>171.4</ele>
        <time>2024-09-20T09:50:55Z</time>
      </trkpt>
      <trkpt lat="45.76748" lon="4.82633">
        <ele>171.4</ele>
        <time>2024-09-20T09:50:56Z</time>
      </trkpt>
      <trkpt lat="45.76747" lon="4.8264">
        <ele>171.2</ele>
        <time>2024-09-20T09:50:57Z</time>
      </trkpt>
      <trkpt lat="45.76746" lon="4.82646">
        <ele>171.2</ele>
        <time>2024-09-20T09:50:58Z</time>
      </trkpt>
      <trkpt lat="45.76745" lon="4.82653">
        <ele>171.2</ele>
        <time>2024-09-20T09:50:59Z</time>
      </trkpt>
      <trkpt lat="45.76743" lon="4.8266">
        <ele>171.2</ele>
        <time>2024-09-20T09:51:00Z</time>
      </trkpt>
      <trkpt lat="45.76742" lon="4.82667">
        <ele>171.2</ele>
        <time>2024-09-20T09:51:01Z</time>
      </trkpt>
      <trkpt lat="45.76741" lon="4.82674">
        <ele>171</ele>
        <time>2024-09-20T09:51:02Z</time>
      </trkpt>
      <trkpt lat="45.7674" lon="4.8268">
        <ele>171</ele>
        <time>2024-09-20T09:51:03Z</time>
      </trkpt>
      <trkpt lat="45.76738" lon="4.82687">
        <ele>171</ele>
        <time>2024-09-20T09:51:04Z</time>
      </trkpt>
      <trkpt lat="45.76736" lon="4.82694">
        <ele>171</ele>
        <time>2024-09-20T09:51:05Z</time>
      </trkpt>
      <trkpt lat="45.76735" lon="4.82701">
        <ele>170.8</ele>
        <time>2024-09-20T09:51:06Z</time>
      </trkpt>
      <trkpt lat="45.76733" lon="4.82707">
        <ele>170.8</ele>
        <time>2024-09-20T09:51:07Z</time>
      </trkpt>
      <trkpt lat="45.76732" lon="4.82713">
        <ele>170.8</ele>
        <time>2024-09-20T09:51:08Z</time>
      </trkpt>
      <trkpt lat="45.7673" lon="4.82719">
        <ele>170.8</ele>
        <time>2024-09-20T09:51:09Z</time>
      </trkpt>
      <trkpt lat="45.76728" lon="4.82725">
        <ele>170.8</ele>
        <time>2024-09-20T09:51:10Z</time>
      </trkpt>
      <trkpt lat="45.76726" lon="4.8273">
        <ele>170.8</ele>
        <time>2024-09-20T09:51:11Z</time>
      </trkpt>
      <trkpt lat="45.76724" lon="4.82735">
        <ele>170.8</ele>
        <time>2024-09-20T09:51:12Z</time>
      </trkpt>
      <trkpt lat="45.76723" lon="4.8274">
        <ele>170.8</ele>
        <time>2024-09-20T09:51:13Z</time>
      </trkpt>
      <trkpt lat="45.76721" lon="4.82745">
        <ele>170.8</ele>
        <time>2024-09-20T09:51:14Z</time>
      </trkpt>
      <trkpt lat="45.76718" lon="4.82747">
        <ele>170.6</ele>
        <time>2024-09-20T09:51:15Z</time>
      </trkpt>
      <trkpt lat="45.76717" lon="4.8275">
        <ele>170.6</ele>
        <time>2024-09-20T09:51:16Z</time>
      </trkpt>
      <trkpt lat="45.76715" lon="4.82752">
        <ele>170.6</ele>
        <time>2024-09-20T09:51:17Z</time>
      </trkpt>
      <trkpt lat="45.76713" lon="4.82754">
        <ele>170.6</ele>
        <time>2024-09-20T09:51:18Z</time>
      </trkpt>
      <trkpt lat="45.76712" lon="4.82757">
        <ele>170.4</ele>
        <time>2024-09-20T09:51:19Z</time>
      </trkpt>
      <trkpt lat="45.76711" lon="4.82759">
        <ele>170.4</ele>
        <time>2024-09-20T09:51:20Z</time>
      </trkpt>
      <trkpt lat="45.7671" lon="4.82761">
        <ele>170.4</ele>
        <time>2024-09-20T09:51:21Z</time>
      </trkpt>
      <trkpt lat="45.76709" lon="4.82763">
        <ele>170.4</ele>
        <time>2024-09-20T09:51:22Z</time>
      </trkpt>
      <trkpt lat="45.76708" lon="4.82765">
        <ele>170.4</ele>
        <time>2024-09-20T09:51:23Z</time>
      </trkpt>
      <trkpt lat="45.76707" lon="4.82767">
        <ele>170.4</ele>
        <time>2024-09-20T09:51:24Z</time>
      </trkpt>
      <trkpt lat="45.76706" lon="4.82769">
        <ele>170.4</ele>
        <time>2024-09-20T09:51:25Z</time>
      </trkpt>
      <trkpt lat="45.76704" lon="4.82771">
        <ele>170.4</ele>
        <time>2024-09-20T09:51:26Z</time>
      </trkpt>
      <trkpt lat="45.76703" lon="4.82773">
        <ele>170.4</ele>
        <time>2024-09-20T09:51:27Z</time>
      </trkpt>
      <trkpt lat="45.76702" lon="4.82775">
        <ele>170.4</ele>
        <time>2024-09-20T09:51:28Z</time>
      </trkpt>
      <trkpt lat="45.76701" lon="4.82777">
        <ele>170.4</ele>
        <time>2024-09-20T09:51:29Z</time>
      </trkpt>
      <trkpt lat="45.767" lon="4.82779">
        <ele>170.4</ele>
        <time>2024-09-20T09:51:30Z</time>
      </trkpt>
      <trkpt lat="45.76698" lon="4.82782">
        <ele>170.4</ele>
        <time>2024-09-20T09:51:31Z</time>
      </trkpt>
      <trkpt lat="45.76696" lon="4.82784">
        <ele>170.4</ele>
        <time>2024-09-20T09:51:32Z</time>
      </trkpt>
      <trkpt lat="45.76694" lon="4.82787">
        <ele>170.4</ele>
        <time>2024-09-20T09:51:33Z</time>
      </trkpt>
      <trkpt lat="45.76692" lon="4.8279">
        <ele>170.4</ele>
        <time>2024-09-20T09:51:34Z</time>
      </trkpt>
      <trkpt lat="45.7669" lon="4.82793">
        <ele>170.4</ele>
        <time>2024-09-20T09:51:35Z</time>
      </trkpt>
      <trkpt lat="45.76688" lon="4.82796">
        <ele>170.4</ele>
        <time>2024-09-20T09:51:36Z</time>
      </trkpt>
      <trkpt lat="45.76686" lon="4.82799">
        <ele>170.4</ele>
        <time>2024-09-20T09:51:37Z</time>
      </trkpt>
      <trkpt lat="45.76683" lon="4.82802">
        <ele>170.4</ele>
        <time>2024-09-20T09:51:38Z</time>
      </trkpt>
      <trkpt lat="45.76682" lon="4.82805">
        <ele>170.4</ele>
        <time>2024-09-20T09:51:39Z</time>
      </trkpt>
      <trkpt lat="45.7668" lon="4.82809">
        <ele>170.4</ele>
        <time>2024-09-20T09:51:40Z</time>
      </trkpt>
      <trkpt lat="45.76679" lon="4.82812">
        <ele>170.4</ele>
        <time>2024-09-20T09:51:41Z</time>
      </trkpt>
      <trkpt lat="45.76676" lon="4.82815">
        <ele>170.6</ele>
        <time>2024-09-20T09:51:42Z</time>
      </trkpt>
      <trkpt lat="45.76674" lon="4.82819">
        <ele>170.6</ele>
        <time>2024-09-20T09:51:43Z</time>
      </trkpt>
      <trkpt lat="45.76672" lon="4.82822">
        <ele>170.6</ele>
        <time>2024-09-20T09:51:44Z</time>
      </trkpt>
      <trkpt lat="45.7667" lon="4.82825">
        <ele>170.6</ele>
        <time>2024-09-20T09:51:45Z</time>
      </trkpt>
      <trkpt lat="45.76668" lon="4.82828">
        <ele>170.6</ele>
        <time>2024-09-20T09:51:46Z</time>
      </trkpt>
      <trkpt lat="45.76665" lon="4.82831">
        <ele>170.8</ele>
        <time>2024-09-20T09:51:47Z</time>
      </trkpt>
      <trkpt lat="45.76662" lon="4.82835">
        <ele>170.8</ele>
        <time>2024-09-20T09:51:48Z</time>
      </trkpt>
      <trkpt lat="45.76659" lon="4.82838">
        <ele>170.8</ele>
        <time>2024-09-20T09:51:49Z</time>
      </trkpt>
      <trkpt lat="45.76656" lon="4.82841">
        <ele>171.4</ele>
        <time>2024-09-20T09:51:50Z</time>
      </trkpt>
      <trkpt lat="45.76653" lon="4.82845">
        <ele>171.6</ele>
        <time>2024-09-20T09:51:51Z</time>
      </trkpt>
      <trkpt lat="45.76651" lon="4.82848">
        <ele>171.6</ele>
        <time>2024-09-20T09:51:52Z</time>
      </trkpt>
      <trkpt lat="45.76649" lon="4.82851">
        <ele>171.6</ele>
        <time>2024-09-20T09:51:53Z</time>
      </trkpt>
      <trkpt lat="45.76647" lon="4.82855">
        <ele>171.8</ele>
        <time>2024-09-20T09:51:54Z</time>
      </trkpt>
      <trkpt lat="45.76645" lon="4.82858">
        <ele>171.8</ele>
        <time>2024-09-20T09:51:55Z</time>
      </trkpt>
      <trkpt lat="45.76642" lon="4.82861">
        <ele>171.8</ele>
        <time>2024-09-20T09:51:56Z</time>
      </trkpt>
      <trkpt lat="45.7664" lon="4.82864">
        <ele>171.8</ele>
        <time>2024-09-20T09:51:57Z</time>
      </trkpt>
      <trkpt lat="45.76638" lon="4.82867">
        <ele>171.8</ele>
        <time>2024-09-20T09:51:58Z</time>
      </trkpt>
      <trkpt lat="45.76637" lon="4.8287">
        <ele>172.2</ele>
        <time>2024-09-20T09:51:59Z</time>
      </trkpt>
      <trkpt lat="45.76636" lon="4.82872">
        <ele>172.2</ele>
        <time>2024-09-20T09:52:00Z</time>
      </trkpt>
      <trkpt lat="45.76636" lon="4.82874">
        <ele>172.2</ele>
        <time>2024-09-20T09:52:01Z</time>
      </trkpt>
      <trkpt lat="45.76636" lon="4.82875">
        <ele>172.2</ele>
        <time>2024-09-20T09:52:02Z</time>
      </trkpt>
      <trkpt lat="45.76635" lon="4.82875">
        <ele>172.2</ele>
        <time>2024-09-20T09:52:03Z</time>
      </trkpt>
      <trkpt lat="45.76635" lon="4.82876">
        <ele>172.2</ele>
        <time>2024-09-20T09:52:04Z</time>
      </trkpt>
      <trkpt lat="45.76635" lon="4.82876">
        <ele>172.2</ele>
        <time>2024-09-20T09:52:05Z</time>
      </trkpt>
      <trkpt lat="45.76631" lon="4.8288">
        <ele>172.6</ele>
        <time>2024-09-20T09:52:16Z</time>
      </trkpt>
      <trkpt lat="45.7663" lon="4.82882">
        <ele>172.4</ele>
        <time>2024-09-20T09:52:17Z</time>
      </trkpt>
      <trkpt lat="45.76629" lon="4.82884">
        <ele>172.4</ele>
        <time>2024-09-20T09:52:18Z</time>
      </trkpt>
      <trkpt lat="45.76628" lon="4.82886">
        <ele>172.4</ele>
        <time>2024-09-20T09:52:19Z</time>
      </trkpt>
      <trkpt lat="45.76628" lon="4.82888">
        <ele>172.4</ele>
        <time>2024-09-20T09:52:20Z</time>
      </trkpt>
      <trkpt lat="45.76628" lon="4.8289">
        <ele>172.6</ele>
        <time>2024-09-20T09:52:21Z</time>
      </trkpt>
      <trkpt lat="45.76628" lon="4.82891">
        <ele>172.6</ele>
        <time>2024-09-20T09:52:22Z</time>
      </trkpt>
      <trkpt lat="45.76628" lon="4.82891">
        <ele>172.8</ele>
        <time>2024-09-20T09:52:23Z</time>
      </trkpt>
      <trkpt lat="45.76628" lon="4.82892">
        <ele>172.8</ele>
        <time>2024-09-20T09:52:24Z</time>
      </trkpt>
      <trkpt lat="45.76628" lon="4.82893">
        <ele>172.8</ele>
        <time>2024-09-20T09:52:25Z</time>
      </trkpt>
      <trkpt lat="45.76629" lon="4.82894">
        <ele>172.8</ele>
        <time>2024-09-20T09:52:26Z</time>
      </trkpt>
      <trkpt lat="45.7663" lon="4.82895">
        <ele>173.2</ele>
        <time>2024-09-20T09:52:27Z</time>
      </trkpt>
      <trkpt lat="45.7663" lon="4.82897">
        <ele>173.2</ele>
        <time>2024-09-20T09:52:28Z</time>
      </trkpt>
      <trkpt lat="45.76631" lon="4.82899">
        <ele>173.2</ele>
        <time>2024-09-20T09:52:29Z</time>
      </trkpt>
      <trkpt lat="45.76631" lon="4.82901">
        <ele>173.2</ele>
        <time>2024-09-20T09:52:30Z</time>
      </trkpt>
      <trkpt lat="45.76632" lon="4.82903">
        <ele>173</ele>
        <time>2024-09-20T09:52:31Z</time>
      </trkpt>
      <trkpt lat="45.76633" lon="4.82905">
        <ele>173</ele>
        <time>2024-09-20T09:52:32Z</time>
      </trkpt>
      <trkpt lat="45.76634" lon="4.82907">
        <ele>173</ele>
        <time>2024-09-20T09:52:33Z</time>
      </trkpt>
      <trkpt lat="45.76634" lon="4.82909">
        <ele>173</ele>
        <time>2024-09-20T09:52:34Z</time>
      </trkpt>
      <trkpt lat="45.76635" lon="4.82911">
        <ele>173</ele>
        <time>2024-09-20T09:52:35Z</time>
      </trkpt>
      <trkpt lat="45.76635" lon="4.82913">
        <ele>173</ele>
        <time>2024-09-20T09:52:36Z</time>
      </trkpt>
      <trkpt lat="45.76636" lon="4.82914">
        <ele>173</ele>
        <time>2024-09-20T09:52:37Z</time>
      </trkpt>
      <trkpt lat="45.76636" lon="4.82916">
        <ele>173</ele>
        <time>2024-09-20T09:52:38Z</time>
      </trkpt>
      <trkpt lat="45.76638" lon="4.82918">
        <ele>173</ele>
        <time>2024-09-20T09:52:39Z</time>
      </trkpt>
      <trkpt lat="45.76639" lon="4.8292">
        <ele>173.2</ele>
        <time>2024-09-20T09:52:40Z</time>
      </trkpt>
      <trkpt lat="45.76641" lon="4.82923">
        <ele>173.2</ele>
        <time>2024-09-20T09:52:41Z</time>
      </trkpt>
      <trkpt lat="45.76642" lon="4.82925">
        <ele>173.2</ele>
        <time>2024-09-20T09:52:42Z</time>
      </trkpt>
      <trkpt lat="45.76643" lon="4.82928">
        <ele>173.6</ele>
        <time>2024-09-20T09:52:43Z</time>
      </trkpt>
      <trkpt lat="45.76644" lon="4.8293">
        <ele>173.2</ele>
        <time>2024-09-20T09:52:44Z</time>
      </trkpt>
      <trkpt lat="45.76646" lon="4.82932">
        <ele>173.2</ele>
        <time>2024-09-20T09:52:45Z</time>
      </trkpt>
      <trkpt lat="45.76647" lon="4.82935">
        <ele>173.2</ele>
        <time>2024-09-20T09:52:46Z</time>
      </trkpt>
      <trkpt lat="45.76648" lon="4.82939">
        <ele>173.2</ele>
        <time>2024-09-20T09:52:47Z</time>
      </trkpt>
      <trkpt lat="45.7665" lon="4.82943">
        <ele>173</ele>
        <time>2024-09-20T09:52:48Z</time>
      </trkpt>
      <trkpt lat="45.76651" lon="4.82948">
        <ele>173</ele>
        <time>2024-09-20T09:52:49Z</time>
      </trkpt>
      <trkpt lat="45.76653" lon="4.82953">
        <ele>173</ele>
        <time>2024-09-20T09:52:50Z</time>
      </trkpt>
      <trkpt lat="45.76654" lon="4.82958">
        <ele>173</ele>
        <time>2024-09-20T09:52:51Z</time>
      </trkpt>
      <trkpt lat="45.76656" lon="4.82963">
        <ele>173</ele>
        <time>2024-09-20T09:52:52Z</time>
      </trkpt>
      <trkpt lat="45.76658" lon="4.82968">
        <ele>173</ele>
        <time>2024-09-20T09:52:53Z</time>
      </trkpt>
      <trkpt lat="45.7666" lon="4.82973">
        <ele>172.6</ele>
        <time>2024-09-20T09:52:54Z</time>
      </trkpt>
      <trkpt lat="45.76661" lon="4.82979">
        <ele>172.6</ele>
        <time>2024-09-20T09:52:55Z</time>
      </trkpt>
      <trkpt lat="45.76663" lon="4.82984">
        <ele>172.6</ele>
        <time>2024-09-20T09:52:56Z</time>
      </trkpt>
      <trkpt lat="45.76665" lon="4.82989">
        <ele>172.6</ele>
        <time>2024-09-20T09:52:57Z</time>
      </trkpt>
      <trkpt lat="45.76666" lon="4.82993">
        <ele>172</ele>
        <time>2024-09-20T09:52:58Z</time>
      </trkpt>
      <trkpt lat="45.76668" lon="4.82997">
        <ele>171.6</ele>
        <time>2024-09-20T09:52:59Z</time>
      </trkpt>
      <trkpt lat="45.76669" lon="4.82999">
        <ele>171.6</ele>
        <time>2024-09-20T09:53:00Z</time>
      </trkpt>
      <trkpt lat="45.76669" lon="4.83">
        <ele>171.6</ele>
        <time>2024-09-20T09:53:01Z</time>
      </trkpt>
      <trkpt lat="45.76669" lon="4.83001">
        <ele>171.4</ele>
        <time>2024-09-20T09:53:02Z</time>
      </trkpt>
      <trkpt lat="45.76669" lon="4.83001">
        <ele>171.4</ele>
        <time>2024-09-20T09:53:03Z</time>
      </trkpt>
      <trkpt lat="45.76669" lon="4.83001">
        <ele>171.4</ele>
        <time>2024-09-20T09:53:04Z</time>
      </trkpt>
      <trkpt lat="45.7667" lon="4.83007">
        <ele>171.4</ele>
        <time>2024-09-20T09:53:17Z</time>
      </trkpt>
      <trkpt lat="45.76669" lon="4.83011">
        <ele>171.4</ele>
        <time>2024-09-20T09:53:18Z</time>
      </trkpt>
      <trkpt lat="45.76667" lon="4.83014">
        <ele>171.4</ele>
        <time>2024-09-20T09:53:19Z</time>
      </trkpt>
      <trkpt lat="45.76666" lon="4.83017">
        <ele>171.2</ele>
        <time>2024-09-20T09:53:20Z</time>
      </trkpt>
      <trkpt lat="45.76664" lon="4.8302">
        <ele>171.2</ele>
        <time>2024-09-20T09:53:21Z</time>
      </trkpt>
      <trkpt lat="45.76664" lon="4.83022">
        <ele>171.2</ele>
        <time>2024-09-20T09:53:22Z</time>
      </trkpt>
      <trkpt lat="45.76663" lon="4.83025">
        <ele>171.2</ele>
        <time>2024-09-20T09:53:23Z</time>
      </trkpt>
      <trkpt lat="45.76664" lon="4.83027">
        <ele>171</ele>
        <time>2024-09-20T09:53:24Z</time>
      </trkpt>
      <trkpt lat="45.76665" lon="4.83031">
        <ele>171</ele>
        <time>2024-09-20T09:53:25Z</time>
      </trkpt>
      <trkpt lat="45.76666" lon="4.83034">
        <ele>170.8</ele>
        <time>2024-09-20T09:53:26Z</time>
      </trkpt>
      <trkpt lat="45.76667" lon="4.83038">
        <ele>170.8</ele>
        <time>2024-09-20T09:53:27Z</time>
      </trkpt>
      <trkpt lat="45.76669" lon="4.83041">
        <ele>170.8</ele>
        <time>2024-09-20T09:53:28Z</time>
      </trkpt>
      <trkpt lat="45.7667" lon="4.83045">
        <ele>171</ele>
        <time>2024-09-20T09:53:29Z</time>
      </trkpt>
      <trkpt lat="45.76671" lon="4.83049">
        <ele>171</ele>
        <time>2024-09-20T09:53:30Z</time>
      </trkpt>
      <trkpt lat="45.76672" lon="4.83053">
        <ele>171</ele>
        <time>2024-09-20T09:53:31Z</time>
      </trkpt>
      <trkpt lat="45.76672" lon="4.83057">
        <ele>171</ele>
        <time>2024-09-20T09:53:32Z</time>
      </trkpt>
      <trkpt lat="45.76673" lon="4.83061">
        <ele>171</ele>
        <time>2024-09-20T09:53:33Z</time>
      </trkpt>
      <trkpt lat="45.76673" lon="4.83065">
        <ele>170.8</ele>
        <time>2024-09-20T09:53:34Z</time>
      </trkpt>
      <trkpt lat="45.76674" lon="4.83069">
        <ele>170.8</ele>
        <time>2024-09-20T09:53:35Z</time>
      </trkpt>
      <trkpt lat="45.76674" lon="4.83074">
        <ele>170.8</ele>
        <time>2024-09-20T09:53:36Z</time>
      </trkpt>
      <trkpt lat="45.76674" lon="4.83079">
        <ele>170.6</ele>
        <time>2024-09-20T09:53:37Z</time>
      </trkpt>
      <trkpt lat="45.76676" lon="4.83084">
        <ele>170.8</ele>
        <time>2024-09-20T09:53:38Z</time>
      </trkpt>
      <trkpt lat="45.76677" lon="4.83088">
        <ele>170.8</ele>
        <time>2024-09-20T09:53:39Z</time>
      </trkpt>
      <trkpt lat="45.76678" lon="4.83092">
        <ele>170.8</ele>
        <time>2024-09-20T09:53:40Z</time>
      </trkpt>
      <trkpt lat="45.76679" lon="4.83097">
        <ele>170.8</ele>
        <time>2024-09-20T09:53:41Z</time>
      </trkpt>
      <trkpt lat="45.76681" lon="4.83101">
        <ele>170.8</ele>
        <time>2024-09-20T09:53:42Z</time>
      </trkpt>
      <trkpt lat="45.76682" lon="4.83106">
        <ele>171</ele>
        <time>2024-09-20T09:53:43Z</time>
      </trkpt>
      <trkpt lat="45.76683" lon="4.8311">
        <ele>171</ele>
        <time>2024-09-20T09:53:44Z</time>
      </trkpt>
      <trkpt lat="45.76684" lon="4.83114">
        <ele>171</ele>
        <time>2024-09-20T09:53:45Z</time>
      </trkpt>
      <trkpt lat="45.76685" lon="4.83118">
        <ele>171</ele>
        <time>2024-09-20T09:53:46Z</time>
      </trkpt>
      <trkpt lat="45.76686" lon="4.83123">
        <ele>171.4</ele>
        <time>2024-09-20T09:53:47Z</time>
      </trkpt>
      <trkpt lat="45.76687" lon="4.83127">
        <ele>171.6</ele>
        <time>2024-09-20T09:53:48Z</time>
      </trkpt>
      <trkpt lat="45.76688" lon="4.83132">
        <ele>171.6</ele>
        <time>2024-09-20T09:53:49Z</time>
      </trkpt>
      <trkpt lat="45.76689" lon="4.83137">
        <ele>171.6</ele>
        <time>2024-09-20T09:53:50Z</time>
      </trkpt>
      <trkpt lat="45.7669" lon="4.83141">
        <ele>171.4</ele>
        <time>2024-09-20T09:53:51Z</time>
      </trkpt>
      <trkpt lat="45.76691" lon="4.83147">
        <ele>171.4</ele>
        <time>2024-09-20T09:53:52Z</time>
      </trkpt>
      <trkpt lat="45.76692" lon="4.83151">
        <ele>171.6</ele>
        <time>2024-09-20T09:53:53Z</time>
      </trkpt>
      <trkpt lat="45.76694" lon="4.83156">
        <ele>171.6</ele>
        <time>2024-09-20T09:53:54Z</time>
      </trkpt>
      <trkpt lat="45.76695" lon="4.8316">
        <ele>171.6</ele>
        <time>2024-09-20T09:53:55Z</time>
      </trkpt>
      <trkpt lat="45.76696" lon="4.83163">
        <ele>171.6</ele>
        <time>2024-09-20T09:53:56Z</time>
      </trkpt>
      <trkpt lat="45.76697" lon="4.83166">
        <ele>171.8</ele>
        <time>2024-09-20T09:53:57Z</time>
      </trkpt>
      <trkpt lat="45.76698" lon="4.8317">
        <ele>171.8</ele>
        <time>2024-09-20T09:53:58Z</time>
      </trkpt>
      <trkpt lat="45.76699" lon="4.83173">
        <ele>171.8</ele>
        <time>2024-09-20T09:53:59Z</time>
      </trkpt>
      <trkpt lat="45.767" lon="4.83177">
        <ele>171.8</ele>
        <time>2024-09-20T09:54:00Z</time>
      </trkpt>
      <trkpt lat="45.767" lon="4.8318">
        <ele>172</ele>
        <time>2024-09-20T09:54:01Z</time>
      </trkpt>
      <trkpt lat="45.76701" lon="4.83184">
        <ele>172</ele>
        <time>2024-09-20T09:54:02Z</time>
      </trkpt>
      <trkpt lat="45.76701" lon="4.83188">
        <ele>172</ele>
        <time>2024-09-20T09:54:03Z</time>
      </trkpt>
      <trkpt lat="45.76702" lon="4.83193">
        <ele>172.2</ele>
        <time>2024-09-20T09:54:04Z</time>
      </trkpt>
      <trkpt lat="45.76702" lon="4.83198">
        <ele>172.4</ele>
        <time>2024-09-20T09:54:05Z</time>
      </trkpt>
      <trkpt lat="45.76703" lon="4.83203">
        <ele>172.4</ele>
        <time>2024-09-20T09:54:06Z</time>
      </trkpt>
      <trkpt lat="45.76703" lon="4.83208">
        <ele>172.4</ele>
        <time>2024-09-20T09:54:07Z</time>
      </trkpt>
      <trkpt lat="45.76704" lon="4.83214">
        <ele>172.4</ele>
        <time>2024-09-20T09:54:08Z</time>
      </trkpt>
      <trkpt lat="45.76705" lon="4.83219">
        <ele>172.6</ele>
        <time>2024-09-20T09:54:09Z</time>
      </trkpt>
      <trkpt lat="45.76705" lon="4.83224">
        <ele>172.6</ele>
        <time>2024-09-20T09:54:10Z</time>
      </trkpt>
      <trkpt lat="45.76706" lon="4.83229">
        <ele>172.6</ele>
        <time>2024-09-20T09:54:11Z</time>
      </trkpt>
      <trkpt lat="45.76706" lon="4.83234">
        <ele>172.6</ele>
        <time>2024-09-20T09:54:12Z</time>
      </trkpt>
      <trkpt lat="45.76707" lon="4.83238">
        <ele>172.8</ele>
        <time>2024-09-20T09:54:13Z</time>
      </trkpt>
      <trkpt lat="45.76708" lon="4.83243">
        <ele>172.8</ele>
        <time>2024-09-20T09:54:14Z</time>
      </trkpt>
      <trkpt lat="45.76708" lon="4.83247">
        <ele>172.8</ele>
        <time>2024-09-20T09:54:15Z</time>
      </trkpt>
      <trkpt lat="45.76709" lon="4.83251">
        <ele>172.8</ele>
        <time>2024-09-20T09:54:16Z</time>
      </trkpt>
      <trkpt lat="45.7671" lon="4.83256">
        <ele>173</ele>
        <time>2024-09-20T09:54:17Z</time>
      </trkpt>
      <trkpt lat="45.7671" lon="4.8326">
        <ele>173</ele>
        <time>2024-09-20T09:54:18Z</time>
      </trkpt>
      <trkpt lat="45.76711" lon="4.83265">
        <ele>173</ele>
        <time>2024-09-20T09:54:19Z</time>
      </trkpt>
      <trkpt lat="45.76712" lon="4.83268">
        <ele>173</ele>
        <time>2024-09-20T09:54:20Z</time>
      </trkpt>
      <trkpt lat="45.76712" lon="4.83272">
        <ele>173</ele>
        <time>2024-09-20T09:54:21Z</time>
      </trkpt>
      <trkpt lat="45.76713" lon="4.83276">
        <ele>173.4</ele>
        <time>2024-09-20T09:54:22Z</time>
      </trkpt>
      <trkpt lat="45.76714" lon="4.83279">
        <ele>173.4</ele>
        <time>2024-09-20T09:54:23Z</time>
      </trkpt>
      <trkpt lat="45.76715" lon="4.83283">
        <ele>173.4</ele>
        <time>2024-09-20T09:54:24Z</time>
      </trkpt>
      <trkpt lat="45.76716" lon="4.83286">
        <ele>173.4</ele>
        <time>2024-09-20T09:54:25Z</time>
      </trkpt>
      <trkpt lat="45.76717" lon="4.8329">
        <ele>173.6</ele>
        <time>2024-09-20T09:54:26Z</time>
      </trkpt>
      <trkpt lat="45.76718" lon="4.83293">
        <ele>173.6</ele>
        <time>2024-09-20T09:54:27Z</time>
      </trkpt>
      <trkpt lat="45.7672" lon="4.83296">
        <ele>173.8</ele>
        <time>2024-09-20T09:54:28Z</time>
      </trkpt>
      <trkpt lat="45.7672" lon="4.833">
        <ele>173.8</ele>
        <time>2024-09-20T09:54:29Z</time>
      </trkpt>
      <trkpt lat="45.76721" lon="4.83303">
        <ele>173.8</ele>
        <time>2024-09-20T09:54:30Z</time>
      </trkpt>
      <trkpt lat="45.76722" lon="4.83306">
        <ele>173.4</ele>
        <time>2024-09-20T09:54:31Z</time>
      </trkpt>
      <trkpt lat="45.76722" lon="4.83309">
        <ele>173.4</ele>
        <time>2024-09-20T09:54:32Z</time>
      </trkpt>
      <trkpt lat="45.76722" lon="4.83312">
        <ele>173.4</ele>
        <time>2024-09-20T09:54:33Z</time>
      </trkpt>
      <trkpt lat="45.76722" lon="4.83315">
        <ele>173.4</ele>
        <time>2024-09-20T09:54:34Z</time>
      </trkpt>
      <trkpt lat="45.76723" lon="4.83318">
        <ele>173.4</ele>
        <time>2024-09-20T09:54:35Z</time>
      </trkpt>
      <trkpt lat="45.76723" lon="4.83322">
        <ele>173.4</ele>
        <time>2024-09-20T09:54:36Z</time>
      </trkpt>
      <trkpt lat="45.76723" lon="4.83326">
        <ele>173.2</ele>
        <time>2024-09-20T09:54:37Z</time>
      </trkpt>
      <trkpt lat="45.76724" lon="4.83329">
        <ele>173.2</ele>
        <time>2024-09-20T09:54:38Z</time>
      </trkpt>
      <trkpt lat="45.76725" lon="4.83333">
        <ele>173.2</ele>
        <time>2024-09-20T09:54:39Z</time>
      </trkpt>
      <trkpt lat="45.76725" lon="4.83337">
        <ele>173.2</ele>
        <time>2024-09-20T09:54:40Z</time>
      </trkpt>
      <trkpt lat="45.76726" lon="4.8334">
        <ele>173.2</ele>
        <time>2024-09-20T09:54:41Z</time>
      </trkpt>
      <trkpt lat="45.76726" lon="4.83344">
        <ele>173.2</ele>
        <time>2024-09-20T09:54:42Z</time>
      </trkpt>
      <trkpt lat="45.76727" lon="4.83348">
        <ele>173.2</ele>
        <time>2024-09-20T09:54:43Z</time>
      </trkpt>
      <trkpt lat="45.76727" lon="4.83352">
        <ele>173.2</ele>
        <time>2024-09-20T09:54:44Z</time>
      </trkpt>
      <trkpt lat="45.76728" lon="4.83356">
        <ele>173</ele>
        <time>2024-09-20T09:54:45Z</time>
      </trkpt>
      <trkpt lat="45.76728" lon="4.83359">
        <ele>173</ele>
        <time>2024-09-20T09:54:46Z</time>
      </trkpt>
      <trkpt lat="45.76728" lon="4.83363">
        <ele>173</ele>
        <time>2024-09-20T09:54:47Z</time>
      </trkpt>
      <trkpt lat="45.76729" lon="4.83367">
        <ele>173</ele>
        <time>2024-09-20T09:54:48Z</time>
      </trkpt>
      <trkpt lat="45.76729" lon="4.83371">
        <ele>173</ele>
        <time>2024-09-20T09:54:49Z</time>
      </trkpt>
      <trkpt lat="45.7673" lon="4.83375">
        <ele>172.6</ele>
        <time>2024-09-20T09:54:50Z</time>
      </trkpt>
      <trkpt lat="45.7673" lon="4.83378">
        <ele>172.6</ele>
        <time>2024-09-20T09:54:51Z</time>
      </trkpt>
      <trkpt lat="45.76731" lon="4.83382">
        <ele>172.6</ele>
        <time>2024-09-20T09:54:52Z</time>
      </trkpt>
      <trkpt lat="45.76732" lon="4.83386">
        <ele>172.6</ele>
        <time>2024-09-20T09:54:53Z</time>
      </trkpt>
      <trkpt lat="45.76732" lon="4.83391">
        <ele>172.6</ele>
        <time>2024-09-20T09:54:54Z</time>
      </trkpt>
      <trkpt lat="45.76732" lon="4.83395">
        <ele>172.6</ele>
        <time>2024-09-20T09:54:55Z</time>
      </trkpt>
      <trkpt lat="45.76733" lon="4.83399">
        <ele>172.6</ele>
        <time>2024-09-20T09:54:56Z</time>
      </trkpt>
      <trkpt lat="45.76733" lon="4.83403">
        <ele>172.6</ele>
        <time>2024-09-20T09:54:57Z</time>
      </trkpt>
      <trkpt lat="45.76734" lon="4.83406">
        <ele>172.6</ele>
        <time>2024-09-20T09:54:58Z</time>
      </trkpt>
      <trkpt lat="45.76734" lon="4.8341">
        <ele>172.4</ele>
        <time>2024-09-20T09:54:59Z</time>
      </trkpt>
      <trkpt lat="45.76734" lon="4.83414">
        <ele>172.4</ele>
        <time>2024-09-20T09:55:00Z</time>
      </trkpt>
      <trkpt lat="45.76734" lon="4.83417">
        <ele>172.4</ele>
        <time>2024-09-20T09:55:01Z</time>
      </trkpt>
      <trkpt lat="45.76734" lon="4.8342">
        <ele>172.4</ele>
        <time>2024-09-20T09:55:02Z</time>
      </trkpt>
      <trkpt lat="45.76732" lon="4.83422">
        <ele>172.4</ele>
        <time>2024-09-20T09:55:03Z</time>
      </trkpt>
      <trkpt lat="45.76732" lon="4.83425">
        <ele>172.4</ele>
        <time>2024-09-20T09:55:04Z</time>
      </trkpt>
      <trkpt lat="45.76731" lon="4.83427">
        <ele>172.4</ele>
        <time>2024-09-20T09:55:05Z</time>
      </trkpt>
      <trkpt lat="45.76731" lon="4.8343">
        <ele>172.4</ele>
        <time>2024-09-20T09:55:06Z</time>
      </trkpt>
      <trkpt lat="45.7673" lon="4.83432">
        <ele>172.4</ele>
        <time>2024-09-20T09:55:07Z</time>
      </trkpt>
      <trkpt lat="45.76731" lon="4.83435">
        <ele>172.6</ele>
        <time>2024-09-20T09:55:08Z</time>
      </trkpt>
      <trkpt lat="45.76731" lon="4.83438">
        <ele>172.6</ele>
        <time>2024-09-20T09:55:09Z</time>
      </trkpt>
      <trkpt lat="45.76732" lon="4.83441">
        <ele>172.6</ele>
        <time>2024-09-20T09:55:10Z</time>
      </trkpt>
      <trkpt lat="45.76732" lon="4.83445">
        <ele>172.6</ele>
        <time>2024-09-20T09:55:11Z</time>
      </trkpt>
      <trkpt lat="45.76733" lon="4.83448">
        <ele>172.6</ele>
        <time>2024-09-20T09:55:12Z</time>
      </trkpt>
      <trkpt lat="45.76734" lon="4.83452">
        <ele>172.4</ele>
        <time>2024-09-20T09:55:13Z</time>
      </trkpt>
      <trkpt lat="45.76734" lon="4.83456">
        <ele>172.4</ele>
        <time>2024-09-20T09:55:14Z</time>
      </trkpt>
      <trkpt lat="45.76735" lon="4.83461">
        <ele>172.4</ele>
        <time>2024-09-20T09:55:15Z</time>
      </trkpt>
      <trkpt lat="45.76735" lon="4.83466">
        <ele>172.4</ele>
        <time>2024-09-20T09:55:16Z</time>
      </trkpt>
      <trkpt lat="45.76735" lon="4.8347">
        <ele>172.2</ele>
        <time>2024-09-20T09:55:17Z</time>
      </trkpt>
      <trkpt lat="45.76735" lon="4.83476">
        <ele>172.2</ele>
        <time>2024-09-20T09:55:18Z</time>
      </trkpt>
      <trkpt lat="45.76736" lon="4.83481">
        <ele>172.2</ele>
        <time>2024-09-20T09:55:19Z</time>
      </trkpt>
      <trkpt lat="45.76736" lon="4.83486">
        <ele>172.2</ele>
        <time>2024-09-20T09:55:20Z</time>
      </trkpt>
      <trkpt lat="45.76737" lon="4.83491">
        <ele>172.2</ele>
        <time>2024-09-20T09:55:21Z</time>
      </trkpt>
      <trkpt lat="45.76737" lon="4.83497">
        <ele>171.8</ele>
        <time>2024-09-20T09:55:22Z</time>
      </trkpt>
      <trkpt lat="45.76737" lon="4.83503">
        <ele>171.8</ele>
        <time>2024-09-20T09:55:23Z</time>
      </trkpt>
      <trkpt lat="45.76738" lon="4.83509">
        <ele>171.8</ele>
        <time>2024-09-20T09:55:24Z</time>
      </trkpt>
      <trkpt lat="45.76739" lon="4.83514">
        <ele>171.8</ele>
        <time>2024-09-20T09:55:25Z</time>
      </trkpt>
      <trkpt lat="45.7674" lon="4.83519">
        <ele>172.2</ele>
        <time>2024-09-20T09:55:26Z</time>
      </trkpt>
      <trkpt lat="45.7674" lon="4.83526">
        <ele>172.2</ele>
        <time>2024-09-20T09:55:27Z</time>
      </trkpt>
      <trkpt lat="45.76742" lon="4.83532">
        <ele>172.2</ele>
        <time>2024-09-20T09:55:28Z</time>
      </trkpt>
      <trkpt lat="45.76743" lon="4.83538">
        <ele>172.2</ele>
        <time>2024-09-20T09:55:29Z</time>
      </trkpt>
      <trkpt lat="45.76743" lon="4.83544">
        <ele>171.6</ele>
        <time>2024-09-20T09:55:30Z</time>
      </trkpt>
      <trkpt lat="45.76744" lon="4.8355">
        <ele>171.6</ele>
        <time>2024-09-20T09:55:31Z</time>
      </trkpt>
      <trkpt lat="45.76745" lon="4.83556">
        <ele>171.6</ele>
        <time>2024-09-20T09:55:32Z</time>
      </trkpt>
      <trkpt lat="45.76745" lon="4.83562">
        <ele>171.6</ele>
        <time>2024-09-20T09:55:33Z</time>
      </trkpt>
      <trkpt lat="45.76746" lon="4.83568">
        <ele>171.8</ele>
        <time>2024-09-20T09:55:34Z</time>
      </trkpt>
      <trkpt lat="45.76747" lon="4.83573">
        <ele>171.8</ele>
        <time>2024-09-20T09:55:35Z</time>
      </trkpt>
      <trkpt lat="45.76747" lon="4.83578">
        <ele>171.8</ele>
        <time>2024-09-20T09:55:36Z</time>
      </trkpt>
      <trkpt lat="45.76748" lon="4.83582">
        <ele>171.8</ele>
        <time>2024-09-20T09:55:37Z</time>
      </trkpt>
      <trkpt lat="45.76749" lon="4.83586">
        <ele>171.8</ele>
        <time>2024-09-20T09:55:38Z</time>
      </trkpt>
      <trkpt lat="45.76749" lon="4.83588">
        <ele>171.6</ele>
        <time>2024-09-20T09:55:39Z</time>
      </trkpt>
      <trkpt lat="45.76749" lon="4.8359">
        <ele>171.6</ele>
        <time>2024-09-20T09:55:40Z</time>
      </trkpt>
      <trkpt lat="45.76749" lon="4.83591">
        <ele>171.6</ele>
        <time>2024-09-20T09:55:41Z</time>
      </trkpt>
      <trkpt lat="45.76749" lon="4.83591">
        <ele>171.6</ele>
        <time>2024-09-20T09:55:42Z</time>
      </trkpt>
      <trkpt lat="45.76753" lon="4.83601">
        <ele>171.6</ele>
        <time>2024-09-20T09:55:49Z</time>
      </trkpt>
      <trkpt lat="45.76754" lon="4.83605">
        <ele>171.6</ele>
        <time>2024-09-20T09:55:50Z</time>
      </trkpt>
      <trkpt lat="45.76755" lon="4.8361">
        <ele>171.6</ele>
        <time>2024-09-20T09:55:51Z</time>
      </trkpt>
      <trkpt lat="45.76757" lon="4.83614">
        <ele>171.6</ele>
        <time>2024-09-20T09:55:52Z</time>
      </trkpt>
      <trkpt lat="45.76759" lon="4.83619">
        <ele>171.6</ele>
        <time>2024-09-20T09:55:53Z</time>
      </trkpt>
      <trkpt lat="45.7676" lon="4.83623">
        <ele>171.6</ele>
        <time>2024-09-20T09:55:54Z</time>
      </trkpt>
      <trkpt lat="45.76762" lon="4.83628">
        <ele>171.8</ele>
        <time>2024-09-20T09:55:55Z</time>
      </trkpt>
      <trkpt lat="45.76763" lon="4.83634">
        <ele>171.8</ele>
        <time>2024-09-20T09:55:56Z</time>
      </trkpt>
      <trkpt lat="45.76763" lon="4.83639">
        <ele>171.8</ele>
        <time>2024-09-20T09:55:57Z</time>
      </trkpt>
      <trkpt lat="45.76764" lon="4.83645">
        <ele>171.4</ele>
        <time>2024-09-20T09:55:58Z</time>
      </trkpt>
      <trkpt lat="45.76764" lon="4.83651">
        <ele>171.4</ele>
        <time>2024-09-20T09:55:59Z</time>
      </trkpt>
      <trkpt lat="45.76764" lon="4.83656">
        <ele>171.4</ele>
        <time>2024-09-20T09:56:00Z</time>
      </trkpt>
      <trkpt lat="45.76764" lon="4.83661">
        <ele>171.4</ele>
        <time>2024-09-20T09:56:01Z</time>
      </trkpt>
      <trkpt lat="45.76765" lon="4.83666">
        <ele>171.6</ele>
        <time>2024-09-20T09:56:02Z</time>
      </trkpt>
      <trkpt lat="45.76765" lon="4.83671">
        <ele>171.6</ele>
        <time>2024-09-20T09:56:03Z</time>
      </trkpt>
      <trkpt lat="45.76765" lon="4.83676">
        <ele>171.6</ele>
        <time>2024-09-20T09:56:04Z</time>
      </trkpt>
      <trkpt lat="45.76766" lon="4.83681">
        <ele>171.6</ele>
        <time>2024-09-20T09:56:05Z</time>
      </trkpt>
      <trkpt lat="45.76766" lon="4.83687">
        <ele>171.6</ele>
        <time>2024-09-20T09:56:06Z</time>
      </trkpt>
      <trkpt lat="45.76766" lon="4.83692">
        <ele>171.6</ele>
        <time>2024-09-20T09:56:07Z</time>
      </trkpt>
      <trkpt lat="45.76767" lon="4.83697">
        <ele>171.6</ele>
        <time>2024-09-20T09:56:08Z</time>
      </trkpt>
      <trkpt lat="45.76768" lon="4.83703">
        <ele>171.6</ele>
        <time>2024-09-20T09:56:09Z</time>
      </trkpt>
      <trkpt lat="45.76768" lon="4.83708">
        <ele>171.6</ele>
        <time>2024-09-20T09:56:10Z</time>
      </trkpt>
      <trkpt lat="45.76768" lon="4.83714">
        <ele>171.6</ele>
        <time>2024-09-20T09:56:11Z</time>
      </trkpt>
      <trkpt lat="45.76767" lon="4.83719">
        <ele>171.6</ele>
        <time>2024-09-20T09:56:12Z</time>
      </trkpt>
      <trkpt lat="45.76767" lon="4.83724">
        <ele>171.6</ele>
        <time>2024-09-20T09:56:13Z</time>
      </trkpt>
      <trkpt lat="45.76768" lon="4.83727">
        <ele>171.6</ele>
        <time>2024-09-20T09:56:14Z</time>
      </trkpt>
      <trkpt lat="45.76768" lon="4.83731">
        <ele>171.6</ele>
        <time>2024-09-20T09:56:15Z</time>
      </trkpt>
      <trkpt lat="45.76769" lon="4.83733">
        <ele>171.6</ele>
        <time>2024-09-20T09:56:16Z</time>
      </trkpt>
      <trkpt lat="45.76769" lon="4.83737">
        <ele>171.6</ele>
        <time>2024-09-20T09:56:17Z</time>
      </trkpt>
      <trkpt lat="45.76769" lon="4.83742">
        <ele>171.6</ele>
        <time>2024-09-20T09:56:18Z</time>
      </trkpt>
      <trkpt lat="45.76769" lon="4.83746">
        <ele>171.4</ele>
        <time>2024-09-20T09:56:19Z</time>
      </trkpt>
      <trkpt lat="45.76769" lon="4.8375">
        <ele>171.2</ele>
        <time>2024-09-20T09:56:20Z</time>
      </trkpt>
      <trkpt lat="45.7677" lon="4.83755">
        <ele>171.2</ele>
        <time>2024-09-20T09:56:21Z</time>
      </trkpt>
      <trkpt lat="45.7677" lon="4.83761">
        <ele>171.2</ele>
        <time>2024-09-20T09:56:22Z</time>
      </trkpt>
      <trkpt lat="45.7677" lon="4.83766">
        <ele>171.2</ele>
        <time>2024-09-20T09:56:23Z</time>
      </trkpt>
      <trkpt lat="45.76771" lon="4.8377">
        <ele>171</ele>
        <time>2024-09-20T09:56:24Z</time>
      </trkpt>
      <trkpt lat="45.76772" lon="4.83774">
        <ele>171</ele>
        <time>2024-09-20T09:56:25Z</time>
      </trkpt>
      <trkpt lat="45.76772" lon="4.83778">
        <ele>171</ele>
        <time>2024-09-20T09:56:26Z</time>
      </trkpt>
      <trkpt lat="45.76773" lon="4.83779">
        <ele>171</ele>
        <time>2024-09-20T09:56:27Z</time>
      </trkpt>
      <trkpt lat="45.76773" lon="4.8378">
        <ele>171</ele>
        <time>2024-09-20T09:56:28Z</time>
      </trkpt>
      <trkpt lat="45.76773" lon="4.8378">
        <ele>171</ele>
        <time>2024-09-20T09:56:29Z</time>
      </trkpt>
      <trkpt lat="45.76775" lon="4.83798">
        <ele>171.2</ele>
        <time>2024-09-20T09:57:20Z</time>
      </trkpt>
      <trkpt lat="45.76776" lon="4.838">
        <ele>171.2</ele>
        <time>2024-09-20T09:57:21Z</time>
      </trkpt>
      <trkpt lat="45.76777" lon="4.83802">
        <ele>171.2</ele>
        <time>2024-09-20T09:57:22Z</time>
      </trkpt>
      <trkpt lat="45.76778" lon="4.83804">
        <ele>171.2</ele>
        <time>2024-09-20T09:57:23Z</time>
      </trkpt>
      <trkpt lat="45.76778" lon="4.83806">
        <ele>171.6</ele>
        <time>2024-09-20T09:57:24Z</time>
      </trkpt>
      <trkpt lat="45.76779" lon="4.83808">
        <ele>171.6</ele>
        <time>2024-09-20T09:57:25Z</time>
      </trkpt>
      <trkpt lat="45.76779" lon="4.8381">
        <ele>171.6</ele>
        <time>2024-09-20T09:57:26Z</time>
      </trkpt>
      <trkpt lat="45.7678" lon="4.83813">
        <ele>171.8</ele>
        <time>2024-09-20T09:57:27Z</time>
      </trkpt>
      <trkpt lat="45.7678" lon="4.83815">
        <ele>171.8</ele>
        <time>2024-09-20T09:57:28Z</time>
      </trkpt>
      <trkpt lat="45.76781" lon="4.83818">
        <ele>172.2</ele>
        <time>2024-09-20T09:57:29Z</time>
      </trkpt>
      <trkpt lat="45.76782" lon="4.8382">
        <ele>172.4</ele>
        <time>2024-09-20T09:57:30Z</time>
      </trkpt>
      <trkpt lat="45.76782" lon="4.83822">
        <ele>172.4</ele>
        <time>2024-09-20T09:57:31Z</time>
      </trkpt>
      <trkpt lat="45.76783" lon="4.83824">
        <ele>172.4</ele>
        <time>2024-09-20T09:57:32Z</time>
      </trkpt>
      <trkpt lat="45.76783" lon="4.83825">
        <ele>172.8</ele>
        <time>2024-09-20T09:57:33Z</time>
      </trkpt>
      <trkpt lat="45.76782" lon="4.83827">
        <ele>172.8</ele>
        <time>2024-09-20T09:57:34Z</time>
      </trkpt>
      <trkpt lat="45.76782" lon="4.83827">
        <ele>172.8</ele>
        <time>2024-09-20T09:57:35Z</time>
      </trkpt>
      <trkpt lat="45.76782" lon="4.83827">
        <ele>172.8</ele>
        <time>2024-09-20T09:57:36Z</time>
      </trkpt>
      <trkpt lat="45.76777" lon="4.83836">
        <ele>173.2</ele>
        <time>2024-09-20T09:57:46Z</time>
      </trkpt>
      <trkpt lat="45.76775" lon="4.83836">
        <ele>173</ele>
        <time>2024-09-20T09:57:47Z</time>
      </trkpt>
      <trkpt lat="45.76773" lon="4.83836">
        <ele>173</ele>
        <time>2024-09-20T09:57:48Z</time>
      </trkpt>
      <trkpt lat="45.76771" lon="4.83836">
        <ele>173</ele>
        <time>2024-09-20T09:57:49Z</time>
      </trkpt>
      <trkpt lat="45.76769" lon="4.83836">
        <ele>173</ele>
        <time>2024-09-20T09:57:50Z</time>
      </trkpt>
      <trkpt lat="45.76767" lon="4.83837">
        <ele>173</ele>
        <time>2024-09-20T09:57:51Z</time>
      </trkpt>
      <trkpt lat="45.76766" lon="4.83839">
        <ele>173</ele>
        <time>2024-09-20T09:57:52Z</time>
      </trkpt>
      <trkpt lat="45.76766" lon="4.83841">
        <ele>173</ele>
        <time>2024-09-20T09:57:53Z</time>
      </trkpt>
      <trkpt lat="45.76768" lon="4.83843">
        <ele>173</ele>
        <time>2024-09-20T09:57:54Z</time>
      </trkpt>
      <trkpt lat="45.76769" lon="4.83844">
        <ele>173.2</ele>
        <time>2024-09-20T09:57:55Z</time>
      </trkpt>
      <trkpt lat="45.76771" lon="4.83844">
        <ele>173.2</ele>
        <time>2024-09-20T09:57:56Z</time>
      </trkpt>
      <trkpt lat="45.76773" lon="4.83845">
        <ele>173.2</ele>
        <time>2024-09-20T09:57:57Z</time>
      </trkpt>
      <trkpt lat="45.76775" lon="4.83845">
        <ele>173.2</ele>
        <time>2024-09-20T09:57:58Z</time>
      </trkpt>
      <trkpt lat="45.76777" lon="4.83844">
        <ele>173.2</ele>
        <time>2024-09-20T09:57:59Z</time>
      </trkpt>
      <trkpt lat="45.76779" lon="4.83843">
        <ele>173.2</ele>
        <time>2024-09-20T09:58:00Z</time>
      </trkpt>
      <trkpt lat="45.76781" lon="4.83843">
        <ele>173.6</ele>
        <time>2024-09-20T09:58:01Z</time>
      </trkpt>
      <trkpt lat="45.76784" lon="4.83843">
        <ele>173.6</ele>
        <time>2024-09-20T09:58:02Z</time>
      </trkpt>
      <trkpt lat="45.76786" lon="4.83843">
        <ele>173.6</ele>
        <time>2024-09-20T09:58:03Z</time>
      </trkpt>
      <trkpt lat="45.76788" lon="4.83843">
        <ele>173.6</ele>
        <time>2024-09-20T09:58:04Z</time>
      </trkpt>
      <trkpt lat="45.76791" lon="4.83843">
        <ele>173.6</ele>
        <time>2024-09-20T09:58:05Z</time>
      </trkpt>
      <trkpt lat="45.76793" lon="4.83843">
        <ele>173.8</ele>
        <time>2024-09-20T09:58:06Z</time>
      </trkpt>
      <trkpt lat="45.76795" lon="4.83842">
        <ele>173.8</ele>
        <time>2024-09-20T09:58:07Z</time>
      </trkpt>
      <trkpt lat="45.76798" lon="4.83842">
        <ele>173.8</ele>
        <time>2024-09-20T09:58:08Z</time>
      </trkpt>
      <trkpt lat="45.768" lon="4.83841">
        <ele>174.2</ele>
        <time>2024-09-20T09:58:09Z</time>
      </trkpt>
      <trkpt lat="45.76802" lon="4.8384">
        <ele>174.2</ele>
        <time>2024-09-20T09:58:10Z</time>
      </trkpt>
      <trkpt lat="45.76804" lon="4.83839">
        <ele>174.2</ele>
        <time>2024-09-20T09:58:11Z</time>
      </trkpt>
      <trkpt lat="45.76807" lon="4.83838">
        <ele>174.2</ele>
        <time>2024-09-20T09:58:12Z</time>
      </trkpt>
      <trkpt lat="45.76808" lon="4.83838">
        <ele>174.2</ele>
        <time>2024-09-20T09:58:13Z</time>
      </trkpt>
      <trkpt lat="45.7681" lon="4.83837">
        <ele>174.8</ele>
        <time>2024-09-20T09:58:14Z</time>
      </trkpt>
      <trkpt lat="45.76812" lon="4.83837">
        <ele>174.8</ele>
        <time>2024-09-20T09:58:15Z</time>
      </trkpt>
      <trkpt lat="45.76814" lon="4.83837">
        <ele>174.8</ele>
        <time>2024-09-20T09:58:16Z</time>
      </trkpt>
      <trkpt lat="45.76816" lon="4.83837">
        <ele>174.8</ele>
        <time>2024-09-20T09:58:17Z</time>
      </trkpt>
      <trkpt lat="45.76818" lon="4.83838">
        <ele>175</ele>
        <time>2024-09-20T09:58:18Z</time>
      </trkpt>
      <trkpt lat="45.7682" lon="4.83838">
        <ele>175.2</ele>
        <time>2024-09-20T09:58:19Z</time>
      </trkpt>
      <trkpt lat="45.76822" lon="4.83838">
        <ele>175.2</ele>
        <time>2024-09-20T09:58:20Z</time>
      </trkpt>
      <trkpt lat="45.76825" lon="4.83838">
        <ele>175.2</ele>
        <time>2024-09-20T09:58:21Z</time>
      </trkpt>
      <trkpt lat="45.76827" lon="4.83837">
        <ele>175.2</ele>
        <time>2024-09-20T09:58:22Z</time>
      </trkpt>
      <trkpt lat="45.76829" lon="4.83837">
        <ele>175.6</ele>
        <time>2024-09-20T09:58:23Z</time>
      </trkpt>
      <trkpt lat="45.76831" lon="4.83836">
        <ele>175.8</ele>
        <time>2024-09-20T09:58:24Z</time>
      </trkpt>
      <trkpt lat="45.76834" lon="4.83835">
        <ele>175.8</ele>
        <time>2024-09-20T09:58:25Z</time>
      </trkpt>
      <trkpt lat="45.76836" lon="4.83835">
        <ele>175.8</ele>
        <time>2024-09-20T09:58:26Z</time>
      </trkpt>
      <trkpt lat="45.76839" lon="4.83835">
        <ele>176</ele>
        <time>2024-09-20T09:58:27Z</time>
      </trkpt>
      <trkpt lat="45.76841" lon="4.83835">
        <ele>176</ele>
        <time>2024-09-20T09:58:28Z</time>
      </trkpt>
      <trkpt lat="45.76844" lon="4.83834">
        <ele>176</ele>
        <time>2024-09-20T09:58:29Z</time>
      </trkpt>
      <trkpt lat="45.76846" lon="4.83833">
        <ele>176</ele>
        <time>2024-09-20T09:58:30Z</time>
      </trkpt>
      <trkpt lat="45.76849" lon="4.83833">
        <ele>176</ele>
        <time>2024-09-20T09:58:31Z</time>
      </trkpt>
      <trkpt lat="45.76851" lon="4.83833">
        <ele>176</ele>
        <time>2024-09-20T09:58:32Z</time>
      </trkpt>
      <trkpt lat="45.76854" lon="4.83834">
        <ele>176.2</ele>
        <time>2024-09-20T09:58:33Z</time>
      </trkpt>
      <trkpt lat="45.76856" lon="4.83835">
        <ele>176.2</ele>
        <time>2024-09-20T09:58:34Z</time>
      </trkpt>
      <trkpt lat="45.76858" lon="4.83838">
        <ele>176.2</ele>
        <time>2024-09-20T09:58:35Z</time>
      </trkpt>
      <trkpt lat="45.76859" lon="4.83841">
        <ele>176.2</ele>
        <time>2024-09-20T09:58:36Z</time>
      </trkpt>
      <trkpt lat="45.7686" lon="4.83845">
        <ele>176.8</ele>
        <time>2024-09-20T09:58:37Z</time>
      </trkpt>
      <trkpt lat="45.7686" lon="4.83849">
        <ele>176.8</ele>
        <time>2024-09-20T09:58:38Z</time>
      </trkpt>
      <trkpt lat="45.7686" lon="4.83854">
        <ele>176.8</ele>
        <time>2024-09-20T09:58:39Z</time>
      </trkpt>
      <trkpt lat="45.7686" lon="4.83858">
        <ele>176.8</ele>
        <time>2024-09-20T09:58:40Z</time>
      </trkpt>
      <trkpt lat="45.7686" lon="4.83863">
        <ele>176.8</ele>
        <time>2024-09-20T09:58:41Z</time>
      </trkpt>
      <trkpt lat="45.7686" lon="4.83868">
        <ele>177</ele>
        <time>2024-09-20T09:58:42Z</time>
      </trkpt>
      <trkpt lat="45.7686" lon="4.83872">
        <ele>177</ele>
        <time>2024-09-20T09:58:43Z</time>
      </trkpt>
      <trkpt lat="45.7686" lon="4.83877">
        <ele>177</ele>
        <time>2024-09-20T09:58:44Z</time>
      </trkpt>
      <trkpt lat="45.7686" lon="4.83882">
        <ele>177.4</ele>
        <time>2024-09-20T09:58:45Z</time>
      </trkpt>
      <trkpt lat="45.7686" lon="4.83887">
        <ele>177.4</ele>
        <time>2024-09-20T09:58:46Z</time>
      </trkpt>
      <trkpt lat="45.7686" lon="4.83891">
        <ele>177.6</ele>
        <time>2024-09-20T09:58:47Z</time>
      </trkpt>
      <trkpt lat="45.76861" lon="4.83897">
        <ele>177.6</ele>
        <time>2024-09-20T09:58:48Z</time>
      </trkpt>
      <trkpt lat="45.76861" lon="4.83902">
        <ele>177.8</ele>
        <time>2024-09-20T09:58:49Z</time>
      </trkpt>
      <trkpt lat="45.76861" lon="4.83907">
        <ele>177.6</ele>
        <time>2024-09-20T09:58:50Z</time>
      </trkpt>
      <trkpt lat="45.76861" lon="4.83912">
        <ele>177.6</ele>
        <time>2024-09-20T09:58:51Z</time>
      </trkpt>
      <trkpt lat="45.76862" lon="4.83918">
        <ele>177.6</ele>
        <time>2024-09-20T09:58:52Z</time>
      </trkpt>
      <trkpt lat="45.76862" lon="4.83923">
        <ele>177.6</ele>
        <time>2024-09-20T09:58:53Z</time>
      </trkpt>
      <trkpt lat="45.76862" lon="4.83929">
        <ele>177.6</ele>
        <time>2024-09-20T09:58:54Z</time>
      </trkpt>
      <trkpt lat="45.76862" lon="4.83935">
        <ele>177.8</ele>
        <time>2024-09-20T09:58:55Z</time>
      </trkpt>
      <trkpt lat="45.76862" lon="4.8394">
        <ele>178</ele>
        <time>2024-09-20T09:58:56Z</time>
      </trkpt>
      <trkpt lat="45.76862" lon="4.83946">
        <ele>178</ele>
        <time>2024-09-20T09:58:57Z</time>
      </trkpt>
      <trkpt lat="45.76862" lon="4.83952">
        <ele>178</ele>
        <time>2024-09-20T09:58:58Z</time>
      </trkpt>
      <trkpt lat="45.76863" lon="4.83958">
        <ele>177.6</ele>
        <time>2024-09-20T09:58:59Z</time>
      </trkpt>
      <trkpt lat="45.76863" lon="4.83964">
        <ele>177.6</ele>
        <time>2024-09-20T09:59:00Z</time>
      </trkpt>
      <trkpt lat="45.76863" lon="4.8397">
        <ele>177.6</ele>
        <time>2024-09-20T09:59:01Z</time>
      </trkpt>
      <trkpt lat="45.76863" lon="4.83977">
        <ele>177.6</ele>
        <time>2024-09-20T09:59:02Z</time>
      </trkpt>
      <trkpt lat="45.76863" lon="4.83983">
        <ele>177.6</ele>
        <time>2024-09-20T09:59:03Z</time>
      </trkpt>
      <trkpt lat="45.76863" lon="4.83989">
        <ele>177.8</ele>
        <time>2024-09-20T09:59:04Z</time>
      </trkpt>
      <trkpt lat="45.76863" lon="4.83996">
        <ele>177.8</ele>
        <time>2024-09-20T09:59:05Z</time>
      </trkpt>
      <trkpt lat="45.76863" lon="4.84003">
        <ele>177.8</ele>
        <time>2024-09-20T09:59:06Z</time>
      </trkpt>
      <trkpt lat="45.76863" lon="4.8401">
        <ele>177.8</ele>
        <time>2024-09-20T09:59:07Z</time>
      </trkpt>
      <trkpt lat="45.76863" lon="4.84017">
        <ele>177.8</ele>
        <time>2024-09-20T09:59:08Z</time>
      </trkpt>
      <trkpt lat="45.76863" lon="4.84024">
        <ele>177.6</ele>
        <time>2024-09-20T09:59:09Z</time>
      </trkpt>
      <trkpt lat="45.76863" lon="4.84032">
        <ele>177.6</ele>
        <time>2024-09-20T09:59:10Z</time>
      </trkpt>
      <trkpt lat="45.76864" lon="4.84039">
        <ele>177.6</ele>
        <time>2024-09-20T09:59:11Z</time>
      </trkpt>
      <trkpt lat="45.76864" lon="4.84046">
        <ele>177.2</ele>
        <time>2024-09-20T09:59:12Z</time>
      </trkpt>
      <trkpt lat="45.76864" lon="4.84053">
        <ele>177</ele>
        <time>2024-09-20T09:59:13Z</time>
      </trkpt>
      <trkpt lat="45.76864" lon="4.84061">
        <ele>177</ele>
        <time>2024-09-20T09:59:14Z</time>
      </trkpt>
      <trkpt lat="45.76864" lon="4.84068">
        <ele>177</ele>
        <time>2024-09-20T09:59:15Z</time>
      </trkpt>
      <trkpt lat="45.76864" lon="4.84076">
        <ele>177</ele>
        <time>2024-09-20T09:59:16Z</time>
      </trkpt>
      <trkpt lat="45.76864" lon="4.84082">
        <ele>176.2</ele>
        <time>2024-09-20T09:59:17Z</time>
      </trkpt>
      <trkpt lat="45.76863" lon="4.84088">
        <ele>176</ele>
        <time>2024-09-20T09:59:18Z</time>
      </trkpt>
      <trkpt lat="45.76863" lon="4.84092">
        <ele>176</ele>
        <time>2024-09-20T09:59:19Z</time>
      </trkpt>
      <trkpt lat="45.76863" lon="4.84096">
        <ele>176</ele>
        <time>2024-09-20T09:59:20Z</time>
      </trkpt>
      <trkpt lat="45.76863" lon="4.84099">
        <ele>175.6</ele>
        <time>2024-09-20T09:59:21Z</time>
      </trkpt>
      <trkpt lat="45.76863" lon="4.84101">
        <ele>175.6</ele>
        <time>2024-09-20T09:59:22Z</time>
      </trkpt>
      <trkpt lat="45.76862" lon="4.84102">
        <ele>175.6</ele>
        <time>2024-09-20T09:59:23Z</time>
      </trkpt>
      <trkpt lat="45.76861" lon="4.84105">
        <ele>175.4</ele>
        <time>2024-09-20T09:59:27Z</time>
      </trkpt>
      <trkpt lat="45.7686" lon="4.84106">
        <ele>175.4</ele>
        <time>2024-09-20T09:59:28Z</time>
      </trkpt>
      <trkpt lat="45.76858" lon="4.84107">
        <ele>175.4</ele>
        <time>2024-09-20T09:59:29Z</time>
      </trkpt>
      <trkpt lat="45.76855" lon="4.84108">
        <ele>175.4</ele>
        <time>2024-09-20T09:59:30Z</time>
      </trkpt>
      <trkpt lat="45.76852" lon="4.84108">
        <ele>175.4</ele>
        <time>2024-09-20T09:59:31Z</time>
      </trkpt>
      <trkpt lat="45.76849" lon="4.84109">
        <ele>175.4</ele>
        <time>2024-09-20T09:59:32Z</time>
      </trkpt>
      <trkpt lat="45.76845" lon="4.84109">
        <ele>175.4</ele>
        <time>2024-09-20T09:59:33Z</time>
      </trkpt>
      <trkpt lat="45.7684" lon="4.84109">
        <ele>175</ele>
        <time>2024-09-20T09:59:34Z</time>
      </trkpt>
      <trkpt lat="45.76836" lon="4.8411">
        <ele>174.6</ele>
        <time>2024-09-20T09:59:35Z</time>
      </trkpt>
      <trkpt lat="45.76831" lon="4.84111">
        <ele>174.6</ele>
        <time>2024-09-20T09:59:36Z</time>
      </trkpt>
      <trkpt lat="45.76826" lon="4.84111">
        <ele>174.6</ele>
        <time>2024-09-20T09:59:37Z</time>
      </trkpt>
      <trkpt lat="45.76821" lon="4.84112">
        <ele>174.6</ele>
        <time>2024-09-20T09:59:38Z</time>
      </trkpt>
      <trkpt lat="45.76815" lon="4.84113">
        <ele>174.6</ele>
        <time>2024-09-20T09:59:39Z</time>
      </trkpt>
      <trkpt lat="45.76809" lon="4.84114">
        <ele>174</ele>
        <time>2024-09-20T09:59:40Z</time>
      </trkpt>
      <trkpt lat="45.76803" lon="4.84115">
        <ele>173.6</ele>
        <time>2024-09-20T09:59:41Z</time>
      </trkpt>
      <trkpt lat="45.76797" lon="4.84115">
        <ele>173.6</ele>
        <time>2024-09-20T09:59:42Z</time>
      </trkpt>
      <trkpt lat="45.7679" lon="4.84116">
        <ele>173.6</ele>
        <time>2024-09-20T09:59:43Z</time>
      </trkpt>
      <trkpt lat="45.76784" lon="4.84117">
        <ele>172.6</ele>
        <time>2024-09-20T09:59:44Z</time>
      </trkpt>
      <trkpt lat="45.76777" lon="4.84119">
        <ele>172.2</ele>
        <time>2024-09-20T09:59:45Z</time>
      </trkpt>
      <trkpt lat="45.76771" lon="4.8412">
        <ele>172.2</ele>
        <time>2024-09-20T09:59:46Z</time>
      </trkpt>
      <trkpt lat="45.76765" lon="4.84122">
        <ele>172.2</ele>
        <time>2024-09-20T09:59:47Z</time>
      </trkpt>
      <trkpt lat="45.76759" lon="4.84123">
        <ele>172</ele>
        <time>2024-09-20T09:59:48Z</time>
      </trkpt>
      <trkpt lat="45.76753" lon="4.84125">
        <ele>171.8</ele>
        <time>2024-09-20T09:59:49Z</time>
      </trkpt>
      <trkpt lat="45.76747" lon="4.84126">
        <ele>171.8</ele>
        <time>2024-09-20T09:59:50Z</time>
      </trkpt>
      <trkpt lat="45.76741" lon="4.84127">
        <ele>171.8</ele>
        <time>2024-09-20T09:59:51Z</time>
      </trkpt>
      <trkpt lat="45.76735" lon="4.84128">
        <ele>171.8</ele>
        <time>2024-09-20T09:59:52Z</time>
      </trkpt>
      <trkpt lat="45.7673" lon="4.84129">
        <ele>171.6</ele>
        <time>2024-09-20T09:59:53Z</time>
      </trkpt>
      <trkpt lat="45.76724" lon="4.8413">
        <ele>171.6</ele>
        <time>2024-09-20T09:59:54Z</time>
      </trkpt>
      <trkpt lat="45.76718" lon="4.8413">
        <ele>171.6</ele>
        <time>2024-09-20T09:59:55Z</time>
      </trkpt>
      <trkpt lat="45.76713" lon="4.84131">
        <ele>171.6</ele>
        <time>2024-09-20T09:59:56Z</time>
      </trkpt>
      <trkpt lat="45.76707" lon="4.84131">
        <ele>171.6</ele>
        <time>2024-09-20T09:59:57Z</time>
      </trkpt>
      <trkpt lat="45.76701" lon="4.8413">
        <ele>171.2</ele>
        <time>2024-09-20T09:59:58Z</time>
      </trkpt>
      <trkpt lat="45.76696" lon="4.8413">
        <ele>171.2</ele>
        <time>2024-09-20T09:59:59Z</time>
      </trkpt>
      <trkpt lat="45.76691" lon="4.84132">
        <ele>171.2</ele>
        <time>2024-09-20T10:00:00Z</time>
      </trkpt>
      <trkpt lat="45.76686" lon="4.84134">
        <ele>171.2</ele>
        <time>2024-09-20T10:00:01Z</time>
      </trkpt>
      <trkpt lat="45.76681" lon="4.84135">
        <ele>171.2</ele>
        <time>2024-09-20T10:00:02Z</time>
      </trkpt>
      <trkpt lat="45.76676" lon="4.84136">
        <ele>171.2</ele>
        <time>2024-09-20T10:00:03Z</time>
      </trkpt>
      <trkpt lat="45.76671" lon="4.84137">
        <ele>171.2</ele>
        <time>2024-09-20T10:00:04Z</time>
      </trkpt>
      <trkpt lat="45.76665" lon="4.84137">
        <ele>171.2</ele>
        <time>2024-09-20T10:00:05Z</time>
      </trkpt>
      <trkpt lat="45.7666" lon="4.84138">
        <ele>171.2</ele>
        <time>2024-09-20T10:00:06Z</time>
      </trkpt>
      <trkpt lat="45.76654" lon="4.84138">
        <ele>171.4</ele>
        <time>2024-09-20T10:00:07Z</time>
      </trkpt>
      <trkpt lat="45.76648" lon="4.84139">
        <ele>171.4</ele>
        <time>2024-09-20T10:00:08Z</time>
      </trkpt>
      <trkpt lat="45.76643" lon="4.84139">
        <ele>171.4</ele>
        <time>2024-09-20T10:00:09Z</time>
      </trkpt>
      <trkpt lat="45.76637" lon="4.8414">
        <ele>171</ele>
        <time>2024-09-20T10:00:10Z</time>
      </trkpt>
      <trkpt lat="45.76632" lon="4.8414">
        <ele>171.2</ele>
        <time>2024-09-20T10:00:11Z</time>
      </trkpt>
      <trkpt lat="45.76627" lon="4.84141">
        <ele>171.2</ele>
        <time>2024-09-20T10:00:12Z</time>
      </trkpt>
      <trkpt lat="45.76622" lon="4.84142">
        <ele>171.2</ele>
        <time>2024-09-20T10:00:13Z</time>
      </trkpt>
      <trkpt lat="45.76616" lon="4.84144">
        <ele>171.2</ele>
        <time>2024-09-20T10:00:14Z</time>
      </trkpt>
      <trkpt lat="45.76611" lon="4.84144">
        <ele>171.2</ele>
        <time>2024-09-20T10:00:15Z</time>
      </trkpt>
      <trkpt lat="45.76605" lon="4.84144">
        <ele>171</ele>
        <time>2024-09-20T10:00:16Z</time>
      </trkpt>
      <trkpt lat="45.76599" lon="4.84144">
        <ele>171</ele>
        <time>2024-09-20T10:00:17Z</time>
      </trkpt>
      <trkpt lat="45.76594" lon="4.84145">
        <ele>171</ele>
        <time>2024-09-20T10:00:18Z</time>
      </trkpt>
      <trkpt lat="45.76589" lon="4.84146">
        <ele>171</ele>
        <time>2024-09-20T10:00:19Z</time>
      </trkpt>
      <trkpt lat="45.76583" lon="4.84147">
        <ele>171</ele>
        <time>2024-09-20T10:00:20Z</time>
      </trkpt>
      <trkpt lat="45.76578" lon="4.84148">
        <ele>171</ele>
        <time>2024-09-20T10:00:21Z</time>
      </trkpt>
      <trkpt lat="45.76573" lon="4.84148">
        <ele>171</ele>
        <time>2024-09-20T10:00:22Z</time>
      </trkpt>
      <trkpt lat="45.76568" lon="4.84148">
        <ele>171</ele>
        <time>2024-09-20T10:00:23Z</time>
      </trkpt>
      <trkpt lat="45.76563" lon="4.84147">
        <ele>171</ele>
        <time>2024-09-20T10:00:24Z</time>
      </trkpt>
      <trkpt lat="45.76558" lon="4.84147">
        <ele>171.2</ele>
        <time>2024-09-20T10:00:25Z</time>
      </trkpt>
      <trkpt lat="45.76553" lon="4.84147">
        <ele>171.2</ele>
        <time>2024-09-20T10:00:26Z</time>
      </trkpt>
      <trkpt lat="45.76548" lon="4.84147">
        <ele>171.2</ele>
        <time>2024-09-20T10:00:27Z</time>
      </trkpt>
      <trkpt lat="45.76543" lon="4.84148">
        <ele>171.2</ele>
        <time>2024-09-20T10:00:28Z</time>
      </trkpt>
      <trkpt lat="45.76539" lon="4.84148">
        <ele>171</ele>
        <time>2024-09-20T10:00:29Z</time>
      </trkpt>
      <trkpt lat="45.76535" lon="4.84148">
        <ele>170.8</ele>
        <time>2024-09-20T10:00:30Z</time>
      </trkpt>
      <trkpt lat="45.76531" lon="4.84147">
        <ele>170.8</ele>
        <time>2024-09-20T10:00:31Z</time>
      </trkpt>
      <trkpt lat="45.76526" lon="4.84147">
        <ele>170.8</ele>
        <time>2024-09-20T10:00:32Z</time>
      </trkpt>
      <trkpt lat="45.76521" lon="4.84147">
        <ele>170.8</ele>
        <time>2024-09-20T10:00:33Z</time>
      </trkpt>
      <trkpt lat="45.76516" lon="4.84147">
        <ele>171</ele>
        <time>2024-09-20T10:00:34Z</time>
      </trkpt>
      <trkpt lat="45.76511" lon="4.84146">
        <ele>171</ele>
        <time>2024-09-20T10:00:35Z</time>
      </trkpt>
      <trkpt lat="45.76506" lon="4.84147">
        <ele>171</ele>
        <time>2024-09-20T10:00:36Z</time>
      </trkpt>
      <trkpt lat="45.76501" lon="4.84146">
        <ele>170.8</ele>
        <time>2024-09-20T10:00:37Z</time>
      </trkpt>
      <trkpt lat="45.76496" lon="4.84146">
        <ele>170.8</ele>
        <time>2024-09-20T10:00:38Z</time>
      </trkpt>
      <trkpt lat="45.76491" lon="4.84145">
        <ele>170.8</ele>
        <time>2024-09-20T10:00:39Z</time>
      </trkpt>
      <trkpt lat="45.76486" lon="4.84145">
        <ele>170.8</ele>
        <time>2024-09-20T10:00:40Z</time>
      </trkpt>
      <trkpt lat="45.76481" lon="4.84145">
        <ele>170.8</ele>
        <time>2024-09-20T10:00:41Z</time>
      </trkpt>
      <trkpt lat="45.76476" lon="4.84145">
        <ele>170.8</ele>
        <time>2024-09-20T10:00:42Z</time>
      </trkpt>
      <trkpt lat="45.76471" lon="4.84146">
        <ele>171.2</ele>
        <time>2024-09-20T10:00:43Z</time>
      </trkpt>
      <trkpt lat="45.76467" lon="4.84145">
        <ele>171.2</ele>
        <time>2024-09-20T10:00:44Z</time>
      </trkpt>
      <trkpt lat="45.76462" lon="4.84145">
        <ele>171.2</ele>
        <time>2024-09-20T10:00:45Z</time>
      </trkpt>
      <trkpt lat="45.76458" lon="4.84144">
        <ele>171.2</ele>
        <time>2024-09-20T10:00:46Z</time>
      </trkpt>
      <trkpt lat="45.76454" lon="4.84145">
        <ele>171.2</ele>
        <time>2024-09-20T10:00:47Z</time>
      </trkpt>
      <trkpt lat="45.76449" lon="4.84145">
        <ele>171</ele>
        <time>2024-09-20T10:00:48Z</time>
      </trkpt>
      <trkpt lat="45.76444" lon="4.84144">
        <ele>171</ele>
        <time>2024-09-20T10:00:49Z</time>
      </trkpt>
      <trkpt lat="45.76439" lon="4.84144">
        <ele>171</ele>
        <time>2024-09-20T10:00:50Z</time>
      </trkpt>
      <trkpt lat="45.76435" lon="4.84143">
        <ele>171</ele>
        <time>2024-09-20T10:00:51Z</time>
      </trkpt>
      <trkpt lat="45.76431" lon="4.84143">
        <ele>171.2</ele>
        <time>2024-09-20T10:00:52Z</time>
      </trkpt>
      <trkpt lat="45.76426" lon="4.84143">
        <ele>171.2</ele>
        <time>2024-09-20T10:00:53Z</time>
      </trkpt>
      <trkpt lat="45.76422" lon="4.84143">
        <ele>171.2</ele>
        <time>2024-09-20T10:00:54Z</time>
      </trkpt>
      <trkpt lat="45.76418" lon="4.84142">
        <ele>171.2</ele>
        <time>2024-09-20T10:00:55Z</time>
      </trkpt>
      <trkpt lat="45.76414" lon="4.84142">
        <ele>171.4</ele>
        <time>2024-09-20T10:00:56Z</time>
      </trkpt>
      <trkpt lat="45.7641" lon="4.84142">
        <ele>171.4</ele>
        <time>2024-09-20T10:00:57Z</time>
      </trkpt>
      <trkpt lat="45.76406" lon="4.84142">
        <ele>171.4</ele>
        <time>2024-09-20T10:00:58Z</time>
      </trkpt>
      <trkpt lat="45.76402" lon="4.84142">
        <ele>171.4</ele>
        <time>2024-09-20T10:00:59Z</time>
      </trkpt>
      <trkpt lat="45.76398" lon="4.84143">
        <ele>171.4</ele>
        <time>2024-09-20T10:01:00Z</time>
      </trkpt>
      <trkpt lat="45.76392" lon="4.84143">
        <ele>171.8</ele>
        <time>2024-09-20T10:01:01Z</time>
      </trkpt>
      <trkpt lat="45.76387" lon="4.84143">
        <ele>171.8</ele>
        <time>2024-09-20T10:01:02Z</time>
      </trkpt>
      <trkpt lat="45.76381" lon="4.84143">
        <ele>171.8</ele>
        <time>2024-09-20T10:01:03Z</time>
      </trkpt>
      <trkpt lat="45.76376" lon="4.84143">
        <ele>171.8</ele>
        <time>2024-09-20T10:01:04Z</time>
      </trkpt>
      <trkpt lat="45.76372" lon="4.84141">
        <ele>172.2</ele>
        <time>2024-09-20T10:01:05Z</time>
      </trkpt>
      <trkpt lat="45.76368" lon="4.84139">
        <ele>172.2</ele>
        <time>2024-09-20T10:01:06Z</time>
      </trkpt>
      <trkpt lat="45.76364" lon="4.84137">
        <ele>172.2</ele>
        <time>2024-09-20T10:01:07Z</time>
      </trkpt>
      <trkpt lat="45.76359" lon="4.84137">
        <ele>172.2</ele>
        <time>2024-09-20T10:01:08Z</time>
      </trkpt>
      <trkpt lat="45.76355" lon="4.84136">
        <ele>172.4</ele>
        <time>2024-09-20T10:01:09Z</time>
      </trkpt>
      <trkpt lat="45.76351" lon="4.84136">
        <ele>172.6</ele>
        <time>2024-09-20T10:01:10Z</time>
      </trkpt>
      <trkpt lat="45.76347" lon="4.84136">
        <ele>172.6</ele>
        <time>2024-09-20T10:01:11Z</time>
      </trkpt>
      <trkpt lat="45.76343" lon="4.84136">
        <ele>172.6</ele>
        <time>2024-09-20T10:01:12Z</time>
      </trkpt>
      <trkpt lat="45.76339" lon="4.84135">
        <ele>172.6</ele>
        <time>2024-09-20T10:01:13Z</time>
      </trkpt>
      <trkpt lat="45.76335" lon="4.84135">
        <ele>172.6</ele>
        <time>2024-09-20T10:01:14Z</time>
      </trkpt>
      <trkpt lat="45.76331" lon="4.84135">
        <ele>172.4</ele>
        <time>2024-09-20T10:01:15Z</time>
      </trkpt>
      <trkpt lat="45.76327" lon="4.84134">
        <ele>172.4</ele>
        <time>2024-09-20T10:01:16Z</time>
      </trkpt>
      <trkpt lat="45.76323" lon="4.84133">
        <ele>172.4</ele>
        <time>2024-09-20T10:01:17Z</time>
      </trkpt>
      <trkpt lat="45.76319" lon="4.84132">
        <ele>172</ele>
        <time>2024-09-20T10:01:18Z</time>
      </trkpt>
      <trkpt lat="45.76314" lon="4.84132">
        <ele>172.2</ele>
        <time>2024-09-20T10:01:19Z</time>
      </trkpt>
      <trkpt lat="45.76309" lon="4.84131">
        <ele>172.2</ele>
        <time>2024-09-20T10:01:20Z</time>
      </trkpt>
      <trkpt lat="45.76305" lon="4.84131">
        <ele>172.2</ele>
        <time>2024-09-20T10:01:21Z</time>
      </trkpt>
      <trkpt lat="45.763" lon="4.84131">
        <ele>172.2</ele>
        <time>2024-09-20T10:01:22Z</time>
      </trkpt>
      <trkpt lat="45.76295" lon="4.8413">
        <ele>172.2</ele>
        <time>2024-09-20T10:01:23Z</time>
      </trkpt>
      <trkpt lat="45.76291" lon="4.8413">
        <ele>172.2</ele>
        <time>2024-09-20T10:01:24Z</time>
      </trkpt>
      <trkpt lat="45.76286" lon="4.84129">
        <ele>172.4</ele>
        <time>2024-09-20T10:01:25Z</time>
      </trkpt>
      <trkpt lat="45.76282" lon="4.84128">
        <ele>172.4</ele>
        <time>2024-09-20T10:01:26Z</time>
      </trkpt>
      <trkpt lat="45.76278" lon="4.84127">
        <ele>171.8</ele>
        <time>2024-09-20T10:01:27Z</time>
      </trkpt>
      <trkpt lat="45.76273" lon="4.84127">
        <ele>172</ele>
        <time>2024-09-20T10:01:28Z</time>
      </trkpt>
      <trkpt lat="45.76268" lon="4.84127">
        <ele>172</ele>
        <time>2024-09-20T10:01:29Z</time>
      </trkpt>
      <trkpt lat="45.76263" lon="4.84126">
        <ele>172</ele>
        <time>2024-09-20T10:01:30Z</time>
      </trkpt>
      <trkpt lat="45.76258" lon="4.84125">
        <ele>172</ele>
        <time>2024-09-20T10:01:31Z</time>
      </trkpt>
      <trkpt lat="45.76253" lon="4.84125">
        <ele>171.8</ele>
        <time>2024-09-20T10:01:32Z</time>
      </trkpt>
      <trkpt lat="45.76249" lon="4.84124">
        <ele>171.8</ele>
        <time>2024-09-20T10:01:33Z</time>
      </trkpt>
      <trkpt lat="45.76244" lon="4.84124">
        <ele>171.8</ele>
        <time>2024-09-20T10:01:34Z</time>
      </trkpt>
      <trkpt lat="45.76239" lon="4.84123">
        <ele>171.8</ele>
        <time>2024-09-20T10:01:35Z</time>
      </trkpt>
      <trkpt lat="45.76234" lon="4.84122">
        <ele>171.8</ele>
        <time>2024-09-20T10:01:36Z</time>
      </trkpt>
      <trkpt lat="45.76229" lon="4.84121">
        <ele>171.8</ele>
        <time>2024-09-20T10:01:37Z</time>
      </trkpt>
      <trkpt lat="45.76224" lon="4.8412">
        <ele>171.8</ele>
        <time>2024-09-20T10:01:38Z</time>
      </trkpt>
      <trkpt lat="45.76218" lon="4.84119">
        <ele>171.8</ele>
        <time>2024-09-20T10:01:39Z</time>
      </trkpt>
      <trkpt lat="45.76213" lon="4.84118">
        <ele>171.8</ele>
        <time>2024-09-20T10:01:40Z</time>
      </trkpt>
      <trkpt lat="45.76208" lon="4.84117">
        <ele>171.6</ele>
        <time>2024-09-20T10:01:41Z</time>
      </trkpt>
      <trkpt lat="45.76204" lon="4.84116">
        <ele>171.6</ele>
        <time>2024-09-20T10:01:42Z</time>
      </trkpt>
      <trkpt lat="45.76199" lon="4.84116">
        <ele>171.6</ele>
        <time>2024-09-20T10:01:43Z</time>
      </trkpt>
      <trkpt lat="45.76194" lon="4.84116">
        <ele>171.6</ele>
        <time>2024-09-20T10:01:44Z</time>
      </trkpt>
      <trkpt lat="45.76188" lon="4.84115">
        <ele>172</ele>
        <time>2024-09-20T10:01:45Z</time>
      </trkpt>
      <trkpt lat="45.76183" lon="4.84115">
        <ele>172</ele>
        <time>2024-09-20T10:01:46Z</time>
      </trkpt>
      <trkpt lat="45.76178" lon="4.84114">
        <ele>172</ele>
        <time>2024-09-20T10:01:47Z</time>
      </trkpt>
      <trkpt lat="45.76173" lon="4.84114">
        <ele>172</ele>
        <time>2024-09-20T10:01:48Z</time>
      </trkpt>
      <trkpt lat="45.76168" lon="4.84113">
        <ele>172</ele>
        <time>2024-09-20T10:01:49Z</time>
      </trkpt>
      <trkpt lat="45.76163" lon="4.84113">
        <ele>172</ele>
        <time>2024-09-20T10:01:50Z</time>
      </trkpt>
      <trkpt lat="45.76158" lon="4.84113">
        <ele>172</ele>
        <time>2024-09-20T10:01:51Z</time>
      </trkpt>
      <trkpt lat="45.76154" lon="4.84114">
        <ele>172</ele>
        <time>2024-09-20T10:01:52Z</time>
      </trkpt>
      <trkpt lat="45.76149" lon="4.84114">
        <ele>172</ele>
        <time>2024-09-20T10:01:53Z</time>
      </trkpt>
      <trkpt lat="45.76145" lon="4.84114">
        <ele>172</ele>
        <time>2024-09-20T10:01:54Z</time>
      </trkpt>
      <trkpt lat="45.76141" lon="4.84113">
        <ele>172</ele>
        <time>2024-09-20T10:01:55Z</time>
      </trkpt>
      <trkpt lat="45.76137" lon="4.84113">
        <ele>172</ele>
        <time>2024-09-20T10:01:56Z</time>
      </trkpt>
      <trkpt lat="45.76135" lon="4.84115">
        <ele>172</ele>
        <time>2024-09-20T10:01:57Z</time>
      </trkpt>
      <trkpt lat="45.76133" lon="4.84115">
        <ele>172</ele>
        <time>2024-09-20T10:01:58Z</time>
      </trkpt>
      <trkpt lat="45.76132" lon="4.84116">
        <ele>172</ele>
        <time>2024-09-20T10:01:59Z</time>
      </trkpt>
      <trkpt lat="45.76132" lon="4.84116">
        <ele>171.8</ele>
        <time>2024-09-20T10:02:00Z</time>
      </trkpt>
      <trkpt lat="45.76131" lon="4.84126">
        <ele>171.6</ele>
        <time>2024-09-20T10:02:06Z</time>
      </trkpt>
      <trkpt lat="45.76131" lon="4.84131">
        <ele>171.6</ele>
        <time>2024-09-20T10:02:07Z</time>
      </trkpt>
      <trkpt lat="45.76131" lon="4.84135">
        <ele>171.8</ele>
        <time>2024-09-20T10:02:08Z</time>
      </trkpt>
      <trkpt lat="45.76131" lon="4.8414">
        <ele>171.8</ele>
        <time>2024-09-20T10:02:09Z</time>
      </trkpt>
      <trkpt lat="45.76131" lon="4.84145">
        <ele>171.8</ele>
        <time>2024-09-20T10:02:10Z</time>
      </trkpt>
      <trkpt lat="45.76132" lon="4.84151">
        <ele>171.8</ele>
        <time>2024-09-20T10:02:11Z</time>
      </trkpt>
      <trkpt lat="45.76132" lon="4.84157">
        <ele>171.6</ele>
        <time>2024-09-20T10:02:12Z</time>
      </trkpt>
      <trkpt lat="45.76133" lon="4.84163">
        <ele>171.6</ele>
        <time>2024-09-20T10:02:13Z</time>
      </trkpt>
      <trkpt lat="45.76134" lon="4.84169">
        <ele>171.6</ele>
        <time>2024-09-20T10:02:14Z</time>
      </trkpt>
      <trkpt lat="45.76134" lon="4.84175">
        <ele>171.6</ele>
        <time>2024-09-20T10:02:15Z</time>
      </trkpt>
      <trkpt lat="45.76135" lon="4.84181">
        <ele>171.4</ele>
        <time>2024-09-20T10:02:16Z</time>
      </trkpt>
      <trkpt lat="45.76135" lon="4.84186">
        <ele>171.2</ele>
        <time>2024-09-20T10:02:17Z</time>
      </trkpt>
      <trkpt lat="45.76136" lon="4.84191">
        <ele>171.2</ele>
        <time>2024-09-20T10:02:18Z</time>
      </trkpt>
      <trkpt lat="45.76136" lon="4.84194">
        <ele>171.2</ele>
        <time>2024-09-20T10:02:19Z</time>
      </trkpt>
      <trkpt lat="45.76136" lon="4.84196">
        <ele>171.2</ele>
        <time>2024-09-20T10:02:20Z</time>
      </trkpt>
      <trkpt lat="45.76136" lon="4.84197">
        <ele>171.2</ele>
        <time>2024-09-20T10:02:21Z</time>
      </trkpt>
      <trkpt lat="45.76136" lon="4.84197">
        <ele>171.2</ele>
        <time>2024-09-20T10:02:22Z</time>
      </trkpt>
      <trkpt lat="45.76135" lon="4.84202">
        <ele>170.6</ele>
        <time>2024-09-20T10:02:38Z</time>
      </trkpt>
      <trkpt lat="45.76135" lon="4.84206">
        <ele>170.8</ele>
        <time>2024-09-20T10:02:39Z</time>
      </trkpt>
      <trkpt lat="45.76136" lon="4.8421">
        <ele>170.8</ele>
        <time>2024-09-20T10:02:40Z</time>
      </trkpt>
      <trkpt lat="45.76136" lon="4.84214">
        <ele>170.8</ele>
        <time>2024-09-20T10:02:41Z</time>
      </trkpt>
      <trkpt lat="45.76137" lon="4.84219">
        <ele>170.8</ele>
        <time>2024-09-20T10:02:42Z</time>
      </trkpt>
      <trkpt lat="45.76137" lon="4.84225">
        <ele>170.8</ele>
        <time>2024-09-20T10:02:43Z</time>
      </trkpt>
      <trkpt lat="45.76138" lon="4.8423">
        <ele>170.8</ele>
        <time>2024-09-20T10:02:44Z</time>
      </trkpt>
      <trkpt lat="45.76139" lon="4.84236">
        <ele>170.8</ele>
        <time>2024-09-20T10:02:45Z</time>
      </trkpt>
      <trkpt lat="45.76139" lon="4.84243">
        <ele>170.8</ele>
        <time>2024-09-20T10:02:46Z</time>
      </trkpt>
      <trkpt lat="45.7614" lon="4.8425">
        <ele>170.8</ele>
        <time>2024-09-20T10:02:47Z</time>
      </trkpt>
      <trkpt lat="45.76141" lon="4.84257">
        <ele>170.8</ele>
        <time>2024-09-20T10:02:48Z</time>
      </trkpt>
      <trkpt lat="45.76142" lon="4.84265">
        <ele>170.8</ele>
        <time>2024-09-20T10:02:49Z</time>
      </trkpt>
      <trkpt lat="45.76143" lon="4.84272">
        <ele>170.8</ele>
        <time>2024-09-20T10:02:50Z</time>
      </trkpt>
      <trkpt lat="45.76143" lon="4.8428">
        <ele>170.8</ele>
        <time>2024-09-20T10:02:51Z</time>
      </trkpt>
      <trkpt lat="45.76144" lon="4.84286">
        <ele>170.6</ele>
        <time>2024-09-20T10:02:52Z</time>
      </trkpt>
      <trkpt lat="45.76145" lon="4.84292">
        <ele>170.6</ele>
        <time>2024-09-20T10:02:53Z</time>
      </trkpt>
      <trkpt lat="45.76146" lon="4.84299">
        <ele>170.6</ele>
        <time>2024-09-20T10:02:54Z</time>
      </trkpt>
      <trkpt lat="45.76147" lon="4.84307">
        <ele>170.6</ele>
        <time>2024-09-20T10:02:55Z</time>
      </trkpt>
      <trkpt lat="45.76147" lon="4.84318">
        <ele>170.6</ele>
        <time>2024-09-20T10:02:56Z</time>
      </trkpt>
      <trkpt lat="45.76147" lon="4.84327">
        <ele>170.6</ele>
        <time>2024-09-20T10:02:57Z</time>
      </trkpt>
      <trkpt lat="45.76148" lon="4.84335">
        <ele>170.6</ele>
        <time>2024-09-20T10:02:58Z</time>
      </trkpt>
      <trkpt lat="45.76149" lon="4.84343">
        <ele>170.6</ele>
        <time>2024-09-20T10:02:59Z</time>
      </trkpt>
      <trkpt lat="45.7615" lon="4.8435">
        <ele>170.6</ele>
        <time>2024-09-20T10:03:00Z</time>
      </trkpt>
      <trkpt lat="45.7615" lon="4.84357">
        <ele>170.4</ele>
        <time>2024-09-20T10:03:01Z</time>
      </trkpt>
      <trkpt lat="45.76151" lon="4.84363">
        <ele>170.4</ele>
        <time>2024-09-20T10:03:02Z</time>
      </trkpt>
      <trkpt lat="45.76151" lon="4.84368">
        <ele>170.4</ele>
        <time>2024-09-20T10:03:03Z</time>
      </trkpt>
      <trkpt lat="45.76151" lon="4.84373">
        <ele>170.4</ele>
        <time>2024-09-20T10:03:04Z</time>
      </trkpt>
      <trkpt lat="45.76151" lon="4.84377">
        <ele>170.2</ele>
        <time>2024-09-20T10:03:05Z</time>
      </trkpt>
      <trkpt lat="45.76152" lon="4.8438">
        <ele>170.4</ele>
        <time>2024-09-20T10:03:06Z</time>
      </trkpt>
      <trkpt lat="45.76152" lon="4.84383">
        <ele>170.4</ele>
        <time>2024-09-20T10:03:07Z</time>
      </trkpt>
      <trkpt lat="45.76152" lon="4.84386">
        <ele>170.4</ele>
        <time>2024-09-20T10:03:08Z</time>
      </trkpt>
      <trkpt lat="45.76153" lon="4.8439">
        <ele>170.4</ele>
        <time>2024-09-20T10:03:09Z</time>
      </trkpt>
      <trkpt lat="45.76154" lon="4.84394">
        <ele>169.8</ele>
        <time>2024-09-20T10:03:10Z</time>
      </trkpt>
      <trkpt lat="45.76155" lon="4.84398">
        <ele>170</ele>
        <time>2024-09-20T10:03:11Z</time>
      </trkpt>
      <trkpt lat="45.76156" lon="4.84403">
        <ele>170</ele>
        <time>2024-09-20T10:03:12Z</time>
      </trkpt>
      <trkpt lat="45.76158" lon="4.84408">
        <ele>170</ele>
        <time>2024-09-20T10:03:13Z</time>
      </trkpt>
      <trkpt lat="45.76159" lon="4.84413">
        <ele>169.8</ele>
        <time>2024-09-20T10:03:14Z</time>
      </trkpt>
      <trkpt lat="45.76161" lon="4.84419">
        <ele>169.8</ele>
        <time>2024-09-20T10:03:15Z</time>
      </trkpt>
      <trkpt lat="45.76163" lon="4.84424">
        <ele>169.8</ele>
        <time>2024-09-20T10:03:16Z</time>
      </trkpt>
      <trkpt lat="45.76164" lon="4.8443">
        <ele>169.8</ele>
        <time>2024-09-20T10:03:17Z</time>
      </trkpt>
      <trkpt lat="45.76164" lon="4.84437">
        <ele>169.8</ele>
        <time>2024-09-20T10:03:18Z</time>
      </trkpt>
      <trkpt lat="45.76165" lon="4.84444">
        <ele>170</ele>
        <time>2024-09-20T10:03:19Z</time>
      </trkpt>
      <trkpt lat="45.76166" lon="4.84451">
        <ele>170</ele>
        <time>2024-09-20T10:03:20Z</time>
      </trkpt>
      <trkpt lat="45.76166" lon="4.84458">
        <ele>170</ele>
        <time>2024-09-20T10:03:21Z</time>
      </trkpt>
      <trkpt lat="45.76167" lon="4.84465">
        <ele>170</ele>
        <time>2024-09-20T10:03:22Z</time>
      </trkpt>
      <trkpt lat="45.76168" lon="4.84471">
        <ele>170</ele>
        <time>2024-09-20T10:03:23Z</time>
      </trkpt>
      <trkpt lat="45.76169" lon="4.84477">
        <ele>170</ele>
        <time>2024-09-20T10:03:24Z</time>
      </trkpt>
      <trkpt lat="45.76169" lon="4.84483">
        <ele>170</ele>
        <time>2024-09-20T10:03:25Z</time>
      </trkpt>
      <trkpt lat="45.76169" lon="4.84489">
        <ele>170</ele>
        <time>2024-09-20T10:03:26Z</time>
      </trkpt>
      <trkpt lat="45.76169" lon="4.84494">
        <ele>170</ele>
        <time>2024-09-20T10:03:27Z</time>
      </trkpt>
      <trkpt lat="45.76169" lon="4.845">
        <ele>170.2</ele>
        <time>2024-09-20T10:03:28Z</time>
      </trkpt>
      <trkpt lat="45.76169" lon="4.84507">
        <ele>170</ele>
        <time>2024-09-20T10:03:29Z</time>
      </trkpt>
      <trkpt lat="45.76169" lon="4.84513">
        <ele>170</ele>
        <time>2024-09-20T10:03:30Z</time>
      </trkpt>
      <trkpt lat="45.76169" lon="4.84519">
        <ele>170</ele>
        <time>2024-09-20T10:03:31Z</time>
      </trkpt>
      <trkpt lat="45.7617" lon="4.84526">
        <ele>170</ele>
        <time>2024-09-20T10:03:32Z</time>
      </trkpt>
      <trkpt lat="45.7617" lon="4.84533">
        <ele>170</ele>
        <time>2024-09-20T10:03:33Z</time>
      </trkpt>
      <trkpt lat="45.7617" lon="4.84539">
        <ele>170</ele>
        <time>2024-09-20T10:03:34Z</time>
      </trkpt>
      <trkpt lat="45.76169" lon="4.84546">
        <ele>170</ele>
        <time>2024-09-20T10:03:35Z</time>
      </trkpt>
      <trkpt lat="45.76169" lon="4.84553">
        <ele>170</ele>
        <time>2024-09-20T10:03:36Z</time>
      </trkpt>
      <trkpt lat="45.76169" lon="4.8456">
        <ele>169.8</ele>
        <time>2024-09-20T10:03:37Z</time>
      </trkpt>
      <trkpt lat="45.76169" lon="4.84567">
        <ele>170</ele>
        <time>2024-09-20T10:03:38Z</time>
      </trkpt>
      <trkpt lat="45.7617" lon="4.84574">
        <ele>170</ele>
        <time>2024-09-20T10:03:39Z</time>
      </trkpt>
      <trkpt lat="45.7617" lon="4.84581">
        <ele>170</ele>
        <time>2024-09-20T10:03:40Z</time>
      </trkpt>
      <trkpt lat="45.7617" lon="4.84588">
        <ele>170.2</ele>
        <time>2024-09-20T10:03:41Z</time>
      </trkpt>
      <trkpt lat="45.76171" lon="4.84595">
        <ele>170.2</ele>
        <time>2024-09-20T10:03:42Z</time>
      </trkpt>
      <trkpt lat="45.76171" lon="4.84602">
        <ele>170.4</ele>
        <time>2024-09-20T10:03:43Z</time>
      </trkpt>
      <trkpt lat="45.76172" lon="4.84609">
        <ele>170.4</ele>
        <time>2024-09-20T10:03:44Z</time>
      </trkpt>
      <trkpt lat="45.76172" lon="4.84616">
        <ele>170.6</ele>
        <time>2024-09-20T10:03:45Z</time>
      </trkpt>
      <trkpt lat="45.76172" lon="4.84623">
        <ele>170.6</ele>
        <time>2024-09-20T10:03:46Z</time>
      </trkpt>
      <trkpt lat="45.76171" lon="4.8463">
        <ele>170.8</ele>
        <time>2024-09-20T10:03:47Z</time>
      </trkpt>
      <trkpt lat="45.76171" lon="4.84637">
        <ele>170.8</ele>
        <time>2024-09-20T10:03:48Z</time>
      </trkpt>
      <trkpt lat="45.76172" lon="4.84643">
        <ele>170.8</ele>
        <time>2024-09-20T10:03:49Z</time>
      </trkpt>
      <trkpt lat="45.76173" lon="4.8465">
        <ele>170.8</ele>
        <time>2024-09-20T10:03:50Z</time>
      </trkpt>
      <trkpt lat="45.76173" lon="4.84657">
        <ele>170.8</ele>
        <time>2024-09-20T10:03:51Z</time>
      </trkpt>
      <trkpt lat="45.76174" lon="4.84664">
        <ele>170.2</ele>
        <time>2024-09-20T10:03:52Z</time>
      </trkpt>
      <trkpt lat="45.76174" lon="4.84672">
        <ele>170.2</ele>
        <time>2024-09-20T10:03:53Z</time>
      </trkpt>
      <trkpt lat="45.76175" lon="4.84679">
        <ele>170.4</ele>
        <time>2024-09-20T10:03:54Z</time>
      </trkpt>
      <trkpt lat="45.76176" lon="4.84687">
        <ele>170</ele>
        <time>2024-09-20T10:03:55Z</time>
      </trkpt>
      <trkpt lat="45.76177" lon="4.84694">
        <ele>170</ele>
        <time>2024-09-20T10:03:56Z</time>
      </trkpt>
      <trkpt lat="45.76178" lon="4.84702">
        <ele>170</ele>
        <time>2024-09-20T10:03:57Z</time>
      </trkpt>
      <trkpt lat="45.76178" lon="4.84709">
        <ele>170</ele>
        <time>2024-09-20T10:03:58Z</time>
      </trkpt>
      <trkpt lat="45.76178" lon="4.84717">
        <ele>170.2</ele>
        <time>2024-09-20T10:03:59Z</time>
      </trkpt>
      <trkpt lat="45.76179" lon="4.84725">
        <ele>170.2</ele>
        <time>2024-09-20T10:04:00Z</time>
      </trkpt>
      <trkpt lat="45.7618" lon="4.84733">
        <ele>170.2</ele>
        <time>2024-09-20T10:04:01Z</time>
      </trkpt>
      <trkpt lat="45.76181" lon="4.8474">
        <ele>170.2</ele>
        <time>2024-09-20T10:04:02Z</time>
      </trkpt>
      <trkpt lat="45.76181" lon="4.84748">
        <ele>170.2</ele>
        <time>2024-09-20T10:04:03Z</time>
      </trkpt>
      <trkpt lat="45.76181" lon="4.84756">
        <ele>170.2</ele>
        <time>2024-09-20T10:04:04Z</time>
      </trkpt>
      <trkpt lat="45.76181" lon="4.84764">
        <ele>170.6</ele>
        <time>2024-09-20T10:04:05Z</time>
      </trkpt>
      <trkpt lat="45.76182" lon="4.84772">
        <ele>170.6</ele>
        <time>2024-09-20T10:04:06Z</time>
      </trkpt>
      <trkpt lat="45.76183" lon="4.84779">
        <ele>170.6</ele>
        <time>2024-09-20T10:04:07Z</time>
      </trkpt>
      <trkpt lat="45.76183" lon="4.84787">
        <ele>170.2</ele>
        <time>2024-09-20T10:04:08Z</time>
      </trkpt>
      <trkpt lat="45.76184" lon="4.84795">
        <ele>170.2</ele>
        <time>2024-09-20T10:04:09Z</time>
      </trkpt>
      <trkpt lat="45.76184" lon="4.84802">
        <ele>170.2</ele>
        <time>2024-09-20T10:04:10Z</time>
      </trkpt>
      <trkpt lat="45.76184" lon="4.84809">
        <ele>170.2</ele>
        <time>2024-09-20T10:04:11Z</time>
      </trkpt>
      <trkpt lat="45.76185" lon="4.84817">
        <ele>170.2</ele>
        <time>2024-09-20T10:04:12Z</time>
      </trkpt>
      <trkpt lat="45.76185" lon="4.84824">
        <ele>170.4</ele>
        <time>2024-09-20T10:04:13Z</time>
      </trkpt>
      <trkpt lat="45.76186" lon="4.84831">
        <ele>170.4</ele>
        <time>2024-09-20T10:04:14Z</time>
      </trkpt>
      <trkpt lat="45.76187" lon="4.84839">
        <ele>170.4</ele>
        <time>2024-09-20T10:04:15Z</time>
      </trkpt>
      <trkpt lat="45.76187" lon="4.84846">
        <ele>170.4</ele>
        <time>2024-09-20T10:04:16Z</time>
      </trkpt>
      <trkpt lat="45.76188" lon="4.84854">
        <ele>170.4</ele>
        <time>2024-09-20T10:04:17Z</time>
      </trkpt>
      <trkpt lat="45.76189" lon="4.84861">
        <ele>170.6</ele>
        <time>2024-09-20T10:04:18Z</time>
      </trkpt>
      <trkpt lat="45.76189" lon="4.84868">
        <ele>170.6</ele>
        <time>2024-09-20T10:04:19Z</time>
      </trkpt>
      <trkpt lat="45.76189" lon="4.84875">
        <ele>170.6</ele>
        <time>2024-09-20T10:04:20Z</time>
      </trkpt>
      <trkpt lat="45.7619" lon="4.84882">
        <ele>170.6</ele>
        <time>2024-09-20T10:04:21Z</time>
      </trkpt>
      <trkpt lat="45.76191" lon="4.8489">
        <ele>170.6</ele>
        <time>2024-09-20T10:04:22Z</time>
      </trkpt>
      <trkpt lat="45.76191" lon="4.84897">
        <ele>170.6</ele>
        <time>2024-09-20T10:04:23Z</time>
      </trkpt>
      <trkpt lat="45.76191" lon="4.84904">
        <ele>170.6</ele>
        <time>2024-09-20T10:04:24Z</time>
      </trkpt>
      <trkpt lat="45.76191" lon="4.84912">
        <ele>170.6</ele>
        <time>2024-09-20T10:04:25Z</time>
      </trkpt>
      <trkpt lat="45.76191" lon="4.84919">
        <ele>170.6</ele>
        <time>2024-09-20T10:04:26Z</time>
      </trkpt>
      <trkpt lat="45.76192" lon="4.84926">
        <ele>170.6</ele>
        <time>2024-09-20T10:04:27Z</time>
      </trkpt>
      <trkpt lat="45.76192" lon="4.84933">
        <ele>170.8</ele>
        <time>2024-09-20T10:04:28Z</time>
      </trkpt>
      <trkpt lat="45.76193" lon="4.8494">
        <ele>170.8</ele>
        <time>2024-09-20T10:04:29Z</time>
      </trkpt>
      <trkpt lat="45.76192" lon="4.84947">
        <ele>171</ele>
        <time>2024-09-20T10:04:30Z</time>
      </trkpt>
      <trkpt lat="45.76192" lon="4.84954">
        <ele>171</ele>
        <time>2024-09-20T10:04:31Z</time>
      </trkpt>
      <trkpt lat="45.76193" lon="4.8496">
        <ele>171</ele>
        <time>2024-09-20T10:04:32Z</time>
      </trkpt>
      <trkpt lat="45.76194" lon="4.84967">
        <ele>171</ele>
        <time>2024-09-20T10:04:33Z</time>
      </trkpt>
      <trkpt lat="45.76194" lon="4.84974">
        <ele>171</ele>
        <time>2024-09-20T10:04:34Z</time>
      </trkpt>
      <trkpt lat="45.76195" lon="4.84981">
        <ele>171</ele>
        <time>2024-09-20T10:04:35Z</time>
      </trkpt>
      <trkpt lat="45.76195" lon="4.84988">
        <ele>171</ele>
        <time>2024-09-20T10:04:36Z</time>
      </trkpt>
      <trkpt lat="45.76196" lon="4.84994">
        <ele>171</ele>
        <time>2024-09-20T10:04:37Z</time>
      </trkpt>
      <trkpt lat="45.76196" lon="4.85002">
        <ele>171</ele>
        <time>2024-09-20T10:04:38Z</time>
      </trkpt>
      <trkpt lat="45.76197" lon="4.85009">
        <ele>170.8</ele>
        <time>2024-09-20T10:04:39Z</time>
      </trkpt>
      <trkpt lat="45.76198" lon="4.85015">
        <ele>171</ele>
        <time>2024-09-20T10:04:40Z</time>
      </trkpt>
      <trkpt lat="45.76199" lon="4.85022">
        <ele>171</ele>
        <time>2024-09-20T10:04:41Z</time>
      </trkpt>
      <trkpt lat="45.76199" lon="4.85027">
        <ele>171</ele>
        <time>2024-09-20T10:04:42Z</time>
      </trkpt>
      <trkpt lat="45.76199" lon="4.8503">
        <ele>171</ele>
        <time>2024-09-20T10:04:43Z</time>
      </trkpt>
      <trkpt lat="45.762" lon="4.85033">
        <ele>171</ele>
        <time>2024-09-20T10:04:44Z</time>
      </trkpt>
      <trkpt lat="45.762" lon="4.85035">
        <ele>171</ele>
        <time>2024-09-20T10:04:45Z</time>
      </trkpt>
      <trkpt lat="45.762" lon="4.85037">
        <ele>171</ele>
        <time>2024-09-20T10:04:46Z</time>
      </trkpt>
      <trkpt lat="45.762" lon="4.85037">
        <ele>171</ele>
        <time>2024-09-20T10:04:47Z</time>
      </trkpt>
      <trkpt lat="45.762" lon="4.85037">
        <ele>171</ele>
        <time>2024-09-20T10:04:48Z</time>
      </trkpt>
      <trkpt lat="45.76201" lon="4.85042">
        <ele>170.4</ele>
        <time>2024-09-20T10:05:07Z</time>
      </trkpt>
      <trkpt lat="45.76202" lon="4.85044">
        <ele>170.4</ele>
        <time>2024-09-20T10:05:08Z</time>
      </trkpt>
      <trkpt lat="45.76203" lon="4.85046">
        <ele>170.4</ele>
        <time>2024-09-20T10:05:09Z</time>
      </trkpt>
      <trkpt lat="45.76204" lon="4.85049">
        <ele>170.4</ele>
        <time>2024-09-20T10:05:10Z</time>
      </trkpt>
      <trkpt lat="45.76206" lon="4.85051">
        <ele>169.8</ele>
        <time>2024-09-20T10:05:11Z</time>
      </trkpt>
      <trkpt lat="45.76207" lon="4.85053">
        <ele>169.8</ele>
        <time>2024-09-20T10:05:12Z</time>
      </trkpt>
      <trkpt lat="45.76209" lon="4.85056">
        <ele>169.8</ele>
        <time>2024-09-20T10:05:13Z</time>
      </trkpt>
      <trkpt lat="45.76211" lon="4.85058">
        <ele>169.8</ele>
        <time>2024-09-20T10:05:14Z</time>
      </trkpt>
      <trkpt lat="45.76213" lon="4.8506">
        <ele>170</ele>
        <time>2024-09-20T10:05:15Z</time>
      </trkpt>
      <trkpt lat="45.76215" lon="4.85062">
        <ele>170</ele>
        <time>2024-09-20T10:05:16Z</time>
      </trkpt>
      <trkpt lat="45.76216" lon="4.85065">
        <ele>170</ele>
        <time>2024-09-20T10:05:17Z</time>
      </trkpt>
      <trkpt lat="45.76217" lon="4.85068">
        <ele>170</ele>
        <time>2024-09-20T10:05:18Z</time>
      </trkpt>
      <trkpt lat="45.76217" lon="4.85071">
        <ele>170</ele>
        <time>2024-09-20T10:05:19Z</time>
      </trkpt>
      <trkpt lat="45.76217" lon="4.85074">
        <ele>170</ele>
        <time>2024-09-20T10:05:20Z</time>
      </trkpt>
      <trkpt lat="45.76218" lon="4.85077">
        <ele>170.2</ele>
        <time>2024-09-20T10:05:21Z</time>
      </trkpt>
      <trkpt lat="45.76219" lon="4.8508">
        <ele>170.2</ele>
        <time>2024-09-20T10:05:22Z</time>
      </trkpt>
      <trkpt lat="45.76218" lon="4.85082">
        <ele>170.2</ele>
        <time>2024-09-20T10:05:23Z</time>
      </trkpt>
      <trkpt lat="45.76216" lon="4.85084">
        <ele>170.2</ele>
        <time>2024-09-20T10:05:24Z</time>
      </trkpt>
      <trkpt lat="45.76214" lon="4.85086">
        <ele>170.2</ele>
        <time>2024-09-20T10:05:25Z</time>
      </trkpt>
      <trkpt lat="45.76213" lon="4.85088">
        <ele>170.2</ele>
        <time>2024-09-20T10:05:26Z</time>
      </trkpt>
      <trkpt lat="45.76213" lon="4.85092">
        <ele>170.2</ele>
        <time>2024-09-20T10:05:27Z</time>
      </trkpt>
      <trkpt lat="45.76214" lon="4.85095">
        <ele>170.2</ele>
        <time>2024-09-20T10:05:28Z</time>
      </trkpt>
      <trkpt lat="45.76215" lon="4.85098">
        <ele>170.2</ele>
        <time>2024-09-20T10:05:29Z</time>
      </trkpt>
      <trkpt lat="45.76217" lon="4.85101">
        <ele>170.2</ele>
        <time>2024-09-20T10:05:30Z</time>
      </trkpt>
      <trkpt lat="45.76219" lon="4.85104">
        <ele>170.2</ele>
        <time>2024-09-20T10:05:31Z</time>
      </trkpt>
      <trkpt lat="45.76221" lon="4.85106">
        <ele>170.2</ele>
        <time>2024-09-20T10:05:32Z</time>
      </trkpt>
      <trkpt lat="45.76224" lon="4.85107">
        <ele>170.2</ele>
        <time>2024-09-20T10:05:33Z</time>
      </trkpt>
      <trkpt lat="45.76227" lon="4.85109">
        <ele>170</ele>
        <time>2024-09-20T10:05:34Z</time>
      </trkpt>
      <trkpt lat="45.76229" lon="4.85111">
        <ele>170</ele>
        <time>2024-09-20T10:05:35Z</time>
      </trkpt>
      <trkpt lat="45.76231" lon="4.85113">
        <ele>170</ele>
        <time>2024-09-20T10:05:36Z</time>
      </trkpt>
      <trkpt lat="45.76233" lon="4.85115">
        <ele>170.2</ele>
        <time>2024-09-20T10:05:37Z</time>
      </trkpt>
      <trkpt lat="45.76235" lon="4.85117">
        <ele>170.2</ele>
        <time>2024-09-20T10:05:38Z</time>
      </trkpt>
      <trkpt lat="45.76237" lon="4.85118">
        <ele>170.2</ele>
        <time>2024-09-20T10:05:39Z</time>
      </trkpt>
      <trkpt lat="45.76238" lon="4.85119">
        <ele>170.2</ele>
        <time>2024-09-20T10:05:40Z</time>
      </trkpt>
      <trkpt lat="45.76237" lon="4.85122">
        <ele>170.2</ele>
        <time>2024-09-20T10:05:41Z</time>
      </trkpt>
      <trkpt lat="45.76236" lon="4.85124">
        <ele>170.4</ele>
        <time>2024-09-20T10:05:42Z</time>
      </trkpt>
      <trkpt lat="45.76235" lon="4.85127">
        <ele>170.4</ele>
        <time>2024-09-20T10:05:43Z</time>
      </trkpt>
      <trkpt lat="45.76234" lon="4.85131">
        <ele>170.4</ele>
        <time>2024-09-20T10:05:44Z</time>
      </trkpt>
      <trkpt lat="45.76232" lon="4.85135">
        <ele>170.4</ele>
        <time>2024-09-20T10:05:45Z</time>
      </trkpt>
      <trkpt lat="45.7623" lon="4.85139">
        <ele>170.4</ele>
        <time>2024-09-20T10:05:46Z</time>
      </trkpt>
      <trkpt lat="45.76228" lon="4.85143">
        <ele>170.4</ele>
        <time>2024-09-20T10:05:47Z</time>
      </trkpt>
      <trkpt lat="45.76226" lon="4.85148">
        <ele>170.4</ele>
        <time>2024-09-20T10:05:48Z</time>
      </trkpt>
      <trkpt lat="45.76224" lon="4.85152">
        <ele>170.4</ele>
        <time>2024-09-20T10:05:49Z</time>
      </trkpt>
      <trkpt lat="45.76222" lon="4.85156">
        <ele>170.4</ele>
        <time>2024-09-20T10:05:50Z</time>
      </trkpt>
      <trkpt lat="45.76221" lon="4.8516">
        <ele>170.4</ele>
        <time>2024-09-20T10:05:51Z</time>
      </trkpt>
      <trkpt lat="45.76221" lon="4.85164">
        <ele>170.4</ele>
        <time>2024-09-20T10:05:52Z</time>
      </trkpt>
      <trkpt lat="45.76221" lon="4.85168">
        <ele>170.4</ele>
        <time>2024-09-20T10:05:53Z</time>
      </trkpt>
      <trkpt lat="45.76221" lon="4.85171">
        <ele>170.4</ele>
        <time>2024-09-20T10:05:54Z</time>
      </trkpt>
      <trkpt lat="45.76222" lon="4.85173">
        <ele>170.4</ele>
        <time>2024-09-20T10:05:55Z</time>
      </trkpt>
      <trkpt lat="45.76222" lon="4.85176">
        <ele>170.4</ele>
        <time>2024-09-20T10:05:56Z</time>
      </trkpt>
      <trkpt lat="45.76222" lon="4.85179">
        <ele>170.4</ele>
        <time>2024-09-20T10:05:57Z</time>
      </trkpt>
      <trkpt lat="45.76222" lon="4.85182">
        <ele>170.4</ele>
        <time>2024-09-20T10:05:58Z</time>
      </trkpt>
      <trkpt lat="45.76222" lon="4.85185">
        <ele>170.4</ele>
        <time>2024-09-20T10:05:59Z</time>
      </trkpt>
      <trkpt lat="45.76222" lon="4.85187">
        <ele>170.4</ele>
        <time>2024-09-20T10:06:00Z</time>
      </trkpt>
      <trkpt lat="45.76222" lon="4.8519">
        <ele>170.6</ele>
        <time>2024-09-20T10:06:01Z</time>
      </trkpt>
      <trkpt lat="45.76222" lon="4.85192">
        <ele>170.6</ele>
        <time>2024-09-20T10:06:02Z</time>
      </trkpt>
      <trkpt lat="45.76222" lon="4.85195">
        <ele>170.6</ele>
        <time>2024-09-20T10:06:03Z</time>
      </trkpt>
      <trkpt lat="45.76223" lon="4.85198">
        <ele>170.6</ele>
        <time>2024-09-20T10:06:04Z</time>
      </trkpt>
      <trkpt lat="45.76222" lon="4.85201">
        <ele>170.6</ele>
        <time>2024-09-20T10:06:05Z</time>
      </trkpt>
      <trkpt lat="45.76222" lon="4.85204">
        <ele>170.6</ele>
        <time>2024-09-20T10:06:06Z</time>
      </trkpt>
      <trkpt lat="45.76222" lon="4.85206">
        <ele>170.4</ele>
        <time>2024-09-20T10:06:07Z</time>
      </trkpt>
      <trkpt lat="45.76221" lon="4.85208">
        <ele>170.4</ele>
        <time>2024-09-20T10:06:08Z</time>
      </trkpt>
      <trkpt lat="45.7622" lon="4.85209">
        <ele>170</ele>
        <time>2024-09-20T10:06:09Z</time>
      </trkpt>
      <trkpt lat="45.76219" lon="4.8521">
        <ele>170</ele>
        <time>2024-09-20T10:06:10Z</time>
      </trkpt>
      <trkpt lat="45.76218" lon="4.8521">
        <ele>170</ele>
        <time>2024-09-20T10:06:11Z</time>
      </trkpt>
      <trkpt lat="45.76217" lon="4.85211">
        <ele>170</ele>
        <time>2024-09-20T10:06:12Z</time>
      </trkpt>
      <trkpt lat="45.76217" lon="4.85211">
        <ele>170</ele>
        <time>2024-09-20T10:06:13Z</time>
      </trkpt>
      <trkpt lat="45.76216" lon="4.85211">
        <ele>170</ele>
        <time>2024-09-20T10:06:14Z</time>
      </trkpt>
      <trkpt lat="45.76215" lon="4.85211">
        <ele>172</ele>
        <time>2024-09-20T10:06:15Z</time>
      </trkpt>
      <trkpt lat="45.76213" lon="4.85212">
        <ele>172</ele>
        <time>2024-09-20T10:06:16Z</time>
      </trkpt>
      <trkpt lat="45.76212" lon="4.85213">
        <ele>172</ele>
        <time>2024-09-20T10:06:17Z</time>
      </trkpt>
      <trkpt lat="45.7621" lon="4.85215">
        <ele>171</ele>
        <time>2024-09-20T10:06:18Z</time>
      </trkpt>
      <trkpt lat="45.76209" lon="4.85216">
        <ele>170.8</ele>
        <time>2024-09-20T10:06:19Z</time>
      </trkpt>
      <trkpt lat="45.76208" lon="4.85218">
        <ele>170.8</ele>
        <time>2024-09-20T10:06:20Z</time>
      </trkpt>
      <trkpt lat="45.76207" lon="4.8522">
        <ele>170.8</ele>
        <time>2024-09-20T10:06:21Z</time>
      </trkpt>
      <trkpt lat="45.76206" lon="4.85223">
        <ele>170</ele>
        <time>2024-09-20T10:06:22Z</time>
      </trkpt>
      <trkpt lat="45.76207" lon="4.85227">
        <ele>170</ele>
        <time>2024-09-20T10:06:23Z</time>
      </trkpt>
      <trkpt lat="45.76207" lon="4.8523">
        <ele>170</ele>
        <time>2024-09-20T10:06:24Z</time>
      </trkpt>
      <trkpt lat="45.76207" lon="4.85234">
        <ele>170</ele>
        <time>2024-09-20T10:06:25Z</time>
      </trkpt>
      <trkpt lat="45.76208" lon="4.85238">
        <ele>169.4</ele>
        <time>2024-09-20T10:06:26Z</time>
      </trkpt>
      <trkpt lat="45.76208" lon="4.85242">
        <ele>169.4</ele>
        <time>2024-09-20T10:06:27Z</time>
      </trkpt>
      <trkpt lat="45.76209" lon="4.85247">
        <ele>169.4</ele>
        <time>2024-09-20T10:06:28Z</time>
      </trkpt>
      <trkpt lat="45.7621" lon="4.85251">
        <ele>169.4</ele>
        <time>2024-09-20T10:06:29Z</time>
      </trkpt>
      <trkpt lat="45.76211" lon="4.85256">
        <ele>169.4</ele>
        <time>2024-09-20T10:06:30Z</time>
      </trkpt>
      <trkpt lat="45.76211" lon="4.85261">
        <ele>169.4</ele>
        <time>2024-09-20T10:06:31Z</time>
      </trkpt>
      <trkpt lat="45.76211" lon="4.85267">
        <ele>168.8</ele>
        <time>2024-09-20T10:06:32Z</time>
      </trkpt>
      <trkpt lat="45.76211" lon="4.85273">
        <ele>168.2</ele>
        <time>2024-09-20T10:06:33Z</time>
      </trkpt>
      <trkpt lat="45.76211" lon="4.85278">
        <ele>168.2</ele>
        <time>2024-09-20T10:06:34Z</time>
      </trkpt>
      <trkpt lat="45.76212" lon="4.85283">
        <ele>168.2</ele>
        <time>2024-09-20T10:06:35Z</time>
      </trkpt>
      <trkpt lat="45.76213" lon="4.85289">
        <ele>168.8</ele>
        <time>2024-09-20T10:06:36Z</time>
      </trkpt>
      <trkpt lat="45.76214" lon="4.85294">
        <ele>168.8</ele>
        <time>2024-09-20T10:06:37Z</time>
      </trkpt>
      <trkpt lat="45.76214" lon="4.853">
        <ele>168.8</ele>
        <time>2024-09-20T10:06:38Z</time>
      </trkpt>
      <trkpt lat="45.76215" lon="4.85305">
        <ele>168.8</ele>
        <time>2024-09-20T10:06:39Z</time>
      </trkpt>
      <trkpt lat="45.76215" lon="4.8531">
        <ele>168.8</ele>
        <time>2024-09-20T10:06:40Z</time>
      </trkpt>
      <trkpt lat="45.76217" lon="4.85316">
        <ele>169</ele>
        <time>2024-09-20T10:06:41Z</time>
      </trkpt>
      <trkpt lat="45.76217" lon="4.85321">
        <ele>168.6</ele>
        <time>2024-09-20T10:06:42Z</time>
      </trkpt>
      <trkpt lat="45.76218" lon="4.85327">
        <ele>168.6</ele>
        <time>2024-09-20T10:06:43Z</time>
      </trkpt>
      <trkpt lat="45.76219" lon="4.85333">
        <ele>168.6</ele>
        <time>2024-09-20T10:06:44Z</time>
      </trkpt>
      <trkpt lat="45.76219" lon="4.85339">
        <ele>168.6</ele>
        <time>2024-09-20T10:06:45Z</time>
      </trkpt>
      <trkpt lat="45.7622" lon="4.85345">
        <ele>168.4</ele>
        <time>2024-09-20T10:06:46Z</time>
      </trkpt>
      <trkpt lat="45.76221" lon="4.85351">
        <ele>168.4</ele>
        <time>2024-09-20T10:06:47Z</time>
      </trkpt>
      <trkpt lat="45.76222" lon="4.85358">
        <ele>168.4</ele>
        <time>2024-09-20T10:06:48Z</time>
      </trkpt>
      <trkpt lat="45.76223" lon="4.85363">
        <ele>168.4</ele>
        <time>2024-09-20T10:06:49Z</time>
      </trkpt>
      <trkpt lat="45.76224" lon="4.85369">
        <ele>168.4</ele>
        <time>2024-09-20T10:06:50Z</time>
      </trkpt>
      <trkpt lat="45.76225" lon="4.85375">
        <ele>168.4</ele>
        <time>2024-09-20T10:06:51Z</time>
      </trkpt>
      <trkpt lat="45.76226" lon="4.8538">
        <ele>168.4</ele>
        <time>2024-09-20T10:06:52Z</time>
      </trkpt>
      <trkpt lat="45.76226" lon="4.85384">
        <ele>168.4</ele>
        <time>2024-09-20T10:06:53Z</time>
      </trkpt>
      <trkpt lat="45.76225" lon="4.85389">
        <ele>168.4</ele>
        <time>2024-09-20T10:06:54Z</time>
      </trkpt>
      <trkpt lat="45.76226" lon="4.85394">
        <ele>168.4</ele>
        <time>2024-09-20T10:06:55Z</time>
      </trkpt>
      <trkpt lat="45.76227" lon="4.85399">
        <ele>168.6</ele>
        <time>2024-09-20T10:06:56Z</time>
      </trkpt>
      <trkpt lat="45.76227" lon="4.85404">
        <ele>168.6</ele>
        <time>2024-09-20T10:06:57Z</time>
      </trkpt>
      <trkpt lat="45.76228" lon="4.85409">
        <ele>168.6</ele>
        <time>2024-09-20T10:06:58Z</time>
      </trkpt>
      <trkpt lat="45.76229" lon="4.85414">
        <ele>168.6</ele>
        <time>2024-09-20T10:06:59Z</time>
      </trkpt>
      <trkpt lat="45.7623" lon="4.85419">
        <ele>168.4</ele>
        <time>2024-09-20T10:07:00Z</time>
      </trkpt>
      <trkpt lat="45.76231" lon="4.85422">
        <ele>168.4</ele>
        <time>2024-09-20T10:07:01Z</time>
      </trkpt>
      <trkpt lat="45.76231" lon="4.85426">
        <ele>168.4</ele>
        <time>2024-09-20T10:07:02Z</time>
      </trkpt>
      <trkpt lat="45.76232" lon="4.85429">
        <ele>168.4</ele>
        <time>2024-09-20T10:07:03Z</time>
      </trkpt>
      <trkpt lat="45.76233" lon="4.85431">
        <ele>168.2</ele>
        <time>2024-09-20T10:07:04Z</time>
      </trkpt>
      <trkpt lat="45.76233" lon="4.85433">
        <ele>168.2</ele>
        <time>2024-09-20T10:07:05Z</time>
      </trkpt>
      <trkpt lat="45.76233" lon="4.85433">
        <ele>168.2</ele>
        <time>2024-09-20T10:07:06Z</time>
      </trkpt>
      <trkpt lat="45.76233" lon="4.85433">
        <ele>168.2</ele>
        <time>2024-09-20T10:07:07Z</time>
      </trkpt>
      <trkpt lat="45.76237" lon="4.85425">
        <ele>168.6</ele>
        <time>2024-09-20T10:07:30Z</time>
      </trkpt>
      <trkpt lat="45.76238" lon="4.85422">
        <ele>168.6</ele>
        <time>2024-09-20T10:07:31Z</time>
      </trkpt>
      <trkpt lat="45.76238" lon="4.85418">
        <ele>168.6</ele>
        <time>2024-09-20T10:07:32Z</time>
      </trkpt>
      <trkpt lat="45.76238" lon="4.85414">
        <ele>168.6</ele>
        <time>2024-09-20T10:07:33Z</time>
      </trkpt>
      <trkpt lat="45.76239" lon="4.85409">
        <ele>168.6</ele>
        <time>2024-09-20T10:07:34Z</time>
      </trkpt>
      <trkpt lat="45.76239" lon="4.85405">
        <ele>168.8</ele>
        <time>2024-09-20T10:07:35Z</time>
      </trkpt>
      <trkpt lat="45.76239" lon="4.854">
        <ele>168.8</ele>
        <time>2024-09-20T10:07:36Z</time>
      </trkpt>
      <trkpt lat="45.76238" lon="4.85395">
        <ele>168.8</ele>
        <time>2024-09-20T10:07:37Z</time>
      </trkpt>
      <trkpt lat="45.76238" lon="4.8539">
        <ele>168.8</ele>
        <time>2024-09-20T10:07:38Z</time>
      </trkpt>
      <trkpt lat="45.76238" lon="4.85386">
        <ele>168.8</ele>
        <time>2024-09-20T10:07:39Z</time>
      </trkpt>
      <trkpt lat="45.76238" lon="4.85382">
        <ele>168.8</ele>
        <time>2024-09-20T10:07:40Z</time>
      </trkpt>
      <trkpt lat="45.76237" lon="4.85378">
        <ele>168.8</ele>
        <time>2024-09-20T10:07:41Z</time>
      </trkpt>
      <trkpt lat="45.76237" lon="4.85374">
        <ele>168.8</ele>
        <time>2024-09-20T10:07:42Z</time>
      </trkpt>
      <trkpt lat="45.76237" lon="4.85369">
        <ele>168.8</ele>
        <time>2024-09-20T10:07:43Z</time>
      </trkpt>
      <trkpt lat="45.76236" lon="4.85365">
        <ele>168.8</ele>
        <time>2024-09-20T10:07:44Z</time>
      </trkpt>
      <trkpt lat="45.76236" lon="4.8536">
        <ele>168.8</ele>
        <time>2024-09-20T10:07:45Z</time>
      </trkpt>
      <trkpt lat="45.76236" lon="4.85356">
        <ele>168.8</ele>
        <time>2024-09-20T10:07:46Z</time>
      </trkpt>
      <trkpt lat="45.76235" lon="4.85351">
        <ele>168.8</ele>
        <time>2024-09-20T10:07:47Z</time>
      </trkpt>
      <trkpt lat="45.76234" lon="4.85347">
        <ele>168.8</ele>
        <time>2024-09-20T10:07:48Z</time>
      </trkpt>
      <trkpt lat="45.76232" lon="4.85342">
        <ele>168.6</ele>
        <time>2024-09-20T10:07:49Z</time>
      </trkpt>
      <trkpt lat="45.76231" lon="4.85337">
        <ele>168.6</ele>
        <time>2024-09-20T10:07:50Z</time>
      </trkpt>
      <trkpt lat="45.7623" lon="4.85333">
        <ele>168.6</ele>
        <time>2024-09-20T10:07:51Z</time>
      </trkpt>
      <trkpt lat="45.76228" lon="4.85328">
        <ele>168.6</ele>
        <time>2024-09-20T10:07:52Z</time>
      </trkpt>
      <trkpt lat="45.76227" lon="4.85324">
        <ele>169</ele>
        <time>2024-09-20T10:07:53Z</time>
      </trkpt>
      <trkpt lat="45.76226" lon="4.85318">
        <ele>169</ele>
        <time>2024-09-20T10:07:54Z</time>
      </trkpt>
      <trkpt lat="45.76226" lon="4.85313">
        <ele>169</ele>
        <time>2024-09-20T10:07:55Z</time>
      </trkpt>
      <trkpt lat="45.76227" lon="4.85308">
        <ele>169</ele>
        <time>2024-09-20T10:07:56Z</time>
      </trkpt>
      <trkpt lat="45.76227" lon="4.85302">
        <ele>169</ele>
        <time>2024-09-20T10:07:57Z</time>
      </trkpt>
      <trkpt lat="45.76226" lon="4.85297">
        <ele>169</ele>
        <time>2024-09-20T10:07:58Z</time>
      </trkpt>
      <trkpt lat="45.76224" lon="4.85292">
        <ele>169</ele>
        <time>2024-09-20T10:07:59Z</time>
      </trkpt>
      <trkpt lat="45.76223" lon="4.85288">
        <ele>169</ele>
        <time>2024-09-20T10:08:00Z</time>
      </trkpt>
      <trkpt lat="45.76222" lon="4.85283">
        <ele>169.2</ele>
        <time>2024-09-20T10:08:01Z</time>
      </trkpt>
      <trkpt lat="45.76221" lon="4.85278">
        <ele>169.2</ele>
        <time>2024-09-20T10:08:02Z</time>
      </trkpt>
      <trkpt lat="45.76221" lon="4.85272">
        <ele>169.2</ele>
        <time>2024-09-20T10:08:03Z</time>
      </trkpt>
      <trkpt lat="45.7622" lon="4.85268">
        <ele>169.6</ele>
        <time>2024-09-20T10:08:04Z</time>
      </trkpt>
      <trkpt lat="45.7622" lon="4.85263">
        <ele>169.4</ele>
        <time>2024-09-20T10:08:05Z</time>
      </trkpt>
      <trkpt lat="45.76219" lon="4.85259">
        <ele>169.4</ele>
        <time>2024-09-20T10:08:06Z</time>
      </trkpt>
      <trkpt lat="45.76219" lon="4.85254">
        <ele>169.4</ele>
        <time>2024-09-20T10:08:07Z</time>
      </trkpt>
      <trkpt lat="45.76218" lon="4.8525">
        <ele>169.4</ele>
        <time>2024-09-20T10:08:08Z</time>
      </trkpt>
      <trkpt lat="45.76217" lon="4.85245">
        <ele>169.4</ele>
        <time>2024-09-20T10:08:09Z</time>
      </trkpt>
      <trkpt lat="45.76217" lon="4.85241">
        <ele>169</ele>
        <time>2024-09-20T10:08:10Z</time>
      </trkpt>
      <trkpt lat="45.76216" lon="4.85236">
        <ele>169</ele>
        <time>2024-09-20T10:08:11Z</time>
      </trkpt>
      <trkpt lat="45.76216" lon="4.85231">
        <ele>169</ele>
        <time>2024-09-20T10:08:12Z</time>
      </trkpt>
      <trkpt lat="45.76215" lon="4.85226">
        <ele>169.4</ele>
        <time>2024-09-20T10:08:13Z</time>
      </trkpt>
      <trkpt lat="45.76215" lon="4.85222">
        <ele>169.4</ele>
        <time>2024-09-20T10:08:14Z</time>
      </trkpt>
      <trkpt lat="45.76215" lon="4.85218">
        <ele>169.8</ele>
        <time>2024-09-20T10:08:15Z</time>
      </trkpt>
      <trkpt lat="45.76215" lon="4.85215">
        <ele>169.8</ele>
        <time>2024-09-20T10:08:16Z</time>
      </trkpt>
      <trkpt lat="45.76216" lon="4.85212">
        <ele>169.8</ele>
        <time>2024-09-20T10:08:17Z</time>
      </trkpt>
      <trkpt lat="45.76217" lon="4.8521">
        <ele>170.4</ele>
        <time>2024-09-20T10:08:18Z</time>
      </trkpt>
      <trkpt lat="45.76217" lon="4.8521">
        <ele>170.4</ele>
        <time>2024-09-20T10:08:19Z</time>
      </trkpt>
      <trkpt lat="45.76218" lon="4.8521">
        <ele>170.6</ele>
        <time>2024-09-20T10:08:20Z</time>
      </trkpt>
      <trkpt lat="45.76218" lon="4.8521">
        <ele>170.6</ele>
        <time>2024-09-20T10:08:21Z</time>
      </trkpt>
      <trkpt lat="45.76219" lon="4.8521">
        <ele>170.6</ele>
        <time>2024-09-20T10:08:22Z</time>
      </trkpt>
      <trkpt lat="45.7622" lon="4.85209">
        <ele>170.6</ele>
        <time>2024-09-20T10:08:23Z</time>
      </trkpt>
      <trkpt lat="45.76221" lon="4.85209">
        <ele>171</ele>
        <time>2024-09-20T10:08:24Z</time>
      </trkpt>
      <trkpt lat="45.76222" lon="4.85208">
        <ele>171</ele>
        <time>2024-09-20T10:08:25Z</time>
      </trkpt>
      <trkpt lat="45.76223" lon="4.85207">
        <ele>171</ele>
        <time>2024-09-20T10:08:26Z</time>
      </trkpt>
      <trkpt lat="45.76225" lon="4.85206">
        <ele>171</ele>
        <time>2024-09-20T10:08:27Z</time>
      </trkpt>
      <trkpt lat="45.76227" lon="4.85206">
        <ele>171</ele>
        <time>2024-09-20T10:08:28Z</time>
      </trkpt>
      <trkpt lat="45.76229" lon="4.85205">
        <ele>171</ele>
        <time>2024-09-20T10:08:29Z</time>
      </trkpt>
      <trkpt lat="45.76232" lon="4.85204">
        <ele>171</ele>
        <time>2024-09-20T10:08:30Z</time>
      </trkpt>
      <trkpt lat="45.76235" lon="4.85203">
        <ele>171</ele>
        <time>2024-09-20T10:08:31Z</time>
      </trkpt>
      <trkpt lat="45.76238" lon="4.85203">
        <ele>170.6</ele>
        <time>2024-09-20T10:08:32Z</time>
      </trkpt>
      <trkpt lat="45.76242" lon="4.85202">
        <ele>170.6</ele>
        <time>2024-09-20T10:08:33Z</time>
      </trkpt>
      <trkpt lat="45.76245" lon="4.85201">
        <ele>170.6</ele>
        <time>2024-09-20T10:08:34Z</time>
      </trkpt>
      <trkpt lat="45.76249" lon="4.85201">
        <ele>170.6</ele>
        <time>2024-09-20T10:08:35Z</time>
      </trkpt>
      <trkpt lat="45.76253" lon="4.852">
        <ele>170.6</ele>
        <time>2024-09-20T10:08:36Z</time>
      </trkpt>
      <trkpt lat="45.76257" lon="4.852">
        <ele>170.4</ele>
        <time>2024-09-20T10:08:37Z</time>
      </trkpt>
      <trkpt lat="45.76261" lon="4.852">
        <ele>170.4</ele>
        <time>2024-09-20T10:08:38Z</time>
      </trkpt>
      <trkpt lat="45.76264" lon="4.85202">
        <ele>170.4</ele>
        <time>2024-09-20T10:08:39Z</time>
      </trkpt>
      <trkpt lat="45.76267" lon="4.85204">
        <ele>170.4</ele>
        <time>2024-09-20T10:08:40Z</time>
      </trkpt>
      <trkpt lat="45.76269" lon="4.85207">
        <ele>170.8</ele>
        <time>2024-09-20T10:08:41Z</time>
      </trkpt>
      <trkpt lat="45.7627" lon="4.85209">
        <ele>170.8</ele>
        <time>2024-09-20T10:08:42Z</time>
      </trkpt>
      <trkpt lat="45.76272" lon="4.85211">
        <ele>170.8</ele>
        <time>2024-09-20T10:08:43Z</time>
      </trkpt>
      <trkpt lat="45.76272" lon="4.85212">
        <ele>170.8</ele>
        <time>2024-09-20T10:08:44Z</time>
      </trkpt>
      <trkpt lat="45.76273" lon="4.85214">
        <ele>170.8</ele>
        <time>2024-09-20T10:08:45Z</time>
      </trkpt>
      <trkpt lat="45.76274" lon="4.85217">
        <ele>170.8</ele>
        <time>2024-09-20T10:08:46Z</time>
      </trkpt>
      <trkpt lat="45.76275" lon="4.85219">
        <ele>170.8</ele>
        <time>2024-09-20T10:08:47Z</time>
      </trkpt>
      <trkpt lat="45.76276" lon="4.85222">
        <ele>170.8</ele>
        <time>2024-09-20T10:08:48Z</time>
      </trkpt>
      <trkpt lat="45.76276" lon="4.85225">
        <ele>170.8</ele>
        <time>2024-09-20T10:08:49Z</time>
      </trkpt>
      <trkpt lat="45.76278" lon="4.85227">
        <ele>170.8</ele>
        <time>2024-09-20T10:08:50Z</time>
      </trkpt>
      <trkpt lat="45.76281" lon="4.85229">
        <ele>170.8</ele>
        <time>2024-09-20T10:08:51Z</time>
      </trkpt>
      <trkpt lat="45.76282" lon="4.85231">
        <ele>170.8</ele>
        <time>2024-09-20T10:08:52Z</time>
      </trkpt>
      <trkpt lat="45.76283" lon="4.85234">
        <ele>170.8</ele>
        <time>2024-09-20T10:08:53Z</time>
      </trkpt>
      <trkpt lat="45.76283" lon="4.85238">
        <ele>170.6</ele>
        <time>2024-09-20T10:08:54Z</time>
      </trkpt>
      <trkpt lat="45.76284" lon="4.85243">
        <ele>170.6</ele>
        <time>2024-09-20T10:08:55Z</time>
      </trkpt>
      <trkpt lat="45.76284" lon="4.85247">
        <ele>170.8</ele>
        <time>2024-09-20T10:08:56Z</time>
      </trkpt>
      <trkpt lat="45.76284" lon="4.85252">
        <ele>170.8</ele>
        <time>2024-09-20T10:08:57Z</time>
      </trkpt>
      <trkpt lat="45.76285" lon="4.85257">
        <ele>170.8</ele>
        <time>2024-09-20T10:08:58Z</time>
      </trkpt>
      <trkpt lat="45.76285" lon="4.85262">
        <ele>170.8</ele>
        <time>2024-09-20T10:08:59Z</time>
      </trkpt>
      <trkpt lat="45.76286" lon="4.85266">
        <ele>170.8</ele>
        <time>2024-09-20T10:09:00Z</time>
      </trkpt>
      <trkpt lat="45.76286" lon="4.8527">
        <ele>170.8</ele>
        <time>2024-09-20T10:09:01Z</time>
      </trkpt>
      <trkpt lat="45.76288" lon="4.85274">
        <ele>170.8</ele>
        <time>2024-09-20T10:09:02Z</time>
      </trkpt>
      <trkpt lat="45.76289" lon="4.85278">
        <ele>170.8</ele>
        <time>2024-09-20T10:09:03Z</time>
      </trkpt>
      <trkpt lat="45.7629" lon="4.85281">
        <ele>170.8</ele>
        <time>2024-09-20T10:09:04Z</time>
      </trkpt>
      <trkpt lat="45.76291" lon="4.85285">
        <ele>170.8</ele>
        <time>2024-09-20T10:09:05Z</time>
      </trkpt>
      <trkpt lat="45.76291" lon="4.85288">
        <ele>170.8</ele>
        <time>2024-09-20T10:09:06Z</time>
      </trkpt>
      <trkpt lat="45.76292" lon="4.85293">
        <ele>170.8</ele>
        <time>2024-09-20T10:09:07Z</time>
      </trkpt>
      <trkpt lat="45.76292" lon="4.85297">
        <ele>170.8</ele>
        <time>2024-09-20T10:09:08Z</time>
      </trkpt>
      <trkpt lat="45.76293" lon="4.85301">
        <ele>170.8</ele>
        <time>2024-09-20T10:09:09Z</time>
      </trkpt>
      <trkpt lat="45.76294" lon="4.85306">
        <ele>170.8</ele>
        <time>2024-09-20T10:09:10Z</time>
      </trkpt>
      <trkpt lat="45.76294" lon="4.85313">
        <ele>170.8</ele>
        <time>2024-09-20T10:09:11Z</time>
      </trkpt>
      <trkpt lat="45.76295" lon="4.8532">
        <ele>170.8</ele>
        <time>2024-09-20T10:09:12Z</time>
      </trkpt>
      <trkpt lat="45.76295" lon="4.85326">
        <ele>171</ele>
        <time>2024-09-20T10:09:13Z</time>
      </trkpt>
      <trkpt lat="45.76296" lon="4.85332">
        <ele>171</ele>
        <time>2024-09-20T10:09:14Z</time>
      </trkpt>
      <trkpt lat="45.76297" lon="4.85338">
        <ele>171</ele>
        <time>2024-09-20T10:09:15Z</time>
      </trkpt>
      <trkpt lat="45.76296" lon="4.85346">
        <ele>171</ele>
        <time>2024-09-20T10:09:16Z</time>
      </trkpt>
      <trkpt lat="45.76296" lon="4.85353">
        <ele>171</ele>
        <time>2024-09-20T10:09:17Z</time>
      </trkpt>
      <trkpt lat="45.76297" lon="4.8536">
        <ele>171</ele>
        <time>2024-09-20T10:09:18Z</time>
      </trkpt>
      <trkpt lat="45.76297" lon="4.85367">
        <ele>171</ele>
        <time>2024-09-20T10:09:19Z</time>
      </trkpt>
      <trkpt lat="45.76297" lon="4.85375">
        <ele>171</ele>
        <time>2024-09-20T10:09:20Z</time>
      </trkpt>
      <trkpt lat="45.76297" lon="4.85382">
        <ele>171</ele>
        <time>2024-09-20T10:09:21Z</time>
      </trkpt>
      <trkpt lat="45.76297" lon="4.85387">
        <ele>171</ele>
        <time>2024-09-20T10:09:22Z</time>
      </trkpt>
      <trkpt lat="45.76298" lon="4.85393">
        <ele>171</ele>
        <time>2024-09-20T10:09:23Z</time>
      </trkpt>
      <trkpt lat="45.76297" lon="4.854">
        <ele>171</ele>
        <time>2024-09-20T10:09:24Z</time>
      </trkpt>
      <trkpt lat="45.76297" lon="4.85406">
        <ele>171</ele>
        <time>2024-09-20T10:09:25Z</time>
      </trkpt>
      <trkpt lat="45.76298" lon="4.85412">
        <ele>171.2</ele>
        <time>2024-09-20T10:09:26Z</time>
      </trkpt>
      <trkpt lat="45.76299" lon="4.85418">
        <ele>171.2</ele>
        <time>2024-09-20T10:09:27Z</time>
      </trkpt>
      <trkpt lat="45.763" lon="4.85425">
        <ele>171.2</ele>
        <time>2024-09-20T10:09:28Z</time>
      </trkpt>
      <trkpt lat="45.76301" lon="4.85431">
        <ele>171.2</ele>
        <time>2024-09-20T10:09:29Z</time>
      </trkpt>
      <trkpt lat="45.76303" lon="4.85437">
        <ele>171.2</ele>
        <time>2024-09-20T10:09:30Z</time>
      </trkpt>
      <trkpt lat="45.76304" lon="4.85444">
        <ele>171.2</ele>
        <time>2024-09-20T10:09:31Z</time>
      </trkpt>
      <trkpt lat="45.76305" lon="4.85449">
        <ele>171.2</ele>
        <time>2024-09-20T10:09:32Z</time>
      </trkpt>
      <trkpt lat="45.76306" lon="4.85456">
        <ele>171.2</ele>
        <time>2024-09-20T10:09:33Z</time>
      </trkpt>
      <trkpt lat="45.76308" lon="4.85462">
        <ele>171.2</ele>
        <time>2024-09-20T10:09:34Z</time>
      </trkpt>
      <trkpt lat="45.76309" lon="4.85469">
        <ele>171.2</ele>
        <time>2024-09-20T10:09:35Z</time>
      </trkpt>
      <trkpt lat="45.76309" lon="4.85476">
        <ele>171.2</ele>
        <time>2024-09-20T10:09:36Z</time>
      </trkpt>
      <trkpt lat="45.7631" lon="4.85482">
        <ele>171.2</ele>
        <time>2024-09-20T10:09:37Z</time>
      </trkpt>
      <trkpt lat="45.7631" lon="4.85489">
        <ele>171.2</ele>
        <time>2024-09-20T10:09:38Z</time>
      </trkpt>
      <trkpt lat="45.76311" lon="4.85495">
        <ele>171.2</ele>
        <time>2024-09-20T10:09:39Z</time>
      </trkpt>
      <trkpt lat="45.76312" lon="4.85501">
        <ele>171.2</ele>
        <time>2024-09-20T10:09:40Z</time>
      </trkpt>
      <trkpt lat="45.76312" lon="4.85507">
        <ele>171.4</ele>
        <time>2024-09-20T10:09:41Z</time>
      </trkpt>
      <trkpt lat="45.76313" lon="4.85514">
        <ele>171.4</ele>
        <time>2024-09-20T10:09:42Z</time>
      </trkpt>
      <trkpt lat="45.76314" lon="4.8552">
        <ele>171.4</ele>
        <time>2024-09-20T10:09:43Z</time>
      </trkpt>
      <trkpt lat="45.76315" lon="4.85527">
        <ele>171.4</ele>
        <time>2024-09-20T10:09:44Z</time>
      </trkpt>
      <trkpt lat="45.76316" lon="4.85534">
        <ele>171.4</ele>
        <time>2024-09-20T10:09:45Z</time>
      </trkpt>
      <trkpt lat="45.76316" lon="4.8554">
        <ele>171.4</ele>
        <time>2024-09-20T10:09:46Z</time>
      </trkpt>
      <trkpt lat="45.76316" lon="4.85547">
        <ele>171.4</ele>
        <time>2024-09-20T10:09:47Z</time>
      </trkpt>
      <trkpt lat="45.76317" lon="4.85554">
        <ele>171.4</ele>
        <time>2024-09-20T10:09:48Z</time>
      </trkpt>
      <trkpt lat="45.76317" lon="4.85561">
        <ele>171.6</ele>
        <time>2024-09-20T10:09:49Z</time>
      </trkpt>
      <trkpt lat="45.76317" lon="4.85568">
        <ele>171.6</ele>
        <time>2024-09-20T10:09:50Z</time>
      </trkpt>
      <trkpt lat="45.76317" lon="4.85575">
        <ele>171.6</ele>
        <time>2024-09-20T10:09:51Z</time>
      </trkpt>
      <trkpt lat="45.76318" lon="4.8558">
        <ele>171.6</ele>
        <time>2024-09-20T10:09:52Z</time>
      </trkpt>
      <trkpt lat="45.76318" lon="4.85585">
        <ele>171.6</ele>
        <time>2024-09-20T10:09:53Z</time>
      </trkpt>
      <trkpt lat="45.76318" lon="4.85589">
        <ele>171.4</ele>
        <time>2024-09-20T10:09:54Z</time>
      </trkpt>
      <trkpt lat="45.76318" lon="4.85593">
        <ele>171.4</ele>
        <time>2024-09-20T10:09:55Z</time>
      </trkpt>
      <trkpt lat="45.76318" lon="4.85596">
        <ele>171.4</ele>
        <time>2024-09-20T10:09:56Z</time>
      </trkpt>
      <trkpt lat="45.76318" lon="4.856">
        <ele>171.6</ele>
        <time>2024-09-20T10:09:57Z</time>
      </trkpt>
      <trkpt lat="45.76319" lon="4.85603">
        <ele>171.4</ele>
        <time>2024-09-20T10:09:58Z</time>
      </trkpt>
      <trkpt lat="45.76319" lon="4.85607">
        <ele>171.4</ele>
        <time>2024-09-20T10:09:59Z</time>
      </trkpt>
      <trkpt lat="45.76319" lon="4.85611">
        <ele>171.4</ele>
        <time>2024-09-20T10:10:00Z</time>
      </trkpt>
      <trkpt lat="45.76319" lon="4.85615">
        <ele>171.4</ele>
        <time>2024-09-20T10:10:01Z</time>
      </trkpt>
      <trkpt lat="45.76318" lon="4.85619">
        <ele>171.4</ele>
        <time>2024-09-20T10:10:02Z</time>
      </trkpt>
      <trkpt lat="45.76318" lon="4.85624">
        <ele>171.4</ele>
        <time>2024-09-20T10:10:03Z</time>
      </trkpt>
      <trkpt lat="45.76318" lon="4.85629">
        <ele>171.4</ele>
        <time>2024-09-20T10:10:04Z</time>
      </trkpt>
      <trkpt lat="45.76318" lon="4.85635">
        <ele>171.4</ele>
        <time>2024-09-20T10:10:05Z</time>
      </trkpt>
      <trkpt lat="45.76318" lon="4.85641">
        <ele>171.2</ele>
        <time>2024-09-20T10:10:06Z</time>
      </trkpt>
      <trkpt lat="45.76318" lon="4.85647">
        <ele>171.2</ele>
        <time>2024-09-20T10:10:07Z</time>
      </trkpt>
      <trkpt lat="45.76319" lon="4.85653">
        <ele>171.2</ele>
        <time>2024-09-20T10:10:08Z</time>
      </trkpt>
      <trkpt lat="45.76319" lon="4.85659">
        <ele>171.2</ele>
        <time>2024-09-20T10:10:09Z</time>
      </trkpt>
      <trkpt lat="45.76319" lon="4.85666">
        <ele>171.4</ele>
        <time>2024-09-20T10:10:10Z</time>
      </trkpt>
      <trkpt lat="45.7632" lon="4.85672">
        <ele>171.4</ele>
        <time>2024-09-20T10:10:11Z</time>
      </trkpt>
      <trkpt lat="45.7632" lon="4.85679">
        <ele>171.4</ele>
        <time>2024-09-20T10:10:12Z</time>
      </trkpt>
      <trkpt lat="45.76321" lon="4.85685">
        <ele>171.4</ele>
        <time>2024-09-20T10:10:13Z</time>
      </trkpt>
      <trkpt lat="45.76321" lon="4.8569">
        <ele>171.4</ele>
        <time>2024-09-20T10:10:14Z</time>
      </trkpt>
      <trkpt lat="45.76322" lon="4.85697">
        <ele>171.4</ele>
        <time>2024-09-20T10:10:15Z</time>
      </trkpt>
      <trkpt lat="45.76322" lon="4.85703">
        <ele>171.4</ele>
        <time>2024-09-20T10:10:16Z</time>
      </trkpt>
      <trkpt lat="45.76322" lon="4.85708">
        <ele>171.4</ele>
        <time>2024-09-20T10:10:17Z</time>
      </trkpt>
      <trkpt lat="45.76323" lon="4.85714">
        <ele>171.4</ele>
        <time>2024-09-20T10:10:18Z</time>
      </trkpt>
      <trkpt lat="45.76323" lon="4.85719">
        <ele>171.4</ele>
        <time>2024-09-20T10:10:19Z</time>
      </trkpt>
      <trkpt lat="45.76324" lon="4.85724">
        <ele>171.4</ele>
        <time>2024-09-20T10:10:20Z</time>
      </trkpt>
      <trkpt lat="45.76324" lon="4.85728">
        <ele>171.4</ele>
        <time>2024-09-20T10:10:21Z</time>
      </trkpt>
      <trkpt lat="45.76325" lon="4.85732">
        <ele>171.4</ele>
        <time>2024-09-20T10:10:22Z</time>
      </trkpt>
      <trkpt lat="45.76325" lon="4.85735">
        <ele>171.4</ele>
        <time>2024-09-20T10:10:23Z</time>
      </trkpt>
      <trkpt lat="45.76325" lon="4.85738">
        <ele>171.2</ele>
        <time>2024-09-20T10:10:24Z</time>
      </trkpt>
      <trkpt lat="45.76324" lon="4.85741">
        <ele>171.2</ele>
        <time>2024-09-20T10:10:25Z</time>
      </trkpt>
      <trkpt lat="45.76323" lon="4.85743">
        <ele>171.2</ele>
        <time>2024-09-20T10:10:26Z</time>
      </trkpt>
      <trkpt lat="45.76322" lon="4.85744">
        <ele>171.2</ele>
        <time>2024-09-20T10:10:27Z</time>
      </trkpt>
      <trkpt lat="45.76321" lon="4.85744">
        <ele>171.2</ele>
        <time>2024-09-20T10:10:28Z</time>
      </trkpt>
      <trkpt lat="45.76321" lon="4.85744">
        <ele>171.2</ele>
        <time>2024-09-20T10:10:29Z</time>
      </trkpt>
      <trkpt lat="45.76321" lon="4.85744">
        <ele>171.2</ele>
        <time>2024-09-20T10:10:30Z</time>
      </trkpt>
      <trkpt lat="45.76317" lon="4.85747">
        <ele>171.4</ele>
        <time>2024-09-20T10:10:39Z</time>
      </trkpt>
      <trkpt lat="45.76315" lon="4.85749">
        <ele>171.4</ele>
        <time>2024-09-20T10:10:40Z</time>
      </trkpt>
      <trkpt lat="45.76313" lon="4.85748">
        <ele>171.4</ele>
        <time>2024-09-20T10:10:41Z</time>
      </trkpt>
      <trkpt lat="45.76311" lon="4.85747">
        <ele>171.4</ele>
        <time>2024-09-20T10:10:42Z</time>
      </trkpt>
      <trkpt lat="45.7631" lon="4.85746">
        <ele>171.6</ele>
        <time>2024-09-20T10:10:43Z</time>
      </trkpt>
      <trkpt lat="45.7631" lon="4.85746">
        <ele>171.6</ele>
        <time>2024-09-20T10:10:44Z</time>
      </trkpt>
      <trkpt lat="45.7631" lon="4.85746">
        <ele>171.6</ele>
        <time>2024-09-20T10:10:45Z</time>
      </trkpt>
      <trkpt lat="45.7631" lon="4.85746">
        <ele>171.4</ele>
        <time>2024-09-20T10:10:46Z</time>
      </trkpt>
      <trkpt lat="45.76304" lon="4.85752">
        <ele>171.4</ele>
        <time>2024-09-20T10:11:09Z</time>
      </trkpt>
      <trkpt lat="45.76301" lon="4.85753">
        <ele>171.4</ele>
        <time>2024-09-20T10:11:10Z</time>
      </trkpt>
      <trkpt lat="45.76298" lon="4.85754">
        <ele>171.4</ele>
        <time>2024-09-20T10:11:11Z</time>
      </trkpt>
      <trkpt lat="45.76295" lon="4.85754">
        <ele>171.8</ele>
        <time>2024-09-20T10:11:12Z</time>
      </trkpt>
      <trkpt lat="45.76291" lon="4.85755">
        <ele>171.8</ele>
        <time>2024-09-20T10:11:13Z</time>
      </trkpt>
      <trkpt lat="45.76288" lon="4.85755">
        <ele>172.2</ele>
        <time>2024-09-20T10:11:14Z</time>
      </trkpt>
      <trkpt lat="45.76284" lon="4.85756">
        <ele>172.2</ele>
        <time>2024-09-20T10:11:15Z</time>
      </trkpt>
      <trkpt lat="45.76281" lon="4.85758">
        <ele>172.2</ele>
        <time>2024-09-20T10:11:16Z</time>
      </trkpt>
      <trkpt lat="45.76277" lon="4.85759">
        <ele>172</ele>
        <time>2024-09-20T10:11:17Z</time>
      </trkpt>
      <trkpt lat="45.76275" lon="4.85759">
        <ele>172</ele>
        <time>2024-09-20T10:11:18Z</time>
      </trkpt>
      <trkpt lat="45.76275" lon="4.8576">
        <ele>171.8</ele>
        <time>2024-09-20T10:11:19Z</time>
      </trkpt>
      <trkpt lat="45.76275" lon="4.85761">
        <ele>171.8</ele>
        <time>2024-09-20T10:11:20Z</time>
      </trkpt>
      <trkpt lat="45.76275" lon="4.85761">
        <ele>171.8</ele>
        <time>2024-09-20T10:11:21Z</time>
      </trkpt>
      <trkpt lat="45.7627" lon="4.85759">
        <ele>171.6</ele>
        <time>2024-09-20T10:11:36Z</time>
      </trkpt>
      <trkpt lat="45.76267" lon="4.85759">
        <ele>171.6</ele>
        <time>2024-09-20T10:11:37Z</time>
      </trkpt>
      <trkpt lat="45.76264" lon="4.85758">
        <ele>171.6</ele>
        <time>2024-09-20T10:11:38Z</time>
      </trkpt>
      <trkpt lat="45.76261" lon="4.85759">
        <ele>171.6</ele>
        <time>2024-09-20T10:11:39Z</time>
      </trkpt>
      <trkpt lat="45.76258" lon="4.8576">
        <ele>171.6</ele>
        <time>2024-09-20T10:11:40Z</time>
      </trkpt>
      <trkpt lat="45.76255" lon="4.85761">
        <ele>171.6</ele>
        <time>2024-09-20T10:11:41Z</time>
      </trkpt>
      <trkpt lat="45.76251" lon="4.85762">
        <ele>171.6</ele>
        <time>2024-09-20T10:11:42Z</time>
      </trkpt>
      <trkpt lat="45.76248" lon="4.85763">
        <ele>171.6</ele>
        <time>2024-09-20T10:11:43Z</time>
      </trkpt>
      <trkpt lat="45.76245" lon="4.85764">
        <ele>172</ele>
        <time>2024-09-20T10:11:44Z</time>
      </trkpt>
      <trkpt lat="45.76241" lon="4.85765">
        <ele>172.2</ele>
        <time>2024-09-20T10:11:45Z</time>
      </trkpt>
      <trkpt lat="45.76237" lon="4.85765">
        <ele>172.2</ele>
        <time>2024-09-20T10:11:46Z</time>
      </trkpt>
      <trkpt lat="45.76233" lon="4.85766">
        <ele>172.2</ele>
        <time>2024-09-20T10:11:47Z</time>
      </trkpt>
      <trkpt lat="45.76229" lon="4.85767">
        <ele>172.4</ele>
        <time>2024-09-20T10:11:48Z</time>
      </trkpt>
      <trkpt lat="45.76225" lon="4.85767">
        <ele>172.6</ele>
        <time>2024-09-20T10:11:49Z</time>
      </trkpt>
      <trkpt lat="45.76221" lon="4.85768">
        <ele>172.6</ele>
        <time>2024-09-20T10:11:50Z</time>
      </trkpt>
      <trkpt lat="45.76217" lon="4.85768">
        <ele>172.6</ele>
        <time>2024-09-20T10:11:51Z</time>
      </trkpt>
      <trkpt lat="45.76213" lon="4.85769">
        <ele>172.6</ele>
        <time>2024-09-20T10:11:52Z</time>
      </trkpt>
      <trkpt lat="45.76209" lon="4.85769">
        <ele>172.6</ele>
        <time>2024-09-20T10:11:53Z</time>
      </trkpt>
      <trkpt lat="45.76205" lon="4.85769">
        <ele>172.6</ele>
        <time>2024-09-20T10:11:54Z</time>
      </trkpt>
      <trkpt lat="45.76201" lon="4.8577">
        <ele>172.6</ele>
        <time>2024-09-20T10:11:55Z</time>
      </trkpt>
      <trkpt lat="45.76197" lon="4.8577">
        <ele>172.6</ele>
        <time>2024-09-20T10:11:56Z</time>
      </trkpt>
      <trkpt lat="45.76192" lon="4.85771">
        <ele>172.2</ele>
        <time>2024-09-20T10:11:57Z</time>
      </trkpt>
      <trkpt lat="45.76188" lon="4.85771">
        <ele>172.2</ele>
        <time>2024-09-20T10:11:58Z</time>
      </trkpt>
      <trkpt lat="45.76184" lon="4.85772">
        <ele>172.2</ele>
        <time>2024-09-20T10:11:59Z</time>
      </trkpt>
      <trkpt lat="45.76179" lon="4.85773">
        <ele>172.2</ele>
        <time>2024-09-20T10:12:00Z</time>
      </trkpt>
      <trkpt lat="45.76175" lon="4.85774">
        <ele>172</ele>
        <time>2024-09-20T10:12:01Z</time>
      </trkpt>
      <trkpt lat="45.76171" lon="4.85774">
        <ele>172</ele>
        <time>2024-09-20T10:12:02Z</time>
      </trkpt>
      <trkpt lat="45.76167" lon="4.85775">
        <ele>172</ele>
        <time>2024-09-20T10:12:03Z</time>
      </trkpt>
      <trkpt lat="45.76163" lon="4.85775">
        <ele>172</ele>
        <time>2024-09-20T10:12:04Z</time>
      </trkpt>
      <trkpt lat="45.76159" lon="4.85776">
        <ele>172</ele>
        <time>2024-09-20T10:12:05Z</time>
      </trkpt>
      <trkpt lat="45.76155" lon="4.85777">
        <ele>171.4</ele>
        <time>2024-09-20T10:12:06Z</time>
      </trkpt>
      <trkpt lat="45.76153" lon="4.85778">
        <ele>171.4</ele>
        <time>2024-09-20T10:12:07Z</time>
      </trkpt>
      <trkpt lat="45.76151" lon="4.85779">
        <ele>171.4</ele>
        <time>2024-09-20T10:12:08Z</time>
      </trkpt>
      <trkpt lat="45.76149" lon="4.8578">
        <ele>171.4</ele>
        <time>2024-09-20T10:12:09Z</time>
      </trkpt>
      <trkpt lat="45.76148" lon="4.8578">
        <ele>171.4</ele>
        <time>2024-09-20T10:12:10Z</time>
      </trkpt>
      <trkpt lat="45.76146" lon="4.8578">
        <ele>171</ele>
        <time>2024-09-20T10:12:11Z</time>
      </trkpt>
      <trkpt lat="45.76145" lon="4.8578">
        <ele>171</ele>
        <time>2024-09-20T10:12:12Z</time>
      </trkpt>
      <trkpt lat="45.76144" lon="4.8578">
        <ele>171</ele>
        <time>2024-09-20T10:12:13Z</time>
      </trkpt>
      <trkpt lat="45.76144" lon="4.8578">
        <ele>171</ele>
        <time>2024-09-20T10:12:14Z</time>
      </trkpt>
      <trkpt lat="45.76141" lon="4.85791">
        <ele>170.6</ele>
        <time>2024-09-20T10:12:35Z</time>
      </trkpt>
      <trkpt lat="45.76141" lon="4.85794">
        <ele>170.6</ele>
        <time>2024-09-20T10:12:36Z</time>
      </trkpt>
      <trkpt lat="45.76141" lon="4.85797">
        <ele>170.6</ele>
        <time>2024-09-20T10:12:37Z</time>
      </trkpt>
      <trkpt lat="45.76141" lon="4.85799">
        <ele>170.6</ele>
        <time>2024-09-20T10:12:38Z</time>
      </trkpt>
      <trkpt lat="45.76141" lon="4.85801">
        <ele>170.6</ele>
        <time>2024-09-20T10:12:39Z</time>
      </trkpt>
      <trkpt lat="45.76141" lon="4.85803">
        <ele>170.6</ele>
        <time>2024-09-20T10:12:40Z</time>
      </trkpt>
      <trkpt lat="45.76141" lon="4.85806">
        <ele>170.6</ele>
        <time>2024-09-20T10:12:41Z</time>
      </trkpt>
      <trkpt lat="45.7614" lon="4.85809">
        <ele>170.8</ele>
        <time>2024-09-20T10:12:42Z</time>
      </trkpt>
      <trkpt lat="45.7614" lon="4.85811">
        <ele>170.8</ele>
        <time>2024-09-20T10:12:43Z</time>
      </trkpt>
      <trkpt lat="45.7614" lon="4.85812">
        <ele>170.8</ele>
        <time>2024-09-20T10:12:44Z</time>
      </trkpt>
      <trkpt lat="45.76138" lon="4.85813">
        <ele>170.8</ele>
        <time>2024-09-20T10:12:45Z</time>
      </trkpt>
      <trkpt lat="45.76137" lon="4.85814">
        <ele>170.8</ele>
        <time>2024-09-20T10:12:46Z</time>
      </trkpt>
      <trkpt lat="45.76136" lon="4.85814">
        <ele>170.8</ele>
        <time>2024-09-20T10:12:47Z</time>
      </trkpt>
      <trkpt lat="45.76135" lon="4.85814">
        <ele>170.8</ele>
        <time>2024-09-20T10:12:48Z</time>
      </trkpt>
      <trkpt lat="45.76134" lon="4.85814">
        <ele>170.8</ele>
        <time>2024-09-20T10:12:49Z</time>
      </trkpt>
      <trkpt lat="45.76133" lon="4.85815">
        <ele>170.8</ele>
        <time>2024-09-20T10:12:50Z</time>
      </trkpt>
      <trkpt lat="45.76132" lon="4.85815">
        <ele>171</ele>
        <time>2024-09-20T10:12:51Z</time>
      </trkpt>
      <trkpt lat="45.7613" lon="4.85816">
        <ele>171</ele>
        <time>2024-09-20T10:12:52Z</time>
      </trkpt>
      <trkpt lat="45.76128" lon="4.85816">
        <ele>171</ele>
        <time>2024-09-20T10:12:53Z</time>
      </trkpt>
      <trkpt lat="45.76126" lon="4.85817">
        <ele>171</ele>
        <time>2024-09-20T10:12:54Z</time>
      </trkpt>
      <trkpt lat="45.76125" lon="4.85818">
        <ele>171</ele>
        <time>2024-09-20T10:12:55Z</time>
      </trkpt>
      <trkpt lat="45.76123" lon="4.85819">
        <ele>171</ele>
        <time>2024-09-20T10:12:56Z</time>
      </trkpt>
      <trkpt lat="45.76121" lon="4.85821">
        <ele>171</ele>
        <time>2024-09-20T10:12:57Z</time>
      </trkpt>
      <trkpt lat="45.76121" lon="4.85823">
        <ele>171</ele>
        <time>2024-09-20T10:12:58Z</time>
      </trkpt>
      <trkpt lat="45.7612" lon="4.85826">
        <ele>171</ele>
        <time>2024-09-20T10:12:59Z</time>
      </trkpt>
      <trkpt lat="45.76119" lon="4.85828">
        <ele>170.8</ele>
        <time>2024-09-20T10:13:00Z</time>
      </trkpt>
      <trkpt lat="45.76119" lon="4.85831">
        <ele>170.8</ele>
        <time>2024-09-20T10:13:01Z</time>
      </trkpt>
      <trkpt lat="45.76118" lon="4.85834">
        <ele>170.8</ele>
        <time>2024-09-20T10:13:02Z</time>
      </trkpt>
      <trkpt lat="45.76118" lon="4.85836">
        <ele>170.8</ele>
        <time>2024-09-20T10:13:03Z</time>
      </trkpt>
      <trkpt lat="45.76118" lon="4.85838">
        <ele>170.8</ele>
        <time>2024-09-20T10:13:04Z</time>
      </trkpt>
      <trkpt lat="45.76118" lon="4.8584">
        <ele>170.8</ele>
        <time>2024-09-20T10:13:05Z</time>
      </trkpt>
      <trkpt lat="45.76118" lon="4.85843">
        <ele>170.8</ele>
        <time>2024-09-20T10:13:06Z</time>
      </trkpt>
      <trkpt lat="45.76119" lon="4.85844">
        <ele>170.6</ele>
        <time>2024-09-20T10:13:07Z</time>
      </trkpt>
      <trkpt lat="45.76119" lon="4.85845">
        <ele>170.6</ele>
        <time>2024-09-20T10:13:08Z</time>
      </trkpt>
      <trkpt lat="45.76119" lon="4.85847">
        <ele>170.4</ele>
        <time>2024-09-20T10:13:09Z</time>
      </trkpt>
      <trkpt lat="45.7612" lon="4.85848">
        <ele>170.4</ele>
        <time>2024-09-20T10:13:10Z</time>
      </trkpt>
      <trkpt lat="45.7612" lon="4.85849">
        <ele>170.4</ele>
        <time>2024-09-20T10:13:11Z</time>
      </trkpt>
      <trkpt lat="45.76121" lon="4.85851">
        <ele>170.4</ele>
        <time>2024-09-20T10:13:12Z</time>
      </trkpt>
      <trkpt lat="45.76121" lon="4.85853">
        <ele>170.4</ele>
        <time>2024-09-20T10:13:13Z</time>
      </trkpt>
      <trkpt lat="45.76121" lon="4.85855">
        <ele>170.4</ele>
        <time>2024-09-20T10:13:14Z</time>
      </trkpt>
      <trkpt lat="45.76121" lon="4.85857">
        <ele>170.4</ele>
        <time>2024-09-20T10:13:15Z</time>
      </trkpt>
      <trkpt lat="45.76121" lon="4.85859">
        <ele>170.4</ele>
        <time>2024-09-20T10:13:16Z</time>
      </trkpt>
      <trkpt lat="45.76121" lon="4.85861">
        <ele>170.4</ele>
        <time>2024-09-20T10:13:17Z</time>
      </trkpt>
      <trkpt lat="45.76121" lon="4.85864">
        <ele>170</ele>
        <time>2024-09-20T10:13:18Z</time>
      </trkpt>
      <trkpt lat="45.76121" lon="4.85866">
        <ele>170</ele>
        <time>2024-09-20T10:13:19Z</time>
      </trkpt>
      <trkpt lat="45.76121" lon="4.85868">
        <ele>170</ele>
        <time>2024-09-20T10:13:20Z</time>
      </trkpt>
      <trkpt lat="45.76121" lon="4.8587">
        <ele>170</ele>
        <time>2024-09-20T10:13:21Z</time>
      </trkpt>
      <trkpt lat="45.76121" lon="4.85872">
        <ele>170</ele>
        <time>2024-09-20T10:13:22Z</time>
      </trkpt>
      <trkpt lat="45.76121" lon="4.85874">
        <ele>170</ele>
        <time>2024-09-20T10:13:23Z</time>
      </trkpt>
      <trkpt lat="45.76121" lon="4.85875">
        <ele>170</ele>
        <time>2024-09-20T10:13:24Z</time>
      </trkpt>
      <trkpt lat="45.76121" lon="4.85877">
        <ele>170</ele>
        <time>2024-09-20T10:13:25Z</time>
      </trkpt>
      <trkpt lat="45.76121" lon="4.85878">
        <ele>170</ele>
        <time>2024-09-20T10:13:26Z</time>
      </trkpt>
      <trkpt lat="45.76121" lon="4.8588">
        <ele>170</ele>
        <time>2024-09-20T10:13:27Z</time>
      </trkpt>
      <trkpt lat="45.76121" lon="4.85882">
        <ele>170</ele>
        <time>2024-09-20T10:13:28Z</time>
      </trkpt>
      <trkpt lat="45.76121" lon="4.85884">
        <ele>170</ele>
        <time>2024-09-20T10:13:29Z</time>
      </trkpt>
      <trkpt lat="45.76121" lon="4.85885">
        <ele>170</ele>
        <time>2024-09-20T10:13:30Z</time>
      </trkpt>
      <trkpt lat="45.76121" lon="4.85887">
        <ele>170</ele>
        <time>2024-09-20T10:13:31Z</time>
      </trkpt>
      <trkpt lat="45.76121" lon="4.85888">
        <ele>170</ele>
        <time>2024-09-20T10:13:32Z</time>
      </trkpt>
      <trkpt lat="45.76121" lon="4.8589">
        <ele>170</ele>
        <time>2024-09-20T10:13:33Z</time>
      </trkpt>
      <trkpt lat="45.76121" lon="4.85893">
        <ele>170</ele>
        <time>2024-09-20T10:13:34Z</time>
      </trkpt>
      <trkpt lat="45.76121" lon="4.85895">
        <ele>170</ele>
        <time>2024-09-20T10:13:35Z</time>
      </trkpt>
      <trkpt lat="45.76121" lon="4.85897">
        <ele>170</ele>
        <time>2024-09-20T10:13:36Z</time>
      </trkpt>
      <trkpt lat="45.76121" lon="4.85899">
        <ele>170</ele>
        <time>2024-09-20T10:13:37Z</time>
      </trkpt>
      <trkpt lat="45.7612" lon="4.85901">
        <ele>170</ele>
        <time>2024-09-20T10:13:38Z</time>
      </trkpt>
      <trkpt lat="45.7612" lon="4.85903">
        <ele>170</ele>
        <time>2024-09-20T10:13:39Z</time>
      </trkpt>
      <trkpt lat="45.7612" lon="4.85904">
        <ele>169.8</ele>
        <time>2024-09-20T10:13:40Z</time>
      </trkpt>
      <trkpt lat="45.76119" lon="4.85906">
        <ele>169.8</ele>
        <time>2024-09-20T10:13:41Z</time>
      </trkpt>
      <trkpt lat="45.76119" lon="4.85908">
        <ele>169.8</ele>
        <time>2024-09-20T10:13:42Z</time>
      </trkpt>
      <trkpt lat="45.76118" lon="4.8591">
        <ele>169.8</ele>
        <time>2024-09-20T10:13:43Z</time>
      </trkpt>
      <trkpt lat="45.76116" lon="4.85913">
        <ele>169.6</ele>
        <time>2024-09-20T10:13:44Z</time>
      </trkpt>
      <trkpt lat="45.76115" lon="4.85916">
        <ele>169.6</ele>
        <time>2024-09-20T10:13:45Z</time>
      </trkpt>
      <trkpt lat="45.76113" lon="4.85919">
        <ele>169.6</ele>
        <time>2024-09-20T10:13:46Z</time>
      </trkpt>
      <trkpt lat="45.76112" lon="4.85921">
        <ele>169.6</ele>
        <time>2024-09-20T10:13:47Z</time>
      </trkpt>
      <trkpt lat="45.7611" lon="4.85923">
        <ele>169.6</ele>
        <time>2024-09-20T10:13:48Z</time>
      </trkpt>
      <trkpt lat="45.76109" lon="4.85924">
        <ele>169.4</ele>
        <time>2024-09-20T10:13:49Z</time>
      </trkpt>
      <trkpt lat="45.76107" lon="4.85925">
        <ele>169.4</ele>
        <time>2024-09-20T10:13:50Z</time>
      </trkpt>
      <trkpt lat="45.76106" lon="4.85925">
        <ele>169.4</ele>
        <time>2024-09-20T10:13:51Z</time>
      </trkpt>
      <trkpt lat="45.76105" lon="4.85926">
        <ele>169</ele>
        <time>2024-09-20T10:13:52Z</time>
      </trkpt>
      <trkpt lat="45.76103" lon="4.85926">
        <ele>169</ele>
        <time>2024-09-20T10:13:53Z</time>
      </trkpt>
      <trkpt lat="45.76102" lon="4.85926">
        <ele>169.2</ele>
        <time>2024-09-20T10:13:54Z</time>
      </trkpt>
      <trkpt lat="45.76101" lon="4.85926">
        <ele>169.2</ele>
        <time>2024-09-20T10:13:55Z</time>
      </trkpt>
      <trkpt lat="45.761" lon="4.85926">
        <ele>169.2</ele>
        <time>2024-09-20T10:13:56Z</time>
      </trkpt>
      <trkpt lat="45.76098" lon="4.85926">
        <ele>169.4</ele>
        <time>2024-09-20T10:13:57Z</time>
      </trkpt>
      <trkpt lat="45.76097" lon="4.85926">
        <ele>169.4</ele>
        <time>2024-09-20T10:13:58Z</time>
      </trkpt>
      <trkpt lat="45.76096" lon="4.85927">
        <ele>169.4</ele>
        <time>2024-09-20T10:13:59Z</time>
      </trkpt>
      <trkpt lat="45.76095" lon="4.85927">
        <ele>169.4</ele>
        <time>2024-09-20T10:14:00Z</time>
      </trkpt>
      <trkpt lat="45.76094" lon="4.85927">
        <ele>169.4</ele>
        <time>2024-09-20T10:14:01Z</time>
      </trkpt>
      <trkpt lat="45.76094" lon="4.85927">
        <ele>169.6</ele>
        <time>2024-09-20T10:14:02Z</time>
      </trkpt>
      <trkpt lat="45.76093" lon="4.85927">
        <ele>169.8</ele>
        <time>2024-09-20T10:14:03Z</time>
      </trkpt>
      <trkpt lat="45.76092" lon="4.85928">
        <ele>169.8</ele>
        <time>2024-09-20T10:14:04Z</time>
      </trkpt>
      <trkpt lat="45.76092" lon="4.85927">
        <ele>169.8</ele>
        <time>2024-09-20T10:14:05Z</time>
      </trkpt>
      <trkpt lat="45.76092" lon="4.85927">
        <ele>169.6</ele>
        <time>2024-09-20T10:14:06Z</time>
      </trkpt>
      <trkpt lat="45.76091" lon="4.85923">
        <ele>170</ele>
        <time>2024-09-20T10:14:25Z</time>
      </trkpt>
      <trkpt lat="45.76092" lon="4.85923">
        <ele>170</ele>
        <time>2024-09-20T10:14:26Z</time>
      </trkpt>
      <trkpt lat="45.76093" lon="4.85923">
        <ele>170</ele>
        <time>2024-09-20T10:14:27Z</time>
      </trkpt>
      <trkpt lat="45.76093" lon="4.85924">
        <ele>170</ele>
        <time>2024-09-20T10:14:28Z</time>
      </trkpt>
      <trkpt lat="45.76095" lon="4.85922">
        <ele>169.8</ele>
        <time>2024-09-20T10:14:29Z</time>
      </trkpt>
      <trkpt lat="45.76096" lon="4.85919">
        <ele>169.8</ele>
        <time>2024-09-20T10:14:30Z</time>
      </trkpt>
      <trkpt lat="45.76097" lon="4.85917">
        <ele>169.8</ele>
        <time>2024-09-20T10:14:31Z</time>
      </trkpt>
      <trkpt lat="45.76098" lon="4.85914">
        <ele>169.8</ele>
        <time>2024-09-20T10:14:32Z</time>
      </trkpt>
      <trkpt lat="45.76099" lon="4.85912">
        <ele>169.8</ele>
        <time>2024-09-20T10:14:33Z</time>
      </trkpt>
      <trkpt lat="45.76099" lon="4.8591">
        <ele>169.8</ele>
        <time>2024-09-20T10:14:34Z</time>
      </trkpt>
      <trkpt lat="45.76099" lon="4.8591">
        <ele>169.8</ele>
        <time>2024-09-20T10:14:35Z</time>
      </trkpt>
      <trkpt lat="45.76099" lon="4.8591">
        <ele>169.8</ele>
        <time>2024-09-20T10:14:36Z</time>
      </trkpt>
      <trkpt lat="45.76098" lon="4.85911">
        <ele>169.8</ele>
        <time>2024-09-20T10:14:37Z</time>
      </trkpt>
      <trkpt lat="45.76098" lon="4.85911">
        <ele>169.8</ele>
        <time>2024-09-20T10:14:38Z</time>
      </trkpt>
      <trkpt lat="45.76098" lon="4.85911">
        <ele>169.8</ele>
        <time>2024-09-20T10:14:39Z</time>
      </trkpt>
      <trkpt lat="45.76097" lon="4.85912">
        <ele>169.8</ele>
        <time>2024-09-20T10:14:40Z</time>
      </trkpt>
      <trkpt lat="45.76097" lon="4.85912">
        <ele>169.8</ele>
        <time>2024-09-20T10:14:41Z</time>
      </trkpt>
      <trkpt lat="45.76097" lon="4.85913">
        <ele>169.8</ele>
        <time>2024-09-20T10:14:42Z</time>
      </trkpt>
      <trkpt lat="45.76096" lon="4.85913">
        <ele>169.8</ele>
        <time>2024-09-20T10:14:43Z</time>
      </trkpt>
      <trkpt lat="45.76096" lon="4.85913">
        <ele>169.8</ele>
        <time>2024-09-20T10:14:44Z</time>
      </trkpt>
      <trkpt lat="45.76096" lon="4.85914">
        <ele>169.8</ele>
        <time>2024-09-20T10:14:45Z</time>
      </trkpt>
      <trkpt lat="45.76095" lon="4.85914">
        <ele>169.8</ele>
        <time>2024-09-20T10:14:46Z</time>
      </trkpt>
      <trkpt lat="45.76095" lon="4.85914">
        <ele>169.8</ele>
        <time>2024-09-20T10:14:47Z</time>
      </trkpt>
      <trkpt lat="45.76095" lon="4.85915">
        <ele>169.8</ele>
        <time>2024-09-20T10:14:48Z</time>
      </trkpt>
      <trkpt lat="45.76094" lon="4.85915">
        <ele>169.8</ele>
        <time>2024-09-20T10:14:49Z</time>
      </trkpt>
      <trkpt lat="45.76094" lon="4.85916">
        <ele>170</ele>
        <time>2024-09-20T10:14:50Z</time>
      </trkpt>
      <trkpt lat="45.76094" lon="4.85916">
        <ele>170</ele>
        <time>2024-09-20T10:14:51Z</time>
      </trkpt>
      <trkpt lat="45.76093" lon="4.85916">
        <ele>170</ele>
        <time>2024-09-20T10:14:52Z</time>
      </trkpt>
      <trkpt lat="45.76093" lon="4.85917">
        <ele>170</ele>
        <time>2024-09-20T10:14:53Z</time>
      </trkpt>
      <trkpt lat="45.76093" lon="4.85917">
        <ele>169.8</ele>
        <time>2024-09-20T10:15:17Z</time>
      </trkpt>
      <trkpt lat="45.76092" lon="4.85918">
        <ele>169.8</ele>
        <time>2024-09-20T10:15:18Z</time>
      </trkpt>
      <trkpt lat="45.76092" lon="4.85918">
        <ele>169.8</ele>
        <time>2024-09-20T10:15:19Z</time>
      </trkpt>
      <trkpt lat="45.76092" lon="4.85918">
        <ele>169.8</ele>
        <time>2024-09-20T10:15:20Z</time>
      </trkpt>
      <trkpt lat="45.76091" lon="4.85919">
        <ele>169.8</ele>
        <time>2024-09-20T10:15:21Z</time>
      </trkpt>
      <trkpt lat="45.76091" lon="4.85919">
        <ele>169.8</ele>
        <time>2024-09-20T10:15:22Z</time>
      </trkpt>
      <trkpt lat="45.76094" lon="4.85909">
        <ele>169.8</ele>
        <time>2024-09-20T10:15:25Z</time>
      </trkpt>
      <trkpt lat="45.76096" lon="4.85909">
        <ele>170</ele>
        <time>2024-09-20T10:15:26Z</time>
      </trkpt>
      <trkpt lat="45.76099" lon="4.85907">
        <ele>170</ele>
        <time>2024-09-20T10:15:27Z</time>
      </trkpt>
      <trkpt lat="45.76099" lon="4.85907">
        <ele>170</ele>
        <time>2024-09-20T10:15:28Z</time>
      </trkpt>
      <trkpt lat="45.76099" lon="4.85907">
        <ele>170</ele>
        <time>2024-09-20T10:15:29Z</time>
      </trkpt>
      <trkpt lat="45.76094" lon="4.85941">
        <ele>169.8</ele>
        <time>2024-09-20T10:16:34Z</time>
      </trkpt>
      <trkpt lat="45.76096" lon="4.85944">
        <ele>169.8</ele>
        <time>2024-09-20T10:16:35Z</time>
      </trkpt>
      <trkpt lat="45.76095" lon="4.85945">
        <ele>169.8</ele>
        <time>2024-09-20T10:16:36Z</time>
      </trkpt>
      <trkpt lat="45.76094" lon="4.85945">
        <ele>169.8</ele>
        <time>2024-09-20T10:16:37Z</time>
      </trkpt>
      <trkpt lat="45.76093" lon="4.85946">
        <ele>169.8</ele>
        <time>2024-09-20T10:16:38Z</time>
      </trkpt>
      <trkpt lat="45.76093" lon="4.85946">
        <ele>169.8</ele>
        <time>2024-09-20T10:16:39Z</time>
      </trkpt>
      <trkpt lat="45.7607" lon="4.85942">
        <ele>169.8</ele>
        <time>2024-09-20T10:16:57Z</time>
      </trkpt>
      <trkpt lat="45.76069" lon="4.85943">
        <ele>169.8</ele>
        <time>2024-09-20T10:16:58Z</time>
      </trkpt>
      <trkpt lat="45.76067" lon="4.85944">
        <ele>169.8</ele>
        <time>2024-09-20T10:16:59Z</time>
      </trkpt>
      <trkpt lat="45.76066" lon="4.85944">
        <ele>169.8</ele>
        <time>2024-09-20T10:17:00Z</time>
      </trkpt>
      <trkpt lat="45.76065" lon="4.85945">
        <ele>169.8</ele>
        <time>2024-09-20T10:17:01Z</time>
      </trkpt>
      <trkpt lat="45.76065" lon="4.85946">
        <ele>169.8</ele>
        <time>2024-09-20T10:17:02Z</time>
      </trkpt>
      <trkpt lat="45.76067" lon="4.85948">
        <ele>169.8</ele>
        <time>2024-09-20T10:17:03Z</time>
      </trkpt>
      <trkpt lat="45.76067" lon="4.85949">
        <ele>169.8</ele>
        <time>2024-09-20T10:17:04Z</time>
      </trkpt>
      <trkpt lat="45.76067" lon="4.8595">
        <ele>169.8</ele>
        <time>2024-09-20T10:17:05Z</time>
      </trkpt>
      <trkpt lat="45.76067" lon="4.8595">
        <ele>169.8</ele>
        <time>2024-09-20T10:17:06Z</time>
      </trkpt>
      <trkpt lat="45.76052" lon="4.8594">
        <ele>170</ele>
        <time>2024-09-20T10:17:19Z</time>
      </trkpt>
      <trkpt lat="45.76051" lon="4.85938">
        <ele>170</ele>
        <time>2024-09-20T10:17:20Z</time>
      </trkpt>
      <trkpt lat="45.76054" lon="4.8594">
        <ele>169.8</ele>
        <time>2024-09-20T10:17:21Z</time>
      </trkpt>
      <trkpt lat="45.76054" lon="4.8594">
        <ele>170</ele>
        <time>2024-09-20T10:17:22Z</time>
      </trkpt>
      <trkpt lat="45.76045" lon="4.85947">
        <ele>170</ele>
        <time>2024-09-20T10:17:33Z</time>
      </trkpt>
      <trkpt lat="45.76042" lon="4.85947">
        <ele>170</ele>
        <time>2024-09-20T10:17:34Z</time>
      </trkpt>
      <trkpt lat="45.7604" lon="4.85946">
        <ele>170</ele>
        <time>2024-09-20T10:17:35Z</time>
      </trkpt>
      <trkpt lat="45.7604" lon="4.85947">
        <ele>170</ele>
        <time>2024-09-20T10:17:36Z</time>
      </trkpt>
      <trkpt lat="45.76039" lon="4.85947">
        <ele>170</ele>
        <time>2024-09-20T10:17:37Z</time>
      </trkpt>
      <trkpt lat="45.76039" lon="4.85948">
        <ele>170</ele>
        <time>2024-09-20T10:17:38Z</time>
      </trkpt>
      <trkpt lat="45.76034" lon="4.85944">
        <ele>170</ele>
        <time>2024-09-20T10:17:39Z</time>
      </trkpt>
      <trkpt lat="45.76031" lon="4.85944">
        <ele>170</ele>
        <time>2024-09-20T10:17:40Z</time>
      </trkpt>
      <trkpt lat="45.76029" lon="4.85947">
        <ele>170</ele>
        <time>2024-09-20T10:17:41Z</time>
      </trkpt>
      <trkpt lat="45.76029" lon="4.85949">
        <ele>170</ele>
        <time>2024-09-20T10:17:42Z</time>
      </trkpt>
      <trkpt lat="45.76028" lon="4.85951">
        <ele>170</ele>
        <time>2024-09-20T10:17:43Z</time>
      </trkpt>
      <trkpt lat="45.76028" lon="4.85954">
        <ele>169.8</ele>
        <time>2024-09-20T10:17:55Z</time>
      </trkpt>
      <trkpt lat="45.76028" lon="4.85956">
        <ele>169.8</ele>
        <time>2024-09-20T10:17:56Z</time>
      </trkpt>
      <trkpt lat="45.76027" lon="4.85959">
        <ele>169.8</ele>
        <time>2024-09-20T10:17:57Z</time>
      </trkpt>
      <trkpt lat="45.76027" lon="4.85961">
        <ele>169.8</ele>
        <time>2024-09-20T10:17:58Z</time>
      </trkpt>
      <trkpt lat="45.76026" lon="4.85964">
        <ele>169.8</ele>
        <time>2024-09-20T10:17:59Z</time>
      </trkpt>
      <trkpt lat="45.76026" lon="4.85966">
        <ele>169.6</ele>
        <time>2024-09-20T10:18:00Z</time>
      </trkpt>
      <trkpt lat="45.76026" lon="4.85969">
        <ele>169.6</ele>
        <time>2024-09-20T10:18:01Z</time>
      </trkpt>
      <trkpt lat="45.76025" lon="4.85971">
        <ele>169.6</ele>
        <time>2024-09-20T10:18:02Z</time>
      </trkpt>
      <trkpt lat="45.76025" lon="4.85974">
        <ele>169.6</ele>
        <time>2024-09-20T10:18:03Z</time>
      </trkpt>
      <trkpt lat="45.76022" lon="4.85979">
        <ele>169.6</ele>
        <time>2024-09-20T10:18:04Z</time>
      </trkpt>
      <trkpt lat="45.76023" lon="4.85979">
        <ele>169.6</ele>
        <time>2024-09-20T10:18:05Z</time>
      </trkpt>
      <trkpt lat="45.76023" lon="4.85978">
        <ele>169.6</ele>
        <time>2024-09-20T10:18:06Z</time>
      </trkpt>
      <trkpt lat="45.76024" lon="4.85978">
        <ele>169.6</ele>
        <time>2024-09-20T10:18:07Z</time>
      </trkpt>
      <trkpt lat="45.76025" lon="4.85978">
        <ele>169.6</ele>
        <time>2024-09-20T10:18:08Z</time>
      </trkpt>
      <trkpt lat="45.76026" lon="4.85977">
        <ele>169.6</ele>
        <time>2024-09-20T10:18:09Z</time>
      </trkpt>
      <trkpt lat="45.76027" lon="4.85977">
        <ele>169.6</ele>
        <time>2024-09-20T10:18:10Z</time>
      </trkpt>
      <trkpt lat="45.76027" lon="4.85976">
        <ele>169.6</ele>
        <time>2024-09-20T10:18:11Z</time>
      </trkpt>
      <trkpt lat="45.76028" lon="4.85976">
        <ele>169.6</ele>
        <time>2024-09-20T10:18:12Z</time>
      </trkpt>
      <trkpt lat="45.76029" lon="4.85975">
        <ele>169.6</ele>
        <time>2024-09-20T10:18:13Z</time>
      </trkpt>
      <trkpt lat="45.7603" lon="4.85975">
        <ele>169.6</ele>
        <time>2024-09-20T10:18:14Z</time>
      </trkpt>
      <trkpt lat="45.76031" lon="4.85975">
        <ele>169.6</ele>
        <time>2024-09-20T10:18:15Z</time>
      </trkpt>
      <trkpt lat="45.76032" lon="4.85974">
        <ele>169.6</ele>
        <time>2024-09-20T10:18:16Z</time>
      </trkpt>
      <trkpt lat="45.76032" lon="4.85974">
        <ele>169.6</ele>
        <time>2024-09-20T10:18:17Z</time>
      </trkpt>
      <trkpt lat="45.76033" lon="4.85973">
        <ele>169.6</ele>
        <time>2024-09-20T10:18:18Z</time>
      </trkpt>
      <trkpt lat="45.76034" lon="4.85973">
        <ele>169.6</ele>
        <time>2024-09-20T10:18:19Z</time>
      </trkpt>
      <trkpt lat="45.76035" lon="4.85972">
        <ele>169.6</ele>
        <time>2024-09-20T10:18:20Z</time>
      </trkpt>
      <trkpt lat="45.76036" lon="4.85972">
        <ele>169.6</ele>
        <time>2024-09-20T10:18:21Z</time>
      </trkpt>
      <trkpt lat="45.76036" lon="4.85971">
        <ele>169.6</ele>
        <time>2024-09-20T10:18:22Z</time>
      </trkpt>
      <trkpt lat="45.76037" lon="4.85971">
        <ele>169.6</ele>
        <time>2024-09-20T10:18:23Z</time>
      </trkpt>
      <trkpt lat="45.76038" lon="4.85971">
        <ele>169.6</ele>
        <time>2024-09-20T10:18:24Z</time>
      </trkpt>
      <trkpt lat="45.76055" lon="4.85961">
        <ele>169.6</ele>
        <time>2024-09-20T10:18:25Z</time>
      </trkpt>
      <trkpt lat="45.76056" lon="4.85959">
        <ele>169.6</ele>
        <time>2024-09-20T10:18:26Z</time>
      </trkpt>
      <trkpt lat="45.76055" lon="4.85957">
        <ele>169.6</ele>
        <time>2024-09-20T10:18:27Z</time>
      </trkpt>
      <trkpt lat="45.76055" lon="4.85958">
        <ele>169.6</ele>
        <time>2024-09-20T10:18:28Z</time>
      </trkpt>
      <trkpt lat="45.76054" lon="4.85958">
        <ele>169.6</ele>
        <time>2024-09-20T10:18:29Z</time>
      </trkpt>
      <trkpt lat="45.76055" lon="4.85959">
        <ele>169.6</ele>
        <time>2024-09-20T10:18:30Z</time>
      </trkpt>
      <trkpt lat="45.76055" lon="4.85959">
        <ele>169.6</ele>
        <time>2024-09-20T10:18:31Z</time>
      </trkpt>
      <trkpt lat="45.76057" lon="4.8596">
        <ele>169.4</ele>
        <time>2024-09-20T10:18:32Z</time>
      </trkpt>
      <trkpt lat="45.76058" lon="4.85958">
        <ele>169.4</ele>
        <time>2024-09-20T10:18:33Z</time>
      </trkpt>
      <trkpt lat="45.76061" lon="4.85958">
        <ele>169.4</ele>
        <time>2024-09-20T10:18:34Z</time>
      </trkpt>
      <trkpt lat="45.76061" lon="4.85957">
        <ele>169.4</ele>
        <time>2024-09-20T10:18:35Z</time>
      </trkpt>
      <trkpt lat="45.76061" lon="4.85957">
        <ele>169.4</ele>
        <time>2024-09-20T10:18:36Z</time>
      </trkpt>
      <trkpt lat="45.76061" lon="4.85957">
        <ele>169.4</ele>
        <time>2024-09-20T10:18:37Z</time>
      </trkpt>
      <trkpt lat="45.76061" lon="4.85957">
        <ele>169.4</ele>
        <time>2024-09-20T10:18:38Z</time>
      </trkpt>
      <trkpt lat="45.76061" lon="4.85957">
        <ele>169.4</ele>
        <time>2024-09-20T10:18:39Z</time>
      </trkpt>
      <trkpt lat="45.76061" lon="4.85956">
        <ele>169.4</ele>
        <time>2024-09-20T10:18:40Z</time>
      </trkpt>
      <trkpt lat="45.76061" lon="4.85956">
        <ele>169.4</ele>
        <time>2024-09-20T10:18:41Z</time>
      </trkpt>
      <trkpt lat="45.76061" lon="4.85956">
        <ele>169.4</ele>
        <time>2024-09-20T10:18:42Z</time>
      </trkpt>
      <trkpt lat="45.76061" lon="4.85956">
        <ele>169.4</ele>
        <time>2024-09-20T10:18:43Z</time>
      </trkpt>
      <trkpt lat="45.76061" lon="4.85956">
        <ele>169.6</ele>
        <time>2024-09-20T10:18:44Z</time>
      </trkpt>
      <trkpt lat="45.76061" lon="4.85955">
        <ele>169.4</ele>
        <time>2024-09-20T10:18:45Z</time>
      </trkpt>
      <trkpt lat="45.76061" lon="4.85955">
        <ele>169.4</ele>
        <time>2024-09-20T10:18:46Z</time>
      </trkpt>
      <trkpt lat="45.76061" lon="4.85955">
        <ele>169.4</ele>
        <time>2024-09-20T10:18:47Z</time>
      </trkpt>
      <trkpt lat="45.76061" lon="4.85955">
        <ele>169.4</ele>
        <time>2024-09-20T10:18:48Z</time>
      </trkpt>
      <trkpt lat="45.76061" lon="4.85955">
        <ele>169.4</ele>
        <time>2024-09-20T10:18:49Z</time>
      </trkpt>
      <trkpt lat="45.76061" lon="4.85954">
        <ele>169.4</ele>
        <time>2024-09-20T10:18:50Z</time>
      </trkpt>
      <trkpt lat="45.76061" lon="4.85954">
        <ele>169.4</ele>
        <time>2024-09-20T10:18:51Z</time>
      </trkpt>
      <trkpt lat="45.76061" lon="4.85954">
        <ele>169.4</ele>
        <time>2024-09-20T10:18:52Z</time>
      </trkpt>
      <trkpt lat="45.76061" lon="4.85954">
        <ele>169.4</ele>
        <time>2024-09-20T10:18:53Z</time>
      </trkpt>
      <trkpt lat="45.76061" lon="4.85954">
        <ele>169.4</ele>
        <time>2024-09-20T10:18:54Z</time>
      </trkpt>
      <trkpt lat="45.76061" lon="4.85953">
        <ele>169.4</ele>
        <time>2024-09-20T10:18:55Z</time>
      </trkpt>
      <trkpt lat="45.76061" lon="4.85953">
        <ele>169.4</ele>
        <time>2024-09-20T10:18:56Z</time>
      </trkpt>
      <trkpt lat="45.76061" lon="4.85953">
        <ele>169.4</ele>
        <time>2024-09-20T10:18:57Z</time>
      </trkpt>
      <trkpt lat="45.76061" lon="4.85953">
        <ele>169.4</ele>
        <time>2024-09-20T10:18:58Z</time>
      </trkpt>
      <trkpt lat="45.76061" lon="4.85953">
        <ele>169.4</ele>
        <time>2024-09-20T10:18:59Z</time>
      </trkpt>
      <trkpt lat="45.76061" lon="4.85952">
        <ele>169.2</ele>
        <time>2024-09-20T10:19:00Z</time>
      </trkpt>
      <trkpt lat="45.76061" lon="4.85952">
        <ele>169.2</ele>
        <time>2024-09-20T10:19:01Z</time>
      </trkpt>
      <trkpt lat="45.76061" lon="4.85952">
        <ele>169.2</ele>
        <time>2024-09-20T10:19:02Z</time>
      </trkpt>
      <trkpt lat="45.76061" lon="4.85952">
        <ele>169.2</ele>
        <time>2024-09-20T10:19:03Z</time>
      </trkpt>
      <trkpt lat="45.76061" lon="4.85952">
        <ele>169.4</ele>
        <time>2024-09-20T10:19:04Z</time>
      </trkpt>
      <trkpt lat="45.76061" lon="4.85951">
        <ele>169.4</ele>
        <time>2024-09-20T10:19:05Z</time>
      </trkpt>
      <trkpt lat="45.76061" lon="4.85951">
        <ele>169.4</ele>
        <time>2024-09-20T10:19:06Z</time>
      </trkpt>
      <trkpt lat="45.76061" lon="4.85951">
        <ele>169.4</ele>
        <time>2024-09-20T10:19:07Z</time>
      </trkpt>
      <trkpt lat="45.76061" lon="4.85951">
        <ele>169.4</ele>
        <time>2024-09-20T10:19:08Z</time>
      </trkpt>
      <trkpt lat="45.7606" lon="4.85951">
        <ele>169.4</ele>
        <time>2024-09-20T10:19:09Z</time>
      </trkpt>
      <trkpt lat="45.7606" lon="4.8595">
        <ele>169.4</ele>
        <time>2024-09-20T10:19:10Z</time>
      </trkpt>
      <trkpt lat="45.7606" lon="4.8595">
        <ele>169.4</ele>
        <time>2024-09-20T10:19:11Z</time>
      </trkpt>
      <trkpt lat="45.7606" lon="4.8595">
        <ele>169.4</ele>
        <time>2024-09-20T10:19:12Z</time>
      </trkpt>
      <trkpt lat="45.7606" lon="4.8595">
        <ele>169.4</ele>
        <time>2024-09-20T10:19:13Z</time>
      </trkpt>
      <trkpt lat="45.7606" lon="4.8595">
        <ele>169.4</ele>
        <time>2024-09-20T10:19:14Z</time>
      </trkpt>
      <trkpt lat="45.7606" lon="4.85949">
        <ele>169.4</ele>
        <time>2024-09-20T10:19:15Z</time>
      </trkpt>
      <trkpt lat="45.7606" lon="4.85949">
        <ele>169.6</ele>
        <time>2024-09-20T10:19:16Z</time>
      </trkpt>
      <trkpt lat="45.7606" lon="4.85949">
        <ele>169.4</ele>
        <time>2024-09-20T10:19:17Z</time>
      </trkpt>
      <trkpt lat="45.7606" lon="4.85949">
        <ele>169.4</ele>
        <time>2024-09-20T10:19:18Z</time>
      </trkpt>
      <trkpt lat="45.7606" lon="4.85949">
        <ele>169.4</ele>
        <time>2024-09-20T10:19:19Z</time>
      </trkpt>
      <trkpt lat="45.7606" lon="4.85948">
        <ele>169.4</ele>
        <time>2024-09-20T10:19:20Z</time>
      </trkpt>
      <trkpt lat="45.7606" lon="4.85948">
        <ele>169.6</ele>
        <time>2024-09-20T10:19:21Z</time>
      </trkpt>
      <trkpt lat="45.7606" lon="4.85948">
        <ele>169.6</ele>
        <time>2024-09-20T10:19:22Z</time>
      </trkpt>
      <trkpt lat="45.7606" lon="4.85948">
        <ele>169.6</ele>
        <time>2024-09-20T10:19:23Z</time>
      </trkpt>
      <trkpt lat="45.7606" lon="4.85948">
        <ele>169.6</ele>
        <time>2024-09-20T10:19:24Z</time>
      </trkpt>
      <trkpt lat="45.7606" lon="4.85947">
        <ele>169.6</ele>
        <time>2024-09-20T10:19:25Z</time>
      </trkpt>
      <trkpt lat="45.7606" lon="4.85947">
        <ele>169.6</ele>
        <time>2024-09-20T10:19:26Z</time>
      </trkpt>
      <trkpt lat="45.7606" lon="4.85947">
        <ele>169.6</ele>
        <time>2024-09-20T10:19:27Z</time>
      </trkpt>
      <trkpt lat="45.7606" lon="4.85947">
        <ele>169.6</ele>
        <time>2024-09-20T10:19:28Z</time>
      </trkpt>
      <trkpt lat="45.7606" lon="4.85947">
        <ele>169.6</ele>
        <time>2024-09-20T10:19:29Z</time>
      </trkpt>
      <trkpt lat="45.7606" lon="4.85946">
        <ele>169.6</ele>
        <time>2024-09-20T10:19:30Z</time>
      </trkpt>
      <trkpt lat="45.7606" lon="4.85946">
        <ele>169.6</ele>
        <time>2024-09-20T10:19:31Z</time>
      </trkpt>
      <trkpt lat="45.7606" lon="4.85946">
        <ele>169.6</ele>
        <time>2024-09-20T10:19:32Z</time>
      </trkpt>
      <trkpt lat="45.7606" lon="4.85946">
        <ele>169.6</ele>
        <time>2024-09-20T10:19:33Z</time>
      </trkpt>
      <trkpt lat="45.7606" lon="4.85946">
        <ele>169.6</ele>
        <time>2024-09-20T10:19:34Z</time>
      </trkpt>
      <trkpt lat="45.7606" lon="4.85945">
        <ele>169.4</ele>
        <time>2024-09-20T10:19:35Z</time>
      </trkpt>
      <trkpt lat="45.7606" lon="4.85945">
        <ele>169.4</ele>
        <time>2024-09-20T10:19:36Z</time>
      </trkpt>
      <trkpt lat="45.7606" lon="4.85945">
        <ele>169.4</ele>
        <time>2024-09-20T10:19:37Z</time>
      </trkpt>
      <trkpt lat="45.7606" lon="4.85945">
        <ele>169.4</ele>
        <time>2024-09-20T10:19:38Z</time>
      </trkpt>
      <trkpt lat="45.7606" lon="4.85944">
        <ele>169.4</ele>
        <time>2024-09-20T10:19:39Z</time>
      </trkpt>
      <trkpt lat="45.7606" lon="4.85931">
        <ele>169.4</ele>
        <time>2024-09-20T10:19:40Z</time>
      </trkpt>
      <trkpt lat="45.76052" lon="4.85935">
        <ele>169.4</ele>
        <time>2024-09-20T10:19:41Z</time>
      </trkpt>
      <trkpt lat="45.76046" lon="4.85939">
        <ele>169.4</ele>
        <time>2024-09-20T10:19:42Z</time>
      </trkpt>
      <trkpt lat="45.7604" lon="4.85944">
        <ele>169.4</ele>
        <time>2024-09-20T10:19:43Z</time>
      </trkpt>
      <trkpt lat="45.76022" lon="4.85958">
        <ele>169.6</ele>
        <time>2024-09-20T10:19:44Z</time>
      </trkpt>
      <trkpt lat="45.76018" lon="4.85964">
        <ele>169.6</ele>
        <time>2024-09-20T10:19:45Z</time>
      </trkpt>
      <trkpt lat="45.76018" lon="4.85964">
        <ele>169.6</ele>
        <time>2024-09-20T10:19:46Z</time>
      </trkpt>
      <trkpt lat="45.75982" lon="4.86011">
        <ele>169.2</ele>
        <time>2024-09-20T10:20:01Z</time>
      </trkpt>
      <trkpt lat="45.7598" lon="4.86012">
        <ele>169.2</ele>
        <time>2024-09-20T10:20:02Z</time>
      </trkpt>
      <trkpt lat="45.75977" lon="4.86012">
        <ele>169.2</ele>
        <time>2024-09-20T10:20:03Z</time>
      </trkpt>
      <trkpt lat="45.75977" lon="4.86013">
        <ele>169.2</ele>
        <time>2024-09-20T10:20:04Z</time>
      </trkpt>
      <trkpt lat="45.75977" lon="4.86013">
        <ele>169.2</ele>
        <time>2024-09-20T10:20:05Z</time>
      </trkpt>
      <trkpt lat="45.75979" lon="4.86012">
        <ele>169.2</ele>
        <time>2024-09-20T10:20:06Z</time>
      </trkpt>
      <trkpt lat="45.75982" lon="4.86012">
        <ele>169.2</ele>
        <time>2024-09-20T10:20:07Z</time>
      </trkpt>
      <trkpt lat="45.75983" lon="4.86013">
        <ele>169.2</ele>
        <time>2024-09-20T10:20:08Z</time>
      </trkpt>
      <trkpt lat="45.75984" lon="4.8601">
        <ele>169.2</ele>
        <time>2024-09-20T10:20:09Z</time>
      </trkpt>
      <trkpt lat="45.75985" lon="4.86005">
        <ele>169.2</ele>
        <time>2024-09-20T10:20:10Z</time>
      </trkpt>
      <trkpt lat="45.75984" lon="4.86005">
        <ele>169.2</ele>
        <time>2024-09-20T10:20:11Z</time>
      </trkpt>
      <trkpt lat="45.75984" lon="4.86008">
        <ele>169.2</ele>
        <time>2024-09-20T10:20:12Z</time>
      </trkpt>
      <trkpt lat="45.75983" lon="4.8601">
        <ele>169.4</ele>
        <time>2024-09-20T10:20:13Z</time>
      </trkpt>
      <trkpt lat="45.75984" lon="4.8601">
        <ele>169.4</ele>
        <time>2024-09-20T10:20:14Z</time>
      </trkpt>
      <trkpt lat="45.75986" lon="4.86009">
        <ele>169.2</ele>
        <time>2024-09-20T10:20:15Z</time>
      </trkpt>
      <trkpt lat="45.75986" lon="4.86008">
        <ele>169.2</ele>
        <time>2024-09-20T10:20:16Z</time>
      </trkpt>
      <trkpt lat="45.75989" lon="4.8601">
        <ele>169.2</ele>
        <time>2024-09-20T10:20:17Z</time>
      </trkpt>
      <trkpt lat="45.75991" lon="4.86006">
        <ele>169.2</ele>
        <time>2024-09-20T10:20:18Z</time>
      </trkpt>
      <trkpt lat="45.75994" lon="4.86006">
        <ele>169.2</ele>
        <time>2024-09-20T10:20:19Z</time>
      </trkpt>
      <trkpt lat="45.75996" lon="4.86008">
        <ele>169.2</ele>
        <time>2024-09-20T10:20:20Z</time>
      </trkpt>
      <trkpt lat="45.75996" lon="4.86008">
        <ele>169.2</ele>
        <time>2024-09-20T10:20:21Z</time>
      </trkpt>
      <trkpt lat="45.75996" lon="4.86008">
        <ele>169.2</ele>
        <time>2024-09-20T10:20:22Z</time>
      </trkpt>
      <trkpt lat="45.75998" lon="4.86015">
        <ele>169.2</ele>
        <time>2024-09-20T10:20:23Z</time>
      </trkpt>
      <trkpt lat="45.75999" lon="4.86017">
        <ele>169.2</ele>
        <time>2024-09-20T10:20:24Z</time>
      </trkpt>
      <trkpt lat="45.75999" lon="4.86017">
        <ele>169.2</ele>
        <time>2024-09-20T10:20:25Z</time>
      </trkpt>
      <trkpt lat="45.75999" lon="4.86017">
        <ele>169.2</ele>
        <time>2024-09-20T10:20:26Z</time>
      </trkpt>
      <trkpt lat="45.76003" lon="4.8602">
        <ele>169.2</ele>
        <time>2024-09-20T10:20:27Z</time>
      </trkpt>
      <trkpt lat="45.76004" lon="4.86021">
        <ele>169.2</ele>
        <time>2024-09-20T10:20:28Z</time>
      </trkpt>
      <trkpt lat="45.76004" lon="4.86021">
        <ele>169.2</ele>
        <time>2024-09-20T10:20:29Z</time>
      </trkpt>
      <trkpt lat="45.76004" lon="4.86021">
        <ele>169.2</ele>
        <time>2024-09-20T10:20:30Z</time>
      </trkpt>
      <trkpt lat="45.76011" lon="4.86015">
        <ele>169.2</ele>
        <time>2024-09-20T10:20:42Z</time>
      </trkpt>
      <trkpt lat="45.76014" lon="4.8601">
        <ele>169.2</ele>
        <time>2024-09-20T10:20:43Z</time>
      </trkpt>
      <trkpt lat="45.76017" lon="4.86007">
        <ele>169.4</ele>
        <time>2024-09-20T10:20:44Z</time>
      </trkpt>
      <trkpt lat="45.7602" lon="4.86004">
        <ele>169.2</ele>
        <time>2024-09-20T10:20:45Z</time>
      </trkpt>
      <trkpt lat="45.76021" lon="4.86004">
        <ele>169.2</ele>
        <time>2024-09-20T10:20:46Z</time>
      </trkpt>
      <trkpt lat="45.76023" lon="4.86001">
        <ele>169.2</ele>
        <time>2024-09-20T10:20:47Z</time>
      </trkpt>
      <trkpt lat="45.76025" lon="4.86001">
        <ele>169.2</ele>
        <time>2024-09-20T10:20:48Z</time>
      </trkpt>
      <trkpt lat="45.76028" lon="4.85997">
        <ele>169.4</ele>
        <time>2024-09-20T10:20:49Z</time>
      </trkpt>
      <trkpt lat="45.76028" lon="4.85997">
        <ele>169.4</ele>
        <time>2024-09-20T10:20:50Z</time>
      </trkpt>
      <trkpt lat="45.76028" lon="4.85994">
        <ele>169.4</ele>
        <time>2024-09-20T10:20:51Z</time>
      </trkpt>
      <trkpt lat="45.76026" lon="4.85994">
        <ele>169.4</ele>
        <time>2024-09-20T10:20:52Z</time>
      </trkpt>
      <trkpt lat="45.76025" lon="4.85995">
        <ele>169.4</ele>
        <time>2024-09-20T10:20:53Z</time>
      </trkpt>
      <trkpt lat="45.76027" lon="4.85992">
        <ele>169.2</ele>
        <time>2024-09-20T10:20:54Z</time>
      </trkpt>
      <trkpt lat="45.76025" lon="4.85992">
        <ele>169.2</ele>
        <time>2024-09-20T10:20:55Z</time>
      </trkpt>
      <trkpt lat="45.76022" lon="4.85993">
        <ele>169.2</ele>
        <time>2024-09-20T10:20:56Z</time>
      </trkpt>
      <trkpt lat="45.7602" lon="4.85991">
        <ele>169.2</ele>
        <time>2024-09-20T10:20:57Z</time>
      </trkpt>
      <trkpt lat="45.7602" lon="4.8599">
        <ele>169.4</ele>
        <time>2024-09-20T10:20:58Z</time>
      </trkpt>
      <trkpt lat="45.7602" lon="4.85989">
        <ele>169.4</ele>
        <time>2024-09-20T10:20:59Z</time>
      </trkpt>
      <trkpt lat="45.7602" lon="4.85988">
        <ele>169.4</ele>
        <time>2024-09-20T10:21:00Z</time>
      </trkpt>
      <trkpt lat="45.7602" lon="4.85988">
        <ele>169.4</ele>
        <time>2024-09-20T10:21:01Z</time>
      </trkpt>
      <trkpt lat="45.7602" lon="4.85987">
        <ele>169.4</ele>
        <time>2024-09-20T10:21:02Z</time>
      </trkpt>
      <trkpt lat="45.7602" lon="4.85986">
        <ele>169.4</ele>
        <time>2024-09-20T10:21:03Z</time>
      </trkpt>
      <trkpt lat="45.7602" lon="4.85985">
        <ele>169.4</ele>
        <time>2024-09-20T10:21:04Z</time>
      </trkpt>
      <trkpt lat="45.76021" lon="4.85984">
        <ele>169.4</ele>
        <time>2024-09-20T10:21:05Z</time>
      </trkpt>
      <trkpt lat="45.76021" lon="4.85983">
        <ele>169.4</ele>
        <time>2024-09-20T10:21:06Z</time>
      </trkpt>
      <trkpt lat="45.76025" lon="4.85975">
        <ele>169.2</ele>
        <time>2024-09-20T10:21:07Z</time>
      </trkpt>
      <trkpt lat="45.76028" lon="4.85974">
        <ele>169.2</ele>
        <time>2024-09-20T10:21:08Z</time>
      </trkpt>
      <trkpt lat="45.76032" lon="4.85976">
        <ele>169.2</ele>
        <time>2024-09-20T10:21:09Z</time>
      </trkpt>
      <trkpt lat="45.76038" lon="4.85977">
        <ele>169.2</ele>
        <time>2024-09-20T10:21:10Z</time>
      </trkpt>
      <trkpt lat="45.76039" lon="4.85977">
        <ele>169.4</ele>
        <time>2024-09-20T10:21:11Z</time>
      </trkpt>
      <trkpt lat="45.76039" lon="4.85977">
        <ele>169.4</ele>
        <time>2024-09-20T10:21:12Z</time>
      </trkpt>
      <trkpt lat="45.7604" lon="4.85977">
        <ele>169.4</ele>
        <time>2024-09-20T10:21:13Z</time>
      </trkpt>
      <trkpt lat="45.76041" lon="4.85977">
        <ele>169.4</ele>
        <time>2024-09-20T10:21:14Z</time>
      </trkpt>
      <trkpt lat="45.76041" lon="4.85977">
        <ele>169.4</ele>
        <time>2024-09-20T10:21:15Z</time>
      </trkpt>
      <trkpt lat="45.76042" lon="4.85977">
        <ele>169.4</ele>
        <time>2024-09-20T10:21:16Z</time>
      </trkpt>
      <trkpt lat="45.76043" lon="4.85977">
        <ele>169.4</ele>
        <time>2024-09-20T10:21:17Z</time>
      </trkpt>
      <trkpt lat="45.76043" lon="4.85977">
        <ele>169.4</ele>
        <time>2024-09-20T10:21:18Z</time>
      </trkpt>
      <trkpt lat="45.7605" lon="4.85977">
        <ele>169.4</ele>
        <time>2024-09-20T10:21:19Z</time>
      </trkpt>
      <trkpt lat="45.7605" lon="4.85977">
        <ele>169.4</ele>
        <time>2024-09-20T10:21:20Z</time>
      </trkpt>
      <trkpt lat="45.7605" lon="4.85977">
        <ele>169.4</ele>
        <time>2024-09-20T10:21:21Z</time>
      </trkpt>
      <trkpt lat="45.7605" lon="4.85977">
        <ele>169.4</ele>
        <time>2024-09-20T10:21:22Z</time>
      </trkpt>
      <trkpt lat="45.7605" lon="4.85977">
        <ele>169.4</ele>
        <time>2024-09-20T10:21:23Z</time>
      </trkpt>
      <trkpt lat="45.7605" lon="4.85977">
        <ele>169.4</ele>
        <time>2024-09-20T10:21:24Z</time>
      </trkpt>
      <trkpt lat="45.7605" lon="4.85977">
        <ele>169.4</ele>
        <time>2024-09-20T10:21:25Z</time>
      </trkpt>
      <trkpt lat="45.76052" lon="4.85984">
        <ele>169.4</ele>
        <time>2024-09-20T10:21:26Z</time>
      </trkpt>
      <trkpt lat="45.7605" lon="4.85985">
        <ele>169.4</ele>
        <time>2024-09-20T10:21:27Z</time>
      </trkpt>
      <trkpt lat="45.76057" lon="4.85987">
        <ele>169.4</ele>
        <time>2024-09-20T10:21:28Z</time>
      </trkpt>
      <trkpt lat="45.76058" lon="4.85986">
        <ele>169.4</ele>
        <time>2024-09-20T10:21:29Z</time>
      </trkpt>
      <trkpt lat="45.76059" lon="4.85983">
        <ele>169.4</ele>
        <time>2024-09-20T10:21:30Z</time>
      </trkpt>
      <trkpt lat="45.76056" lon="4.85982">
        <ele>169.4</ele>
        <time>2024-09-20T10:21:31Z</time>
      </trkpt>
      <trkpt lat="45.76053" lon="4.8598">
        <ele>169.4</ele>
        <time>2024-09-20T10:21:32Z</time>
      </trkpt>
      <trkpt lat="45.76051" lon="4.85979">
        <ele>169.4</ele>
        <time>2024-09-20T10:21:33Z</time>
      </trkpt>
      <trkpt lat="45.76048" lon="4.85977">
        <ele>169.6</ele>
        <time>2024-09-20T10:21:46Z</time>
      </trkpt>
      <trkpt lat="45.76046" lon="4.85976">
        <ele>169.6</ele>
        <time>2024-09-20T10:21:47Z</time>
      </trkpt>
      <trkpt lat="45.76043" lon="4.85974">
        <ele>169.6</ele>
        <time>2024-09-20T10:21:48Z</time>
      </trkpt>
      <trkpt lat="45.76041" lon="4.85973">
        <ele>169.6</ele>
        <time>2024-09-20T10:21:49Z</time>
      </trkpt>
      <trkpt lat="45.76038" lon="4.85972">
        <ele>169.6</ele>
        <time>2024-09-20T10:21:50Z</time>
      </trkpt>
      <trkpt lat="45.76035" lon="4.8597">
        <ele>169.6</ele>
        <time>2024-09-20T10:21:51Z</time>
      </trkpt>
      <trkpt lat="45.76033" lon="4.85969">
        <ele>169.6</ele>
        <time>2024-09-20T10:21:52Z</time>
      </trkpt>
      <trkpt lat="45.7603" lon="4.85967">
        <ele>169.6</ele>
        <time>2024-09-20T10:22:22Z</time>
      </trkpt>
      <trkpt lat="45.76028" lon="4.85966">
        <ele>169.6</ele>
        <time>2024-09-20T10:22:23Z</time>
      </trkpt>
      <trkpt lat="45.76025" lon="4.85964">
        <ele>169.6</ele>
        <time>2024-09-20T10:22:24Z</time>
      </trkpt>
      <trkpt lat="45.76022" lon="4.85963">
        <ele>169.6</ele>
        <time>2024-09-20T10:22:25Z</time>
      </trkpt>
      <trkpt lat="45.76016" lon="4.85969">
        <ele>169.6</ele>
        <time>2024-09-20T10:22:26Z</time>
      </trkpt>
      <trkpt lat="45.76012" lon="4.85972">
        <ele>169.6</ele>
        <time>2024-09-20T10:22:27Z</time>
      </trkpt>
      <trkpt lat="45.7601" lon="4.85975">
        <ele>169.6</ele>
        <time>2024-09-20T10:22:28Z</time>
      </trkpt>
      <trkpt lat="45.76005" lon="4.85979">
        <ele>169.6</ele>
        <time>2024-09-20T10:22:29Z</time>
      </trkpt>
      <trkpt lat="45.76002" lon="4.85982">
        <ele>169.6</ele>
        <time>2024-09-20T10:22:30Z</time>
      </trkpt>
      <trkpt lat="45.75998" lon="4.85985">
        <ele>169.6</ele>
        <time>2024-09-20T10:22:31Z</time>
      </trkpt>
      <trkpt lat="45.75994" lon="4.85992">
        <ele>169.6</ele>
        <time>2024-09-20T10:22:32Z</time>
      </trkpt>
      <trkpt lat="45.75994" lon="4.85994">
        <ele>169.6</ele>
        <time>2024-09-20T10:22:33Z</time>
      </trkpt>
      <trkpt lat="45.75995" lon="4.85995">
        <ele>169.6</ele>
        <time>2024-09-20T10:22:34Z</time>
      </trkpt>
      <trkpt lat="45.75994" lon="4.85996">
        <ele>169.6</ele>
        <time>2024-09-20T10:22:35Z</time>
      </trkpt>
      <trkpt lat="45.75992" lon="4.86">
        <ele>169.6</ele>
        <time>2024-09-20T10:22:36Z</time>
      </trkpt>
      <trkpt lat="45.75998" lon="4.85998">
        <ele>169.6</ele>
        <time>2024-09-20T10:22:37Z</time>
      </trkpt>
      <trkpt lat="45.76002" lon="4.85996">
        <ele>169.6</ele>
        <time>2024-09-20T10:22:38Z</time>
      </trkpt>
      <trkpt lat="45.76004" lon="4.85995">
        <ele>169.6</ele>
        <time>2024-09-20T10:22:39Z</time>
      </trkpt>
      <trkpt lat="45.76006" lon="4.85994">
        <ele>169.6</ele>
        <time>2024-09-20T10:22:40Z</time>
      </trkpt>
      <trkpt lat="45.76007" lon="4.85992">
        <ele>169.6</ele>
        <time>2024-09-20T10:22:41Z</time>
      </trkpt>
      <trkpt lat="45.76008" lon="4.85993">
        <ele>169.6</ele>
        <time>2024-09-20T10:22:42Z</time>
      </trkpt>
      <trkpt lat="45.76008" lon="4.85994">
        <ele>169.6</ele>
        <time>2024-09-20T10:22:43Z</time>
      </trkpt>
      <trkpt lat="45.76009" lon="4.85995">
        <ele>169.6</ele>
        <time>2024-09-20T10:22:44Z</time>
      </trkpt>
      <trkpt lat="45.7601" lon="4.85996">
        <ele>169.6</ele>
        <time>2024-09-20T10:22:45Z</time>
      </trkpt>
      <trkpt lat="45.76011" lon="4.85997">
        <ele>169.6</ele>
        <time>2024-09-20T10:22:46Z</time>
      </trkpt>
      <trkpt lat="45.76012" lon="4.85998">
        <ele>169.6</ele>
        <time>2024-09-20T10:22:47Z</time>
      </trkpt>
      <trkpt lat="45.76012" lon="4.85999">
        <ele>169.6</ele>
        <time>2024-09-20T10:23:31Z</time>
      </trkpt>
      <trkpt lat="45.76013" lon="4.86">
        <ele>169.6</ele>
        <time>2024-09-20T10:23:32Z</time>
      </trkpt>
      <trkpt lat="45.76014" lon="4.86002">
        <ele>169.6</ele>
        <time>2024-09-20T10:23:33Z</time>
      </trkpt>
      <trkpt lat="45.76015" lon="4.86003">
        <ele>169.6</ele>
        <time>2024-09-20T10:23:34Z</time>
      </trkpt>
      <trkpt lat="45.76016" lon="4.86004">
        <ele>169.6</ele>
        <time>2024-09-20T10:23:35Z</time>
      </trkpt>
      <trkpt lat="45.76016" lon="4.86005">
        <ele>169.6</ele>
        <time>2024-09-20T10:23:36Z</time>
      </trkpt>
      <trkpt lat="45.76017" lon="4.86006">
        <ele>169.6</ele>
        <time>2024-09-20T10:23:41Z</time>
      </trkpt>
      <trkpt lat="45.76018" lon="4.86007">
        <ele>169.6</ele>
        <time>2024-09-20T10:23:42Z</time>
      </trkpt>
      <trkpt lat="45.76019" lon="4.86008">
        <ele>169.6</ele>
        <time>2024-09-20T10:23:43Z</time>
      </trkpt>
      <trkpt lat="45.76021" lon="4.86024">
        <ele>169.6</ele>
        <time>2024-09-20T10:23:44Z</time>
      </trkpt>
      <trkpt lat="45.76021" lon="4.86024">
        <ele>169.6</ele>
        <time>2024-09-20T10:23:45Z</time>
      </trkpt>
      <trkpt lat="45.76021" lon="4.86024">
        <ele>169.6</ele>
        <time>2024-09-20T10:23:46Z</time>
      </trkpt>
      <trkpt lat="45.76027" lon="4.86062">
        <ele>169.6</ele>
        <time>2024-09-20T10:23:50Z</time>
      </trkpt>
      <trkpt lat="45.76028" lon="4.86061">
        <ele>169.6</ele>
        <time>2024-09-20T10:23:51Z</time>
      </trkpt>
      <trkpt lat="45.76028" lon="4.86058">
        <ele>169.6</ele>
        <time>2024-09-20T10:23:52Z</time>
      </trkpt>
      <trkpt lat="45.76028" lon="4.86058">
        <ele>169.6</ele>
        <time>2024-09-20T10:23:53Z</time>
      </trkpt>
      <trkpt lat="45.7605" lon="4.86035">
        <ele>169.8</ele>
        <time>2024-09-20T10:24:15Z</time>
      </trkpt>
      <trkpt lat="45.76051" lon="4.86033">
        <ele>169.6</ele>
        <time>2024-09-20T10:24:16Z</time>
      </trkpt>
      <trkpt lat="45.76051" lon="4.86029">
        <ele>169.6</ele>
        <time>2024-09-20T10:24:17Z</time>
      </trkpt>
      <trkpt lat="45.76051" lon="4.86026">
        <ele>169.6</ele>
        <time>2024-09-20T10:24:18Z</time>
      </trkpt>
      <trkpt lat="45.76051" lon="4.86024">
        <ele>169.6</ele>
        <time>2024-09-20T10:24:19Z</time>
      </trkpt>
      <trkpt lat="45.76052" lon="4.86022">
        <ele>169.6</ele>
        <time>2024-09-20T10:24:20Z</time>
      </trkpt>
      <trkpt lat="45.76052" lon="4.86023">
        <ele>169.6</ele>
        <time>2024-09-20T10:24:21Z</time>
      </trkpt>
      <trkpt lat="45.76053" lon="4.86022">
        <ele>169.6</ele>
        <time>2024-09-20T10:24:22Z</time>
      </trkpt>
      <trkpt lat="45.76053" lon="4.86021">
        <ele>169.6</ele>
        <time>2024-09-20T10:24:23Z</time>
      </trkpt>
      <trkpt lat="45.76053" lon="4.86018">
        <ele>169.6</ele>
        <time>2024-09-20T10:24:24Z</time>
      </trkpt>
      <trkpt lat="45.76053" lon="4.86015">
        <ele>169.6</ele>
        <time>2024-09-20T10:24:25Z</time>
      </trkpt>
      <trkpt lat="45.76055" lon="4.86014">
        <ele>169.6</ele>
        <time>2024-09-20T10:24:26Z</time>
      </trkpt>
      <trkpt lat="45.76055" lon="4.86013">
        <ele>169.6</ele>
        <time>2024-09-20T10:24:27Z</time>
      </trkpt>
      <trkpt lat="45.76055" lon="4.86011">
        <ele>169.6</ele>
        <time>2024-09-20T10:24:28Z</time>
      </trkpt>
      <trkpt lat="45.76054" lon="4.86012">
        <ele>169.8</ele>
        <time>2024-09-20T10:24:29Z</time>
      </trkpt>
      <trkpt lat="45.76054" lon="4.8601">
        <ele>169.8</ele>
        <time>2024-09-20T10:24:30Z</time>
      </trkpt>
      <trkpt lat="45.7605" lon="4.86017">
        <ele>169.8</ele>
        <time>2024-09-20T10:24:31Z</time>
      </trkpt>
      <trkpt lat="45.76046" lon="4.86011">
        <ele>169.6</ele>
        <time>2024-09-20T10:24:47Z</time>
      </trkpt>
      <trkpt lat="45.76045" lon="4.86008">
        <ele>169.6</ele>
        <time>2024-09-20T10:24:48Z</time>
      </trkpt>
      <trkpt lat="45.76045" lon="4.86007">
        <ele>169.6</ele>
        <time>2024-09-20T10:24:49Z</time>
      </trkpt>
      <trkpt lat="45.76045" lon="4.86003">
        <ele>169.6</ele>
        <time>2024-09-20T10:24:50Z</time>
      </trkpt>
      <trkpt lat="45.76044" lon="4.86002">
        <ele>169.6</ele>
        <time>2024-09-20T10:24:51Z</time>
      </trkpt>
      <trkpt lat="45.76045" lon="4.86001">
        <ele>169.6</ele>
        <time>2024-09-20T10:24:52Z</time>
      </trkpt>
      <trkpt lat="45.76044" lon="4.86001">
        <ele>169.6</ele>
        <time>2024-09-20T10:24:53Z</time>
      </trkpt>
      <trkpt lat="45.76044" lon="4.86001">
        <ele>169.6</ele>
        <time>2024-09-20T10:24:54Z</time>
      </trkpt>
      <trkpt lat="45.76044" lon="4.86001">
        <ele>169.6</ele>
        <time>2024-09-20T10:24:55Z</time>
      </trkpt>
      <trkpt lat="45.76043" lon="4.85985">
        <ele>169.6</ele>
        <time>2024-09-20T10:25:10Z</time>
      </trkpt>
      <trkpt lat="45.76043" lon="4.85985">
        <ele>169.6</ele>
        <time>2024-09-20T10:25:11Z</time>
      </trkpt>
      <trkpt lat="45.76043" lon="4.85983">
        <ele>169.6</ele>
        <time>2024-09-20T10:25:12Z</time>
      </trkpt>
      <trkpt lat="45.76043" lon="4.85981">
        <ele>169.6</ele>
        <time>2024-09-20T10:25:13Z</time>
      </trkpt>
      <trkpt lat="45.76044" lon="4.8598">
        <ele>169.6</ele>
        <time>2024-09-20T10:25:14Z</time>
      </trkpt>
      <trkpt lat="45.76044" lon="4.85981">
        <ele>169.6</ele>
        <time>2024-09-20T10:25:15Z</time>
      </trkpt>
      <trkpt lat="45.76044" lon="4.8598">
        <ele>169.6</ele>
        <time>2024-09-20T10:25:16Z</time>
      </trkpt>
      <trkpt lat="45.76044" lon="4.85979">
        <ele>169.8</ele>
        <time>2024-09-20T10:25:17Z</time>
      </trkpt>
      <trkpt lat="45.76044" lon="4.85979">
        <ele>169.8</ele>
        <time>2024-09-20T10:25:18Z</time>
      </trkpt>
      <trkpt lat="45.76044" lon="4.85979">
        <ele>169.8</ele>
        <time>2024-09-20T10:25:19Z</time>
      </trkpt>
      <trkpt lat="45.76052" lon="4.85969">
        <ele>170</ele>
        <time>2024-09-20T10:25:38Z</time>
      </trkpt>
      <trkpt lat="45.76054" lon="4.85966">
        <ele>169.8</ele>
        <time>2024-09-20T10:25:39Z</time>
      </trkpt>
      <trkpt lat="45.76056" lon="4.85966">
        <ele>169.8</ele>
        <time>2024-09-20T10:25:40Z</time>
      </trkpt>
      <trkpt lat="45.76056" lon="4.85966">
        <ele>169.8</ele>
        <time>2024-09-20T10:25:41Z</time>
      </trkpt>
      <trkpt lat="45.76056" lon="4.85966">
        <ele>169.8</ele>
        <time>2024-09-20T10:25:42Z</time>
      </trkpt>
      <trkpt lat="45.76056" lon="4.85966">
        <ele>169.8</ele>
        <time>2024-09-20T10:25:43Z</time>
      </trkpt>
      <trkpt lat="45.76054" lon="4.8597">
        <ele>169.8</ele>
        <time>2024-09-20T10:25:44Z</time>
      </trkpt>
      <trkpt lat="45.76052" lon="4.85977">
        <ele>169.8</ele>
        <time>2024-09-20T10:25:45Z</time>
      </trkpt>
      <trkpt lat="45.7605" lon="4.85981">
        <ele>169.8</ele>
        <time>2024-09-20T10:25:46Z</time>
      </trkpt>
      <trkpt lat="45.7605" lon="4.85981">
        <ele>169.8</ele>
        <time>2024-09-20T10:25:47Z</time>
      </trkpt>
      <trkpt lat="45.7605" lon="4.85981">
        <ele>169.8</ele>
        <time>2024-09-20T10:25:48Z</time>
      </trkpt>
      <trkpt lat="45.7605" lon="4.85982">
        <ele>169.8</ele>
        <time>2024-09-20T10:25:49Z</time>
      </trkpt>
      <trkpt lat="45.76049" lon="4.85982">
        <ele>170</ele>
        <time>2024-09-20T10:25:50Z</time>
      </trkpt>
      <trkpt lat="45.76048" lon="4.85976">
        <ele>170</ele>
        <time>2024-09-20T10:25:51Z</time>
      </trkpt>
      <trkpt lat="45.76048" lon="4.85976">
        <ele>169.8</ele>
        <time>2024-09-20T10:25:52Z</time>
      </trkpt>
      <trkpt lat="45.76053" lon="4.85972">
        <ele>169.8</ele>
        <time>2024-09-20T10:25:53Z</time>
      </trkpt>
      <trkpt lat="45.76056" lon="4.85972">
        <ele>169.8</ele>
        <time>2024-09-20T10:25:54Z</time>
      </trkpt>
      <trkpt lat="45.76059" lon="4.8597">
        <ele>169.8</ele>
        <time>2024-09-20T10:25:55Z</time>
      </trkpt>
      <trkpt lat="45.7606" lon="4.8597">
        <ele>169.8</ele>
        <time>2024-09-20T10:25:56Z</time>
      </trkpt>
      <trkpt lat="45.76057" lon="4.8597">
        <ele>169.8</ele>
        <time>2024-09-20T10:25:57Z</time>
      </trkpt>
      <trkpt lat="45.76057" lon="4.8597">
        <ele>169.8</ele>
        <time>2024-09-20T10:25:58Z</time>
      </trkpt>
      <trkpt lat="45.75973" lon="4.86108">
        <ele>170</ele>
        <time>2024-09-20T10:26:44Z</time>
      </trkpt>
      <trkpt lat="45.75973" lon="4.8611">
        <ele>170</ele>
        <time>2024-09-20T10:26:45Z</time>
      </trkpt>
      <trkpt lat="45.75972" lon="4.8611">
        <ele>170</ele>
        <time>2024-09-20T10:26:46Z</time>
      </trkpt>
      <trkpt lat="45.75972" lon="4.86109">
        <ele>170</ele>
        <time>2024-09-20T10:26:47Z</time>
      </trkpt>
      <trkpt lat="45.75972" lon="4.86109">
        <ele>172</ele>
        <time>2024-09-20T10:26:48Z</time>
      </trkpt>
      <trkpt lat="45.75972" lon="4.86108">
        <ele>172</ele>
        <time>2024-09-20T10:26:49Z</time>
      </trkpt>
      <trkpt lat="45.75971" lon="4.86108">
        <ele>172</ele>
        <time>2024-09-20T10:26:50Z</time>
      </trkpt>
      <trkpt lat="45.75971" lon="4.86107">
        <ele>171</ele>
        <time>2024-09-20T10:26:51Z</time>
      </trkpt>
      <trkpt lat="45.75971" lon="4.86107">
        <ele>171</ele>
        <time>2024-09-20T10:26:52Z</time>
      </trkpt>
      <trkpt lat="45.75971" lon="4.86107">
        <ele>170</ele>
        <time>2024-09-20T10:26:53Z</time>
      </trkpt>
      <trkpt lat="45.7597" lon="4.86106">
        <ele>170</ele>
        <time>2024-09-20T10:26:54Z</time>
      </trkpt>
      <trkpt lat="45.7597" lon="4.86106">
        <ele>170</ele>
        <time>2024-09-20T10:26:55Z</time>
      </trkpt>
      <trkpt lat="45.7597" lon="4.86105">
        <ele>170</ele>
        <time>2024-09-20T10:26:56Z</time>
      </trkpt>
      <trkpt lat="45.7597" lon="4.86105">
        <ele>170.4</ele>
        <time>2024-09-20T10:26:57Z</time>
      </trkpt>
      <trkpt lat="45.75969" lon="4.86104">
        <ele>170.2</ele>
        <time>2024-09-20T10:26:58Z</time>
      </trkpt>
      <trkpt lat="45.75969" lon="4.86104">
        <ele>170.2</ele>
        <time>2024-09-20T10:26:59Z</time>
      </trkpt>
      <trkpt lat="45.75969" lon="4.86103">
        <ele>170.2</ele>
        <time>2024-09-20T10:27:00Z</time>
      </trkpt>
      <trkpt lat="45.75969" lon="4.86103">
        <ele>170.2</ele>
        <time>2024-09-20T10:27:01Z</time>
      </trkpt>
      <trkpt lat="45.75968" lon="4.86102">
        <ele>170.4</ele>
        <time>2024-09-20T10:27:02Z</time>
      </trkpt>
      <trkpt lat="45.75968" lon="4.86102">
        <ele>170.4</ele>
        <time>2024-09-20T10:27:03Z</time>
      </trkpt>
      <trkpt lat="45.75968" lon="4.86101">
        <ele>170.4</ele>
        <time>2024-09-20T10:27:04Z</time>
      </trkpt>
      <trkpt lat="45.75968" lon="4.86101">
        <ele>170.4</ele>
        <time>2024-09-20T10:27:05Z</time>
      </trkpt>
      <trkpt lat="45.75967" lon="4.861">
        <ele>170.2</ele>
        <time>2024-09-20T10:27:06Z</time>
      </trkpt>
      <trkpt lat="45.75967" lon="4.861">
        <ele>170.2</ele>
        <time>2024-09-20T10:27:07Z</time>
      </trkpt>
      <trkpt lat="45.75967" lon="4.86099">
        <ele>170.2</ele>
        <time>2024-09-20T10:27:08Z</time>
      </trkpt>
      <trkpt lat="45.75967" lon="4.86099">
        <ele>170.2</ele>
        <time>2024-09-20T10:27:09Z</time>
      </trkpt>
      <trkpt lat="45.75966" lon="4.86098">
        <ele>170.2</ele>
        <time>2024-09-20T10:27:10Z</time>
      </trkpt>
      <trkpt lat="45.75966" lon="4.86098">
        <ele>170.2</ele>
        <time>2024-09-20T10:27:11Z</time>
      </trkpt>
      <trkpt lat="45.75966" lon="4.86098">
        <ele>170.2</ele>
        <time>2024-09-20T10:27:12Z</time>
      </trkpt>
      <trkpt lat="45.75966" lon="4.86097">
        <ele>170.2</ele>
        <time>2024-09-20T10:27:13Z</time>
      </trkpt>
      <trkpt lat="45.75965" lon="4.86097">
        <ele>170.2</ele>
        <time>2024-09-20T10:27:14Z</time>
      </trkpt>
      <trkpt lat="45.75965" lon="4.86096">
        <ele>170.4</ele>
        <time>2024-09-20T10:27:15Z</time>
      </trkpt>
      <trkpt lat="45.75965" lon="4.86096">
        <ele>170.4</ele>
        <time>2024-09-20T10:27:16Z</time>
      </trkpt>
      <trkpt lat="45.75965" lon="4.86095">
        <ele>170.4</ele>
        <time>2024-09-20T10:27:17Z</time>
      </trkpt>
      <trkpt lat="45.75964" lon="4.86095">
        <ele>170.4</ele>
        <time>2024-09-20T10:27:18Z</time>
      </trkpt>
      <trkpt lat="45.75964" lon="4.86094">
        <ele>170.4</ele>
        <time>2024-09-20T10:27:19Z</time>
      </trkpt>
      <trkpt lat="45.75964" lon="4.86094">
        <ele>170.4</ele>
        <time>2024-09-20T10:27:20Z</time>
      </trkpt>
      <trkpt lat="45.75964" lon="4.86093">
        <ele>170.4</ele>
        <time>2024-09-20T10:27:21Z</time>
      </trkpt>
      <trkpt lat="45.75963" lon="4.86093">
        <ele>170.4</ele>
        <time>2024-09-20T10:27:22Z</time>
      </trkpt>
      <trkpt lat="45.75963" lon="4.86092">
        <ele>170.4</ele>
        <time>2024-09-20T10:27:23Z</time>
      </trkpt>
      <trkpt lat="45.75963" lon="4.86092">
        <ele>170.4</ele>
        <time>2024-09-20T10:27:24Z</time>
      </trkpt>
      <trkpt lat="45.75963" lon="4.86091">
        <ele>170.2</ele>
        <time>2024-09-20T10:27:25Z</time>
      </trkpt>
      <trkpt lat="45.75962" lon="4.86091">
        <ele>170.2</ele>
        <time>2024-09-20T10:27:26Z</time>
      </trkpt>
      <trkpt lat="45.75962" lon="4.8609">
        <ele>170.4</ele>
        <time>2024-09-20T10:27:27Z</time>
      </trkpt>
      <trkpt lat="45.75962" lon="4.8609">
        <ele>170.4</ele>
        <time>2024-09-20T10:27:28Z</time>
      </trkpt>
      <trkpt lat="45.75962" lon="4.8609">
        <ele>170.4</ele>
        <time>2024-09-20T10:27:29Z</time>
      </trkpt>
      <trkpt lat="45.75961" lon="4.86089">
        <ele>170.4</ele>
        <time>2024-09-20T10:27:30Z</time>
      </trkpt>
      <trkpt lat="45.75961" lon="4.86089">
        <ele>170.4</ele>
        <time>2024-09-20T10:27:31Z</time>
      </trkpt>
      <trkpt lat="45.75961" lon="4.86088">
        <ele>170.4</ele>
        <time>2024-09-20T10:27:32Z</time>
      </trkpt>
      <trkpt lat="45.75961" lon="4.86088">
        <ele>170.2</ele>
        <time>2024-09-20T10:27:33Z</time>
      </trkpt>
      <trkpt lat="45.7596" lon="4.86087">
        <ele>170.2</ele>
        <time>2024-09-20T10:27:34Z</time>
      </trkpt>
      <trkpt lat="45.7596" lon="4.86087">
        <ele>170.2</ele>
        <time>2024-09-20T10:27:35Z</time>
      </trkpt>
      <trkpt lat="45.7596" lon="4.86086">
        <ele>170.2</ele>
        <time>2024-09-20T10:27:36Z</time>
      </trkpt>
      <trkpt lat="45.7596" lon="4.86086">
        <ele>170.4</ele>
        <time>2024-09-20T10:27:37Z</time>
      </trkpt>
      <trkpt lat="45.75959" lon="4.86085">
        <ele>170.4</ele>
        <time>2024-09-20T10:27:38Z</time>
      </trkpt>
      <trkpt lat="45.75959" lon="4.86085">
        <ele>170.4</ele>
        <time>2024-09-20T10:27:39Z</time>
      </trkpt>
      <trkpt lat="45.75959" lon="4.86084">
        <ele>170.4</ele>
        <time>2024-09-20T10:27:40Z</time>
      </trkpt>
      <trkpt lat="45.75959" lon="4.86084">
        <ele>170.4</ele>
        <time>2024-09-20T10:27:41Z</time>
      </trkpt>
      <trkpt lat="45.75958" lon="4.86083">
        <ele>170.4</ele>
        <time>2024-09-20T10:27:42Z</time>
      </trkpt>
      <trkpt lat="45.75958" lon="4.86083">
        <ele>170.2</ele>
        <time>2024-09-20T10:27:43Z</time>
      </trkpt>
      <trkpt lat="45.75958" lon="4.86082">
        <ele>170.2</ele>
        <time>2024-09-20T10:27:44Z</time>
      </trkpt>
      <trkpt lat="45.75958" lon="4.86082">
        <ele>170.2</ele>
        <time>2024-09-20T10:27:45Z</time>
      </trkpt>
      <trkpt lat="45.75957" lon="4.86082">
        <ele>170.2</ele>
        <time>2024-09-20T10:27:46Z</time>
      </trkpt>
      <trkpt lat="45.75957" lon="4.86081">
        <ele>170.4</ele>
        <time>2024-09-20T10:27:47Z</time>
      </trkpt>
      <trkpt lat="45.75957" lon="4.86081">
        <ele>170.4</ele>
        <time>2024-09-20T10:27:48Z</time>
      </trkpt>
      <trkpt lat="45.75957" lon="4.8608">
        <ele>170.4</ele>
        <time>2024-09-20T10:27:49Z</time>
      </trkpt>
      <trkpt lat="45.75956" lon="4.8608">
        <ele>170.4</ele>
        <time>2024-09-20T10:27:50Z</time>
      </trkpt>
      <trkpt lat="45.75956" lon="4.86079">
        <ele>170.4</ele>
        <time>2024-09-20T10:27:51Z</time>
      </trkpt>
      <trkpt lat="45.75956" lon="4.86079">
        <ele>170.4</ele>
        <time>2024-09-20T10:27:52Z</time>
      </trkpt>
      <trkpt lat="45.75956" lon="4.86078">
        <ele>170.4</ele>
        <time>2024-09-20T10:27:53Z</time>
      </trkpt>
      <trkpt lat="45.75955" lon="4.86078">
        <ele>170.4</ele>
        <time>2024-09-20T10:27:54Z</time>
      </trkpt>
      <trkpt lat="45.75955" lon="4.86077">
        <ele>170.2</ele>
        <time>2024-09-20T10:27:55Z</time>
      </trkpt>
      <trkpt lat="45.75955" lon="4.86077">
        <ele>170.2</ele>
        <time>2024-09-20T10:27:56Z</time>
      </trkpt>
      <trkpt lat="45.75937" lon="4.86036">
        <ele>170.4</ele>
        <time>2024-09-20T10:27:57Z</time>
      </trkpt>
      <trkpt lat="45.75938" lon="4.86032">
        <ele>170.4</ele>
        <time>2024-09-20T10:27:58Z</time>
      </trkpt>
      <trkpt lat="45.75939" lon="4.86024">
        <ele>170.4</ele>
        <time>2024-09-20T10:27:59Z</time>
      </trkpt>
      <trkpt lat="45.7594" lon="4.86018">
        <ele>170.4</ele>
        <time>2024-09-20T10:28:00Z</time>
      </trkpt>
      <trkpt lat="45.75944" lon="4.86012">
        <ele>170.4</ele>
        <time>2024-09-20T10:28:01Z</time>
      </trkpt>
      <trkpt lat="45.75947" lon="4.86007">
        <ele>170.4</ele>
        <time>2024-09-20T10:28:02Z</time>
      </trkpt>
      <trkpt lat="45.75948" lon="4.86001">
        <ele>170.4</ele>
        <time>2024-09-20T10:28:03Z</time>
      </trkpt>
      <trkpt lat="45.7595" lon="4.85999">
        <ele>170.4</ele>
        <time>2024-09-20T10:28:04Z</time>
      </trkpt>
      <trkpt lat="45.75955" lon="4.85993">
        <ele>170.4</ele>
        <time>2024-09-20T10:28:05Z</time>
      </trkpt>
      <trkpt lat="45.75955" lon="4.85993">
        <ele>170.4</ele>
        <time>2024-09-20T10:28:06Z</time>
      </trkpt>
      <trkpt lat="45.75956" lon="4.85989">
        <ele>170.4</ele>
        <time>2024-09-20T10:28:07Z</time>
      </trkpt>
      <trkpt lat="45.75956" lon="4.85987">
        <ele>170.4</ele>
        <time>2024-09-20T10:28:08Z</time>
      </trkpt>
      <trkpt lat="45.75956" lon="4.85989">
        <ele>170.4</ele>
        <time>2024-09-20T10:28:09Z</time>
      </trkpt>
      <trkpt lat="45.75957" lon="4.85991">
        <ele>170.4</ele>
        <time>2024-09-20T10:28:10Z</time>
      </trkpt>
      <trkpt lat="45.75958" lon="4.85993">
        <ele>170.4</ele>
        <time>2024-09-20T10:28:11Z</time>
      </trkpt>
      <trkpt lat="45.75959" lon="4.85996">
        <ele>170.4</ele>
        <time>2024-09-20T10:28:12Z</time>
      </trkpt>
      <trkpt lat="45.75959" lon="4.85998">
        <ele>170.4</ele>
        <time>2024-09-20T10:28:13Z</time>
      </trkpt>
      <trkpt lat="45.7596" lon="4.86">
        <ele>170.2</ele>
        <time>2024-09-20T10:28:14Z</time>
      </trkpt>
      <trkpt lat="45.75961" lon="4.86002">
        <ele>170.2</ele>
        <time>2024-09-20T10:28:15Z</time>
      </trkpt>
      <trkpt lat="45.75961" lon="4.86004">
        <ele>170.2</ele>
        <time>2024-09-20T10:28:16Z</time>
      </trkpt>
      <trkpt lat="45.75962" lon="4.86007">
        <ele>170.2</ele>
        <time>2024-09-20T10:28:17Z</time>
      </trkpt>
      <trkpt lat="45.75963" lon="4.86009">
        <ele>170.2</ele>
        <time>2024-09-20T10:28:18Z</time>
      </trkpt>
      <trkpt lat="45.75964" lon="4.86011">
        <ele>170.2</ele>
        <time>2024-09-20T10:28:19Z</time>
      </trkpt>
      <trkpt lat="45.75964" lon="4.86013">
        <ele>170.2</ele>
        <time>2024-09-20T10:28:20Z</time>
      </trkpt>
      <trkpt lat="45.75965" lon="4.86016">
        <ele>170.2</ele>
        <time>2024-09-20T10:28:21Z</time>
      </trkpt>
      <trkpt lat="45.75966" lon="4.86018">
        <ele>170.2</ele>
        <time>2024-09-20T10:28:22Z</time>
      </trkpt>
      <trkpt lat="45.75967" lon="4.8602">
        <ele>170.2</ele>
        <time>2024-09-20T10:28:23Z</time>
      </trkpt>
      <trkpt lat="45.75967" lon="4.86022">
        <ele>170.4</ele>
        <time>2024-09-20T10:28:24Z</time>
      </trkpt>
      <trkpt lat="45.75968" lon="4.86024">
        <ele>170.4</ele>
        <time>2024-09-20T10:28:25Z</time>
      </trkpt>
      <trkpt lat="45.75969" lon="4.86027">
        <ele>170.2</ele>
        <time>2024-09-20T10:28:26Z</time>
      </trkpt>
      <trkpt lat="45.75969" lon="4.86029">
        <ele>170.4</ele>
        <time>2024-09-20T10:28:27Z</time>
      </trkpt>
      <trkpt lat="45.7597" lon="4.86031">
        <ele>170.4</ele>
        <time>2024-09-20T10:28:28Z</time>
      </trkpt>
      <trkpt lat="45.75971" lon="4.86033">
        <ele>170.4</ele>
        <time>2024-09-20T10:28:29Z</time>
      </trkpt>
      <trkpt lat="45.75972" lon="4.86036">
        <ele>170.4</ele>
        <time>2024-09-20T10:28:30Z</time>
      </trkpt>
      <trkpt lat="45.75988" lon="4.86083">
        <ele>170.4</ele>
        <time>2024-09-20T10:28:31Z</time>
      </trkpt>
      <trkpt lat="45.75988" lon="4.86079">
        <ele>170.4</ele>
        <time>2024-09-20T10:28:32Z</time>
      </trkpt>
      <trkpt lat="45.75988" lon="4.86075">
        <ele>170.4</ele>
        <time>2024-09-20T10:28:33Z</time>
      </trkpt>
      <trkpt lat="45.75988" lon="4.86071">
        <ele>170.4</ele>
        <time>2024-09-20T10:28:34Z</time>
      </trkpt>
      <trkpt lat="45.75988" lon="4.86068">
        <ele>170.4</ele>
        <time>2024-09-20T10:28:35Z</time>
      </trkpt>
      <trkpt lat="45.75987" lon="4.86048">
        <ele>170.6</ele>
        <time>2024-09-20T10:28:36Z</time>
      </trkpt>
      <trkpt lat="45.75992" lon="4.86047">
        <ele>170.6</ele>
        <time>2024-09-20T10:28:37Z</time>
      </trkpt>
      <trkpt lat="45.75995" lon="4.86046">
        <ele>170.6</ele>
        <time>2024-09-20T10:28:38Z</time>
      </trkpt>
      <trkpt lat="45.75996" lon="4.86045">
        <ele>170.6</ele>
        <time>2024-09-20T10:28:39Z</time>
      </trkpt>
      <trkpt lat="45.75995" lon="4.86049">
        <ele>170.6</ele>
        <time>2024-09-20T10:28:40Z</time>
      </trkpt>
      <trkpt lat="45.75996" lon="4.86054">
        <ele>170.6</ele>
        <time>2024-09-20T10:28:41Z</time>
      </trkpt>
      <trkpt lat="45.75996" lon="4.86054">
        <ele>170.6</ele>
        <time>2024-09-20T10:28:42Z</time>
      </trkpt>
      <trkpt lat="45.75996" lon="4.86054">
        <ele>170.6</ele>
        <time>2024-09-20T10:28:43Z</time>
      </trkpt>
      <trkpt lat="45.75996" lon="4.86054">
        <ele>170.6</ele>
        <time>2024-09-20T10:28:44Z</time>
      </trkpt>
      <trkpt lat="45.75996" lon="4.86054">
        <ele>170.6</ele>
        <time>2024-09-20T10:28:45Z</time>
      </trkpt>
      <trkpt lat="45.75996" lon="4.86054">
        <ele>170.6</ele>
        <time>2024-09-20T10:28:46Z</time>
      </trkpt>
      <trkpt lat="45.75996" lon="4.86054">
        <ele>170.6</ele>
        <time>2024-09-20T10:28:47Z</time>
      </trkpt>
      <trkpt lat="45.75996" lon="4.86054">
        <ele>170.6</ele>
        <time>2024-09-20T10:28:48Z</time>
      </trkpt>
      <trkpt lat="45.75996" lon="4.86054">
        <ele>170.6</ele>
        <time>2024-09-20T10:28:49Z</time>
      </trkpt>
      <trkpt lat="45.75996" lon="4.86054">
        <ele>170.6</ele>
        <time>2024-09-20T10:28:50Z</time>
      </trkpt>
      <trkpt lat="45.75996" lon="4.86054">
        <ele>170.6</ele>
        <time>2024-09-20T10:28:51Z</time>
      </trkpt>
      <trkpt lat="45.75996" lon="4.86054">
        <ele>170.6</ele>
        <time>2024-09-20T10:28:52Z</time>
      </trkpt>
      <trkpt lat="45.75996" lon="4.86054">
        <ele>170.8</ele>
        <time>2024-09-20T10:28:53Z</time>
      </trkpt>
      <trkpt lat="45.75996" lon="4.86054">
        <ele>170.8</ele>
        <time>2024-09-20T10:28:54Z</time>
      </trkpt>
      <trkpt lat="45.75996" lon="4.86054">
        <ele>170.8</ele>
        <time>2024-09-20T10:28:55Z</time>
      </trkpt>
      <trkpt lat="45.75996" lon="4.86054">
        <ele>170.8</ele>
        <time>2024-09-20T10:28:56Z</time>
      </trkpt>
      <trkpt lat="45.75996" lon="4.86054">
        <ele>170.6</ele>
        <time>2024-09-20T10:28:57Z</time>
      </trkpt>
      <trkpt lat="45.75996" lon="4.86054">
        <ele>170.6</ele>
        <time>2024-09-20T10:28:58Z</time>
      </trkpt>
      <trkpt lat="45.75996" lon="4.86054">
        <ele>170.6</ele>
        <time>2024-09-20T10:28:59Z</time>
      </trkpt>
      <trkpt lat="45.75996" lon="4.86054">
        <ele>170.6</ele>
        <time>2024-09-20T10:29:00Z</time>
      </trkpt>
      <trkpt lat="45.75996" lon="4.86054">
        <ele>170.6</ele>
        <time>2024-09-20T10:29:01Z</time>
      </trkpt>
      <trkpt lat="45.75996" lon="4.86054">
        <ele>170.6</ele>
        <time>2024-09-20T10:29:02Z</time>
      </trkpt>
      <trkpt lat="45.75996" lon="4.86054">
        <ele>170.8</ele>
        <time>2024-09-20T10:29:03Z</time>
      </trkpt>
      <trkpt lat="45.75996" lon="4.86054">
        <ele>170.8</ele>
        <time>2024-09-20T10:29:04Z</time>
      </trkpt>
      <trkpt lat="45.75996" lon="4.86054">
        <ele>170.8</ele>
        <time>2024-09-20T10:29:05Z</time>
      </trkpt>
      <trkpt lat="45.75996" lon="4.86054">
        <ele>170.8</ele>
        <time>2024-09-20T10:29:06Z</time>
      </trkpt>
      <trkpt lat="45.75996" lon="4.86054">
        <ele>170.6</ele>
        <time>2024-09-20T10:29:07Z</time>
      </trkpt>
      <trkpt lat="45.75996" lon="4.86054">
        <ele>170.6</ele>
        <time>2024-09-20T10:29:08Z</time>
      </trkpt>
      <trkpt lat="45.75996" lon="4.86054">
        <ele>170.6</ele>
        <time>2024-09-20T10:29:09Z</time>
      </trkpt>
      <trkpt lat="45.75996" lon="4.86054">
        <ele>170.6</ele>
        <time>2024-09-20T10:29:10Z</time>
      </trkpt>
      <trkpt lat="45.75996" lon="4.86054">
        <ele>170.6</ele>
        <time>2024-09-20T10:29:11Z</time>
      </trkpt>
      <trkpt lat="45.75996" lon="4.86054">
        <ele>170.6</ele>
        <time>2024-09-20T10:29:12Z</time>
      </trkpt>
      <trkpt lat="45.75996" lon="4.86054">
        <ele>170.6</ele>
        <time>2024-09-20T10:29:13Z</time>
      </trkpt>
      <trkpt lat="45.75996" lon="4.86054">
        <ele>170.6</ele>
        <time>2024-09-20T10:29:14Z</time>
      </trkpt>
      <trkpt lat="45.75996" lon="4.86054">
        <ele>170.6</ele>
        <time>2024-09-20T10:29:15Z</time>
      </trkpt>
      <trkpt lat="45.75996" lon="4.86054">
        <ele>170.6</ele>
        <time>2024-09-20T10:29:16Z</time>
      </trkpt>
      <trkpt lat="45.75996" lon="4.86054">
        <ele>170.6</ele>
        <time>2024-09-20T10:29:17Z</time>
      </trkpt>
      <trkpt lat="45.75996" lon="4.86054">
        <ele>170.6</ele>
        <time>2024-09-20T10:29:18Z</time>
      </trkpt>
      <trkpt lat="45.75996" lon="4.86054">
        <ele>170.8</ele>
        <time>2024-09-20T10:29:19Z</time>
      </trkpt>
      <trkpt lat="45.75996" lon="4.86054">
        <ele>170.6</ele>
        <time>2024-09-20T10:29:20Z</time>
      </trkpt>
      <trkpt lat="45.75996" lon="4.86054">
        <ele>170.6</ele>
        <time>2024-09-20T10:29:21Z</time>
      </trkpt>
      <trkpt lat="45.75996" lon="4.86054">
        <ele>170.6</ele>
        <time>2024-09-20T10:29:22Z</time>
      </trkpt>
      <trkpt lat="45.75996" lon="4.86054">
        <ele>170.6</ele>
        <time>2024-09-20T10:29:23Z</time>
      </trkpt>
      <trkpt lat="45.75996" lon="4.86054">
        <ele>170.6</ele>
        <time>2024-09-20T10:29:24Z</time>
      </trkpt>
      <trkpt lat="45.75996" lon="4.86054">
        <ele>170</ele>
        <time>2024-09-20T10:29:25Z</time>
      </trkpt>
      <trkpt lat="45.75996" lon="4.86054">
        <ele>170</ele>
        <time>2024-09-20T10:29:26Z</time>
      </trkpt>
      <trkpt lat="45.75996" lon="4.86054">
        <ele>170</ele>
        <time>2024-09-20T10:29:27Z</time>
      </trkpt>
      <trkpt lat="45.75996" lon="4.86054">
        <ele>170</ele>
        <time>2024-09-20T10:29:28Z</time>
      </trkpt>
      <trkpt lat="45.75996" lon="4.86054">
        <ele>172</ele>
        <time>2024-09-20T10:29:29Z</time>
      </trkpt>
      <trkpt lat="45.75996" lon="4.86054">
        <ele>172</ele>
        <time>2024-09-20T10:29:30Z</time>
      </trkpt>
      <trkpt lat="45.75996" lon="4.86054">
        <ele>172</ele>
        <time>2024-09-20T10:29:31Z</time>
      </trkpt>
      <trkpt lat="45.75996" lon="4.86054">
        <ele>171</ele>
        <time>2024-09-20T10:29:32Z</time>
      </trkpt>
      <trkpt lat="45.75996" lon="4.86054">
        <ele>170.6</ele>
        <time>2024-09-20T10:29:33Z</time>
      </trkpt>
      <trkpt lat="45.75996" lon="4.86054">
        <ele>170.6</ele>
        <time>2024-09-20T10:29:34Z</time>
      </trkpt>
      <trkpt lat="45.75996" lon="4.86054">
        <ele>170.6</ele>
        <time>2024-09-20T10:29:35Z</time>
      </trkpt>
    </trkseg>
  </trk>
</gpx>